<?xml version="1.0" encoding="UTF-8" standalone="no" ?>
<gpx xmlns="http://www.topografix.com/GPX/1/1" xmlns:xsi="http://www.w3.org/2001/XMLSchema-instance" xsi:schemaLocation="http://www.topografix.com/GPX/1/1 http://www.topografix.com/GPX/1/1/gpx.xsd" version="1.1" creator="VisuGPX - https://www.visugpx.com">
  <metadata>
    <name>Le Rozier, gorges du Tarn et de la Jonte</name>
    <desc><![CDATA[Rocher de Cinglegros (échelles en mauvais état)
Rocher de Capluc (échelles)
Corniche de la Jonte

#enregistré #asptt-jeudi]]></desc>
  </metadata>
  <wpt lat="44.235" lon="3.23719">
    <ele>643.4</ele>
    <name><![CDATA[Baus del Biel (grande arche)]]></name>
    <desc><![CDATA[Arche énorme en contrebas du sentier]]></desc>
  </wpt>
  <wpt lat="44.23771" lon="3.23712">
    <ele>726.9</ele>
    <name><![CDATA[Arche, rocher troué]]></name>
  </wpt>
  <wpt lat="44.22049" lon="3.229">
    <ele>749.4</ele>
    <name><![CDATA[Cinglegros]]></name>
  </wpt>
  <wpt lat="44.21968" lon="3.23105">
    <ele>762.8</ele>
    <name><![CDATA[échelles puis escalade]]></name>
  </wpt>
  <wpt lat="44.22363" lon="3.2274">
    <ele>394</ele>
  </wpt>
  <wpt lat="44.19329" lon="3.21447">
    <ele>644.3</ele>
    <name><![CDATA[Rocher de Capluc]]></name>
  </wpt>
  <trk>
    <name><![CDATA[2026-04-23 09:31]]></name>
    <extensions>
      <line xmlns="http://www.topografix.com/GPX/gpx_style/0/2">
        <color>0000FF</color>
        <opacity>0.59</opacity>
        <width>6</width>
      </line>
    </extensions>
    <trkseg>
      <trkpt lat="44.19138" lon="3.20705">
        <ele>405.96</ele>
        <time>2026-04-23T07:31:04.516Z</time>
      </trkpt>
      <trkpt lat="44.19149" lon="3.20714">
        <ele>406.96</ele>
        <time>2026-04-23T07:31:09.862Z</time>
      </trkpt>
      <trkpt lat="44.19156" lon="3.20715">
        <ele>406.96</ele>
        <time>2026-04-23T07:31:15.165Z</time>
      </trkpt>
      <trkpt lat="44.19162" lon="3.20714">
        <ele>406.96</ele>
        <time>2026-04-23T07:31:20.488Z</time>
      </trkpt>
      <trkpt lat="44.19165" lon="3.20714">
        <ele>406.96</ele>
        <time>2026-04-23T07:31:26.101Z</time>
      </trkpt>
      <trkpt lat="44.1917" lon="3.20712">
        <ele>406.96</ele>
        <time>2026-04-23T07:31:31.597Z</time>
      </trkpt>
      <trkpt lat="44.19176" lon="3.20712">
        <ele>406.21</ele>
        <time>2026-04-23T07:31:36.616Z</time>
      </trkpt>
      <trkpt lat="44.1918" lon="3.20711">
        <ele>410.56</ele>
        <time>2026-04-23T07:31:41.632Z</time>
      </trkpt>
      <trkpt lat="44.19186" lon="3.20712">
        <ele>411.13</ele>
        <time>2026-04-23T07:31:46.743Z</time>
      </trkpt>
      <trkpt lat="44.19192" lon="3.20711">
        <ele>411.87</ele>
        <time>2026-04-23T07:31:51.771Z</time>
      </trkpt>
      <trkpt lat="44.19198" lon="3.20712">
        <ele>411.98</ele>
        <time>2026-04-23T07:31:56.787Z</time>
      </trkpt>
      <trkpt lat="44.19204" lon="3.20712">
        <ele>411.82</ele>
        <time>2026-04-23T07:32:01.845Z</time>
      </trkpt>
      <trkpt lat="44.19211" lon="3.20715">
        <ele>410.66</ele>
        <time>2026-04-23T07:32:07.502Z</time>
      </trkpt>
      <trkpt lat="44.19218" lon="3.20717">
        <ele>408.93</ele>
        <time>2026-04-23T07:32:12.597Z</time>
      </trkpt>
      <trkpt lat="44.19225" lon="3.20718">
        <ele>410.79</ele>
        <time>2026-04-23T07:32:17.942Z</time>
      </trkpt>
      <trkpt lat="44.19231" lon="3.20719">
        <ele>408.2</ele>
        <time>2026-04-23T07:32:23.511Z</time>
      </trkpt>
      <trkpt lat="44.19236" lon="3.20722">
        <ele>408.75</ele>
        <time>2026-04-23T07:32:28.819Z</time>
      </trkpt>
      <trkpt lat="44.19241" lon="3.20725">
        <ele>408.76</ele>
        <time>2026-04-23T07:32:34.138Z</time>
      </trkpt>
      <trkpt lat="44.19246" lon="3.20727">
        <ele>406.81</ele>
        <time>2026-04-23T07:32:39.659Z</time>
      </trkpt>
      <trkpt lat="44.1925" lon="3.2073">
        <ele>409.07</ele>
        <time>2026-04-23T07:32:44.781Z</time>
      </trkpt>
      <trkpt lat="44.19254" lon="3.20736">
        <ele>406.36</ele>
        <time>2026-04-23T07:32:50.145Z</time>
      </trkpt>
      <trkpt lat="44.19252" lon="3.20745">
        <ele>408.97</ele>
        <time>2026-04-23T07:32:55.207Z</time>
      </trkpt>
      <trkpt lat="44.19255" lon="3.20753">
        <ele>406.4</ele>
        <time>2026-04-23T07:33:00.602Z</time>
      </trkpt>
      <trkpt lat="44.1926" lon="3.20757">
        <ele>408.94</ele>
        <time>2026-04-23T07:33:06.153Z</time>
      </trkpt>
      <trkpt lat="44.19268" lon="3.20758">
        <ele>408.74</ele>
        <time>2026-04-23T07:33:11.167Z</time>
      </trkpt>
      <trkpt lat="44.19275" lon="3.20762">
        <ele>409.17</ele>
        <time>2026-04-23T07:33:17.144Z</time>
      </trkpt>
      <trkpt lat="44.19279" lon="3.20769">
        <ele>406.36</ele>
        <time>2026-04-23T07:33:22.620Z</time>
      </trkpt>
      <trkpt lat="44.1928" lon="3.20776">
        <ele>407.99</ele>
        <time>2026-04-23T07:33:28.136Z</time>
      </trkpt>
      <trkpt lat="44.19281" lon="3.2078">
        <ele>409.46</ele>
        <time>2026-04-23T07:33:33.523Z</time>
      </trkpt>
      <trkpt lat="44.19283" lon="3.20786">
        <ele>408.95</ele>
        <time>2026-04-23T07:33:38.842Z</time>
      </trkpt>
      <trkpt lat="44.19287" lon="3.20792">
        <ele>411.89</ele>
        <time>2026-04-23T07:33:44.143Z</time>
      </trkpt>
      <trkpt lat="44.1929" lon="3.20796">
        <ele>412.37</ele>
        <time>2026-04-23T07:33:49.603Z</time>
      </trkpt>
      <trkpt lat="44.19292" lon="3.20799">
        <ele>412.59</ele>
        <time>2026-04-23T07:33:54.981Z</time>
      </trkpt>
      <trkpt lat="44.19293" lon="3.20806">
        <ele>411.25</ele>
        <time>2026-04-23T07:34:00.107Z</time>
      </trkpt>
      <trkpt lat="44.19296" lon="3.20811">
        <ele>411.61</ele>
        <time>2026-04-23T07:34:05.229Z</time>
      </trkpt>
      <trkpt lat="44.19298" lon="3.20817">
        <ele>413.65</ele>
        <time>2026-04-23T07:34:10.580Z</time>
      </trkpt>
      <trkpt lat="44.193" lon="3.20823">
        <ele>414.46</ele>
        <time>2026-04-23T07:34:15.873Z</time>
      </trkpt>
      <trkpt lat="44.193" lon="3.20828">
        <ele>411.58</ele>
        <time>2026-04-23T07:34:21.162Z</time>
      </trkpt>
      <trkpt lat="44.193" lon="3.20831">
        <ele>415.36</ele>
        <time>2026-04-23T07:34:26.184Z</time>
      </trkpt>
      <trkpt lat="44.19302" lon="3.20838">
        <ele>415.26</ele>
        <time>2026-04-23T07:34:31.584Z</time>
      </trkpt>
      <trkpt lat="44.19304" lon="3.20845">
        <ele>416.83</ele>
        <time>2026-04-23T07:34:37.063Z</time>
      </trkpt>
      <trkpt lat="44.19306" lon="3.2085">
        <ele>413.91</ele>
        <time>2026-04-23T07:34:42.198Z</time>
      </trkpt>
      <trkpt lat="44.19308" lon="3.20858">
        <ele>416.09</ele>
        <time>2026-04-23T07:34:48.000Z</time>
      </trkpt>
      <trkpt lat="44.19311" lon="3.20865">
        <ele>417.97</ele>
        <time>2026-04-23T07:34:53.083Z</time>
      </trkpt>
      <trkpt lat="44.19313" lon="3.20872">
        <ele>416.06</ele>
        <time>2026-04-23T07:34:58.725Z</time>
      </trkpt>
      <trkpt lat="44.19315" lon="3.20878">
        <ele>418.99</ele>
        <time>2026-04-23T07:35:03.865Z</time>
      </trkpt>
      <trkpt lat="44.19317" lon="3.20883">
        <ele>419.67</ele>
        <time>2026-04-23T07:35:09.196Z</time>
      </trkpt>
      <trkpt lat="44.19319" lon="3.2089">
        <ele>420.82</ele>
        <time>2026-04-23T07:35:14.344Z</time>
      </trkpt>
      <trkpt lat="44.19321" lon="3.20897">
        <ele>418.72</ele>
        <time>2026-04-23T07:35:19.847Z</time>
      </trkpt>
      <trkpt lat="44.19323" lon="3.20903">
        <ele>421.91</ele>
        <time>2026-04-23T07:35:25.019Z</time>
      </trkpt>
      <trkpt lat="44.19325" lon="3.20908">
        <ele>422.83</ele>
        <time>2026-04-23T07:35:30.111Z</time>
      </trkpt>
      <trkpt lat="44.19327" lon="3.20914">
        <ele>420.42</ele>
        <time>2026-04-23T07:35:35.126Z</time>
      </trkpt>
      <trkpt lat="44.19329" lon="3.2092">
        <ele>420.54</ele>
        <time>2026-04-23T07:35:40.142Z</time>
      </trkpt>
      <trkpt lat="44.1933" lon="3.20927">
        <ele>420.79</ele>
        <time>2026-04-23T07:35:45.788Z</time>
      </trkpt>
      <trkpt lat="44.19332" lon="3.20932">
        <ele>424.41</ele>
        <time>2026-04-23T07:35:50.984Z</time>
      </trkpt>
      <trkpt lat="44.19336" lon="3.20938">
        <ele>421.6</ele>
        <time>2026-04-23T07:35:56.018Z</time>
      </trkpt>
      <trkpt lat="44.19339" lon="3.20943">
        <ele>422.21</ele>
        <time>2026-04-23T07:36:01.024Z</time>
      </trkpt>
      <trkpt lat="44.19342" lon="3.20948">
        <ele>422.59</ele>
        <time>2026-04-23T07:36:06.120Z</time>
      </trkpt>
      <trkpt lat="44.19345" lon="3.20953">
        <ele>423.64</ele>
        <time>2026-04-23T07:36:11.497Z</time>
      </trkpt>
      <trkpt lat="44.19347" lon="3.2096">
        <ele>423.6</ele>
        <time>2026-04-23T07:36:16.834Z</time>
      </trkpt>
      <trkpt lat="44.19348" lon="3.20966">
        <ele>424.16</ele>
        <time>2026-04-23T07:36:22.055Z</time>
      </trkpt>
      <trkpt lat="44.1935" lon="3.20974">
        <ele>425.77</ele>
        <time>2026-04-23T07:36:28.165Z</time>
      </trkpt>
      <trkpt lat="44.19351" lon="3.2098">
        <ele>425.54</ele>
        <time>2026-04-23T07:36:33.169Z</time>
      </trkpt>
      <trkpt lat="44.19352" lon="3.20987">
        <ele>425.16</ele>
        <time>2026-04-23T07:36:38.630Z</time>
      </trkpt>
      <trkpt lat="44.19353" lon="3.2099">
        <ele>425.36</ele>
        <time>2026-04-23T07:36:44.009Z</time>
      </trkpt>
      <trkpt lat="44.19356" lon="3.20993">
        <ele>425.97</ele>
        <time>2026-04-23T07:36:49.895Z</time>
      </trkpt>
      <trkpt lat="44.19357" lon="3.20996">
        <ele>425.97</ele>
        <time>2026-04-23T07:36:55.496Z</time>
      </trkpt>
      <trkpt lat="44.1936" lon="3.21005">
        <ele>427.84</ele>
        <time>2026-04-23T07:37:00.496Z</time>
      </trkpt>
      <trkpt lat="44.19362" lon="3.21015">
        <ele>427.73</ele>
        <time>2026-04-23T07:37:05.513Z</time>
      </trkpt>
      <trkpt lat="44.19365" lon="3.21021">
        <ele>427.19</ele>
        <time>2026-04-23T07:37:11.051Z</time>
      </trkpt>
      <trkpt lat="44.19368" lon="3.21029">
        <ele>427.7</ele>
        <time>2026-04-23T07:37:16.297Z</time>
      </trkpt>
      <trkpt lat="44.19371" lon="3.21035">
        <ele>428.03</ele>
        <time>2026-04-23T07:37:21.694Z</time>
      </trkpt>
      <trkpt lat="44.19376" lon="3.2104">
        <ele>427.87</ele>
        <time>2026-04-23T07:37:27.173Z</time>
      </trkpt>
      <trkpt lat="44.19379" lon="3.21046">
        <ele>427.62</ele>
        <time>2026-04-23T07:37:32.189Z</time>
      </trkpt>
      <trkpt lat="44.19382" lon="3.21052">
        <ele>428.02</ele>
        <time>2026-04-23T07:37:37.204Z</time>
      </trkpt>
      <trkpt lat="44.19385" lon="3.2106">
        <ele>428.41</ele>
        <time>2026-04-23T07:37:43.115Z</time>
      </trkpt>
      <trkpt lat="44.19385" lon="3.21066">
        <ele>430.1</ele>
        <time>2026-04-23T07:37:48.753Z</time>
      </trkpt>
      <trkpt lat="44.19387" lon="3.21072">
        <ele>428.86</ele>
        <time>2026-04-23T07:37:54.170Z</time>
      </trkpt>
      <trkpt lat="44.19391" lon="3.21077">
        <ele>428.19</ele>
        <time>2026-04-23T07:37:59.185Z</time>
      </trkpt>
      <trkpt lat="44.19394" lon="3.21084">
        <ele>428.4</ele>
        <time>2026-04-23T07:38:04.233Z</time>
      </trkpt>
      <trkpt lat="44.19398" lon="3.21089">
        <ele>429.87</ele>
        <time>2026-04-23T07:38:09.749Z</time>
      </trkpt>
      <trkpt lat="44.19401" lon="3.21098">
        <ele>429.85</ele>
        <time>2026-04-23T07:38:15.191Z</time>
      </trkpt>
      <trkpt lat="44.19404" lon="3.21106">
        <ele>430.31</ele>
        <time>2026-04-23T07:38:20.524Z</time>
      </trkpt>
      <trkpt lat="44.19408" lon="3.21112">
        <ele>433.7</ele>
        <time>2026-04-23T07:38:25.921Z</time>
      </trkpt>
      <trkpt lat="44.19409" lon="3.2112">
        <ele>430.82</ele>
        <time>2026-04-23T07:38:30.946Z</time>
      </trkpt>
      <trkpt lat="44.19412" lon="3.21127">
        <ele>430.32</ele>
        <time>2026-04-23T07:38:35.990Z</time>
      </trkpt>
      <trkpt lat="44.19413" lon="3.21132">
        <ele>430.62</ele>
        <time>2026-04-23T07:38:41.083Z</time>
      </trkpt>
      <trkpt lat="44.19415" lon="3.21138">
        <ele>430.9</ele>
        <time>2026-04-23T07:38:46.247Z</time>
      </trkpt>
      <trkpt lat="44.19415" lon="3.21144">
        <ele>431.5</ele>
        <time>2026-04-23T07:38:51.474Z</time>
      </trkpt>
      <trkpt lat="44.19418" lon="3.21149">
        <ele>432.2</ele>
        <time>2026-04-23T07:38:56.624Z</time>
      </trkpt>
      <trkpt lat="44.19421" lon="3.21154">
        <ele>432.28</ele>
        <time>2026-04-23T07:39:01.826Z</time>
      </trkpt>
      <trkpt lat="44.19428" lon="3.21159">
        <ele>432.17</ele>
        <time>2026-04-23T07:39:07.109Z</time>
      </trkpt>
      <trkpt lat="44.19431" lon="3.21167">
        <ele>432.78</ele>
        <time>2026-04-23T07:39:12.203Z</time>
      </trkpt>
      <trkpt lat="44.19431" lon="3.21176">
        <ele>436.03</ele>
        <time>2026-04-23T07:39:17.682Z</time>
      </trkpt>
      <trkpt lat="44.19434" lon="3.21179">
        <ele>432.76</ele>
        <time>2026-04-23T07:39:22.910Z</time>
      </trkpt>
      <trkpt lat="44.1944" lon="3.21182">
        <ele>432.74</ele>
        <time>2026-04-23T07:39:28.180Z</time>
      </trkpt>
      <trkpt lat="44.1944" lon="3.21183">
        <ele>431.34</ele>
        <time>2026-04-23T07:39:35.625Z</time>
      </trkpt>
      <trkpt lat="44.19442" lon="3.21192">
        <ele>432.67</ele>
        <time>2026-04-23T07:39:40.765Z</time>
      </trkpt>
      <trkpt lat="44.19444" lon="3.21199">
        <ele>433.02</ele>
        <time>2026-04-23T07:39:46.545Z</time>
      </trkpt>
      <trkpt lat="44.19446" lon="3.21202">
        <ele>433.27</ele>
        <time>2026-04-23T07:39:51.666Z</time>
      </trkpt>
      <trkpt lat="44.19449" lon="3.21205">
        <ele>433.68</ele>
        <time>2026-04-23T07:39:56.806Z</time>
      </trkpt>
      <trkpt lat="44.19453" lon="3.21212">
        <ele>433.83</ele>
        <time>2026-04-23T07:40:02.905Z</time>
      </trkpt>
      <trkpt lat="44.19455" lon="3.21221">
        <ele>434.82</ele>
        <time>2026-04-23T07:40:08.193Z</time>
      </trkpt>
      <trkpt lat="44.19457" lon="3.2123">
        <ele>435.32</ele>
        <time>2026-04-23T07:40:13.646Z</time>
      </trkpt>
      <trkpt lat="44.19463" lon="3.21236">
        <ele>435.42</ele>
        <time>2026-04-23T07:40:19.204Z</time>
      </trkpt>
      <trkpt lat="44.19469" lon="3.2124">
        <ele>436.31</ele>
        <time>2026-04-23T07:40:24.411Z</time>
      </trkpt>
      <trkpt lat="44.19475" lon="3.21243">
        <ele>436.27</ele>
        <time>2026-04-23T07:40:29.865Z</time>
      </trkpt>
      <trkpt lat="44.1948" lon="3.21249">
        <ele>435.68</ele>
        <time>2026-04-23T07:40:35.189Z</time>
      </trkpt>
      <trkpt lat="44.19483" lon="3.21253">
        <ele>435.42</ele>
        <time>2026-04-23T07:40:40.204Z</time>
      </trkpt>
      <trkpt lat="44.19487" lon="3.21258">
        <ele>435.71</ele>
        <time>2026-04-23T07:40:46.146Z</time>
      </trkpt>
      <trkpt lat="44.1949" lon="3.21261">
        <ele>435.66</ele>
        <time>2026-04-23T07:40:51.624Z</time>
      </trkpt>
      <trkpt lat="44.19492" lon="3.21267">
        <ele>435.65</ele>
        <time>2026-04-23T07:40:57.169Z</time>
      </trkpt>
      <trkpt lat="44.19493" lon="3.21272">
        <ele>436.31</ele>
        <time>2026-04-23T07:41:02.204Z</time>
      </trkpt>
      <trkpt lat="44.19493" lon="3.21279">
        <ele>437.28</ele>
        <time>2026-04-23T07:41:07.681Z</time>
      </trkpt>
      <trkpt lat="44.19499" lon="3.21285">
        <ele>437.26</ele>
        <time>2026-04-23T07:41:13.407Z</time>
      </trkpt>
      <trkpt lat="44.19506" lon="3.21289">
        <ele>437.32</ele>
        <time>2026-04-23T07:41:18.788Z</time>
      </trkpt>
      <trkpt lat="44.19512" lon="3.21293">
        <ele>437.23</ele>
        <time>2026-04-23T07:41:23.848Z</time>
      </trkpt>
      <trkpt lat="44.19516" lon="3.21295">
        <ele>437.62</ele>
        <time>2026-04-23T07:41:29.627Z</time>
      </trkpt>
      <trkpt lat="44.19521" lon="3.21298">
        <ele>438.36</ele>
        <time>2026-04-23T07:41:35.078Z</time>
      </trkpt>
      <trkpt lat="44.19526" lon="3.21305">
        <ele>438.47</ele>
        <time>2026-04-23T07:41:40.563Z</time>
      </trkpt>
      <trkpt lat="44.19532" lon="3.21312">
        <ele>438.23</ele>
        <time>2026-04-23T07:41:45.809Z</time>
      </trkpt>
      <trkpt lat="44.19537" lon="3.21319">
        <ele>438.19</ele>
        <time>2026-04-23T07:41:51.158Z</time>
      </trkpt>
      <trkpt lat="44.19541" lon="3.21324">
        <ele>438.34</ele>
        <time>2026-04-23T07:41:56.174Z</time>
      </trkpt>
      <trkpt lat="44.19546" lon="3.21328">
        <ele>439.02</ele>
        <time>2026-04-23T07:42:01.609Z</time>
      </trkpt>
      <trkpt lat="44.19552" lon="3.21334">
        <ele>438.71</ele>
        <time>2026-04-23T07:42:07.164Z</time>
      </trkpt>
      <trkpt lat="44.19554" lon="3.2134">
        <ele>439.81</ele>
        <time>2026-04-23T07:42:12.174Z</time>
      </trkpt>
      <trkpt lat="44.19557" lon="3.21346">
        <ele>440.17</ele>
        <time>2026-04-23T07:42:18.191Z</time>
      </trkpt>
      <trkpt lat="44.19562" lon="3.21349">
        <ele>440.24</ele>
        <time>2026-04-23T07:42:24.124Z</time>
      </trkpt>
      <trkpt lat="44.19566" lon="3.21352">
        <ele>440.56</ele>
        <time>2026-04-23T07:42:29.138Z</time>
      </trkpt>
      <trkpt lat="44.19572" lon="3.21356">
        <ele>440.64</ele>
        <time>2026-04-23T07:42:34.552Z</time>
      </trkpt>
      <trkpt lat="44.19578" lon="3.21357">
        <ele>440.94</ele>
        <time>2026-04-23T07:42:40.039Z</time>
      </trkpt>
      <trkpt lat="44.19584" lon="3.21359">
        <ele>441.01</ele>
        <time>2026-04-23T07:42:45.257Z</time>
      </trkpt>
      <trkpt lat="44.19591" lon="3.21365">
        <ele>440.92</ele>
        <time>2026-04-23T07:42:50.939Z</time>
      </trkpt>
      <trkpt lat="44.19596" lon="3.21371">
        <ele>441.66</ele>
        <time>2026-04-23T07:42:56.353Z</time>
      </trkpt>
      <trkpt lat="44.19602" lon="3.21374">
        <ele>442.3</ele>
        <time>2026-04-23T07:43:02.019Z</time>
      </trkpt>
      <trkpt lat="44.19608" lon="3.21377">
        <ele>442.1</ele>
        <time>2026-04-23T07:43:07.877Z</time>
      </trkpt>
      <trkpt lat="44.19615" lon="3.21383">
        <ele>441.9</ele>
        <time>2026-04-23T07:43:13.833Z</time>
      </trkpt>
      <trkpt lat="44.19621" lon="3.21388">
        <ele>442.21</ele>
        <time>2026-04-23T07:43:19.074Z</time>
      </trkpt>
      <trkpt lat="44.19626" lon="3.21392">
        <ele>442.12</ele>
        <time>2026-04-23T07:43:24.089Z</time>
      </trkpt>
      <trkpt lat="44.19629" lon="3.21399">
        <ele>442.25</ele>
        <time>2026-04-23T07:43:29.155Z</time>
      </trkpt>
      <trkpt lat="44.1963" lon="3.21405">
        <ele>442.91</ele>
        <time>2026-04-23T07:43:34.632Z</time>
      </trkpt>
      <trkpt lat="44.19633" lon="3.21412">
        <ele>443.46</ele>
        <time>2026-04-23T07:43:39.780Z</time>
      </trkpt>
      <trkpt lat="44.19637" lon="3.21417">
        <ele>443.39</ele>
        <time>2026-04-23T07:43:44.972Z</time>
      </trkpt>
      <trkpt lat="44.1964" lon="3.21421">
        <ele>444.75</ele>
        <time>2026-04-23T07:43:50.515Z</time>
      </trkpt>
      <trkpt lat="44.19644" lon="3.21425">
        <ele>445.26</ele>
        <time>2026-04-23T07:43:55.660Z</time>
      </trkpt>
      <trkpt lat="44.19649" lon="3.21426">
        <ele>445.61</ele>
        <time>2026-04-23T07:44:00.898Z</time>
      </trkpt>
      <trkpt lat="44.19653" lon="3.21428">
        <ele>445.18</ele>
        <time>2026-04-23T07:44:05.973Z</time>
      </trkpt>
      <trkpt lat="44.19655" lon="3.21433">
        <ele>443.69</ele>
        <time>2026-04-23T07:44:11.780Z</time>
      </trkpt>
      <trkpt lat="44.19655" lon="3.21434">
        <ele>443.37</ele>
        <time>2026-04-23T07:44:19.132Z</time>
      </trkpt>
      <trkpt lat="44.19663" lon="3.21436">
        <ele>443.74</ele>
        <time>2026-04-23T07:44:24.218Z</time>
      </trkpt>
      <trkpt lat="44.19669" lon="3.21436">
        <ele>445.19</ele>
        <time>2026-04-23T07:44:29.920Z</time>
      </trkpt>
      <trkpt lat="44.19672" lon="3.21436">
        <ele>445.33</ele>
        <time>2026-04-23T07:44:35.093Z</time>
      </trkpt>
      <trkpt lat="44.19675" lon="3.21437">
        <ele>445.36</ele>
        <time>2026-04-23T07:44:40.498Z</time>
      </trkpt>
      <trkpt lat="44.19677" lon="3.21439">
        <ele>446.41</ele>
        <time>2026-04-23T07:44:45.736Z</time>
      </trkpt>
      <trkpt lat="44.19681" lon="3.21441">
        <ele>446.51</ele>
        <time>2026-04-23T07:44:51.153Z</time>
      </trkpt>
      <trkpt lat="44.19686" lon="3.21446">
        <ele>448.61</ele>
        <time>2026-04-23T07:44:56.491Z</time>
      </trkpt>
      <trkpt lat="44.19691" lon="3.2145">
        <ele>448.88</ele>
        <time>2026-04-23T07:45:01.554Z</time>
      </trkpt>
      <trkpt lat="44.19698" lon="3.21454">
        <ele>448.66</ele>
        <time>2026-04-23T07:45:06.853Z</time>
      </trkpt>
      <trkpt lat="44.19703" lon="3.21458">
        <ele>448.61</ele>
        <time>2026-04-23T07:45:12.172Z</time>
      </trkpt>
      <trkpt lat="44.19708" lon="3.21462">
        <ele>449.66</ele>
        <time>2026-04-23T07:45:17.185Z</time>
      </trkpt>
      <trkpt lat="44.19713" lon="3.21466">
        <ele>449.94</ele>
        <time>2026-04-23T07:45:23.018Z</time>
      </trkpt>
      <trkpt lat="44.19719" lon="3.21469">
        <ele>449.15</ele>
        <time>2026-04-23T07:45:28.093Z</time>
      </trkpt>
      <trkpt lat="44.19725" lon="3.21473">
        <ele>449.23</ele>
        <time>2026-04-23T07:45:33.758Z</time>
      </trkpt>
      <trkpt lat="44.19731" lon="3.21479">
        <ele>449.4</ele>
        <time>2026-04-23T07:45:39.537Z</time>
      </trkpt>
      <trkpt lat="44.19736" lon="3.21484">
        <ele>449.46</ele>
        <time>2026-04-23T07:45:45.140Z</time>
      </trkpt>
      <trkpt lat="44.19742" lon="3.21492">
        <ele>449.62</ele>
        <time>2026-04-23T07:45:51.034Z</time>
      </trkpt>
      <trkpt lat="44.19747" lon="3.21497">
        <ele>448.86</ele>
        <time>2026-04-23T07:45:56.130Z</time>
      </trkpt>
      <trkpt lat="44.1975" lon="3.21499">
        <ele>448.45</ele>
        <time>2026-04-23T07:46:01.145Z</time>
      </trkpt>
      <trkpt lat="44.19752" lon="3.21502">
        <ele>448.23</ele>
        <time>2026-04-23T07:46:06.318Z</time>
      </trkpt>
      <trkpt lat="44.19758" lon="3.21502">
        <ele>447.97</ele>
        <time>2026-04-23T07:46:11.794Z</time>
      </trkpt>
      <trkpt lat="44.19764" lon="3.21503">
        <ele>448.11</ele>
        <time>2026-04-23T07:46:17.149Z</time>
      </trkpt>
      <trkpt lat="44.19771" lon="3.21508">
        <ele>448.92</ele>
        <time>2026-04-23T07:46:22.163Z</time>
      </trkpt>
      <trkpt lat="44.19778" lon="3.21513">
        <ele>449.04</ele>
        <time>2026-04-23T07:46:27.925Z</time>
      </trkpt>
      <trkpt lat="44.19784" lon="3.21518">
        <ele>447.67</ele>
        <time>2026-04-23T07:46:33.045Z</time>
      </trkpt>
      <trkpt lat="44.19788" lon="3.21525">
        <ele>448.46</ele>
        <time>2026-04-23T07:46:38.529Z</time>
      </trkpt>
      <trkpt lat="44.1979" lon="3.21533">
        <ele>450.3</ele>
        <time>2026-04-23T07:46:44.211Z</time>
      </trkpt>
      <trkpt lat="44.19791" lon="3.21538">
        <ele>450.27</ele>
        <time>2026-04-23T07:46:49.292Z</time>
      </trkpt>
      <trkpt lat="44.19791" lon="3.21545">
        <ele>451.4</ele>
        <time>2026-04-23T07:46:55.005Z</time>
      </trkpt>
      <trkpt lat="44.19789" lon="3.21553">
        <ele>450.9</ele>
        <time>2026-04-23T07:47:00.607Z</time>
      </trkpt>
      <trkpt lat="44.19787" lon="3.21559">
        <ele>452.21</ele>
        <time>2026-04-23T07:47:05.728Z</time>
      </trkpt>
      <trkpt lat="44.19785" lon="3.21565">
        <ele>452.48</ele>
        <time>2026-04-23T07:47:10.850Z</time>
      </trkpt>
      <trkpt lat="44.19783" lon="3.2157">
        <ele>452.47</ele>
        <time>2026-04-23T07:47:15.891Z</time>
      </trkpt>
      <trkpt lat="44.19783" lon="3.21577">
        <ele>451.08</ele>
        <time>2026-04-23T07:47:20.905Z</time>
      </trkpt>
      <trkpt lat="44.19785" lon="3.21582">
        <ele>453.61</ele>
        <time>2026-04-23T07:47:26.188Z</time>
      </trkpt>
      <trkpt lat="44.19784" lon="3.21589">
        <ele>454.63</ele>
        <time>2026-04-23T07:47:31.592Z</time>
      </trkpt>
      <trkpt lat="44.19786" lon="3.21595">
        <ele>456.09</ele>
        <time>2026-04-23T07:47:37.083Z</time>
      </trkpt>
      <trkpt lat="44.19791" lon="3.21599">
        <ele>455.1</ele>
        <time>2026-04-23T07:47:42.680Z</time>
      </trkpt>
      <trkpt lat="44.19796" lon="3.21602">
        <ele>455.35</ele>
        <time>2026-04-23T07:47:48.205Z</time>
      </trkpt>
      <trkpt lat="44.19801" lon="3.21602">
        <ele>457.59</ele>
        <time>2026-04-23T07:47:53.974Z</time>
      </trkpt>
      <trkpt lat="44.19805" lon="3.21603">
        <ele>458.53</ele>
        <time>2026-04-23T07:47:59.170Z</time>
      </trkpt>
      <trkpt lat="44.19811" lon="3.21605">
        <ele>460.36</ele>
        <time>2026-04-23T07:48:04.544Z</time>
      </trkpt>
      <trkpt lat="44.19816" lon="3.21609">
        <ele>459.1</ele>
        <time>2026-04-23T07:48:10.159Z</time>
      </trkpt>
      <trkpt lat="44.1982" lon="3.21608">
        <ele>460.82</ele>
        <time>2026-04-23T07:48:15.460Z</time>
      </trkpt>
      <trkpt lat="44.19826" lon="3.21607">
        <ele>461.35</ele>
        <time>2026-04-23T07:48:20.830Z</time>
      </trkpt>
      <trkpt lat="44.19832" lon="3.21606">
        <ele>461.97</ele>
        <time>2026-04-23T07:48:27.010Z</time>
      </trkpt>
      <trkpt lat="44.19838" lon="3.21607">
        <ele>459.85</ele>
        <time>2026-04-23T07:48:32.290Z</time>
      </trkpt>
      <trkpt lat="44.19844" lon="3.2161">
        <ele>460.03</ele>
        <time>2026-04-23T07:48:37.768Z</time>
      </trkpt>
      <trkpt lat="44.1985" lon="3.21615">
        <ele>460.28</ele>
        <time>2026-04-23T07:48:43.227Z</time>
      </trkpt>
      <trkpt lat="44.19856" lon="3.21618">
        <ele>459.54</ele>
        <time>2026-04-23T07:48:48.686Z</time>
      </trkpt>
      <trkpt lat="44.19862" lon="3.21618">
        <ele>459.38</ele>
        <time>2026-04-23T07:48:53.709Z</time>
      </trkpt>
      <trkpt lat="44.19869" lon="3.21619">
        <ele>459.71</ele>
        <time>2026-04-23T07:48:59.265Z</time>
      </trkpt>
      <trkpt lat="44.19875" lon="3.21621">
        <ele>459.43</ele>
        <time>2026-04-23T07:49:05.125Z</time>
      </trkpt>
      <trkpt lat="44.1988" lon="3.21624">
        <ele>459.51</ele>
        <time>2026-04-23T07:49:10.372Z</time>
      </trkpt>
      <trkpt lat="44.19883" lon="3.21627">
        <ele>460.05</ele>
        <time>2026-04-23T07:49:15.510Z</time>
      </trkpt>
      <trkpt lat="44.19886" lon="3.21628">
        <ele>460.77</ele>
        <time>2026-04-23T07:49:20.685Z</time>
      </trkpt>
      <trkpt lat="44.1989" lon="3.2163">
        <ele>460.75</ele>
        <time>2026-04-23T07:49:26.223Z</time>
      </trkpt>
      <trkpt lat="44.19896" lon="3.21625">
        <ele>459.79</ele>
        <time>2026-04-23T07:49:31.390Z</time>
      </trkpt>
      <trkpt lat="44.19902" lon="3.2162">
        <ele>459.06</ele>
        <time>2026-04-23T07:49:36.658Z</time>
      </trkpt>
      <trkpt lat="44.19908" lon="3.21619">
        <ele>458.64</ele>
        <time>2026-04-23T07:49:41.659Z</time>
      </trkpt>
      <trkpt lat="44.19914" lon="3.21616">
        <ele>458.25</ele>
        <time>2026-04-23T07:49:47.039Z</time>
      </trkpt>
      <trkpt lat="44.1992" lon="3.21613">
        <ele>457.74</ele>
        <time>2026-04-23T07:49:52.719Z</time>
      </trkpt>
      <trkpt lat="44.19926" lon="3.21614">
        <ele>457.17</ele>
        <time>2026-04-23T07:49:57.762Z</time>
      </trkpt>
      <trkpt lat="44.19932" lon="3.21614">
        <ele>456.87</ele>
        <time>2026-04-23T07:50:02.998Z</time>
      </trkpt>
      <trkpt lat="44.19938" lon="3.21615">
        <ele>456.58</ele>
        <time>2026-04-23T07:50:08.164Z</time>
      </trkpt>
      <trkpt lat="44.19944" lon="3.21616">
        <ele>456.06</ele>
        <time>2026-04-23T07:50:13.179Z</time>
      </trkpt>
      <trkpt lat="44.1995" lon="3.21619">
        <ele>455.85</ele>
        <time>2026-04-23T07:50:18.475Z</time>
      </trkpt>
      <trkpt lat="44.19953" lon="3.21619">
        <ele>456.34</ele>
        <time>2026-04-23T07:50:23.980Z</time>
      </trkpt>
      <trkpt lat="44.19958" lon="3.21621">
        <ele>456.34</ele>
        <time>2026-04-23T07:50:29.297Z</time>
      </trkpt>
      <trkpt lat="44.19964" lon="3.21625">
        <ele>455.89</ele>
        <time>2026-04-23T07:50:34.766Z</time>
      </trkpt>
      <trkpt lat="44.19966" lon="3.21625">
        <ele>455.29</ele>
        <time>2026-04-23T07:50:40.172Z</time>
      </trkpt>
      <trkpt lat="44.19967" lon="3.21626">
        <ele>456.09</ele>
        <time>2026-04-23T07:50:48.696Z</time>
      </trkpt>
      <trkpt lat="44.19972" lon="3.21631">
        <ele>457.65</ele>
        <time>2026-04-23T07:50:54.148Z</time>
      </trkpt>
      <trkpt lat="44.19979" lon="3.21637">
        <ele>458.83</ele>
        <time>2026-04-23T07:50:59.757Z</time>
      </trkpt>
      <trkpt lat="44.19985" lon="3.2164">
        <ele>458.7</ele>
        <time>2026-04-23T07:51:04.861Z</time>
      </trkpt>
      <trkpt lat="44.1999" lon="3.21647">
        <ele>458.41</ele>
        <time>2026-04-23T07:51:10.383Z</time>
      </trkpt>
      <trkpt lat="44.19995" lon="3.21653">
        <ele>458.79</ele>
        <time>2026-04-23T07:51:15.806Z</time>
      </trkpt>
      <trkpt lat="44.2" lon="3.21659">
        <ele>458.33</ele>
        <time>2026-04-23T07:51:21.141Z</time>
      </trkpt>
      <trkpt lat="44.20003" lon="3.21666">
        <ele>459.11</ele>
        <time>2026-04-23T07:51:26.155Z</time>
      </trkpt>
      <trkpt lat="44.20006" lon="3.21672">
        <ele>459.28</ele>
        <time>2026-04-23T07:51:31.170Z</time>
      </trkpt>
      <trkpt lat="44.2001" lon="3.21677">
        <ele>458.38</ele>
        <time>2026-04-23T07:51:36.173Z</time>
      </trkpt>
      <trkpt lat="44.20014" lon="3.21683">
        <ele>457.72</ele>
        <time>2026-04-23T07:51:41.198Z</time>
      </trkpt>
      <trkpt lat="44.2002" lon="3.21686">
        <ele>457.77</ele>
        <time>2026-04-23T07:51:46.477Z</time>
      </trkpt>
      <trkpt lat="44.20025" lon="3.21689">
        <ele>458.7</ele>
        <time>2026-04-23T07:51:52.187Z</time>
      </trkpt>
      <trkpt lat="44.2003" lon="3.2169">
        <ele>458.75</ele>
        <time>2026-04-23T07:51:57.541Z</time>
      </trkpt>
      <trkpt lat="44.20035" lon="3.21687">
        <ele>459.9</ele>
        <time>2026-04-23T07:52:02.985Z</time>
      </trkpt>
      <trkpt lat="44.2004" lon="3.21684">
        <ele>460.96</ele>
        <time>2026-04-23T07:52:08.191Z</time>
      </trkpt>
      <trkpt lat="44.20046" lon="3.21682">
        <ele>461.32</ele>
        <time>2026-04-23T07:52:13.659Z</time>
      </trkpt>
      <trkpt lat="44.20051" lon="3.2168">
        <ele>461.26</ele>
        <time>2026-04-23T07:52:18.797Z</time>
      </trkpt>
      <trkpt lat="44.20056" lon="3.2168">
        <ele>462.87</ele>
        <time>2026-04-23T07:52:24.194Z</time>
      </trkpt>
      <trkpt lat="44.20061" lon="3.2168">
        <ele>463.69</ele>
        <time>2026-04-23T07:52:29.919Z</time>
      </trkpt>
      <trkpt lat="44.20066" lon="3.21677">
        <ele>463.43</ele>
        <time>2026-04-23T07:52:34.924Z</time>
      </trkpt>
      <trkpt lat="44.20072" lon="3.21678">
        <ele>463.05</ele>
        <time>2026-04-23T07:52:40.178Z</time>
      </trkpt>
      <trkpt lat="44.20078" lon="3.21682">
        <ele>463.67</ele>
        <time>2026-04-23T07:52:45.421Z</time>
      </trkpt>
      <trkpt lat="44.2008" lon="3.21683">
        <ele>463.18</ele>
        <time>2026-04-23T07:52:50.599Z</time>
      </trkpt>
      <trkpt lat="44.20085" lon="3.21687">
        <ele>462.97</ele>
        <time>2026-04-23T07:52:56.058Z</time>
      </trkpt>
      <trkpt lat="44.20091" lon="3.21691">
        <ele>465.65</ele>
        <time>2026-04-23T07:53:02.171Z</time>
      </trkpt>
      <trkpt lat="44.20096" lon="3.21693">
        <ele>466.09</ele>
        <time>2026-04-23T07:53:07.500Z</time>
      </trkpt>
      <trkpt lat="44.20101" lon="3.21698">
        <ele>466.26</ele>
        <time>2026-04-23T07:53:12.781Z</time>
      </trkpt>
      <trkpt lat="44.20106" lon="3.21702">
        <ele>465.8</ele>
        <time>2026-04-23T07:53:18.203Z</time>
      </trkpt>
      <trkpt lat="44.20112" lon="3.21704">
        <ele>463.04</ele>
        <time>2026-04-23T07:53:23.723Z</time>
      </trkpt>
      <trkpt lat="44.20117" lon="3.21707">
        <ele>461.7</ele>
        <time>2026-04-23T07:53:29.078Z</time>
      </trkpt>
      <trkpt lat="44.20122" lon="3.2171">
        <ele>462.23</ele>
        <time>2026-04-23T07:53:34.178Z</time>
      </trkpt>
      <trkpt lat="44.20126" lon="3.21713">
        <ele>461.05</ele>
        <time>2026-04-23T07:53:39.193Z</time>
      </trkpt>
      <trkpt lat="44.20131" lon="3.21719">
        <ele>462.08</ele>
        <time>2026-04-23T07:53:44.921Z</time>
      </trkpt>
      <trkpt lat="44.20138" lon="3.21722">
        <ele>459.23</ele>
        <time>2026-04-23T07:53:50.683Z</time>
      </trkpt>
      <trkpt lat="44.20146" lon="3.21724">
        <ele>459.34</ele>
        <time>2026-04-23T07:53:56.156Z</time>
      </trkpt>
      <trkpt lat="44.20154" lon="3.21724">
        <ele>456.62</ele>
        <time>2026-04-23T07:54:01.857Z</time>
      </trkpt>
      <trkpt lat="44.20161" lon="3.21725">
        <ele>457.93</ele>
        <time>2026-04-23T07:54:07.144Z</time>
      </trkpt>
      <trkpt lat="44.20169" lon="3.2173">
        <ele>459.89</ele>
        <time>2026-04-23T07:54:12.863Z</time>
      </trkpt>
      <trkpt lat="44.20173" lon="3.21735">
        <ele>455.46</ele>
        <time>2026-04-23T07:54:18.537Z</time>
      </trkpt>
      <trkpt lat="44.20178" lon="3.21739">
        <ele>454.17</ele>
        <time>2026-04-23T07:54:24.041Z</time>
      </trkpt>
      <trkpt lat="44.20184" lon="3.21742">
        <ele>452.17</ele>
        <time>2026-04-23T07:54:29.230Z</time>
      </trkpt>
      <trkpt lat="44.2019" lon="3.21748">
        <ele>451.81</ele>
        <time>2026-04-23T07:54:34.905Z</time>
      </trkpt>
      <trkpt lat="44.20194" lon="3.21753">
        <ele>453.18</ele>
        <time>2026-04-23T07:54:40.495Z</time>
      </trkpt>
      <trkpt lat="44.20197" lon="3.21761">
        <ele>449.23</ele>
        <time>2026-04-23T07:54:45.937Z</time>
      </trkpt>
      <trkpt lat="44.202" lon="3.21766">
        <ele>447.59</ele>
        <time>2026-04-23T07:54:51.207Z</time>
      </trkpt>
      <trkpt lat="44.20206" lon="3.21771">
        <ele>447.93</ele>
        <time>2026-04-23T07:54:57.023Z</time>
      </trkpt>
      <trkpt lat="44.20212" lon="3.21774">
        <ele>448.86</ele>
        <time>2026-04-23T07:55:02.090Z</time>
      </trkpt>
      <trkpt lat="44.20218" lon="3.21781">
        <ele>446.74</ele>
        <time>2026-04-23T07:55:08.040Z</time>
      </trkpt>
      <trkpt lat="44.20225" lon="3.21786">
        <ele>445.84</ele>
        <time>2026-04-23T07:55:13.185Z</time>
      </trkpt>
      <trkpt lat="44.2023" lon="3.2179">
        <ele>444.1</ele>
        <time>2026-04-23T07:55:18.201Z</time>
      </trkpt>
      <trkpt lat="44.20235" lon="3.21793">
        <ele>442.14</ele>
        <time>2026-04-23T07:55:23.214Z</time>
      </trkpt>
      <trkpt lat="44.20241" lon="3.21801">
        <ele>441.58</ele>
        <time>2026-04-23T07:55:29.188Z</time>
      </trkpt>
      <trkpt lat="44.20244" lon="3.21809">
        <ele>441.08</ele>
        <time>2026-04-23T07:55:34.624Z</time>
      </trkpt>
      <trkpt lat="44.20247" lon="3.21816">
        <ele>440.82</ele>
        <time>2026-04-23T07:55:40.117Z</time>
      </trkpt>
      <trkpt lat="44.2025" lon="3.21821">
        <ele>439.32</ele>
        <time>2026-04-23T07:55:45.191Z</time>
      </trkpt>
      <trkpt lat="44.20253" lon="3.21827">
        <ele>439.32</ele>
        <time>2026-04-23T07:55:50.697Z</time>
      </trkpt>
      <trkpt lat="44.20255" lon="3.2183">
        <ele>437.92</ele>
        <time>2026-04-23T07:55:56.180Z</time>
      </trkpt>
      <trkpt lat="44.20256" lon="3.21836">
        <ele>439.26</ele>
        <time>2026-04-23T07:56:01.517Z</time>
      </trkpt>
      <trkpt lat="44.20261" lon="3.21843">
        <ele>439.06</ele>
        <time>2026-04-23T07:56:06.736Z</time>
      </trkpt>
      <trkpt lat="44.20267" lon="3.21847">
        <ele>436.79</ele>
        <time>2026-04-23T07:56:11.820Z</time>
      </trkpt>
      <trkpt lat="44.20272" lon="3.21853">
        <ele>435.2</ele>
        <time>2026-04-23T07:56:16.881Z</time>
      </trkpt>
      <trkpt lat="44.20277" lon="3.2186">
        <ele>434.99</ele>
        <time>2026-04-23T07:56:22.019Z</time>
      </trkpt>
      <trkpt lat="44.2028" lon="3.21866">
        <ele>434.42</ele>
        <time>2026-04-23T07:56:27.638Z</time>
      </trkpt>
      <trkpt lat="44.2028" lon="3.21871">
        <ele>434.54</ele>
        <time>2026-04-23T07:56:32.679Z</time>
      </trkpt>
      <trkpt lat="44.2028" lon="3.21877">
        <ele>434.15</ele>
        <time>2026-04-23T07:56:38.167Z</time>
      </trkpt>
      <trkpt lat="44.2028" lon="3.21886">
        <ele>432.18</ele>
        <time>2026-04-23T07:56:43.229Z</time>
      </trkpt>
      <trkpt lat="44.20281" lon="3.21894">
        <ele>432.77</ele>
        <time>2026-04-23T07:56:48.244Z</time>
      </trkpt>
      <trkpt lat="44.20283" lon="3.21903">
        <ele>432.06</ele>
        <time>2026-04-23T07:56:54.111Z</time>
      </trkpt>
      <trkpt lat="44.20286" lon="3.2191">
        <ele>433.14</ele>
        <time>2026-04-23T07:56:59.378Z</time>
      </trkpt>
      <trkpt lat="44.20289" lon="3.21917">
        <ele>433.45</ele>
        <time>2026-04-23T07:57:04.490Z</time>
      </trkpt>
      <trkpt lat="44.20292" lon="3.21926">
        <ele>432.45</ele>
        <time>2026-04-23T07:57:10.195Z</time>
      </trkpt>
      <trkpt lat="44.20293" lon="3.21935">
        <ele>431.66</ele>
        <time>2026-04-23T07:57:15.879Z</time>
      </trkpt>
      <trkpt lat="44.20295" lon="3.21936">
        <ele>429.04</ele>
        <time>2026-04-23T07:57:21.103Z</time>
      </trkpt>
      <trkpt lat="44.20294" lon="3.21935">
        <ele>428.84</ele>
        <time>2026-04-23T07:57:26.126Z</time>
      </trkpt>
      <trkpt lat="44.20293" lon="3.21933">
        <ele>429.37</ele>
        <time>2026-04-23T07:57:32.101Z</time>
      </trkpt>
      <trkpt lat="44.20292" lon="3.21934">
        <ele>428.44</ele>
        <time>2026-04-23T07:57:45.330Z</time>
      </trkpt>
      <trkpt lat="44.20296" lon="3.21935">
        <ele>428.14</ele>
        <time>2026-04-23T07:57:51.092Z</time>
      </trkpt>
      <trkpt lat="44.20302" lon="3.21941">
        <ele>430.01</ele>
        <time>2026-04-23T07:57:56.579Z</time>
      </trkpt>
      <trkpt lat="44.2031" lon="3.2195">
        <ele>429.68</ele>
        <time>2026-04-23T07:58:01.746Z</time>
      </trkpt>
      <trkpt lat="44.2031" lon="3.21965">
        <ele>434.1</ele>
        <time>2026-04-23T07:58:06.762Z</time>
      </trkpt>
      <trkpt lat="44.20308" lon="3.21984">
        <ele>431.32</ele>
        <time>2026-04-23T07:58:12.140Z</time>
      </trkpt>
      <trkpt lat="44.20312" lon="3.21997">
        <ele>429.79</ele>
        <time>2026-04-23T07:58:17.153Z</time>
      </trkpt>
      <trkpt lat="44.20311" lon="3.22006">
        <ele>431.84</ele>
        <time>2026-04-23T07:58:23.220Z</time>
      </trkpt>
      <trkpt lat="44.20308" lon="3.22015">
        <ele>430.12</ele>
        <time>2026-04-23T07:58:28.851Z</time>
      </trkpt>
      <trkpt lat="44.20307" lon="3.22021">
        <ele>429.15</ele>
        <time>2026-04-23T07:58:34.085Z</time>
      </trkpt>
      <trkpt lat="44.20308" lon="3.22028">
        <ele>429.04</ele>
        <time>2026-04-23T07:58:39.206Z</time>
      </trkpt>
      <trkpt lat="44.20312" lon="3.22035">
        <ele>430.23</ele>
        <time>2026-04-23T07:58:44.845Z</time>
      </trkpt>
      <trkpt lat="44.20316" lon="3.22043">
        <ele>428.69</ele>
        <time>2026-04-23T07:58:50.944Z</time>
      </trkpt>
      <trkpt lat="44.20318" lon="3.22049">
        <ele>427.79</ele>
        <time>2026-04-23T07:58:56.528Z</time>
      </trkpt>
      <trkpt lat="44.20319" lon="3.22056">
        <ele>428.29</ele>
        <time>2026-04-23T07:59:02.005Z</time>
      </trkpt>
      <trkpt lat="44.20322" lon="3.22058">
        <ele>427.7</ele>
        <time>2026-04-23T07:59:07.166Z</time>
      </trkpt>
      <trkpt lat="44.20328" lon="3.22064">
        <ele>427.8</ele>
        <time>2026-04-23T07:59:12.181Z</time>
      </trkpt>
      <trkpt lat="44.20334" lon="3.22069">
        <ele>425.79</ele>
        <time>2026-04-23T07:59:17.622Z</time>
      </trkpt>
      <trkpt lat="44.20336" lon="3.22072">
        <ele>424.68</ele>
        <time>2026-04-23T07:59:23.022Z</time>
      </trkpt>
      <trkpt lat="44.20343" lon="3.22075">
        <ele>424.65</ele>
        <time>2026-04-23T07:59:28.609Z</time>
      </trkpt>
      <trkpt lat="44.20349" lon="3.22078">
        <ele>424.92</ele>
        <time>2026-04-23T07:59:34.004Z</time>
      </trkpt>
      <trkpt lat="44.20358" lon="3.22081">
        <ele>424.82</ele>
        <time>2026-04-23T07:59:39.173Z</time>
      </trkpt>
      <trkpt lat="44.20367" lon="3.22085">
        <ele>423.37</ele>
        <time>2026-04-23T07:59:45.028Z</time>
      </trkpt>
      <trkpt lat="44.20372" lon="3.22088">
        <ele>422.57</ele>
        <time>2026-04-23T07:59:50.162Z</time>
      </trkpt>
      <trkpt lat="44.20377" lon="3.22091">
        <ele>422.99</ele>
        <time>2026-04-23T07:59:55.242Z</time>
      </trkpt>
      <trkpt lat="44.20384" lon="3.22095">
        <ele>422.98</ele>
        <time>2026-04-23T08:00:01.101Z</time>
      </trkpt>
      <trkpt lat="44.20387" lon="3.22098">
        <ele>422.21</ele>
        <time>2026-04-23T08:00:06.285Z</time>
      </trkpt>
      <trkpt lat="44.2039" lon="3.22101">
        <ele>421.03</ele>
        <time>2026-04-23T08:00:11.827Z</time>
      </trkpt>
      <trkpt lat="44.20393" lon="3.22108">
        <ele>420.9</ele>
        <time>2026-04-23T08:00:17.159Z</time>
      </trkpt>
      <trkpt lat="44.20397" lon="3.22107">
        <ele>421.11</ele>
        <time>2026-04-23T08:00:23.134Z</time>
      </trkpt>
      <trkpt lat="44.20397" lon="3.22111">
        <ele>421.79</ele>
        <time>2026-04-23T08:00:28.149Z</time>
      </trkpt>
      <trkpt lat="44.20398" lon="3.22114">
        <ele>422.02</ele>
        <time>2026-04-23T08:00:33.403Z</time>
      </trkpt>
      <trkpt lat="44.20403" lon="3.22124">
        <ele>421.98</ele>
        <time>2026-04-23T08:00:39.268Z</time>
      </trkpt>
      <trkpt lat="44.20404" lon="3.22136">
        <ele>424.8</ele>
        <time>2026-04-23T08:00:45.147Z</time>
      </trkpt>
      <trkpt lat="44.20403" lon="3.22148">
        <ele>423.72</ele>
        <time>2026-04-23T08:00:50.546Z</time>
      </trkpt>
      <trkpt lat="44.20408" lon="3.22155">
        <ele>423.7</ele>
        <time>2026-04-23T08:00:56.102Z</time>
      </trkpt>
      <trkpt lat="44.20414" lon="3.22154">
        <ele>424.6</ele>
        <time>2026-04-23T08:01:01.140Z</time>
      </trkpt>
      <trkpt lat="44.20417" lon="3.22152">
        <ele>425.24</ele>
        <time>2026-04-23T08:01:06.491Z</time>
      </trkpt>
      <trkpt lat="44.20421" lon="3.22152">
        <ele>424.53</ele>
        <time>2026-04-23T08:01:12.130Z</time>
      </trkpt>
      <trkpt lat="44.20426" lon="3.22156">
        <ele>425.89</ele>
        <time>2026-04-23T08:01:17.145Z</time>
      </trkpt>
      <trkpt lat="44.20432" lon="3.22155">
        <ele>426.41</ele>
        <time>2026-04-23T08:01:22.159Z</time>
      </trkpt>
      <trkpt lat="44.20439" lon="3.22154">
        <ele>428.29</ele>
        <time>2026-04-23T08:01:27.505Z</time>
      </trkpt>
      <trkpt lat="44.20447" lon="3.22152">
        <ele>428.42</ele>
        <time>2026-04-23T08:01:33.011Z</time>
      </trkpt>
      <trkpt lat="44.20454" lon="3.22151">
        <ele>428.13</ele>
        <time>2026-04-23T08:01:38.480Z</time>
      </trkpt>
      <trkpt lat="44.20458" lon="3.22151">
        <ele>428.49</ele>
        <time>2026-04-23T08:01:44.184Z</time>
      </trkpt>
      <trkpt lat="44.20466" lon="3.22147">
        <ele>430.38</ele>
        <time>2026-04-23T08:01:49.226Z</time>
      </trkpt>
      <trkpt lat="44.20473" lon="3.22149">
        <ele>430.85</ele>
        <time>2026-04-23T08:01:54.606Z</time>
      </trkpt>
      <trkpt lat="44.20479" lon="3.22147">
        <ele>429.91</ele>
        <time>2026-04-23T08:02:00.108Z</time>
      </trkpt>
      <trkpt lat="44.20485" lon="3.22145">
        <ele>428.68</ele>
        <time>2026-04-23T08:02:05.165Z</time>
      </trkpt>
      <trkpt lat="44.20486" lon="3.22146">
        <ele>427.55</ele>
        <time>2026-04-23T08:02:11.140Z</time>
      </trkpt>
      <trkpt lat="44.20488" lon="3.22146">
        <ele>429.19</ele>
        <time>2026-04-23T08:02:16.672Z</time>
      </trkpt>
      <trkpt lat="44.20496" lon="3.22149">
        <ele>430.15</ele>
        <time>2026-04-23T08:02:22.185Z</time>
      </trkpt>
      <trkpt lat="44.20504" lon="3.22155">
        <ele>431.68</ele>
        <time>2026-04-23T08:02:27.850Z</time>
      </trkpt>
      <trkpt lat="44.20509" lon="3.22157">
        <ele>432.39</ele>
        <time>2026-04-23T08:02:32.928Z</time>
      </trkpt>
      <trkpt lat="44.20513" lon="3.22159">
        <ele>432.52</ele>
        <time>2026-04-23T08:02:38.350Z</time>
      </trkpt>
      <trkpt lat="44.20517" lon="3.22162">
        <ele>433.26</ele>
        <time>2026-04-23T08:02:43.952Z</time>
      </trkpt>
      <trkpt lat="44.20522" lon="3.22164">
        <ele>434.58</ele>
        <time>2026-04-23T08:02:49.091Z</time>
      </trkpt>
      <trkpt lat="44.20527" lon="3.22166">
        <ele>435.65</ele>
        <time>2026-04-23T08:02:54.694Z</time>
      </trkpt>
      <trkpt lat="44.20532" lon="3.22167">
        <ele>436.62</ele>
        <time>2026-04-23T08:02:59.755Z</time>
      </trkpt>
      <trkpt lat="44.20534" lon="3.22171">
        <ele>434.9</ele>
        <time>2026-04-23T08:03:05.155Z</time>
      </trkpt>
      <trkpt lat="44.20534" lon="3.2217">
        <ele>433.65</ele>
        <time>2026-04-23T08:03:13.162Z</time>
      </trkpt>
      <trkpt lat="44.20535" lon="3.2217">
        <ele>432.98</ele>
        <time>2026-04-23T08:03:24.088Z</time>
      </trkpt>
      <trkpt lat="44.20543" lon="3.22173">
        <ele>434.62</ele>
        <time>2026-04-23T08:03:29.095Z</time>
      </trkpt>
      <trkpt lat="44.20551" lon="3.22177">
        <ele>438.75</ele>
        <time>2026-04-23T08:03:34.572Z</time>
      </trkpt>
      <trkpt lat="44.20557" lon="3.22178">
        <ele>437.99</ele>
        <time>2026-04-23T08:03:39.811Z</time>
      </trkpt>
      <trkpt lat="44.20564" lon="3.22182">
        <ele>439.63</ele>
        <time>2026-04-23T08:03:45.175Z</time>
      </trkpt>
      <trkpt lat="44.2057" lon="3.22187">
        <ele>439.85</ele>
        <time>2026-04-23T08:03:51.151Z</time>
      </trkpt>
      <trkpt lat="44.20576" lon="3.22191">
        <ele>440.91</ele>
        <time>2026-04-23T08:03:56.989Z</time>
      </trkpt>
      <trkpt lat="44.20582" lon="3.22197">
        <ele>441.67</ele>
        <time>2026-04-23T08:04:02.847Z</time>
      </trkpt>
      <trkpt lat="44.20588" lon="3.22202">
        <ele>441.09</ele>
        <time>2026-04-23T08:04:08.850Z</time>
      </trkpt>
      <trkpt lat="44.20593" lon="3.22205">
        <ele>441.46</ele>
        <time>2026-04-23T08:04:14.198Z</time>
      </trkpt>
      <trkpt lat="44.20598" lon="3.2221">
        <ele>441.58</ele>
        <time>2026-04-23T08:04:19.750Z</time>
      </trkpt>
      <trkpt lat="44.20604" lon="3.22216">
        <ele>443.27</ele>
        <time>2026-04-23T08:04:25.188Z</time>
      </trkpt>
      <trkpt lat="44.20608" lon="3.22217">
        <ele>444.21</ele>
        <time>2026-04-23T08:04:31.054Z</time>
      </trkpt>
      <trkpt lat="44.20613" lon="3.22219">
        <ele>442.55</ele>
        <time>2026-04-23T08:04:36.066Z</time>
      </trkpt>
      <trkpt lat="44.20618" lon="3.22223">
        <ele>441.96</ele>
        <time>2026-04-23T08:04:41.081Z</time>
      </trkpt>
      <trkpt lat="44.20618" lon="3.22225">
        <ele>442.62</ele>
        <time>2026-04-23T08:04:46.853Z</time>
      </trkpt>
      <trkpt lat="44.20622" lon="3.22227">
        <ele>442.98</ele>
        <time>2026-04-23T08:04:52.010Z</time>
      </trkpt>
      <trkpt lat="44.20629" lon="3.22233">
        <ele>444.33</ele>
        <time>2026-04-23T08:04:57.197Z</time>
      </trkpt>
      <trkpt lat="44.20629" lon="3.22237">
        <ele>444.56</ele>
        <time>2026-04-23T08:05:03.075Z</time>
      </trkpt>
      <trkpt lat="44.20628" lon="3.22234">
        <ele>443.92</ele>
        <time>2026-04-23T08:05:08.197Z</time>
      </trkpt>
      <trkpt lat="44.20628" lon="3.22233">
        <ele>443.72</ele>
        <time>2026-04-23T08:05:16.199Z</time>
      </trkpt>
      <trkpt lat="44.20627" lon="3.22235">
        <ele>443.22</ele>
        <time>2026-04-23T08:05:33.165Z</time>
      </trkpt>
      <trkpt lat="44.20628" lon="3.22235">
        <ele>445</ele>
        <time>2026-04-23T08:05:40.125Z</time>
      </trkpt>
      <trkpt lat="44.20633" lon="3.2224">
        <ele>445.19</ele>
        <time>2026-04-23T08:05:45.225Z</time>
      </trkpt>
      <trkpt lat="44.20636" lon="3.22249">
        <ele>447.05</ele>
        <time>2026-04-23T08:05:50.781Z</time>
      </trkpt>
      <trkpt lat="44.20639" lon="3.22254">
        <ele>445.11</ele>
        <time>2026-04-23T08:05:56.211Z</time>
      </trkpt>
      <trkpt lat="44.20644" lon="3.22257">
        <ele>448.77</ele>
        <time>2026-04-23T08:06:02.187Z</time>
      </trkpt>
      <trkpt lat="44.20649" lon="3.22258">
        <ele>450.29</ele>
        <time>2026-04-23T08:06:08.066Z</time>
      </trkpt>
      <trkpt lat="44.20652" lon="3.22259">
        <ele>448.25</ele>
        <time>2026-04-23T08:06:13.186Z</time>
      </trkpt>
      <trkpt lat="44.20652" lon="3.22258">
        <ele>447.72</ele>
        <time>2026-04-23T08:06:18.947Z</time>
      </trkpt>
      <trkpt lat="44.20659" lon="3.22259">
        <ele>447.98</ele>
        <time>2026-04-23T08:06:24.320Z</time>
      </trkpt>
      <trkpt lat="44.20667" lon="3.22272">
        <ele>448.05</ele>
        <time>2026-04-23T08:06:29.969Z</time>
      </trkpt>
      <trkpt lat="44.20675" lon="3.22279">
        <ele>448.38</ele>
        <time>2026-04-23T08:06:36.123Z</time>
      </trkpt>
      <trkpt lat="44.20678" lon="3.22284">
        <ele>448.09</ele>
        <time>2026-04-23T08:06:41.134Z</time>
      </trkpt>
      <trkpt lat="44.2068" lon="3.2229">
        <ele>447.91</ele>
        <time>2026-04-23T08:06:46.149Z</time>
      </trkpt>
      <trkpt lat="44.20682" lon="3.22294">
        <ele>448.33</ele>
        <time>2026-04-23T08:06:52.124Z</time>
      </trkpt>
      <trkpt lat="44.20684" lon="3.22298">
        <ele>448.03</ele>
        <time>2026-04-23T08:06:57.135Z</time>
      </trkpt>
      <trkpt lat="44.20685" lon="3.223">
        <ele>448.1</ele>
        <time>2026-04-23T08:07:02.164Z</time>
      </trkpt>
      <trkpt lat="44.20689" lon="3.22302">
        <ele>448.1</ele>
        <time>2026-04-23T08:07:07.179Z</time>
      </trkpt>
      <trkpt lat="44.20693" lon="3.22304">
        <ele>448.36</ele>
        <time>2026-04-23T08:07:13.155Z</time>
      </trkpt>
      <trkpt lat="44.20696" lon="3.22305">
        <ele>446.73</ele>
        <time>2026-04-23T08:07:19.140Z</time>
      </trkpt>
      <trkpt lat="44.20696" lon="3.22304">
        <ele>447.43</ele>
        <time>2026-04-23T08:07:34.079Z</time>
      </trkpt>
      <trkpt lat="44.20699" lon="3.22302">
        <ele>445.95</ele>
        <time>2026-04-23T08:07:39.095Z</time>
      </trkpt>
      <trkpt lat="44.20701" lon="3.22303">
        <ele>446.17</ele>
        <time>2026-04-23T08:07:44.110Z</time>
      </trkpt>
      <trkpt lat="44.20704" lon="3.22314">
        <ele>447.45</ele>
        <time>2026-04-23T08:07:49.395Z</time>
      </trkpt>
      <trkpt lat="44.20712" lon="3.22321">
        <ele>447.28</ele>
        <time>2026-04-23T08:07:55.208Z</time>
      </trkpt>
      <trkpt lat="44.20718" lon="3.22325">
        <ele>447.62</ele>
        <time>2026-04-23T08:08:00.506Z</time>
      </trkpt>
      <trkpt lat="44.20724" lon="3.22329">
        <ele>447.23</ele>
        <time>2026-04-23T08:08:05.777Z</time>
      </trkpt>
      <trkpt lat="44.20734" lon="3.22331">
        <ele>445.82</ele>
        <time>2026-04-23T08:08:11.380Z</time>
      </trkpt>
      <trkpt lat="44.20742" lon="3.22334">
        <ele>444.46</ele>
        <time>2026-04-23T08:08:17.191Z</time>
      </trkpt>
      <trkpt lat="44.20749" lon="3.22338">
        <ele>443.97</ele>
        <time>2026-04-23T08:08:22.340Z</time>
      </trkpt>
      <trkpt lat="44.20756" lon="3.22332">
        <ele>444.1</ele>
        <time>2026-04-23T08:08:27.500Z</time>
      </trkpt>
      <trkpt lat="44.20759" lon="3.22324">
        <ele>443.88</ele>
        <time>2026-04-23T08:08:33.099Z</time>
      </trkpt>
      <trkpt lat="44.2076" lon="3.22324">
        <ele>443.25</ele>
        <time>2026-04-23T08:08:38.114Z</time>
      </trkpt>
      <trkpt lat="44.20761" lon="3.22325">
        <ele>442.7</ele>
        <time>2026-04-23T08:08:44.090Z</time>
      </trkpt>
      <trkpt lat="44.20768" lon="3.22319">
        <ele>442.72</ele>
        <time>2026-04-23T08:08:49.105Z</time>
      </trkpt>
      <trkpt lat="44.20776" lon="3.22311">
        <ele>442.71</ele>
        <time>2026-04-23T08:08:54.121Z</time>
      </trkpt>
      <trkpt lat="44.20781" lon="3.22304">
        <ele>443.25</ele>
        <time>2026-04-23T08:08:59.494Z</time>
      </trkpt>
      <trkpt lat="44.20784" lon="3.22295">
        <ele>444</ele>
        <time>2026-04-23T08:09:04.616Z</time>
      </trkpt>
      <trkpt lat="44.2079" lon="3.2229">
        <ele>445.8</ele>
        <time>2026-04-23T08:09:09.898Z</time>
      </trkpt>
      <trkpt lat="44.20797" lon="3.22293">
        <ele>446.67</ele>
        <time>2026-04-23T08:09:15.376Z</time>
      </trkpt>
      <trkpt lat="44.20805" lon="3.22296">
        <ele>444.72</ele>
        <time>2026-04-23T08:09:21.051Z</time>
      </trkpt>
      <trkpt lat="44.20813" lon="3.223">
        <ele>446.89</ele>
        <time>2026-04-23T08:09:26.095Z</time>
      </trkpt>
      <trkpt lat="44.20818" lon="3.22307">
        <ele>450.35</ele>
        <time>2026-04-23T08:09:31.484Z</time>
      </trkpt>
      <trkpt lat="44.20822" lon="3.22317">
        <ele>448.44</ele>
        <time>2026-04-23T08:09:37.055Z</time>
      </trkpt>
      <trkpt lat="44.20824" lon="3.22325">
        <ele>448.46</ele>
        <time>2026-04-23T08:09:42.830Z</time>
      </trkpt>
      <trkpt lat="44.20825" lon="3.22333">
        <ele>448.53</ele>
        <time>2026-04-23T08:09:48.209Z</time>
      </trkpt>
      <trkpt lat="44.20824" lon="3.22342">
        <ele>448.51</ele>
        <time>2026-04-23T08:09:53.381Z</time>
      </trkpt>
      <trkpt lat="44.20821" lon="3.22347">
        <ele>449.16</ele>
        <time>2026-04-23T08:09:58.506Z</time>
      </trkpt>
      <trkpt lat="44.20818" lon="3.22353">
        <ele>449.26</ele>
        <time>2026-04-23T08:10:03.895Z</time>
      </trkpt>
      <trkpt lat="44.20816" lon="3.2236">
        <ele>447.83</ele>
        <time>2026-04-23T08:10:09.532Z</time>
      </trkpt>
      <trkpt lat="44.20812" lon="3.22369">
        <ele>448.18</ele>
        <time>2026-04-23T08:10:15.229Z</time>
      </trkpt>
      <trkpt lat="44.2081" lon="3.22379">
        <ele>449.54</ele>
        <time>2026-04-23T08:10:20.932Z</time>
      </trkpt>
      <trkpt lat="44.20813" lon="3.22386">
        <ele>449.07</ele>
        <time>2026-04-23T08:10:26.113Z</time>
      </trkpt>
      <trkpt lat="44.20814" lon="3.22395">
        <ele>447.79</ele>
        <time>2026-04-23T08:10:31.169Z</time>
      </trkpt>
      <trkpt lat="44.20817" lon="3.22403">
        <ele>447.7</ele>
        <time>2026-04-23T08:10:36.734Z</time>
      </trkpt>
      <trkpt lat="44.2082" lon="3.22412">
        <ele>446.92</ele>
        <time>2026-04-23T08:10:42.229Z</time>
      </trkpt>
      <trkpt lat="44.20821" lon="3.22422">
        <ele>447</ele>
        <time>2026-04-23T08:10:47.261Z</time>
      </trkpt>
      <trkpt lat="44.20822" lon="3.22431">
        <ele>448.59</ele>
        <time>2026-04-23T08:10:52.838Z</time>
      </trkpt>
      <trkpt lat="44.20819" lon="3.2244">
        <ele>448.27</ele>
        <time>2026-04-23T08:10:58.118Z</time>
      </trkpt>
      <trkpt lat="44.2082" lon="3.22447">
        <ele>447.42</ele>
        <time>2026-04-23T08:11:03.194Z</time>
      </trkpt>
      <trkpt lat="44.20825" lon="3.22452">
        <ele>445.8</ele>
        <time>2026-04-23T08:11:09.038Z</time>
      </trkpt>
      <trkpt lat="44.2083" lon="3.22457">
        <ele>446.05</ele>
        <time>2026-04-23T08:11:14.221Z</time>
      </trkpt>
      <trkpt lat="44.20835" lon="3.22465">
        <ele>447.01</ele>
        <time>2026-04-23T08:11:19.681Z</time>
      </trkpt>
      <trkpt lat="44.20838" lon="3.22475">
        <ele>446.26</ele>
        <time>2026-04-23T08:11:25.254Z</time>
      </trkpt>
      <trkpt lat="44.20839" lon="3.22482">
        <ele>445.51</ele>
        <time>2026-04-23T08:11:30.504Z</time>
      </trkpt>
      <trkpt lat="44.2084" lon="3.2249">
        <ele>444.98</ele>
        <time>2026-04-23T08:11:36.123Z</time>
      </trkpt>
      <trkpt lat="44.20842" lon="3.22498">
        <ele>443.54</ele>
        <time>2026-04-23T08:11:41.396Z</time>
      </trkpt>
      <trkpt lat="44.20846" lon="3.22499">
        <ele>444.94</ele>
        <time>2026-04-23T08:11:46.774Z</time>
      </trkpt>
      <trkpt lat="44.20851" lon="3.22494">
        <ele>445.25</ele>
        <time>2026-04-23T08:11:52.132Z</time>
      </trkpt>
      <trkpt lat="44.20857" lon="3.22493">
        <ele>445.87</ele>
        <time>2026-04-23T08:11:57.269Z</time>
      </trkpt>
      <trkpt lat="44.20862" lon="3.22502">
        <ele>445.9</ele>
        <time>2026-04-23T08:12:02.799Z</time>
      </trkpt>
      <trkpt lat="44.20866" lon="3.22508">
        <ele>445.94</ele>
        <time>2026-04-23T08:12:07.856Z</time>
      </trkpt>
      <trkpt lat="44.20872" lon="3.22511">
        <ele>444.24</ele>
        <time>2026-04-23T08:12:13.156Z</time>
      </trkpt>
      <trkpt lat="44.20878" lon="3.22512">
        <ele>446.24</ele>
        <time>2026-04-23T08:12:18.900Z</time>
      </trkpt>
      <trkpt lat="44.20883" lon="3.22512">
        <ele>447.08</ele>
        <time>2026-04-23T08:12:24.142Z</time>
      </trkpt>
      <trkpt lat="44.20888" lon="3.22509">
        <ele>449.23</ele>
        <time>2026-04-23T08:12:29.679Z</time>
      </trkpt>
      <trkpt lat="44.20893" lon="3.22506">
        <ele>451</ele>
        <time>2026-04-23T08:12:35.002Z</time>
      </trkpt>
      <trkpt lat="44.20898" lon="3.22504">
        <ele>449.81</ele>
        <time>2026-04-23T08:12:40.096Z</time>
      </trkpt>
      <trkpt lat="44.20903" lon="3.22501">
        <ele>450.27</ele>
        <time>2026-04-23T08:12:45.557Z</time>
      </trkpt>
      <trkpt lat="44.20908" lon="3.22498">
        <ele>450.81</ele>
        <time>2026-04-23T08:12:50.616Z</time>
      </trkpt>
      <trkpt lat="44.20915" lon="3.22497">
        <ele>450.94</ele>
        <time>2026-04-23T08:12:56.152Z</time>
      </trkpt>
      <trkpt lat="44.20919" lon="3.22497">
        <ele>451.53</ele>
        <time>2026-04-23T08:13:01.166Z</time>
      </trkpt>
      <trkpt lat="44.20922" lon="3.22495">
        <ele>452.16</ele>
        <time>2026-04-23T08:13:06.719Z</time>
      </trkpt>
      <trkpt lat="44.20925" lon="3.22488">
        <ele>452.92</ele>
        <time>2026-04-23T08:13:12.156Z</time>
      </trkpt>
      <trkpt lat="44.20929" lon="3.22482">
        <ele>453.73</ele>
        <time>2026-04-23T08:13:17.682Z</time>
      </trkpt>
      <trkpt lat="44.20935" lon="3.22478">
        <ele>453.78</ele>
        <time>2026-04-23T08:13:23.034Z</time>
      </trkpt>
      <trkpt lat="44.20939" lon="3.22473">
        <ele>453.72</ele>
        <time>2026-04-23T08:13:28.161Z</time>
      </trkpt>
      <trkpt lat="44.20943" lon="3.22469">
        <ele>453.96</ele>
        <time>2026-04-23T08:13:33.419Z</time>
      </trkpt>
      <trkpt lat="44.20949" lon="3.22464">
        <ele>453.9</ele>
        <time>2026-04-23T08:13:38.657Z</time>
      </trkpt>
      <trkpt lat="44.20955" lon="3.2246">
        <ele>455.49</ele>
        <time>2026-04-23T08:13:44.166Z</time>
      </trkpt>
      <trkpt lat="44.20959" lon="3.22458">
        <ele>456.01</ele>
        <time>2026-04-23T08:13:49.180Z</time>
      </trkpt>
      <trkpt lat="44.20966" lon="3.2246">
        <ele>455.99</ele>
        <time>2026-04-23T08:13:54.488Z</time>
      </trkpt>
      <trkpt lat="44.20973" lon="3.22463">
        <ele>456.01</ele>
        <time>2026-04-23T08:13:59.943Z</time>
      </trkpt>
      <trkpt lat="44.2098" lon="3.22464">
        <ele>455.92</ele>
        <time>2026-04-23T08:14:05.179Z</time>
      </trkpt>
      <trkpt lat="44.20986" lon="3.22468">
        <ele>455.79</ele>
        <time>2026-04-23T08:14:10.200Z</time>
      </trkpt>
      <trkpt lat="44.20991" lon="3.22472">
        <ele>456.07</ele>
        <time>2026-04-23T08:14:15.217Z</time>
      </trkpt>
      <trkpt lat="44.20996" lon="3.22475">
        <ele>455.84</ele>
        <time>2026-04-23T08:14:20.294Z</time>
      </trkpt>
      <trkpt lat="44.21001" lon="3.22478">
        <ele>456.44</ele>
        <time>2026-04-23T08:14:25.718Z</time>
      </trkpt>
      <trkpt lat="44.21007" lon="3.22482">
        <ele>456.81</ele>
        <time>2026-04-23T08:14:31.141Z</time>
      </trkpt>
      <trkpt lat="44.21013" lon="3.22486">
        <ele>455.78</ele>
        <time>2026-04-23T08:14:36.780Z</time>
      </trkpt>
      <trkpt lat="44.21017" lon="3.22489">
        <ele>456.42</ele>
        <time>2026-04-23T08:14:42.209Z</time>
      </trkpt>
      <trkpt lat="44.21021" lon="3.22494">
        <ele>455.7</ele>
        <time>2026-04-23T08:14:47.223Z</time>
      </trkpt>
      <trkpt lat="44.21023" lon="3.22501">
        <ele>456.28</ele>
        <time>2026-04-23T08:14:52.758Z</time>
      </trkpt>
      <trkpt lat="44.21026" lon="3.22509">
        <ele>456.9</ele>
        <time>2026-04-23T08:14:58.217Z</time>
      </trkpt>
      <trkpt lat="44.21027" lon="3.22517">
        <ele>455.91</ele>
        <time>2026-04-23T08:15:03.274Z</time>
      </trkpt>
      <trkpt lat="44.2103" lon="3.22523">
        <ele>455.9</ele>
        <time>2026-04-23T08:15:08.539Z</time>
      </trkpt>
      <trkpt lat="44.21034" lon="3.22531">
        <ele>456.29</ele>
        <time>2026-04-23T08:15:13.741Z</time>
      </trkpt>
      <trkpt lat="44.21037" lon="3.2254">
        <ele>457.32</ele>
        <time>2026-04-23T08:15:19.102Z</time>
      </trkpt>
      <trkpt lat="44.21041" lon="3.22547">
        <ele>457.79</ele>
        <time>2026-04-23T08:15:25.200Z</time>
      </trkpt>
      <trkpt lat="44.21043" lon="3.22555">
        <ele>456.6</ele>
        <time>2026-04-23T08:15:31.036Z</time>
      </trkpt>
      <trkpt lat="44.21046" lon="3.22563">
        <ele>455.58</ele>
        <time>2026-04-23T08:15:36.956Z</time>
      </trkpt>
      <trkpt lat="44.21051" lon="3.2257">
        <ele>456.16</ele>
        <time>2026-04-23T08:15:43.002Z</time>
      </trkpt>
      <trkpt lat="44.21056" lon="3.22574">
        <ele>456.92</ele>
        <time>2026-04-23T08:15:48.141Z</time>
      </trkpt>
      <trkpt lat="44.21061" lon="3.22577">
        <ele>458.37</ele>
        <time>2026-04-23T08:15:53.560Z</time>
      </trkpt>
      <trkpt lat="44.21066" lon="3.22578">
        <ele>457.09</ele>
        <time>2026-04-23T08:15:58.678Z</time>
      </trkpt>
      <trkpt lat="44.21065" lon="3.22577">
        <ele>455.97</ele>
        <time>2026-04-23T08:16:06.078Z</time>
      </trkpt>
      <trkpt lat="44.21064" lon="3.22576">
        <ele>454.62</ele>
        <time>2026-04-23T08:16:18.095Z</time>
      </trkpt>
      <trkpt lat="44.21067" lon="3.22566">
        <ele>456.14</ele>
        <time>2026-04-23T08:16:23.148Z</time>
      </trkpt>
      <trkpt lat="44.21074" lon="3.2256">
        <ele>455.61</ele>
        <time>2026-04-23T08:16:28.455Z</time>
      </trkpt>
      <trkpt lat="44.21078" lon="3.22555">
        <ele>454.68</ele>
        <time>2026-04-23T08:16:34.139Z</time>
      </trkpt>
      <trkpt lat="44.2108" lon="3.22554">
        <ele>454.94</ele>
        <time>2026-04-23T08:16:40.226Z</time>
      </trkpt>
      <trkpt lat="44.21082" lon="3.22553">
        <ele>457.18</ele>
        <time>2026-04-23T08:16:45.241Z</time>
      </trkpt>
      <trkpt lat="44.21086" lon="3.22557">
        <ele>456.28</ele>
        <time>2026-04-23T08:16:51.086Z</time>
      </trkpt>
      <trkpt lat="44.21094" lon="3.22557">
        <ele>455.99</ele>
        <time>2026-04-23T08:16:56.125Z</time>
      </trkpt>
      <trkpt lat="44.21093" lon="3.22556">
        <ele>455.38</ele>
        <time>2026-04-23T08:17:04.132Z</time>
      </trkpt>
      <trkpt lat="44.21092" lon="3.22557">
        <ele>454.3</ele>
        <time>2026-04-23T08:17:09.147Z</time>
      </trkpt>
      <trkpt lat="44.21092" lon="3.22556">
        <ele>453.76</ele>
        <time>2026-04-23T08:17:31.167Z</time>
      </trkpt>
      <trkpt lat="44.21097" lon="3.22544">
        <ele>454.85</ele>
        <time>2026-04-23T08:17:37.069Z</time>
      </trkpt>
      <trkpt lat="44.21103" lon="3.22548">
        <ele>454.54</ele>
        <time>2026-04-23T08:17:42.116Z</time>
      </trkpt>
      <trkpt lat="44.21106" lon="3.22561">
        <ele>454.34</ele>
        <time>2026-04-23T08:17:47.126Z</time>
      </trkpt>
      <trkpt lat="44.21106" lon="3.22573">
        <ele>455.08</ele>
        <time>2026-04-23T08:17:52.146Z</time>
      </trkpt>
      <trkpt lat="44.21104" lon="3.22582">
        <ele>453.8</ele>
        <time>2026-04-23T08:17:57.628Z</time>
      </trkpt>
      <trkpt lat="44.21102" lon="3.2259">
        <ele>453.41</ele>
        <time>2026-04-23T08:18:03.137Z</time>
      </trkpt>
      <trkpt lat="44.21101" lon="3.22597">
        <ele>453.25</ele>
        <time>2026-04-23T08:18:08.610Z</time>
      </trkpt>
      <trkpt lat="44.21099" lon="3.22606">
        <ele>452.91</ele>
        <time>2026-04-23T08:18:14.088Z</time>
      </trkpt>
      <trkpt lat="44.21097" lon="3.22617">
        <ele>452.87</ele>
        <time>2026-04-23T08:18:19.572Z</time>
      </trkpt>
      <trkpt lat="44.21095" lon="3.22627">
        <ele>451.96</ele>
        <time>2026-04-23T08:18:24.971Z</time>
      </trkpt>
      <trkpt lat="44.21094" lon="3.22636">
        <ele>451.08</ele>
        <time>2026-04-23T08:18:30.170Z</time>
      </trkpt>
      <trkpt lat="44.21095" lon="3.22645">
        <ele>451.62</ele>
        <time>2026-04-23T08:18:35.205Z</time>
      </trkpt>
      <trkpt lat="44.21097" lon="3.22653">
        <ele>452.56</ele>
        <time>2026-04-23T08:18:40.933Z</time>
      </trkpt>
      <trkpt lat="44.21101" lon="3.22659">
        <ele>453.29</ele>
        <time>2026-04-23T08:18:45.992Z</time>
      </trkpt>
      <trkpt lat="44.21104" lon="3.22665">
        <ele>454.17</ele>
        <time>2026-04-23T08:18:51.033Z</time>
      </trkpt>
      <trkpt lat="44.21107" lon="3.22672">
        <ele>453.41</ele>
        <time>2026-04-23T08:18:56.168Z</time>
      </trkpt>
      <trkpt lat="44.21113" lon="3.22678">
        <ele>453.56</ele>
        <time>2026-04-23T08:19:01.533Z</time>
      </trkpt>
      <trkpt lat="44.21118" lon="3.22684">
        <ele>452.26</ele>
        <time>2026-04-23T08:19:06.950Z</time>
      </trkpt>
      <trkpt lat="44.21124" lon="3.22683">
        <ele>452.9</ele>
        <time>2026-04-23T08:19:12.130Z</time>
      </trkpt>
      <trkpt lat="44.2113" lon="3.2268">
        <ele>453.33</ele>
        <time>2026-04-23T08:19:17.226Z</time>
      </trkpt>
      <trkpt lat="44.21135" lon="3.22677">
        <ele>452.38</ele>
        <time>2026-04-23T08:19:22.607Z</time>
      </trkpt>
      <trkpt lat="44.21139" lon="3.22673">
        <ele>452.21</ele>
        <time>2026-04-23T08:19:28.191Z</time>
      </trkpt>
      <trkpt lat="44.21144" lon="3.22669">
        <ele>453.65</ele>
        <time>2026-04-23T08:19:33.192Z</time>
      </trkpt>
      <trkpt lat="44.21149" lon="3.22661">
        <ele>453.94</ele>
        <time>2026-04-23T08:19:38.207Z</time>
      </trkpt>
      <trkpt lat="44.21156" lon="3.22654">
        <ele>454.04</ele>
        <time>2026-04-23T08:19:44.212Z</time>
      </trkpt>
      <trkpt lat="44.21162" lon="3.22647">
        <ele>452.37</ele>
        <time>2026-04-23T08:19:49.707Z</time>
      </trkpt>
      <trkpt lat="44.21168" lon="3.22643">
        <ele>450.49</ele>
        <time>2026-04-23T08:19:55.172Z</time>
      </trkpt>
      <trkpt lat="44.21173" lon="3.22638">
        <ele>451.17</ele>
        <time>2026-04-23T08:20:00.187Z</time>
      </trkpt>
      <trkpt lat="44.2118" lon="3.22634">
        <ele>451.36</ele>
        <time>2026-04-23T08:20:06.068Z</time>
      </trkpt>
      <trkpt lat="44.21187" lon="3.2263">
        <ele>451.44</ele>
        <time>2026-04-23T08:20:12.008Z</time>
      </trkpt>
      <trkpt lat="44.21191" lon="3.22625">
        <ele>451.25</ele>
        <time>2026-04-23T08:20:17.259Z</time>
      </trkpt>
      <trkpt lat="44.21197" lon="3.2262">
        <ele>449.33</ele>
        <time>2026-04-23T08:20:23.234Z</time>
      </trkpt>
      <trkpt lat="44.21202" lon="3.22614">
        <ele>449.58</ele>
        <time>2026-04-23T08:20:29.031Z</time>
      </trkpt>
      <trkpt lat="44.21208" lon="3.2261">
        <ele>450.07</ele>
        <time>2026-04-23T08:20:34.848Z</time>
      </trkpt>
      <trkpt lat="44.21213" lon="3.22608">
        <ele>450.44</ele>
        <time>2026-04-23T08:20:40.198Z</time>
      </trkpt>
      <trkpt lat="44.21218" lon="3.22605">
        <ele>451.14</ele>
        <time>2026-04-23T08:20:45.769Z</time>
      </trkpt>
      <trkpt lat="44.21224" lon="3.22605">
        <ele>449.71</ele>
        <time>2026-04-23T08:20:51.206Z</time>
      </trkpt>
      <trkpt lat="44.2123" lon="3.22607">
        <ele>449.92</ele>
        <time>2026-04-23T08:20:56.802Z</time>
      </trkpt>
      <trkpt lat="44.21235" lon="3.2261">
        <ele>450.17</ele>
        <time>2026-04-23T08:21:02.122Z</time>
      </trkpt>
      <trkpt lat="44.21239" lon="3.22614">
        <ele>450.83</ele>
        <time>2026-04-23T08:21:07.898Z</time>
      </trkpt>
      <trkpt lat="44.21244" lon="3.22613">
        <ele>451.14</ele>
        <time>2026-04-23T08:21:13.180Z</time>
      </trkpt>
      <trkpt lat="44.21252" lon="3.22615">
        <ele>450.49</ele>
        <time>2026-04-23T08:21:18.798Z</time>
      </trkpt>
      <trkpt lat="44.21257" lon="3.22619">
        <ele>449.58</ele>
        <time>2026-04-23T08:21:24.021Z</time>
      </trkpt>
      <trkpt lat="44.21262" lon="3.22623">
        <ele>449.22</ele>
        <time>2026-04-23T08:21:29.557Z</time>
      </trkpt>
      <trkpt lat="44.21267" lon="3.22626">
        <ele>449.15</ele>
        <time>2026-04-23T08:21:34.777Z</time>
      </trkpt>
      <trkpt lat="44.21272" lon="3.22627">
        <ele>449.11</ele>
        <time>2026-04-23T08:21:40.179Z</time>
      </trkpt>
      <trkpt lat="44.21277" lon="3.22629">
        <ele>448.32</ele>
        <time>2026-04-23T08:21:45.698Z</time>
      </trkpt>
      <trkpt lat="44.21281" lon="3.2263">
        <ele>446.3</ele>
        <time>2026-04-23T08:21:50.736Z</time>
      </trkpt>
      <trkpt lat="44.21286" lon="3.2263">
        <ele>446.59</ele>
        <time>2026-04-23T08:21:56.115Z</time>
      </trkpt>
      <trkpt lat="44.21291" lon="3.22629">
        <ele>446.13</ele>
        <time>2026-04-23T08:22:02.198Z</time>
      </trkpt>
      <trkpt lat="44.21297" lon="3.22628">
        <ele>445.69</ele>
        <time>2026-04-23T08:22:07.798Z</time>
      </trkpt>
      <trkpt lat="44.21303" lon="3.22626">
        <ele>445.45</ele>
        <time>2026-04-23T08:22:12.903Z</time>
      </trkpt>
      <trkpt lat="44.21309" lon="3.22625">
        <ele>444.02</ele>
        <time>2026-04-23T08:22:18.162Z</time>
      </trkpt>
      <trkpt lat="44.21317" lon="3.22626">
        <ele>444.41</ele>
        <time>2026-04-23T08:22:24.136Z</time>
      </trkpt>
      <trkpt lat="44.21324" lon="3.22624">
        <ele>444.72</ele>
        <time>2026-04-23T08:22:30.115Z</time>
      </trkpt>
      <trkpt lat="44.2133" lon="3.22623">
        <ele>444.77</ele>
        <time>2026-04-23T08:22:35.939Z</time>
      </trkpt>
      <trkpt lat="44.21336" lon="3.22619">
        <ele>444.05</ele>
        <time>2026-04-23T08:22:41.559Z</time>
      </trkpt>
      <trkpt lat="44.21342" lon="3.2262">
        <ele>441.38</ele>
        <time>2026-04-23T08:22:47.240Z</time>
      </trkpt>
      <trkpt lat="44.21348" lon="3.22621">
        <ele>441.53</ele>
        <time>2026-04-23T08:22:52.958Z</time>
      </trkpt>
      <trkpt lat="44.21355" lon="3.22625">
        <ele>441.76</ele>
        <time>2026-04-23T08:22:58.559Z</time>
      </trkpt>
      <trkpt lat="44.21363" lon="3.22626">
        <ele>441.47</ele>
        <time>2026-04-23T08:23:04.257Z</time>
      </trkpt>
      <trkpt lat="44.21369" lon="3.2262">
        <ele>441.93</ele>
        <time>2026-04-23T08:23:10.136Z</time>
      </trkpt>
      <trkpt lat="44.21368" lon="3.22619">
        <ele>440.3</ele>
        <time>2026-04-23T08:23:28.153Z</time>
      </trkpt>
      <trkpt lat="44.21369" lon="3.2262">
        <ele>440.68</ele>
        <time>2026-04-23T08:23:59.201Z</time>
      </trkpt>
      <trkpt lat="44.21368" lon="3.22621">
        <ele>440.36</ele>
        <time>2026-04-23T08:24:11.151Z</time>
      </trkpt>
      <trkpt lat="44.21369" lon="3.22621">
        <ele>439.33</ele>
        <time>2026-04-23T08:24:16.579Z</time>
      </trkpt>
      <trkpt lat="44.21375" lon="3.22621">
        <ele>442.26</ele>
        <time>2026-04-23T08:24:22.247Z</time>
      </trkpt>
      <trkpt lat="44.2138" lon="3.22623">
        <ele>443.61</ele>
        <time>2026-04-23T08:24:27.915Z</time>
      </trkpt>
      <trkpt lat="44.21383" lon="3.22626">
        <ele>444.73</ele>
        <time>2026-04-23T08:24:33.236Z</time>
      </trkpt>
      <trkpt lat="44.21386" lon="3.22631">
        <ele>445.68</ele>
        <time>2026-04-23T08:24:38.251Z</time>
      </trkpt>
      <trkpt lat="44.21386" lon="3.22633">
        <ele>444.44</ele>
        <time>2026-04-23T08:24:44.226Z</time>
      </trkpt>
      <trkpt lat="44.21387" lon="3.22635">
        <ele>445.15</ele>
        <time>2026-04-23T08:24:49.279Z</time>
      </trkpt>
      <trkpt lat="44.2139" lon="3.22641">
        <ele>445.98</ele>
        <time>2026-04-23T08:24:55.077Z</time>
      </trkpt>
      <trkpt lat="44.21391" lon="3.22647">
        <ele>446.87</ele>
        <time>2026-04-23T08:25:00.660Z</time>
      </trkpt>
      <trkpt lat="44.21389" lon="3.22651">
        <ele>447.63</ele>
        <time>2026-04-23T08:25:05.994Z</time>
      </trkpt>
      <trkpt lat="44.2139" lon="3.22658">
        <ele>447.53</ele>
        <time>2026-04-23T08:25:11.614Z</time>
      </trkpt>
      <trkpt lat="44.21394" lon="3.22662">
        <ele>448.4</ele>
        <time>2026-04-23T08:25:17.126Z</time>
      </trkpt>
      <trkpt lat="44.21396" lon="3.22668">
        <ele>448.5</ele>
        <time>2026-04-23T08:25:22.208Z</time>
      </trkpt>
      <trkpt lat="44.21397" lon="3.22676">
        <ele>449.5</ele>
        <time>2026-04-23T08:25:27.338Z</time>
      </trkpt>
      <trkpt lat="44.21398" lon="3.22685">
        <ele>449.53</ele>
        <time>2026-04-23T08:25:32.590Z</time>
      </trkpt>
      <trkpt lat="44.21399" lon="3.22691">
        <ele>449.32</ele>
        <time>2026-04-23T08:25:38.211Z</time>
      </trkpt>
      <trkpt lat="44.21403" lon="3.22696">
        <ele>448.62</ele>
        <time>2026-04-23T08:25:43.227Z</time>
      </trkpt>
      <trkpt lat="44.21405" lon="3.22702">
        <ele>449.6</ele>
        <time>2026-04-23T08:25:48.253Z</time>
      </trkpt>
      <trkpt lat="44.21405" lon="3.22708">
        <ele>450.08</ele>
        <time>2026-04-23T08:25:53.256Z</time>
      </trkpt>
      <trkpt lat="44.21406" lon="3.22715">
        <ele>450.56</ele>
        <time>2026-04-23T08:25:58.532Z</time>
      </trkpt>
      <trkpt lat="44.21407" lon="3.22724">
        <ele>451.48</ele>
        <time>2026-04-23T08:26:03.811Z</time>
      </trkpt>
      <trkpt lat="44.21409" lon="3.22731">
        <ele>450.21</ele>
        <time>2026-04-23T08:26:09.361Z</time>
      </trkpt>
      <trkpt lat="44.2141" lon="3.22738">
        <ele>449.96</ele>
        <time>2026-04-23T08:26:14.534Z</time>
      </trkpt>
      <trkpt lat="44.21413" lon="3.22743">
        <ele>451.42</ele>
        <time>2026-04-23T08:26:20.057Z</time>
      </trkpt>
      <trkpt lat="44.21416" lon="3.22749">
        <ele>452.7</ele>
        <time>2026-04-23T08:26:25.597Z</time>
      </trkpt>
      <trkpt lat="44.21419" lon="3.22756">
        <ele>453.54</ele>
        <time>2026-04-23T08:26:31.149Z</time>
      </trkpt>
      <trkpt lat="44.21419" lon="3.22765">
        <ele>454.3</ele>
        <time>2026-04-23T08:26:36.914Z</time>
      </trkpt>
      <trkpt lat="44.2142" lon="3.22772">
        <ele>453.47</ele>
        <time>2026-04-23T08:26:42.245Z</time>
      </trkpt>
      <trkpt lat="44.2142" lon="3.22778">
        <ele>454.67</ele>
        <time>2026-04-23T08:26:47.824Z</time>
      </trkpt>
      <trkpt lat="44.21423" lon="3.22782">
        <ele>455.31</ele>
        <time>2026-04-23T08:26:52.855Z</time>
      </trkpt>
      <trkpt lat="44.21428" lon="3.22783">
        <ele>455.46</ele>
        <time>2026-04-23T08:26:57.915Z</time>
      </trkpt>
      <trkpt lat="44.2143" lon="3.22785">
        <ele>456.16</ele>
        <time>2026-04-23T08:27:02.957Z</time>
      </trkpt>
      <trkpt lat="44.21429" lon="3.22784">
        <ele>455.93</ele>
        <time>2026-04-23T08:27:14.620Z</time>
      </trkpt>
      <trkpt lat="44.2143" lon="3.22782">
        <ele>456.98</ele>
        <time>2026-04-23T08:27:20.159Z</time>
      </trkpt>
      <trkpt lat="44.21432" lon="3.22778">
        <ele>459.2</ele>
        <time>2026-04-23T08:27:25.742Z</time>
      </trkpt>
      <trkpt lat="44.21434" lon="3.22774">
        <ele>459.8</ele>
        <time>2026-04-23T08:27:31.225Z</time>
      </trkpt>
      <trkpt lat="44.21436" lon="3.22773">
        <ele>459.29</ele>
        <time>2026-04-23T08:27:36.603Z</time>
      </trkpt>
      <trkpt lat="44.21437" lon="3.2277">
        <ele>459.74</ele>
        <time>2026-04-23T08:27:41.819Z</time>
      </trkpt>
      <trkpt lat="44.21439" lon="3.22768">
        <ele>460.52</ele>
        <time>2026-04-23T08:27:47.247Z</time>
      </trkpt>
      <trkpt lat="44.21441" lon="3.22766">
        <ele>461.92</ele>
        <time>2026-04-23T08:27:52.261Z</time>
      </trkpt>
      <trkpt lat="44.21443" lon="3.22764">
        <ele>463.07</ele>
        <time>2026-04-23T08:27:57.839Z</time>
      </trkpt>
      <trkpt lat="44.21447" lon="3.22763">
        <ele>464.16</ele>
        <time>2026-04-23T08:28:03.165Z</time>
      </trkpt>
      <trkpt lat="44.21448" lon="3.22761">
        <ele>464.02</ele>
        <time>2026-04-23T08:28:09.041Z</time>
      </trkpt>
      <trkpt lat="44.21448" lon="3.2276">
        <ele>465.54</ele>
        <time>2026-04-23T08:28:14.661Z</time>
      </trkpt>
      <trkpt lat="44.2145" lon="3.22757">
        <ele>467.73</ele>
        <time>2026-04-23T08:28:20.214Z</time>
      </trkpt>
      <trkpt lat="44.21453" lon="3.22755">
        <ele>468.11</ele>
        <time>2026-04-23T08:28:25.624Z</time>
      </trkpt>
      <trkpt lat="44.21456" lon="3.22751">
        <ele>468.63</ele>
        <time>2026-04-23T08:28:31.020Z</time>
      </trkpt>
      <trkpt lat="44.21458" lon="3.22749">
        <ele>467.66</ele>
        <time>2026-04-23T08:28:36.218Z</time>
      </trkpt>
      <trkpt lat="44.21461" lon="3.22748">
        <ele>469.02</ele>
        <time>2026-04-23T08:28:41.231Z</time>
      </trkpt>
      <trkpt lat="44.21462" lon="3.22748">
        <ele>470.18</ele>
        <time>2026-04-23T08:28:47.207Z</time>
      </trkpt>
      <trkpt lat="44.21464" lon="3.22746">
        <ele>470.3</ele>
        <time>2026-04-23T08:28:52.821Z</time>
      </trkpt>
      <trkpt lat="44.21466" lon="3.22743">
        <ele>472.44</ele>
        <time>2026-04-23T08:28:58.196Z</time>
      </trkpt>
      <trkpt lat="44.2147" lon="3.22739">
        <ele>471.38</ele>
        <time>2026-04-23T08:29:04.170Z</time>
      </trkpt>
      <trkpt lat="44.21472" lon="3.22737">
        <ele>471.67</ele>
        <time>2026-04-23T08:29:09.185Z</time>
      </trkpt>
      <trkpt lat="44.21473" lon="3.22736">
        <ele>472.45</ele>
        <time>2026-04-23T08:29:14.199Z</time>
      </trkpt>
      <trkpt lat="44.21476" lon="3.22733">
        <ele>473.88</ele>
        <time>2026-04-23T08:29:19.214Z</time>
      </trkpt>
      <trkpt lat="44.21476" lon="3.22731">
        <ele>474.77</ele>
        <time>2026-04-23T08:29:24.279Z</time>
      </trkpt>
      <trkpt lat="44.21477" lon="3.22729">
        <ele>473.67</ele>
        <time>2026-04-23T08:29:30.121Z</time>
      </trkpt>
      <trkpt lat="44.21479" lon="3.22724">
        <ele>474.49</ele>
        <time>2026-04-23T08:29:35.218Z</time>
      </trkpt>
      <trkpt lat="44.21483" lon="3.2272">
        <ele>475.72</ele>
        <time>2026-04-23T08:29:40.600Z</time>
      </trkpt>
      <trkpt lat="44.21488" lon="3.22716">
        <ele>476.57</ele>
        <time>2026-04-23T08:29:46.023Z</time>
      </trkpt>
      <trkpt lat="44.21493" lon="3.22714">
        <ele>477.48</ele>
        <time>2026-04-23T08:29:51.507Z</time>
      </trkpt>
      <trkpt lat="44.21499" lon="3.22711">
        <ele>477.22</ele>
        <time>2026-04-23T08:29:56.604Z</time>
      </trkpt>
      <trkpt lat="44.21504" lon="3.22709">
        <ele>476.29</ele>
        <time>2026-04-23T08:30:02.210Z</time>
      </trkpt>
      <trkpt lat="44.21503" lon="3.2271">
        <ele>476.21</ele>
        <time>2026-04-23T08:30:07.224Z</time>
      </trkpt>
      <trkpt lat="44.21504" lon="3.22709">
        <ele>477.04</ele>
        <time>2026-04-23T08:30:16.746Z</time>
      </trkpt>
      <trkpt lat="44.21509" lon="3.22709">
        <ele>478.67</ele>
        <time>2026-04-23T08:30:22.224Z</time>
      </trkpt>
      <trkpt lat="44.21512" lon="3.2271">
        <ele>478.56</ele>
        <time>2026-04-23T08:30:28.243Z</time>
      </trkpt>
      <trkpt lat="44.21515" lon="3.2271">
        <ele>478.54</ele>
        <time>2026-04-23T08:30:33.759Z</time>
      </trkpt>
      <trkpt lat="44.21518" lon="3.22708">
        <ele>479.02</ele>
        <time>2026-04-23T08:30:39.232Z</time>
      </trkpt>
      <trkpt lat="44.21522" lon="3.22707">
        <ele>478.56</ele>
        <time>2026-04-23T08:30:44.246Z</time>
      </trkpt>
      <trkpt lat="44.21527" lon="3.22708">
        <ele>479.96</ele>
        <time>2026-04-23T08:30:49.904Z</time>
      </trkpt>
      <trkpt lat="44.21535" lon="3.2271">
        <ele>479</ele>
        <time>2026-04-23T08:30:56.204Z</time>
      </trkpt>
      <trkpt lat="44.21533" lon="3.22709">
        <ele>477.59</ele>
        <time>2026-04-23T08:31:02.001Z</time>
      </trkpt>
      <trkpt lat="44.21534" lon="3.2271">
        <ele>480.63</ele>
        <time>2026-04-23T08:31:13.866Z</time>
      </trkpt>
      <trkpt lat="44.21536" lon="3.2271">
        <ele>481.56</ele>
        <time>2026-04-23T08:31:19.280Z</time>
      </trkpt>
      <trkpt lat="44.21542" lon="3.22715">
        <ele>479.9</ele>
        <time>2026-04-23T08:31:25.270Z</time>
      </trkpt>
      <trkpt lat="44.21549" lon="3.22728">
        <ele>477.92</ele>
        <time>2026-04-23T08:31:31.079Z</time>
      </trkpt>
      <trkpt lat="44.21557" lon="3.22733">
        <ele>478.2</ele>
        <time>2026-04-23T08:31:36.213Z</time>
      </trkpt>
      <trkpt lat="44.21562" lon="3.2274">
        <ele>477.48</ele>
        <time>2026-04-23T08:31:41.239Z</time>
      </trkpt>
      <trkpt lat="44.21566" lon="3.22743">
        <ele>477.6</ele>
        <time>2026-04-23T08:31:46.242Z</time>
      </trkpt>
      <trkpt lat="44.21568" lon="3.22746">
        <ele>476.42</ele>
        <time>2026-04-23T08:31:51.945Z</time>
      </trkpt>
      <trkpt lat="44.2157" lon="3.2275">
        <ele>474.95</ele>
        <time>2026-04-23T08:31:57.064Z</time>
      </trkpt>
      <trkpt lat="44.21572" lon="3.22757">
        <ele>475.51</ele>
        <time>2026-04-23T08:32:02.246Z</time>
      </trkpt>
      <trkpt lat="44.21574" lon="3.22763">
        <ele>476.07</ele>
        <time>2026-04-23T08:32:07.260Z</time>
      </trkpt>
      <trkpt lat="44.21576" lon="3.22767">
        <ele>477.39</ele>
        <time>2026-04-23T08:32:13.103Z</time>
      </trkpt>
      <trkpt lat="44.21581" lon="3.22771">
        <ele>476.79</ele>
        <time>2026-04-23T08:32:18.644Z</time>
      </trkpt>
      <trkpt lat="44.21583" lon="3.22774">
        <ele>475.52</ele>
        <time>2026-04-23T08:32:23.880Z</time>
      </trkpt>
      <trkpt lat="44.21584" lon="3.22779">
        <ele>473.98</ele>
        <time>2026-04-23T08:32:29.238Z</time>
      </trkpt>
      <trkpt lat="44.21586" lon="3.22782">
        <ele>475.62</ele>
        <time>2026-04-23T08:32:34.261Z</time>
      </trkpt>
      <trkpt lat="44.21588" lon="3.22787">
        <ele>475.6</ele>
        <time>2026-04-23T08:32:40.245Z</time>
      </trkpt>
      <trkpt lat="44.2159" lon="3.22796">
        <ele>475.62</ele>
        <time>2026-04-23T08:32:45.291Z</time>
      </trkpt>
      <trkpt lat="44.21594" lon="3.22802">
        <ele>477.13</ele>
        <time>2026-04-23T08:32:51.200Z</time>
      </trkpt>
      <trkpt lat="44.21598" lon="3.22805">
        <ele>476.15</ele>
        <time>2026-04-23T08:32:57.217Z</time>
      </trkpt>
      <trkpt lat="44.216" lon="3.22806">
        <ele>476.42</ele>
        <time>2026-04-23T08:33:02.231Z</time>
      </trkpt>
      <trkpt lat="44.21601" lon="3.22808">
        <ele>476.54</ele>
        <time>2026-04-23T08:33:07.246Z</time>
      </trkpt>
      <trkpt lat="44.21601" lon="3.22813">
        <ele>475.7</ele>
        <time>2026-04-23T08:33:12.859Z</time>
      </trkpt>
      <trkpt lat="44.21602" lon="3.22816">
        <ele>475.9</ele>
        <time>2026-04-23T08:33:17.901Z</time>
      </trkpt>
      <trkpt lat="44.21603" lon="3.22818">
        <ele>475.25</ele>
        <time>2026-04-23T08:33:23.228Z</time>
      </trkpt>
      <trkpt lat="44.2161" lon="3.22822">
        <ele>475.23</ele>
        <time>2026-04-23T08:33:29.086Z</time>
      </trkpt>
      <trkpt lat="44.21612" lon="3.2282">
        <ele>476.74</ele>
        <time>2026-04-23T08:33:34.848Z</time>
      </trkpt>
      <trkpt lat="44.21616" lon="3.22817">
        <ele>477.27</ele>
        <time>2026-04-23T08:33:40.565Z</time>
      </trkpt>
      <trkpt lat="44.21622" lon="3.22812">
        <ele>478.52</ele>
        <time>2026-04-23T08:33:45.958Z</time>
      </trkpt>
      <trkpt lat="44.21627" lon="3.22805">
        <ele>478.69</ele>
        <time>2026-04-23T08:33:51.201Z</time>
      </trkpt>
      <trkpt lat="44.21632" lon="3.22801">
        <ele>479.14</ele>
        <time>2026-04-23T08:33:56.744Z</time>
      </trkpt>
      <trkpt lat="44.21636" lon="3.22797">
        <ele>479.53</ele>
        <time>2026-04-23T08:34:02.190Z</time>
      </trkpt>
      <trkpt lat="44.2164" lon="3.22795">
        <ele>479.96</ele>
        <time>2026-04-23T08:34:07.204Z</time>
      </trkpt>
      <trkpt lat="44.21642" lon="3.2279">
        <ele>480.48</ele>
        <time>2026-04-23T08:34:12.746Z</time>
      </trkpt>
      <trkpt lat="44.21645" lon="3.22785">
        <ele>480.37</ele>
        <time>2026-04-23T08:34:17.886Z</time>
      </trkpt>
      <trkpt lat="44.21648" lon="3.2278">
        <ele>481.02</ele>
        <time>2026-04-23T08:34:23.226Z</time>
      </trkpt>
      <trkpt lat="44.21651" lon="3.22776">
        <ele>480.44</ele>
        <time>2026-04-23T08:34:28.617Z</time>
      </trkpt>
      <trkpt lat="44.21653" lon="3.22773">
        <ele>482.53</ele>
        <time>2026-04-23T08:34:34.215Z</time>
      </trkpt>
      <trkpt lat="44.21657" lon="3.22767">
        <ele>483.14</ele>
        <time>2026-04-23T08:34:39.839Z</time>
      </trkpt>
      <trkpt lat="44.21661" lon="3.22762">
        <ele>483.31</ele>
        <time>2026-04-23T08:34:45.204Z</time>
      </trkpt>
      <trkpt lat="44.21661" lon="3.2276">
        <ele>483.02</ele>
        <time>2026-04-23T08:34:53.528Z</time>
      </trkpt>
      <trkpt lat="44.21665" lon="3.2275">
        <ele>482.37</ele>
        <time>2026-04-23T08:34:58.768Z</time>
      </trkpt>
      <trkpt lat="44.21666" lon="3.22746">
        <ele>483</ele>
        <time>2026-04-23T08:35:03.985Z</time>
      </trkpt>
      <trkpt lat="44.2167" lon="3.22742">
        <ele>483.28</ele>
        <time>2026-04-23T08:35:09.826Z</time>
      </trkpt>
      <trkpt lat="44.21671" lon="3.22741">
        <ele>483.99</ele>
        <time>2026-04-23T08:35:15.225Z</time>
      </trkpt>
      <trkpt lat="44.21675" lon="3.22735">
        <ele>483.64</ele>
        <time>2026-04-23T08:35:21.128Z</time>
      </trkpt>
      <trkpt lat="44.21681" lon="3.22731">
        <ele>484.46</ele>
        <time>2026-04-23T08:35:26.728Z</time>
      </trkpt>
      <trkpt lat="44.21687" lon="3.22733">
        <ele>484.34</ele>
        <time>2026-04-23T08:35:32.168Z</time>
      </trkpt>
      <trkpt lat="44.21691" lon="3.22738">
        <ele>484.56</ele>
        <time>2026-04-23T08:35:37.171Z</time>
      </trkpt>
      <trkpt lat="44.21694" lon="3.22744">
        <ele>484.79</ele>
        <time>2026-04-23T08:35:42.193Z</time>
      </trkpt>
      <trkpt lat="44.21695" lon="3.22746">
        <ele>485.16</ele>
        <time>2026-04-23T08:35:48.020Z</time>
      </trkpt>
      <trkpt lat="44.21696" lon="3.22748">
        <ele>485.48</ele>
        <time>2026-04-23T08:35:53.180Z</time>
      </trkpt>
      <trkpt lat="44.21697" lon="3.22755">
        <ele>486.42</ele>
        <time>2026-04-23T08:35:58.501Z</time>
      </trkpt>
      <trkpt lat="44.21698" lon="3.22762">
        <ele>486.12</ele>
        <time>2026-04-23T08:36:04.222Z</time>
      </trkpt>
      <trkpt lat="44.217" lon="3.22763">
        <ele>487.98</ele>
        <time>2026-04-23T08:36:09.464Z</time>
      </trkpt>
      <trkpt lat="44.21706" lon="3.22764">
        <ele>487.32</ele>
        <time>2026-04-23T08:36:14.490Z</time>
      </trkpt>
      <trkpt lat="44.21709" lon="3.22768">
        <ele>485.76</ele>
        <time>2026-04-23T08:36:20.182Z</time>
      </trkpt>
      <trkpt lat="44.2171" lon="3.22769">
        <ele>486.38</ele>
        <time>2026-04-23T08:36:25.262Z</time>
      </trkpt>
      <trkpt lat="44.21711" lon="3.22771">
        <ele>485.67</ele>
        <time>2026-04-23T08:36:30.899Z</time>
      </trkpt>
      <trkpt lat="44.21714" lon="3.22781">
        <ele>485.48</ele>
        <time>2026-04-23T08:36:36.136Z</time>
      </trkpt>
      <trkpt lat="44.21713" lon="3.22786">
        <ele>487.17</ele>
        <time>2026-04-23T08:36:42.267Z</time>
      </trkpt>
      <trkpt lat="44.21715" lon="3.22789">
        <ele>487.67</ele>
        <time>2026-04-23T08:36:47.800Z</time>
      </trkpt>
      <trkpt lat="44.21716" lon="3.22792">
        <ele>487.36</ele>
        <time>2026-04-23T08:36:53.251Z</time>
      </trkpt>
      <trkpt lat="44.21718" lon="3.22793">
        <ele>487.05</ele>
        <time>2026-04-23T08:36:58.471Z</time>
      </trkpt>
      <trkpt lat="44.2172" lon="3.22792">
        <ele>486.82</ele>
        <time>2026-04-23T08:37:04.240Z</time>
      </trkpt>
      <trkpt lat="44.21722" lon="3.22786">
        <ele>488.53</ele>
        <time>2026-04-23T08:37:09.536Z</time>
      </trkpt>
      <trkpt lat="44.21729" lon="3.22781">
        <ele>489.52</ele>
        <time>2026-04-23T08:37:15.234Z</time>
      </trkpt>
      <trkpt lat="44.21736" lon="3.22782">
        <ele>488.13</ele>
        <time>2026-04-23T08:37:20.247Z</time>
      </trkpt>
      <trkpt lat="44.21738" lon="3.22781">
        <ele>490.83</ele>
        <time>2026-04-23T08:37:25.838Z</time>
      </trkpt>
      <trkpt lat="44.21739" lon="3.2278">
        <ele>493.05</ele>
        <time>2026-04-23T08:37:35.695Z</time>
      </trkpt>
      <trkpt lat="44.2174" lon="3.22778">
        <ele>494.14</ele>
        <time>2026-04-23T08:37:41.160Z</time>
      </trkpt>
      <trkpt lat="44.21739" lon="3.22779">
        <ele>493.51</ele>
        <time>2026-04-23T08:37:46.183Z</time>
      </trkpt>
      <trkpt lat="44.21743" lon="3.22775">
        <ele>493.45</ele>
        <time>2026-04-23T08:37:51.972Z</time>
      </trkpt>
      <trkpt lat="44.21747" lon="3.22772">
        <ele>494.46</ele>
        <time>2026-04-23T08:37:57.172Z</time>
      </trkpt>
      <trkpt lat="44.21751" lon="3.22767">
        <ele>494.66</ele>
        <time>2026-04-23T08:38:02.508Z</time>
      </trkpt>
      <trkpt lat="44.21756" lon="3.22769">
        <ele>494.54</ele>
        <time>2026-04-23T08:38:08.023Z</time>
      </trkpt>
      <trkpt lat="44.21758" lon="3.2277">
        <ele>494.37</ele>
        <time>2026-04-23T08:38:13.175Z</time>
      </trkpt>
      <trkpt lat="44.21761" lon="3.22772">
        <ele>493.88</ele>
        <time>2026-04-23T08:38:18.888Z</time>
      </trkpt>
      <trkpt lat="44.21763" lon="3.22772">
        <ele>495.31</ele>
        <time>2026-04-23T08:38:24.164Z</time>
      </trkpt>
      <trkpt lat="44.21764" lon="3.22772">
        <ele>497.17</ele>
        <time>2026-04-23T08:38:29.285Z</time>
      </trkpt>
      <trkpt lat="44.21767" lon="3.22772">
        <ele>496.92</ele>
        <time>2026-04-23T08:38:35.153Z</time>
      </trkpt>
      <trkpt lat="44.21768" lon="3.22772">
        <ele>498.59</ele>
        <time>2026-04-23T08:38:40.274Z</time>
      </trkpt>
      <trkpt lat="44.21769" lon="3.22771">
        <ele>498.77</ele>
        <time>2026-04-23T08:38:46.249Z</time>
      </trkpt>
      <trkpt lat="44.21771" lon="3.22769">
        <ele>502</ele>
        <time>2026-04-23T08:38:52.164Z</time>
      </trkpt>
      <trkpt lat="44.21774" lon="3.22769">
        <ele>500.5</ele>
        <time>2026-04-23T08:38:58.198Z</time>
      </trkpt>
      <trkpt lat="44.21777" lon="3.22769">
        <ele>502.01</ele>
        <time>2026-04-23T08:39:03.212Z</time>
      </trkpt>
      <trkpt lat="44.21778" lon="3.22769">
        <ele>504.14</ele>
        <time>2026-04-23T08:39:08.749Z</time>
      </trkpt>
      <trkpt lat="44.21779" lon="3.22769">
        <ele>503.63</ele>
        <time>2026-04-23T08:39:14.201Z</time>
      </trkpt>
      <trkpt lat="44.21784" lon="3.22769">
        <ele>506.56</ele>
        <time>2026-04-23T08:39:19.215Z</time>
      </trkpt>
      <trkpt lat="44.21784" lon="3.22768">
        <ele>507.36</ele>
        <time>2026-04-23T08:39:25.264Z</time>
      </trkpt>
      <trkpt lat="44.21788" lon="3.22765">
        <ele>508.55</ele>
        <time>2026-04-23T08:39:31.271Z</time>
      </trkpt>
      <trkpt lat="44.21792" lon="3.22759">
        <ele>508.58</ele>
        <time>2026-04-23T08:39:36.654Z</time>
      </trkpt>
      <trkpt lat="44.21795" lon="3.22755">
        <ele>509.91</ele>
        <time>2026-04-23T08:39:42.162Z</time>
      </trkpt>
      <trkpt lat="44.21797" lon="3.22756">
        <ele>509.63</ele>
        <time>2026-04-23T08:39:47.283Z</time>
      </trkpt>
      <trkpt lat="44.21799" lon="3.22755">
        <ele>510.25</ele>
        <time>2026-04-23T08:40:07.243Z</time>
      </trkpt>
      <trkpt lat="44.21803" lon="3.22754">
        <ele>510.76</ele>
        <time>2026-04-23T08:40:13.218Z</time>
      </trkpt>
      <trkpt lat="44.21809" lon="3.2275">
        <ele>512.16</ele>
        <time>2026-04-23T08:40:19.193Z</time>
      </trkpt>
      <trkpt lat="44.21809" lon="3.22752">
        <ele>512.66</ele>
        <time>2026-04-23T08:40:25.056Z</time>
      </trkpt>
      <trkpt lat="44.2181" lon="3.22751">
        <ele>514.19</ele>
        <time>2026-04-23T08:40:30.204Z</time>
      </trkpt>
      <trkpt lat="44.21812" lon="3.22751">
        <ele>515.62</ele>
        <time>2026-04-23T08:40:35.718Z</time>
      </trkpt>
      <trkpt lat="44.21813" lon="3.22751">
        <ele>515.69</ele>
        <time>2026-04-23T08:40:41.798Z</time>
      </trkpt>
      <trkpt lat="44.21816" lon="3.22751">
        <ele>515.68</ele>
        <time>2026-04-23T08:40:46.838Z</time>
      </trkpt>
      <trkpt lat="44.21821" lon="3.22753">
        <ele>515.52</ele>
        <time>2026-04-23T08:40:52.268Z</time>
      </trkpt>
      <trkpt lat="44.21823" lon="3.22752">
        <ele>517.81</ele>
        <time>2026-04-23T08:40:57.881Z</time>
      </trkpt>
      <trkpt lat="44.21824" lon="3.22753">
        <ele>518.78</ele>
        <time>2026-04-23T08:41:03.242Z</time>
      </trkpt>
      <trkpt lat="44.21826" lon="3.22756">
        <ele>518.21</ele>
        <time>2026-04-23T08:41:08.258Z</time>
      </trkpt>
      <trkpt lat="44.21828" lon="3.22757">
        <ele>520.7</ele>
        <time>2026-04-23T08:41:14.128Z</time>
      </trkpt>
      <trkpt lat="44.21829" lon="3.22757">
        <ele>521.09</ele>
        <time>2026-04-23T08:41:19.568Z</time>
      </trkpt>
      <trkpt lat="44.2183" lon="3.22756">
        <ele>522.07</ele>
        <time>2026-04-23T08:41:29.747Z</time>
      </trkpt>
      <trkpt lat="44.21831" lon="3.22756">
        <ele>522.99</ele>
        <time>2026-04-23T08:41:35.176Z</time>
      </trkpt>
      <trkpt lat="44.21832" lon="3.22756">
        <ele>523.08</ele>
        <time>2026-04-23T08:41:40.191Z</time>
      </trkpt>
      <trkpt lat="44.21834" lon="3.22753">
        <ele>521.56</ele>
        <time>2026-04-23T08:41:45.724Z</time>
      </trkpt>
      <trkpt lat="44.21838" lon="3.22747">
        <ele>521.99</ele>
        <time>2026-04-23T08:41:50.811Z</time>
      </trkpt>
      <trkpt lat="44.2184" lon="3.22743">
        <ele>523.87</ele>
        <time>2026-04-23T08:41:56.115Z</time>
      </trkpt>
      <trkpt lat="44.21842" lon="3.2274">
        <ele>526.04</ele>
        <time>2026-04-23T08:42:01.169Z</time>
      </trkpt>
      <trkpt lat="44.21845" lon="3.22741">
        <ele>525.83</ele>
        <time>2026-04-23T08:42:06.253Z</time>
      </trkpt>
      <trkpt lat="44.2185" lon="3.22741">
        <ele>529.01</ele>
        <time>2026-04-23T08:42:11.266Z</time>
      </trkpt>
      <trkpt lat="44.21854" lon="3.22739">
        <ele>529.05</ele>
        <time>2026-04-23T08:42:16.968Z</time>
      </trkpt>
      <trkpt lat="44.21855" lon="3.22737">
        <ele>528.48</ele>
        <time>2026-04-23T08:42:22.227Z</time>
      </trkpt>
      <trkpt lat="44.2186" lon="3.22732">
        <ele>530.13</ele>
        <time>2026-04-23T08:42:27.769Z</time>
      </trkpt>
      <trkpt lat="44.21864" lon="3.22727">
        <ele>530.73</ele>
        <time>2026-04-23T08:42:33.316Z</time>
      </trkpt>
      <trkpt lat="44.21866" lon="3.22725">
        <ele>530.17</ele>
        <time>2026-04-23T08:42:39.191Z</time>
      </trkpt>
      <trkpt lat="44.21868" lon="3.22721">
        <ele>529.02</ele>
        <time>2026-04-23T08:42:44.232Z</time>
      </trkpt>
      <trkpt lat="44.21873" lon="3.22717">
        <ele>529.23</ele>
        <time>2026-04-23T08:42:49.670Z</time>
      </trkpt>
      <trkpt lat="44.21878" lon="3.22714">
        <ele>530.93</ele>
        <time>2026-04-23T08:42:55.221Z</time>
      </trkpt>
      <trkpt lat="44.2188" lon="3.2271">
        <ele>530.65</ele>
        <time>2026-04-23T08:43:00.236Z</time>
      </trkpt>
      <trkpt lat="44.21881" lon="3.22706">
        <ele>530.08</ele>
        <time>2026-04-23T08:43:05.770Z</time>
      </trkpt>
      <trkpt lat="44.21882" lon="3.22704">
        <ele>530.69</ele>
        <time>2026-04-23T08:43:11.225Z</time>
      </trkpt>
      <trkpt lat="44.21884" lon="3.22699">
        <ele>532.03</ele>
        <time>2026-04-23T08:43:16.698Z</time>
      </trkpt>
      <trkpt lat="44.21886" lon="3.22695">
        <ele>530.54</ele>
        <time>2026-04-23T08:43:22.214Z</time>
      </trkpt>
      <trkpt lat="44.21887" lon="3.22695">
        <ele>529.79</ele>
        <time>2026-04-23T08:43:29.256Z</time>
      </trkpt>
      <trkpt lat="44.21888" lon="3.22695">
        <ele>530.05</ele>
        <time>2026-04-23T08:43:38.218Z</time>
      </trkpt>
      <trkpt lat="44.21889" lon="3.22694">
        <ele>530.3</ele>
        <time>2026-04-23T08:43:46.220Z</time>
      </trkpt>
      <trkpt lat="44.21889" lon="3.22693">
        <ele>529.5</ele>
        <time>2026-04-23T08:43:56.249Z</time>
      </trkpt>
      <trkpt lat="44.21889" lon="3.22695">
        <ele>529.82</ele>
        <time>2026-04-23T08:44:28.256Z</time>
      </trkpt>
      <trkpt lat="44.21889" lon="3.22697">
        <ele>529.09</ele>
        <time>2026-04-23T08:44:33.870Z</time>
      </trkpt>
      <trkpt lat="44.21893" lon="3.22691">
        <ele>529.5</ele>
        <time>2026-04-23T08:44:39.245Z</time>
      </trkpt>
      <trkpt lat="44.21895" lon="3.22684">
        <ele>531.2</ele>
        <time>2026-04-23T08:44:44.260Z</time>
      </trkpt>
      <trkpt lat="44.21898" lon="3.22678">
        <ele>530.88</ele>
        <time>2026-04-23T08:44:49.624Z</time>
      </trkpt>
      <trkpt lat="44.21903" lon="3.22673">
        <ele>531.07</ele>
        <time>2026-04-23T08:44:54.870Z</time>
      </trkpt>
      <trkpt lat="44.21906" lon="3.22668">
        <ele>530.56</ele>
        <time>2026-04-23T08:44:59.930Z</time>
      </trkpt>
      <trkpt lat="44.21909" lon="3.22663">
        <ele>530.03</ele>
        <time>2026-04-23T08:45:05.324Z</time>
      </trkpt>
      <trkpt lat="44.21913" lon="3.2266">
        <ele>531.19</ele>
        <time>2026-04-23T08:45:10.813Z</time>
      </trkpt>
      <trkpt lat="44.21919" lon="3.22658">
        <ele>531.69</ele>
        <time>2026-04-23T08:45:16.268Z</time>
      </trkpt>
      <trkpt lat="44.21923" lon="3.22652">
        <ele>532.01</ele>
        <time>2026-04-23T08:45:21.285Z</time>
      </trkpt>
      <trkpt lat="44.21927" lon="3.22646">
        <ele>531.83</ele>
        <time>2026-04-23T08:45:27.269Z</time>
      </trkpt>
      <trkpt lat="44.21931" lon="3.22642">
        <ele>530.7</ele>
        <time>2026-04-23T08:45:33.013Z</time>
      </trkpt>
      <trkpt lat="44.21935" lon="3.2264">
        <ele>530.93</ele>
        <time>2026-04-23T08:45:38.072Z</time>
      </trkpt>
      <trkpt lat="44.21938" lon="3.22638">
        <ele>530.59</ele>
        <time>2026-04-23T08:45:43.272Z</time>
      </trkpt>
      <trkpt lat="44.21939" lon="3.22634">
        <ele>531.49</ele>
        <time>2026-04-23T08:45:48.485Z</time>
      </trkpt>
      <trkpt lat="44.2194" lon="3.22632">
        <ele>530.51</ele>
        <time>2026-04-23T08:45:54.174Z</time>
      </trkpt>
      <trkpt lat="44.21941" lon="3.22633">
        <ele>529.26</ele>
        <time>2026-04-23T08:45:59.651Z</time>
      </trkpt>
      <trkpt lat="44.21945" lon="3.22632">
        <ele>531.76</ele>
        <time>2026-04-23T08:46:04.954Z</time>
      </trkpt>
      <trkpt lat="44.2195" lon="3.2263">
        <ele>531.36</ele>
        <time>2026-04-23T08:46:10.262Z</time>
      </trkpt>
      <trkpt lat="44.21955" lon="3.22629">
        <ele>531.38</ele>
        <time>2026-04-23T08:46:15.276Z</time>
      </trkpt>
      <trkpt lat="44.21954" lon="3.2263">
        <ele>533.88</ele>
        <time>2026-04-23T08:46:23.770Z</time>
      </trkpt>
      <trkpt lat="44.21955" lon="3.22629">
        <ele>533.8</ele>
        <time>2026-04-23T08:46:31.174Z</time>
      </trkpt>
      <trkpt lat="44.21961" lon="3.22624">
        <ele>533.86</ele>
        <time>2026-04-23T08:46:36.557Z</time>
      </trkpt>
      <trkpt lat="44.21965" lon="3.22622">
        <ele>532.28</ele>
        <time>2026-04-23T08:46:41.657Z</time>
      </trkpt>
      <trkpt lat="44.2197" lon="3.22623">
        <ele>532.86</ele>
        <time>2026-04-23T08:46:47.284Z</time>
      </trkpt>
      <trkpt lat="44.21975" lon="3.22621">
        <ele>533.98</ele>
        <time>2026-04-23T08:46:53.050Z</time>
      </trkpt>
      <trkpt lat="44.21982" lon="3.2262">
        <ele>533.43</ele>
        <time>2026-04-23T08:46:59.050Z</time>
      </trkpt>
      <trkpt lat="44.21986" lon="3.22621">
        <ele>534</ele>
        <time>2026-04-23T08:47:04.248Z</time>
      </trkpt>
      <trkpt lat="44.21988" lon="3.22622">
        <ele>534.27</ele>
        <time>2026-04-23T08:47:09.262Z</time>
      </trkpt>
      <trkpt lat="44.2199" lon="3.22622">
        <ele>534.31</ele>
        <time>2026-04-23T08:47:14.992Z</time>
      </trkpt>
      <trkpt lat="44.21993" lon="3.22622">
        <ele>535.78</ele>
        <time>2026-04-23T08:47:20.252Z</time>
      </trkpt>
      <trkpt lat="44.21996" lon="3.22623">
        <ele>535.37</ele>
        <time>2026-04-23T08:47:26.227Z</time>
      </trkpt>
      <trkpt lat="44.21997" lon="3.22622">
        <ele>536.06</ele>
        <time>2026-04-23T08:47:31.512Z</time>
      </trkpt>
      <trkpt lat="44.22" lon="3.22621">
        <ele>536.06</ele>
        <time>2026-04-23T08:47:36.872Z</time>
      </trkpt>
      <trkpt lat="44.22004" lon="3.22624">
        <ele>535.6</ele>
        <time>2026-04-23T08:47:42.230Z</time>
      </trkpt>
      <trkpt lat="44.22005" lon="3.22625">
        <ele>534.36</ele>
        <time>2026-04-23T08:47:49.272Z</time>
      </trkpt>
      <trkpt lat="44.22008" lon="3.22628">
        <ele>533.16</ele>
        <time>2026-04-23T08:47:55.247Z</time>
      </trkpt>
      <trkpt lat="44.22009" lon="3.22629">
        <ele>533</ele>
        <time>2026-04-23T08:48:00.869Z</time>
      </trkpt>
      <trkpt lat="44.22011" lon="3.22631">
        <ele>533.32</ele>
        <time>2026-04-23T08:48:06.098Z</time>
      </trkpt>
      <trkpt lat="44.22014" lon="3.22633">
        <ele>533.17</ele>
        <time>2026-04-23T08:48:11.654Z</time>
      </trkpt>
      <trkpt lat="44.22013" lon="3.22632">
        <ele>531.54</ele>
        <time>2026-04-23T08:48:21.335Z</time>
      </trkpt>
      <trkpt lat="44.22016" lon="3.22634">
        <ele>530.39</ele>
        <time>2026-04-23T08:48:26.492Z</time>
      </trkpt>
      <trkpt lat="44.22021" lon="3.22641">
        <ele>531.06</ele>
        <time>2026-04-23T08:48:32.090Z</time>
      </trkpt>
      <trkpt lat="44.22028" lon="3.22647">
        <ele>531.15</ele>
        <time>2026-04-23T08:48:37.545Z</time>
      </trkpt>
      <trkpt lat="44.22033" lon="3.2265">
        <ele>529.49</ele>
        <time>2026-04-23T08:48:43.151Z</time>
      </trkpt>
      <trkpt lat="44.22036" lon="3.22651">
        <ele>527.99</ele>
        <time>2026-04-23T08:48:48.524Z</time>
      </trkpt>
      <trkpt lat="44.2204" lon="3.22652">
        <ele>527.02</ele>
        <time>2026-04-23T08:48:54.246Z</time>
      </trkpt>
      <trkpt lat="44.22046" lon="3.22654">
        <ele>526.43</ele>
        <time>2026-04-23T08:48:59.608Z</time>
      </trkpt>
      <trkpt lat="44.22052" lon="3.22655">
        <ele>526.95</ele>
        <time>2026-04-23T08:49:05.169Z</time>
      </trkpt>
      <trkpt lat="44.22059" lon="3.22655">
        <ele>525.73</ele>
        <time>2026-04-23T08:49:11.211Z</time>
      </trkpt>
      <trkpt lat="44.22062" lon="3.22656">
        <ele>524.36</ele>
        <time>2026-04-23T08:49:16.788Z</time>
      </trkpt>
      <trkpt lat="44.22067" lon="3.22657">
        <ele>524.4</ele>
        <time>2026-04-23T08:49:21.885Z</time>
      </trkpt>
      <trkpt lat="44.22072" lon="3.22658">
        <ele>524.9</ele>
        <time>2026-04-23T08:49:26.907Z</time>
      </trkpt>
      <trkpt lat="44.22077" lon="3.22662">
        <ele>524.39</ele>
        <time>2026-04-23T08:49:31.933Z</time>
      </trkpt>
      <trkpt lat="44.22081" lon="3.22667">
        <ele>524.8</ele>
        <time>2026-04-23T08:49:37.089Z</time>
      </trkpt>
      <trkpt lat="44.22088" lon="3.22672">
        <ele>524.8</ele>
        <time>2026-04-23T08:49:42.510Z</time>
      </trkpt>
      <trkpt lat="44.22094" lon="3.22677">
        <ele>525.07</ele>
        <time>2026-04-23T08:49:47.570Z</time>
      </trkpt>
      <trkpt lat="44.22099" lon="3.22681">
        <ele>524.62</ele>
        <time>2026-04-23T08:49:52.789Z</time>
      </trkpt>
      <trkpt lat="44.22106" lon="3.22683">
        <ele>523.16</ele>
        <time>2026-04-23T08:49:58.283Z</time>
      </trkpt>
      <trkpt lat="44.22114" lon="3.22687">
        <ele>523.62</ele>
        <time>2026-04-23T08:50:04.236Z</time>
      </trkpt>
      <trkpt lat="44.2212" lon="3.22687">
        <ele>522.84</ele>
        <time>2026-04-23T08:50:10.210Z</time>
      </trkpt>
      <trkpt lat="44.22124" lon="3.22686">
        <ele>521.62</ele>
        <time>2026-04-23T08:50:16.083Z</time>
      </trkpt>
      <trkpt lat="44.2213" lon="3.22691">
        <ele>520.84</ele>
        <time>2026-04-23T08:50:21.639Z</time>
      </trkpt>
      <trkpt lat="44.22135" lon="3.22698">
        <ele>520.58</ele>
        <time>2026-04-23T08:50:26.700Z</time>
      </trkpt>
      <trkpt lat="44.22141" lon="3.22704">
        <ele>520.89</ele>
        <time>2026-04-23T08:50:32.139Z</time>
      </trkpt>
      <trkpt lat="44.22146" lon="3.22711">
        <ele>519.98</ele>
        <time>2026-04-23T08:50:37.918Z</time>
      </trkpt>
      <trkpt lat="44.22147" lon="3.22714">
        <ele>518.74</ele>
        <time>2026-04-23T08:50:43.163Z</time>
      </trkpt>
      <trkpt lat="44.22148" lon="3.22718">
        <ele>517.83</ele>
        <time>2026-04-23T08:50:48.201Z</time>
      </trkpt>
      <trkpt lat="44.22146" lon="3.22727">
        <ele>518.26</ele>
        <time>2026-04-23T08:50:53.789Z</time>
      </trkpt>
      <trkpt lat="44.22148" lon="3.22734">
        <ele>521.01</ele>
        <time>2026-04-23T08:50:59.250Z</time>
      </trkpt>
      <trkpt lat="44.22151" lon="3.22737">
        <ele>522.25</ele>
        <time>2026-04-23T08:51:05.165Z</time>
      </trkpt>
      <trkpt lat="44.22151" lon="3.22741">
        <ele>522.77</ele>
        <time>2026-04-23T08:51:10.243Z</time>
      </trkpt>
      <trkpt lat="44.22151" lon="3.22747">
        <ele>522.99</ele>
        <time>2026-04-23T08:51:16.260Z</time>
      </trkpt>
      <trkpt lat="44.22152" lon="3.22755">
        <ele>522.31</ele>
        <time>2026-04-23T08:51:21.945Z</time>
      </trkpt>
      <trkpt lat="44.22153" lon="3.2276">
        <ele>523.02</ele>
        <time>2026-04-23T08:51:27.068Z</time>
      </trkpt>
      <trkpt lat="44.22153" lon="3.22761">
        <ele>523.6</ele>
        <time>2026-04-23T08:51:32.222Z</time>
      </trkpt>
      <trkpt lat="44.22155" lon="3.22767">
        <ele>523.21</ele>
        <time>2026-04-23T08:51:37.278Z</time>
      </trkpt>
      <trkpt lat="44.22156" lon="3.22774">
        <ele>523.59</ele>
        <time>2026-04-23T08:51:42.687Z</time>
      </trkpt>
      <trkpt lat="44.22158" lon="3.22779">
        <ele>522.71</ele>
        <time>2026-04-23T08:51:48.276Z</time>
      </trkpt>
      <trkpt lat="44.22158" lon="3.22782">
        <ele>523.34</ele>
        <time>2026-04-23T08:51:54.183Z</time>
      </trkpt>
      <trkpt lat="44.22159" lon="3.22785">
        <ele>523.78</ele>
        <time>2026-04-23T08:52:00.166Z</time>
      </trkpt>
      <trkpt lat="44.22161" lon="3.2279">
        <ele>523.22</ele>
        <time>2026-04-23T08:52:05.803Z</time>
      </trkpt>
      <trkpt lat="44.22163" lon="3.22793">
        <ele>523.31</ele>
        <time>2026-04-23T08:52:11.244Z</time>
      </trkpt>
      <trkpt lat="44.22163" lon="3.22795">
        <ele>522.91</ele>
        <time>2026-04-23T08:52:17.086Z</time>
      </trkpt>
      <trkpt lat="44.22164" lon="3.22798">
        <ele>524.03</ele>
        <time>2026-04-23T08:52:23.270Z</time>
      </trkpt>
      <trkpt lat="44.22165" lon="3.22799">
        <ele>523.75</ele>
        <time>2026-04-23T08:52:28.787Z</time>
      </trkpt>
      <trkpt lat="44.22166" lon="3.22801">
        <ele>522.91</ele>
        <time>2026-04-23T08:52:34.146Z</time>
      </trkpt>
      <trkpt lat="44.22167" lon="3.22803">
        <ele>523.18</ele>
        <time>2026-04-23T08:52:39.624Z</time>
      </trkpt>
      <trkpt lat="44.22169" lon="3.22808">
        <ele>523.3</ele>
        <time>2026-04-23T08:52:45.110Z</time>
      </trkpt>
      <trkpt lat="44.2217" lon="3.22813">
        <ele>523.08</ele>
        <time>2026-04-23T08:52:50.929Z</time>
      </trkpt>
      <trkpt lat="44.2217" lon="3.22816">
        <ele>523.9</ele>
        <time>2026-04-23T08:52:56.106Z</time>
      </trkpt>
      <trkpt lat="44.2217" lon="3.22817">
        <ele>525.49</ele>
        <time>2026-04-23T08:53:01.251Z</time>
      </trkpt>
      <trkpt lat="44.22171" lon="3.22818">
        <ele>525.45</ele>
        <time>2026-04-23T08:53:08.186Z</time>
      </trkpt>
      <trkpt lat="44.22172" lon="3.22822">
        <ele>525.55</ele>
        <time>2026-04-23T08:53:13.200Z</time>
      </trkpt>
      <trkpt lat="44.22174" lon="3.22827">
        <ele>525.11</ele>
        <time>2026-04-23T08:53:18.215Z</time>
      </trkpt>
      <trkpt lat="44.22175" lon="3.22834">
        <ele>524.72</ele>
        <time>2026-04-23T08:53:23.229Z</time>
      </trkpt>
      <trkpt lat="44.22176" lon="3.22841">
        <ele>525.13</ele>
        <time>2026-04-23T08:53:28.243Z</time>
      </trkpt>
      <trkpt lat="44.22177" lon="3.22846">
        <ele>526.12</ele>
        <time>2026-04-23T08:53:33.257Z</time>
      </trkpt>
      <trkpt lat="44.22177" lon="3.22847">
        <ele>526.21</ele>
        <time>2026-04-23T08:53:38.272Z</time>
      </trkpt>
      <trkpt lat="44.22177" lon="3.22849">
        <ele>526.66</ele>
        <time>2026-04-23T08:53:43.726Z</time>
      </trkpt>
      <trkpt lat="44.22178" lon="3.22857">
        <ele>526.24</ele>
        <time>2026-04-23T08:53:49.261Z</time>
      </trkpt>
      <trkpt lat="44.22178" lon="3.22865">
        <ele>526.96</ele>
        <time>2026-04-23T08:53:54.275Z</time>
      </trkpt>
      <trkpt lat="44.2218" lon="3.22868">
        <ele>526.79</ele>
        <time>2026-04-23T08:54:00.250Z</time>
      </trkpt>
      <trkpt lat="44.22181" lon="3.2287">
        <ele>526.92</ele>
        <time>2026-04-23T08:54:05.945Z</time>
      </trkpt>
      <trkpt lat="44.22183" lon="3.22874">
        <ele>527.93</ele>
        <time>2026-04-23T08:54:12.122Z</time>
      </trkpt>
      <trkpt lat="44.22185" lon="3.2288">
        <ele>528.41</ele>
        <time>2026-04-23T08:54:17.848Z</time>
      </trkpt>
      <trkpt lat="44.22185" lon="3.22883">
        <ele>528.11</ele>
        <time>2026-04-23T08:54:23.295Z</time>
      </trkpt>
      <trkpt lat="44.22185" lon="3.22885">
        <ele>527.96</ele>
        <time>2026-04-23T08:54:29.050Z</time>
      </trkpt>
      <trkpt lat="44.22185" lon="3.22888">
        <ele>527.72</ele>
        <time>2026-04-23T08:54:34.164Z</time>
      </trkpt>
      <trkpt lat="44.22187" lon="3.22896">
        <ele>530.07</ele>
        <time>2026-04-23T08:54:39.191Z</time>
      </trkpt>
      <trkpt lat="44.22188" lon="3.22898">
        <ele>529.39</ele>
        <time>2026-04-23T08:54:45.046Z</time>
      </trkpt>
      <trkpt lat="44.22189" lon="3.229">
        <ele>529.19</ele>
        <time>2026-04-23T08:54:50.180Z</time>
      </trkpt>
      <trkpt lat="44.2219" lon="3.22902">
        <ele>531.35</ele>
        <time>2026-04-23T08:54:58.289Z</time>
      </trkpt>
      <trkpt lat="44.2219" lon="3.22905">
        <ele>531.55</ele>
        <time>2026-04-23T08:55:03.788Z</time>
      </trkpt>
      <trkpt lat="44.22192" lon="3.2291">
        <ele>532.9</ele>
        <time>2026-04-23T08:55:09.277Z</time>
      </trkpt>
      <trkpt lat="44.22192" lon="3.22914">
        <ele>533.09</ele>
        <time>2026-04-23T08:55:15.252Z</time>
      </trkpt>
      <trkpt lat="44.22192" lon="3.22916">
        <ele>533.6</ele>
        <time>2026-04-23T08:55:20.266Z</time>
      </trkpt>
      <trkpt lat="44.22193" lon="3.2292">
        <ele>534.68</ele>
        <time>2026-04-23T08:55:26.241Z</time>
      </trkpt>
      <trkpt lat="44.22192" lon="3.22921">
        <ele>534.95</ele>
        <time>2026-04-23T08:55:32.726Z</time>
      </trkpt>
      <trkpt lat="44.22191" lon="3.22926">
        <ele>536.71</ele>
        <time>2026-04-23T08:55:38.248Z</time>
      </trkpt>
      <trkpt lat="44.22191" lon="3.2293">
        <ele>536.17</ele>
        <time>2026-04-23T08:55:44.271Z</time>
      </trkpt>
      <trkpt lat="44.2219" lon="3.22932">
        <ele>536.15</ele>
        <time>2026-04-23T08:55:52.273Z</time>
      </trkpt>
      <trkpt lat="44.2219" lon="3.22934">
        <ele>537.08</ele>
        <time>2026-04-23T08:55:57.287Z</time>
      </trkpt>
      <trkpt lat="44.2219" lon="3.22937">
        <ele>537.86</ele>
        <time>2026-04-23T08:56:02.302Z</time>
      </trkpt>
      <trkpt lat="44.2219" lon="3.2294">
        <ele>538.99</ele>
        <time>2026-04-23T08:56:08.276Z</time>
      </trkpt>
      <trkpt lat="44.22189" lon="3.22944">
        <ele>540.4</ele>
        <time>2026-04-23T08:56:14.085Z</time>
      </trkpt>
      <trkpt lat="44.22188" lon="3.22947">
        <ele>540.62</ele>
        <time>2026-04-23T08:56:19.732Z</time>
      </trkpt>
      <trkpt lat="44.22187" lon="3.2295">
        <ele>540.9</ele>
        <time>2026-04-23T08:56:25.239Z</time>
      </trkpt>
      <trkpt lat="44.22186" lon="3.22953">
        <ele>542.82</ele>
        <time>2026-04-23T08:56:30.253Z</time>
      </trkpt>
      <trkpt lat="44.22186" lon="3.22956">
        <ele>543.17</ele>
        <time>2026-04-23T08:56:35.268Z</time>
      </trkpt>
      <trkpt lat="44.22186" lon="3.2296">
        <ele>543.49</ele>
        <time>2026-04-23T08:56:41.056Z</time>
      </trkpt>
      <trkpt lat="44.22185" lon="3.22962">
        <ele>544.34</ele>
        <time>2026-04-23T08:56:46.286Z</time>
      </trkpt>
      <trkpt lat="44.22186" lon="3.22964">
        <ele>544.91</ele>
        <time>2026-04-23T08:56:52.232Z</time>
      </trkpt>
      <trkpt lat="44.22187" lon="3.22967">
        <ele>545.6</ele>
        <time>2026-04-23T08:56:57.702Z</time>
      </trkpt>
      <trkpt lat="44.22187" lon="3.22971">
        <ele>545.95</ele>
        <time>2026-04-23T08:57:02.770Z</time>
      </trkpt>
      <trkpt lat="44.22187" lon="3.22976">
        <ele>546.78</ele>
        <time>2026-04-23T08:57:08.235Z</time>
      </trkpt>
      <trkpt lat="44.22186" lon="3.2298">
        <ele>546.6</ele>
        <time>2026-04-23T08:57:13.258Z</time>
      </trkpt>
      <trkpt lat="44.22184" lon="3.22985">
        <ele>547.93</ele>
        <time>2026-04-23T08:57:18.266Z</time>
      </trkpt>
      <trkpt lat="44.22183" lon="3.22989">
        <ele>548.4</ele>
        <time>2026-04-23T08:57:23.296Z</time>
      </trkpt>
      <trkpt lat="44.22182" lon="3.22993">
        <ele>549.16</ele>
        <time>2026-04-23T08:57:28.310Z</time>
      </trkpt>
      <trkpt lat="44.22181" lon="3.22995">
        <ele>550.3</ele>
        <time>2026-04-23T08:57:34.178Z</time>
      </trkpt>
      <trkpt lat="44.2218" lon="3.22996">
        <ele>551.18</ele>
        <time>2026-04-23T08:57:40.259Z</time>
      </trkpt>
      <trkpt lat="44.22179" lon="3.22996">
        <ele>552.15</ele>
        <time>2026-04-23T08:57:47.194Z</time>
      </trkpt>
      <trkpt lat="44.22177" lon="3.22995">
        <ele>552.95</ele>
        <time>2026-04-23T08:57:52.208Z</time>
      </trkpt>
      <trkpt lat="44.22175" lon="3.22993">
        <ele>553.86</ele>
        <time>2026-04-23T08:57:58.182Z</time>
      </trkpt>
      <trkpt lat="44.22172" lon="3.22993">
        <ele>553.71</ele>
        <time>2026-04-23T08:58:03.707Z</time>
      </trkpt>
      <trkpt lat="44.2217" lon="3.22991">
        <ele>553.66</ele>
        <time>2026-04-23T08:58:09.277Z</time>
      </trkpt>
      <trkpt lat="44.22171" lon="3.2299">
        <ele>555.78</ele>
        <time>2026-04-23T08:58:18.055Z</time>
      </trkpt>
      <trkpt lat="44.2217" lon="3.22989">
        <ele>556.77</ele>
        <time>2026-04-23T08:58:24.214Z</time>
      </trkpt>
      <trkpt lat="44.22167" lon="3.22987">
        <ele>556.41</ele>
        <time>2026-04-23T08:58:29.227Z</time>
      </trkpt>
      <trkpt lat="44.22165" lon="3.22986">
        <ele>556.88</ele>
        <time>2026-04-23T08:58:34.243Z</time>
      </trkpt>
      <trkpt lat="44.22164" lon="3.22985">
        <ele>557.63</ele>
        <time>2026-04-23T08:58:39.256Z</time>
      </trkpt>
      <trkpt lat="44.22163" lon="3.22985">
        <ele>558.48</ele>
        <time>2026-04-23T08:58:46.298Z</time>
      </trkpt>
      <trkpt lat="44.22161" lon="3.22985">
        <ele>559.64</ele>
        <time>2026-04-23T08:58:51.313Z</time>
      </trkpt>
      <trkpt lat="44.22159" lon="3.22986">
        <ele>560.95</ele>
        <time>2026-04-23T08:58:57.287Z</time>
      </trkpt>
      <trkpt lat="44.22156" lon="3.22989">
        <ele>561.25</ele>
        <time>2026-04-23T08:59:02.302Z</time>
      </trkpt>
      <trkpt lat="44.22152" lon="3.2299">
        <ele>560.75</ele>
        <time>2026-04-23T08:59:08.276Z</time>
      </trkpt>
      <trkpt lat="44.22149" lon="3.22991">
        <ele>562.45</ele>
        <time>2026-04-23T08:59:14.251Z</time>
      </trkpt>
      <trkpt lat="44.22147" lon="3.22992">
        <ele>562.85</ele>
        <time>2026-04-23T08:59:19.313Z</time>
      </trkpt>
      <trkpt lat="44.22144" lon="3.22997">
        <ele>562.87</ele>
        <time>2026-04-23T08:59:24.781Z</time>
      </trkpt>
      <trkpt lat="44.22143" lon="3.23">
        <ele>563.48</ele>
        <time>2026-04-23T08:59:30.256Z</time>
      </trkpt>
      <trkpt lat="44.22143" lon="3.23002">
        <ele>563</ele>
        <time>2026-04-23T08:59:35.375Z</time>
      </trkpt>
      <trkpt lat="44.22142" lon="3.23003">
        <ele>565.13</ele>
        <time>2026-04-23T08:59:40.956Z</time>
      </trkpt>
      <trkpt lat="44.22143" lon="3.23007">
        <ele>566.89</ele>
        <time>2026-04-23T08:59:46.200Z</time>
      </trkpt>
      <trkpt lat="44.22143" lon="3.2301">
        <ele>567.23</ele>
        <time>2026-04-23T08:59:51.271Z</time>
      </trkpt>
      <trkpt lat="44.22143" lon="3.23013">
        <ele>567.38</ele>
        <time>2026-04-23T08:59:56.285Z</time>
      </trkpt>
      <trkpt lat="44.2215" lon="3.23021">
        <ele>567.62</ele>
        <time>2026-04-23T09:00:02.260Z</time>
      </trkpt>
      <trkpt lat="44.22153" lon="3.23024">
        <ele>568.01</ele>
        <time>2026-04-23T09:00:07.274Z</time>
      </trkpt>
      <trkpt lat="44.22156" lon="3.23027">
        <ele>570.11</ele>
        <time>2026-04-23T09:00:12.289Z</time>
      </trkpt>
      <trkpt lat="44.22157" lon="3.23028">
        <ele>570.38</ele>
        <time>2026-04-23T09:00:17.795Z</time>
      </trkpt>
      <trkpt lat="44.22158" lon="3.23029">
        <ele>570.76</ele>
        <time>2026-04-23T09:00:23.277Z</time>
      </trkpt>
      <trkpt lat="44.22158" lon="3.2303">
        <ele>571.15</ele>
        <time>2026-04-23T09:00:28.292Z</time>
      </trkpt>
      <trkpt lat="44.22158" lon="3.23036">
        <ele>572.17</ele>
        <time>2026-04-23T09:00:34.266Z</time>
      </trkpt>
      <trkpt lat="44.22157" lon="3.23041">
        <ele>573.4</ele>
        <time>2026-04-23T09:00:39.281Z</time>
      </trkpt>
      <trkpt lat="44.22157" lon="3.23044">
        <ele>575.16</ele>
        <time>2026-04-23T09:00:44.295Z</time>
      </trkpt>
      <trkpt lat="44.22158" lon="3.23047">
        <ele>575.66</ele>
        <time>2026-04-23T09:00:49.309Z</time>
      </trkpt>
      <trkpt lat="44.22158" lon="3.23051">
        <ele>575.78</ele>
        <time>2026-04-23T09:00:54.860Z</time>
      </trkpt>
      <trkpt lat="44.22157" lon="3.23054">
        <ele>577.02</ele>
        <time>2026-04-23T09:01:00.298Z</time>
      </trkpt>
      <trkpt lat="44.22156" lon="3.23057">
        <ele>577.17</ele>
        <time>2026-04-23T09:01:05.312Z</time>
      </trkpt>
      <trkpt lat="44.22155" lon="3.23059">
        <ele>578.6</ele>
        <time>2026-04-23T09:01:11.287Z</time>
      </trkpt>
      <trkpt lat="44.22155" lon="3.2306">
        <ele>578.44</ele>
        <time>2026-04-23T09:01:16.301Z</time>
      </trkpt>
      <trkpt lat="44.22154" lon="3.2306">
        <ele>578.36</ele>
        <time>2026-04-23T09:01:22.284Z</time>
      </trkpt>
      <trkpt lat="44.22152" lon="3.23062">
        <ele>578.75</ele>
        <time>2026-04-23T09:01:27.299Z</time>
      </trkpt>
      <trkpt lat="44.22151" lon="3.23062">
        <ele>578.87</ele>
        <time>2026-04-23T09:01:33.273Z</time>
      </trkpt>
      <trkpt lat="44.2215" lon="3.23062">
        <ele>578.67</ele>
        <time>2026-04-23T09:01:38.288Z</time>
      </trkpt>
      <trkpt lat="44.22151" lon="3.23061">
        <ele>582.63</ele>
        <time>2026-04-23T09:01:44.262Z</time>
      </trkpt>
      <trkpt lat="44.22152" lon="3.23062">
        <ele>582.52</ele>
        <time>2026-04-23T09:01:49.769Z</time>
      </trkpt>
      <trkpt lat="44.22151" lon="3.23062">
        <ele>583.28</ele>
        <time>2026-04-23T09:01:57.930Z</time>
      </trkpt>
      <trkpt lat="44.2215" lon="3.23061">
        <ele>584.12</ele>
        <time>2026-04-23T09:02:03.252Z</time>
      </trkpt>
      <trkpt lat="44.22151" lon="3.23062">
        <ele>585.63</ele>
        <time>2026-04-23T09:02:12.929Z</time>
      </trkpt>
      <trkpt lat="44.2215" lon="3.23063">
        <ele>585.24</ele>
        <time>2026-04-23T09:02:18.912Z</time>
      </trkpt>
      <trkpt lat="44.22149" lon="3.23062">
        <ele>586.28</ele>
        <time>2026-04-23T09:02:26.190Z</time>
      </trkpt>
      <trkpt lat="44.22147" lon="3.23058">
        <ele>587.46</ele>
        <time>2026-04-23T09:02:31.229Z</time>
      </trkpt>
      <trkpt lat="44.22147" lon="3.23056">
        <ele>589.63</ele>
        <time>2026-04-23T09:02:37.286Z</time>
      </trkpt>
      <trkpt lat="44.22146" lon="3.23055">
        <ele>590.65</ele>
        <time>2026-04-23T09:02:43.307Z</time>
      </trkpt>
      <trkpt lat="44.22144" lon="3.23055">
        <ele>590.23</ele>
        <time>2026-04-23T09:02:49.234Z</time>
      </trkpt>
      <trkpt lat="44.22144" lon="3.23056">
        <ele>591.99</ele>
        <time>2026-04-23T09:03:10.048Z</time>
      </trkpt>
      <trkpt lat="44.22145" lon="3.23056">
        <ele>592.75</ele>
        <time>2026-04-23T09:03:15.093Z</time>
      </trkpt>
      <trkpt lat="44.22146" lon="3.23056">
        <ele>591.93</ele>
        <time>2026-04-23T09:03:20.280Z</time>
      </trkpt>
      <trkpt lat="44.22147" lon="3.23056">
        <ele>591.6</ele>
        <time>2026-04-23T09:03:25.295Z</time>
      </trkpt>
      <trkpt lat="44.22147" lon="3.23055">
        <ele>592.32</ele>
        <time>2026-04-23T09:03:30.309Z</time>
      </trkpt>
      <trkpt lat="44.22147" lon="3.23052">
        <ele>593.4</ele>
        <time>2026-04-23T09:03:36.284Z</time>
      </trkpt>
      <trkpt lat="44.22144" lon="3.23047">
        <ele>593.51</ele>
        <time>2026-04-23T09:03:41.297Z</time>
      </trkpt>
      <trkpt lat="44.22141" lon="3.23042">
        <ele>592.7</ele>
        <time>2026-04-23T09:03:47.272Z</time>
      </trkpt>
      <trkpt lat="44.22138" lon="3.23036">
        <ele>592.27</ele>
        <time>2026-04-23T09:03:52.287Z</time>
      </trkpt>
      <trkpt lat="44.22135" lon="3.2303">
        <ele>592.27</ele>
        <time>2026-04-23T09:03:58.261Z</time>
      </trkpt>
      <trkpt lat="44.22132" lon="3.23029">
        <ele>593.26</ele>
        <time>2026-04-23T09:04:03.275Z</time>
      </trkpt>
      <trkpt lat="44.22131" lon="3.2303">
        <ele>593.83</ele>
        <time>2026-04-23T09:04:08.289Z</time>
      </trkpt>
      <trkpt lat="44.22131" lon="3.23031">
        <ele>593.29</ele>
        <time>2026-04-23T09:04:15.224Z</time>
      </trkpt>
      <trkpt lat="44.22131" lon="3.23032">
        <ele>592.39</ele>
        <time>2026-04-23T09:04:21.306Z</time>
      </trkpt>
      <trkpt lat="44.22131" lon="3.23031">
        <ele>592.57</ele>
        <time>2026-04-23T09:04:27.006Z</time>
      </trkpt>
      <trkpt lat="44.22131" lon="3.2303">
        <ele>594.17</ele>
        <time>2026-04-23T09:04:39.229Z</time>
      </trkpt>
      <trkpt lat="44.2213" lon="3.2303">
        <ele>594.55</ele>
        <time>2026-04-23T09:05:02.272Z</time>
      </trkpt>
      <trkpt lat="44.22129" lon="3.23033">
        <ele>594.12</ele>
        <time>2026-04-23T09:05:08.248Z</time>
      </trkpt>
      <trkpt lat="44.22127" lon="3.23037">
        <ele>593.69</ele>
        <time>2026-04-23T09:05:13.262Z</time>
      </trkpt>
      <trkpt lat="44.22128" lon="3.23041">
        <ele>593.02</ele>
        <time>2026-04-23T09:05:18.277Z</time>
      </trkpt>
      <trkpt lat="44.22132" lon="3.23039">
        <ele>592.77</ele>
        <time>2026-04-23T09:05:23.291Z</time>
      </trkpt>
      <trkpt lat="44.22134" lon="3.23037">
        <ele>594.51</ele>
        <time>2026-04-23T09:05:29.265Z</time>
      </trkpt>
      <trkpt lat="44.22134" lon="3.23036">
        <ele>594.64</ele>
        <time>2026-04-23T09:05:34.280Z</time>
      </trkpt>
      <trkpt lat="44.22133" lon="3.23035">
        <ele>593.86</ele>
        <time>2026-04-23T09:05:39.293Z</time>
      </trkpt>
      <trkpt lat="44.22132" lon="3.23034">
        <ele>593.32</ele>
        <time>2026-04-23T09:05:44.346Z</time>
      </trkpt>
      <trkpt lat="44.22129" lon="3.23029">
        <ele>593.43</ele>
        <time>2026-04-23T09:05:50.009Z</time>
      </trkpt>
      <trkpt lat="44.22124" lon="3.2302">
        <ele>595.27</ele>
        <time>2026-04-23T09:05:55.297Z</time>
      </trkpt>
      <trkpt lat="44.22123" lon="3.23015">
        <ele>597.39</ele>
        <time>2026-04-23T09:06:01.272Z</time>
      </trkpt>
      <trkpt lat="44.22123" lon="3.23013">
        <ele>597.77</ele>
        <time>2026-04-23T09:06:06.286Z</time>
      </trkpt>
      <trkpt lat="44.22123" lon="3.23011">
        <ele>598.52</ele>
        <time>2026-04-23T09:06:12.260Z</time>
      </trkpt>
      <trkpt lat="44.22123" lon="3.23009">
        <ele>600.35</ele>
        <time>2026-04-23T09:06:17.275Z</time>
      </trkpt>
      <trkpt lat="44.22122" lon="3.23006">
        <ele>601.45</ele>
        <time>2026-04-23T09:06:22.289Z</time>
      </trkpt>
      <trkpt lat="44.22122" lon="3.23003">
        <ele>602.68</ele>
        <time>2026-04-23T09:06:27.672Z</time>
      </trkpt>
      <trkpt lat="44.22122" lon="3.22999">
        <ele>603.24</ele>
        <time>2026-04-23T09:06:33.278Z</time>
      </trkpt>
      <trkpt lat="44.22121" lon="3.22999">
        <ele>602.17</ele>
        <time>2026-04-23T09:06:47.610Z</time>
      </trkpt>
      <trkpt lat="44.22119" lon="3.22999">
        <ele>603.05</ele>
        <time>2026-04-23T09:06:53.237Z</time>
      </trkpt>
      <trkpt lat="44.22118" lon="3.22999">
        <ele>604.2</ele>
        <time>2026-04-23T09:06:58.252Z</time>
      </trkpt>
      <trkpt lat="44.22117" lon="3.22999">
        <ele>604.58</ele>
        <time>2026-04-23T09:07:04.227Z</time>
      </trkpt>
      <trkpt lat="44.22111" lon="3.23005">
        <ele>604.59</ele>
        <time>2026-04-23T09:07:10.213Z</time>
      </trkpt>
      <trkpt lat="44.22106" lon="3.23009">
        <ele>604.47</ele>
        <time>2026-04-23T09:07:15.673Z</time>
      </trkpt>
      <trkpt lat="44.22104" lon="3.23012">
        <ele>606.03</ele>
        <time>2026-04-23T09:07:21.190Z</time>
      </trkpt>
      <trkpt lat="44.22101" lon="3.23013">
        <ele>607.68</ele>
        <time>2026-04-23T09:07:26.205Z</time>
      </trkpt>
      <trkpt lat="44.22098" lon="3.23016">
        <ele>608.1</ele>
        <time>2026-04-23T09:07:31.219Z</time>
      </trkpt>
      <trkpt lat="44.22095" lon="3.2302">
        <ele>607.84</ele>
        <time>2026-04-23T09:07:37.301Z</time>
      </trkpt>
      <trkpt lat="44.22094" lon="3.23021">
        <ele>609.96</ele>
        <time>2026-04-23T09:07:43.955Z</time>
      </trkpt>
      <trkpt lat="44.22093" lon="3.23023">
        <ele>610.51</ele>
        <time>2026-04-23T09:07:50.317Z</time>
      </trkpt>
      <trkpt lat="44.22091" lon="3.23025">
        <ele>611.76</ele>
        <time>2026-04-23T09:07:55.317Z</time>
      </trkpt>
      <trkpt lat="44.22089" lon="3.23027">
        <ele>613.86</ele>
        <time>2026-04-23T09:08:00.346Z</time>
      </trkpt>
      <trkpt lat="44.22093" lon="3.23032">
        <ele>612.64</ele>
        <time>2026-04-23T09:08:05.360Z</time>
      </trkpt>
      <trkpt lat="44.22099" lon="3.23037">
        <ele>611.39</ele>
        <time>2026-04-23T09:08:11.143Z</time>
      </trkpt>
      <trkpt lat="44.22102" lon="3.23038">
        <ele>614.32</ele>
        <time>2026-04-23T09:08:16.143Z</time>
      </trkpt>
      <trkpt lat="44.22107" lon="3.23041">
        <ele>615.52</ele>
        <time>2026-04-23T09:08:21.143Z</time>
      </trkpt>
      <trkpt lat="44.22107" lon="3.23045">
        <ele>616.39</ele>
        <time>2026-04-23T09:08:26.143Z</time>
      </trkpt>
      <trkpt lat="44.22106" lon="3.23048">
        <ele>616.33</ele>
        <time>2026-04-23T09:08:31.143Z</time>
      </trkpt>
      <trkpt lat="44.22106" lon="3.23049">
        <ele>616.81</ele>
        <time>2026-04-23T09:08:37.143Z</time>
      </trkpt>
      <trkpt lat="44.22105" lon="3.23049">
        <ele>615.99</ele>
        <time>2026-04-23T09:08:42.143Z</time>
      </trkpt>
      <trkpt lat="44.22104" lon="3.23052">
        <ele>614.6</ele>
        <time>2026-04-23T09:08:47.144Z</time>
      </trkpt>
      <trkpt lat="44.22103" lon="3.23052">
        <ele>616.69</ele>
        <time>2026-04-23T09:08:52.144Z</time>
      </trkpt>
      <trkpt lat="44.22102" lon="3.23052">
        <ele>617.17</ele>
        <time>2026-04-23T09:08:57.144Z</time>
      </trkpt>
      <trkpt lat="44.22103" lon="3.23054">
        <ele>616.04</ele>
        <time>2026-04-23T09:09:02.144Z</time>
      </trkpt>
      <trkpt lat="44.22099" lon="3.23064">
        <ele>617.43</ele>
        <time>2026-04-23T09:09:07.144Z</time>
      </trkpt>
      <trkpt lat="44.22098" lon="3.23065">
        <ele>618.83</ele>
        <time>2026-04-23T09:09:12.144Z</time>
      </trkpt>
      <trkpt lat="44.22103" lon="3.23063">
        <ele>619.44</ele>
        <time>2026-04-23T09:09:17.268Z</time>
      </trkpt>
      <trkpt lat="44.22103" lon="3.23064">
        <ele>620.24</ele>
        <time>2026-04-23T09:09:23.297Z</time>
      </trkpt>
      <trkpt lat="44.22102" lon="3.23065">
        <ele>620.16</ele>
        <time>2026-04-23T09:09:29.193Z</time>
      </trkpt>
      <trkpt lat="44.22101" lon="3.23066">
        <ele>623.22</ele>
        <time>2026-04-23T09:09:35.299Z</time>
      </trkpt>
      <trkpt lat="44.22098" lon="3.23065">
        <ele>626.23</ele>
        <time>2026-04-23T09:09:41.258Z</time>
      </trkpt>
      <trkpt lat="44.22097" lon="3.23062">
        <ele>626.65</ele>
        <time>2026-04-23T09:09:46.905Z</time>
      </trkpt>
      <trkpt lat="44.22096" lon="3.23066">
        <ele>628.35</ele>
        <time>2026-04-23T09:09:52.271Z</time>
      </trkpt>
      <trkpt lat="44.22099" lon="3.2307">
        <ele>629.39</ele>
        <time>2026-04-23T09:09:58.245Z</time>
      </trkpt>
      <trkpt lat="44.221" lon="3.23073">
        <ele>629.8</ele>
        <time>2026-04-23T09:10:03.259Z</time>
      </trkpt>
      <trkpt lat="44.22099" lon="3.23075">
        <ele>630.65</ele>
        <time>2026-04-23T09:10:09.341Z</time>
      </trkpt>
      <trkpt lat="44.22098" lon="3.23076">
        <ele>630.54</ele>
        <time>2026-04-23T09:10:15.160Z</time>
      </trkpt>
      <trkpt lat="44.22096" lon="3.23074">
        <ele>631.74</ele>
        <time>2026-04-23T09:10:20.223Z</time>
      </trkpt>
      <trkpt lat="44.22097" lon="3.23072">
        <ele>631.85</ele>
        <time>2026-04-23T09:10:25.237Z</time>
      </trkpt>
      <trkpt lat="44.22096" lon="3.23071">
        <ele>634.77</ele>
        <time>2026-04-23T09:10:30.252Z</time>
      </trkpt>
      <trkpt lat="44.22095" lon="3.23069">
        <ele>633.08</ele>
        <time>2026-04-23T09:10:35.266Z</time>
      </trkpt>
      <trkpt lat="44.22093" lon="3.23068">
        <ele>632.19</ele>
        <time>2026-04-23T09:10:40.842Z</time>
      </trkpt>
      <trkpt lat="44.22092" lon="3.23068">
        <ele>634.35</ele>
        <time>2026-04-23T09:10:46.255Z</time>
      </trkpt>
      <trkpt lat="44.22091" lon="3.23069">
        <ele>635.88</ele>
        <time>2026-04-23T09:10:52.118Z</time>
      </trkpt>
      <trkpt lat="44.2209" lon="3.23069">
        <ele>638.82</ele>
        <time>2026-04-23T09:10:58.856Z</time>
      </trkpt>
      <trkpt lat="44.22089" lon="3.23068">
        <ele>638.38</ele>
        <time>2026-04-23T09:11:04.285Z</time>
      </trkpt>
      <trkpt lat="44.22088" lon="3.23068">
        <ele>636.98</ele>
        <time>2026-04-23T09:11:14.314Z</time>
      </trkpt>
      <trkpt lat="44.22087" lon="3.23068">
        <ele>639.36</ele>
        <time>2026-04-23T09:11:20.288Z</time>
      </trkpt>
      <trkpt lat="44.22086" lon="3.23069">
        <ele>640.44</ele>
        <time>2026-04-23T09:11:29.259Z</time>
      </trkpt>
      <trkpt lat="44.22085" lon="3.23068">
        <ele>639.82</ele>
        <time>2026-04-23T09:11:37.260Z</time>
      </trkpt>
      <trkpt lat="44.22085" lon="3.23069">
        <ele>638.84</ele>
        <time>2026-04-23T09:11:49.316Z</time>
      </trkpt>
      <trkpt lat="44.22084" lon="3.2307">
        <ele>642.33</ele>
        <time>2026-04-23T09:11:59.344Z</time>
      </trkpt>
      <trkpt lat="44.22081" lon="3.23072">
        <ele>643.74</ele>
        <time>2026-04-23T09:12:05.216Z</time>
      </trkpt>
      <trkpt lat="44.22081" lon="3.23075">
        <ele>644.17</ele>
        <time>2026-04-23T09:12:10.333Z</time>
      </trkpt>
      <trkpt lat="44.22081" lon="3.23076">
        <ele>644.69</ele>
        <time>2026-04-23T09:12:20.286Z</time>
      </trkpt>
      <trkpt lat="44.22072" lon="3.2306">
        <ele>647.9</ele>
        <time>2026-04-23T09:12:43.264Z</time>
      </trkpt>
      <trkpt lat="44.22069" lon="3.23053">
        <ele>647.76</ele>
        <time>2026-04-23T09:12:50.306Z</time>
      </trkpt>
      <trkpt lat="44.22069" lon="3.23055">
        <ele>647.58</ele>
        <time>2026-04-23T09:13:08.149Z</time>
      </trkpt>
      <trkpt lat="44.22068" lon="3.23054">
        <ele>647.91</ele>
        <time>2026-04-23T09:13:15.271Z</time>
      </trkpt>
      <trkpt lat="44.22069" lon="3.23046">
        <ele>647.77</ele>
        <time>2026-04-23T09:13:29.247Z</time>
      </trkpt>
      <trkpt lat="44.2206" lon="3.23034">
        <ele>648.62</ele>
        <time>2026-04-23T09:14:42.151Z</time>
      </trkpt>
      <trkpt lat="44.2206" lon="3.23032">
        <ele>651.99</ele>
        <time>2026-04-23T09:14:48.258Z</time>
      </trkpt>
      <trkpt lat="44.22033" lon="3.2303">
        <ele>665.23</ele>
        <time>2026-04-23T09:16:42.936Z</time>
      </trkpt>
      <trkpt lat="44.22028" lon="3.2303">
        <ele>669.11</ele>
        <time>2026-04-23T09:16:48.283Z</time>
      </trkpt>
      <trkpt lat="44.22026" lon="3.2303">
        <ele>669.48</ele>
        <time>2026-04-23T09:16:53.914Z</time>
      </trkpt>
      <trkpt lat="44.22024" lon="3.23031">
        <ele>669.2</ele>
        <time>2026-04-23T09:17:02.366Z</time>
      </trkpt>
      <trkpt lat="44.22022" lon="3.23032">
        <ele>669.41</ele>
        <time>2026-04-23T09:17:08.340Z</time>
      </trkpt>
      <trkpt lat="44.22021" lon="3.23034">
        <ele>671.44</ele>
        <time>2026-04-23T09:17:14.021Z</time>
      </trkpt>
      <trkpt lat="44.22019" lon="3.23035">
        <ele>673.01</ele>
        <time>2026-04-23T09:17:19.209Z</time>
      </trkpt>
      <trkpt lat="44.22015" lon="3.23038">
        <ele>674.17</ele>
        <time>2026-04-23T09:17:24.276Z</time>
      </trkpt>
      <trkpt lat="44.22013" lon="3.23038">
        <ele>675.14</ele>
        <time>2026-04-23T09:17:29.358Z</time>
      </trkpt>
      <trkpt lat="44.22012" lon="3.23038">
        <ele>675.01</ele>
        <time>2026-04-23T09:17:34.372Z</time>
      </trkpt>
      <trkpt lat="44.2201" lon="3.23037">
        <ele>675.09</ele>
        <time>2026-04-23T09:17:39.866Z</time>
      </trkpt>
      <trkpt lat="44.22008" lon="3.23035">
        <ele>677.16</ele>
        <time>2026-04-23T09:17:51.362Z</time>
      </trkpt>
      <trkpt lat="44.22003" lon="3.23033">
        <ele>678.93</ele>
        <time>2026-04-23T09:17:56.779Z</time>
      </trkpt>
      <trkpt lat="44.21999" lon="3.23034">
        <ele>679.61</ele>
        <time>2026-04-23T09:18:02.220Z</time>
      </trkpt>
      <trkpt lat="44.21996" lon="3.23034">
        <ele>680.15</ele>
        <time>2026-04-23T09:18:07.956Z</time>
      </trkpt>
      <trkpt lat="44.21996" lon="3.23036">
        <ele>681.06</ele>
        <time>2026-04-23T09:18:13.762Z</time>
      </trkpt>
      <trkpt lat="44.21995" lon="3.23041">
        <ele>682.22</ele>
        <time>2026-04-23T09:18:19.159Z</time>
      </trkpt>
      <trkpt lat="44.21995" lon="3.23044">
        <ele>683.65</ele>
        <time>2026-04-23T09:18:25.240Z</time>
      </trkpt>
      <trkpt lat="44.21994" lon="3.23047">
        <ele>684.69</ele>
        <time>2026-04-23T09:18:32.377Z</time>
      </trkpt>
      <trkpt lat="44.21995" lon="3.23048">
        <ele>687.43</ele>
        <time>2026-04-23T09:18:38.305Z</time>
      </trkpt>
      <trkpt lat="44.21998" lon="3.2305">
        <ele>689.11</ele>
        <time>2026-04-23T09:18:50.254Z</time>
      </trkpt>
      <trkpt lat="44.22" lon="3.23052">
        <ele>689.7</ele>
        <time>2026-04-23T09:18:56.258Z</time>
      </trkpt>
      <trkpt lat="44.22" lon="3.23053">
        <ele>690.41</ele>
        <time>2026-04-23T09:19:05.297Z</time>
      </trkpt>
      <trkpt lat="44.22001" lon="3.23054">
        <ele>691.6</ele>
        <time>2026-04-23T09:19:10.311Z</time>
      </trkpt>
      <trkpt lat="44.22001" lon="3.23056">
        <ele>693.31</ele>
        <time>2026-04-23T09:19:17.353Z</time>
      </trkpt>
      <trkpt lat="44.22001" lon="3.23055">
        <ele>693.8</ele>
        <time>2026-04-23T09:19:25.999Z</time>
      </trkpt>
      <trkpt lat="44.21998" lon="3.23052">
        <ele>694.57</ele>
        <time>2026-04-23T09:19:31.329Z</time>
      </trkpt>
      <trkpt lat="44.21995" lon="3.23048">
        <ele>696.62</ele>
        <time>2026-04-23T09:19:36.343Z</time>
      </trkpt>
      <trkpt lat="44.21991" lon="3.23046">
        <ele>697.29</ele>
        <time>2026-04-23T09:19:41.357Z</time>
      </trkpt>
      <trkpt lat="44.21987" lon="3.2304">
        <ele>699.18</ele>
        <time>2026-04-23T09:19:47.332Z</time>
      </trkpt>
      <trkpt lat="44.21985" lon="3.23035">
        <ele>700.47</ele>
        <time>2026-04-23T09:19:54.471Z</time>
      </trkpt>
      <trkpt lat="44.21984" lon="3.23031">
        <ele>700.3</ele>
        <time>2026-04-23T09:19:59.517Z</time>
      </trkpt>
      <trkpt lat="44.21982" lon="3.23028">
        <ele>701.39</ele>
        <time>2026-04-23T09:20:04.877Z</time>
      </trkpt>
      <trkpt lat="44.21979" lon="3.23028">
        <ele>701.37</ele>
        <time>2026-04-23T09:20:10.015Z</time>
      </trkpt>
      <trkpt lat="44.21977" lon="3.23029">
        <ele>702.38</ele>
        <time>2026-04-23T09:20:15.284Z</time>
      </trkpt>
      <trkpt lat="44.21973" lon="3.2303">
        <ele>704.09</ele>
        <time>2026-04-23T09:20:20.298Z</time>
      </trkpt>
      <trkpt lat="44.21971" lon="3.2303">
        <ele>703.57</ele>
        <time>2026-04-23T09:20:26.273Z</time>
      </trkpt>
      <trkpt lat="44.21971" lon="3.23028">
        <ele>705.83</ele>
        <time>2026-04-23T09:20:32.220Z</time>
      </trkpt>
      <trkpt lat="44.2197" lon="3.23025">
        <ele>705.32</ele>
        <time>2026-04-23T09:20:37.368Z</time>
      </trkpt>
      <trkpt lat="44.2197" lon="3.23023">
        <ele>705.81</ele>
        <time>2026-04-23T09:20:43.381Z</time>
      </trkpt>
      <trkpt lat="44.21969" lon="3.23021">
        <ele>709.37</ele>
        <time>2026-04-23T09:20:49.098Z</time>
      </trkpt>
      <trkpt lat="44.21968" lon="3.2302">
        <ele>707.11</ele>
        <time>2026-04-23T09:20:54.331Z</time>
      </trkpt>
      <trkpt lat="44.21967" lon="3.2302">
        <ele>707.47</ele>
        <time>2026-04-23T09:20:59.346Z</time>
      </trkpt>
      <trkpt lat="44.21966" lon="3.2302">
        <ele>707.41</ele>
        <time>2026-04-23T09:21:04.360Z</time>
      </trkpt>
      <trkpt lat="44.21964" lon="3.23021">
        <ele>707.33</ele>
        <time>2026-04-23T09:21:10.335Z</time>
      </trkpt>
      <trkpt lat="44.21964" lon="3.23022">
        <ele>709.8</ele>
        <time>2026-04-23T09:21:26.278Z</time>
      </trkpt>
      <trkpt lat="44.21965" lon="3.23024">
        <ele>707.86</ele>
        <time>2026-04-23T09:21:31.352Z</time>
      </trkpt>
      <trkpt lat="44.21965" lon="3.23027">
        <ele>708.26</ele>
        <time>2026-04-23T09:21:37.220Z</time>
      </trkpt>
      <trkpt lat="44.21965" lon="3.23029">
        <ele>707.71</ele>
        <time>2026-04-23T09:21:42.234Z</time>
      </trkpt>
      <trkpt lat="44.21965" lon="3.23031">
        <ele>707.56</ele>
        <time>2026-04-23T09:21:47.355Z</time>
      </trkpt>
      <trkpt lat="44.21963" lon="3.23032">
        <ele>707.33</ele>
        <time>2026-04-23T09:21:53.330Z</time>
      </trkpt>
      <trkpt lat="44.21962" lon="3.23033">
        <ele>707.78</ele>
        <time>2026-04-23T09:21:58.344Z</time>
      </trkpt>
      <trkpt lat="44.2196" lon="3.23034">
        <ele>708.07</ele>
        <time>2026-04-23T09:22:03.358Z</time>
      </trkpt>
      <trkpt lat="44.21962" lon="3.2303">
        <ele>707.96</ele>
        <time>2026-04-23T09:22:09.226Z</time>
      </trkpt>
      <trkpt lat="44.21963" lon="3.23027">
        <ele>707.65</ele>
        <time>2026-04-23T09:22:14.241Z</time>
      </trkpt>
      <trkpt lat="44.21965" lon="3.23026">
        <ele>707.86</ele>
        <time>2026-04-23T09:22:19.255Z</time>
      </trkpt>
      <trkpt lat="44.21966" lon="3.23023">
        <ele>708.31</ele>
        <time>2026-04-23T09:22:24.269Z</time>
      </trkpt>
      <trkpt lat="44.21967" lon="3.23021">
        <ele>708.08</ele>
        <time>2026-04-23T09:22:29.283Z</time>
      </trkpt>
      <trkpt lat="44.21968" lon="3.23017">
        <ele>708.42</ele>
        <time>2026-04-23T09:22:34.298Z</time>
      </trkpt>
      <trkpt lat="44.21968" lon="3.23015">
        <ele>708.05</ele>
        <time>2026-04-23T09:22:40.272Z</time>
      </trkpt>
      <trkpt lat="44.21969" lon="3.23016">
        <ele>708.67</ele>
        <time>2026-04-23T09:22:45.287Z</time>
      </trkpt>
      <trkpt lat="44.2197" lon="3.23016">
        <ele>707.85</ele>
        <time>2026-04-23T09:22:50.301Z</time>
      </trkpt>
      <trkpt lat="44.2197" lon="3.23017">
        <ele>708.87</ele>
        <time>2026-04-23T09:23:03.317Z</time>
      </trkpt>
      <trkpt lat="44.21966" lon="3.23017">
        <ele>708.44</ele>
        <time>2026-04-23T09:23:09.184Z</time>
      </trkpt>
      <trkpt lat="44.21964" lon="3.23018">
        <ele>709.27</ele>
        <time>2026-04-23T09:23:14.305Z</time>
      </trkpt>
      <trkpt lat="44.21964" lon="3.23023">
        <ele>708.53</ele>
        <time>2026-04-23T09:23:20.280Z</time>
      </trkpt>
      <trkpt lat="44.21963" lon="3.23026">
        <ele>709.34</ele>
        <time>2026-04-23T09:23:25.295Z</time>
      </trkpt>
      <trkpt lat="44.21962" lon="3.23028">
        <ele>709.43</ele>
        <time>2026-04-23T09:23:30.309Z</time>
      </trkpt>
      <trkpt lat="44.21961" lon="3.23029">
        <ele>709.06</ele>
        <time>2026-04-23T09:23:37.244Z</time>
      </trkpt>
      <trkpt lat="44.21961" lon="3.23031">
        <ele>709.89</ele>
        <time>2026-04-23T09:23:42.258Z</time>
      </trkpt>
      <trkpt lat="44.21962" lon="3.23032">
        <ele>709.12</ele>
        <time>2026-04-23T09:23:47.272Z</time>
      </trkpt>
      <trkpt lat="44.21963" lon="3.23032">
        <ele>710.16</ele>
        <time>2026-04-23T09:23:53.354Z</time>
      </trkpt>
      <trkpt lat="44.21964" lon="3.2303">
        <ele>709.5</ele>
        <time>2026-04-23T09:23:59.221Z</time>
      </trkpt>
      <trkpt lat="44.21964" lon="3.23028">
        <ele>709.42</ele>
        <time>2026-04-23T09:24:04.235Z</time>
      </trkpt>
      <trkpt lat="44.21964" lon="3.23027">
        <ele>709.64</ele>
        <time>2026-04-23T09:24:10.317Z</time>
      </trkpt>
      <trkpt lat="44.21964" lon="3.23026">
        <ele>709.88</ele>
        <time>2026-04-23T09:24:19.279Z</time>
      </trkpt>
      <trkpt lat="44.21964" lon="3.23024">
        <ele>709.4</ele>
        <time>2026-04-23T09:24:37.309Z</time>
      </trkpt>
      <trkpt lat="44.21965" lon="3.23021">
        <ele>709.56</ele>
        <time>2026-04-23T09:24:42.762Z</time>
      </trkpt>
      <trkpt lat="44.21966" lon="3.23021">
        <ele>710.14</ele>
        <time>2026-04-23T09:24:49.365Z</time>
      </trkpt>
      <trkpt lat="44.21966" lon="3.23019">
        <ele>709.32</ele>
        <time>2026-04-23T09:24:54.379Z</time>
      </trkpt>
      <trkpt lat="44.21967" lon="3.23018">
        <ele>711.19</ele>
        <time>2026-04-23T09:25:12.303Z</time>
      </trkpt>
      <trkpt lat="44.21967" lon="3.23017">
        <ele>710.1</ele>
        <time>2026-04-23T09:25:21.448Z</time>
      </trkpt>
      <trkpt lat="44.21967" lon="3.23015">
        <ele>712.83</ele>
        <time>2026-04-23T09:25:27.239Z</time>
      </trkpt>
      <trkpt lat="44.21965" lon="3.2302">
        <ele>713.03</ele>
        <time>2026-04-23T09:25:33.296Z</time>
      </trkpt>
      <trkpt lat="44.21962" lon="3.23021">
        <ele>711.2</ele>
        <time>2026-04-23T09:25:38.334Z</time>
      </trkpt>
      <trkpt lat="44.21964" lon="3.23024">
        <ele>710.56</ele>
        <time>2026-04-23T09:25:44.309Z</time>
      </trkpt>
      <trkpt lat="44.21965" lon="3.23023">
        <ele>711.15</ele>
        <time>2026-04-23T09:25:51.243Z</time>
      </trkpt>
      <trkpt lat="44.21967" lon="3.23014">
        <ele>714.81</ele>
        <time>2026-04-23T09:25:56.365Z</time>
      </trkpt>
      <trkpt lat="44.2197" lon="3.23008">
        <ele>717.05</ele>
        <time>2026-04-23T09:26:01.864Z</time>
      </trkpt>
      <trkpt lat="44.21967" lon="3.23008">
        <ele>716.75</ele>
        <time>2026-04-23T09:26:07.354Z</time>
      </trkpt>
      <trkpt lat="44.21964" lon="3.23008">
        <ele>720.57</ele>
        <time>2026-04-23T09:26:12.562Z</time>
      </trkpt>
      <trkpt lat="44.21962" lon="3.23004">
        <ele>721.28</ele>
        <time>2026-04-23T09:26:17.737Z</time>
      </trkpt>
      <trkpt lat="44.21964" lon="3.23">
        <ele>722.41</ele>
        <time>2026-04-23T09:26:23.122Z</time>
      </trkpt>
      <trkpt lat="44.21965" lon="3.22999">
        <ele>723.91</ele>
        <time>2026-04-23T09:26:28.380Z</time>
      </trkpt>
      <trkpt lat="44.21966" lon="3.23001">
        <ele>724.05</ele>
        <time>2026-04-23T09:26:34.248Z</time>
      </trkpt>
      <trkpt lat="44.21967" lon="3.23">
        <ele>723.86</ele>
        <time>2026-04-23T09:26:41.940Z</time>
      </trkpt>
      <trkpt lat="44.21968" lon="3.23001">
        <ele>724.95</ele>
        <time>2026-04-23T09:26:48.251Z</time>
      </trkpt>
      <trkpt lat="44.21968" lon="3.23002">
        <ele>728.32</ele>
        <time>2026-04-23T09:26:53.562Z</time>
      </trkpt>
      <trkpt lat="44.21967" lon="3.23002">
        <ele>726.37</ele>
        <time>2026-04-23T09:27:03.295Z</time>
      </trkpt>
      <trkpt lat="44.21965" lon="3.22995">
        <ele>726.52</ele>
        <time>2026-04-23T09:27:08.357Z</time>
      </trkpt>
      <trkpt lat="44.21963" lon="3.2299">
        <ele>728.82</ele>
        <time>2026-04-23T09:27:14.005Z</time>
      </trkpt>
      <trkpt lat="44.21963" lon="3.22988">
        <ele>730.32</ele>
        <time>2026-04-23T09:27:19.020Z</time>
      </trkpt>
      <trkpt lat="44.21967" lon="3.22988">
        <ele>732.07</ele>
        <time>2026-04-23T09:27:24.322Z</time>
      </trkpt>
      <trkpt lat="44.21968" lon="3.22988">
        <ele>732.24</ele>
        <time>2026-04-23T09:27:30.297Z</time>
      </trkpt>
      <trkpt lat="44.21969" lon="3.22987">
        <ele>732.87</ele>
        <time>2026-04-23T09:27:38.196Z</time>
      </trkpt>
      <trkpt lat="44.2197" lon="3.22986">
        <ele>732.1</ele>
        <time>2026-04-23T09:27:48.865Z</time>
      </trkpt>
      <trkpt lat="44.21972" lon="3.22988">
        <ele>735.44</ele>
        <time>2026-04-23T09:27:54.232Z</time>
      </trkpt>
      <trkpt lat="44.21974" lon="3.2299">
        <ele>735.76</ele>
        <time>2026-04-23T09:27:59.247Z</time>
      </trkpt>
      <trkpt lat="44.21975" lon="3.22991">
        <ele>735.06</ele>
        <time>2026-04-23T09:28:04.261Z</time>
      </trkpt>
      <trkpt lat="44.21975" lon="3.22992">
        <ele>735.4</ele>
        <time>2026-04-23T09:28:13.224Z</time>
      </trkpt>
      <trkpt lat="44.21976" lon="3.22993">
        <ele>735.65</ele>
        <time>2026-04-23T09:28:19.199Z</time>
      </trkpt>
      <trkpt lat="44.21974" lon="3.22989">
        <ele>734.03</ele>
        <time>2026-04-23T09:28:24.866Z</time>
      </trkpt>
      <trkpt lat="44.21973" lon="3.22985">
        <ele>735.88</ele>
        <time>2026-04-23T09:28:30.085Z</time>
      </trkpt>
      <trkpt lat="44.21973" lon="3.22981">
        <ele>737.22</ele>
        <time>2026-04-23T09:28:35.309Z</time>
      </trkpt>
      <trkpt lat="44.21972" lon="3.22975">
        <ele>739.11</ele>
        <time>2026-04-23T09:28:40.390Z</time>
      </trkpt>
      <trkpt lat="44.21971" lon="3.22972">
        <ele>739.91</ele>
        <time>2026-04-23T09:28:45.725Z</time>
      </trkpt>
      <trkpt lat="44.21971" lon="3.2297">
        <ele>740.72</ele>
        <time>2026-04-23T09:28:51.313Z</time>
      </trkpt>
      <trkpt lat="44.2197" lon="3.22971">
        <ele>742.51</ele>
        <time>2026-04-23T09:28:57.297Z</time>
      </trkpt>
      <trkpt lat="44.21971" lon="3.22973">
        <ele>743.75</ele>
        <time>2026-04-23T09:29:04.006Z</time>
      </trkpt>
      <trkpt lat="44.21969" lon="3.22975">
        <ele>746.72</ele>
        <time>2026-04-23T09:29:09.353Z</time>
      </trkpt>
      <trkpt lat="44.21968" lon="3.22978">
        <ele>747.84</ele>
        <time>2026-04-23T09:29:15.281Z</time>
      </trkpt>
      <trkpt lat="44.21968" lon="3.2298">
        <ele>747.42</ele>
        <time>2026-04-23T09:29:21.201Z</time>
      </trkpt>
      <trkpt lat="44.21969" lon="3.22981">
        <ele>746.32</ele>
        <time>2026-04-23T09:29:37.310Z</time>
      </trkpt>
      <trkpt lat="44.21969" lon="3.22995">
        <ele>750.43</ele>
        <time>2026-04-23T09:29:42.876Z</time>
      </trkpt>
      <trkpt lat="44.21969" lon="3.22993">
        <ele>751.62</ele>
        <time>2026-04-23T09:29:57.255Z</time>
      </trkpt>
      <trkpt lat="44.2197" lon="3.22989">
        <ele>752.25</ele>
        <time>2026-04-23T09:30:02.681Z</time>
      </trkpt>
      <trkpt lat="44.21971" lon="3.22985">
        <ele>751.93</ele>
        <time>2026-04-23T09:30:07.686Z</time>
      </trkpt>
      <trkpt lat="44.21974" lon="3.2298">
        <ele>756.33</ele>
        <time>2026-04-23T09:30:12.934Z</time>
      </trkpt>
      <trkpt lat="44.21975" lon="3.22978">
        <ele>755.68</ele>
        <time>2026-04-23T09:30:20.256Z</time>
      </trkpt>
      <trkpt lat="44.21976" lon="3.22977">
        <ele>755.26</ele>
        <time>2026-04-23T09:30:25.262Z</time>
      </trkpt>
      <trkpt lat="44.21978" lon="3.22974">
        <ele>756.78</ele>
        <time>2026-04-23T09:30:30.874Z</time>
      </trkpt>
      <trkpt lat="44.21981" lon="3.22972">
        <ele>758.48</ele>
        <time>2026-04-23T09:30:36.267Z</time>
      </trkpt>
      <trkpt lat="44.21982" lon="3.22972">
        <ele>759.5</ele>
        <time>2026-04-23T09:30:42.243Z</time>
      </trkpt>
      <trkpt lat="44.21983" lon="3.22972">
        <ele>759.87</ele>
        <time>2026-04-23T09:30:47.258Z</time>
      </trkpt>
      <trkpt lat="44.21984" lon="3.22972">
        <ele>762.33</ele>
        <time>2026-04-23T09:30:55.269Z</time>
      </trkpt>
      <trkpt lat="44.21985" lon="3.22974">
        <ele>762.67</ele>
        <time>2026-04-23T09:31:01.245Z</time>
      </trkpt>
      <trkpt lat="44.21984" lon="3.22972">
        <ele>761.93</ele>
        <time>2026-04-23T09:31:09.354Z</time>
      </trkpt>
      <trkpt lat="44.21988" lon="3.22964">
        <ele>763.22</ele>
        <time>2026-04-23T09:31:15.316Z</time>
      </trkpt>
      <trkpt lat="44.21988" lon="3.22955">
        <ele>762.82</ele>
        <time>2026-04-23T09:31:21.323Z</time>
      </trkpt>
      <trkpt lat="44.21988" lon="3.22953">
        <ele>765.07</ele>
        <time>2026-04-23T09:31:26.390Z</time>
      </trkpt>
      <trkpt lat="44.2199" lon="3.22955">
        <ele>767.16</ele>
        <time>2026-04-23T09:31:32.235Z</time>
      </trkpt>
      <trkpt lat="44.21993" lon="3.22959">
        <ele>765.06</ele>
        <time>2026-04-23T09:31:37.346Z</time>
      </trkpt>
      <trkpt lat="44.21993" lon="3.22961">
        <ele>765.57</ele>
        <time>2026-04-23T09:31:42.361Z</time>
      </trkpt>
      <trkpt lat="44.21996" lon="3.22965">
        <ele>763.27</ele>
        <time>2026-04-23T09:31:48.336Z</time>
      </trkpt>
      <trkpt lat="44.21997" lon="3.22968">
        <ele>762.35</ele>
        <time>2026-04-23T09:31:54.311Z</time>
      </trkpt>
      <trkpt lat="44.21997" lon="3.22969">
        <ele>762.87</ele>
        <time>2026-04-23T09:32:00.285Z</time>
      </trkpt>
      <trkpt lat="44.21998" lon="3.2297">
        <ele>766.18</ele>
        <time>2026-04-23T09:32:17.383Z</time>
      </trkpt>
      <trkpt lat="44.21999" lon="3.2297">
        <ele>768.61</ele>
        <time>2026-04-23T09:32:34.869Z</time>
      </trkpt>
      <trkpt lat="44.22002" lon="3.22962">
        <ele>772.49</ele>
        <time>2026-04-23T09:32:40.248Z</time>
      </trkpt>
      <trkpt lat="44.22007" lon="3.22957">
        <ele>770.14</ele>
        <time>2026-04-23T09:32:45.313Z</time>
      </trkpt>
      <trkpt lat="44.22008" lon="3.22961">
        <ele>768.17</ele>
        <time>2026-04-23T09:32:50.812Z</time>
      </trkpt>
      <trkpt lat="44.22009" lon="3.22962">
        <ele>762.25</ele>
        <time>2026-04-23T09:32:56.315Z</time>
      </trkpt>
      <trkpt lat="44.2201" lon="3.22962">
        <ele>764.76</ele>
        <time>2026-04-23T09:33:02.278Z</time>
      </trkpt>
      <trkpt lat="44.22011" lon="3.22961">
        <ele>766.91</ele>
        <time>2026-04-23T09:33:08.254Z</time>
      </trkpt>
      <trkpt lat="44.22012" lon="3.22961">
        <ele>763.43</ele>
        <time>2026-04-23T09:33:13.268Z</time>
      </trkpt>
      <trkpt lat="44.22014" lon="3.22957">
        <ele>763.58</ele>
        <time>2026-04-23T09:33:19.350Z</time>
      </trkpt>
      <trkpt lat="44.22015" lon="3.22955">
        <ele>763.54</ele>
        <time>2026-04-23T09:33:24.573Z</time>
      </trkpt>
      <trkpt lat="44.22016" lon="3.22953">
        <ele>761.76</ele>
        <time>2026-04-23T09:33:29.871Z</time>
      </trkpt>
      <trkpt lat="44.22016" lon="3.22951">
        <ele>762.4</ele>
        <time>2026-04-23T09:33:36.229Z</time>
      </trkpt>
      <trkpt lat="44.22021" lon="3.22947">
        <ele>761.39</ele>
        <time>2026-04-23T09:33:41.357Z</time>
      </trkpt>
      <trkpt lat="44.22024" lon="3.22949">
        <ele>763.26</ele>
        <time>2026-04-23T09:33:46.376Z</time>
      </trkpt>
      <trkpt lat="44.22029" lon="3.22952">
        <ele>763.85</ele>
        <time>2026-04-23T09:33:51.978Z</time>
      </trkpt>
      <trkpt lat="44.22032" lon="3.22951">
        <ele>763.07</ele>
        <time>2026-04-23T09:33:57.254Z</time>
      </trkpt>
      <trkpt lat="44.22031" lon="3.2295">
        <ele>764.15</ele>
        <time>2026-04-23T09:34:03.341Z</time>
      </trkpt>
      <trkpt lat="44.22032" lon="3.2295">
        <ele>761.31</ele>
        <time>2026-04-23T09:34:08.611Z</time>
      </trkpt>
      <trkpt lat="44.22039" lon="3.22951">
        <ele>759.87</ele>
        <time>2026-04-23T09:34:14.225Z</time>
      </trkpt>
      <trkpt lat="44.2204" lon="3.22949">
        <ele>761.27</ele>
        <time>2026-04-23T09:34:19.240Z</time>
      </trkpt>
      <trkpt lat="44.2204" lon="3.22949">
        <ele>760.27</ele>
        <time>2026-04-23T09:34:25.775Z</time>
      </trkpt>
      <trkpt lat="44.22043" lon="3.22948">
        <ele>763.11</ele>
        <time>2026-04-23T09:34:30.779Z</time>
      </trkpt>
      <trkpt lat="44.22046" lon="3.22949">
        <ele>763.21</ele>
        <time>2026-04-23T09:34:36.317Z</time>
      </trkpt>
      <trkpt lat="44.22047" lon="3.22949">
        <ele>764.58</ele>
        <time>2026-04-23T09:34:42.198Z</time>
      </trkpt>
      <trkpt lat="44.22047" lon="3.22947">
        <ele>764.15</ele>
        <time>2026-04-23T09:34:50.189Z</time>
      </trkpt>
      <trkpt lat="44.22048" lon="3.22946">
        <ele>762.83</ele>
        <time>2026-04-23T09:34:55.902Z</time>
      </trkpt>
      <trkpt lat="44.22048" lon="3.22945">
        <ele>764.36</ele>
        <time>2026-04-23T09:35:02.492Z</time>
      </trkpt>
      <trkpt lat="44.22051" lon="3.22945">
        <ele>767.94</ele>
        <time>2026-04-23T09:35:08.224Z</time>
      </trkpt>
      <trkpt lat="44.22053" lon="3.22944">
        <ele>765.93</ele>
        <time>2026-04-23T09:35:23.145Z</time>
      </trkpt>
      <trkpt lat="44.22054" lon="3.22934">
        <ele>764.09</ele>
        <time>2026-04-23T09:35:28.257Z</time>
      </trkpt>
      <trkpt lat="44.22055" lon="3.22927">
        <ele>766.48</ele>
        <time>2026-04-23T09:35:33.700Z</time>
      </trkpt>
      <trkpt lat="44.22055" lon="3.22923">
        <ele>768.14</ele>
        <time>2026-04-23T09:35:39.279Z</time>
      </trkpt>
      <trkpt lat="44.22054" lon="3.22924">
        <ele>769.36</ele>
        <time>2026-04-23T09:35:44.294Z</time>
      </trkpt>
      <trkpt lat="44.22054" lon="3.22926">
        <ele>768.37</ele>
        <time>2026-04-23T09:35:49.309Z</time>
      </trkpt>
      <trkpt lat="44.22054" lon="3.22923">
        <ele>765.98</ele>
        <time>2026-04-23T09:35:55.791Z</time>
      </trkpt>
      <trkpt lat="44.22055" lon="3.22917">
        <ele>764.33</ele>
        <time>2026-04-23T09:36:00.871Z</time>
      </trkpt>
      <trkpt lat="44.22055" lon="3.2291">
        <ele>765.67</ele>
        <time>2026-04-23T09:36:06.212Z</time>
      </trkpt>
      <trkpt lat="44.22055" lon="3.22906">
        <ele>764.65</ele>
        <time>2026-04-23T09:36:11.977Z</time>
      </trkpt>
      <trkpt lat="44.22054" lon="3.22904">
        <ele>763.56</ele>
        <time>2026-04-23T09:36:17.282Z</time>
      </trkpt>
      <trkpt lat="44.22047" lon="3.22896">
        <ele>761.35</ele>
        <time>2026-04-23T09:36:29.370Z</time>
      </trkpt>
      <trkpt lat="44.22043" lon="3.22893">
        <ele>761.2</ele>
        <time>2026-04-23T09:36:34.390Z</time>
      </trkpt>
      <trkpt lat="44.22053" lon="3.22906">
        <ele>760.21</ele>
        <time>2026-04-23T09:36:39.989Z</time>
      </trkpt>
      <trkpt lat="44.22053" lon="3.22909">
        <ele>763.87</ele>
        <time>2026-04-23T09:36:45.347Z</time>
      </trkpt>
      <trkpt lat="44.22054" lon="3.22911">
        <ele>764.05</ele>
        <time>2026-04-23T09:36:51.191Z</time>
      </trkpt>
      <trkpt lat="44.22054" lon="3.22913">
        <ele>763.39</ele>
        <time>2026-04-23T09:36:59.036Z</time>
      </trkpt>
      <trkpt lat="44.22054" lon="3.22915">
        <ele>764.18</ele>
        <time>2026-04-23T09:37:04.737Z</time>
      </trkpt>
      <trkpt lat="44.22054" lon="3.22919">
        <ele>770.03</ele>
        <time>2026-04-23T09:37:10.316Z</time>
      </trkpt>
      <trkpt lat="44.22052" lon="3.22921">
        <ele>769.92</ele>
        <time>2026-04-23T09:37:15.331Z</time>
      </trkpt>
      <trkpt lat="44.22051" lon="3.2292">
        <ele>771.28</ele>
        <time>2026-04-23T09:37:21.200Z</time>
      </trkpt>
      <trkpt lat="44.22049" lon="3.22916">
        <ele>771.11</ele>
        <time>2026-04-23T09:37:26.224Z</time>
      </trkpt>
      <trkpt lat="44.22047" lon="3.22913">
        <ele>768.55</ele>
        <time>2026-04-23T09:37:31.239Z</time>
      </trkpt>
      <trkpt lat="44.22046" lon="3.22912">
        <ele>767.68</ele>
        <time>2026-04-23T09:37:36.255Z</time>
      </trkpt>
      <trkpt lat="44.22045" lon="3.22911">
        <ele>768.89</ele>
        <time>2026-04-23T09:37:42.229Z</time>
      </trkpt>
      <trkpt lat="44.22046" lon="3.22905">
        <ele>767.43</ele>
        <time>2026-04-23T09:37:47.245Z</time>
      </trkpt>
      <trkpt lat="44.2205" lon="3.22903">
        <ele>766.7</ele>
        <time>2026-04-23T09:37:52.262Z</time>
      </trkpt>
      <trkpt lat="44.22052" lon="3.22904">
        <ele>766.11</ele>
        <time>2026-04-23T09:37:57.277Z</time>
      </trkpt>
      <trkpt lat="44.22052" lon="3.22902">
        <ele>765.94</ele>
        <time>2026-04-23T09:38:02.293Z</time>
      </trkpt>
      <trkpt lat="44.22052" lon="3.22901">
        <ele>763.16</ele>
        <time>2026-04-23T09:38:09.229Z</time>
      </trkpt>
      <trkpt lat="44.22052" lon="3.229">
        <ele>762.23</ele>
        <time>2026-04-23T09:38:17.005Z</time>
      </trkpt>
      <trkpt lat="44.2205" lon="3.22898">
        <ele>763.86</ele>
        <time>2026-04-23T09:38:22.402Z</time>
      </trkpt>
      <trkpt lat="44.22049" lon="3.22899">
        <ele>761.94</ele>
        <time>2026-04-23T09:38:35.277Z</time>
      </trkpt>
      <trkpt lat="44.22044" lon="3.229">
        <ele>763.06</ele>
        <time>2026-04-23T09:38:41.252Z</time>
      </trkpt>
      <trkpt lat="44.22041" lon="3.22901">
        <ele>762.36</ele>
        <time>2026-04-23T09:38:47.028Z</time>
      </trkpt>
      <trkpt lat="44.22041" lon="3.22903">
        <ele>761.82</ele>
        <time>2026-04-23T09:38:52.244Z</time>
      </trkpt>
      <trkpt lat="44.22044" lon="3.22903">
        <ele>763.28</ele>
        <time>2026-04-23T09:38:57.366Z</time>
      </trkpt>
      <trkpt lat="44.22045" lon="3.22903">
        <ele>761.26</ele>
        <time>2026-04-23T09:39:03.235Z</time>
      </trkpt>
      <trkpt lat="44.22046" lon="3.22904">
        <ele>759.52</ele>
        <time>2026-04-23T09:39:19.241Z</time>
      </trkpt>
      <trkpt lat="44.22047" lon="3.22905">
        <ele>759.2</ele>
        <time>2026-04-23T09:39:31.298Z</time>
      </trkpt>
      <trkpt lat="44.22048" lon="3.22904">
        <ele>759.88</ele>
        <time>2026-04-23T09:39:45.277Z</time>
      </trkpt>
      <trkpt lat="44.22048" lon="3.22903">
        <ele>761.85</ele>
        <time>2026-04-23T09:40:27.221Z</time>
      </trkpt>
      <trkpt lat="44.22047" lon="3.22902">
        <ele>762.94</ele>
        <time>2026-04-23T09:40:40.240Z</time>
      </trkpt>
      <trkpt lat="44.22048" lon="3.22901">
        <ele>763.81</ele>
        <time>2026-04-23T09:41:17.270Z</time>
      </trkpt>
      <trkpt lat="44.22048" lon="3.229">
        <ele>763.47</ele>
        <time>2026-04-23T09:41:22.286Z</time>
      </trkpt>
      <trkpt lat="44.22049" lon="3.22897">
        <ele>766.48</ele>
        <time>2026-04-23T09:41:28.261Z</time>
      </trkpt>
      <trkpt lat="44.22049" lon="3.22894">
        <ele>765.9</ele>
        <time>2026-04-23T09:41:33.277Z</time>
      </trkpt>
      <trkpt lat="44.22049" lon="3.22893">
        <ele>763.95</ele>
        <time>2026-04-23T09:41:38.292Z</time>
      </trkpt>
      <trkpt lat="44.22048" lon="3.229">
        <ele>761.25</ele>
        <time>2026-04-23T09:41:43.307Z</time>
      </trkpt>
      <trkpt lat="44.22048" lon="3.22908">
        <ele>761.7</ele>
        <time>2026-04-23T09:41:48.323Z</time>
      </trkpt>
      <trkpt lat="44.22044" lon="3.22917">
        <ele>761.47</ele>
        <time>2026-04-23T09:41:53.338Z</time>
      </trkpt>
      <trkpt lat="44.22043" lon="3.22923">
        <ele>761.99</ele>
        <time>2026-04-23T09:41:58.353Z</time>
      </trkpt>
      <trkpt lat="44.22042" lon="3.22931">
        <ele>761.11</ele>
        <time>2026-04-23T09:42:04.329Z</time>
      </trkpt>
      <trkpt lat="44.22038" lon="3.22954">
        <ele>759.24</ele>
        <time>2026-04-23T09:42:10.304Z</time>
      </trkpt>
      <trkpt lat="44.22043" lon="3.22955">
        <ele>758.68</ele>
        <time>2026-04-23T09:42:16.106Z</time>
      </trkpt>
      <trkpt lat="44.22039" lon="3.22967">
        <ele>762.68</ele>
        <time>2026-04-23T09:42:22.185Z</time>
      </trkpt>
      <trkpt lat="44.22039" lon="3.22924">
        <ele>761.1</ele>
        <time>2026-04-23T09:42:27.185Z</time>
      </trkpt>
      <trkpt lat="44.22039" lon="3.2292">
        <ele>759.07</ele>
        <time>2026-04-23T09:42:33.185Z</time>
      </trkpt>
      <trkpt lat="44.22042" lon="3.22917">
        <ele>757.2</ele>
        <time>2026-04-23T09:42:38.185Z</time>
      </trkpt>
      <trkpt lat="44.22044" lon="3.22915">
        <ele>758.85</ele>
        <time>2026-04-23T09:42:43.185Z</time>
      </trkpt>
      <trkpt lat="44.22045" lon="3.22913">
        <ele>758.17</ele>
        <time>2026-04-23T09:42:51.185Z</time>
      </trkpt>
      <trkpt lat="44.22047" lon="3.22923">
        <ele>758.76</ele>
        <time>2026-04-23T09:43:04.807Z</time>
      </trkpt>
      <trkpt lat="44.22046" lon="3.22912">
        <ele>759.35</ele>
        <time>2026-04-23T09:43:10.396Z</time>
      </trkpt>
      <trkpt lat="44.22049" lon="3.22906">
        <ele>759.58</ele>
        <time>2026-04-23T09:43:16.390Z</time>
      </trkpt>
      <trkpt lat="44.22051" lon="3.22913">
        <ele>759.55</ele>
        <time>2026-04-23T09:43:22.316Z</time>
      </trkpt>
      <trkpt lat="44.22051" lon="3.22918">
        <ele>762.34</ele>
        <time>2026-04-23T09:43:28.201Z</time>
      </trkpt>
      <trkpt lat="44.22052" lon="3.22919">
        <ele>764.54</ele>
        <time>2026-04-23T09:43:33.337Z</time>
      </trkpt>
      <trkpt lat="44.22051" lon="3.22926">
        <ele>763.13</ele>
        <time>2026-04-23T09:43:38.980Z</time>
      </trkpt>
      <trkpt lat="44.2205" lon="3.22931">
        <ele>762.84</ele>
        <time>2026-04-23T09:43:44.327Z</time>
      </trkpt>
      <trkpt lat="44.22048" lon="3.22934">
        <ele>762.45</ele>
        <time>2026-04-23T09:43:49.342Z</time>
      </trkpt>
      <trkpt lat="44.22046" lon="3.22937">
        <ele>762.13</ele>
        <time>2026-04-23T09:43:54.357Z</time>
      </trkpt>
      <trkpt lat="44.22045" lon="3.22939">
        <ele>762.12</ele>
        <time>2026-04-23T09:43:59.919Z</time>
      </trkpt>
      <trkpt lat="44.22045" lon="3.22941">
        <ele>760.8</ele>
        <time>2026-04-23T09:44:05.348Z</time>
      </trkpt>
      <trkpt lat="44.22044" lon="3.22942">
        <ele>761.06</ele>
        <time>2026-04-23T09:44:11.298Z</time>
      </trkpt>
      <trkpt lat="44.22045" lon="3.22943">
        <ele>761.79</ele>
        <time>2026-04-23T09:44:20.286Z</time>
      </trkpt>
      <trkpt lat="44.22044" lon="3.22944">
        <ele>761.47</ele>
        <time>2026-04-23T09:44:56.351Z</time>
      </trkpt>
      <trkpt lat="44.22043" lon="3.22945">
        <ele>758.94</ele>
        <time>2026-04-23T09:45:25.157Z</time>
      </trkpt>
      <trkpt lat="44.22043" lon="3.22947">
        <ele>756.18</ele>
        <time>2026-04-23T09:45:41.282Z</time>
      </trkpt>
      <trkpt lat="44.22042" lon="3.22949">
        <ele>756.65</ele>
        <time>2026-04-23T09:45:46.516Z</time>
      </trkpt>
      <trkpt lat="44.22041" lon="3.2295">
        <ele>754.23</ele>
        <time>2026-04-23T09:45:51.834Z</time>
      </trkpt>
      <trkpt lat="44.22037" lon="3.22946">
        <ele>757.59</ele>
        <time>2026-04-23T09:45:57.246Z</time>
      </trkpt>
      <trkpt lat="44.22035" lon="3.22939">
        <ele>757.36</ele>
        <time>2026-04-23T09:46:02.304Z</time>
      </trkpt>
      <trkpt lat="44.22028" lon="3.22935">
        <ele>756.2</ele>
        <time>2026-04-23T09:46:07.750Z</time>
      </trkpt>
      <trkpt lat="44.22023" lon="3.22934">
        <ele>759.24</ele>
        <time>2026-04-23T09:46:13.166Z</time>
      </trkpt>
      <trkpt lat="44.22018" lon="3.22938">
        <ele>755.46</ele>
        <time>2026-04-23T09:46:19.271Z</time>
      </trkpt>
      <trkpt lat="44.22018" lon="3.22942">
        <ele>754.2</ele>
        <time>2026-04-23T09:46:24.356Z</time>
      </trkpt>
      <trkpt lat="44.22019" lon="3.22949">
        <ele>757.15</ele>
        <time>2026-04-23T09:46:29.829Z</time>
      </trkpt>
      <trkpt lat="44.22022" lon="3.22953">
        <ele>756.39</ele>
        <time>2026-04-23T09:46:35.390Z</time>
      </trkpt>
      <trkpt lat="44.22026" lon="3.22959">
        <ele>753.09</ele>
        <time>2026-04-23T09:46:41.305Z</time>
      </trkpt>
      <trkpt lat="44.22021" lon="3.22952">
        <ele>760.85</ele>
        <time>2026-04-23T09:46:46.392Z</time>
      </trkpt>
      <trkpt lat="44.22019" lon="3.22952">
        <ele>763.04</ele>
        <time>2026-04-23T09:46:52.273Z</time>
      </trkpt>
      <trkpt lat="44.22018" lon="3.22958">
        <ele>763.96</ele>
        <time>2026-04-23T09:46:57.319Z</time>
      </trkpt>
      <trkpt lat="44.22018" lon="3.22959">
        <ele>764.27</ele>
        <time>2026-04-23T09:47:03.251Z</time>
      </trkpt>
      <trkpt lat="44.22015" lon="3.22957">
        <ele>764.28</ele>
        <time>2026-04-23T09:47:08.266Z</time>
      </trkpt>
      <trkpt lat="44.22015" lon="3.22954">
        <ele>762.67</ele>
        <time>2026-04-23T09:47:14.242Z</time>
      </trkpt>
      <trkpt lat="44.22014" lon="3.22952">
        <ele>761.1</ele>
        <time>2026-04-23T09:47:19.261Z</time>
      </trkpt>
      <trkpt lat="44.22013" lon="3.22951">
        <ele>758.32</ele>
        <time>2026-04-23T09:47:25.339Z</time>
      </trkpt>
      <trkpt lat="44.22012" lon="3.2295">
        <ele>756.86</ele>
        <time>2026-04-23T09:47:30.354Z</time>
      </trkpt>
      <trkpt lat="44.22011" lon="3.22949">
        <ele>758.66</ele>
        <time>2026-04-23T09:47:38.390Z</time>
      </trkpt>
      <trkpt lat="44.22009" lon="3.22952">
        <ele>764.78</ele>
        <time>2026-04-23T09:47:43.440Z</time>
      </trkpt>
      <trkpt lat="44.22004" lon="3.22959">
        <ele>760.63</ele>
        <time>2026-04-23T09:47:49.191Z</time>
      </trkpt>
      <trkpt lat="44.22003" lon="3.2296">
        <ele>756.52</ele>
        <time>2026-04-23T09:47:56.192Z</time>
      </trkpt>
      <trkpt lat="44.22003" lon="3.22963">
        <ele>756.69</ele>
        <time>2026-04-23T09:48:01.192Z</time>
      </trkpt>
      <trkpt lat="44.22001" lon="3.22962">
        <ele>758.91</ele>
        <time>2026-04-23T09:48:06.192Z</time>
      </trkpt>
      <trkpt lat="44.21997" lon="3.22963">
        <ele>758.68</ele>
        <time>2026-04-23T09:48:11.192Z</time>
      </trkpt>
      <trkpt lat="44.21998" lon="3.22963">
        <ele>758.52</ele>
        <time>2026-04-23T09:48:16.237Z</time>
      </trkpt>
      <trkpt lat="44.21997" lon="3.22964">
        <ele>756.58</ele>
        <time>2026-04-23T09:48:22.213Z</time>
      </trkpt>
      <trkpt lat="44.21997" lon="3.22965">
        <ele>752.4</ele>
        <time>2026-04-23T09:48:33.233Z</time>
      </trkpt>
      <trkpt lat="44.21995" lon="3.22968">
        <ele>753.27</ele>
        <time>2026-04-23T09:48:38.325Z</time>
      </trkpt>
      <trkpt lat="44.21994" lon="3.2297">
        <ele>753.24</ele>
        <time>2026-04-23T09:48:44.299Z</time>
      </trkpt>
      <trkpt lat="44.21988" lon="3.22978">
        <ele>757.07</ele>
        <time>2026-04-23T09:48:49.383Z</time>
      </trkpt>
      <trkpt lat="44.21984" lon="3.22982">
        <ele>751.25</ele>
        <time>2026-04-23T09:48:55.291Z</time>
      </trkpt>
      <trkpt lat="44.21986" lon="3.22981">
        <ele>750.91</ele>
        <time>2026-04-23T09:49:00.383Z</time>
      </trkpt>
      <trkpt lat="44.21987" lon="3.2298">
        <ele>753.85</ele>
        <time>2026-04-23T09:49:06.374Z</time>
      </trkpt>
      <trkpt lat="44.21986" lon="3.22981">
        <ele>748.17</ele>
        <time>2026-04-23T09:49:20.656Z</time>
      </trkpt>
      <trkpt lat="44.21985" lon="3.2298">
        <ele>750.84</ele>
        <time>2026-04-23T09:49:26.116Z</time>
      </trkpt>
      <trkpt lat="44.2198" lon="3.22978">
        <ele>750.17</ele>
        <time>2026-04-23T09:49:31.298Z</time>
      </trkpt>
      <trkpt lat="44.21979" lon="3.22978">
        <ele>745.12</ele>
        <time>2026-04-23T09:49:37.220Z</time>
      </trkpt>
      <trkpt lat="44.21978" lon="3.22977">
        <ele>745.64</ele>
        <time>2026-04-23T09:49:46.296Z</time>
      </trkpt>
      <trkpt lat="44.21977" lon="3.22977">
        <ele>742.12</ele>
        <time>2026-04-23T09:50:06.357Z</time>
      </trkpt>
      <trkpt lat="44.21977" lon="3.22976">
        <ele>741.81</ele>
        <time>2026-04-23T09:50:14.317Z</time>
      </trkpt>
      <trkpt lat="44.21975" lon="3.22976">
        <ele>744.15</ele>
        <time>2026-04-23T09:50:19.573Z</time>
      </trkpt>
      <trkpt lat="44.21974" lon="3.22977">
        <ele>738.29</ele>
        <time>2026-04-23T09:50:25.300Z</time>
      </trkpt>
      <trkpt lat="44.21973" lon="3.22979">
        <ele>739.81</ele>
        <time>2026-04-23T09:50:30.318Z</time>
      </trkpt>
      <trkpt lat="44.21973" lon="3.22981">
        <ele>741.56</ele>
        <time>2026-04-23T09:50:36.341Z</time>
      </trkpt>
      <trkpt lat="44.21972" lon="3.22981">
        <ele>738.73</ele>
        <time>2026-04-23T09:50:50.213Z</time>
      </trkpt>
      <trkpt lat="44.21972" lon="3.22982">
        <ele>737.55</ele>
        <time>2026-04-23T09:51:02.377Z</time>
      </trkpt>
      <trkpt lat="44.21972" lon="3.22983">
        <ele>736.17</ele>
        <time>2026-04-23T09:51:08.353Z</time>
      </trkpt>
      <trkpt lat="44.21973" lon="3.22984">
        <ele>738.83</ele>
        <time>2026-04-23T09:51:16.389Z</time>
      </trkpt>
      <trkpt lat="44.21974" lon="3.22984">
        <ele>731.48</ele>
        <time>2026-04-23T09:51:25.319Z</time>
      </trkpt>
      <trkpt lat="44.21974" lon="3.22986">
        <ele>737.91</ele>
        <time>2026-04-23T09:51:30.334Z</time>
      </trkpt>
      <trkpt lat="44.21975" lon="3.22987">
        <ele>736.4</ele>
        <time>2026-04-23T09:51:40.390Z</time>
      </trkpt>
      <trkpt lat="44.21976" lon="3.22988">
        <ele>735.27</ele>
        <time>2026-04-23T09:51:48.196Z</time>
      </trkpt>
      <trkpt lat="44.21978" lon="3.22987">
        <ele>733.77</ele>
        <time>2026-04-23T09:51:53.196Z</time>
      </trkpt>
      <trkpt lat="44.21979" lon="3.22988">
        <ele>733.65</ele>
        <time>2026-04-23T09:51:58.197Z</time>
      </trkpt>
      <trkpt lat="44.21981" lon="3.22987">
        <ele>733.93</ele>
        <time>2026-04-23T09:52:04.196Z</time>
      </trkpt>
      <trkpt lat="44.2198" lon="3.22989">
        <ele>732.87</ele>
        <time>2026-04-23T09:52:09.197Z</time>
      </trkpt>
      <trkpt lat="44.21979" lon="3.22994">
        <ele>730.9</ele>
        <time>2026-04-23T09:52:14.197Z</time>
      </trkpt>
      <trkpt lat="44.2198" lon="3.22993">
        <ele>729.5</ele>
        <time>2026-04-23T09:52:22.196Z</time>
      </trkpt>
      <trkpt lat="44.21979" lon="3.22994">
        <ele>729.69</ele>
        <time>2026-04-23T09:52:32.197Z</time>
      </trkpt>
      <trkpt lat="44.21978" lon="3.22997">
        <ele>729.25</ele>
        <time>2026-04-23T09:52:37.197Z</time>
      </trkpt>
      <trkpt lat="44.21977" lon="3.22996">
        <ele>728.85</ele>
        <time>2026-04-23T09:52:42.197Z</time>
      </trkpt>
      <trkpt lat="44.21976" lon="3.22994">
        <ele>729.4</ele>
        <time>2026-04-23T09:52:47.197Z</time>
      </trkpt>
      <trkpt lat="44.21974" lon="3.22995">
        <ele>726.72</ele>
        <time>2026-04-23T09:52:52.197Z</time>
      </trkpt>
      <trkpt lat="44.21973" lon="3.22994">
        <ele>725.06</ele>
        <time>2026-04-23T09:52:57.198Z</time>
      </trkpt>
      <trkpt lat="44.21973" lon="3.22991">
        <ele>724.82</ele>
        <time>2026-04-23T09:53:02.198Z</time>
      </trkpt>
      <trkpt lat="44.21974" lon="3.2299">
        <ele>724.29</ele>
        <time>2026-04-23T09:53:08.198Z</time>
      </trkpt>
      <trkpt lat="44.21974" lon="3.22993">
        <ele>723.61</ele>
        <time>2026-04-23T09:53:22.198Z</time>
      </trkpt>
      <trkpt lat="44.21974" lon="3.22995">
        <ele>724.48</ele>
        <time>2026-04-23T09:53:27.198Z</time>
      </trkpt>
      <trkpt lat="44.21974" lon="3.22998">
        <ele>724.37</ele>
        <time>2026-04-23T09:53:32.198Z</time>
      </trkpt>
      <trkpt lat="44.21974" lon="3.22996">
        <ele>723.71</ele>
        <time>2026-04-23T09:53:37.198Z</time>
      </trkpt>
      <trkpt lat="44.21974" lon="3.22993">
        <ele>723.34</ele>
        <time>2026-04-23T09:53:42.198Z</time>
      </trkpt>
      <trkpt lat="44.21974" lon="3.22995">
        <ele>721.42</ele>
        <time>2026-04-23T09:53:47.198Z</time>
      </trkpt>
      <trkpt lat="44.21973" lon="3.22998">
        <ele>719.94</ele>
        <time>2026-04-23T09:53:52.199Z</time>
      </trkpt>
      <trkpt lat="44.21974" lon="3.22992">
        <ele>719.51</ele>
        <time>2026-04-23T09:53:58.199Z</time>
      </trkpt>
      <trkpt lat="44.21974" lon="3.22993">
        <ele>719.18</ele>
        <time>2026-04-23T09:54:03.199Z</time>
      </trkpt>
      <trkpt lat="44.21974" lon="3.22995">
        <ele>719.23</ele>
        <time>2026-04-23T09:54:14.199Z</time>
      </trkpt>
      <trkpt lat="44.21972" lon="3.23001">
        <ele>717.07</ele>
        <time>2026-04-23T09:54:19.199Z</time>
      </trkpt>
      <trkpt lat="44.2197" lon="3.23007">
        <ele>716.6</ele>
        <time>2026-04-23T09:54:25.199Z</time>
      </trkpt>
      <trkpt lat="44.2197" lon="3.23008">
        <ele>715.23</ele>
        <time>2026-04-23T09:54:34.199Z</time>
      </trkpt>
      <trkpt lat="44.2197" lon="3.23008">
        <ele>715</ele>
        <time>2026-04-23T09:54:44.200Z</time>
      </trkpt>
      <trkpt lat="44.21969" lon="3.2301">
        <ele>713.7</ele>
        <time>2026-04-23T09:54:52.200Z</time>
      </trkpt>
      <trkpt lat="44.21969" lon="3.23013">
        <ele>713.31</ele>
        <time>2026-04-23T09:54:57.200Z</time>
      </trkpt>
      <trkpt lat="44.21969" lon="3.23015">
        <ele>713.1</ele>
        <time>2026-04-23T09:55:02.200Z</time>
      </trkpt>
      <trkpt lat="44.21966" lon="3.23014">
        <ele>714.28</ele>
        <time>2026-04-23T09:55:07.201Z</time>
      </trkpt>
      <trkpt lat="44.21966" lon="3.23015">
        <ele>713.66</ele>
        <time>2026-04-23T09:55:13.785Z</time>
      </trkpt>
      <trkpt lat="44.21965" lon="3.23016">
        <ele>712.36</ele>
        <time>2026-04-23T09:55:18.926Z</time>
      </trkpt>
      <trkpt lat="44.21963" lon="3.23018">
        <ele>711.84</ele>
        <time>2026-04-23T09:55:24.117Z</time>
      </trkpt>
      <trkpt lat="44.21962" lon="3.23018">
        <ele>712.31</ele>
        <time>2026-04-23T09:55:29.862Z</time>
      </trkpt>
      <trkpt lat="44.21961" lon="3.2302">
        <ele>712.17</ele>
        <time>2026-04-23T09:55:35.352Z</time>
      </trkpt>
      <trkpt lat="44.21962" lon="3.23021">
        <ele>711.1</ele>
        <time>2026-04-23T09:55:43.355Z</time>
      </trkpt>
      <trkpt lat="44.21963" lon="3.23022">
        <ele>710.01</ele>
        <time>2026-04-23T09:55:49.331Z</time>
      </trkpt>
      <trkpt lat="44.21963" lon="3.23023">
        <ele>709.8</ele>
        <time>2026-04-23T09:55:55.604Z</time>
      </trkpt>
      <trkpt lat="44.21964" lon="3.23025">
        <ele>709.15</ele>
        <time>2026-04-23T09:56:01.401Z</time>
      </trkpt>
      <trkpt lat="44.21966" lon="3.23027">
        <ele>708.54</ele>
        <time>2026-04-23T09:56:07.341Z</time>
      </trkpt>
      <trkpt lat="44.21967" lon="3.2303">
        <ele>707.12</ele>
        <time>2026-04-23T09:56:12.739Z</time>
      </trkpt>
      <trkpt lat="44.21968" lon="3.23029">
        <ele>705.03</ele>
        <time>2026-04-23T09:56:18.003Z</time>
      </trkpt>
      <trkpt lat="44.21969" lon="3.23028">
        <ele>705.28</ele>
        <time>2026-04-23T09:56:28.278Z</time>
      </trkpt>
      <trkpt lat="44.2197" lon="3.23026">
        <ele>705.6</ele>
        <time>2026-04-23T09:56:33.293Z</time>
      </trkpt>
      <trkpt lat="44.2197" lon="3.23025">
        <ele>705.15</ele>
        <time>2026-04-23T09:56:38.307Z</time>
      </trkpt>
      <trkpt lat="44.21971" lon="3.23024">
        <ele>704.63</ele>
        <time>2026-04-23T09:56:45.389Z</time>
      </trkpt>
      <trkpt lat="44.21971" lon="3.23024">
        <ele>705.55</ele>
        <time>2026-04-23T09:56:58.390Z</time>
      </trkpt>
      <trkpt lat="44.21972" lon="3.23022">
        <ele>705.78</ele>
        <time>2026-04-23T09:57:04.390Z</time>
      </trkpt>
      <trkpt lat="44.21974" lon="3.23018">
        <ele>705.4</ele>
        <time>2026-04-23T09:57:10.390Z</time>
      </trkpt>
      <trkpt lat="44.21975" lon="3.23016">
        <ele>704.59</ele>
        <time>2026-04-23T09:57:15.441Z</time>
      </trkpt>
      <trkpt lat="44.21974" lon="3.23019">
        <ele>705.13</ele>
        <time>2026-04-23T09:57:21.494Z</time>
      </trkpt>
      <trkpt lat="44.21967" lon="3.23026">
        <ele>707.93</ele>
        <time>2026-04-23T09:57:27.005Z</time>
      </trkpt>
      <trkpt lat="44.21971" lon="3.23029">
        <ele>706.92</ele>
        <time>2026-04-23T09:57:32.407Z</time>
      </trkpt>
      <trkpt lat="44.2197" lon="3.2303">
        <ele>705.92</ele>
        <time>2026-04-23T09:57:43.179Z</time>
      </trkpt>
      <trkpt lat="44.21969" lon="3.23034">
        <ele>708.17</ele>
        <time>2026-04-23T09:57:48.306Z</time>
      </trkpt>
      <trkpt lat="44.2197" lon="3.23035">
        <ele>710.22</ele>
        <time>2026-04-23T09:57:53.390Z</time>
      </trkpt>
      <trkpt lat="44.21969" lon="3.23037">
        <ele>709.94</ele>
        <time>2026-04-23T09:57:58.790Z</time>
      </trkpt>
      <trkpt lat="44.21969" lon="3.23039">
        <ele>712.22</ele>
        <time>2026-04-23T09:58:04.021Z</time>
      </trkpt>
      <trkpt lat="44.21969" lon="3.23041">
        <ele>711.55</ele>
        <time>2026-04-23T09:58:09.145Z</time>
      </trkpt>
      <trkpt lat="44.21969" lon="3.23042">
        <ele>710.53</ele>
        <time>2026-04-23T09:58:14.448Z</time>
      </trkpt>
      <trkpt lat="44.21969" lon="3.23044">
        <ele>712.85</ele>
        <time>2026-04-23T09:58:26.581Z</time>
      </trkpt>
      <trkpt lat="44.2197" lon="3.23045">
        <ele>713.14</ele>
        <time>2026-04-23T09:58:32.268Z</time>
      </trkpt>
      <trkpt lat="44.21969" lon="3.23047">
        <ele>713.13</ele>
        <time>2026-04-23T09:58:37.865Z</time>
      </trkpt>
      <trkpt lat="44.21968" lon="3.23049">
        <ele>713.8</ele>
        <time>2026-04-23T09:58:43.101Z</time>
      </trkpt>
      <trkpt lat="44.21968" lon="3.23052">
        <ele>716.96</ele>
        <time>2026-04-23T09:58:48.390Z</time>
      </trkpt>
      <trkpt lat="44.21968" lon="3.23054">
        <ele>716.16</ele>
        <time>2026-04-23T09:58:54.164Z</time>
      </trkpt>
      <trkpt lat="44.21968" lon="3.23055">
        <ele>718.21</ele>
        <time>2026-04-23T09:58:59.382Z</time>
      </trkpt>
      <trkpt lat="44.21965" lon="3.23056">
        <ele>720.54</ele>
        <time>2026-04-23T09:59:04.817Z</time>
      </trkpt>
      <trkpt lat="44.21964" lon="3.23058">
        <ele>720.43</ele>
        <time>2026-04-23T09:59:10.280Z</time>
      </trkpt>
      <trkpt lat="44.21962" lon="3.23063">
        <ele>720.34</ele>
        <time>2026-04-23T09:59:15.594Z</time>
      </trkpt>
      <trkpt lat="44.21961" lon="3.23067">
        <ele>721.25</ele>
        <time>2026-04-23T09:59:21.271Z</time>
      </trkpt>
      <trkpt lat="44.21962" lon="3.23067">
        <ele>723.5</ele>
        <time>2026-04-23T09:59:37.295Z</time>
      </trkpt>
      <trkpt lat="44.21966" lon="3.23069">
        <ele>721.49</ele>
        <time>2026-04-23T09:59:43.389Z</time>
      </trkpt>
      <trkpt lat="44.21969" lon="3.23071">
        <ele>722.13</ele>
        <time>2026-04-23T09:59:48.392Z</time>
      </trkpt>
      <trkpt lat="44.2197" lon="3.23073">
        <ele>723.33</ele>
        <time>2026-04-23T09:59:54.318Z</time>
      </trkpt>
      <trkpt lat="44.2197" lon="3.2308">
        <ele>728.03</ele>
        <time>2026-04-23T10:00:04.179Z</time>
      </trkpt>
      <trkpt lat="44.21961" lon="3.23093">
        <ele>727.27</ele>
        <time>2026-04-23T10:00:13.951Z</time>
      </trkpt>
      <trkpt lat="44.21961" lon="3.23098">
        <ele>729.09</ele>
        <time>2026-04-23T10:00:19.337Z</time>
      </trkpt>
      <trkpt lat="44.21961" lon="3.23103">
        <ele>726.67</ele>
        <time>2026-04-23T10:00:28.309Z</time>
      </trkpt>
      <trkpt lat="44.21961" lon="3.23108">
        <ele>727.48</ele>
        <time>2026-04-23T10:00:34.285Z</time>
      </trkpt>
      <trkpt lat="44.21961" lon="3.23107">
        <ele>728.23</ele>
        <time>2026-04-23T10:00:42.288Z</time>
      </trkpt>
      <trkpt lat="44.21962" lon="3.23102">
        <ele>729.54</ele>
        <time>2026-04-23T10:00:47.303Z</time>
      </trkpt>
      <trkpt lat="44.21961" lon="3.23101">
        <ele>730.09</ele>
        <time>2026-04-23T10:00:52.390Z</time>
      </trkpt>
      <trkpt lat="44.21961" lon="3.23099">
        <ele>729.38</ele>
        <time>2026-04-23T10:00:58.401Z</time>
      </trkpt>
      <trkpt lat="44.2196" lon="3.23098">
        <ele>729.2</ele>
        <time>2026-04-23T10:01:04.390Z</time>
      </trkpt>
      <trkpt lat="44.2196" lon="3.23101">
        <ele>729.98</ele>
        <time>2026-04-23T10:01:20.383Z</time>
      </trkpt>
      <trkpt lat="44.21962" lon="3.23104">
        <ele>729.63</ele>
        <time>2026-04-23T10:01:27.390Z</time>
      </trkpt>
      <trkpt lat="44.21962" lon="3.23116">
        <ele>729.52</ele>
        <time>2026-04-23T10:01:44.013Z</time>
      </trkpt>
      <trkpt lat="44.21958" lon="3.23131">
        <ele>727.3</ele>
        <time>2026-04-23T10:02:40.411Z</time>
      </trkpt>
      <trkpt lat="44.21958" lon="3.23129">
        <ele>735.32</ele>
        <time>2026-04-23T10:02:45.426Z</time>
      </trkpt>
      <trkpt lat="44.21955" lon="3.23127">
        <ele>735.84</ele>
        <time>2026-04-23T10:02:51.295Z</time>
      </trkpt>
      <trkpt lat="44.21953" lon="3.23125">
        <ele>732.39</ele>
        <time>2026-04-23T10:02:56.390Z</time>
      </trkpt>
      <trkpt lat="44.21952" lon="3.23121">
        <ele>733.9</ele>
        <time>2026-04-23T10:03:01.432Z</time>
      </trkpt>
      <trkpt lat="44.21952" lon="3.23117">
        <ele>734.41</ele>
        <time>2026-04-23T10:03:07.407Z</time>
      </trkpt>
      <trkpt lat="44.21957" lon="3.23112">
        <ele>734.88</ele>
        <time>2026-04-23T10:03:12.803Z</time>
      </trkpt>
      <trkpt lat="44.21958" lon="3.2311">
        <ele>737.28</ele>
        <time>2026-04-23T10:03:18.291Z</time>
      </trkpt>
      <trkpt lat="44.21959" lon="3.23109">
        <ele>735.24</ele>
        <time>2026-04-23T10:03:23.306Z</time>
      </trkpt>
      <trkpt lat="44.21959" lon="3.23107">
        <ele>735.56</ele>
        <time>2026-04-23T10:03:28.321Z</time>
      </trkpt>
      <trkpt lat="44.21959" lon="3.23105">
        <ele>737.1</ele>
        <time>2026-04-23T10:03:33.499Z</time>
      </trkpt>
      <trkpt lat="44.21959" lon="3.23103">
        <ele>737.96</ele>
        <time>2026-04-23T10:03:38.896Z</time>
      </trkpt>
      <trkpt lat="44.21959" lon="3.231">
        <ele>739.79</ele>
        <time>2026-04-23T10:03:44.035Z</time>
      </trkpt>
      <trkpt lat="44.21957" lon="3.23099">
        <ele>738.05</ele>
        <time>2026-04-23T10:03:52.333Z</time>
      </trkpt>
      <trkpt lat="44.21956" lon="3.23098">
        <ele>738.81</ele>
        <time>2026-04-23T10:03:57.348Z</time>
      </trkpt>
      <trkpt lat="44.21955" lon="3.23097">
        <ele>736.81</ele>
        <time>2026-04-23T10:04:02.363Z</time>
      </trkpt>
      <trkpt lat="44.21954" lon="3.23096">
        <ele>739.88</ele>
        <time>2026-04-23T10:04:09.299Z</time>
      </trkpt>
      <trkpt lat="44.21956" lon="3.23096">
        <ele>740.85</ele>
        <time>2026-04-23T10:04:14.375Z</time>
      </trkpt>
      <trkpt lat="44.2196" lon="3.23095">
        <ele>740.21</ele>
        <time>2026-04-23T10:04:19.816Z</time>
      </trkpt>
      <trkpt lat="44.21961" lon="3.23093">
        <ele>739.73</ele>
        <time>2026-04-23T10:04:24.833Z</time>
      </trkpt>
      <trkpt lat="44.21962" lon="3.23092">
        <ele>739.49</ele>
        <time>2026-04-23T10:04:30.390Z</time>
      </trkpt>
      <trkpt lat="44.21964" lon="3.23093">
        <ele>739.99</ele>
        <time>2026-04-23T10:04:36.738Z</time>
      </trkpt>
      <trkpt lat="44.22027" lon="3.23102">
        <ele>739.28</ele>
        <time>2026-04-23T10:04:45.211Z</time>
      </trkpt>
      <trkpt lat="44.21959" lon="3.23102">
        <ele>742.7</ele>
        <time>2026-04-23T10:05:42.213Z</time>
      </trkpt>
      <trkpt lat="44.21952" lon="3.23084">
        <ele>742.89</ele>
        <time>2026-04-23T10:05:47.214Z</time>
      </trkpt>
      <trkpt lat="44.21933" lon="3.2308">
        <ele>744.78</ele>
        <time>2026-04-23T10:05:52.216Z</time>
      </trkpt>
      <trkpt lat="44.21949" lon="3.23093">
        <ele>744.73</ele>
        <time>2026-04-23T10:05:58.213Z</time>
      </trkpt>
      <trkpt lat="44.21959" lon="3.23097">
        <ele>744.51</ele>
        <time>2026-04-23T10:06:03.213Z</time>
      </trkpt>
      <trkpt lat="44.2196" lon="3.231">
        <ele>743.44</ele>
        <time>2026-04-23T10:06:08.213Z</time>
      </trkpt>
      <trkpt lat="44.21957" lon="3.23102">
        <ele>743.32</ele>
        <time>2026-04-23T10:06:13.213Z</time>
      </trkpt>
      <trkpt lat="44.21959" lon="3.23098">
        <ele>743.66</ele>
        <time>2026-04-23T10:06:18.214Z</time>
      </trkpt>
      <trkpt lat="44.21961" lon="3.23095">
        <ele>743.28</ele>
        <time>2026-04-23T10:06:23.214Z</time>
      </trkpt>
      <trkpt lat="44.2196" lon="3.23098">
        <ele>743.01</ele>
        <time>2026-04-23T10:06:35.214Z</time>
      </trkpt>
      <trkpt lat="44.21958" lon="3.23097">
        <ele>743.73</ele>
        <time>2026-04-23T10:06:40.214Z</time>
      </trkpt>
      <trkpt lat="44.21957" lon="3.23095">
        <ele>746</ele>
        <time>2026-04-23T10:06:45.214Z</time>
      </trkpt>
      <trkpt lat="44.21958" lon="3.23094">
        <ele>745.19</ele>
        <time>2026-04-23T10:06:51.214Z</time>
      </trkpt>
      <trkpt lat="44.21955" lon="3.23095">
        <ele>746.56</ele>
        <time>2026-04-23T10:06:56.214Z</time>
      </trkpt>
      <trkpt lat="44.21955" lon="3.23093">
        <ele>749.66</ele>
        <time>2026-04-23T10:07:09.214Z</time>
      </trkpt>
      <trkpt lat="44.21955" lon="3.23095">
        <ele>749.49</ele>
        <time>2026-04-23T10:07:14.215Z</time>
      </trkpt>
      <trkpt lat="44.21956" lon="3.23098">
        <ele>748.48</ele>
        <time>2026-04-23T10:07:19.215Z</time>
      </trkpt>
      <trkpt lat="44.21956" lon="3.23099">
        <ele>751.17</ele>
        <time>2026-04-23T10:07:28.215Z</time>
      </trkpt>
      <trkpt lat="44.21955" lon="3.23101">
        <ele>752.14</ele>
        <time>2026-04-23T10:07:33.215Z</time>
      </trkpt>
      <trkpt lat="44.21957" lon="3.23102">
        <ele>753.57</ele>
        <time>2026-04-23T10:07:38.215Z</time>
      </trkpt>
      <trkpt lat="44.21957" lon="3.231">
        <ele>755.41</ele>
        <time>2026-04-23T10:07:43.215Z</time>
      </trkpt>
      <trkpt lat="44.21956" lon="3.23101">
        <ele>754.87</ele>
        <time>2026-04-23T10:07:49.215Z</time>
      </trkpt>
      <trkpt lat="44.21954" lon="3.23104">
        <ele>756.49</ele>
        <time>2026-04-23T10:07:54.215Z</time>
      </trkpt>
      <trkpt lat="44.21956" lon="3.23104">
        <ele>755.56</ele>
        <time>2026-04-23T10:07:59.216Z</time>
      </trkpt>
      <trkpt lat="44.21954" lon="3.23103">
        <ele>756.56</ele>
        <time>2026-04-23T10:08:05.215Z</time>
      </trkpt>
      <trkpt lat="44.21955" lon="3.23107">
        <ele>757.97</ele>
        <time>2026-04-23T10:08:10.217Z</time>
      </trkpt>
      <trkpt lat="44.21956" lon="3.23104">
        <ele>756.88</ele>
        <time>2026-04-23T10:08:16.216Z</time>
      </trkpt>
      <trkpt lat="44.21954" lon="3.23105">
        <ele>757.51</ele>
        <time>2026-04-23T10:08:21.216Z</time>
      </trkpt>
      <trkpt lat="44.21955" lon="3.231">
        <ele>757.06</ele>
        <time>2026-04-23T10:08:26.216Z</time>
      </trkpt>
      <trkpt lat="44.21956" lon="3.23076">
        <ele>757.05</ele>
        <time>2026-04-23T10:08:31.216Z</time>
      </trkpt>
      <trkpt lat="44.21957" lon="3.23049">
        <ele>757.63</ele>
        <time>2026-04-23T10:08:37.216Z</time>
      </trkpt>
      <trkpt lat="44.21958" lon="3.23064">
        <ele>761.64</ele>
        <time>2026-04-23T10:08:42.216Z</time>
      </trkpt>
      <trkpt lat="44.21957" lon="3.23081">
        <ele>763.74</ele>
        <time>2026-04-23T10:08:47.216Z</time>
      </trkpt>
      <trkpt lat="44.21957" lon="3.23087">
        <ele>765.2</ele>
        <time>2026-04-23T10:08:52.217Z</time>
      </trkpt>
      <trkpt lat="44.21956" lon="3.23092">
        <ele>764.13</ele>
        <time>2026-04-23T10:08:57.217Z</time>
      </trkpt>
      <trkpt lat="44.21956" lon="3.23103">
        <ele>763.62</ele>
        <time>2026-04-23T10:09:02.217Z</time>
      </trkpt>
      <trkpt lat="44.21959" lon="3.23106">
        <ele>763.63</ele>
        <time>2026-04-23T10:09:07.217Z</time>
      </trkpt>
      <trkpt lat="44.21959" lon="3.23104">
        <ele>762.75</ele>
        <time>2026-04-23T10:09:15.217Z</time>
      </trkpt>
      <trkpt lat="44.21961" lon="3.23105">
        <ele>762.89</ele>
        <time>2026-04-23T10:09:20.217Z</time>
      </trkpt>
      <trkpt lat="44.21964" lon="3.23108">
        <ele>764.4</ele>
        <time>2026-04-23T10:09:25.218Z</time>
      </trkpt>
      <trkpt lat="44.21965" lon="3.23111">
        <ele>766.89</ele>
        <time>2026-04-23T10:09:31.217Z</time>
      </trkpt>
      <trkpt lat="44.21968" lon="3.23105">
        <ele>766.94</ele>
        <time>2026-04-23T10:09:36.276Z</time>
      </trkpt>
      <trkpt lat="44.21969" lon="3.23107">
        <ele>766.89</ele>
        <time>2026-04-23T10:09:42.358Z</time>
      </trkpt>
      <trkpt lat="44.2197" lon="3.2311">
        <ele>768.34</ele>
        <time>2026-04-23T10:09:48.157Z</time>
      </trkpt>
      <trkpt lat="44.21971" lon="3.23112">
        <ele>769.73</ele>
        <time>2026-04-23T10:09:53.343Z</time>
      </trkpt>
      <trkpt lat="44.21971" lon="3.23113">
        <ele>771.17</ele>
        <time>2026-04-23T10:10:00.310Z</time>
      </trkpt>
      <trkpt lat="44.21972" lon="3.23114">
        <ele>771.17</ele>
        <time>2026-04-23T10:10:05.431Z</time>
      </trkpt>
      <trkpt lat="44.21973" lon="3.23114">
        <ele>771.91</ele>
        <time>2026-04-23T10:10:17.382Z</time>
      </trkpt>
      <trkpt lat="44.21974" lon="3.23114">
        <ele>774.02</ele>
        <time>2026-04-23T10:10:22.406Z</time>
      </trkpt>
      <trkpt lat="44.21976" lon="3.23115">
        <ele>776.15</ele>
        <time>2026-04-23T10:10:28.208Z</time>
      </trkpt>
      <trkpt lat="44.21977" lon="3.23115">
        <ele>774.96</ele>
        <time>2026-04-23T10:10:33.290Z</time>
      </trkpt>
      <trkpt lat="44.21978" lon="3.23116">
        <ele>774.05</ele>
        <time>2026-04-23T10:10:40.341Z</time>
      </trkpt>
      <trkpt lat="44.21978" lon="3.23115">
        <ele>773.52</ele>
        <time>2026-04-23T10:10:49.304Z</time>
      </trkpt>
      <trkpt lat="44.21978" lon="3.23109">
        <ele>774.34</ele>
        <time>2026-04-23T10:10:54.319Z</time>
      </trkpt>
      <trkpt lat="44.21976" lon="3.23107">
        <ele>775.04</ele>
        <time>2026-04-23T10:10:59.334Z</time>
      </trkpt>
      <trkpt lat="44.21977" lon="3.23108">
        <ele>772.69</ele>
        <time>2026-04-23T10:11:10.802Z</time>
      </trkpt>
      <trkpt lat="44.21977" lon="3.2311">
        <ele>772.9</ele>
        <time>2026-04-23T10:11:16.301Z</time>
      </trkpt>
      <trkpt lat="44.21978" lon="3.23111">
        <ele>773.32</ele>
        <time>2026-04-23T10:11:21.316Z</time>
      </trkpt>
      <trkpt lat="44.2198" lon="3.23113">
        <ele>776.72</ele>
        <time>2026-04-23T10:11:26.748Z</time>
      </trkpt>
      <trkpt lat="44.21985" lon="3.23118">
        <ele>775.64</ele>
        <time>2026-04-23T10:11:31.964Z</time>
      </trkpt>
      <trkpt lat="44.21991" lon="3.23122">
        <ele>774.45</ele>
        <time>2026-04-23T10:11:37.167Z</time>
      </trkpt>
      <trkpt lat="44.21995" lon="3.23121">
        <ele>774.56</ele>
        <time>2026-04-23T10:11:42.338Z</time>
      </trkpt>
      <trkpt lat="44.21996" lon="3.23121">
        <ele>773.77</ele>
        <time>2026-04-23T10:11:50.341Z</time>
      </trkpt>
      <trkpt lat="44.21995" lon="3.23121">
        <ele>773.59</ele>
        <time>2026-04-23T10:11:55.904Z</time>
      </trkpt>
      <trkpt lat="44.21996" lon="3.23122">
        <ele>773.07</ele>
        <time>2026-04-23T10:12:01.825Z</time>
      </trkpt>
      <trkpt lat="44.22001" lon="3.23121">
        <ele>774.95</ele>
        <time>2026-04-23T10:12:07.308Z</time>
      </trkpt>
      <trkpt lat="44.22006" lon="3.23122">
        <ele>775.69</ele>
        <time>2026-04-23T10:12:13.181Z</time>
      </trkpt>
      <trkpt lat="44.22013" lon="3.23121">
        <ele>775.69</ele>
        <time>2026-04-23T10:12:18.283Z</time>
      </trkpt>
      <trkpt lat="44.22019" lon="3.23122">
        <ele>775.82</ele>
        <time>2026-04-23T10:12:23.313Z</time>
      </trkpt>
      <trkpt lat="44.22024" lon="3.23127">
        <ele>775.11</ele>
        <time>2026-04-23T10:12:29.105Z</time>
      </trkpt>
      <trkpt lat="44.22028" lon="3.23133">
        <ele>774.94</ele>
        <time>2026-04-23T10:12:34.303Z</time>
      </trkpt>
      <trkpt lat="44.22032" lon="3.23137">
        <ele>775.67</ele>
        <time>2026-04-23T10:12:39.783Z</time>
      </trkpt>
      <trkpt lat="44.22036" lon="3.23141">
        <ele>775.15</ele>
        <time>2026-04-23T10:12:45.294Z</time>
      </trkpt>
      <trkpt lat="44.22042" lon="3.23144">
        <ele>774.51</ele>
        <time>2026-04-23T10:12:51.262Z</time>
      </trkpt>
      <trkpt lat="44.22045" lon="3.23146">
        <ele>774.9</ele>
        <time>2026-04-23T10:12:56.288Z</time>
      </trkpt>
      <trkpt lat="44.22049" lon="3.2315">
        <ele>775.1</ele>
        <time>2026-04-23T10:13:01.428Z</time>
      </trkpt>
      <trkpt lat="44.22053" lon="3.23158">
        <ele>775.04</ele>
        <time>2026-04-23T10:13:07.260Z</time>
      </trkpt>
      <trkpt lat="44.22056" lon="3.23163">
        <ele>775.53</ele>
        <time>2026-04-23T10:13:12.289Z</time>
      </trkpt>
      <trkpt lat="44.2206" lon="3.23166">
        <ele>774.7</ele>
        <time>2026-04-23T10:13:17.304Z</time>
      </trkpt>
      <trkpt lat="44.22062" lon="3.23171">
        <ele>775.35</ele>
        <time>2026-04-23T10:13:23.079Z</time>
      </trkpt>
      <trkpt lat="44.22067" lon="3.2317">
        <ele>774.88</ele>
        <time>2026-04-23T10:13:28.294Z</time>
      </trkpt>
      <trkpt lat="44.2207" lon="3.23167">
        <ele>774.11</ele>
        <time>2026-04-23T10:13:33.340Z</time>
      </trkpt>
      <trkpt lat="44.22072" lon="3.23161">
        <ele>774.4</ele>
        <time>2026-04-23T10:13:39.233Z</time>
      </trkpt>
      <trkpt lat="44.22078" lon="3.23159">
        <ele>773.4</ele>
        <time>2026-04-23T10:13:44.539Z</time>
      </trkpt>
      <trkpt lat="44.22084" lon="3.23157">
        <ele>774.19</ele>
        <time>2026-04-23T10:13:50.155Z</time>
      </trkpt>
      <trkpt lat="44.2209" lon="3.23157">
        <ele>773.72</ele>
        <time>2026-04-23T10:13:56.040Z</time>
      </trkpt>
      <trkpt lat="44.22094" lon="3.23164">
        <ele>773.71</ele>
        <time>2026-04-23T10:14:01.263Z</time>
      </trkpt>
      <trkpt lat="44.22097" lon="3.2317">
        <ele>775.22</ele>
        <time>2026-04-23T10:14:06.852Z</time>
      </trkpt>
      <trkpt lat="44.221" lon="3.23175">
        <ele>774.63</ele>
        <time>2026-04-23T10:14:12.361Z</time>
      </trkpt>
      <trkpt lat="44.22103" lon="3.2318">
        <ele>775.52</ele>
        <time>2026-04-23T10:14:17.779Z</time>
      </trkpt>
      <trkpt lat="44.22106" lon="3.23187">
        <ele>774.52</ele>
        <time>2026-04-23T10:14:23.351Z</time>
      </trkpt>
      <trkpt lat="44.22109" lon="3.23193">
        <ele>774.35</ele>
        <time>2026-04-23T10:14:28.364Z</time>
      </trkpt>
      <trkpt lat="44.22114" lon="3.23195">
        <ele>775.6</ele>
        <time>2026-04-23T10:14:33.954Z</time>
      </trkpt>
      <trkpt lat="44.22118" lon="3.23198">
        <ele>775.52</ele>
        <time>2026-04-23T10:14:39.016Z</time>
      </trkpt>
      <trkpt lat="44.22123" lon="3.23201">
        <ele>776.94</ele>
        <time>2026-04-23T10:14:45.095Z</time>
      </trkpt>
      <trkpt lat="44.2213" lon="3.23206">
        <ele>776.69</ele>
        <time>2026-04-23T10:14:50.215Z</time>
      </trkpt>
      <trkpt lat="44.22136" lon="3.23209">
        <ele>776.86</ele>
        <time>2026-04-23T10:14:55.579Z</time>
      </trkpt>
      <trkpt lat="44.22139" lon="3.23211">
        <ele>778.06</ele>
        <time>2026-04-23T10:15:01.052Z</time>
      </trkpt>
      <trkpt lat="44.22141" lon="3.2322">
        <ele>777.84</ele>
        <time>2026-04-23T10:15:06.614Z</time>
      </trkpt>
      <trkpt lat="44.22141" lon="3.23229">
        <ele>778.61</ele>
        <time>2026-04-23T10:15:11.874Z</time>
      </trkpt>
      <trkpt lat="44.22138" lon="3.23235">
        <ele>777.83</ele>
        <time>2026-04-23T10:15:17.396Z</time>
      </trkpt>
      <trkpt lat="44.22137" lon="3.23238">
        <ele>776.48</ele>
        <time>2026-04-23T10:15:22.936Z</time>
      </trkpt>
      <trkpt lat="44.22137" lon="3.2324">
        <ele>777.2</ele>
        <time>2026-04-23T10:15:28.013Z</time>
      </trkpt>
      <trkpt lat="44.22138" lon="3.23243">
        <ele>776.93</ele>
        <time>2026-04-23T10:15:33.344Z</time>
      </trkpt>
      <trkpt lat="44.22139" lon="3.23247">
        <ele>777.17</ele>
        <time>2026-04-23T10:15:38.359Z</time>
      </trkpt>
      <trkpt lat="44.22139" lon="3.23259">
        <ele>776.64</ele>
        <time>2026-04-23T10:15:43.373Z</time>
      </trkpt>
      <trkpt lat="44.22137" lon="3.23272">
        <ele>775.88</ele>
        <time>2026-04-23T10:15:49.348Z</time>
      </trkpt>
      <trkpt lat="44.22135" lon="3.23281">
        <ele>776.76</ele>
        <time>2026-04-23T10:15:54.535Z</time>
      </trkpt>
      <trkpt lat="44.22139" lon="3.23286">
        <ele>776.32</ele>
        <time>2026-04-23T10:16:00.338Z</time>
      </trkpt>
      <trkpt lat="44.22145" lon="3.23291">
        <ele>776.4</ele>
        <time>2026-04-23T10:16:06.313Z</time>
      </trkpt>
      <trkpt lat="44.22147" lon="3.23297">
        <ele>776.1</ele>
        <time>2026-04-23T10:16:11.753Z</time>
      </trkpt>
      <trkpt lat="44.22147" lon="3.23305">
        <ele>775.46</ele>
        <time>2026-04-23T10:16:17.236Z</time>
      </trkpt>
      <trkpt lat="44.22143" lon="3.2331">
        <ele>775.6</ele>
        <time>2026-04-23T10:16:22.317Z</time>
      </trkpt>
      <trkpt lat="44.22141" lon="3.23314">
        <ele>775.9</ele>
        <time>2026-04-23T10:16:27.318Z</time>
      </trkpt>
      <trkpt lat="44.22142" lon="3.23318">
        <ele>776.26</ele>
        <time>2026-04-23T10:16:32.776Z</time>
      </trkpt>
      <trkpt lat="44.22141" lon="3.23327">
        <ele>776.84</ele>
        <time>2026-04-23T10:16:38.255Z</time>
      </trkpt>
      <trkpt lat="44.22141" lon="3.23335">
        <ele>775.83</ele>
        <time>2026-04-23T10:16:44.095Z</time>
      </trkpt>
      <trkpt lat="44.22142" lon="3.23343">
        <ele>776.26</ele>
        <time>2026-04-23T10:16:49.393Z</time>
      </trkpt>
      <trkpt lat="44.22145" lon="3.23349">
        <ele>776.06</ele>
        <time>2026-04-23T10:16:54.818Z</time>
      </trkpt>
      <trkpt lat="44.22147" lon="3.23354">
        <ele>776.08</ele>
        <time>2026-04-23T10:17:00.260Z</time>
      </trkpt>
      <trkpt lat="44.22147" lon="3.23359">
        <ele>777.06</ele>
        <time>2026-04-23T10:17:06.393Z</time>
      </trkpt>
      <trkpt lat="44.22145" lon="3.23367">
        <ele>776.38</ele>
        <time>2026-04-23T10:17:12.220Z</time>
      </trkpt>
      <trkpt lat="44.22145" lon="3.23371">
        <ele>777.02</ele>
        <time>2026-04-23T10:17:17.766Z</time>
      </trkpt>
      <trkpt lat="44.22144" lon="3.23377">
        <ele>777.91</ele>
        <time>2026-04-23T10:17:23.347Z</time>
      </trkpt>
      <trkpt lat="44.22144" lon="3.23379">
        <ele>778.54</ele>
        <time>2026-04-23T10:17:28.436Z</time>
      </trkpt>
      <trkpt lat="44.22146" lon="3.23388">
        <ele>778.45</ele>
        <time>2026-04-23T10:17:33.815Z</time>
      </trkpt>
      <trkpt lat="44.22149" lon="3.23393">
        <ele>778.06</ele>
        <time>2026-04-23T10:17:38.841Z</time>
      </trkpt>
      <trkpt lat="44.22151" lon="3.23394">
        <ele>777.64</ele>
        <time>2026-04-23T10:17:44.258Z</time>
      </trkpt>
      <trkpt lat="44.22152" lon="3.23396">
        <ele>777.63</ele>
        <time>2026-04-23T10:17:49.272Z</time>
      </trkpt>
      <trkpt lat="44.22156" lon="3.23402">
        <ele>778.03</ele>
        <time>2026-04-23T10:17:54.917Z</time>
      </trkpt>
      <trkpt lat="44.22162" lon="3.23407">
        <ele>777.72</ele>
        <time>2026-04-23T10:17:59.920Z</time>
      </trkpt>
      <trkpt lat="44.22168" lon="3.23406">
        <ele>776.93</ele>
        <time>2026-04-23T10:18:05.277Z</time>
      </trkpt>
      <trkpt lat="44.22173" lon="3.23399">
        <ele>777.17</ele>
        <time>2026-04-23T10:18:10.536Z</time>
      </trkpt>
      <trkpt lat="44.22175" lon="3.23394">
        <ele>778.3</ele>
        <time>2026-04-23T10:18:15.916Z</time>
      </trkpt>
      <trkpt lat="44.22179" lon="3.2339">
        <ele>778.17</ele>
        <time>2026-04-23T10:18:21.281Z</time>
      </trkpt>
      <trkpt lat="44.22182" lon="3.23388">
        <ele>778.01</ele>
        <time>2026-04-23T10:18:26.296Z</time>
      </trkpt>
      <trkpt lat="44.22182" lon="3.23386">
        <ele>776.74</ele>
        <time>2026-04-23T10:18:31.311Z</time>
      </trkpt>
      <trkpt lat="44.22183" lon="3.23385">
        <ele>777.4</ele>
        <time>2026-04-23T10:18:38.934Z</time>
      </trkpt>
      <trkpt lat="44.22185" lon="3.23384">
        <ele>777.69</ele>
        <time>2026-04-23T10:18:44.137Z</time>
      </trkpt>
      <trkpt lat="44.22185" lon="3.23382">
        <ele>777.45</ele>
        <time>2026-04-23T10:18:49.768Z</time>
      </trkpt>
      <trkpt lat="44.22186" lon="3.23374">
        <ele>777.53</ele>
        <time>2026-04-23T10:18:55.317Z</time>
      </trkpt>
      <trkpt lat="44.22188" lon="3.23367">
        <ele>776.62</ele>
        <time>2026-04-23T10:19:00.332Z</time>
      </trkpt>
      <trkpt lat="44.22193" lon="3.23369">
        <ele>777.75</ele>
        <time>2026-04-23T10:19:05.346Z</time>
      </trkpt>
      <trkpt lat="44.22197" lon="3.23375">
        <ele>778.51</ele>
        <time>2026-04-23T10:19:10.843Z</time>
      </trkpt>
      <trkpt lat="44.22198" lon="3.23379">
        <ele>779.88</ele>
        <time>2026-04-23T10:19:16.082Z</time>
      </trkpt>
      <trkpt lat="44.22199" lon="3.23376">
        <ele>780.84</ele>
        <time>2026-04-23T10:19:21.325Z</time>
      </trkpt>
      <trkpt lat="44.22203" lon="3.2337">
        <ele>781.59</ele>
        <time>2026-04-23T10:19:27.080Z</time>
      </trkpt>
      <trkpt lat="44.22212" lon="3.23373">
        <ele>781.6</ele>
        <time>2026-04-23T10:19:33.064Z</time>
      </trkpt>
      <trkpt lat="44.22219" lon="3.23374">
        <ele>781.72</ele>
        <time>2026-04-23T10:19:38.080Z</time>
      </trkpt>
      <trkpt lat="44.22225" lon="3.23378">
        <ele>781.4</ele>
        <time>2026-04-23T10:19:43.330Z</time>
      </trkpt>
      <trkpt lat="44.22227" lon="3.23381">
        <ele>780.82</ele>
        <time>2026-04-23T10:19:48.345Z</time>
      </trkpt>
      <trkpt lat="44.22229" lon="3.23385">
        <ele>781.04</ele>
        <time>2026-04-23T10:19:53.360Z</time>
      </trkpt>
      <trkpt lat="44.22232" lon="3.23387">
        <ele>781.56</ele>
        <time>2026-04-23T10:19:59.161Z</time>
      </trkpt>
      <trkpt lat="44.22236" lon="3.23392">
        <ele>783.2</ele>
        <time>2026-04-23T10:20:04.612Z</time>
      </trkpt>
      <trkpt lat="44.2224" lon="3.23399">
        <ele>783.34</ele>
        <time>2026-04-23T10:20:10.168Z</time>
      </trkpt>
      <trkpt lat="44.22244" lon="3.23403">
        <ele>783.34</ele>
        <time>2026-04-23T10:20:15.788Z</time>
      </trkpt>
      <trkpt lat="44.22245" lon="3.23404">
        <ele>783.03</ele>
        <time>2026-04-23T10:20:20.892Z</time>
      </trkpt>
      <trkpt lat="44.22248" lon="3.23407">
        <ele>782.77</ele>
        <time>2026-04-23T10:20:26.329Z</time>
      </trkpt>
      <trkpt lat="44.22251" lon="3.23415">
        <ele>782.3</ele>
        <time>2026-04-23T10:20:31.343Z</time>
      </trkpt>
      <trkpt lat="44.2225" lon="3.23423">
        <ele>782.02</ele>
        <time>2026-04-23T10:20:36.746Z</time>
      </trkpt>
      <trkpt lat="44.22251" lon="3.23428">
        <ele>782.04</ele>
        <time>2026-04-23T10:20:41.773Z</time>
      </trkpt>
      <trkpt lat="44.22251" lon="3.23432">
        <ele>780.94</ele>
        <time>2026-04-23T10:20:46.916Z</time>
      </trkpt>
      <trkpt lat="44.22251" lon="3.23435">
        <ele>780.68</ele>
        <time>2026-04-23T10:20:52.356Z</time>
      </trkpt>
      <trkpt lat="44.22251" lon="3.23437">
        <ele>779.91</ele>
        <time>2026-04-23T10:20:57.361Z</time>
      </trkpt>
      <trkpt lat="44.22248" lon="3.2344">
        <ele>779.88</ele>
        <time>2026-04-23T10:21:02.409Z</time>
      </trkpt>
      <trkpt lat="44.22241" lon="3.23443">
        <ele>779.22</ele>
        <time>2026-04-23T10:21:08.377Z</time>
      </trkpt>
      <trkpt lat="44.22236" lon="3.23443">
        <ele>778.45</ele>
        <time>2026-04-23T10:21:13.399Z</time>
      </trkpt>
      <trkpt lat="44.22237" lon="3.23445">
        <ele>777.45</ele>
        <time>2026-04-23T10:21:18.640Z</time>
      </trkpt>
      <trkpt lat="44.22237" lon="3.23452">
        <ele>776.61</ele>
        <time>2026-04-23T10:21:23.822Z</time>
      </trkpt>
      <trkpt lat="44.22236" lon="3.23451">
        <ele>777.71</ele>
        <time>2026-04-23T10:21:29.041Z</time>
      </trkpt>
      <trkpt lat="44.22237" lon="3.23455">
        <ele>778.41</ele>
        <time>2026-04-23T10:21:34.191Z</time>
      </trkpt>
      <trkpt lat="44.22237" lon="3.23464">
        <ele>778.76</ele>
        <time>2026-04-23T10:21:39.641Z</time>
      </trkpt>
      <trkpt lat="44.22239" lon="3.23469">
        <ele>779.44</ele>
        <time>2026-04-23T10:21:45.208Z</time>
      </trkpt>
      <trkpt lat="44.2224" lon="3.23471">
        <ele>780.07</ele>
        <time>2026-04-23T10:21:50.543Z</time>
      </trkpt>
      <trkpt lat="44.22239" lon="3.23477">
        <ele>780.62</ele>
        <time>2026-04-23T10:21:56.319Z</time>
      </trkpt>
      <trkpt lat="44.2224" lon="3.23486">
        <ele>781.92</ele>
        <time>2026-04-23T10:22:01.984Z</time>
      </trkpt>
      <trkpt lat="44.22243" lon="3.23491">
        <ele>782.02</ele>
        <time>2026-04-23T10:22:07.046Z</time>
      </trkpt>
      <trkpt lat="44.22244" lon="3.23495">
        <ele>782.56</ele>
        <time>2026-04-23T10:22:12.320Z</time>
      </trkpt>
      <trkpt lat="44.22246" lon="3.23501">
        <ele>783.52</ele>
        <time>2026-04-23T10:22:18.024Z</time>
      </trkpt>
      <trkpt lat="44.22247" lon="3.23506">
        <ele>783.79</ele>
        <time>2026-04-23T10:22:23.417Z</time>
      </trkpt>
      <trkpt lat="44.22248" lon="3.23508">
        <ele>784.3</ele>
        <time>2026-04-23T10:22:28.480Z</time>
      </trkpt>
      <trkpt lat="44.22252" lon="3.23509">
        <ele>785.14</ele>
        <time>2026-04-23T10:22:33.751Z</time>
      </trkpt>
      <trkpt lat="44.22254" lon="3.2351">
        <ele>786.15</ele>
        <time>2026-04-23T10:22:38.864Z</time>
      </trkpt>
      <trkpt lat="44.22258" lon="3.2351">
        <ele>786.52</ele>
        <time>2026-04-23T10:22:44.333Z</time>
      </trkpt>
      <trkpt lat="44.22262" lon="3.23514">
        <ele>786.8</ele>
        <time>2026-04-23T10:22:50.321Z</time>
      </trkpt>
      <trkpt lat="44.22263" lon="3.23514">
        <ele>787.21</ele>
        <time>2026-04-23T10:22:55.336Z</time>
      </trkpt>
      <trkpt lat="44.22269" lon="3.23515">
        <ele>787.5</ele>
        <time>2026-04-23T10:23:00.350Z</time>
      </trkpt>
      <trkpt lat="44.22271" lon="3.23513">
        <ele>788.28</ele>
        <time>2026-04-23T10:23:05.365Z</time>
      </trkpt>
      <trkpt lat="44.22276" lon="3.23513">
        <ele>788.47</ele>
        <time>2026-04-23T10:23:10.380Z</time>
      </trkpt>
      <trkpt lat="44.2228" lon="3.23519">
        <ele>788.05</ele>
        <time>2026-04-23T10:23:15.753Z</time>
      </trkpt>
      <trkpt lat="44.22282" lon="3.23522">
        <ele>787.64</ele>
        <time>2026-04-23T10:23:21.009Z</time>
      </trkpt>
      <trkpt lat="44.22283" lon="3.23523">
        <ele>785.76</ele>
        <time>2026-04-23T10:23:30.806Z</time>
      </trkpt>
      <trkpt lat="44.22284" lon="3.23523">
        <ele>785.23</ele>
        <time>2026-04-23T10:23:37.268Z</time>
      </trkpt>
      <trkpt lat="44.22288" lon="3.23527">
        <ele>784.76</ele>
        <time>2026-04-23T10:23:42.619Z</time>
      </trkpt>
      <trkpt lat="44.22295" lon="3.23533">
        <ele>784.57</ele>
        <time>2026-04-23T10:23:47.868Z</time>
      </trkpt>
      <trkpt lat="44.223" lon="3.23537">
        <ele>785.03</ele>
        <time>2026-04-23T10:23:52.875Z</time>
      </trkpt>
      <trkpt lat="44.22302" lon="3.2354">
        <ele>784.39</ele>
        <time>2026-04-23T10:23:58.400Z</time>
      </trkpt>
      <trkpt lat="44.22302" lon="3.23542">
        <ele>784.09</ele>
        <time>2026-04-23T10:24:04.113Z</time>
      </trkpt>
      <trkpt lat="44.22302" lon="3.23543">
        <ele>783.13</ele>
        <time>2026-04-23T10:24:09.392Z</time>
      </trkpt>
      <trkpt lat="44.22304" lon="3.23546">
        <ele>781.74</ele>
        <time>2026-04-23T10:24:15.258Z</time>
      </trkpt>
      <trkpt lat="44.22305" lon="3.23548">
        <ele>781.3</ele>
        <time>2026-04-23T10:24:20.379Z</time>
      </trkpt>
      <trkpt lat="44.22306" lon="3.23549">
        <ele>779.99</ele>
        <time>2026-04-23T10:24:26.354Z</time>
      </trkpt>
      <trkpt lat="44.22306" lon="3.23551">
        <ele>779.43</ele>
        <time>2026-04-23T10:24:31.369Z</time>
      </trkpt>
      <trkpt lat="44.22306" lon="3.23558">
        <ele>778.56</ele>
        <time>2026-04-23T10:24:36.834Z</time>
      </trkpt>
      <trkpt lat="44.22305" lon="3.23565">
        <ele>777.26</ele>
        <time>2026-04-23T10:24:42.358Z</time>
      </trkpt>
      <trkpt lat="44.22304" lon="3.23572">
        <ele>777.3</ele>
        <time>2026-04-23T10:24:47.399Z</time>
      </trkpt>
      <trkpt lat="44.22305" lon="3.23578">
        <ele>777.39</ele>
        <time>2026-04-23T10:24:53.413Z</time>
      </trkpt>
      <trkpt lat="44.22306" lon="3.23581">
        <ele>777.7</ele>
        <time>2026-04-23T10:24:58.430Z</time>
      </trkpt>
      <trkpt lat="44.22307" lon="3.23582">
        <ele>776.34</ele>
        <time>2026-04-23T10:25:08.311Z</time>
      </trkpt>
      <trkpt lat="44.22308" lon="3.23584">
        <ele>776.1</ele>
        <time>2026-04-23T10:25:14.014Z</time>
      </trkpt>
      <trkpt lat="44.2231" lon="3.23589">
        <ele>775.86</ele>
        <time>2026-04-23T10:25:19.277Z</time>
      </trkpt>
      <trkpt lat="44.22314" lon="3.23595">
        <ele>775.17</ele>
        <time>2026-04-23T10:25:24.457Z</time>
      </trkpt>
      <trkpt lat="44.2232" lon="3.23596">
        <ele>774.25</ele>
        <time>2026-04-23T10:25:30.160Z</time>
      </trkpt>
      <trkpt lat="44.22325" lon="3.23597">
        <ele>773.98</ele>
        <time>2026-04-23T10:25:35.313Z</time>
      </trkpt>
      <trkpt lat="44.22329" lon="3.23601">
        <ele>774.02</ele>
        <time>2026-04-23T10:25:41.061Z</time>
      </trkpt>
      <trkpt lat="44.22333" lon="3.23605">
        <ele>775.31</ele>
        <time>2026-04-23T10:25:46.302Z</time>
      </trkpt>
      <trkpt lat="44.22336" lon="3.23604">
        <ele>775.86</ele>
        <time>2026-04-23T10:25:51.357Z</time>
      </trkpt>
      <trkpt lat="44.22342" lon="3.23604">
        <ele>776.53</ele>
        <time>2026-04-23T10:25:57.144Z</time>
      </trkpt>
      <trkpt lat="44.22347" lon="3.23604">
        <ele>777.01</ele>
        <time>2026-04-23T10:26:02.306Z</time>
      </trkpt>
      <trkpt lat="44.22351" lon="3.23604">
        <ele>777.53</ele>
        <time>2026-04-23T10:26:08.037Z</time>
      </trkpt>
      <trkpt lat="44.22354" lon="3.23601">
        <ele>777.79</ele>
        <time>2026-04-23T10:26:13.058Z</time>
      </trkpt>
      <trkpt lat="44.22357" lon="3.236">
        <ele>778.84</ele>
        <time>2026-04-23T10:26:18.162Z</time>
      </trkpt>
      <trkpt lat="44.22357" lon="3.23599">
        <ele>779.7</ele>
        <time>2026-04-23T10:26:27.378Z</time>
      </trkpt>
      <trkpt lat="44.22357" lon="3.23598">
        <ele>780.55</ele>
        <time>2026-04-23T10:26:37.300Z</time>
      </trkpt>
      <trkpt lat="44.22358" lon="3.23596">
        <ele>783.22</ele>
        <time>2026-04-23T10:26:42.316Z</time>
      </trkpt>
      <trkpt lat="44.22359" lon="3.23595">
        <ele>782.17</ele>
        <time>2026-04-23T10:26:48.917Z</time>
      </trkpt>
      <trkpt lat="44.2236" lon="3.23593">
        <ele>781.89</ele>
        <time>2026-04-23T10:26:54.372Z</time>
      </trkpt>
      <trkpt lat="44.22361" lon="3.2359">
        <ele>781.64</ele>
        <time>2026-04-23T10:26:59.386Z</time>
      </trkpt>
      <trkpt lat="44.22365" lon="3.23583">
        <ele>782.84</ele>
        <time>2026-04-23T10:27:05.370Z</time>
      </trkpt>
      <trkpt lat="44.22369" lon="3.23575">
        <ele>782.56</ele>
        <time>2026-04-23T10:27:11.345Z</time>
      </trkpt>
      <trkpt lat="44.22372" lon="3.2357">
        <ele>782.35</ele>
        <time>2026-04-23T10:27:16.359Z</time>
      </trkpt>
      <trkpt lat="44.22373" lon="3.23568">
        <ele>782.16</ele>
        <time>2026-04-23T10:27:21.373Z</time>
      </trkpt>
      <trkpt lat="44.22375" lon="3.23566">
        <ele>782.08</ele>
        <time>2026-04-23T10:27:26.388Z</time>
      </trkpt>
      <trkpt lat="44.22376" lon="3.23564">
        <ele>781.55</ele>
        <time>2026-04-23T10:27:32.011Z</time>
      </trkpt>
      <trkpt lat="44.22381" lon="3.23558">
        <ele>781</ele>
        <time>2026-04-23T10:27:37.377Z</time>
      </trkpt>
      <trkpt lat="44.22382" lon="3.23556">
        <ele>780.63</ele>
        <time>2026-04-23T10:27:43.182Z</time>
      </trkpt>
      <trkpt lat="44.22383" lon="3.23554">
        <ele>780.28</ele>
        <time>2026-04-23T10:27:48.307Z</time>
      </trkpt>
      <trkpt lat="44.2239" lon="3.23552">
        <ele>779.46</ele>
        <time>2026-04-23T10:27:54.264Z</time>
      </trkpt>
      <trkpt lat="44.22395" lon="3.23554">
        <ele>779.63</ele>
        <time>2026-04-23T10:27:59.402Z</time>
      </trkpt>
      <trkpt lat="44.22401" lon="3.23554">
        <ele>779.48</ele>
        <time>2026-04-23T10:28:05.140Z</time>
      </trkpt>
      <trkpt lat="44.22405" lon="3.23552">
        <ele>778.87</ele>
        <time>2026-04-23T10:28:10.322Z</time>
      </trkpt>
      <trkpt lat="44.22409" lon="3.23549">
        <ele>778.63</ele>
        <time>2026-04-23T10:28:15.378Z</time>
      </trkpt>
      <trkpt lat="44.22411" lon="3.23546">
        <ele>778.92</ele>
        <time>2026-04-23T10:28:20.841Z</time>
      </trkpt>
      <trkpt lat="44.22412" lon="3.23544">
        <ele>779.69</ele>
        <time>2026-04-23T10:28:25.925Z</time>
      </trkpt>
      <trkpt lat="44.22417" lon="3.23539">
        <ele>780.36</ele>
        <time>2026-04-23T10:28:31.381Z</time>
      </trkpt>
      <trkpt lat="44.22419" lon="3.23541">
        <ele>780.25</ele>
        <time>2026-04-23T10:28:37.279Z</time>
      </trkpt>
      <trkpt lat="44.2242" lon="3.2354">
        <ele>781.22</ele>
        <time>2026-04-23T10:28:42.371Z</time>
      </trkpt>
      <trkpt lat="44.22423" lon="3.23539">
        <ele>782.26</ele>
        <time>2026-04-23T10:28:47.384Z</time>
      </trkpt>
      <trkpt lat="44.22424" lon="3.23539">
        <ele>782.94</ele>
        <time>2026-04-23T10:28:53.360Z</time>
      </trkpt>
      <trkpt lat="44.22426" lon="3.23538">
        <ele>784.48</ele>
        <time>2026-04-23T10:28:58.904Z</time>
      </trkpt>
      <trkpt lat="44.2243" lon="3.23537">
        <ele>784.64</ele>
        <time>2026-04-23T10:29:04.201Z</time>
      </trkpt>
      <trkpt lat="44.22434" lon="3.23536">
        <ele>784.77</ele>
        <time>2026-04-23T10:29:09.945Z</time>
      </trkpt>
      <trkpt lat="44.22435" lon="3.23534">
        <ele>784.73</ele>
        <time>2026-04-23T10:29:15.102Z</time>
      </trkpt>
      <trkpt lat="44.22437" lon="3.23532">
        <ele>784.74</ele>
        <time>2026-04-23T10:29:20.872Z</time>
      </trkpt>
      <trkpt lat="44.22442" lon="3.23529">
        <ele>785.61</ele>
        <time>2026-04-23T10:29:26.055Z</time>
      </trkpt>
      <trkpt lat="44.22446" lon="3.23529">
        <ele>786.44</ele>
        <time>2026-04-23T10:29:31.098Z</time>
      </trkpt>
      <trkpt lat="44.22449" lon="3.23533">
        <ele>786.61</ele>
        <time>2026-04-23T10:29:36.374Z</time>
      </trkpt>
      <trkpt lat="44.22452" lon="3.23541">
        <ele>787.2</ele>
        <time>2026-04-23T10:29:42.236Z</time>
      </trkpt>
      <trkpt lat="44.22452" lon="3.23545">
        <ele>787.32</ele>
        <time>2026-04-23T10:29:48.176Z</time>
      </trkpt>
      <trkpt lat="44.22451" lon="3.2355">
        <ele>787.82</ele>
        <time>2026-04-23T10:29:54.274Z</time>
      </trkpt>
      <trkpt lat="44.22447" lon="3.23558">
        <ele>786.97</ele>
        <time>2026-04-23T10:29:59.574Z</time>
      </trkpt>
      <trkpt lat="44.22444" lon="3.23564">
        <ele>786.47</ele>
        <time>2026-04-23T10:30:05.370Z</time>
      </trkpt>
      <trkpt lat="44.22444" lon="3.23565">
        <ele>786.47</ele>
        <time>2026-04-23T10:30:10.857Z</time>
      </trkpt>
      <trkpt lat="44.22443" lon="3.23567">
        <ele>786.4</ele>
        <time>2026-04-23T10:30:16.767Z</time>
      </trkpt>
      <trkpt lat="44.2244" lon="3.23574">
        <ele>786.23</ele>
        <time>2026-04-23T10:30:21.794Z</time>
      </trkpt>
      <trkpt lat="44.22437" lon="3.23583">
        <ele>785.44</ele>
        <time>2026-04-23T10:30:26.814Z</time>
      </trkpt>
      <trkpt lat="44.22433" lon="3.23593">
        <ele>784.81</ele>
        <time>2026-04-23T10:30:32.151Z</time>
      </trkpt>
      <trkpt lat="44.2243" lon="3.23597">
        <ele>784.78</ele>
        <time>2026-04-23T10:30:37.175Z</time>
      </trkpt>
      <trkpt lat="44.2243" lon="3.23599">
        <ele>785.63</ele>
        <time>2026-04-23T10:30:43.975Z</time>
      </trkpt>
      <trkpt lat="44.22429" lon="3.23603">
        <ele>785.71</ele>
        <time>2026-04-23T10:30:49.034Z</time>
      </trkpt>
      <trkpt lat="44.2243" lon="3.23604">
        <ele>786.31</ele>
        <time>2026-04-23T10:30:54.929Z</time>
      </trkpt>
      <trkpt lat="44.22429" lon="3.23606">
        <ele>785.03</ele>
        <time>2026-04-23T10:31:00.340Z</time>
      </trkpt>
      <trkpt lat="44.2243" lon="3.23607">
        <ele>784.19</ele>
        <time>2026-04-23T10:31:10.369Z</time>
      </trkpt>
      <trkpt lat="44.22431" lon="3.23613">
        <ele>783.8</ele>
        <time>2026-04-23T10:31:16.214Z</time>
      </trkpt>
      <trkpt lat="44.22432" lon="3.2362">
        <ele>783.59</ele>
        <time>2026-04-23T10:31:21.359Z</time>
      </trkpt>
      <trkpt lat="44.22429" lon="3.23626">
        <ele>783.16</ele>
        <time>2026-04-23T10:31:27.193Z</time>
      </trkpt>
      <trkpt lat="44.22429" lon="3.2363">
        <ele>783.96</ele>
        <time>2026-04-23T10:31:32.348Z</time>
      </trkpt>
      <trkpt lat="44.22428" lon="3.23634">
        <ele>784.1</ele>
        <time>2026-04-23T10:31:38.060Z</time>
      </trkpt>
      <trkpt lat="44.22429" lon="3.23637">
        <ele>783.86</ele>
        <time>2026-04-23T10:31:43.544Z</time>
      </trkpt>
      <trkpt lat="44.22431" lon="3.23639">
        <ele>784.46</ele>
        <time>2026-04-23T10:31:49.418Z</time>
      </trkpt>
      <trkpt lat="44.22433" lon="3.23641">
        <ele>783.8</ele>
        <time>2026-04-23T10:31:55.085Z</time>
      </trkpt>
      <trkpt lat="44.22435" lon="3.23644">
        <ele>782.76</ele>
        <time>2026-04-23T10:32:00.301Z</time>
      </trkpt>
      <trkpt lat="44.22436" lon="3.23646">
        <ele>782.42</ele>
        <time>2026-04-23T10:32:06.377Z</time>
      </trkpt>
      <trkpt lat="44.22437" lon="3.2365">
        <ele>782.62</ele>
        <time>2026-04-23T10:32:12.384Z</time>
      </trkpt>
      <trkpt lat="44.22437" lon="3.23653">
        <ele>783.31</ele>
        <time>2026-04-23T10:32:17.747Z</time>
      </trkpt>
      <trkpt lat="44.22441" lon="3.2366">
        <ele>783.73</ele>
        <time>2026-04-23T10:32:23.154Z</time>
      </trkpt>
      <trkpt lat="44.22444" lon="3.23666">
        <ele>783.14</ele>
        <time>2026-04-23T10:32:29.217Z</time>
      </trkpt>
      <trkpt lat="44.22446" lon="3.23671">
        <ele>783.6</ele>
        <time>2026-04-23T10:32:34.355Z</time>
      </trkpt>
      <trkpt lat="44.22446" lon="3.23672">
        <ele>785.22</ele>
        <time>2026-04-23T10:32:39.376Z</time>
      </trkpt>
      <trkpt lat="44.22447" lon="3.23672">
        <ele>785.85</ele>
        <time>2026-04-23T10:32:44.955Z</time>
      </trkpt>
      <trkpt lat="44.22448" lon="3.23672">
        <ele>787.18</ele>
        <time>2026-04-23T10:32:50.374Z</time>
      </trkpt>
      <trkpt lat="44.2245" lon="3.23674">
        <ele>787.57</ele>
        <time>2026-04-23T10:32:55.775Z</time>
      </trkpt>
      <trkpt lat="44.22453" lon="3.23678">
        <ele>787.78</ele>
        <time>2026-04-23T10:33:01.364Z</time>
      </trkpt>
      <trkpt lat="44.22455" lon="3.23682">
        <ele>787.69</ele>
        <time>2026-04-23T10:33:06.378Z</time>
      </trkpt>
      <trkpt lat="44.22455" lon="3.23683">
        <ele>787.9</ele>
        <time>2026-04-23T10:33:11.393Z</time>
      </trkpt>
      <trkpt lat="44.22456" lon="3.23685">
        <ele>788.02</ele>
        <time>2026-04-23T10:33:16.861Z</time>
      </trkpt>
      <trkpt lat="44.22457" lon="3.23689">
        <ele>788.23</ele>
        <time>2026-04-23T10:33:22.382Z</time>
      </trkpt>
      <trkpt lat="44.2246" lon="3.23691">
        <ele>787.82</ele>
        <time>2026-04-23T10:33:27.900Z</time>
      </trkpt>
      <trkpt lat="44.22461" lon="3.23692">
        <ele>787.11</ele>
        <time>2026-04-23T10:33:33.371Z</time>
      </trkpt>
      <trkpt lat="44.22462" lon="3.23695">
        <ele>786.72</ele>
        <time>2026-04-23T10:33:38.385Z</time>
      </trkpt>
      <trkpt lat="44.22462" lon="3.23696">
        <ele>786.64</ele>
        <time>2026-04-23T10:33:43.400Z</time>
      </trkpt>
      <trkpt lat="44.22462" lon="3.23697">
        <ele>785.96</ele>
        <time>2026-04-23T10:33:52.362Z</time>
      </trkpt>
      <trkpt lat="44.22461" lon="3.23703">
        <ele>785.54</ele>
        <time>2026-04-23T10:33:58.216Z</time>
      </trkpt>
      <trkpt lat="44.2246" lon="3.23706">
        <ele>784.29</ele>
        <time>2026-04-23T10:34:03.350Z</time>
      </trkpt>
      <trkpt lat="44.22459" lon="3.23708">
        <ele>784.12</ele>
        <time>2026-04-23T10:34:09.433Z</time>
      </trkpt>
      <trkpt lat="44.22459" lon="3.23712">
        <ele>783.09</ele>
        <time>2026-04-23T10:34:14.914Z</time>
      </trkpt>
      <trkpt lat="44.22459" lon="3.23719">
        <ele>782.23</ele>
        <time>2026-04-23T10:34:20.314Z</time>
      </trkpt>
      <trkpt lat="44.2246" lon="3.23721">
        <ele>780.7</ele>
        <time>2026-04-23T10:34:25.330Z</time>
      </trkpt>
      <trkpt lat="44.22461" lon="3.23722">
        <ele>780.06</ele>
        <time>2026-04-23T10:34:30.534Z</time>
      </trkpt>
      <trkpt lat="44.22464" lon="3.2373">
        <ele>779.06</ele>
        <time>2026-04-23T10:34:35.774Z</time>
      </trkpt>
      <trkpt lat="44.22467" lon="3.23736">
        <ele>778.71</ele>
        <time>2026-04-23T10:34:41.333Z</time>
      </trkpt>
      <trkpt lat="44.22469" lon="3.23742">
        <ele>777.88</ele>
        <time>2026-04-23T10:34:46.769Z</time>
      </trkpt>
      <trkpt lat="44.22468" lon="3.23745">
        <ele>776.55</ele>
        <time>2026-04-23T10:34:51.811Z</time>
      </trkpt>
      <trkpt lat="44.22466" lon="3.23745">
        <ele>775.67</ele>
        <time>2026-04-23T10:34:56.897Z</time>
      </trkpt>
      <trkpt lat="44.22466" lon="3.23744">
        <ele>775.13</ele>
        <time>2026-04-23T10:35:02.458Z</time>
      </trkpt>
      <trkpt lat="44.22466" lon="3.23745">
        <ele>775.02</ele>
        <time>2026-04-23T10:35:09.877Z</time>
      </trkpt>
      <trkpt lat="44.2247" lon="3.23756">
        <ele>773.16</ele>
        <time>2026-04-23T10:35:15.450Z</time>
      </trkpt>
      <trkpt lat="44.22478" lon="3.23757">
        <ele>771.36</ele>
        <time>2026-04-23T10:35:20.457Z</time>
      </trkpt>
      <trkpt lat="44.22479" lon="3.23758">
        <ele>769.9</ele>
        <time>2026-04-23T10:35:26.357Z</time>
      </trkpt>
      <trkpt lat="44.22479" lon="3.2376">
        <ele>769.36</ele>
        <time>2026-04-23T10:35:33.398Z</time>
      </trkpt>
      <trkpt lat="44.2248" lon="3.2376">
        <ele>769.39</ele>
        <time>2026-04-23T10:35:39.332Z</time>
      </trkpt>
      <trkpt lat="44.22488" lon="3.23761">
        <ele>768.27</ele>
        <time>2026-04-23T10:35:45.111Z</time>
      </trkpt>
      <trkpt lat="44.22492" lon="3.23765">
        <ele>766.95</ele>
        <time>2026-04-23T10:35:50.677Z</time>
      </trkpt>
      <trkpt lat="44.22496" lon="3.23765">
        <ele>765.42</ele>
        <time>2026-04-23T10:35:55.852Z</time>
      </trkpt>
      <trkpt lat="44.22497" lon="3.23767">
        <ele>764.64</ele>
        <time>2026-04-23T10:36:01.354Z</time>
      </trkpt>
      <trkpt lat="44.22499" lon="3.23766">
        <ele>763.67</ele>
        <time>2026-04-23T10:36:07.634Z</time>
      </trkpt>
      <trkpt lat="44.22506" lon="3.23761">
        <ele>762.65</ele>
        <time>2026-04-23T10:36:13.294Z</time>
      </trkpt>
      <trkpt lat="44.22512" lon="3.23763">
        <ele>761.97</ele>
        <time>2026-04-23T10:36:18.469Z</time>
      </trkpt>
      <trkpt lat="44.22517" lon="3.23766">
        <ele>760.94</ele>
        <time>2026-04-23T10:36:24.102Z</time>
      </trkpt>
      <trkpt lat="44.22519" lon="3.23768">
        <ele>760.36</ele>
        <time>2026-04-23T10:36:29.304Z</time>
      </trkpt>
      <trkpt lat="44.2252" lon="3.23767">
        <ele>760.29</ele>
        <time>2026-04-23T10:36:34.767Z</time>
      </trkpt>
      <trkpt lat="44.22524" lon="3.23761">
        <ele>760.64</ele>
        <time>2026-04-23T10:36:40.293Z</time>
      </trkpt>
      <trkpt lat="44.22531" lon="3.23757">
        <ele>760.58</ele>
        <time>2026-04-23T10:36:46.175Z</time>
      </trkpt>
      <trkpt lat="44.22535" lon="3.23753">
        <ele>759.89</ele>
        <time>2026-04-23T10:36:51.398Z</time>
      </trkpt>
      <trkpt lat="44.22541" lon="3.23751">
        <ele>759.88</ele>
        <time>2026-04-23T10:36:57.118Z</time>
      </trkpt>
      <trkpt lat="44.22547" lon="3.23747">
        <ele>759.93</ele>
        <time>2026-04-23T10:37:03.073Z</time>
      </trkpt>
      <trkpt lat="44.22554" lon="3.23748">
        <ele>758.67</ele>
        <time>2026-04-23T10:37:08.255Z</time>
      </trkpt>
      <trkpt lat="44.22559" lon="3.23751">
        <ele>758.7</ele>
        <time>2026-04-23T10:37:13.376Z</time>
      </trkpt>
      <trkpt lat="44.22563" lon="3.23749">
        <ele>759</ele>
        <time>2026-04-23T10:37:18.391Z</time>
      </trkpt>
      <trkpt lat="44.22565" lon="3.23746">
        <ele>758.69</ele>
        <time>2026-04-23T10:37:23.579Z</time>
      </trkpt>
      <trkpt lat="44.22569" lon="3.23741">
        <ele>758.57</ele>
        <time>2026-04-23T10:37:29.205Z</time>
      </trkpt>
      <trkpt lat="44.22574" lon="3.23741">
        <ele>757.82</ele>
        <time>2026-04-23T10:37:34.394Z</time>
      </trkpt>
      <trkpt lat="44.22578" lon="3.2374">
        <ele>756.79</ele>
        <time>2026-04-23T10:37:40.369Z</time>
      </trkpt>
      <trkpt lat="44.2258" lon="3.23737">
        <ele>756.05</ele>
        <time>2026-04-23T10:37:45.383Z</time>
      </trkpt>
      <trkpt lat="44.22584" lon="3.23736">
        <ele>754.84</ele>
        <time>2026-04-23T10:37:50.963Z</time>
      </trkpt>
      <trkpt lat="44.22585" lon="3.23731">
        <ele>754.34</ele>
        <time>2026-04-23T10:37:56.372Z</time>
      </trkpt>
      <trkpt lat="44.22587" lon="3.23727">
        <ele>753.13</ele>
        <time>2026-04-23T10:38:01.764Z</time>
      </trkpt>
      <trkpt lat="44.22588" lon="3.2372">
        <ele>752.16</ele>
        <time>2026-04-23T10:38:07.361Z</time>
      </trkpt>
      <trkpt lat="44.22591" lon="3.23716">
        <ele>751.82</ele>
        <time>2026-04-23T10:38:12.724Z</time>
      </trkpt>
      <trkpt lat="44.22596" lon="3.23712">
        <ele>750.6</ele>
        <time>2026-04-23T10:38:18.058Z</time>
      </trkpt>
      <trkpt lat="44.22599" lon="3.23706">
        <ele>751.36</ele>
        <time>2026-04-23T10:38:23.365Z</time>
      </trkpt>
      <trkpt lat="44.22603" lon="3.237">
        <ele>751.91</ele>
        <time>2026-04-23T10:38:28.845Z</time>
      </trkpt>
      <trkpt lat="44.22606" lon="3.23697">
        <ele>751.39</ele>
        <time>2026-04-23T10:38:34.039Z</time>
      </trkpt>
      <trkpt lat="44.22609" lon="3.23694">
        <ele>752.29</ele>
        <time>2026-04-23T10:38:39.369Z</time>
      </trkpt>
      <trkpt lat="44.22613" lon="3.23695">
        <ele>752.6</ele>
        <time>2026-04-23T10:38:44.582Z</time>
      </trkpt>
      <trkpt lat="44.22616" lon="3.23697">
        <ele>751.73</ele>
        <time>2026-04-23T10:38:50.023Z</time>
      </trkpt>
      <trkpt lat="44.22618" lon="3.23698">
        <ele>752.13</ele>
        <time>2026-04-23T10:38:55.359Z</time>
      </trkpt>
      <trkpt lat="44.22623" lon="3.23699">
        <ele>751.79</ele>
        <time>2026-04-23T10:39:01.119Z</time>
      </trkpt>
      <trkpt lat="44.22628" lon="3.237">
        <ele>750.95</ele>
        <time>2026-04-23T10:39:06.339Z</time>
      </trkpt>
      <trkpt lat="44.22633" lon="3.23702">
        <ele>750.59</ele>
        <time>2026-04-23T10:39:11.377Z</time>
      </trkpt>
      <trkpt lat="44.22638" lon="3.23703">
        <ele>750.53</ele>
        <time>2026-04-23T10:39:16.411Z</time>
      </trkpt>
      <trkpt lat="44.22641" lon="3.23702">
        <ele>750.33</ele>
        <time>2026-04-23T10:39:21.980Z</time>
      </trkpt>
      <trkpt lat="44.22644" lon="3.23704">
        <ele>750.23</ele>
        <time>2026-04-23T10:39:27.381Z</time>
      </trkpt>
      <trkpt lat="44.22651" lon="3.23706">
        <ele>751.92</ele>
        <time>2026-04-23T10:39:33.403Z</time>
      </trkpt>
      <trkpt lat="44.22653" lon="3.23707">
        <ele>752.39</ele>
        <time>2026-04-23T10:39:39.360Z</time>
      </trkpt>
      <trkpt lat="44.22654" lon="3.23705">
        <ele>752.07</ele>
        <time>2026-04-23T10:39:44.836Z</time>
      </trkpt>
      <trkpt lat="44.22654" lon="3.237">
        <ele>751.51</ele>
        <time>2026-04-23T10:39:49.939Z</time>
      </trkpt>
      <trkpt lat="44.22656" lon="3.23694">
        <ele>751.99</ele>
        <time>2026-04-23T10:39:55.335Z</time>
      </trkpt>
      <trkpt lat="44.22657" lon="3.23693">
        <ele>750.9</ele>
        <time>2026-04-23T10:40:10.826Z</time>
      </trkpt>
      <trkpt lat="44.22662" lon="3.23687">
        <ele>751.29</ele>
        <time>2026-04-23T10:40:16.331Z</time>
      </trkpt>
      <trkpt lat="44.22667" lon="3.23683">
        <ele>751.73</ele>
        <time>2026-04-23T10:40:22.047Z</time>
      </trkpt>
      <trkpt lat="44.22667" lon="3.23681">
        <ele>750.35</ele>
        <time>2026-04-23T10:40:28.313Z</time>
      </trkpt>
      <trkpt lat="44.22667" lon="3.23684">
        <ele>750.23</ele>
        <time>2026-04-23T10:40:33.336Z</time>
      </trkpt>
      <trkpt lat="44.22666" lon="3.23684">
        <ele>749.95</ele>
        <time>2026-04-23T10:40:39.312Z</time>
      </trkpt>
      <trkpt lat="44.22666" lon="3.23683">
        <ele>749.71</ele>
        <time>2026-04-23T10:40:44.327Z</time>
      </trkpt>
      <trkpt lat="44.22666" lon="3.23685">
        <ele>750.69</ele>
        <time>2026-04-23T10:41:05.346Z</time>
      </trkpt>
      <trkpt lat="44.22664" lon="3.23696">
        <ele>753.03</ele>
        <time>2026-04-23T10:41:11.321Z</time>
      </trkpt>
      <trkpt lat="44.22664" lon="3.23695">
        <ele>754.36</ele>
        <time>2026-04-23T10:41:18.263Z</time>
      </trkpt>
      <trkpt lat="44.22663" lon="3.23694">
        <ele>754.2</ele>
        <time>2026-04-23T10:41:30.362Z</time>
      </trkpt>
      <trkpt lat="44.22664" lon="3.23696">
        <ele>756.51</ele>
        <time>2026-04-23T10:41:36.297Z</time>
      </trkpt>
      <trkpt lat="44.22667" lon="3.23701">
        <ele>756.1</ele>
        <time>2026-04-23T10:41:41.762Z</time>
      </trkpt>
      <trkpt lat="44.2267" lon="3.23709">
        <ele>756.88</ele>
        <time>2026-04-23T10:41:47.223Z</time>
      </trkpt>
      <trkpt lat="44.22675" lon="3.23715">
        <ele>757.06</ele>
        <time>2026-04-23T10:41:52.264Z</time>
      </trkpt>
      <trkpt lat="44.22676" lon="3.23721">
        <ele>757.78</ele>
        <time>2026-04-23T10:41:57.787Z</time>
      </trkpt>
      <trkpt lat="44.22676" lon="3.23731">
        <ele>762.26</ele>
        <time>2026-04-23T10:42:03.024Z</time>
      </trkpt>
      <trkpt lat="44.22676" lon="3.23738">
        <ele>760.6</ele>
        <time>2026-04-23T10:42:08.314Z</time>
      </trkpt>
      <trkpt lat="44.22674" lon="3.23745">
        <ele>759.26</ele>
        <time>2026-04-23T10:42:13.329Z</time>
      </trkpt>
      <trkpt lat="44.22668" lon="3.23748">
        <ele>758.04</ele>
        <time>2026-04-23T10:42:18.755Z</time>
      </trkpt>
      <trkpt lat="44.2267" lon="3.2376">
        <ele>758.03</ele>
        <time>2026-04-23T10:42:23.986Z</time>
      </trkpt>
      <trkpt lat="44.22673" lon="3.23769">
        <ele>758.24</ele>
        <time>2026-04-23T10:42:29.062Z</time>
      </trkpt>
      <trkpt lat="44.22675" lon="3.23774">
        <ele>758.37</ele>
        <time>2026-04-23T10:42:34.350Z</time>
      </trkpt>
      <trkpt lat="44.22676" lon="3.23781">
        <ele>759.65</ele>
        <time>2026-04-23T10:42:39.365Z</time>
      </trkpt>
      <trkpt lat="44.22679" lon="3.23787">
        <ele>759.29</ele>
        <time>2026-04-23T10:42:44.380Z</time>
      </trkpt>
      <trkpt lat="44.22679" lon="3.2379">
        <ele>758.25</ele>
        <time>2026-04-23T10:42:49.807Z</time>
      </trkpt>
      <trkpt lat="44.22679" lon="3.23792">
        <ele>757.48</ele>
        <time>2026-04-23T10:42:55.258Z</time>
      </trkpt>
      <trkpt lat="44.22678" lon="3.23803">
        <ele>755.73</ele>
        <time>2026-04-23T10:43:01.036Z</time>
      </trkpt>
      <trkpt lat="44.22678" lon="3.2381">
        <ele>755.15</ele>
        <time>2026-04-23T10:43:06.284Z</time>
      </trkpt>
      <trkpt lat="44.22679" lon="3.23814">
        <ele>753.76</ele>
        <time>2026-04-23T10:43:11.401Z</time>
      </trkpt>
      <trkpt lat="44.2268" lon="3.23821">
        <ele>753.33</ele>
        <time>2026-04-23T10:43:16.401Z</time>
      </trkpt>
      <trkpt lat="44.22681" lon="3.2383">
        <ele>752.73</ele>
        <time>2026-04-23T10:43:22.040Z</time>
      </trkpt>
      <trkpt lat="44.22679" lon="3.2384">
        <ele>751.79</ele>
        <time>2026-04-23T10:43:27.406Z</time>
      </trkpt>
      <trkpt lat="44.22677" lon="3.23843">
        <ele>752.44</ele>
        <time>2026-04-23T10:43:32.421Z</time>
      </trkpt>
      <trkpt lat="44.22676" lon="3.23844">
        <ele>752.58</ele>
        <time>2026-04-23T10:43:37.938Z</time>
      </trkpt>
      <trkpt lat="44.22679" lon="3.23854">
        <ele>751.36</ele>
        <time>2026-04-23T10:43:43.304Z</time>
      </trkpt>
      <trkpt lat="44.22685" lon="3.23861">
        <ele>749.97</ele>
        <time>2026-04-23T10:43:48.919Z</time>
      </trkpt>
      <trkpt lat="44.22686" lon="3.23864">
        <ele>749</ele>
        <time>2026-04-23T10:43:54.297Z</time>
      </trkpt>
      <trkpt lat="44.22689" lon="3.23865">
        <ele>747.89</ele>
        <time>2026-04-23T10:44:00.317Z</time>
      </trkpt>
      <trkpt lat="44.2269" lon="3.23864">
        <ele>743.56</ele>
        <time>2026-04-23T10:44:18.820Z</time>
      </trkpt>
      <trkpt lat="44.22691" lon="3.23865">
        <ele>742.77</ele>
        <time>2026-04-23T10:44:24.200Z</time>
      </trkpt>
      <trkpt lat="44.22697" lon="3.23865">
        <ele>742.4</ele>
        <time>2026-04-23T10:44:29.397Z</time>
      </trkpt>
      <trkpt lat="44.22701" lon="3.23863">
        <ele>742.07</ele>
        <time>2026-04-23T10:44:34.412Z</time>
      </trkpt>
      <trkpt lat="44.22706" lon="3.23861">
        <ele>742</ele>
        <time>2026-04-23T10:44:39.426Z</time>
      </trkpt>
      <trkpt lat="44.2271" lon="3.23858">
        <ele>742.54</ele>
        <time>2026-04-23T10:44:45.086Z</time>
      </trkpt>
      <trkpt lat="44.22713" lon="3.23854">
        <ele>743.9</ele>
        <time>2026-04-23T10:44:50.409Z</time>
      </trkpt>
      <trkpt lat="44.22716" lon="3.23851">
        <ele>744.06</ele>
        <time>2026-04-23T10:44:56.392Z</time>
      </trkpt>
      <trkpt lat="44.22721" lon="3.2385">
        <ele>746.51</ele>
        <time>2026-04-23T10:45:02.246Z</time>
      </trkpt>
      <trkpt lat="44.22727" lon="3.23848">
        <ele>746.6</ele>
        <time>2026-04-23T10:45:07.332Z</time>
      </trkpt>
      <trkpt lat="44.22733" lon="3.23846">
        <ele>745.2</ele>
        <time>2026-04-23T10:45:12.396Z</time>
      </trkpt>
      <trkpt lat="44.22738" lon="3.23841">
        <ele>744.96</ele>
        <time>2026-04-23T10:45:18.370Z</time>
      </trkpt>
      <trkpt lat="44.22739" lon="3.2384">
        <ele>745.77</ele>
        <time>2026-04-23T10:45:23.766Z</time>
      </trkpt>
      <trkpt lat="44.22743" lon="3.23839">
        <ele>747.08</ele>
        <time>2026-04-23T10:45:29.046Z</time>
      </trkpt>
      <trkpt lat="44.22749" lon="3.23836">
        <ele>747.62</ele>
        <time>2026-04-23T10:45:34.053Z</time>
      </trkpt>
      <trkpt lat="44.22756" lon="3.23835">
        <ele>747.55</ele>
        <time>2026-04-23T10:45:39.269Z</time>
      </trkpt>
      <trkpt lat="44.22761" lon="3.23834">
        <ele>747.38</ele>
        <time>2026-04-23T10:45:44.925Z</time>
      </trkpt>
      <trkpt lat="44.22764" lon="3.23834">
        <ele>747.75</ele>
        <time>2026-04-23T10:45:50.380Z</time>
      </trkpt>
      <trkpt lat="44.22768" lon="3.23835">
        <ele>748.84</ele>
        <time>2026-04-23T10:45:56.355Z</time>
      </trkpt>
      <trkpt lat="44.22771" lon="3.23835">
        <ele>749.04</ele>
        <time>2026-04-23T10:46:01.369Z</time>
      </trkpt>
      <trkpt lat="44.22771" lon="3.23834">
        <ele>751.06</ele>
        <time>2026-04-23T10:46:07.348Z</time>
      </trkpt>
      <trkpt lat="44.22772" lon="3.23834">
        <ele>752.11</ele>
        <time>2026-04-23T10:46:16.088Z</time>
      </trkpt>
      <trkpt lat="44.22775" lon="3.23834">
        <ele>753.44</ele>
        <time>2026-04-23T10:46:22.388Z</time>
      </trkpt>
      <trkpt lat="44.22779" lon="3.23833">
        <ele>754.67</ele>
        <time>2026-04-23T10:46:28.109Z</time>
      </trkpt>
      <trkpt lat="44.22782" lon="3.23831">
        <ele>755.81</ele>
        <time>2026-04-23T10:46:33.603Z</time>
      </trkpt>
      <trkpt lat="44.22789" lon="3.23831">
        <ele>755.8</ele>
        <time>2026-04-23T10:46:39.116Z</time>
      </trkpt>
      <trkpt lat="44.22795" lon="3.2383">
        <ele>755.64</ele>
        <time>2026-04-23T10:46:44.385Z</time>
      </trkpt>
      <trkpt lat="44.228" lon="3.23828">
        <ele>755.78</ele>
        <time>2026-04-23T10:46:49.643Z</time>
      </trkpt>
      <trkpt lat="44.22803" lon="3.23829">
        <ele>756.72</ele>
        <time>2026-04-23T10:46:54.803Z</time>
      </trkpt>
      <trkpt lat="44.22808" lon="3.2383">
        <ele>757.89</ele>
        <time>2026-04-23T10:47:00.021Z</time>
      </trkpt>
      <trkpt lat="44.22813" lon="3.23829">
        <ele>757.32</ele>
        <time>2026-04-23T10:47:05.175Z</time>
      </trkpt>
      <trkpt lat="44.22818" lon="3.23832">
        <ele>756.84</ele>
        <time>2026-04-23T10:47:10.440Z</time>
      </trkpt>
      <trkpt lat="44.22823" lon="3.23837">
        <ele>756.58</ele>
        <time>2026-04-23T10:47:16.394Z</time>
      </trkpt>
      <trkpt lat="44.22824" lon="3.23837">
        <ele>756.45</ele>
        <time>2026-04-23T10:47:21.420Z</time>
      </trkpt>
      <trkpt lat="44.22828" lon="3.23843">
        <ele>756.76</ele>
        <time>2026-04-23T10:47:26.423Z</time>
      </trkpt>
      <trkpt lat="44.22834" lon="3.23844">
        <ele>757.07</ele>
        <time>2026-04-23T10:47:31.959Z</time>
      </trkpt>
      <trkpt lat="44.2284" lon="3.23844">
        <ele>756.16</ele>
        <time>2026-04-23T10:47:36.962Z</time>
      </trkpt>
      <trkpt lat="44.22844" lon="3.23846">
        <ele>755.42</ele>
        <time>2026-04-23T10:47:42.120Z</time>
      </trkpt>
      <trkpt lat="44.22847" lon="3.23849">
        <ele>755.42</ele>
        <time>2026-04-23T10:47:47.179Z</time>
      </trkpt>
      <trkpt lat="44.22851" lon="3.23849">
        <ele>757.15</ele>
        <time>2026-04-23T10:47:52.350Z</time>
      </trkpt>
      <trkpt lat="44.22852" lon="3.2385">
        <ele>757.18</ele>
        <time>2026-04-23T10:47:58.325Z</time>
      </trkpt>
      <trkpt lat="44.22851" lon="3.2385">
        <ele>756.53</ele>
        <time>2026-04-23T10:48:03.795Z</time>
      </trkpt>
      <trkpt lat="44.22854" lon="3.2385">
        <ele>756.84</ele>
        <time>2026-04-23T10:48:08.945Z</time>
      </trkpt>
      <trkpt lat="44.22861" lon="3.23843">
        <ele>758.26</ele>
        <time>2026-04-23T10:48:14.536Z</time>
      </trkpt>
      <trkpt lat="44.22869" lon="3.2384">
        <ele>758.06</ele>
        <time>2026-04-23T10:48:20.304Z</time>
      </trkpt>
      <trkpt lat="44.2287" lon="3.23839">
        <ele>757.67</ele>
        <time>2026-04-23T10:48:25.680Z</time>
      </trkpt>
      <trkpt lat="44.22873" lon="3.23838">
        <ele>757.3</ele>
        <time>2026-04-23T10:48:31.400Z</time>
      </trkpt>
      <trkpt lat="44.22874" lon="3.23838">
        <ele>757.93</ele>
        <time>2026-04-23T10:48:37.219Z</time>
      </trkpt>
      <trkpt lat="44.22875" lon="3.23838">
        <ele>760.02</ele>
        <time>2026-04-23T10:48:42.949Z</time>
      </trkpt>
      <trkpt lat="44.22876" lon="3.23838">
        <ele>761.56</ele>
        <time>2026-04-23T10:48:48.618Z</time>
      </trkpt>
      <trkpt lat="44.22877" lon="3.23838">
        <ele>762.21</ele>
        <time>2026-04-23T10:48:55.406Z</time>
      </trkpt>
      <trkpt lat="44.22878" lon="3.23838">
        <ele>761.8</ele>
        <time>2026-04-23T10:49:01.181Z</time>
      </trkpt>
      <trkpt lat="44.2288" lon="3.23838">
        <ele>763.08</ele>
        <time>2026-04-23T10:49:06.394Z</time>
      </trkpt>
      <trkpt lat="44.22882" lon="3.23839">
        <ele>763.82</ele>
        <time>2026-04-23T10:49:11.403Z</time>
      </trkpt>
      <trkpt lat="44.22885" lon="3.2384">
        <ele>764.59</ele>
        <time>2026-04-23T10:49:17.396Z</time>
      </trkpt>
      <trkpt lat="44.22888" lon="3.23842">
        <ele>766.47</ele>
        <time>2026-04-23T10:49:22.399Z</time>
      </trkpt>
      <trkpt lat="44.22889" lon="3.23843">
        <ele>766.76</ele>
        <time>2026-04-23T10:49:27.414Z</time>
      </trkpt>
      <trkpt lat="44.22894" lon="3.23843">
        <ele>767.97</ele>
        <time>2026-04-23T10:49:33.126Z</time>
      </trkpt>
      <trkpt lat="44.22901" lon="3.23843">
        <ele>768.5</ele>
        <time>2026-04-23T10:49:38.412Z</time>
      </trkpt>
      <trkpt lat="44.22909" lon="3.23841">
        <ele>769.63</ele>
        <time>2026-04-23T10:49:43.761Z</time>
      </trkpt>
      <trkpt lat="44.22915" lon="3.23839">
        <ele>770.24</ele>
        <time>2026-04-23T10:49:49.326Z</time>
      </trkpt>
      <trkpt lat="44.2292" lon="3.23833">
        <ele>770.72</ele>
        <time>2026-04-23T10:49:54.327Z</time>
      </trkpt>
      <trkpt lat="44.22924" lon="3.23832">
        <ele>770.66</ele>
        <time>2026-04-23T10:49:59.381Z</time>
      </trkpt>
      <trkpt lat="44.22926" lon="3.23831">
        <ele>772.12</ele>
        <time>2026-04-23T10:50:04.610Z</time>
      </trkpt>
      <trkpt lat="44.22929" lon="3.23831">
        <ele>771.96</ele>
        <time>2026-04-23T10:50:09.872Z</time>
      </trkpt>
      <trkpt lat="44.22933" lon="3.23833">
        <ele>771.32</ele>
        <time>2026-04-23T10:50:14.994Z</time>
      </trkpt>
      <trkpt lat="44.22937" lon="3.23836">
        <ele>770.59</ele>
        <time>2026-04-23T10:50:20.400Z</time>
      </trkpt>
      <trkpt lat="44.2294" lon="3.23835">
        <ele>769.63</ele>
        <time>2026-04-23T10:50:25.905Z</time>
      </trkpt>
      <trkpt lat="44.2294" lon="3.23833">
        <ele>769.85</ele>
        <time>2026-04-23T10:50:33.923Z</time>
      </trkpt>
      <trkpt lat="44.22945" lon="3.2383">
        <ele>771.47</ele>
        <time>2026-04-23T10:50:39.328Z</time>
      </trkpt>
      <trkpt lat="44.22949" lon="3.23827">
        <ele>771.33</ele>
        <time>2026-04-23T10:50:44.393Z</time>
      </trkpt>
      <trkpt lat="44.22952" lon="3.23827">
        <ele>771.09</ele>
        <time>2026-04-23T10:50:49.407Z</time>
      </trkpt>
      <trkpt lat="44.22953" lon="3.23827">
        <ele>771.26</ele>
        <time>2026-04-23T10:50:55.280Z</time>
      </trkpt>
      <trkpt lat="44.22955" lon="3.23826">
        <ele>771.53</ele>
        <time>2026-04-23T10:51:00.294Z</time>
      </trkpt>
      <trkpt lat="44.22956" lon="3.23825">
        <ele>771.54</ele>
        <time>2026-04-23T10:51:05.309Z</time>
      </trkpt>
      <trkpt lat="44.22957" lon="3.23826">
        <ele>771.02</ele>
        <time>2026-04-23T10:51:12.208Z</time>
      </trkpt>
      <trkpt lat="44.22957" lon="3.23833">
        <ele>770.78</ele>
        <time>2026-04-23T10:51:17.301Z</time>
      </trkpt>
      <trkpt lat="44.22959" lon="3.23842">
        <ele>772.36</ele>
        <time>2026-04-23T10:51:22.818Z</time>
      </trkpt>
      <trkpt lat="44.22962" lon="3.2385">
        <ele>772.48</ele>
        <time>2026-04-23T10:51:27.822Z</time>
      </trkpt>
      <trkpt lat="44.22965" lon="3.23855">
        <ele>770.63</ele>
        <time>2026-04-23T10:51:33.201Z</time>
      </trkpt>
      <trkpt lat="44.22966" lon="3.23863">
        <ele>769.1</ele>
        <time>2026-04-23T10:51:38.803Z</time>
      </trkpt>
      <trkpt lat="44.22967" lon="3.2387">
        <ele>769.41</ele>
        <time>2026-04-23T10:51:44.228Z</time>
      </trkpt>
      <trkpt lat="44.22971" lon="3.23872">
        <ele>769.02</ele>
        <time>2026-04-23T10:51:50.122Z</time>
      </trkpt>
      <trkpt lat="44.22975" lon="3.23873">
        <ele>768.4</ele>
        <time>2026-04-23T10:51:55.354Z</time>
      </trkpt>
      <trkpt lat="44.2298" lon="3.23875">
        <ele>767.82</ele>
        <time>2026-04-23T10:52:00.369Z</time>
      </trkpt>
      <trkpt lat="44.22989" lon="3.23873">
        <ele>767.81</ele>
        <time>2026-04-23T10:52:06.301Z</time>
      </trkpt>
      <trkpt lat="44.22999" lon="3.23869">
        <ele>767.65</ele>
        <time>2026-04-23T10:52:12.419Z</time>
      </trkpt>
      <trkpt lat="44.23007" lon="3.2387">
        <ele>766.56</ele>
        <time>2026-04-23T10:52:17.900Z</time>
      </trkpt>
      <trkpt lat="44.23014" lon="3.23872">
        <ele>766.94</ele>
        <time>2026-04-23T10:52:23.415Z</time>
      </trkpt>
      <trkpt lat="44.23017" lon="3.23869">
        <ele>768.9</ele>
        <time>2026-04-23T10:52:29.128Z</time>
      </trkpt>
      <trkpt lat="44.23019" lon="3.23862">
        <ele>768.55</ele>
        <time>2026-04-23T10:52:34.405Z</time>
      </trkpt>
      <trkpt lat="44.23021" lon="3.23859">
        <ele>768.28</ele>
        <time>2026-04-23T10:52:39.419Z</time>
      </trkpt>
      <trkpt lat="44.23023" lon="3.23856">
        <ele>767.97</ele>
        <time>2026-04-23T10:52:44.674Z</time>
      </trkpt>
      <trkpt lat="44.23022" lon="3.23848">
        <ele>767.67</ele>
        <time>2026-04-23T10:52:49.941Z</time>
      </trkpt>
      <trkpt lat="44.23021" lon="3.23849">
        <ele>767.33</ele>
        <time>2026-04-23T10:52:55.001Z</time>
      </trkpt>
      <trkpt lat="44.23026" lon="3.23852">
        <ele>768.31</ele>
        <time>2026-04-23T10:53:00.438Z</time>
      </trkpt>
      <trkpt lat="44.23032" lon="3.23851">
        <ele>767.56</ele>
        <time>2026-04-23T10:53:06.413Z</time>
      </trkpt>
      <trkpt lat="44.23034" lon="3.2385">
        <ele>765.96</ele>
        <time>2026-04-23T10:53:11.423Z</time>
      </trkpt>
      <trkpt lat="44.23036" lon="3.23848">
        <ele>766.16</ele>
        <time>2026-04-23T10:53:16.683Z</time>
      </trkpt>
      <trkpt lat="44.2304" lon="3.23844">
        <ele>765.18</ele>
        <time>2026-04-23T10:53:21.929Z</time>
      </trkpt>
      <trkpt lat="44.23045" lon="3.23845">
        <ele>766.5</ele>
        <time>2026-04-23T10:53:27.469Z</time>
      </trkpt>
      <trkpt lat="44.23049" lon="3.23847">
        <ele>766.56</ele>
        <time>2026-04-23T10:53:32.610Z</time>
      </trkpt>
      <trkpt lat="44.23054" lon="3.23851">
        <ele>765.05</ele>
        <time>2026-04-23T10:53:38.149Z</time>
      </trkpt>
      <trkpt lat="44.23059" lon="3.23854">
        <ele>765.43</ele>
        <time>2026-04-23T10:53:43.329Z</time>
      </trkpt>
      <trkpt lat="44.2306" lon="3.23858">
        <ele>765.12</ele>
        <time>2026-04-23T10:53:48.343Z</time>
      </trkpt>
      <trkpt lat="44.23063" lon="3.23864">
        <ele>765.9</ele>
        <time>2026-04-23T10:53:53.359Z</time>
      </trkpt>
      <trkpt lat="44.23065" lon="3.23867">
        <ele>766</ele>
        <time>2026-04-23T10:53:59.006Z</time>
      </trkpt>
      <trkpt lat="44.23069" lon="3.23868">
        <ele>766.58</ele>
        <time>2026-04-23T10:54:04.324Z</time>
      </trkpt>
      <trkpt lat="44.23075" lon="3.23868">
        <ele>767.33</ele>
        <time>2026-04-23T10:54:10.346Z</time>
      </trkpt>
      <trkpt lat="44.23078" lon="3.23869">
        <ele>766.36</ele>
        <time>2026-04-23T10:54:15.463Z</time>
      </trkpt>
      <trkpt lat="44.2308" lon="3.23872">
        <ele>767.19</ele>
        <time>2026-04-23T10:54:21.340Z</time>
      </trkpt>
      <trkpt lat="44.23086" lon="3.23877">
        <ele>768.54</ele>
        <time>2026-04-23T10:54:26.592Z</time>
      </trkpt>
      <trkpt lat="44.23091" lon="3.23882">
        <ele>769.2</ele>
        <time>2026-04-23T10:54:32.249Z</time>
      </trkpt>
      <trkpt lat="44.23095" lon="3.23886">
        <ele>768.69</ele>
        <time>2026-04-23T10:54:38.230Z</time>
      </trkpt>
      <trkpt lat="44.231" lon="3.23887">
        <ele>770.04</ele>
        <time>2026-04-23T10:54:43.846Z</time>
      </trkpt>
      <trkpt lat="44.23105" lon="3.23882">
        <ele>769.91</ele>
        <time>2026-04-23T10:54:49.146Z</time>
      </trkpt>
      <trkpt lat="44.2311" lon="3.23877">
        <ele>770.39</ele>
        <time>2026-04-23T10:54:54.309Z</time>
      </trkpt>
      <trkpt lat="44.23114" lon="3.23875">
        <ele>770.31</ele>
        <time>2026-04-23T10:54:59.905Z</time>
      </trkpt>
      <trkpt lat="44.23119" lon="3.23873">
        <ele>771.08</ele>
        <time>2026-04-23T10:55:05.406Z</time>
      </trkpt>
      <trkpt lat="44.23125" lon="3.23872">
        <ele>771.45</ele>
        <time>2026-04-23T10:55:10.815Z</time>
      </trkpt>
      <trkpt lat="44.23131" lon="3.23871">
        <ele>771.01</ele>
        <time>2026-04-23T10:55:16.214Z</time>
      </trkpt>
      <trkpt lat="44.23136" lon="3.23867">
        <ele>771.39</ele>
        <time>2026-04-23T10:55:21.410Z</time>
      </trkpt>
      <trkpt lat="44.2314" lon="3.23862">
        <ele>772.84</ele>
        <time>2026-04-23T10:55:26.970Z</time>
      </trkpt>
      <trkpt lat="44.23144" lon="3.23856">
        <ele>773.45</ele>
        <time>2026-04-23T10:55:32.226Z</time>
      </trkpt>
      <trkpt lat="44.23146" lon="3.23851">
        <ele>773.22</ele>
        <time>2026-04-23T10:55:38.023Z</time>
      </trkpt>
      <trkpt lat="44.23147" lon="3.23845">
        <ele>773.62</ele>
        <time>2026-04-23T10:55:44.046Z</time>
      </trkpt>
      <trkpt lat="44.23149" lon="3.23835">
        <ele>773.46</ele>
        <time>2026-04-23T10:55:50.158Z</time>
      </trkpt>
      <trkpt lat="44.23153" lon="3.23833">
        <ele>774.02</ele>
        <time>2026-04-23T10:55:55.183Z</time>
      </trkpt>
      <trkpt lat="44.23158" lon="3.23832">
        <ele>775.21</ele>
        <time>2026-04-23T10:56:01.236Z</time>
      </trkpt>
      <trkpt lat="44.23164" lon="3.23834">
        <ele>774.64</ele>
        <time>2026-04-23T10:56:06.644Z</time>
      </trkpt>
      <trkpt lat="44.23168" lon="3.23832">
        <ele>774.59</ele>
        <time>2026-04-23T10:56:12.468Z</time>
      </trkpt>
      <trkpt lat="44.23173" lon="3.23829">
        <ele>775.79</ele>
        <time>2026-04-23T10:56:17.561Z</time>
      </trkpt>
      <trkpt lat="44.23179" lon="3.23827">
        <ele>776.71</ele>
        <time>2026-04-23T10:56:22.948Z</time>
      </trkpt>
      <trkpt lat="44.23184" lon="3.23823">
        <ele>776.94</ele>
        <time>2026-04-23T10:56:28.009Z</time>
      </trkpt>
      <trkpt lat="44.2319" lon="3.2382">
        <ele>776.76</ele>
        <time>2026-04-23T10:56:33.668Z</time>
      </trkpt>
      <trkpt lat="44.23195" lon="3.23818">
        <ele>776.61</ele>
        <time>2026-04-23T10:56:38.989Z</time>
      </trkpt>
      <trkpt lat="44.23199" lon="3.23815">
        <ele>776.79</ele>
        <time>2026-04-23T10:56:44.625Z</time>
      </trkpt>
      <trkpt lat="44.23204" lon="3.23812">
        <ele>777.53</ele>
        <time>2026-04-23T10:56:50.116Z</time>
      </trkpt>
      <trkpt lat="44.23209" lon="3.23811">
        <ele>778.43</ele>
        <time>2026-04-23T10:56:55.424Z</time>
      </trkpt>
      <trkpt lat="44.23213" lon="3.2381">
        <ele>778.28</ele>
        <time>2026-04-23T10:57:00.439Z</time>
      </trkpt>
      <trkpt lat="44.23216" lon="3.2381">
        <ele>776.58</ele>
        <time>2026-04-23T10:57:06.309Z</time>
      </trkpt>
      <trkpt lat="44.23218" lon="3.23809">
        <ele>775.97</ele>
        <time>2026-04-23T10:57:12.347Z</time>
      </trkpt>
      <trkpt lat="44.23224" lon="3.23811">
        <ele>776.4</ele>
        <time>2026-04-23T10:57:18.372Z</time>
      </trkpt>
      <trkpt lat="44.2323" lon="3.23807">
        <ele>776.07</ele>
        <time>2026-04-23T10:57:24.365Z</time>
      </trkpt>
      <trkpt lat="44.23235" lon="3.23803">
        <ele>775.17</ele>
        <time>2026-04-23T10:57:29.380Z</time>
      </trkpt>
      <trkpt lat="44.2324" lon="3.23802">
        <ele>774.19</ele>
        <time>2026-04-23T10:57:34.394Z</time>
      </trkpt>
      <trkpt lat="44.23244" lon="3.23804">
        <ele>773.64</ele>
        <time>2026-04-23T10:57:39.409Z</time>
      </trkpt>
      <trkpt lat="44.23245" lon="3.23804">
        <ele>772.87</ele>
        <time>2026-04-23T10:57:44.880Z</time>
      </trkpt>
      <trkpt lat="44.23249" lon="3.23802">
        <ele>772.39</ele>
        <time>2026-04-23T10:57:50.298Z</time>
      </trkpt>
      <trkpt lat="44.23253" lon="3.23801">
        <ele>773.74</ele>
        <time>2026-04-23T10:57:56.039Z</time>
      </trkpt>
      <trkpt lat="44.23255" lon="3.23797">
        <ele>775.9</ele>
        <time>2026-04-23T10:58:01.115Z</time>
      </trkpt>
      <trkpt lat="44.23256" lon="3.23791">
        <ele>774.74</ele>
        <time>2026-04-23T10:58:06.155Z</time>
      </trkpt>
      <trkpt lat="44.23256" lon="3.23793">
        <ele>775.24</ele>
        <time>2026-04-23T10:58:11.310Z</time>
      </trkpt>
      <trkpt lat="44.23257" lon="3.23792">
        <ele>774.53</ele>
        <time>2026-04-23T10:58:24.973Z</time>
      </trkpt>
      <trkpt lat="44.23258" lon="3.23782">
        <ele>775.27</ele>
        <time>2026-04-23T10:58:30.175Z</time>
      </trkpt>
      <trkpt lat="44.2326" lon="3.23774">
        <ele>774.99</ele>
        <time>2026-04-23T10:58:35.321Z</time>
      </trkpt>
      <trkpt lat="44.23259" lon="3.23768">
        <ele>775.65</ele>
        <time>2026-04-23T10:58:40.336Z</time>
      </trkpt>
      <trkpt lat="44.23258" lon="3.23768">
        <ele>776.68</ele>
        <time>2026-04-23T10:58:45.350Z</time>
      </trkpt>
      <trkpt lat="44.23259" lon="3.23768">
        <ele>776.99</ele>
        <time>2026-04-23T10:58:50.366Z</time>
      </trkpt>
      <trkpt lat="44.23259" lon="3.23767">
        <ele>777.22</ele>
        <time>2026-04-23T10:58:58.028Z</time>
      </trkpt>
      <trkpt lat="44.23259" lon="3.23766">
        <ele>777.78</ele>
        <time>2026-04-23T10:59:03.389Z</time>
      </trkpt>
      <trkpt lat="44.23258" lon="3.23764">
        <ele>779.12</ele>
        <time>2026-04-23T10:59:09.364Z</time>
      </trkpt>
      <trkpt lat="44.23259" lon="3.23764">
        <ele>778.59</ele>
        <time>2026-04-23T10:59:18.434Z</time>
      </trkpt>
      <trkpt lat="44.23261" lon="3.23763">
        <ele>778.39</ele>
        <time>2026-04-23T10:59:23.449Z</time>
      </trkpt>
      <trkpt lat="44.23267" lon="3.23766">
        <ele>777.52</ele>
        <time>2026-04-23T10:59:28.464Z</time>
      </trkpt>
      <trkpt lat="44.2327" lon="3.2378">
        <ele>778.35</ele>
        <time>2026-04-23T10:59:34.439Z</time>
      </trkpt>
      <trkpt lat="44.23265" lon="3.23787">
        <ele>778.09</ele>
        <time>2026-04-23T10:59:40.415Z</time>
      </trkpt>
      <trkpt lat="44.23261" lon="3.23788">
        <ele>778.24</ele>
        <time>2026-04-23T10:59:45.430Z</time>
      </trkpt>
      <trkpt lat="44.2326" lon="3.23783">
        <ele>778.21</ele>
        <time>2026-04-23T10:59:51.405Z</time>
      </trkpt>
      <trkpt lat="44.2326" lon="3.23781">
        <ele>778</ele>
        <time>2026-04-23T10:59:56.420Z</time>
      </trkpt>
      <trkpt lat="44.23261" lon="3.23777">
        <ele>776.67</ele>
        <time>2026-04-23T11:00:02.395Z</time>
      </trkpt>
      <trkpt lat="44.23262" lon="3.23775">
        <ele>776.92</ele>
        <time>2026-04-23T11:00:08.476Z</time>
      </trkpt>
      <trkpt lat="44.23263" lon="3.23774">
        <ele>778</ele>
        <time>2026-04-23T11:00:14.345Z</time>
      </trkpt>
      <trkpt lat="44.23263" lon="3.23773">
        <ele>777.95</ele>
        <time>2026-04-23T11:00:20.427Z</time>
      </trkpt>
      <trkpt lat="44.23264" lon="3.23771">
        <ele>777.61</ele>
        <time>2026-04-23T11:00:28.429Z</time>
      </trkpt>
      <trkpt lat="44.23264" lon="3.2377">
        <ele>777.04</ele>
        <time>2026-04-23T11:00:37.392Z</time>
      </trkpt>
      <trkpt lat="44.23263" lon="3.2377">
        <ele>776.91</ele>
        <time>2026-04-23T11:00:55.317Z</time>
      </trkpt>
      <trkpt lat="44.23263" lon="3.23771">
        <ele>776.5</ele>
        <time>2026-04-23T11:01:16.336Z</time>
      </trkpt>
      <trkpt lat="44.23264" lon="3.23772">
        <ele>776.82</ele>
        <time>2026-04-23T11:01:21.457Z</time>
      </trkpt>
      <trkpt lat="44.23265" lon="3.23771">
        <ele>777.24</ele>
        <time>2026-04-23T11:01:39.382Z</time>
      </trkpt>
      <trkpt lat="44.23265" lon="3.2377">
        <ele>777.8</ele>
        <time>2026-04-23T11:01:46.424Z</time>
      </trkpt>
      <trkpt lat="44.23266" lon="3.2377">
        <ele>777.57</ele>
        <time>2026-04-23T11:01:52.399Z</time>
      </trkpt>
      <trkpt lat="44.23267" lon="3.2377">
        <ele>776.25</ele>
        <time>2026-04-23T11:02:02.282Z</time>
      </trkpt>
      <trkpt lat="44.23266" lon="3.23769">
        <ele>775.16</ele>
        <time>2026-04-23T11:02:14.283Z</time>
      </trkpt>
      <trkpt lat="44.23265" lon="3.23769">
        <ele>776.84</ele>
        <time>2026-04-23T11:02:20.282Z</time>
      </trkpt>
      <trkpt lat="44.23264" lon="3.23769">
        <ele>777.02</ele>
        <time>2026-04-23T11:03:05.283Z</time>
      </trkpt>
      <trkpt lat="44.23263" lon="3.23768">
        <ele>776.87</ele>
        <time>2026-04-23T11:03:15.284Z</time>
      </trkpt>
      <trkpt lat="44.23262" lon="3.23766">
        <ele>779.17</ele>
        <time>2026-04-23T11:03:21.283Z</time>
      </trkpt>
      <trkpt lat="44.23261" lon="3.23766">
        <ele>774.64</ele>
        <time>2026-04-23T11:03:53.284Z</time>
      </trkpt>
      <trkpt lat="44.23262" lon="3.23766">
        <ele>776.66</ele>
        <time>2026-04-23T11:04:19.285Z</time>
      </trkpt>
      <trkpt lat="44.23263" lon="3.23766">
        <ele>778.02</ele>
        <time>2026-04-23T11:04:42.285Z</time>
      </trkpt>
      <trkpt lat="44.23263" lon="3.23768">
        <ele>777.38</ele>
        <time>2026-04-23T11:04:51.288Z</time>
      </trkpt>
      <trkpt lat="44.23264" lon="3.23771">
        <ele>778.56</ele>
        <time>2026-04-23T11:04:57.286Z</time>
      </trkpt>
      <trkpt lat="44.23264" lon="3.2377">
        <ele>777.83</ele>
        <time>2026-04-23T11:05:31.286Z</time>
      </trkpt>
      <trkpt lat="44.23263" lon="3.23769">
        <ele>778.97</ele>
        <time>2026-04-23T11:05:40.287Z</time>
      </trkpt>
      <trkpt lat="44.23264" lon="3.23769">
        <ele>777.05</ele>
        <time>2026-04-23T11:05:57.287Z</time>
      </trkpt>
      <trkpt lat="44.23264" lon="3.23768">
        <ele>778.77</ele>
        <time>2026-04-23T11:06:06.287Z</time>
      </trkpt>
      <trkpt lat="44.23263" lon="3.23767">
        <ele>777.65</ele>
        <time>2026-04-23T11:06:22.287Z</time>
      </trkpt>
      <trkpt lat="44.23262" lon="3.23768">
        <ele>777.89</ele>
        <time>2026-04-23T11:06:34.287Z</time>
      </trkpt>
      <trkpt lat="44.23262" lon="3.23768">
        <ele>777.51</ele>
        <time>2026-04-23T11:06:42.288Z</time>
      </trkpt>
      <trkpt lat="44.23262" lon="3.23766">
        <ele>780.27</ele>
        <time>2026-04-23T11:06:52.288Z</time>
      </trkpt>
      <trkpt lat="44.23261" lon="3.23765">
        <ele>779.44</ele>
        <time>2026-04-23T11:06:58.288Z</time>
      </trkpt>
      <trkpt lat="44.2326" lon="3.23764">
        <ele>777.14</ele>
        <time>2026-04-23T11:07:12.288Z</time>
      </trkpt>
      <trkpt lat="44.23259" lon="3.23765">
        <ele>776.86</ele>
        <time>2026-04-23T11:07:17.288Z</time>
      </trkpt>
      <trkpt lat="44.23259" lon="3.23766">
        <ele>776.99</ele>
        <time>2026-04-23T11:07:27.288Z</time>
      </trkpt>
      <trkpt lat="44.23262" lon="3.23766">
        <ele>778.35</ele>
        <time>2026-04-23T11:07:32.289Z</time>
      </trkpt>
      <trkpt lat="44.23264" lon="3.23767">
        <ele>778.94</ele>
        <time>2026-04-23T11:07:37.289Z</time>
      </trkpt>
      <trkpt lat="44.23263" lon="3.23767">
        <ele>777.04</ele>
        <time>2026-04-23T11:07:50.289Z</time>
      </trkpt>
      <trkpt lat="44.23264" lon="3.23768">
        <ele>778.56</ele>
        <time>2026-04-23T11:08:36.290Z</time>
      </trkpt>
      <trkpt lat="44.23263" lon="3.23768">
        <ele>779.18</ele>
        <time>2026-04-23T11:08:59.290Z</time>
      </trkpt>
      <trkpt lat="44.23264" lon="3.23768">
        <ele>779.72</ele>
        <time>2026-04-23T11:09:15.291Z</time>
      </trkpt>
      <trkpt lat="44.23266" lon="3.23769">
        <ele>780.93</ele>
        <time>2026-04-23T11:09:20.291Z</time>
      </trkpt>
      <trkpt lat="44.23265" lon="3.2377">
        <ele>779.96</ele>
        <time>2026-04-23T11:09:25.291Z</time>
      </trkpt>
      <trkpt lat="44.23265" lon="3.23768">
        <ele>779.79</ele>
        <time>2026-04-23T11:10:32.293Z</time>
      </trkpt>
      <trkpt lat="44.23264" lon="3.23768">
        <ele>779.84</ele>
        <time>2026-04-23T11:11:13.293Z</time>
      </trkpt>
      <trkpt lat="44.23263" lon="3.23768">
        <ele>779.4</ele>
        <time>2026-04-23T11:11:58.294Z</time>
      </trkpt>
      <trkpt lat="44.23262" lon="3.23769">
        <ele>779.54</ele>
        <time>2026-04-23T11:12:07.294Z</time>
      </trkpt>
      <trkpt lat="44.23263" lon="3.23768">
        <ele>779.65</ele>
        <time>2026-04-23T11:12:15.294Z</time>
      </trkpt>
      <trkpt lat="44.23265" lon="3.23765">
        <ele>779.8</ele>
        <time>2026-04-23T11:12:20.294Z</time>
      </trkpt>
      <trkpt lat="44.23266" lon="3.23764">
        <ele>779.86</ele>
        <time>2026-04-23T11:12:25.294Z</time>
      </trkpt>
      <trkpt lat="44.23266" lon="3.23765">
        <ele>780.38</ele>
        <time>2026-04-23T11:12:38.295Z</time>
      </trkpt>
      <trkpt lat="44.23265" lon="3.23765">
        <ele>779.56</ele>
        <time>2026-04-23T11:12:47.295Z</time>
      </trkpt>
      <trkpt lat="44.23264" lon="3.23765">
        <ele>780.73</ele>
        <time>2026-04-23T11:13:11.295Z</time>
      </trkpt>
      <trkpt lat="44.23263" lon="3.23765">
        <ele>780.06</ele>
        <time>2026-04-23T11:13:29.295Z</time>
      </trkpt>
      <trkpt lat="44.23265" lon="3.23765">
        <ele>781.23</ele>
        <time>2026-04-23T11:13:48.296Z</time>
      </trkpt>
      <trkpt lat="44.23264" lon="3.23767">
        <ele>780.62</ele>
        <time>2026-04-23T11:14:27.297Z</time>
      </trkpt>
      <trkpt lat="44.23263" lon="3.2377">
        <ele>779.43</ele>
        <time>2026-04-23T11:14:32.297Z</time>
      </trkpt>
      <trkpt lat="44.23263" lon="3.23769">
        <ele>781.39</ele>
        <time>2026-04-23T11:14:58.297Z</time>
      </trkpt>
      <trkpt lat="44.23264" lon="3.23769">
        <ele>781.1</ele>
        <time>2026-04-23T11:15:06.297Z</time>
      </trkpt>
      <trkpt lat="44.23263" lon="3.23769">
        <ele>782.1</ele>
        <time>2026-04-23T11:15:14.296Z</time>
      </trkpt>
      <trkpt lat="44.23263" lon="3.23768">
        <ele>780.36</ele>
        <time>2026-04-23T11:16:23.299Z</time>
      </trkpt>
      <trkpt lat="44.23262" lon="3.23769">
        <ele>780.27</ele>
        <time>2026-04-23T11:16:39.298Z</time>
      </trkpt>
      <trkpt lat="44.23257" lon="3.23768">
        <ele>780.75</ele>
        <time>2026-04-23T11:16:44.299Z</time>
      </trkpt>
      <trkpt lat="44.23258" lon="3.23767">
        <ele>779.94</ele>
        <time>2026-04-23T11:17:05.298Z</time>
      </trkpt>
      <trkpt lat="44.23259" lon="3.23766">
        <ele>780.19</ele>
        <time>2026-04-23T11:17:31.300Z</time>
      </trkpt>
      <trkpt lat="44.23259" lon="3.23765">
        <ele>780.7</ele>
        <time>2026-04-23T11:17:50.300Z</time>
      </trkpt>
      <trkpt lat="44.23259" lon="3.23767">
        <ele>778.15</ele>
        <time>2026-04-23T11:18:07.300Z</time>
      </trkpt>
      <trkpt lat="44.23259" lon="3.23768">
        <ele>780.73</ele>
        <time>2026-04-23T11:18:15.301Z</time>
      </trkpt>
      <trkpt lat="44.23266" lon="3.2377">
        <ele>780.07</ele>
        <time>2026-04-23T11:18:20.301Z</time>
      </trkpt>
      <trkpt lat="44.23272" lon="3.23776">
        <ele>778.69</ele>
        <time>2026-04-23T11:18:25.301Z</time>
      </trkpt>
      <trkpt lat="44.23277" lon="3.23784">
        <ele>779.39</ele>
        <time>2026-04-23T11:18:30.301Z</time>
      </trkpt>
      <trkpt lat="44.23278" lon="3.23783">
        <ele>780.82</ele>
        <time>2026-04-23T11:18:35.301Z</time>
      </trkpt>
      <trkpt lat="44.23277" lon="3.23784">
        <ele>779.01</ele>
        <time>2026-04-23T11:18:40.301Z</time>
      </trkpt>
      <trkpt lat="44.2328" lon="3.23784">
        <ele>779.32</ele>
        <time>2026-04-23T11:18:45.301Z</time>
      </trkpt>
      <trkpt lat="44.23278" lon="3.23782">
        <ele>778.79</ele>
        <time>2026-04-23T11:18:50.301Z</time>
      </trkpt>
      <trkpt lat="44.23277" lon="3.23781">
        <ele>778.34</ele>
        <time>2026-04-23T11:18:55.302Z</time>
      </trkpt>
      <trkpt lat="44.23276" lon="3.23781">
        <ele>779.92</ele>
        <time>2026-04-23T11:19:01.301Z</time>
      </trkpt>
      <trkpt lat="44.23275" lon="3.2378">
        <ele>779.51</ele>
        <time>2026-04-23T11:19:13.302Z</time>
      </trkpt>
      <trkpt lat="44.23274" lon="3.2378">
        <ele>779.66</ele>
        <time>2026-04-23T11:19:23.302Z</time>
      </trkpt>
      <trkpt lat="44.23273" lon="3.23779">
        <ele>780.52</ele>
        <time>2026-04-23T11:19:36.302Z</time>
      </trkpt>
      <trkpt lat="44.23272" lon="3.23778">
        <ele>781.3</ele>
        <time>2026-04-23T11:19:44.302Z</time>
      </trkpt>
      <trkpt lat="44.23272" lon="3.23778">
        <ele>780.46</ele>
        <time>2026-04-23T11:19:49.302Z</time>
      </trkpt>
      <trkpt lat="44.2327" lon="3.23776">
        <ele>780.18</ele>
        <time>2026-04-23T11:19:54.303Z</time>
      </trkpt>
      <trkpt lat="44.23269" lon="3.23776">
        <ele>780.03</ele>
        <time>2026-04-23T11:19:59.303Z</time>
      </trkpt>
      <trkpt lat="44.23267" lon="3.23775">
        <ele>780.29</ele>
        <time>2026-04-23T11:20:04.303Z</time>
      </trkpt>
      <trkpt lat="44.23266" lon="3.23773">
        <ele>779.9</ele>
        <time>2026-04-23T11:20:11.303Z</time>
      </trkpt>
      <trkpt lat="44.23266" lon="3.23772">
        <ele>779.41</ele>
        <time>2026-04-23T11:21:02.304Z</time>
      </trkpt>
      <trkpt lat="44.23265" lon="3.23771">
        <ele>779.03</ele>
        <time>2026-04-23T11:21:33.304Z</time>
      </trkpt>
      <trkpt lat="44.23264" lon="3.2377">
        <ele>777.9</ele>
        <time>2026-04-23T11:22:44.306Z</time>
      </trkpt>
      <trkpt lat="44.23264" lon="3.23769">
        <ele>778.88</ele>
        <time>2026-04-23T11:23:18.306Z</time>
      </trkpt>
      <trkpt lat="44.23264" lon="3.23768">
        <ele>780.97</ele>
        <time>2026-04-23T11:24:37.308Z</time>
      </trkpt>
      <trkpt lat="44.23264" lon="3.23767">
        <ele>781.05</ele>
        <time>2026-04-23T11:25:12.308Z</time>
      </trkpt>
      <trkpt lat="44.23263" lon="3.23766">
        <ele>780.59</ele>
        <time>2026-04-23T11:26:06.308Z</time>
      </trkpt>
      <trkpt lat="44.23262" lon="3.23766">
        <ele>780.26</ele>
        <time>2026-04-23T11:26:28.310Z</time>
      </trkpt>
      <trkpt lat="44.23262" lon="3.23767">
        <ele>780.65</ele>
        <time>2026-04-23T11:26:53.309Z</time>
      </trkpt>
      <trkpt lat="44.23262" lon="3.23766">
        <ele>780.1</ele>
        <time>2026-04-23T11:27:18.310Z</time>
      </trkpt>
      <trkpt lat="44.23263" lon="3.23766">
        <ele>781.12</ele>
        <time>2026-04-23T11:27:37.311Z</time>
      </trkpt>
      <trkpt lat="44.23262" lon="3.23766">
        <ele>779.09</ele>
        <time>2026-04-23T11:28:12.310Z</time>
      </trkpt>
      <trkpt lat="44.23261" lon="3.23766">
        <ele>778.85</ele>
        <time>2026-04-23T11:28:22.312Z</time>
      </trkpt>
      <trkpt lat="44.2326" lon="3.23765">
        <ele>779.9</ele>
        <time>2026-04-23T11:28:58.313Z</time>
      </trkpt>
      <trkpt lat="44.2326" lon="3.23764">
        <ele>780.26</ele>
        <time>2026-04-23T11:29:03.313Z</time>
      </trkpt>
      <trkpt lat="44.2326" lon="3.23765">
        <ele>780.27</ele>
        <time>2026-04-23T11:29:52.313Z</time>
      </trkpt>
      <trkpt lat="44.2326" lon="3.23766">
        <ele>780.33</ele>
        <time>2026-04-23T11:30:01.314Z</time>
      </trkpt>
      <trkpt lat="44.2326" lon="3.23765">
        <ele>778.56</ele>
        <time>2026-04-23T11:30:54.315Z</time>
      </trkpt>
      <trkpt lat="44.2326" lon="3.23765">
        <ele>777.58</ele>
        <time>2026-04-23T11:31:14.315Z</time>
      </trkpt>
      <trkpt lat="44.2326" lon="3.23764">
        <ele>779.56</ele>
        <time>2026-04-23T11:31:27.315Z</time>
      </trkpt>
      <trkpt lat="44.23259" lon="3.23763">
        <ele>778.86</ele>
        <time>2026-04-23T11:31:33.315Z</time>
      </trkpt>
      <trkpt lat="44.23259" lon="3.23762">
        <ele>778.57</ele>
        <time>2026-04-23T11:31:41.315Z</time>
      </trkpt>
      <trkpt lat="44.23258" lon="3.23762">
        <ele>778.43</ele>
        <time>2026-04-23T11:32:46.392Z</time>
      </trkpt>
      <trkpt lat="44.23259" lon="3.23767">
        <ele>778.41</ele>
        <time>2026-04-23T11:32:51.409Z</time>
      </trkpt>
      <trkpt lat="44.2326" lon="3.23768">
        <ele>779.35</ele>
        <time>2026-04-23T11:32:56.424Z</time>
      </trkpt>
      <trkpt lat="44.23261" lon="3.23767">
        <ele>779.04</ele>
        <time>2026-04-23T11:33:01.440Z</time>
      </trkpt>
      <trkpt lat="44.23262" lon="3.23767">
        <ele>780.14</ele>
        <time>2026-04-23T11:33:11.364Z</time>
      </trkpt>
      <trkpt lat="44.23263" lon="3.23766">
        <ele>779.21</ele>
        <time>2026-04-23T11:33:26.410Z</time>
      </trkpt>
      <trkpt lat="44.23262" lon="3.23765">
        <ele>779.04</ele>
        <time>2026-04-23T11:33:53.408Z</time>
      </trkpt>
      <trkpt lat="44.23262" lon="3.23764">
        <ele>780.51</ele>
        <time>2026-04-23T11:34:16.458Z</time>
      </trkpt>
      <trkpt lat="44.23261" lon="3.23763">
        <ele>781.17</ele>
        <time>2026-04-23T11:34:38.439Z</time>
      </trkpt>
      <trkpt lat="44.2326" lon="3.23763">
        <ele>779.17</ele>
        <time>2026-04-23T11:34:52.419Z</time>
      </trkpt>
      <trkpt lat="44.23259" lon="3.23763">
        <ele>780.1</ele>
        <time>2026-04-23T11:35:03.262Z</time>
      </trkpt>
      <trkpt lat="44.23259" lon="3.23764">
        <ele>780.81</ele>
        <time>2026-04-23T11:35:31.368Z</time>
      </trkpt>
      <trkpt lat="44.2326" lon="3.23765">
        <ele>780.49</ele>
        <time>2026-04-23T11:35:37.344Z</time>
      </trkpt>
      <trkpt lat="44.2326" lon="3.23766">
        <ele>780.25</ele>
        <time>2026-04-23T11:35:42.360Z</time>
      </trkpt>
      <trkpt lat="44.23262" lon="3.23765">
        <ele>780.97</ele>
        <time>2026-04-23T11:35:47.376Z</time>
      </trkpt>
      <trkpt lat="44.23263" lon="3.23762">
        <ele>780.64</ele>
        <time>2026-04-23T11:35:52.391Z</time>
      </trkpt>
      <trkpt lat="44.23262" lon="3.23762">
        <ele>781.65</ele>
        <time>2026-04-23T11:36:04.451Z</time>
      </trkpt>
      <trkpt lat="44.23261" lon="3.23764">
        <ele>780.87</ele>
        <time>2026-04-23T11:36:15.443Z</time>
      </trkpt>
      <trkpt lat="44.23261" lon="3.23765">
        <ele>781.03</ele>
        <time>2026-04-23T11:36:23.447Z</time>
      </trkpt>
      <trkpt lat="44.2326" lon="3.23766">
        <ele>781.89</ele>
        <time>2026-04-23T11:36:41.101Z</time>
      </trkpt>
      <trkpt lat="44.23261" lon="3.23765">
        <ele>781.5</ele>
        <time>2026-04-23T11:36:52.368Z</time>
      </trkpt>
      <trkpt lat="44.2326" lon="3.23764">
        <ele>780.41</ele>
        <time>2026-04-23T11:37:04.427Z</time>
      </trkpt>
      <trkpt lat="44.2326" lon="3.23765">
        <ele>780.01</ele>
        <time>2026-04-23T11:37:41.457Z</time>
      </trkpt>
      <trkpt lat="44.2326" lon="3.23766">
        <ele>780.2</ele>
        <time>2026-04-23T11:37:55.437Z</time>
      </trkpt>
      <trkpt lat="44.2326" lon="3.23765">
        <ele>780.21</ele>
        <time>2026-04-23T11:38:19.446Z</time>
      </trkpt>
      <trkpt lat="44.23259" lon="3.23765">
        <ele>779.57</ele>
        <time>2026-04-23T11:38:30.438Z</time>
      </trkpt>
      <trkpt lat="44.23259" lon="3.23763">
        <ele>781.11</ele>
        <time>2026-04-23T11:38:50.494Z</time>
      </trkpt>
      <trkpt lat="44.23259" lon="3.23762">
        <ele>781.07</ele>
        <time>2026-04-23T11:38:56.477Z</time>
      </trkpt>
      <trkpt lat="44.23259" lon="3.23761">
        <ele>780.27</ele>
        <time>2026-04-23T11:39:05.440Z</time>
      </trkpt>
      <trkpt lat="44.23259" lon="3.23759">
        <ele>780.31</ele>
        <time>2026-04-23T11:39:13.278Z</time>
      </trkpt>
      <trkpt lat="44.23259" lon="3.23758">
        <ele>781.83</ele>
        <time>2026-04-23T11:39:19.397Z</time>
      </trkpt>
      <trkpt lat="44.23259" lon="3.23756">
        <ele>781.99</ele>
        <time>2026-04-23T11:39:25.116Z</time>
      </trkpt>
      <trkpt lat="44.2326" lon="3.23752">
        <ele>783.34</ele>
        <time>2026-04-23T11:39:30.256Z</time>
      </trkpt>
      <trkpt lat="44.23262" lon="3.23742">
        <ele>783.88</ele>
        <time>2026-04-23T11:39:35.904Z</time>
      </trkpt>
      <trkpt lat="44.23264" lon="3.23738">
        <ele>783.73</ele>
        <time>2026-04-23T11:39:41.403Z</time>
      </trkpt>
      <trkpt lat="44.23265" lon="3.23737">
        <ele>784.12</ele>
        <time>2026-04-23T11:39:47.881Z</time>
      </trkpt>
      <trkpt lat="44.23266" lon="3.23734">
        <ele>783.7</ele>
        <time>2026-04-23T11:39:52.885Z</time>
      </trkpt>
      <trkpt lat="44.23268" lon="3.23732">
        <ele>783.42</ele>
        <time>2026-04-23T11:39:57.947Z</time>
      </trkpt>
      <trkpt lat="44.23269" lon="3.23732">
        <ele>782.51</ele>
        <time>2026-04-23T11:40:03.492Z</time>
      </trkpt>
      <trkpt lat="44.2327" lon="3.23733">
        <ele>782.7</ele>
        <time>2026-04-23T11:40:16.404Z</time>
      </trkpt>
      <trkpt lat="44.23271" lon="3.23733">
        <ele>783.93</ele>
        <time>2026-04-23T11:40:21.420Z</time>
      </trkpt>
      <trkpt lat="44.23276" lon="3.23736">
        <ele>784.62</ele>
        <time>2026-04-23T11:40:26.435Z</time>
      </trkpt>
      <trkpt lat="44.23281" lon="3.23742">
        <ele>784.52</ele>
        <time>2026-04-23T11:40:31.863Z</time>
      </trkpt>
      <trkpt lat="44.23288" lon="3.23741">
        <ele>784.05</ele>
        <time>2026-04-23T11:40:37.344Z</time>
      </trkpt>
      <trkpt lat="44.23294" lon="3.23742">
        <ele>783.5</ele>
        <time>2026-04-23T11:40:42.523Z</time>
      </trkpt>
      <trkpt lat="44.23298" lon="3.23749">
        <ele>782.57</ele>
        <time>2026-04-23T11:40:47.939Z</time>
      </trkpt>
      <trkpt lat="44.23301" lon="3.2375">
        <ele>782.51</ele>
        <time>2026-04-23T11:40:53.301Z</time>
      </trkpt>
      <trkpt lat="44.23303" lon="3.2375">
        <ele>782.25</ele>
        <time>2026-04-23T11:40:58.448Z</time>
      </trkpt>
      <trkpt lat="44.23303" lon="3.23749">
        <ele>782.44</ele>
        <time>2026-04-23T11:41:05.385Z</time>
      </trkpt>
      <trkpt lat="44.23305" lon="3.23747">
        <ele>782.84</ele>
        <time>2026-04-23T11:41:10.401Z</time>
      </trkpt>
      <trkpt lat="44.23306" lon="3.2375">
        <ele>782.9</ele>
        <time>2026-04-23T11:41:15.417Z</time>
      </trkpt>
      <trkpt lat="44.23307" lon="3.23755">
        <ele>782.15</ele>
        <time>2026-04-23T11:41:20.431Z</time>
      </trkpt>
      <trkpt lat="44.23308" lon="3.23765">
        <ele>782.94</ele>
        <time>2026-04-23T11:41:26.206Z</time>
      </trkpt>
      <trkpt lat="44.23315" lon="3.23771">
        <ele>783.31</ele>
        <time>2026-04-23T11:41:31.827Z</time>
      </trkpt>
      <trkpt lat="44.23321" lon="3.23771">
        <ele>783.88</ele>
        <time>2026-04-23T11:41:37.065Z</time>
      </trkpt>
      <trkpt lat="44.23326" lon="3.23774">
        <ele>783.89</ele>
        <time>2026-04-23T11:41:42.163Z</time>
      </trkpt>
      <trkpt lat="44.2333" lon="3.23781">
        <ele>784.13</ele>
        <time>2026-04-23T11:41:47.490Z</time>
      </trkpt>
      <trkpt lat="44.23332" lon="3.23789">
        <ele>784.38</ele>
        <time>2026-04-23T11:41:53.050Z</time>
      </trkpt>
      <trkpt lat="44.23336" lon="3.23792">
        <ele>784.1</ele>
        <time>2026-04-23T11:41:58.453Z</time>
      </trkpt>
      <trkpt lat="44.23339" lon="3.23793">
        <ele>783.88</ele>
        <time>2026-04-23T11:42:04.147Z</time>
      </trkpt>
      <trkpt lat="44.2334" lon="3.23795">
        <ele>784.3</ele>
        <time>2026-04-23T11:42:09.325Z</time>
      </trkpt>
      <trkpt lat="44.23342" lon="3.23802">
        <ele>784.72</ele>
        <time>2026-04-23T11:42:14.461Z</time>
      </trkpt>
      <trkpt lat="44.23345" lon="3.23808">
        <ele>785.24</ele>
        <time>2026-04-23T11:42:20.344Z</time>
      </trkpt>
      <trkpt lat="44.23348" lon="3.23808">
        <ele>783.78</ele>
        <time>2026-04-23T11:42:26.412Z</time>
      </trkpt>
      <trkpt lat="44.23349" lon="3.23805">
        <ele>783.97</ele>
        <time>2026-04-23T11:42:31.429Z</time>
      </trkpt>
      <trkpt lat="44.23357" lon="3.23801">
        <ele>783.91</ele>
        <time>2026-04-23T11:42:36.866Z</time>
      </trkpt>
      <trkpt lat="44.23361" lon="3.23797">
        <ele>783.62</ele>
        <time>2026-04-23T11:42:42.456Z</time>
      </trkpt>
      <trkpt lat="44.23367" lon="3.23791">
        <ele>784.31</ele>
        <time>2026-04-23T11:42:47.807Z</time>
      </trkpt>
      <trkpt lat="44.23368" lon="3.23791">
        <ele>784.26</ele>
        <time>2026-04-23T11:42:53.013Z</time>
      </trkpt>
      <trkpt lat="44.2337" lon="3.23792">
        <ele>784.21</ele>
        <time>2026-04-23T11:42:58.484Z</time>
      </trkpt>
      <trkpt lat="44.23374" lon="3.23799">
        <ele>784.61</ele>
        <time>2026-04-23T11:43:03.910Z</time>
      </trkpt>
      <trkpt lat="44.23373" lon="3.23802">
        <ele>784.89</ele>
        <time>2026-04-23T11:43:09.424Z</time>
      </trkpt>
      <trkpt lat="44.23374" lon="3.23802">
        <ele>785.07</ele>
        <time>2026-04-23T11:43:15.400Z</time>
      </trkpt>
      <trkpt lat="44.23381" lon="3.23804">
        <ele>784.74</ele>
        <time>2026-04-23T11:43:20.736Z</time>
      </trkpt>
      <trkpt lat="44.23384" lon="3.23806">
        <ele>785.63</ele>
        <time>2026-04-23T11:43:26.392Z</time>
      </trkpt>
      <trkpt lat="44.23389" lon="3.23808">
        <ele>785.68</ele>
        <time>2026-04-23T11:43:31.408Z</time>
      </trkpt>
      <trkpt lat="44.23391" lon="3.23807">
        <ele>785.61</ele>
        <time>2026-04-23T11:43:36.424Z</time>
      </trkpt>
      <trkpt lat="44.23392" lon="3.23805">
        <ele>785.63</ele>
        <time>2026-04-23T11:43:41.440Z</time>
      </trkpt>
      <trkpt lat="44.23393" lon="3.23803">
        <ele>785.45</ele>
        <time>2026-04-23T11:43:47.416Z</time>
      </trkpt>
      <trkpt lat="44.23393" lon="3.23802">
        <ele>784.72</ele>
        <time>2026-04-23T11:43:56.316Z</time>
      </trkpt>
      <trkpt lat="44.23395" lon="3.2381">
        <ele>789.74</ele>
        <time>2026-04-23T11:44:01.500Z</time>
      </trkpt>
      <trkpt lat="44.23406" lon="3.23816">
        <ele>790.93</ele>
        <time>2026-04-23T11:44:07.476Z</time>
      </trkpt>
      <trkpt lat="44.23413" lon="3.23807">
        <ele>787.3</ele>
        <time>2026-04-23T11:44:12.977Z</time>
      </trkpt>
      <trkpt lat="44.23417" lon="3.23807">
        <ele>786.01</ele>
        <time>2026-04-23T11:44:18.178Z</time>
      </trkpt>
      <trkpt lat="44.23418" lon="3.23817">
        <ele>788.39</ele>
        <time>2026-04-23T11:44:23.258Z</time>
      </trkpt>
      <trkpt lat="44.2342" lon="3.23821">
        <ele>789.85</ele>
        <time>2026-04-23T11:44:28.441Z</time>
      </trkpt>
      <trkpt lat="44.23428" lon="3.23827">
        <ele>790.22</ele>
        <time>2026-04-23T11:44:33.983Z</time>
      </trkpt>
      <trkpt lat="44.23436" lon="3.23831">
        <ele>790.63</ele>
        <time>2026-04-23T11:44:39.141Z</time>
      </trkpt>
      <trkpt lat="44.23445" lon="3.23835">
        <ele>789.2</ele>
        <time>2026-04-23T11:44:45.454Z</time>
      </trkpt>
      <trkpt lat="44.2345" lon="3.23836">
        <ele>788.34</ele>
        <time>2026-04-23T11:44:50.484Z</time>
      </trkpt>
      <trkpt lat="44.23449" lon="3.23839">
        <ele>788.6</ele>
        <time>2026-04-23T11:44:55.499Z</time>
      </trkpt>
      <trkpt lat="44.23447" lon="3.23841">
        <ele>787.58</ele>
        <time>2026-04-23T11:45:00.519Z</time>
      </trkpt>
      <trkpt lat="44.23447" lon="3.23842">
        <ele>786.89</ele>
        <time>2026-04-23T11:45:08.416Z</time>
      </trkpt>
      <trkpt lat="44.23445" lon="3.23842">
        <ele>787.33</ele>
        <time>2026-04-23T11:45:13.432Z</time>
      </trkpt>
      <trkpt lat="44.23441" lon="3.23838">
        <ele>786.79</ele>
        <time>2026-04-23T11:45:19.216Z</time>
      </trkpt>
      <trkpt lat="44.23424" lon="3.2385">
        <ele>787.91</ele>
        <time>2026-04-23T11:45:24.424Z</time>
      </trkpt>
      <trkpt lat="44.23422" lon="3.2385">
        <ele>787.42</ele>
        <time>2026-04-23T11:45:30.314Z</time>
      </trkpt>
      <trkpt lat="44.23422" lon="3.23848">
        <ele>786.74</ele>
        <time>2026-04-23T11:45:36.376Z</time>
      </trkpt>
      <trkpt lat="44.23423" lon="3.23847">
        <ele>787.97</ele>
        <time>2026-04-23T11:45:42.459Z</time>
      </trkpt>
      <trkpt lat="44.23431" lon="3.23849">
        <ele>788.2</ele>
        <time>2026-04-23T11:45:48.197Z</time>
      </trkpt>
      <trkpt lat="44.23432" lon="3.23849">
        <ele>790.72</ele>
        <time>2026-04-23T11:45:53.452Z</time>
      </trkpt>
      <trkpt lat="44.23433" lon="3.23854">
        <ele>790.47</ele>
        <time>2026-04-23T11:45:59.075Z</time>
      </trkpt>
      <trkpt lat="44.23438" lon="3.23861">
        <ele>789.69</ele>
        <time>2026-04-23T11:46:04.444Z</time>
      </trkpt>
      <trkpt lat="44.23445" lon="3.23867">
        <ele>790.04</ele>
        <time>2026-04-23T11:46:09.460Z</time>
      </trkpt>
      <trkpt lat="44.23448" lon="3.23867">
        <ele>790.16</ele>
        <time>2026-04-23T11:46:15.436Z</time>
      </trkpt>
      <trkpt lat="44.23448" lon="3.2387">
        <ele>789.51</ele>
        <time>2026-04-23T11:46:21.413Z</time>
      </trkpt>
      <trkpt lat="44.23449" lon="3.2387">
        <ele>790.67</ele>
        <time>2026-04-23T11:46:36.461Z</time>
      </trkpt>
      <trkpt lat="44.23449" lon="3.23872">
        <ele>789.35</ele>
        <time>2026-04-23T11:46:55.333Z</time>
      </trkpt>
      <trkpt lat="44.23449" lon="3.23874">
        <ele>789.68</ele>
        <time>2026-04-23T11:47:00.333Z</time>
      </trkpt>
      <trkpt lat="44.2345" lon="3.23875">
        <ele>789.57</ele>
        <time>2026-04-23T11:47:05.333Z</time>
      </trkpt>
      <trkpt lat="44.23449" lon="3.23874">
        <ele>788.81</ele>
        <time>2026-04-23T11:47:14.333Z</time>
      </trkpt>
      <trkpt lat="44.23451" lon="3.23873">
        <ele>790</ele>
        <time>2026-04-23T11:47:30.333Z</time>
      </trkpt>
      <trkpt lat="44.23451" lon="3.23868">
        <ele>791.31</ele>
        <time>2026-04-23T11:47:35.333Z</time>
      </trkpt>
      <trkpt lat="44.23451" lon="3.23871">
        <ele>791.89</ele>
        <time>2026-04-23T11:47:40.333Z</time>
      </trkpt>
      <trkpt lat="44.23451" lon="3.23877">
        <ele>791.04</ele>
        <time>2026-04-23T11:47:45.334Z</time>
      </trkpt>
      <trkpt lat="44.2345" lon="3.23879">
        <ele>790.84</ele>
        <time>2026-04-23T11:47:51.334Z</time>
      </trkpt>
      <trkpt lat="44.23454" lon="3.23888">
        <ele>791.28</ele>
        <time>2026-04-23T11:47:56.402Z</time>
      </trkpt>
      <trkpt lat="44.23453" lon="3.23899">
        <ele>791.14</ele>
        <time>2026-04-23T11:48:01.797Z</time>
      </trkpt>
      <trkpt lat="44.23451" lon="3.23903">
        <ele>791.47</ele>
        <time>2026-04-23T11:48:07.501Z</time>
      </trkpt>
      <trkpt lat="44.2345" lon="3.23907">
        <ele>791.52</ele>
        <time>2026-04-23T11:48:13.144Z</time>
      </trkpt>
      <trkpt lat="44.23452" lon="3.23915">
        <ele>792.94</ele>
        <time>2026-04-23T11:48:18.492Z</time>
      </trkpt>
      <trkpt lat="44.23454" lon="3.23921">
        <ele>794.13</ele>
        <time>2026-04-23T11:48:24.303Z</time>
      </trkpt>
      <trkpt lat="44.23459" lon="3.23921">
        <ele>795.12</ele>
        <time>2026-04-23T11:48:29.484Z</time>
      </trkpt>
      <trkpt lat="44.2347" lon="3.23918">
        <ele>796.44</ele>
        <time>2026-04-23T11:48:35.020Z</time>
      </trkpt>
      <trkpt lat="44.23479" lon="3.23915">
        <ele>796.35</ele>
        <time>2026-04-23T11:48:40.443Z</time>
      </trkpt>
      <trkpt lat="44.23485" lon="3.23908">
        <ele>795.42</ele>
        <time>2026-04-23T11:48:45.625Z</time>
      </trkpt>
      <trkpt lat="44.23491" lon="3.23907">
        <ele>794.26</ele>
        <time>2026-04-23T11:48:51.467Z</time>
      </trkpt>
      <trkpt lat="44.23497" lon="3.23905">
        <ele>792.97</ele>
        <time>2026-04-23T11:48:56.806Z</time>
      </trkpt>
      <trkpt lat="44.23501" lon="3.23906">
        <ele>793.79</ele>
        <time>2026-04-23T11:49:02.071Z</time>
      </trkpt>
      <trkpt lat="44.23504" lon="3.23903">
        <ele>793.97</ele>
        <time>2026-04-23T11:49:07.474Z</time>
      </trkpt>
      <trkpt lat="44.23505" lon="3.23907">
        <ele>793.02</ele>
        <time>2026-04-23T11:49:12.489Z</time>
      </trkpt>
      <trkpt lat="44.23513" lon="3.23901">
        <ele>793.07</ele>
        <time>2026-04-23T11:49:18.274Z</time>
      </trkpt>
      <trkpt lat="44.23518" lon="3.23904">
        <ele>792.59</ele>
        <time>2026-04-23T11:49:23.616Z</time>
      </trkpt>
      <trkpt lat="44.23523" lon="3.23898">
        <ele>792</ele>
        <time>2026-04-23T11:49:29.220Z</time>
      </trkpt>
      <trkpt lat="44.23527" lon="3.23891">
        <ele>792.01</ele>
        <time>2026-04-23T11:49:34.401Z</time>
      </trkpt>
      <trkpt lat="44.23533" lon="3.23889">
        <ele>791.04</ele>
        <time>2026-04-23T11:49:40.273Z</time>
      </trkpt>
      <trkpt lat="44.23537" lon="3.23893">
        <ele>790.97</ele>
        <time>2026-04-23T11:49:46.356Z</time>
      </trkpt>
      <trkpt lat="44.23541" lon="3.23895">
        <ele>792.54</ele>
        <time>2026-04-23T11:49:52.234Z</time>
      </trkpt>
      <trkpt lat="44.23543" lon="3.23893">
        <ele>792.48</ele>
        <time>2026-04-23T11:49:57.450Z</time>
      </trkpt>
      <trkpt lat="44.23541" lon="3.23891">
        <ele>791.97</ele>
        <time>2026-04-23T11:50:02.853Z</time>
      </trkpt>
      <trkpt lat="44.23546" lon="3.23889">
        <ele>792.28</ele>
        <time>2026-04-23T11:50:08.441Z</time>
      </trkpt>
      <trkpt lat="44.23551" lon="3.23893">
        <ele>793.53</ele>
        <time>2026-04-23T11:50:13.531Z</time>
      </trkpt>
      <trkpt lat="44.23557" lon="3.23896">
        <ele>793.83</ele>
        <time>2026-04-23T11:50:19.137Z</time>
      </trkpt>
      <trkpt lat="44.23563" lon="3.23898">
        <ele>793.86</ele>
        <time>2026-04-23T11:50:24.174Z</time>
      </trkpt>
      <trkpt lat="44.23567" lon="3.23897">
        <ele>794.68</ele>
        <time>2026-04-23T11:50:29.874Z</time>
      </trkpt>
      <trkpt lat="44.2357" lon="3.23899">
        <ele>794.58</ele>
        <time>2026-04-23T11:50:35.512Z</time>
      </trkpt>
      <trkpt lat="44.23577" lon="3.23898">
        <ele>795.72</ele>
        <time>2026-04-23T11:50:40.813Z</time>
      </trkpt>
      <trkpt lat="44.23581" lon="3.23896">
        <ele>795.97</ele>
        <time>2026-04-23T11:50:46.239Z</time>
      </trkpt>
      <trkpt lat="44.23584" lon="3.23897">
        <ele>796.28</ele>
        <time>2026-04-23T11:50:51.250Z</time>
      </trkpt>
      <trkpt lat="44.23589" lon="3.23901">
        <ele>796.6</ele>
        <time>2026-04-23T11:50:56.361Z</time>
      </trkpt>
      <trkpt lat="44.23591" lon="3.23901">
        <ele>796.39</ele>
        <time>2026-04-23T11:51:01.377Z</time>
      </trkpt>
      <trkpt lat="44.23597" lon="3.239">
        <ele>795.56</ele>
        <time>2026-04-23T11:51:07.459Z</time>
      </trkpt>
      <trkpt lat="44.23607" lon="3.23902">
        <ele>796.95</ele>
        <time>2026-04-23T11:51:12.851Z</time>
      </trkpt>
      <trkpt lat="44.23615" lon="3.23905">
        <ele>798.73</ele>
        <time>2026-04-23T11:51:18.198Z</time>
      </trkpt>
      <trkpt lat="44.23616" lon="3.23912">
        <ele>802.05</ele>
        <time>2026-04-23T11:51:23.467Z</time>
      </trkpt>
      <trkpt lat="44.23616" lon="3.23911">
        <ele>797.33</ele>
        <time>2026-04-23T11:51:29.443Z</time>
      </trkpt>
      <trkpt lat="44.23617" lon="3.23911">
        <ele>795.91</ele>
        <time>2026-04-23T11:51:54.035Z</time>
      </trkpt>
      <trkpt lat="44.23625" lon="3.23918">
        <ele>798.78</ele>
        <time>2026-04-23T11:52:00.093Z</time>
      </trkpt>
      <trkpt lat="44.23629" lon="3.23924">
        <ele>795.87</ele>
        <time>2026-04-23T11:52:05.498Z</time>
      </trkpt>
      <trkpt lat="44.23634" lon="3.23917">
        <ele>794.78</ele>
        <time>2026-04-23T11:52:11.380Z</time>
      </trkpt>
      <trkpt lat="44.23636" lon="3.23915">
        <ele>794.53</ele>
        <time>2026-04-23T11:52:16.399Z</time>
      </trkpt>
      <trkpt lat="44.2364" lon="3.23913">
        <ele>797.35</ele>
        <time>2026-04-23T11:52:21.411Z</time>
      </trkpt>
      <trkpt lat="44.23645" lon="3.23913">
        <ele>797.56</ele>
        <time>2026-04-23T11:52:26.426Z</time>
      </trkpt>
      <trkpt lat="44.23652" lon="3.23915">
        <ele>795.52</ele>
        <time>2026-04-23T11:52:31.441Z</time>
      </trkpt>
      <trkpt lat="44.23657" lon="3.23917">
        <ele>794.93</ele>
        <time>2026-04-23T11:52:37.234Z</time>
      </trkpt>
      <trkpt lat="44.23663" lon="3.23912">
        <ele>794.23</ele>
        <time>2026-04-23T11:52:42.337Z</time>
      </trkpt>
      <trkpt lat="44.2367" lon="3.23909">
        <ele>793.46</ele>
        <time>2026-04-23T11:52:47.914Z</time>
      </trkpt>
      <trkpt lat="44.23678" lon="3.23906">
        <ele>794.61</ele>
        <time>2026-04-23T11:52:53.214Z</time>
      </trkpt>
      <trkpt lat="44.23684" lon="3.23904">
        <ele>793.78</ele>
        <time>2026-04-23T11:52:58.438Z</time>
      </trkpt>
      <trkpt lat="44.23688" lon="3.23906">
        <ele>792.6</ele>
        <time>2026-04-23T11:53:03.895Z</time>
      </trkpt>
      <trkpt lat="44.23694" lon="3.23907">
        <ele>791.23</ele>
        <time>2026-04-23T11:53:09.438Z</time>
      </trkpt>
      <trkpt lat="44.23699" lon="3.23903">
        <ele>792.23</ele>
        <time>2026-04-23T11:53:14.453Z</time>
      </trkpt>
      <trkpt lat="44.23703" lon="3.23895">
        <ele>793.8</ele>
        <time>2026-04-23T11:53:20.052Z</time>
      </trkpt>
      <trkpt lat="44.23708" lon="3.23886">
        <ele>792.26</ele>
        <time>2026-04-23T11:53:25.445Z</time>
      </trkpt>
      <trkpt lat="44.23717" lon="3.23885">
        <ele>791.43</ele>
        <time>2026-04-23T11:53:31.408Z</time>
      </trkpt>
      <trkpt lat="44.23727" lon="3.23883">
        <ele>790.99</ele>
        <time>2026-04-23T11:53:36.902Z</time>
      </trkpt>
      <trkpt lat="44.23737" lon="3.23883">
        <ele>793.66</ele>
        <time>2026-04-23T11:53:42.515Z</time>
      </trkpt>
      <trkpt lat="44.23742" lon="3.23885">
        <ele>795.34</ele>
        <time>2026-04-23T11:53:47.957Z</time>
      </trkpt>
      <trkpt lat="44.23745" lon="3.23886">
        <ele>798.13</ele>
        <time>2026-04-23T11:53:53.240Z</time>
      </trkpt>
      <trkpt lat="44.23747" lon="3.23886">
        <ele>796.91</ele>
        <time>2026-04-23T11:53:58.281Z</time>
      </trkpt>
      <trkpt lat="44.23752" lon="3.23893">
        <ele>798.04</ele>
        <time>2026-04-23T11:54:04.497Z</time>
      </trkpt>
      <trkpt lat="44.23757" lon="3.239">
        <ele>799.58</ele>
        <time>2026-04-23T11:54:10.408Z</time>
      </trkpt>
      <trkpt lat="44.2376" lon="3.23901">
        <ele>800.78</ele>
        <time>2026-04-23T11:54:16.021Z</time>
      </trkpt>
      <trkpt lat="44.23763" lon="3.23898">
        <ele>799.31</ele>
        <time>2026-04-23T11:54:21.556Z</time>
      </trkpt>
      <trkpt lat="44.23766" lon="3.23897">
        <ele>799.58</ele>
        <time>2026-04-23T11:54:27.450Z</time>
      </trkpt>
      <trkpt lat="44.23767" lon="3.23896">
        <ele>799.15</ele>
        <time>2026-04-23T11:54:32.957Z</time>
      </trkpt>
      <trkpt lat="44.23773" lon="3.23893">
        <ele>798.17</ele>
        <time>2026-04-23T11:54:38.441Z</time>
      </trkpt>
      <trkpt lat="44.23778" lon="3.23896">
        <ele>798.96</ele>
        <time>2026-04-23T11:54:43.457Z</time>
      </trkpt>
      <trkpt lat="44.23777" lon="3.23897">
        <ele>799.36</ele>
        <time>2026-04-23T11:54:50.636Z</time>
      </trkpt>
      <trkpt lat="44.2378" lon="3.23903">
        <ele>798.4</ele>
        <time>2026-04-23T11:54:56.033Z</time>
      </trkpt>
      <trkpt lat="44.23789" lon="3.23909">
        <ele>798.64</ele>
        <time>2026-04-23T11:55:01.386Z</time>
      </trkpt>
      <trkpt lat="44.23788" lon="3.23909">
        <ele>799.29</ele>
        <time>2026-04-23T11:55:06.474Z</time>
      </trkpt>
      <trkpt lat="44.23789" lon="3.23909">
        <ele>798.56</ele>
        <time>2026-04-23T11:55:16.429Z</time>
      </trkpt>
      <trkpt lat="44.23794" lon="3.23904">
        <ele>797.93</ele>
        <time>2026-04-23T11:55:21.444Z</time>
      </trkpt>
      <trkpt lat="44.23803" lon="3.23911">
        <ele>799.49</ele>
        <time>2026-04-23T11:55:26.461Z</time>
      </trkpt>
      <trkpt lat="44.23808" lon="3.23915">
        <ele>801.39</ele>
        <time>2026-04-23T11:55:32.025Z</time>
      </trkpt>
      <trkpt lat="44.23811" lon="3.23917">
        <ele>798.94</ele>
        <time>2026-04-23T11:55:37.462Z</time>
      </trkpt>
      <trkpt lat="44.23816" lon="3.23923">
        <ele>798.45</ele>
        <time>2026-04-23T11:55:42.478Z</time>
      </trkpt>
      <trkpt lat="44.23818" lon="3.23924">
        <ele>798.04</ele>
        <time>2026-04-23T11:55:47.502Z</time>
      </trkpt>
      <trkpt lat="44.23822" lon="3.23923">
        <ele>797.46</ele>
        <time>2026-04-23T11:55:53.305Z</time>
      </trkpt>
      <trkpt lat="44.23828" lon="3.23921">
        <ele>798.88</ele>
        <time>2026-04-23T11:55:58.494Z</time>
      </trkpt>
      <trkpt lat="44.2383" lon="3.23913">
        <ele>799.46</ele>
        <time>2026-04-23T11:56:04.388Z</time>
      </trkpt>
      <trkpt lat="44.23833" lon="3.23912">
        <ele>799.55</ele>
        <time>2026-04-23T11:56:09.860Z</time>
      </trkpt>
      <trkpt lat="44.23837" lon="3.2391">
        <ele>800.16</ele>
        <time>2026-04-23T11:56:15.006Z</time>
      </trkpt>
      <trkpt lat="44.23839" lon="3.23909">
        <ele>800.23</ele>
        <time>2026-04-23T11:56:20.268Z</time>
      </trkpt>
      <trkpt lat="44.23838" lon="3.23909">
        <ele>799.68</ele>
        <time>2026-04-23T11:56:25.492Z</time>
      </trkpt>
      <trkpt lat="44.23835" lon="3.23908">
        <ele>798.59</ele>
        <time>2026-04-23T11:56:30.507Z</time>
      </trkpt>
      <trkpt lat="44.23832" lon="3.23904">
        <ele>798.04</ele>
        <time>2026-04-23T11:56:35.980Z</time>
      </trkpt>
      <trkpt lat="44.23829" lon="3.23902">
        <ele>797.45</ele>
        <time>2026-04-23T11:56:41.498Z</time>
      </trkpt>
      <trkpt lat="44.23827" lon="3.239">
        <ele>797.01</ele>
        <time>2026-04-23T11:56:46.803Z</time>
      </trkpt>
      <trkpt lat="44.2382" lon="3.23893">
        <ele>795.62</ele>
        <time>2026-04-23T11:56:51.981Z</time>
      </trkpt>
      <trkpt lat="44.23817" lon="3.23884">
        <ele>794.24</ele>
        <time>2026-04-23T11:56:57.504Z</time>
      </trkpt>
      <trkpt lat="44.23813" lon="3.23882">
        <ele>792.57</ele>
        <time>2026-04-23T11:57:03.480Z</time>
      </trkpt>
      <trkpt lat="44.23815" lon="3.23883">
        <ele>792.05</ele>
        <time>2026-04-23T11:57:09.456Z</time>
      </trkpt>
      <trkpt lat="44.23817" lon="3.23881">
        <ele>791.43</ele>
        <time>2026-04-23T11:57:14.471Z</time>
      </trkpt>
      <trkpt lat="44.23818" lon="3.23878">
        <ele>791.05</ele>
        <time>2026-04-23T11:57:20.237Z</time>
      </trkpt>
      <trkpt lat="44.23819" lon="3.23875">
        <ele>790.87</ele>
        <time>2026-04-23T11:57:25.462Z</time>
      </trkpt>
      <trkpt lat="44.23819" lon="3.23873">
        <ele>790.51</ele>
        <time>2026-04-23T11:57:31.446Z</time>
      </trkpt>
      <trkpt lat="44.2382" lon="3.23872">
        <ele>790.2</ele>
        <time>2026-04-23T11:57:42.386Z</time>
      </trkpt>
      <trkpt lat="44.23819" lon="3.23877">
        <ele>789.97</ele>
        <time>2026-04-23T11:57:47.803Z</time>
      </trkpt>
      <trkpt lat="44.23812" lon="3.23878">
        <ele>788.71</ele>
        <time>2026-04-23T11:57:53.307Z</time>
      </trkpt>
      <trkpt lat="44.23806" lon="3.23872">
        <ele>789.03</ele>
        <time>2026-04-23T11:57:58.471Z</time>
      </trkpt>
      <trkpt lat="44.23803" lon="3.23871">
        <ele>788.03</ele>
        <time>2026-04-23T11:58:04.049Z</time>
      </trkpt>
      <trkpt lat="44.23798" lon="3.23877">
        <ele>786.98</ele>
        <time>2026-04-23T11:58:09.462Z</time>
      </trkpt>
      <trkpt lat="44.23794" lon="3.23885">
        <ele>785.09</ele>
        <time>2026-04-23T11:58:14.477Z</time>
      </trkpt>
      <trkpt lat="44.23796" lon="3.23892">
        <ele>783.22</ele>
        <time>2026-04-23T11:58:20.360Z</time>
      </trkpt>
      <trkpt lat="44.23797" lon="3.23894">
        <ele>780.98</ele>
        <time>2026-04-23T11:58:25.380Z</time>
      </trkpt>
      <trkpt lat="44.23797" lon="3.23896">
        <ele>781.36</ele>
        <time>2026-04-23T11:58:30.395Z</time>
      </trkpt>
      <trkpt lat="44.23796" lon="3.23896">
        <ele>782.51</ele>
        <time>2026-04-23T11:58:37.438Z</time>
      </trkpt>
      <trkpt lat="44.23796" lon="3.23897">
        <ele>782.78</ele>
        <time>2026-04-23T11:58:42.964Z</time>
      </trkpt>
      <trkpt lat="44.23795" lon="3.23895">
        <ele>782.62</ele>
        <time>2026-04-23T11:58:48.266Z</time>
      </trkpt>
      <trkpt lat="44.23794" lon="3.23893">
        <ele>780.66</ele>
        <time>2026-04-23T11:58:53.445Z</time>
      </trkpt>
      <trkpt lat="44.23794" lon="3.23889">
        <ele>779.53</ele>
        <time>2026-04-23T11:58:59.430Z</time>
      </trkpt>
      <trkpt lat="44.23794" lon="3.23888">
        <ele>778.66</ele>
        <time>2026-04-23T11:59:04.446Z</time>
      </trkpt>
      <trkpt lat="44.23794" lon="3.23885">
        <ele>778.72</ele>
        <time>2026-04-23T11:59:10.024Z</time>
      </trkpt>
      <trkpt lat="44.23793" lon="3.23884">
        <ele>777.09</ele>
        <time>2026-04-23T11:59:15.102Z</time>
      </trkpt>
      <trkpt lat="44.2379" lon="3.23885">
        <ele>775.34</ele>
        <time>2026-04-23T11:59:20.165Z</time>
      </trkpt>
      <trkpt lat="44.23791" lon="3.23876">
        <ele>773.73</ele>
        <time>2026-04-23T11:59:25.425Z</time>
      </trkpt>
      <trkpt lat="44.23794" lon="3.23871">
        <ele>773.16</ele>
        <time>2026-04-23T11:59:30.985Z</time>
      </trkpt>
      <trkpt lat="44.23799" lon="3.23869">
        <ele>773.63</ele>
        <time>2026-04-23T11:59:36.467Z</time>
      </trkpt>
      <trkpt lat="44.23802" lon="3.23867">
        <ele>774.22</ele>
        <time>2026-04-23T11:59:41.820Z</time>
      </trkpt>
      <trkpt lat="44.23805" lon="3.23864">
        <ele>773.68</ele>
        <time>2026-04-23T11:59:47.161Z</time>
      </trkpt>
      <trkpt lat="44.23805" lon="3.2386">
        <ele>772.66</ele>
        <time>2026-04-23T11:59:52.392Z</time>
      </trkpt>
      <trkpt lat="44.23801" lon="3.23859">
        <ele>770.99</ele>
        <time>2026-04-23T11:59:57.873Z</time>
      </trkpt>
      <trkpt lat="44.23798" lon="3.23868">
        <ele>770.09</ele>
        <time>2026-04-23T12:00:02.933Z</time>
      </trkpt>
      <trkpt lat="44.23795" lon="3.23873">
        <ele>769.59</ele>
        <time>2026-04-23T12:00:08.472Z</time>
      </trkpt>
      <trkpt lat="44.23796" lon="3.23871">
        <ele>768.47</ele>
        <time>2026-04-23T12:00:14.061Z</time>
      </trkpt>
      <trkpt lat="44.23799" lon="3.23864">
        <ele>766.93</ele>
        <time>2026-04-23T12:00:19.643Z</time>
      </trkpt>
      <trkpt lat="44.23802" lon="3.23856">
        <ele>766.04</ele>
        <time>2026-04-23T12:00:25.121Z</time>
      </trkpt>
      <trkpt lat="44.23805" lon="3.23854">
        <ele>765.08</ele>
        <time>2026-04-23T12:00:30.360Z</time>
      </trkpt>
      <trkpt lat="44.23808" lon="3.23852">
        <ele>763.71</ele>
        <time>2026-04-23T12:00:35.478Z</time>
      </trkpt>
      <trkpt lat="44.23808" lon="3.23848">
        <ele>763.72</ele>
        <time>2026-04-23T12:00:41.181Z</time>
      </trkpt>
      <trkpt lat="44.23809" lon="3.23846">
        <ele>762.83</ele>
        <time>2026-04-23T12:00:46.261Z</time>
      </trkpt>
      <trkpt lat="44.23807" lon="3.23844">
        <ele>761.26</ele>
        <time>2026-04-23T12:00:51.383Z</time>
      </trkpt>
      <trkpt lat="44.23803" lon="3.23846">
        <ele>759.86</ele>
        <time>2026-04-23T12:00:56.501Z</time>
      </trkpt>
      <trkpt lat="44.23804" lon="3.23843">
        <ele>758.44</ele>
        <time>2026-04-23T12:01:01.503Z</time>
      </trkpt>
      <trkpt lat="44.23803" lon="3.23836">
        <ele>759.16</ele>
        <time>2026-04-23T12:01:07.386Z</time>
      </trkpt>
      <trkpt lat="44.23805" lon="3.23834">
        <ele>758.01</ele>
        <time>2026-04-23T12:01:12.809Z</time>
      </trkpt>
      <trkpt lat="44.23805" lon="3.23833">
        <ele>756.84</ele>
        <time>2026-04-23T12:01:19.964Z</time>
      </trkpt>
      <trkpt lat="44.23805" lon="3.2383">
        <ele>755</ele>
        <time>2026-04-23T12:01:25.343Z</time>
      </trkpt>
      <trkpt lat="44.23804" lon="3.23831">
        <ele>754.08</ele>
        <time>2026-04-23T12:01:30.518Z</time>
      </trkpt>
      <trkpt lat="44.23799" lon="3.23832">
        <ele>755.15</ele>
        <time>2026-04-23T12:01:36.299Z</time>
      </trkpt>
      <trkpt lat="44.23794" lon="3.23837">
        <ele>753.4</ele>
        <time>2026-04-23T12:01:41.947Z</time>
      </trkpt>
      <trkpt lat="44.23792" lon="3.23839">
        <ele>752.06</ele>
        <time>2026-04-23T12:01:47.509Z</time>
      </trkpt>
      <trkpt lat="44.23791" lon="3.23836">
        <ele>750.26</ele>
        <time>2026-04-23T12:01:53.125Z</time>
      </trkpt>
      <trkpt lat="44.23791" lon="3.23835">
        <ele>749.55</ele>
        <time>2026-04-23T12:02:00.408Z</time>
      </trkpt>
      <trkpt lat="44.2379" lon="3.2383">
        <ele>749.8</ele>
        <time>2026-04-23T12:02:05.437Z</time>
      </trkpt>
      <trkpt lat="44.23789" lon="3.23823">
        <ele>747.66</ele>
        <time>2026-04-23T12:02:11.281Z</time>
      </trkpt>
      <trkpt lat="44.23795" lon="3.23824">
        <ele>745.97</ele>
        <time>2026-04-23T12:02:16.966Z</time>
      </trkpt>
      <trkpt lat="44.23796" lon="3.2382">
        <ele>743.81</ele>
        <time>2026-04-23T12:02:22.443Z</time>
      </trkpt>
      <trkpt lat="44.23796" lon="3.23814">
        <ele>742.9</ele>
        <time>2026-04-23T12:02:28.462Z</time>
      </trkpt>
      <trkpt lat="44.23795" lon="3.23813">
        <ele>743.12</ele>
        <time>2026-04-23T12:02:33.501Z</time>
      </trkpt>
      <trkpt lat="44.23795" lon="3.23812">
        <ele>741.45</ele>
        <time>2026-04-23T12:02:40.902Z</time>
      </trkpt>
      <trkpt lat="44.23793" lon="3.2381">
        <ele>740.7</ele>
        <time>2026-04-23T12:02:46.520Z</time>
      </trkpt>
      <trkpt lat="44.23791" lon="3.23811">
        <ele>739.32</ele>
        <time>2026-04-23T12:02:52.495Z</time>
      </trkpt>
      <trkpt lat="44.23792" lon="3.2381">
        <ele>739.32</ele>
        <time>2026-04-23T12:02:57.510Z</time>
      </trkpt>
      <trkpt lat="44.23793" lon="3.23809">
        <ele>739.39</ele>
        <time>2026-04-23T12:03:02.526Z</time>
      </trkpt>
      <trkpt lat="44.23794" lon="3.23809">
        <ele>737.76</ele>
        <time>2026-04-23T12:03:08.395Z</time>
      </trkpt>
      <trkpt lat="44.23795" lon="3.23809">
        <ele>737.04</ele>
        <time>2026-04-23T12:03:16.504Z</time>
      </trkpt>
      <trkpt lat="44.23794" lon="3.23808">
        <ele>738.95</ele>
        <time>2026-04-23T12:03:33.260Z</time>
      </trkpt>
      <trkpt lat="44.2379" lon="3.23806">
        <ele>734.9</ele>
        <time>2026-04-23T12:03:38.486Z</time>
      </trkpt>
      <trkpt lat="44.23789" lon="3.23805">
        <ele>733.38</ele>
        <time>2026-04-23T12:03:43.620Z</time>
      </trkpt>
      <trkpt lat="44.23791" lon="3.23801">
        <ele>732.7</ele>
        <time>2026-04-23T12:03:49.381Z</time>
      </trkpt>
      <trkpt lat="44.23795" lon="3.23797">
        <ele>731.85</ele>
        <time>2026-04-23T12:03:54.492Z</time>
      </trkpt>
      <trkpt lat="44.23796" lon="3.23791">
        <ele>732.33</ele>
        <time>2026-04-23T12:03:59.982Z</time>
      </trkpt>
      <trkpt lat="44.23796" lon="3.23784">
        <ele>730.48</ele>
        <time>2026-04-23T12:04:05.483Z</time>
      </trkpt>
      <trkpt lat="44.23798" lon="3.23781">
        <ele>729.31</ele>
        <time>2026-04-23T12:04:10.918Z</time>
      </trkpt>
      <trkpt lat="44.238" lon="3.23779">
        <ele>728.15</ele>
        <time>2026-04-23T12:04:16.176Z</time>
      </trkpt>
      <trkpt lat="44.23799" lon="3.23773">
        <ele>727.26</ele>
        <time>2026-04-23T12:04:21.489Z</time>
      </trkpt>
      <trkpt lat="44.23799" lon="3.2377">
        <ele>726.78</ele>
        <time>2026-04-23T12:04:27.334Z</time>
      </trkpt>
      <trkpt lat="44.23797" lon="3.23769">
        <ele>726.73</ele>
        <time>2026-04-23T12:04:32.492Z</time>
      </trkpt>
      <trkpt lat="44.23793" lon="3.23773">
        <ele>725.49</ele>
        <time>2026-04-23T12:04:37.821Z</time>
      </trkpt>
      <trkpt lat="44.2379" lon="3.23776">
        <ele>723.64</ele>
        <time>2026-04-23T12:04:43.198Z</time>
      </trkpt>
      <trkpt lat="44.23789" lon="3.23783">
        <ele>723.29</ele>
        <time>2026-04-23T12:04:48.214Z</time>
      </trkpt>
      <trkpt lat="44.23786" lon="3.23785">
        <ele>722.22</ele>
        <time>2026-04-23T12:04:53.501Z</time>
      </trkpt>
      <trkpt lat="44.23785" lon="3.23784">
        <ele>722.13</ele>
        <time>2026-04-23T12:05:00.395Z</time>
      </trkpt>
      <trkpt lat="44.23782" lon="3.23785">
        <ele>721.32</ele>
        <time>2026-04-23T12:05:06.175Z</time>
      </trkpt>
      <trkpt lat="44.23778" lon="3.23786">
        <ele>719.45</ele>
        <time>2026-04-23T12:05:11.534Z</time>
      </trkpt>
      <trkpt lat="44.23776" lon="3.23784">
        <ele>718.42</ele>
        <time>2026-04-23T12:05:16.598Z</time>
      </trkpt>
      <trkpt lat="44.23774" lon="3.23779">
        <ele>717.66</ele>
        <time>2026-04-23T12:05:22.084Z</time>
      </trkpt>
      <trkpt lat="44.23775" lon="3.23776">
        <ele>717.86</ele>
        <time>2026-04-23T12:05:27.451Z</time>
      </trkpt>
      <trkpt lat="44.23777" lon="3.23771">
        <ele>715.93</ele>
        <time>2026-04-23T12:05:32.879Z</time>
      </trkpt>
      <trkpt lat="44.23778" lon="3.23766">
        <ele>714.36</ele>
        <time>2026-04-23T12:05:40.117Z</time>
      </trkpt>
      <trkpt lat="44.23778" lon="3.23758">
        <ele>712.58</ele>
        <time>2026-04-23T12:05:45.483Z</time>
      </trkpt>
      <trkpt lat="44.23779" lon="3.23757">
        <ele>711.27</ele>
        <time>2026-04-23T12:05:53.197Z</time>
      </trkpt>
      <trkpt lat="44.2378" lon="3.23751">
        <ele>711.12</ele>
        <time>2026-04-23T12:05:59.488Z</time>
      </trkpt>
      <trkpt lat="44.23778" lon="3.23752">
        <ele>710.01</ele>
        <time>2026-04-23T12:06:04.577Z</time>
      </trkpt>
      <trkpt lat="44.23777" lon="3.23756">
        <ele>709.42</ele>
        <time>2026-04-23T12:06:10.500Z</time>
      </trkpt>
      <trkpt lat="44.23776" lon="3.23758">
        <ele>707.94</ele>
        <time>2026-04-23T12:06:15.835Z</time>
      </trkpt>
      <trkpt lat="44.23778" lon="3.23759">
        <ele>707.18</ele>
        <time>2026-04-23T12:06:21.481Z</time>
      </trkpt>
      <trkpt lat="44.23776" lon="3.23757">
        <ele>706.88</ele>
        <time>2026-04-23T12:06:27.003Z</time>
      </trkpt>
      <trkpt lat="44.23773" lon="3.23755">
        <ele>705.73</ele>
        <time>2026-04-23T12:06:32.161Z</time>
      </trkpt>
      <trkpt lat="44.23772" lon="3.23749">
        <ele>704.93</ele>
        <time>2026-04-23T12:06:37.449Z</time>
      </trkpt>
      <trkpt lat="44.23772" lon="3.23747">
        <ele>704.28</ele>
        <time>2026-04-23T12:06:42.458Z</time>
      </trkpt>
      <trkpt lat="44.23771" lon="3.23744">
        <ele>702.26</ele>
        <time>2026-04-23T12:06:47.479Z</time>
      </trkpt>
      <trkpt lat="44.23768" lon="3.23746">
        <ele>702.09</ele>
        <time>2026-04-23T12:06:52.494Z</time>
      </trkpt>
      <trkpt lat="44.23768" lon="3.23749">
        <ele>701.96</ele>
        <time>2026-04-23T12:06:57.509Z</time>
      </trkpt>
      <trkpt lat="44.23768" lon="3.23752">
        <ele>700.96</ele>
        <time>2026-04-23T12:07:02.524Z</time>
      </trkpt>
      <trkpt lat="44.23767" lon="3.23755">
        <ele>699.2</ele>
        <time>2026-04-23T12:07:07.539Z</time>
      </trkpt>
      <trkpt lat="44.23764" lon="3.23756">
        <ele>698.86</ele>
        <time>2026-04-23T12:07:12.555Z</time>
      </trkpt>
      <trkpt lat="44.23763" lon="3.23756">
        <ele>697.32</ele>
        <time>2026-04-23T12:07:17.570Z</time>
      </trkpt>
      <trkpt lat="44.23762" lon="3.23755">
        <ele>696.85</ele>
        <time>2026-04-23T12:07:26.419Z</time>
      </trkpt>
      <trkpt lat="44.23762" lon="3.23753">
        <ele>696.11</ele>
        <time>2026-04-23T12:07:33.925Z</time>
      </trkpt>
      <trkpt lat="44.23762" lon="3.23751">
        <ele>694.8</ele>
        <time>2026-04-23T12:07:39.485Z</time>
      </trkpt>
      <trkpt lat="44.23762" lon="3.2375">
        <ele>692.88</ele>
        <time>2026-04-23T12:07:44.810Z</time>
      </trkpt>
      <trkpt lat="44.23763" lon="3.23744">
        <ele>693.31</ele>
        <time>2026-04-23T12:07:50.465Z</time>
      </trkpt>
      <trkpt lat="44.23764" lon="3.23745">
        <ele>692.25</ele>
        <time>2026-04-23T12:07:55.588Z</time>
      </trkpt>
      <trkpt lat="44.23763" lon="3.23744">
        <ele>690.94</ele>
        <time>2026-04-23T12:08:06.242Z</time>
      </trkpt>
      <trkpt lat="44.23762" lon="3.2374">
        <ele>690.75</ele>
        <time>2026-04-23T12:08:11.818Z</time>
      </trkpt>
      <trkpt lat="44.2376" lon="3.23738">
        <ele>689.48</ele>
        <time>2026-04-23T12:08:17.360Z</time>
      </trkpt>
      <trkpt lat="44.23761" lon="3.23746">
        <ele>691.26</ele>
        <time>2026-04-23T12:08:22.479Z</time>
      </trkpt>
      <trkpt lat="44.2376" lon="3.23746">
        <ele>689.93</ele>
        <time>2026-04-23T12:08:27.495Z</time>
      </trkpt>
      <trkpt lat="44.2375" lon="3.23743">
        <ele>687.72</ele>
        <time>2026-04-23T12:08:32.779Z</time>
      </trkpt>
      <trkpt lat="44.23748" lon="3.23743">
        <ele>688.41</ele>
        <time>2026-04-23T12:08:38.487Z</time>
      </trkpt>
      <trkpt lat="44.23755" lon="3.23738">
        <ele>687.01</ele>
        <time>2026-04-23T12:08:44.463Z</time>
      </trkpt>
      <trkpt lat="44.23757" lon="3.23734">
        <ele>689.21</ele>
        <time>2026-04-23T12:08:50.440Z</time>
      </trkpt>
      <trkpt lat="44.23758" lon="3.23732">
        <ele>687.77</ele>
        <time>2026-04-23T12:08:56.523Z</time>
      </trkpt>
      <trkpt lat="44.23763" lon="3.2373">
        <ele>687.5</ele>
        <time>2026-04-23T12:09:04.527Z</time>
      </trkpt>
      <trkpt lat="44.23764" lon="3.23721">
        <ele>687.27</ele>
        <time>2026-04-23T12:09:09.543Z</time>
      </trkpt>
      <trkpt lat="44.2377" lon="3.23714">
        <ele>688.03</ele>
        <time>2026-04-23T12:09:16.480Z</time>
      </trkpt>
      <trkpt lat="44.23771" lon="3.23716">
        <ele>688.68</ele>
        <time>2026-04-23T12:09:23.523Z</time>
      </trkpt>
      <trkpt lat="44.23772" lon="3.23716">
        <ele>687.91</ele>
        <time>2026-04-23T12:09:29.499Z</time>
      </trkpt>
      <trkpt lat="44.23774" lon="3.23717">
        <ele>688.09</ele>
        <time>2026-04-23T12:09:34.515Z</time>
      </trkpt>
      <trkpt lat="44.23771" lon="3.23716">
        <ele>687.76</ele>
        <time>2026-04-23T12:09:59.488Z</time>
      </trkpt>
      <trkpt lat="44.23766" lon="3.23716">
        <ele>689.25</ele>
        <time>2026-04-23T12:10:06.531Z</time>
      </trkpt>
      <trkpt lat="44.23764" lon="3.23717">
        <ele>689.05</ele>
        <time>2026-04-23T12:10:11.547Z</time>
      </trkpt>
      <trkpt lat="44.23763" lon="3.23717">
        <ele>689.48</ele>
        <time>2026-04-23T12:10:17.523Z</time>
      </trkpt>
      <trkpt lat="44.23762" lon="3.23717">
        <ele>688.7</ele>
        <time>2026-04-23T12:10:23.500Z</time>
      </trkpt>
      <trkpt lat="44.2378" lon="3.23733">
        <ele>688.19</ele>
        <time>2026-04-23T12:10:52.525Z</time>
      </trkpt>
      <trkpt lat="44.23775" lon="3.23725">
        <ele>687.84</ele>
        <time>2026-04-23T12:11:02.557Z</time>
      </trkpt>
      <trkpt lat="44.2377" lon="3.23717">
        <ele>686.9</ele>
        <time>2026-04-23T12:11:12.481Z</time>
      </trkpt>
      <trkpt lat="44.23764" lon="3.23713">
        <ele>686.72</ele>
        <time>2026-04-23T12:11:19.523Z</time>
      </trkpt>
      <trkpt lat="44.23764" lon="3.2371">
        <ele>687.18</ele>
        <time>2026-04-23T12:11:24.540Z</time>
      </trkpt>
      <trkpt lat="44.2376" lon="3.23737">
        <ele>687.42</ele>
        <time>2026-04-23T12:12:07.069Z</time>
      </trkpt>
      <trkpt lat="44.23763" lon="3.23736">
        <ele>689.07</ele>
        <time>2026-04-23T12:12:12.471Z</time>
      </trkpt>
      <trkpt lat="44.23766" lon="3.23734">
        <ele>688.37</ele>
        <time>2026-04-23T12:12:24.530Z</time>
      </trkpt>
      <trkpt lat="44.23766" lon="3.23734">
        <ele>687.31</ele>
        <time>2026-04-23T12:12:29.545Z</time>
      </trkpt>
      <trkpt lat="44.23768" lon="3.23735">
        <ele>685.98</ele>
        <time>2026-04-23T12:12:34.561Z</time>
      </trkpt>
      <trkpt lat="44.23769" lon="3.23734">
        <ele>689.9</ele>
        <time>2026-04-23T12:12:39.928Z</time>
      </trkpt>
      <trkpt lat="44.23768" lon="3.23736">
        <ele>691.22</ele>
        <time>2026-04-23T12:12:52.344Z</time>
      </trkpt>
      <trkpt lat="44.23769" lon="3.23734">
        <ele>692.4</ele>
        <time>2026-04-23T12:13:09.456Z</time>
      </trkpt>
      <trkpt lat="44.2377" lon="3.23734">
        <ele>691.66</ele>
        <time>2026-04-23T12:13:19.488Z</time>
      </trkpt>
      <trkpt lat="44.2377" lon="3.23735">
        <ele>690.93</ele>
        <time>2026-04-23T12:13:28.453Z</time>
      </trkpt>
      <trkpt lat="44.23771" lon="3.23736">
        <ele>690.68</ele>
        <time>2026-04-23T12:13:34.148Z</time>
      </trkpt>
      <trkpt lat="44.23772" lon="3.23745">
        <ele>693.4</ele>
        <time>2026-04-23T12:13:39.882Z</time>
      </trkpt>
      <trkpt lat="44.23768" lon="3.23752">
        <ele>695.58</ele>
        <time>2026-04-23T12:13:45.528Z</time>
      </trkpt>
      <trkpt lat="44.23766" lon="3.23749">
        <ele>696.13</ele>
        <time>2026-04-23T12:13:50.805Z</time>
      </trkpt>
      <trkpt lat="44.23765" lon="3.2375">
        <ele>696.47</ele>
        <time>2026-04-23T12:13:56.123Z</time>
      </trkpt>
      <trkpt lat="44.23764" lon="3.23752">
        <ele>696.6</ele>
        <time>2026-04-23T12:14:01.538Z</time>
      </trkpt>
      <trkpt lat="44.23763" lon="3.23755">
        <ele>695.59</ele>
        <time>2026-04-23T12:14:07.519Z</time>
      </trkpt>
      <trkpt lat="44.23761" lon="3.2376">
        <ele>694.47</ele>
        <time>2026-04-23T12:14:13.026Z</time>
      </trkpt>
      <trkpt lat="44.23762" lon="3.23766">
        <ele>699.9</ele>
        <time>2026-04-23T12:14:18.521Z</time>
      </trkpt>
      <trkpt lat="44.23765" lon="3.23764">
        <ele>702.72</ele>
        <time>2026-04-23T12:14:24.264Z</time>
      </trkpt>
      <trkpt lat="44.23767" lon="3.23757">
        <ele>701.53</ele>
        <time>2026-04-23T12:14:29.523Z</time>
      </trkpt>
      <trkpt lat="44.23768" lon="3.23752">
        <ele>702.68</ele>
        <time>2026-04-23T12:14:34.544Z</time>
      </trkpt>
      <trkpt lat="44.23772" lon="3.23753">
        <ele>705</ele>
        <time>2026-04-23T12:14:40.336Z</time>
      </trkpt>
      <trkpt lat="44.23773" lon="3.23756">
        <ele>704.85</ele>
        <time>2026-04-23T12:14:45.424Z</time>
      </trkpt>
      <trkpt lat="44.23771" lon="3.23761">
        <ele>705.55</ele>
        <time>2026-04-23T12:14:50.554Z</time>
      </trkpt>
      <trkpt lat="44.23771" lon="3.23766">
        <ele>705.67</ele>
        <time>2026-04-23T12:14:56.048Z</time>
      </trkpt>
      <trkpt lat="44.23772" lon="3.23771">
        <ele>707.14</ele>
        <time>2026-04-23T12:15:01.224Z</time>
      </trkpt>
      <trkpt lat="44.23772" lon="3.2377">
        <ele>710.04</ele>
        <time>2026-04-23T12:15:09.552Z</time>
      </trkpt>
      <trkpt lat="44.23774" lon="3.23767">
        <ele>709.65</ele>
        <time>2026-04-23T12:15:14.904Z</time>
      </trkpt>
      <trkpt lat="44.23775" lon="3.23765">
        <ele>708.19</ele>
        <time>2026-04-23T12:15:20.188Z</time>
      </trkpt>
      <trkpt lat="44.23776" lon="3.23763">
        <ele>712.93</ele>
        <time>2026-04-23T12:15:25.455Z</time>
      </trkpt>
      <trkpt lat="44.23776" lon="3.23762">
        <ele>711.53</ele>
        <time>2026-04-23T12:15:30.472Z</time>
      </trkpt>
      <trkpt lat="44.23778" lon="3.23761">
        <ele>708.89</ele>
        <time>2026-04-23T12:15:36.449Z</time>
      </trkpt>
      <trkpt lat="44.2378" lon="3.23764">
        <ele>713.3</ele>
        <time>2026-04-23T12:15:41.987Z</time>
      </trkpt>
      <trkpt lat="44.2378" lon="3.23766">
        <ele>713.7</ele>
        <time>2026-04-23T12:15:47.365Z</time>
      </trkpt>
      <trkpt lat="44.2378" lon="3.23769">
        <ele>710.33</ele>
        <time>2026-04-23T12:15:52.459Z</time>
      </trkpt>
      <trkpt lat="44.2378" lon="3.23775">
        <ele>711.99</ele>
        <time>2026-04-23T12:15:58.543Z</time>
      </trkpt>
      <trkpt lat="44.23779" lon="3.23775">
        <ele>719.44</ele>
        <time>2026-04-23T12:16:17.142Z</time>
      </trkpt>
      <trkpt lat="44.23778" lon="3.23776">
        <ele>719.94</ele>
        <time>2026-04-23T12:16:22.444Z</time>
      </trkpt>
      <trkpt lat="44.23776" lon="3.23779">
        <ele>718.1</ele>
        <time>2026-04-23T12:16:27.928Z</time>
      </trkpt>
      <trkpt lat="44.23776" lon="3.23783">
        <ele>719.11</ele>
        <time>2026-04-23T12:16:33.145Z</time>
      </trkpt>
      <trkpt lat="44.23776" lon="3.23786">
        <ele>719.92</ele>
        <time>2026-04-23T12:16:38.482Z</time>
      </trkpt>
      <trkpt lat="44.23778" lon="3.23787">
        <ele>719.88</ele>
        <time>2026-04-23T12:16:43.925Z</time>
      </trkpt>
      <trkpt lat="44.23779" lon="3.23787">
        <ele>721.38</ele>
        <time>2026-04-23T12:16:49.228Z</time>
      </trkpt>
      <trkpt lat="44.2378" lon="3.23787">
        <ele>721.33</ele>
        <time>2026-04-23T12:16:55.106Z</time>
      </trkpt>
      <trkpt lat="44.23782" lon="3.23787">
        <ele>724.02</ele>
        <time>2026-04-23T12:17:00.106Z</time>
      </trkpt>
      <trkpt lat="44.23784" lon="3.23784">
        <ele>722.9</ele>
        <time>2026-04-23T12:17:05.224Z</time>
      </trkpt>
      <trkpt lat="44.23785" lon="3.2378">
        <ele>724.01</ele>
        <time>2026-04-23T12:17:10.474Z</time>
      </trkpt>
      <trkpt lat="44.23788" lon="3.23772">
        <ele>725.05</ele>
        <time>2026-04-23T12:17:16.558Z</time>
      </trkpt>
      <trkpt lat="44.23792" lon="3.23771">
        <ele>725.41</ele>
        <time>2026-04-23T12:17:22.536Z</time>
      </trkpt>
      <trkpt lat="44.23792" lon="3.23772">
        <ele>726.28</ele>
        <time>2026-04-23T12:17:28.085Z</time>
      </trkpt>
      <trkpt lat="44.23794" lon="3.23773">
        <ele>726.88</ele>
        <time>2026-04-23T12:17:33.202Z</time>
      </trkpt>
      <trkpt lat="44.23796" lon="3.23774">
        <ele>729.35</ele>
        <time>2026-04-23T12:17:38.247Z</time>
      </trkpt>
      <trkpt lat="44.23797" lon="3.23775">
        <ele>729.97</ele>
        <time>2026-04-23T12:17:43.456Z</time>
      </trkpt>
      <trkpt lat="44.23799" lon="3.23777">
        <ele>730.59</ele>
        <time>2026-04-23T12:17:49.528Z</time>
      </trkpt>
      <trkpt lat="44.23797" lon="3.23782">
        <ele>730.76</ele>
        <time>2026-04-23T12:17:55.147Z</time>
      </trkpt>
      <trkpt lat="44.23797" lon="3.23786">
        <ele>732.19</ele>
        <time>2026-04-23T12:18:00.535Z</time>
      </trkpt>
      <trkpt lat="44.23796" lon="3.23787">
        <ele>731.17</ele>
        <time>2026-04-23T12:18:06.334Z</time>
      </trkpt>
      <trkpt lat="44.23795" lon="3.23794">
        <ele>732.34</ele>
        <time>2026-04-23T12:18:11.528Z</time>
      </trkpt>
      <trkpt lat="44.23793" lon="3.23799">
        <ele>733.88</ele>
        <time>2026-04-23T12:18:17.144Z</time>
      </trkpt>
      <trkpt lat="44.23792" lon="3.23802">
        <ele>734.59</ele>
        <time>2026-04-23T12:18:22.416Z</time>
      </trkpt>
      <trkpt lat="44.23792" lon="3.23802">
        <ele>733.97</ele>
        <time>2026-04-23T12:18:35.545Z</time>
      </trkpt>
      <trkpt lat="44.23791" lon="3.23804">
        <ele>732.82</ele>
        <time>2026-04-23T12:18:42.344Z</time>
      </trkpt>
      <trkpt lat="44.2379" lon="3.23807">
        <ele>731.77</ele>
        <time>2026-04-23T12:18:48.027Z</time>
      </trkpt>
      <trkpt lat="44.23791" lon="3.23809">
        <ele>734.8</ele>
        <time>2026-04-23T12:18:53.427Z</time>
      </trkpt>
      <trkpt lat="44.23793" lon="3.23809">
        <ele>736.87</ele>
        <time>2026-04-23T12:18:58.505Z</time>
      </trkpt>
      <trkpt lat="44.23792" lon="3.23812">
        <ele>738.57</ele>
        <time>2026-04-23T12:19:03.764Z</time>
      </trkpt>
      <trkpt lat="44.23792" lon="3.23811">
        <ele>737.34</ele>
        <time>2026-04-23T12:19:09.269Z</time>
      </trkpt>
      <trkpt lat="44.23793" lon="3.23811">
        <ele>740.59</ele>
        <time>2026-04-23T12:19:14.409Z</time>
      </trkpt>
      <trkpt lat="44.23794" lon="3.23812">
        <ele>740.75</ele>
        <time>2026-04-23T12:19:20.524Z</time>
      </trkpt>
      <trkpt lat="44.23794" lon="3.23813">
        <ele>743.51</ele>
        <time>2026-04-23T12:19:28.584Z</time>
      </trkpt>
      <trkpt lat="44.23793" lon="3.23815">
        <ele>742</ele>
        <time>2026-04-23T12:19:34.469Z</time>
      </trkpt>
      <trkpt lat="44.2379" lon="3.2382">
        <ele>743.35</ele>
        <time>2026-04-23T12:19:40.266Z</time>
      </trkpt>
      <trkpt lat="44.23789" lon="3.23824">
        <ele>742.68</ele>
        <time>2026-04-23T12:19:45.301Z</time>
      </trkpt>
      <trkpt lat="44.23788" lon="3.23821">
        <ele>743.88</ele>
        <time>2026-04-23T12:19:51.564Z</time>
      </trkpt>
      <trkpt lat="44.23788" lon="3.23817">
        <ele>746.67</ele>
        <time>2026-04-23T12:19:57.265Z</time>
      </trkpt>
      <trkpt lat="44.23787" lon="3.23818">
        <ele>746.55</ele>
        <time>2026-04-23T12:20:02.441Z</time>
      </trkpt>
      <trkpt lat="44.23787" lon="3.2382">
        <ele>745.97</ele>
        <time>2026-04-23T12:20:08.086Z</time>
      </trkpt>
      <trkpt lat="44.23788" lon="3.23823">
        <ele>746.64</ele>
        <time>2026-04-23T12:20:13.486Z</time>
      </trkpt>
      <trkpt lat="44.23788" lon="3.23827">
        <ele>748.31</ele>
        <time>2026-04-23T12:20:19.288Z</time>
      </trkpt>
      <trkpt lat="44.23788" lon="3.23829">
        <ele>749.84</ele>
        <time>2026-04-23T12:20:28.504Z</time>
      </trkpt>
      <trkpt lat="44.23788" lon="3.2383">
        <ele>749.88</ele>
        <time>2026-04-23T12:20:33.508Z</time>
      </trkpt>
      <trkpt lat="44.23789" lon="3.23831">
        <ele>750.05</ele>
        <time>2026-04-23T12:20:40.289Z</time>
      </trkpt>
      <trkpt lat="44.23791" lon="3.23833">
        <ele>750.67</ele>
        <time>2026-04-23T12:20:45.389Z</time>
      </trkpt>
      <trkpt lat="44.23789" lon="3.23836">
        <ele>752.45</ele>
        <time>2026-04-23T12:20:50.908Z</time>
      </trkpt>
      <trkpt lat="44.23788" lon="3.23836">
        <ele>754.15</ele>
        <time>2026-04-23T12:20:56.540Z</time>
      </trkpt>
      <trkpt lat="44.23786" lon="3.23835">
        <ele>753.66</ele>
        <time>2026-04-23T12:21:02.434Z</time>
      </trkpt>
      <trkpt lat="44.23786" lon="3.23837">
        <ele>754.84</ele>
        <time>2026-04-23T12:21:07.558Z</time>
      </trkpt>
      <trkpt lat="44.23786" lon="3.23838">
        <ele>754.46</ele>
        <time>2026-04-23T12:21:15.991Z</time>
      </trkpt>
      <trkpt lat="44.23786" lon="3.2384">
        <ele>758.22</ele>
        <time>2026-04-23T12:21:24.529Z</time>
      </trkpt>
      <trkpt lat="44.23786" lon="3.23843">
        <ele>758.63</ele>
        <time>2026-04-23T12:21:29.557Z</time>
      </trkpt>
      <trkpt lat="44.23788" lon="3.23843">
        <ele>759.56</ele>
        <time>2026-04-23T12:21:35.196Z</time>
      </trkpt>
      <trkpt lat="44.23788" lon="3.23845">
        <ele>759.24</ele>
        <time>2026-04-23T12:21:40.481Z</time>
      </trkpt>
      <trkpt lat="44.23788" lon="3.23847">
        <ele>758.42</ele>
        <time>2026-04-23T12:21:45.557Z</time>
      </trkpt>
      <trkpt lat="44.23787" lon="3.2385">
        <ele>759.41</ele>
        <time>2026-04-23T12:21:51.427Z</time>
      </trkpt>
      <trkpt lat="44.23784" lon="3.23854">
        <ele>762.95</ele>
        <time>2026-04-23T12:21:56.978Z</time>
      </trkpt>
      <trkpt lat="44.23783" lon="3.23855">
        <ele>763.39</ele>
        <time>2026-04-23T12:22:02.540Z</time>
      </trkpt>
      <trkpt lat="44.23784" lon="3.23854">
        <ele>763.03</ele>
        <time>2026-04-23T12:22:07.812Z</time>
      </trkpt>
      <trkpt lat="44.23786" lon="3.23854">
        <ele>764.2</ele>
        <time>2026-04-23T12:22:14.491Z</time>
      </trkpt>
      <trkpt lat="44.23785" lon="3.23855">
        <ele>763.47</ele>
        <time>2026-04-23T12:22:22.196Z</time>
      </trkpt>
      <trkpt lat="44.23787" lon="3.23858">
        <ele>765.6</ele>
        <time>2026-04-23T12:22:27.512Z</time>
      </trkpt>
      <trkpt lat="44.23789" lon="3.23855">
        <ele>766.84</ele>
        <time>2026-04-23T12:22:33.298Z</time>
      </trkpt>
      <trkpt lat="44.23791" lon="3.23854">
        <ele>768.89</ele>
        <time>2026-04-23T12:22:38.505Z</time>
      </trkpt>
      <trkpt lat="44.23793" lon="3.23854">
        <ele>768.4</ele>
        <time>2026-04-23T12:22:43.515Z</time>
      </trkpt>
      <trkpt lat="44.23795" lon="3.23855">
        <ele>768.53</ele>
        <time>2026-04-23T12:22:48.883Z</time>
      </trkpt>
      <trkpt lat="44.23795" lon="3.23859">
        <ele>769.05</ele>
        <time>2026-04-23T12:22:54.233Z</time>
      </trkpt>
      <trkpt lat="44.23795" lon="3.2386">
        <ele>770.09</ele>
        <time>2026-04-23T12:22:59.426Z</time>
      </trkpt>
      <trkpt lat="44.23795" lon="3.23865">
        <ele>772.74</ele>
        <time>2026-04-23T12:23:04.577Z</time>
      </trkpt>
      <trkpt lat="44.23795" lon="3.23868">
        <ele>770.87</ele>
        <time>2026-04-23T12:23:10.376Z</time>
      </trkpt>
      <trkpt lat="44.23794" lon="3.23871">
        <ele>771.89</ele>
        <time>2026-04-23T12:23:15.436Z</time>
      </trkpt>
      <trkpt lat="44.23792" lon="3.2387">
        <ele>771.63</ele>
        <time>2026-04-23T12:23:20.559Z</time>
      </trkpt>
      <trkpt lat="44.23792" lon="3.23868">
        <ele>771.52</ele>
        <time>2026-04-23T12:23:25.978Z</time>
      </trkpt>
      <trkpt lat="44.23792" lon="3.23867">
        <ele>774.5</ele>
        <time>2026-04-23T12:23:31.446Z</time>
      </trkpt>
      <trkpt lat="44.23791" lon="3.23869">
        <ele>775.55</ele>
        <time>2026-04-23T12:23:37.159Z</time>
      </trkpt>
      <trkpt lat="44.23791" lon="3.23871">
        <ele>776.35</ele>
        <time>2026-04-23T12:23:44.116Z</time>
      </trkpt>
      <trkpt lat="44.23791" lon="3.23873">
        <ele>777.51</ele>
        <time>2026-04-23T12:23:49.503Z</time>
      </trkpt>
      <trkpt lat="44.23791" lon="3.23875">
        <ele>778.37</ele>
        <time>2026-04-23T12:23:54.519Z</time>
      </trkpt>
      <trkpt lat="44.23792" lon="3.23876">
        <ele>778.93</ele>
        <time>2026-04-23T12:23:59.536Z</time>
      </trkpt>
      <trkpt lat="44.23794" lon="3.23877">
        <ele>780.71</ele>
        <time>2026-04-23T12:24:06.370Z</time>
      </trkpt>
      <trkpt lat="44.23796" lon="3.23876">
        <ele>781.65</ele>
        <time>2026-04-23T12:24:12.468Z</time>
      </trkpt>
      <trkpt lat="44.23797" lon="3.23879">
        <ele>781.7</ele>
        <time>2026-04-23T12:24:18.287Z</time>
      </trkpt>
      <trkpt lat="44.23799" lon="3.2388">
        <ele>781.84</ele>
        <time>2026-04-23T12:24:23.462Z</time>
      </trkpt>
      <trkpt lat="44.23801" lon="3.23881">
        <ele>782.68</ele>
        <time>2026-04-23T12:24:28.478Z</time>
      </trkpt>
      <trkpt lat="44.23804" lon="3.23881">
        <ele>784.35</ele>
        <time>2026-04-23T12:24:33.495Z</time>
      </trkpt>
      <trkpt lat="44.23808" lon="3.23879">
        <ele>784.8</ele>
        <time>2026-04-23T12:24:39.269Z</time>
      </trkpt>
      <trkpt lat="44.23811" lon="3.23876">
        <ele>785.43</ele>
        <time>2026-04-23T12:24:44.391Z</time>
      </trkpt>
      <trkpt lat="44.23815" lon="3.2387">
        <ele>786.59</ele>
        <time>2026-04-23T12:24:49.406Z</time>
      </trkpt>
      <trkpt lat="44.23816" lon="3.23869">
        <ele>786.39</ele>
        <time>2026-04-23T12:24:55.013Z</time>
      </trkpt>
      <trkpt lat="44.23816" lon="3.23871">
        <ele>787.28</ele>
        <time>2026-04-23T12:25:00.153Z</time>
      </trkpt>
      <trkpt lat="44.23817" lon="3.23872">
        <ele>787.44</ele>
        <time>2026-04-23T12:25:05.524Z</time>
      </trkpt>
      <trkpt lat="44.23821" lon="3.23872">
        <ele>791.46</ele>
        <time>2026-04-23T12:25:11.298Z</time>
      </trkpt>
      <trkpt lat="44.23828" lon="3.23871">
        <ele>789.9</ele>
        <time>2026-04-23T12:25:16.526Z</time>
      </trkpt>
      <trkpt lat="44.23832" lon="3.23871">
        <ele>790.47</ele>
        <time>2026-04-23T12:25:21.918Z</time>
      </trkpt>
      <trkpt lat="44.23835" lon="3.23868">
        <ele>791.7</ele>
        <time>2026-04-23T12:25:27.068Z</time>
      </trkpt>
      <trkpt lat="44.23835" lon="3.23867">
        <ele>791.12</ele>
        <time>2026-04-23T12:25:32.545Z</time>
      </trkpt>
      <trkpt lat="44.23834" lon="3.23868">
        <ele>793.43</ele>
        <time>2026-04-23T12:25:38.265Z</time>
      </trkpt>
      <trkpt lat="44.23835" lon="3.23867">
        <ele>792.46</ele>
        <time>2026-04-23T12:25:44.499Z</time>
      </trkpt>
      <trkpt lat="44.23836" lon="3.23866">
        <ele>790.78</ele>
        <time>2026-04-23T12:25:49.516Z</time>
      </trkpt>
      <trkpt lat="44.23837" lon="3.23865">
        <ele>791.5</ele>
        <time>2026-04-23T12:26:02.537Z</time>
      </trkpt>
      <trkpt lat="44.23839" lon="3.23863">
        <ele>791.3</ele>
        <time>2026-04-23T12:26:07.553Z</time>
      </trkpt>
      <trkpt lat="44.23839" lon="3.23867">
        <ele>790.77</ele>
        <time>2026-04-23T12:26:13.423Z</time>
      </trkpt>
      <trkpt lat="44.23839" lon="3.23869">
        <ele>790.22</ele>
        <time>2026-04-23T12:26:18.440Z</time>
      </trkpt>
      <trkpt lat="44.23839" lon="3.23872">
        <ele>792.06</ele>
        <time>2026-04-23T12:26:23.562Z</time>
      </trkpt>
      <trkpt lat="44.23836" lon="3.23875">
        <ele>791.07</ele>
        <time>2026-04-23T12:26:29.539Z</time>
      </trkpt>
      <trkpt lat="44.23835" lon="3.23879">
        <ele>790.68</ele>
        <time>2026-04-23T12:26:35.515Z</time>
      </trkpt>
      <trkpt lat="44.23836" lon="3.23882">
        <ele>790.99</ele>
        <time>2026-04-23T12:26:41.493Z</time>
      </trkpt>
      <trkpt lat="44.23837" lon="3.23886">
        <ele>789.89</ele>
        <time>2026-04-23T12:26:46.509Z</time>
      </trkpt>
      <trkpt lat="44.23838" lon="3.23891">
        <ele>790.64</ele>
        <time>2026-04-23T12:26:52.247Z</time>
      </trkpt>
      <trkpt lat="44.23838" lon="3.23889">
        <ele>788.93</ele>
        <time>2026-04-23T12:26:57.395Z</time>
      </trkpt>
      <trkpt lat="44.2384" lon="3.23889">
        <ele>789.7</ele>
        <time>2026-04-23T12:27:02.412Z</time>
      </trkpt>
      <trkpt lat="44.23842" lon="3.23889">
        <ele>791.99</ele>
        <time>2026-04-23T12:27:07.428Z</time>
      </trkpt>
      <trkpt lat="44.23844" lon="3.23889">
        <ele>789.99</ele>
        <time>2026-04-23T12:27:12.444Z</time>
      </trkpt>
      <trkpt lat="44.23845" lon="3.23887">
        <ele>790.34</ele>
        <time>2026-04-23T12:27:17.461Z</time>
      </trkpt>
      <trkpt lat="44.23846" lon="3.23886">
        <ele>790.19</ele>
        <time>2026-04-23T12:27:25.149Z</time>
      </trkpt>
      <trkpt lat="44.23845" lon="3.23885">
        <ele>790.07</ele>
        <time>2026-04-23T12:27:35.498Z</time>
      </trkpt>
      <trkpt lat="44.23844" lon="3.23884">
        <ele>790.03</ele>
        <time>2026-04-23T12:27:42.434Z</time>
      </trkpt>
      <trkpt lat="44.23845" lon="3.23887">
        <ele>790.33</ele>
        <time>2026-04-23T12:27:48.378Z</time>
      </trkpt>
      <trkpt lat="44.23844" lon="3.23889">
        <ele>789.72</ele>
        <time>2026-04-23T12:27:54.378Z</time>
      </trkpt>
      <trkpt lat="44.23844" lon="3.23887">
        <ele>789.73</ele>
        <time>2026-04-23T12:28:03.379Z</time>
      </trkpt>
      <trkpt lat="44.23844" lon="3.23889">
        <ele>789.6</ele>
        <time>2026-04-23T12:28:10.378Z</time>
      </trkpt>
      <trkpt lat="44.23845" lon="3.23889">
        <ele>788.45</ele>
        <time>2026-04-23T12:28:17.379Z</time>
      </trkpt>
      <trkpt lat="44.23846" lon="3.23889">
        <ele>788.87</ele>
        <time>2026-04-23T12:28:22.379Z</time>
      </trkpt>
      <trkpt lat="44.23848" lon="3.23879">
        <ele>789.16</ele>
        <time>2026-04-23T12:28:27.379Z</time>
      </trkpt>
      <trkpt lat="44.23849" lon="3.23883">
        <ele>789.29</ele>
        <time>2026-04-23T12:28:32.379Z</time>
      </trkpt>
      <trkpt lat="44.2385" lon="3.23884">
        <ele>789.77</ele>
        <time>2026-04-23T12:28:37.379Z</time>
      </trkpt>
      <trkpt lat="44.23852" lon="3.23882">
        <ele>791.43</ele>
        <time>2026-04-23T12:28:42.418Z</time>
      </trkpt>
      <trkpt lat="44.23853" lon="3.23883">
        <ele>790.66</ele>
        <time>2026-04-23T12:28:47.434Z</time>
      </trkpt>
      <trkpt lat="44.23852" lon="3.23882">
        <ele>789.38</ele>
        <time>2026-04-23T12:28:53.411Z</time>
      </trkpt>
      <trkpt lat="44.23851" lon="3.23879">
        <ele>790.27</ele>
        <time>2026-04-23T12:28:58.428Z</time>
      </trkpt>
      <trkpt lat="44.2385" lon="3.23881">
        <ele>789.68</ele>
        <time>2026-04-23T12:29:03.444Z</time>
      </trkpt>
      <trkpt lat="44.23851" lon="3.23883">
        <ele>791.19</ele>
        <time>2026-04-23T12:29:08.460Z</time>
      </trkpt>
      <trkpt lat="44.23851" lon="3.23882">
        <ele>787.51</ele>
        <time>2026-04-23T12:29:27.460Z</time>
      </trkpt>
      <trkpt lat="44.2385" lon="3.23881">
        <ele>791.19</ele>
        <time>2026-04-23T12:29:40.482Z</time>
      </trkpt>
      <trkpt lat="44.23848" lon="3.23879">
        <ele>790.75</ele>
        <time>2026-04-23T12:29:45.498Z</time>
      </trkpt>
      <trkpt lat="44.23847" lon="3.23878">
        <ele>789.46</ele>
        <time>2026-04-23T12:29:50.514Z</time>
      </trkpt>
      <trkpt lat="44.23846" lon="3.23884">
        <ele>790.39</ele>
        <time>2026-04-23T12:29:56.492Z</time>
      </trkpt>
      <trkpt lat="44.23847" lon="3.23889">
        <ele>790.43</ele>
        <time>2026-04-23T12:30:01.508Z</time>
      </trkpt>
      <trkpt lat="44.23847" lon="3.2389">
        <ele>789.39</ele>
        <time>2026-04-23T12:30:16.450Z</time>
      </trkpt>
      <trkpt lat="44.23846" lon="3.23893">
        <ele>789.33</ele>
        <time>2026-04-23T12:30:21.467Z</time>
      </trkpt>
      <trkpt lat="44.23846" lon="3.23891">
        <ele>789.5</ele>
        <time>2026-04-23T12:30:30.071Z</time>
      </trkpt>
      <trkpt lat="44.23848" lon="3.23888">
        <ele>790.04</ele>
        <time>2026-04-23T12:30:35.447Z</time>
      </trkpt>
      <trkpt lat="44.23849" lon="3.23885">
        <ele>790.16</ele>
        <time>2026-04-23T12:30:40.465Z</time>
      </trkpt>
      <trkpt lat="44.23849" lon="3.23883">
        <ele>788.85</ele>
        <time>2026-04-23T12:30:45.481Z</time>
      </trkpt>
      <trkpt lat="44.23848" lon="3.23882">
        <ele>788.41</ele>
        <time>2026-04-23T12:30:50.497Z</time>
      </trkpt>
      <trkpt lat="44.23848" lon="3.2388">
        <ele>787.97</ele>
        <time>2026-04-23T12:30:55.514Z</time>
      </trkpt>
      <trkpt lat="44.23847" lon="3.2388">
        <ele>788.86</ele>
        <time>2026-04-23T12:31:06.507Z</time>
      </trkpt>
      <trkpt lat="44.23846" lon="3.2388">
        <ele>788.92</ele>
        <time>2026-04-23T12:31:11.523Z</time>
      </trkpt>
      <trkpt lat="44.23845" lon="3.2388">
        <ele>788.73</ele>
        <time>2026-04-23T12:31:18.461Z</time>
      </trkpt>
      <trkpt lat="44.23845" lon="3.23882">
        <ele>788.1</ele>
        <time>2026-04-23T12:31:23.477Z</time>
      </trkpt>
      <trkpt lat="44.23845" lon="3.23885">
        <ele>788.39</ele>
        <time>2026-04-23T12:31:28.493Z</time>
      </trkpt>
      <trkpt lat="44.23846" lon="3.23887">
        <ele>789.76</ele>
        <time>2026-04-23T12:31:33.509Z</time>
      </trkpt>
      <trkpt lat="44.23846" lon="3.23887">
        <ele>789.13</ele>
        <time>2026-04-23T12:31:39.485Z</time>
      </trkpt>
      <trkpt lat="44.23848" lon="3.23886">
        <ele>789.57</ele>
        <time>2026-04-23T12:31:44.502Z</time>
      </trkpt>
      <trkpt lat="44.23849" lon="3.23884">
        <ele>791.4</ele>
        <time>2026-04-23T12:31:49.519Z</time>
      </trkpt>
      <trkpt lat="44.23853" lon="3.23874">
        <ele>791.74</ele>
        <time>2026-04-23T12:31:54.535Z</time>
      </trkpt>
      <trkpt lat="44.23855" lon="3.23872">
        <ele>792.02</ele>
        <time>2026-04-23T12:32:00.169Z</time>
      </trkpt>
      <trkpt lat="44.23858" lon="3.23871">
        <ele>793.49</ele>
        <time>2026-04-23T12:32:05.495Z</time>
      </trkpt>
      <trkpt lat="44.23859" lon="3.23868">
        <ele>792.81</ele>
        <time>2026-04-23T12:32:10.575Z</time>
      </trkpt>
      <trkpt lat="44.2386" lon="3.23863">
        <ele>792.53</ele>
        <time>2026-04-23T12:32:16.133Z</time>
      </trkpt>
      <trkpt lat="44.2386" lon="3.23865">
        <ele>791.91</ele>
        <time>2026-04-23T12:32:21.439Z</time>
      </trkpt>
      <trkpt lat="44.2386" lon="3.23864">
        <ele>791.93</ele>
        <time>2026-04-23T12:32:32.539Z</time>
      </trkpt>
      <trkpt lat="44.23859" lon="3.23857">
        <ele>790.8</ele>
        <time>2026-04-23T12:32:38.029Z</time>
      </trkpt>
      <trkpt lat="44.23859" lon="3.23853">
        <ele>791.14</ele>
        <time>2026-04-23T12:32:43.532Z</time>
      </trkpt>
      <trkpt lat="44.23859" lon="3.23852">
        <ele>791.76</ele>
        <time>2026-04-23T12:32:52.497Z</time>
      </trkpt>
      <trkpt lat="44.23859" lon="3.2385">
        <ele>791.43</ele>
        <time>2026-04-23T12:32:58.473Z</time>
      </trkpt>
      <trkpt lat="44.23858" lon="3.23848">
        <ele>792.19</ele>
        <time>2026-04-23T12:33:03.489Z</time>
      </trkpt>
      <trkpt lat="44.23858" lon="3.23847">
        <ele>791.53</ele>
        <time>2026-04-23T12:33:08.506Z</time>
      </trkpt>
      <trkpt lat="44.2386" lon="3.23849">
        <ele>791.38</ele>
        <time>2026-04-23T12:33:13.522Z</time>
      </trkpt>
      <trkpt lat="44.23861" lon="3.2385">
        <ele>791.14</ele>
        <time>2026-04-23T12:33:18.538Z</time>
      </trkpt>
      <trkpt lat="44.23863" lon="3.23853">
        <ele>791.38</ele>
        <time>2026-04-23T12:33:23.554Z</time>
      </trkpt>
      <trkpt lat="44.23863" lon="3.23857">
        <ele>791.71</ele>
        <time>2026-04-23T12:33:29.530Z</time>
      </trkpt>
      <trkpt lat="44.23862" lon="3.23859">
        <ele>791.6</ele>
        <time>2026-04-23T12:33:35.507Z</time>
      </trkpt>
      <trkpt lat="44.2386" lon="3.23861">
        <ele>791.56</ele>
        <time>2026-04-23T12:33:41.484Z</time>
      </trkpt>
      <trkpt lat="44.23861" lon="3.23864">
        <ele>791.32</ele>
        <time>2026-04-23T12:33:46.500Z</time>
      </trkpt>
      <trkpt lat="44.23863" lon="3.23864">
        <ele>791.49</ele>
        <time>2026-04-23T12:33:51.516Z</time>
      </trkpt>
      <trkpt lat="44.23864" lon="3.23863">
        <ele>791.8</ele>
        <time>2026-04-23T12:34:05.497Z</time>
      </trkpt>
      <trkpt lat="44.23865" lon="3.2386">
        <ele>791.56</ele>
        <time>2026-04-23T12:34:10.513Z</time>
      </trkpt>
      <trkpt lat="44.23864" lon="3.23857">
        <ele>791.39</ele>
        <time>2026-04-23T12:34:15.529Z</time>
      </trkpt>
      <trkpt lat="44.23865" lon="3.23856">
        <ele>791.36</ele>
        <time>2026-04-23T12:34:21.455Z</time>
      </trkpt>
      <trkpt lat="44.23864" lon="3.23854">
        <ele>791.93</ele>
        <time>2026-04-23T12:34:26.976Z</time>
      </trkpt>
      <trkpt lat="44.23864" lon="3.23846">
        <ele>792.78</ele>
        <time>2026-04-23T12:34:32.200Z</time>
      </trkpt>
      <trkpt lat="44.23867" lon="3.23844">
        <ele>792.36</ele>
        <time>2026-04-23T12:34:37.401Z</time>
      </trkpt>
      <trkpt lat="44.23867" lon="3.23842">
        <ele>793.5</ele>
        <time>2026-04-23T12:34:42.497Z</time>
      </trkpt>
      <trkpt lat="44.23871" lon="3.23838">
        <ele>793.99</ele>
        <time>2026-04-23T12:34:47.555Z</time>
      </trkpt>
      <trkpt lat="44.23873" lon="3.23829">
        <ele>794.01</ele>
        <time>2026-04-23T12:34:53.162Z</time>
      </trkpt>
      <trkpt lat="44.23874" lon="3.23822">
        <ele>794.69</ele>
        <time>2026-04-23T12:34:58.793Z</time>
      </trkpt>
      <trkpt lat="44.23875" lon="3.23818">
        <ele>794.89</ele>
        <time>2026-04-23T12:35:04.404Z</time>
      </trkpt>
      <trkpt lat="44.23875" lon="3.23809">
        <ele>794.46</ele>
        <time>2026-04-23T12:35:09.540Z</time>
      </trkpt>
      <trkpt lat="44.23872" lon="3.23802">
        <ele>794.1</ele>
        <time>2026-04-23T12:35:15.344Z</time>
      </trkpt>
      <trkpt lat="44.23871" lon="3.23799">
        <ele>793.72</ele>
        <time>2026-04-23T12:35:20.365Z</time>
      </trkpt>
      <trkpt lat="44.23872" lon="3.23799">
        <ele>793.41</ele>
        <time>2026-04-23T12:35:26.509Z</time>
      </trkpt>
      <trkpt lat="44.23873" lon="3.238">
        <ele>792.56</ele>
        <time>2026-04-23T12:35:34.514Z</time>
      </trkpt>
      <trkpt lat="44.23875" lon="3.23799">
        <ele>792.82</ele>
        <time>2026-04-23T12:35:40.103Z</time>
      </trkpt>
      <trkpt lat="44.23872" lon="3.23795">
        <ele>793</ele>
        <time>2026-04-23T12:35:45.622Z</time>
      </trkpt>
      <trkpt lat="44.2387" lon="3.23788">
        <ele>793.56</ele>
        <time>2026-04-23T12:35:50.908Z</time>
      </trkpt>
      <trkpt lat="44.23872" lon="3.2378">
        <ele>793.99</ele>
        <time>2026-04-23T12:35:56.040Z</time>
      </trkpt>
      <trkpt lat="44.23873" lon="3.23776">
        <ele>794.94</ele>
        <time>2026-04-23T12:36:01.384Z</time>
      </trkpt>
      <trkpt lat="44.23867" lon="3.23772">
        <ele>795.49</ele>
        <time>2026-04-23T12:36:06.794Z</time>
      </trkpt>
      <trkpt lat="44.23859" lon="3.23768">
        <ele>796.54</ele>
        <time>2026-04-23T12:36:12.369Z</time>
      </trkpt>
      <trkpt lat="44.23856" lon="3.23765">
        <ele>797.24</ele>
        <time>2026-04-23T12:36:17.446Z</time>
      </trkpt>
      <trkpt lat="44.23854" lon="3.23762">
        <ele>797.74</ele>
        <time>2026-04-23T12:36:22.539Z</time>
      </trkpt>
      <trkpt lat="44.23851" lon="3.23759">
        <ele>798.29</ele>
        <time>2026-04-23T12:36:27.923Z</time>
      </trkpt>
      <trkpt lat="44.23847" lon="3.23754">
        <ele>798.55</ele>
        <time>2026-04-23T12:36:33.045Z</time>
      </trkpt>
      <trkpt lat="44.23848" lon="3.23746">
        <ele>799.03</ele>
        <time>2026-04-23T12:36:38.089Z</time>
      </trkpt>
      <trkpt lat="44.23852" lon="3.23745">
        <ele>799.62</ele>
        <time>2026-04-23T12:36:43.269Z</time>
      </trkpt>
      <trkpt lat="44.23857" lon="3.23744">
        <ele>799.74</ele>
        <time>2026-04-23T12:36:48.472Z</time>
      </trkpt>
      <trkpt lat="44.23861" lon="3.23743">
        <ele>800.59</ele>
        <time>2026-04-23T12:36:53.990Z</time>
      </trkpt>
      <trkpt lat="44.23864" lon="3.23744">
        <ele>801.73</ele>
        <time>2026-04-23T12:36:59.102Z</time>
      </trkpt>
      <trkpt lat="44.23866" lon="3.23744">
        <ele>802.36</ele>
        <time>2026-04-23T12:37:04.498Z</time>
      </trkpt>
      <trkpt lat="44.23869" lon="3.23742">
        <ele>802.63</ele>
        <time>2026-04-23T12:37:09.514Z</time>
      </trkpt>
      <trkpt lat="44.23876" lon="3.2374">
        <ele>803.46</ele>
        <time>2026-04-23T12:37:14.960Z</time>
      </trkpt>
      <trkpt lat="44.23881" lon="3.23739">
        <ele>802.99</ele>
        <time>2026-04-23T12:37:20.505Z</time>
      </trkpt>
      <trkpt lat="44.23885" lon="3.23742">
        <ele>803.4</ele>
        <time>2026-04-23T12:37:25.561Z</time>
      </trkpt>
      <trkpt lat="44.23891" lon="3.23741">
        <ele>804.07</ele>
        <time>2026-04-23T12:37:31.243Z</time>
      </trkpt>
      <trkpt lat="44.23896" lon="3.23746">
        <ele>803.9</ele>
        <time>2026-04-23T12:37:36.514Z</time>
      </trkpt>
      <trkpt lat="44.23902" lon="3.2375">
        <ele>804.09</ele>
        <time>2026-04-23T12:37:42.342Z</time>
      </trkpt>
      <trkpt lat="44.23905" lon="3.23756">
        <ele>804.4</ele>
        <time>2026-04-23T12:37:47.403Z</time>
      </trkpt>
      <trkpt lat="44.23909" lon="3.23758">
        <ele>804.85</ele>
        <time>2026-04-23T12:37:52.480Z</time>
      </trkpt>
      <trkpt lat="44.23911" lon="3.23758">
        <ele>805.05</ele>
        <time>2026-04-23T12:37:57.862Z</time>
      </trkpt>
      <trkpt lat="44.23912" lon="3.23755">
        <ele>807.06</ele>
        <time>2026-04-23T12:38:03.560Z</time>
      </trkpt>
      <trkpt lat="44.23914" lon="3.23753">
        <ele>807.28</ele>
        <time>2026-04-23T12:38:08.585Z</time>
      </trkpt>
      <trkpt lat="44.23916" lon="3.23751">
        <ele>807.56</ele>
        <time>2026-04-23T12:38:13.966Z</time>
      </trkpt>
      <trkpt lat="44.23917" lon="3.23749">
        <ele>807.16</ele>
        <time>2026-04-23T12:38:19.161Z</time>
      </trkpt>
      <trkpt lat="44.23917" lon="3.23745">
        <ele>807.59</ele>
        <time>2026-04-23T12:38:24.299Z</time>
      </trkpt>
      <trkpt lat="44.23917" lon="3.23734">
        <ele>806.96</ele>
        <time>2026-04-23T12:38:30.513Z</time>
      </trkpt>
      <trkpt lat="44.23918" lon="3.23737">
        <ele>806.43</ele>
        <time>2026-04-23T12:38:35.702Z</time>
      </trkpt>
      <trkpt lat="44.2392" lon="3.23743">
        <ele>807.4</ele>
        <time>2026-04-23T12:38:41.402Z</time>
      </trkpt>
      <trkpt lat="44.23925" lon="3.23743">
        <ele>808.54</ele>
        <time>2026-04-23T12:38:46.521Z</time>
      </trkpt>
      <trkpt lat="44.23926" lon="3.23751">
        <ele>810.42</ele>
        <time>2026-04-23T12:38:52.146Z</time>
      </trkpt>
      <trkpt lat="44.23927" lon="3.23758">
        <ele>810.62</ele>
        <time>2026-04-23T12:38:57.531Z</time>
      </trkpt>
      <trkpt lat="44.23928" lon="3.23766">
        <ele>810.52</ele>
        <time>2026-04-23T12:39:02.879Z</time>
      </trkpt>
      <trkpt lat="44.23929" lon="3.23772">
        <ele>810.66</ele>
        <time>2026-04-23T12:39:08.385Z</time>
      </trkpt>
      <trkpt lat="44.23933" lon="3.23774">
        <ele>810.29</ele>
        <time>2026-04-23T12:39:13.523Z</time>
      </trkpt>
      <trkpt lat="44.23935" lon="3.2378">
        <ele>810.53</ele>
        <time>2026-04-23T12:39:19.021Z</time>
      </trkpt>
      <trkpt lat="44.23938" lon="3.23784">
        <ele>810.93</ele>
        <time>2026-04-23T12:39:24.258Z</time>
      </trkpt>
      <trkpt lat="44.23941" lon="3.2379">
        <ele>811.37</ele>
        <time>2026-04-23T12:39:29.555Z</time>
      </trkpt>
      <trkpt lat="44.23942" lon="3.23796">
        <ele>811.83</ele>
        <time>2026-04-23T12:39:35.081Z</time>
      </trkpt>
      <trkpt lat="44.23945" lon="3.23804">
        <ele>811.67</ele>
        <time>2026-04-23T12:39:40.382Z</time>
      </trkpt>
      <trkpt lat="44.23951" lon="3.23808">
        <ele>811.78</ele>
        <time>2026-04-23T12:39:45.984Z</time>
      </trkpt>
      <trkpt lat="44.23955" lon="3.23812">
        <ele>812.65</ele>
        <time>2026-04-23T12:39:51.001Z</time>
      </trkpt>
      <trkpt lat="44.2396" lon="3.23816">
        <ele>813.24</ele>
        <time>2026-04-23T12:39:56.460Z</time>
      </trkpt>
      <trkpt lat="44.23963" lon="3.23816">
        <ele>813.68</ele>
        <time>2026-04-23T12:40:01.780Z</time>
      </trkpt>
      <trkpt lat="44.23966" lon="3.23819">
        <ele>813.68</ele>
        <time>2026-04-23T12:40:07.345Z</time>
      </trkpt>
      <trkpt lat="44.23971" lon="3.23822">
        <ele>813.86</ele>
        <time>2026-04-23T12:40:12.522Z</time>
      </trkpt>
      <trkpt lat="44.23975" lon="3.23827">
        <ele>814.22</ele>
        <time>2026-04-23T12:40:18.238Z</time>
      </trkpt>
      <trkpt lat="44.23976" lon="3.23832">
        <ele>814.63</ele>
        <time>2026-04-23T12:40:23.458Z</time>
      </trkpt>
      <trkpt lat="44.23977" lon="3.23831">
        <ele>814.62</ele>
        <time>2026-04-23T12:40:35.863Z</time>
      </trkpt>
      <trkpt lat="44.23977" lon="3.23835">
        <ele>815.53</ele>
        <time>2026-04-23T12:40:40.982Z</time>
      </trkpt>
      <trkpt lat="44.23975" lon="3.23839">
        <ele>816.73</ele>
        <time>2026-04-23T12:40:46.196Z</time>
      </trkpt>
      <trkpt lat="44.23974" lon="3.23845">
        <ele>816.44</ele>
        <time>2026-04-23T12:40:51.521Z</time>
      </trkpt>
      <trkpt lat="44.23972" lon="3.23852">
        <ele>817.16</ele>
        <time>2026-04-23T12:40:57.181Z</time>
      </trkpt>
      <trkpt lat="44.23971" lon="3.23857">
        <ele>817.77</ele>
        <time>2026-04-23T12:41:02.512Z</time>
      </trkpt>
      <trkpt lat="44.23969" lon="3.23863">
        <ele>817.1</ele>
        <time>2026-04-23T12:41:08.002Z</time>
      </trkpt>
      <trkpt lat="44.23969" lon="3.23872">
        <ele>817.94</ele>
        <time>2026-04-23T12:41:13.160Z</time>
      </trkpt>
      <trkpt lat="44.23967" lon="3.2388">
        <ele>817.74</ele>
        <time>2026-04-23T12:41:18.458Z</time>
      </trkpt>
      <trkpt lat="44.23967" lon="3.23886">
        <ele>817.44</ele>
        <time>2026-04-23T12:41:23.534Z</time>
      </trkpt>
      <trkpt lat="44.23968" lon="3.23894">
        <ele>817.58</ele>
        <time>2026-04-23T12:41:28.550Z</time>
      </trkpt>
      <trkpt lat="44.23971" lon="3.23899">
        <ele>818.1</ele>
        <time>2026-04-23T12:41:34.126Z</time>
      </trkpt>
      <trkpt lat="44.23974" lon="3.23901">
        <ele>818.16</ele>
        <time>2026-04-23T12:41:39.901Z</time>
      </trkpt>
      <trkpt lat="44.23977" lon="3.23908">
        <ele>818.54</ele>
        <time>2026-04-23T12:41:45.380Z</time>
      </trkpt>
      <trkpt lat="44.23978" lon="3.23914">
        <ele>818.79</ele>
        <time>2026-04-23T12:41:50.882Z</time>
      </trkpt>
      <trkpt lat="44.23978" lon="3.23921">
        <ele>819.21</ele>
        <time>2026-04-23T12:41:56.140Z</time>
      </trkpt>
      <trkpt lat="44.23978" lon="3.23929">
        <ele>820</ele>
        <time>2026-04-23T12:42:01.520Z</time>
      </trkpt>
      <trkpt lat="44.23978" lon="3.23937">
        <ele>820.85</ele>
        <time>2026-04-23T12:42:06.817Z</time>
      </trkpt>
      <trkpt lat="44.23976" lon="3.23945">
        <ele>821.59</ele>
        <time>2026-04-23T12:42:12.146Z</time>
      </trkpt>
      <trkpt lat="44.23976" lon="3.23953">
        <ele>822.32</ele>
        <time>2026-04-23T12:42:17.530Z</time>
      </trkpt>
      <trkpt lat="44.23977" lon="3.23961">
        <ele>822.51</ele>
        <time>2026-04-23T12:42:23.506Z</time>
      </trkpt>
      <trkpt lat="44.23977" lon="3.23966">
        <ele>823.53</ele>
        <time>2026-04-23T12:42:28.890Z</time>
      </trkpt>
      <trkpt lat="44.23979" lon="3.2397">
        <ele>824.49</ele>
        <time>2026-04-23T12:42:34.604Z</time>
      </trkpt>
      <trkpt lat="44.23982" lon="3.23975">
        <ele>824.88</ele>
        <time>2026-04-23T12:42:40.547Z</time>
      </trkpt>
      <trkpt lat="44.23984" lon="3.2398">
        <ele>825.41</ele>
        <time>2026-04-23T12:42:46.134Z</time>
      </trkpt>
      <trkpt lat="44.23986" lon="3.23985">
        <ele>825.74</ele>
        <time>2026-04-23T12:42:51.325Z</time>
      </trkpt>
      <trkpt lat="44.23987" lon="3.23988">
        <ele>825.71</ele>
        <time>2026-04-23T12:42:56.479Z</time>
      </trkpt>
      <trkpt lat="44.23986" lon="3.23992">
        <ele>826.56</ele>
        <time>2026-04-23T12:43:01.569Z</time>
      </trkpt>
      <trkpt lat="44.23985" lon="3.2399">
        <ele>826.68</ele>
        <time>2026-04-23T12:43:07.496Z</time>
      </trkpt>
      <trkpt lat="44.23987" lon="3.23989">
        <ele>827.7</ele>
        <time>2026-04-23T12:43:13.577Z</time>
      </trkpt>
      <trkpt lat="44.23991" lon="3.23988">
        <ele>828.91</ele>
        <time>2026-04-23T12:43:18.954Z</time>
      </trkpt>
      <trkpt lat="44.23994" lon="3.23987">
        <ele>829.44</ele>
        <time>2026-04-23T12:43:24.544Z</time>
      </trkpt>
      <trkpt lat="44.23998" lon="3.23987">
        <ele>830.68</ele>
        <time>2026-04-23T12:43:30.213Z</time>
      </trkpt>
      <trkpt lat="44.24" lon="3.23987">
        <ele>831.1</ele>
        <time>2026-04-23T12:43:35.454Z</time>
      </trkpt>
      <trkpt lat="44.24001" lon="3.23987">
        <ele>832.26</ele>
        <time>2026-04-23T12:43:40.526Z</time>
      </trkpt>
      <trkpt lat="44.24006" lon="3.2399">
        <ele>833.69</ele>
        <time>2026-04-23T12:43:46.363Z</time>
      </trkpt>
      <trkpt lat="44.24007" lon="3.23993">
        <ele>833.83</ele>
        <time>2026-04-23T12:43:51.428Z</time>
      </trkpt>
      <trkpt lat="44.24007" lon="3.23994">
        <ele>834.66</ele>
        <time>2026-04-23T12:43:57.335Z</time>
      </trkpt>
      <trkpt lat="44.24006" lon="3.23997">
        <ele>835.87</ele>
        <time>2026-04-23T12:44:02.443Z</time>
      </trkpt>
      <trkpt lat="44.24006" lon="3.24">
        <ele>835.57</ele>
        <time>2026-04-23T12:44:08.067Z</time>
      </trkpt>
      <trkpt lat="44.24007" lon="3.24003">
        <ele>836.28</ele>
        <time>2026-04-23T12:44:13.172Z</time>
      </trkpt>
      <trkpt lat="44.24007" lon="3.24006">
        <ele>837.06</ele>
        <time>2026-04-23T12:44:18.437Z</time>
      </trkpt>
      <trkpt lat="44.24008" lon="3.24008">
        <ele>838.49</ele>
        <time>2026-04-23T12:44:23.464Z</time>
      </trkpt>
      <trkpt lat="44.24011" lon="3.24007">
        <ele>839.53</ele>
        <time>2026-04-23T12:44:29.547Z</time>
      </trkpt>
      <trkpt lat="44.24014" lon="3.24005">
        <ele>840</ele>
        <time>2026-04-23T12:44:35.016Z</time>
      </trkpt>
      <trkpt lat="44.24017" lon="3.24006">
        <ele>842.05</ele>
        <time>2026-04-23T12:44:40.546Z</time>
      </trkpt>
      <trkpt lat="44.24019" lon="3.24007">
        <ele>842.02</ele>
        <time>2026-04-23T12:44:45.832Z</time>
      </trkpt>
      <trkpt lat="44.2402" lon="3.2401">
        <ele>842.7</ele>
        <time>2026-04-23T12:44:51.478Z</time>
      </trkpt>
      <trkpt lat="44.24018" lon="3.24017">
        <ele>843.24</ele>
        <time>2026-04-23T12:44:56.858Z</time>
      </trkpt>
      <trkpt lat="44.24019" lon="3.24022">
        <ele>844.24</ele>
        <time>2026-04-23T12:45:02.131Z</time>
      </trkpt>
      <trkpt lat="44.24019" lon="3.24023">
        <ele>846.49</ele>
        <time>2026-04-23T12:45:07.461Z</time>
      </trkpt>
      <trkpt lat="44.24021" lon="3.24027">
        <ele>845.94</ele>
        <time>2026-04-23T12:45:12.491Z</time>
      </trkpt>
      <trkpt lat="44.24022" lon="3.24036">
        <ele>845.06</ele>
        <time>2026-04-23T12:45:17.834Z</time>
      </trkpt>
      <trkpt lat="44.24022" lon="3.24044">
        <ele>845.69</ele>
        <time>2026-04-23T12:45:23.443Z</time>
      </trkpt>
      <trkpt lat="44.24024" lon="3.24051">
        <ele>845.97</ele>
        <time>2026-04-23T12:45:28.565Z</time>
      </trkpt>
      <trkpt lat="44.24024" lon="3.24053">
        <ele>845.67</ele>
        <time>2026-04-23T12:45:34.541Z</time>
      </trkpt>
      <trkpt lat="44.24025" lon="3.24054">
        <ele>846.88</ele>
        <time>2026-04-23T12:45:42.962Z</time>
      </trkpt>
      <trkpt lat="44.24028" lon="3.24057">
        <ele>848.6</ele>
        <time>2026-04-23T12:45:48.176Z</time>
      </trkpt>
      <trkpt lat="44.24032" lon="3.24063">
        <ele>848.38</ele>
        <time>2026-04-23T12:45:53.939Z</time>
      </trkpt>
      <trkpt lat="44.24034" lon="3.24071">
        <ele>848.45</ele>
        <time>2026-04-23T12:45:59.274Z</time>
      </trkpt>
      <trkpt lat="44.24035" lon="3.24074">
        <ele>847.52</ele>
        <time>2026-04-23T12:46:04.428Z</time>
      </trkpt>
      <trkpt lat="44.24035" lon="3.24072">
        <ele>847.04</ele>
        <time>2026-04-23T12:46:19.487Z</time>
      </trkpt>
      <trkpt lat="44.2404" lon="3.24068">
        <ele>847.1</ele>
        <time>2026-04-23T12:46:24.502Z</time>
      </trkpt>
      <trkpt lat="44.2404" lon="3.24069">
        <ele>847.48</ele>
        <time>2026-04-23T12:46:29.518Z</time>
      </trkpt>
      <trkpt lat="44.24043" lon="3.2407">
        <ele>848.78</ele>
        <time>2026-04-23T12:46:35.495Z</time>
      </trkpt>
      <trkpt lat="44.24043" lon="3.24079">
        <ele>848.38</ele>
        <time>2026-04-23T12:46:40.906Z</time>
      </trkpt>
      <trkpt lat="44.24041" lon="3.24087">
        <ele>848.02</ele>
        <time>2026-04-23T12:46:45.906Z</time>
      </trkpt>
      <trkpt lat="44.24037" lon="3.24095">
        <ele>848.26</ele>
        <time>2026-04-23T12:46:51.188Z</time>
      </trkpt>
      <trkpt lat="44.24038" lon="3.241">
        <ele>850.43</ele>
        <time>2026-04-23T12:46:56.382Z</time>
      </trkpt>
      <trkpt lat="44.24041" lon="3.24107">
        <ele>851.47</ele>
        <time>2026-04-23T12:47:01.664Z</time>
      </trkpt>
      <trkpt lat="44.24047" lon="3.24111">
        <ele>851.1</ele>
        <time>2026-04-23T12:47:07.304Z</time>
      </trkpt>
      <trkpt lat="44.24051" lon="3.24107">
        <ele>851.85</ele>
        <time>2026-04-23T12:47:12.420Z</time>
      </trkpt>
      <trkpt lat="44.24052" lon="3.24109">
        <ele>851.66</ele>
        <time>2026-04-23T12:47:18.465Z</time>
      </trkpt>
      <trkpt lat="44.24057" lon="3.24115">
        <ele>852.36</ele>
        <time>2026-04-23T12:47:23.520Z</time>
      </trkpt>
      <trkpt lat="44.24061" lon="3.24119">
        <ele>853.66</ele>
        <time>2026-04-23T12:47:29.049Z</time>
      </trkpt>
      <trkpt lat="44.24063" lon="3.24119">
        <ele>855.15</ele>
        <time>2026-04-23T12:47:34.512Z</time>
      </trkpt>
      <trkpt lat="44.24064" lon="3.2412">
        <ele>854.25</ele>
        <time>2026-04-23T12:47:40.488Z</time>
      </trkpt>
      <trkpt lat="44.24065" lon="3.24119">
        <ele>852.67</ele>
        <time>2026-04-23T12:47:47.426Z</time>
      </trkpt>
      <trkpt lat="44.24066" lon="3.24119">
        <ele>856.15</ele>
        <time>2026-04-23T12:47:54.182Z</time>
      </trkpt>
      <trkpt lat="44.24076" lon="3.24115">
        <ele>856.63</ele>
        <time>2026-04-23T12:47:59.623Z</time>
      </trkpt>
      <trkpt lat="44.24084" lon="3.24118">
        <ele>856.36</ele>
        <time>2026-04-23T12:48:05.080Z</time>
      </trkpt>
      <trkpt lat="44.24088" lon="3.2412">
        <ele>855.51</ele>
        <time>2026-04-23T12:48:10.584Z</time>
      </trkpt>
      <trkpt lat="44.24093" lon="3.24119">
        <ele>856.25</ele>
        <time>2026-04-23T12:48:16.260Z</time>
      </trkpt>
      <trkpt lat="44.24099" lon="3.2412">
        <ele>856.52</ele>
        <time>2026-04-23T12:48:21.541Z</time>
      </trkpt>
      <trkpt lat="44.24105" lon="3.24115">
        <ele>856.68</ele>
        <time>2026-04-23T12:48:27.487Z</time>
      </trkpt>
      <trkpt lat="44.24106" lon="3.24115">
        <ele>857.05</ele>
        <time>2026-04-23T12:48:32.503Z</time>
      </trkpt>
      <trkpt lat="44.24106" lon="3.24117">
        <ele>855.76</ele>
        <time>2026-04-23T12:48:38.480Z</time>
      </trkpt>
      <trkpt lat="44.24107" lon="3.24117">
        <ele>857.07</ele>
        <time>2026-04-23T12:48:52.427Z</time>
      </trkpt>
      <trkpt lat="44.24108" lon="3.24119">
        <ele>857.6</ele>
        <time>2026-04-23T12:49:02.487Z</time>
      </trkpt>
      <trkpt lat="44.24109" lon="3.2412">
        <ele>856.97</ele>
        <time>2026-04-23T12:49:10.382Z</time>
      </trkpt>
      <trkpt lat="44.24117" lon="3.24119">
        <ele>857.86</ele>
        <time>2026-04-23T12:49:15.407Z</time>
      </trkpt>
      <trkpt lat="44.24121" lon="3.24118">
        <ele>858.68</ele>
        <time>2026-04-23T12:49:20.524Z</time>
      </trkpt>
      <trkpt lat="44.24122" lon="3.24118">
        <ele>858.45</ele>
        <time>2026-04-23T12:49:26.751Z</time>
      </trkpt>
      <trkpt lat="44.24129" lon="3.24116">
        <ele>858.08</ele>
        <time>2026-04-23T12:49:31.758Z</time>
      </trkpt>
      <trkpt lat="44.24136" lon="3.24117">
        <ele>861.28</ele>
        <time>2026-04-23T12:49:37.270Z</time>
      </trkpt>
      <trkpt lat="44.24137" lon="3.24116">
        <ele>860.77</ele>
        <time>2026-04-23T12:49:42.552Z</time>
      </trkpt>
      <trkpt lat="44.24136" lon="3.2412">
        <ele>860.34</ele>
        <time>2026-04-23T12:49:48.049Z</time>
      </trkpt>
      <trkpt lat="44.24136" lon="3.24123">
        <ele>859.75</ele>
        <time>2026-04-23T12:49:53.498Z</time>
      </trkpt>
      <trkpt lat="44.24136" lon="3.24125">
        <ele>859.08</ele>
        <time>2026-04-23T12:49:59.473Z</time>
      </trkpt>
      <trkpt lat="44.24137" lon="3.24125">
        <ele>858.37</ele>
        <time>2026-04-23T12:50:04.490Z</time>
      </trkpt>
      <trkpt lat="44.24139" lon="3.24127">
        <ele>858.96</ele>
        <time>2026-04-23T12:50:09.505Z</time>
      </trkpt>
      <trkpt lat="44.24139" lon="3.24129">
        <ele>858.97</ele>
        <time>2026-04-23T12:50:14.521Z</time>
      </trkpt>
      <trkpt lat="44.2414" lon="3.2413">
        <ele>858.87</ele>
        <time>2026-04-23T12:50:19.537Z</time>
      </trkpt>
      <trkpt lat="44.24141" lon="3.24129">
        <ele>858.1</ele>
        <time>2026-04-23T12:50:25.513Z</time>
      </trkpt>
      <trkpt lat="44.2414" lon="3.24128">
        <ele>858.38</ele>
        <time>2026-04-23T12:50:31.489Z</time>
      </trkpt>
      <trkpt lat="44.24139" lon="3.24126">
        <ele>858.3</ele>
        <time>2026-04-23T12:50:36.505Z</time>
      </trkpt>
      <trkpt lat="44.24138" lon="3.24126">
        <ele>858.45</ele>
        <time>2026-04-23T12:50:43.548Z</time>
      </trkpt>
      <trkpt lat="44.24137" lon="3.24125">
        <ele>858.65</ele>
        <time>2026-04-23T12:50:56.460Z</time>
      </trkpt>
      <trkpt lat="44.24136" lon="3.24124">
        <ele>859.31</ele>
        <time>2026-04-23T12:51:01.476Z</time>
      </trkpt>
      <trkpt lat="44.24136" lon="3.24122">
        <ele>858.6</ele>
        <time>2026-04-23T12:51:07.490Z</time>
      </trkpt>
      <trkpt lat="44.24136" lon="3.2412">
        <ele>859.39</ele>
        <time>2026-04-23T12:51:42.405Z</time>
      </trkpt>
      <trkpt lat="44.24136" lon="3.2412">
        <ele>858.87</ele>
        <time>2026-04-23T12:51:47.405Z</time>
      </trkpt>
      <trkpt lat="44.24136" lon="3.24121">
        <ele>860.61</ele>
        <time>2026-04-23T12:52:09.406Z</time>
      </trkpt>
      <trkpt lat="44.24137" lon="3.24122">
        <ele>861.19</ele>
        <time>2026-04-23T12:52:24.499Z</time>
      </trkpt>
      <trkpt lat="44.24137" lon="3.24123">
        <ele>859.77</ele>
        <time>2026-04-23T12:52:52.458Z</time>
      </trkpt>
      <trkpt lat="44.24138" lon="3.24124">
        <ele>861.26</ele>
        <time>2026-04-23T12:53:07.504Z</time>
      </trkpt>
      <trkpt lat="44.24139" lon="3.24125">
        <ele>861.19</ele>
        <time>2026-04-23T12:53:23.511Z</time>
      </trkpt>
      <trkpt lat="44.24139" lon="3.24126">
        <ele>859.97</ele>
        <time>2026-04-23T12:53:36.530Z</time>
      </trkpt>
      <trkpt lat="44.24137" lon="3.24124">
        <ele>860.38</ele>
        <time>2026-04-23T12:53:50.510Z</time>
      </trkpt>
      <trkpt lat="44.24131" lon="3.24119">
        <ele>860.34</ele>
        <time>2026-04-23T12:53:55.525Z</time>
      </trkpt>
      <trkpt lat="44.24126" lon="3.2412">
        <ele>860.21</ele>
        <time>2026-04-23T12:54:00.541Z</time>
      </trkpt>
      <trkpt lat="44.24119" lon="3.24119">
        <ele>860.29</ele>
        <time>2026-04-23T12:54:06.468Z</time>
      </trkpt>
      <trkpt lat="44.24113" lon="3.24117">
        <ele>860.82</ele>
        <time>2026-04-23T12:54:11.541Z</time>
      </trkpt>
      <trkpt lat="44.24106" lon="3.24117">
        <ele>859.76</ele>
        <time>2026-04-23T12:54:17.395Z</time>
      </trkpt>
      <trkpt lat="44.24101" lon="3.24119">
        <ele>859.81</ele>
        <time>2026-04-23T12:54:22.542Z</time>
      </trkpt>
      <trkpt lat="44.24095" lon="3.2412">
        <ele>859.44</ele>
        <time>2026-04-23T12:54:27.566Z</time>
      </trkpt>
      <trkpt lat="44.24087" lon="3.24122">
        <ele>859.36</ele>
        <time>2026-04-23T12:54:33.542Z</time>
      </trkpt>
      <trkpt lat="44.24081" lon="3.24124">
        <ele>859.34</ele>
        <time>2026-04-23T12:54:39.381Z</time>
      </trkpt>
      <trkpt lat="44.24075" lon="3.24126">
        <ele>858.83</ele>
        <time>2026-04-23T12:54:45.462Z</time>
      </trkpt>
      <trkpt lat="44.24069" lon="3.24126">
        <ele>859.18</ele>
        <time>2026-04-23T12:54:50.804Z</time>
      </trkpt>
      <trkpt lat="44.24066" lon="3.24126">
        <ele>860.29</ele>
        <time>2026-04-23T12:54:56.143Z</time>
      </trkpt>
      <trkpt lat="44.24062" lon="3.24128">
        <ele>859.42</ele>
        <time>2026-04-23T12:55:01.501Z</time>
      </trkpt>
      <trkpt lat="44.24058" lon="3.2413">
        <ele>859.03</ele>
        <time>2026-04-23T12:55:06.517Z</time>
      </trkpt>
      <trkpt lat="44.24054" lon="3.24133">
        <ele>860.37</ele>
        <time>2026-04-23T12:55:11.532Z</time>
      </trkpt>
      <trkpt lat="44.24049" lon="3.24137">
        <ele>861.84</ele>
        <time>2026-04-23T12:55:16.620Z</time>
      </trkpt>
      <trkpt lat="44.24043" lon="3.24139">
        <ele>862.37</ele>
        <time>2026-04-23T12:55:22.145Z</time>
      </trkpt>
      <trkpt lat="44.24037" lon="3.2414">
        <ele>861.6</ele>
        <time>2026-04-23T12:55:27.539Z</time>
      </trkpt>
      <trkpt lat="44.24031" lon="3.24139">
        <ele>860.74</ele>
        <time>2026-04-23T12:55:33.326Z</time>
      </trkpt>
      <trkpt lat="44.24025" lon="3.24141">
        <ele>861.87</ele>
        <time>2026-04-23T12:55:38.383Z</time>
      </trkpt>
      <trkpt lat="44.24021" lon="3.24145">
        <ele>863</ele>
        <time>2026-04-23T12:55:43.546Z</time>
      </trkpt>
      <trkpt lat="44.24019" lon="3.2415">
        <ele>862.37</ele>
        <time>2026-04-23T12:55:48.562Z</time>
      </trkpt>
      <trkpt lat="44.24016" lon="3.24156">
        <ele>862.14</ele>
        <time>2026-04-23T12:55:53.577Z</time>
      </trkpt>
      <trkpt lat="44.24013" lon="3.24165">
        <ele>863.66</ele>
        <time>2026-04-23T12:55:59.345Z</time>
      </trkpt>
      <trkpt lat="44.24011" lon="3.2417">
        <ele>863.75</ele>
        <time>2026-04-23T12:56:04.800Z</time>
      </trkpt>
      <trkpt lat="44.24009" lon="3.24172">
        <ele>864.57</ele>
        <time>2026-04-23T12:56:10.364Z</time>
      </trkpt>
      <trkpt lat="44.24007" lon="3.24174">
        <ele>865.1</ele>
        <time>2026-04-23T12:56:16.442Z</time>
      </trkpt>
      <trkpt lat="44.24" lon="3.24177">
        <ele>865.2</ele>
        <time>2026-04-23T12:56:21.844Z</time>
      </trkpt>
      <trkpt lat="44.23994" lon="3.24184">
        <ele>864.73</ele>
        <time>2026-04-23T12:56:27.303Z</time>
      </trkpt>
      <trkpt lat="44.23988" lon="3.24191">
        <ele>864.11</ele>
        <time>2026-04-23T12:56:32.528Z</time>
      </trkpt>
      <trkpt lat="44.23982" lon="3.24197">
        <ele>864.52</ele>
        <time>2026-04-23T12:56:37.921Z</time>
      </trkpt>
      <trkpt lat="44.23976" lon="3.242">
        <ele>863.18</ele>
        <time>2026-04-23T12:56:43.519Z</time>
      </trkpt>
      <trkpt lat="44.23969" lon="3.24201">
        <ele>864.18</ele>
        <time>2026-04-23T12:56:48.528Z</time>
      </trkpt>
      <trkpt lat="44.23963" lon="3.242">
        <ele>865.02</ele>
        <time>2026-04-23T12:56:53.550Z</time>
      </trkpt>
      <trkpt lat="44.23957" lon="3.24201">
        <ele>865.25</ele>
        <time>2026-04-23T12:56:58.565Z</time>
      </trkpt>
      <trkpt lat="44.23951" lon="3.24202">
        <ele>864.51</ele>
        <time>2026-04-23T12:57:03.887Z</time>
      </trkpt>
      <trkpt lat="44.23944" lon="3.24202">
        <ele>865.19</ele>
        <time>2026-04-23T12:57:09.407Z</time>
      </trkpt>
      <trkpt lat="44.23939" lon="3.24202">
        <ele>866.72</ele>
        <time>2026-04-23T12:57:15.076Z</time>
      </trkpt>
      <trkpt lat="44.23934" lon="3.242">
        <ele>868.73</ele>
        <time>2026-04-23T12:57:20.489Z</time>
      </trkpt>
      <trkpt lat="44.23929" lon="3.24198">
        <ele>868.54</ele>
        <time>2026-04-23T12:57:25.564Z</time>
      </trkpt>
      <trkpt lat="44.23924" lon="3.24193">
        <ele>868.07</ele>
        <time>2026-04-23T12:57:31.171Z</time>
      </trkpt>
      <trkpt lat="44.23918" lon="3.24193">
        <ele>868.51</ele>
        <time>2026-04-23T12:57:36.293Z</time>
      </trkpt>
      <trkpt lat="44.23911" lon="3.24193">
        <ele>869.19</ele>
        <time>2026-04-23T12:57:41.450Z</time>
      </trkpt>
      <trkpt lat="44.23905" lon="3.24192">
        <ele>871.71</ele>
        <time>2026-04-23T12:57:46.479Z</time>
      </trkpt>
      <trkpt lat="44.239" lon="3.24191">
        <ele>873.14</ele>
        <time>2026-04-23T12:57:52.432Z</time>
      </trkpt>
      <trkpt lat="44.23895" lon="3.24192">
        <ele>872.82</ele>
        <time>2026-04-23T12:57:57.570Z</time>
      </trkpt>
      <trkpt lat="44.23889" lon="3.24196">
        <ele>872.47</ele>
        <time>2026-04-23T12:58:03.068Z</time>
      </trkpt>
      <trkpt lat="44.23886" lon="3.24201">
        <ele>871.9</ele>
        <time>2026-04-23T12:58:08.569Z</time>
      </trkpt>
      <trkpt lat="44.23884" lon="3.24208">
        <ele>872.31</ele>
        <time>2026-04-23T12:58:13.686Z</time>
      </trkpt>
      <trkpt lat="44.23881" lon="3.24215">
        <ele>872.14</ele>
        <time>2026-04-23T12:58:19.560Z</time>
      </trkpt>
      <trkpt lat="44.23875" lon="3.2422">
        <ele>872.39</ele>
        <time>2026-04-23T12:58:25.194Z</time>
      </trkpt>
      <trkpt lat="44.23867" lon="3.24222">
        <ele>872.29</ele>
        <time>2026-04-23T12:58:30.552Z</time>
      </trkpt>
      <trkpt lat="44.23863" lon="3.24226">
        <ele>872.22</ele>
        <time>2026-04-23T12:58:35.954Z</time>
      </trkpt>
      <trkpt lat="44.23859" lon="3.24229">
        <ele>872.5</ele>
        <time>2026-04-23T12:58:41.004Z</time>
      </trkpt>
      <trkpt lat="44.23853" lon="3.24234">
        <ele>872.61</ele>
        <time>2026-04-23T12:58:46.559Z</time>
      </trkpt>
      <trkpt lat="44.23848" lon="3.24241">
        <ele>872.32</ele>
        <time>2026-04-23T12:58:52.535Z</time>
      </trkpt>
      <trkpt lat="44.23843" lon="3.24246">
        <ele>872.23</ele>
        <time>2026-04-23T12:58:57.550Z</time>
      </trkpt>
      <trkpt lat="44.23838" lon="3.24251">
        <ele>872.2</ele>
        <time>2026-04-23T12:59:02.925Z</time>
      </trkpt>
      <trkpt lat="44.23832" lon="3.24255">
        <ele>871.99</ele>
        <time>2026-04-23T12:59:08.001Z</time>
      </trkpt>
      <trkpt lat="44.23826" lon="3.24259">
        <ele>873.92</ele>
        <time>2026-04-23T12:59:13.575Z</time>
      </trkpt>
      <trkpt lat="44.2382" lon="3.24264">
        <ele>874.46</ele>
        <time>2026-04-23T12:59:19.500Z</time>
      </trkpt>
      <trkpt lat="44.23816" lon="3.24267">
        <ele>873.95</ele>
        <time>2026-04-23T12:59:24.566Z</time>
      </trkpt>
      <trkpt lat="44.23811" lon="3.24269">
        <ele>875.17</ele>
        <time>2026-04-23T12:59:29.905Z</time>
      </trkpt>
      <trkpt lat="44.23807" lon="3.24271">
        <ele>875.21</ele>
        <time>2026-04-23T12:59:35.444Z</time>
      </trkpt>
      <trkpt lat="44.23803" lon="3.24273">
        <ele>875.31</ele>
        <time>2026-04-23T12:59:41.528Z</time>
      </trkpt>
      <trkpt lat="44.23799" lon="3.24278">
        <ele>876</ele>
        <time>2026-04-23T12:59:47.005Z</time>
      </trkpt>
      <trkpt lat="44.23793" lon="3.24283">
        <ele>875.53</ele>
        <time>2026-04-23T12:59:52.448Z</time>
      </trkpt>
      <trkpt lat="44.23788" lon="3.24286">
        <ele>876.94</ele>
        <time>2026-04-23T12:59:57.509Z</time>
      </trkpt>
      <trkpt lat="44.23783" lon="3.24288">
        <ele>876.87</ele>
        <time>2026-04-23T13:00:02.556Z</time>
      </trkpt>
      <trkpt lat="44.23777" lon="3.24291">
        <ele>875.89</ele>
        <time>2026-04-23T13:00:07.571Z</time>
      </trkpt>
      <trkpt lat="44.23772" lon="3.24295">
        <ele>876.61</ele>
        <time>2026-04-23T13:00:12.587Z</time>
      </trkpt>
      <trkpt lat="44.23766" lon="3.24298">
        <ele>877.21</ele>
        <time>2026-04-23T13:00:18.010Z</time>
      </trkpt>
      <trkpt lat="44.23759" lon="3.24299">
        <ele>876.19</ele>
        <time>2026-04-23T13:00:23.471Z</time>
      </trkpt>
      <trkpt lat="44.23752" lon="3.24298">
        <ele>877.58</ele>
        <time>2026-04-23T13:00:28.487Z</time>
      </trkpt>
      <trkpt lat="44.23747" lon="3.24298">
        <ele>878.12</ele>
        <time>2026-04-23T13:00:33.986Z</time>
      </trkpt>
      <trkpt lat="44.23741" lon="3.24298">
        <ele>877.47</ele>
        <time>2026-04-23T13:00:39.225Z</time>
      </trkpt>
      <trkpt lat="44.23736" lon="3.243">
        <ele>877.06</ele>
        <time>2026-04-23T13:00:44.493Z</time>
      </trkpt>
      <trkpt lat="44.23731" lon="3.24302">
        <ele>875.92</ele>
        <time>2026-04-23T13:00:50.161Z</time>
      </trkpt>
      <trkpt lat="44.23727" lon="3.24302">
        <ele>875.75</ele>
        <time>2026-04-23T13:00:55.485Z</time>
      </trkpt>
      <trkpt lat="44.23721" lon="3.24302">
        <ele>877.09</ele>
        <time>2026-04-23T13:01:00.500Z</time>
      </trkpt>
      <trkpt lat="44.23716" lon="3.24301">
        <ele>877</ele>
        <time>2026-04-23T13:01:05.516Z</time>
      </trkpt>
      <trkpt lat="44.2371" lon="3.243">
        <ele>876.72</ele>
        <time>2026-04-23T13:01:11.273Z</time>
      </trkpt>
      <trkpt lat="44.23704" lon="3.24301">
        <ele>876.78</ele>
        <time>2026-04-23T13:01:16.288Z</time>
      </trkpt>
      <trkpt lat="44.23697" lon="3.24302">
        <ele>874.95</ele>
        <time>2026-04-23T13:01:21.687Z</time>
      </trkpt>
      <trkpt lat="44.2369" lon="3.24304">
        <ele>875.48</ele>
        <time>2026-04-23T13:01:27.474Z</time>
      </trkpt>
      <trkpt lat="44.23685" lon="3.24304">
        <ele>876.59</ele>
        <time>2026-04-23T13:01:32.532Z</time>
      </trkpt>
      <trkpt lat="44.23678" lon="3.24305">
        <ele>876.43</ele>
        <time>2026-04-23T13:01:37.555Z</time>
      </trkpt>
      <trkpt lat="44.23671" lon="3.24306">
        <ele>875.47</ele>
        <time>2026-04-23T13:01:43.542Z</time>
      </trkpt>
      <trkpt lat="44.23664" lon="3.24306">
        <ele>875.6</ele>
        <time>2026-04-23T13:01:49.515Z</time>
      </trkpt>
      <trkpt lat="44.23657" lon="3.24305">
        <ele>875.69</ele>
        <time>2026-04-23T13:01:54.541Z</time>
      </trkpt>
      <trkpt lat="44.23651" lon="3.24304">
        <ele>875.41</ele>
        <time>2026-04-23T13:01:59.565Z</time>
      </trkpt>
      <trkpt lat="44.23644" lon="3.243">
        <ele>875.26</ele>
        <time>2026-04-23T13:02:05.541Z</time>
      </trkpt>
      <trkpt lat="44.23638" lon="3.24303">
        <ele>876.43</ele>
        <time>2026-04-23T13:02:11.517Z</time>
      </trkpt>
      <trkpt lat="44.23632" lon="3.24305">
        <ele>876.52</ele>
        <time>2026-04-23T13:02:16.606Z</time>
      </trkpt>
      <trkpt lat="44.23625" lon="3.24305">
        <ele>875.18</ele>
        <time>2026-04-23T13:02:22.049Z</time>
      </trkpt>
      <trkpt lat="44.23619" lon="3.24303">
        <ele>876.69</ele>
        <time>2026-04-23T13:02:27.533Z</time>
      </trkpt>
      <trkpt lat="44.23613" lon="3.24302">
        <ele>876.2</ele>
        <time>2026-04-23T13:02:32.548Z</time>
      </trkpt>
      <trkpt lat="44.23607" lon="3.24301">
        <ele>876.49</ele>
        <time>2026-04-23T13:02:37.563Z</time>
      </trkpt>
      <trkpt lat="44.236" lon="3.24302">
        <ele>876.48</ele>
        <time>2026-04-23T13:02:42.948Z</time>
      </trkpt>
      <trkpt lat="44.23593" lon="3.24304">
        <ele>875.59</ele>
        <time>2026-04-23T13:02:48.457Z</time>
      </trkpt>
      <trkpt lat="44.23585" lon="3.24305">
        <ele>875.67</ele>
        <time>2026-04-23T13:02:53.472Z</time>
      </trkpt>
      <trkpt lat="44.23577" lon="3.24304">
        <ele>876.38</ele>
        <time>2026-04-23T13:02:59.328Z</time>
      </trkpt>
      <trkpt lat="44.2357" lon="3.24304">
        <ele>877.2</ele>
        <time>2026-04-23T13:03:04.948Z</time>
      </trkpt>
      <trkpt lat="44.23563" lon="3.24302">
        <ele>877.72</ele>
        <time>2026-04-23T13:03:10.546Z</time>
      </trkpt>
      <trkpt lat="44.23557" lon="3.24302">
        <ele>876.53</ele>
        <time>2026-04-23T13:03:15.562Z</time>
      </trkpt>
      <trkpt lat="44.2355" lon="3.24304">
        <ele>875.16</ele>
        <time>2026-04-23T13:03:21.069Z</time>
      </trkpt>
      <trkpt lat="44.23543" lon="3.24305">
        <ele>874.11</ele>
        <time>2026-04-23T13:03:26.571Z</time>
      </trkpt>
      <trkpt lat="44.23536" lon="3.24306">
        <ele>874.29</ele>
        <time>2026-04-23T13:03:32.547Z</time>
      </trkpt>
      <trkpt lat="44.23529" lon="3.24309">
        <ele>875.86</ele>
        <time>2026-04-23T13:03:38.516Z</time>
      </trkpt>
      <trkpt lat="44.23523" lon="3.2431">
        <ele>875.31</ele>
        <time>2026-04-23T13:03:43.525Z</time>
      </trkpt>
      <trkpt lat="44.23517" lon="3.24311">
        <ele>874.47</ele>
        <time>2026-04-23T13:03:48.994Z</time>
      </trkpt>
      <trkpt lat="44.23512" lon="3.24312">
        <ele>875.49</ele>
        <time>2026-04-23T13:03:54.556Z</time>
      </trkpt>
      <trkpt lat="44.23505" lon="3.24312">
        <ele>876.01</ele>
        <time>2026-04-23T13:04:00.532Z</time>
      </trkpt>
      <trkpt lat="44.23499" lon="3.24315">
        <ele>876.58</ele>
        <time>2026-04-23T13:04:06.395Z</time>
      </trkpt>
      <trkpt lat="44.23493" lon="3.24319">
        <ele>875.1</ele>
        <time>2026-04-23T13:04:12.239Z</time>
      </trkpt>
      <trkpt lat="44.23487" lon="3.24324">
        <ele>874.43</ele>
        <time>2026-04-23T13:04:17.526Z</time>
      </trkpt>
      <trkpt lat="44.23481" lon="3.24327">
        <ele>874.52</ele>
        <time>2026-04-23T13:04:22.541Z</time>
      </trkpt>
      <trkpt lat="44.23475" lon="3.24329">
        <ele>875.35</ele>
        <time>2026-04-23T13:04:27.747Z</time>
      </trkpt>
      <trkpt lat="44.23468" lon="3.2433">
        <ele>876.79</ele>
        <time>2026-04-23T13:04:33.272Z</time>
      </trkpt>
      <trkpt lat="44.23462" lon="3.24332">
        <ele>875.08</ele>
        <time>2026-04-23T13:04:39.033Z</time>
      </trkpt>
      <trkpt lat="44.23456" lon="3.24334">
        <ele>873.87</ele>
        <time>2026-04-23T13:04:44.560Z</time>
      </trkpt>
      <trkpt lat="44.2345" lon="3.24336">
        <ele>873.84</ele>
        <time>2026-04-23T13:04:50.536Z</time>
      </trkpt>
      <trkpt lat="44.23445" lon="3.24337">
        <ele>875.07</ele>
        <time>2026-04-23T13:04:55.816Z</time>
      </trkpt>
      <trkpt lat="44.23439" lon="3.24338">
        <ele>876.79</ele>
        <time>2026-04-23T13:05:01.326Z</time>
      </trkpt>
      <trkpt lat="44.23433" lon="3.24339">
        <ele>877.22</ele>
        <time>2026-04-23T13:05:06.805Z</time>
      </trkpt>
      <trkpt lat="44.23426" lon="3.24342">
        <ele>876.25</ele>
        <time>2026-04-23T13:05:12.345Z</time>
      </trkpt>
      <trkpt lat="44.23419" lon="3.24345">
        <ele>873.96</ele>
        <time>2026-04-23T13:05:18.381Z</time>
      </trkpt>
      <trkpt lat="44.23413" lon="3.24347">
        <ele>875.08</ele>
        <time>2026-04-23T13:05:23.565Z</time>
      </trkpt>
      <trkpt lat="44.23407" lon="3.24347">
        <ele>876.01</ele>
        <time>2026-04-23T13:05:29.348Z</time>
      </trkpt>
      <trkpt lat="44.23401" lon="3.24348">
        <ele>877.18</ele>
        <time>2026-04-23T13:05:34.501Z</time>
      </trkpt>
      <trkpt lat="44.23396" lon="3.24351">
        <ele>877.78</ele>
        <time>2026-04-23T13:05:39.517Z</time>
      </trkpt>
      <trkpt lat="44.23389" lon="3.24354">
        <ele>876.87</ele>
        <time>2026-04-23T13:05:45.565Z</time>
      </trkpt>
      <trkpt lat="44.23383" lon="3.24359">
        <ele>876.68</ele>
        <time>2026-04-23T13:05:51.426Z</time>
      </trkpt>
      <trkpt lat="44.23376" lon="3.24362">
        <ele>877.01</ele>
        <time>2026-04-23T13:05:57.165Z</time>
      </trkpt>
      <trkpt lat="44.23368" lon="3.24361">
        <ele>876.58</ele>
        <time>2026-04-23T13:06:03.248Z</time>
      </trkpt>
      <trkpt lat="44.23362" lon="3.2436">
        <ele>876.53</ele>
        <time>2026-04-23T13:06:08.542Z</time>
      </trkpt>
      <trkpt lat="44.23355" lon="3.24362">
        <ele>874.73</ele>
        <time>2026-04-23T13:06:14.309Z</time>
      </trkpt>
      <trkpt lat="44.23349" lon="3.24365">
        <ele>874.26</ele>
        <time>2026-04-23T13:06:19.534Z</time>
      </trkpt>
      <trkpt lat="44.23344" lon="3.24367">
        <ele>874.68</ele>
        <time>2026-04-23T13:06:25.292Z</time>
      </trkpt>
      <trkpt lat="44.23339" lon="3.24366">
        <ele>874.68</ele>
        <time>2026-04-23T13:06:30.893Z</time>
      </trkpt>
      <trkpt lat="44.23333" lon="3.24365">
        <ele>874.51</ele>
        <time>2026-04-23T13:06:36.434Z</time>
      </trkpt>
      <trkpt lat="44.23327" lon="3.24363">
        <ele>874.27</ele>
        <time>2026-04-23T13:06:41.525Z</time>
      </trkpt>
      <trkpt lat="44.23322" lon="3.24361">
        <ele>873.96</ele>
        <time>2026-04-23T13:06:46.541Z</time>
      </trkpt>
      <trkpt lat="44.23314" lon="3.24363">
        <ele>873.58</ele>
        <time>2026-04-23T13:06:51.546Z</time>
      </trkpt>
      <trkpt lat="44.23306" lon="3.24359">
        <ele>876.29</ele>
        <time>2026-04-23T13:06:57.313Z</time>
      </trkpt>
      <trkpt lat="44.233" lon="3.24355">
        <ele>876.13</ele>
        <time>2026-04-23T13:07:02.547Z</time>
      </trkpt>
      <trkpt lat="44.23295" lon="3.24352">
        <ele>876.76</ele>
        <time>2026-04-23T13:07:07.549Z</time>
      </trkpt>
      <trkpt lat="44.23287" lon="3.2435">
        <ele>874.96</ele>
        <time>2026-04-23T13:07:13.409Z</time>
      </trkpt>
      <trkpt lat="44.23279" lon="3.24347">
        <ele>875.71</ele>
        <time>2026-04-23T13:07:19.035Z</time>
      </trkpt>
      <trkpt lat="44.23273" lon="3.24345">
        <ele>876.05</ele>
        <time>2026-04-23T13:07:24.548Z</time>
      </trkpt>
      <trkpt lat="44.23268" lon="3.24343">
        <ele>876.69</ele>
        <time>2026-04-23T13:07:29.564Z</time>
      </trkpt>
      <trkpt lat="44.23261" lon="3.2434">
        <ele>875.18</ele>
        <time>2026-04-23T13:07:35.249Z</time>
      </trkpt>
      <trkpt lat="44.23254" lon="3.24339">
        <ele>874.5</ele>
        <time>2026-04-23T13:07:40.555Z</time>
      </trkpt>
      <trkpt lat="44.23248" lon="3.24336">
        <ele>874.53</ele>
        <time>2026-04-23T13:07:46.524Z</time>
      </trkpt>
      <trkpt lat="44.23243" lon="3.24337">
        <ele>875.31</ele>
        <time>2026-04-23T13:07:52.507Z</time>
      </trkpt>
      <trkpt lat="44.23237" lon="3.24339">
        <ele>875.72</ele>
        <time>2026-04-23T13:07:57.553Z</time>
      </trkpt>
      <trkpt lat="44.23227" lon="3.24341">
        <ele>875.38</ele>
        <time>2026-04-23T13:08:03.498Z</time>
      </trkpt>
      <trkpt lat="44.23219" lon="3.24345">
        <ele>877.16</ele>
        <time>2026-04-23T13:08:09.213Z</time>
      </trkpt>
      <trkpt lat="44.23213" lon="3.24347">
        <ele>875.91</ele>
        <time>2026-04-23T13:08:14.513Z</time>
      </trkpt>
      <trkpt lat="44.23207" lon="3.24352">
        <ele>875.16</ele>
        <time>2026-04-23T13:08:20.017Z</time>
      </trkpt>
      <trkpt lat="44.23201" lon="3.24353">
        <ele>875.95</ele>
        <time>2026-04-23T13:08:25.039Z</time>
      </trkpt>
      <trkpt lat="44.23195" lon="3.24355">
        <ele>875.24</ele>
        <time>2026-04-23T13:08:30.505Z</time>
      </trkpt>
      <trkpt lat="44.23189" lon="3.24357">
        <ele>877.21</ele>
        <time>2026-04-23T13:08:35.877Z</time>
      </trkpt>
      <trkpt lat="44.23183" lon="3.24358">
        <ele>875.72</ele>
        <time>2026-04-23T13:08:41.436Z</time>
      </trkpt>
      <trkpt lat="44.23175" lon="3.24361">
        <ele>873.69</ele>
        <time>2026-04-23T13:08:47.325Z</time>
      </trkpt>
      <trkpt lat="44.2317" lon="3.24363">
        <ele>874.07</ele>
        <time>2026-04-23T13:08:52.506Z</time>
      </trkpt>
      <trkpt lat="44.23164" lon="3.24361">
        <ele>872.15</ele>
        <time>2026-04-23T13:08:58.362Z</time>
      </trkpt>
      <trkpt lat="44.23157" lon="3.24362">
        <ele>872.32</ele>
        <time>2026-04-23T13:09:04.008Z</time>
      </trkpt>
      <trkpt lat="44.23152" lon="3.24365">
        <ele>871.56</ele>
        <time>2026-04-23T13:09:09.509Z</time>
      </trkpt>
      <trkpt lat="44.23145" lon="3.24368">
        <ele>867.82</ele>
        <time>2026-04-23T13:09:15.390Z</time>
      </trkpt>
      <trkpt lat="44.23138" lon="3.24366">
        <ele>868.83</ele>
        <time>2026-04-23T13:09:20.923Z</time>
      </trkpt>
      <trkpt lat="44.23133" lon="3.2436">
        <ele>870.56</ele>
        <time>2026-04-23T13:09:26.454Z</time>
      </trkpt>
      <trkpt lat="44.23127" lon="3.24354">
        <ele>871.28</ele>
        <time>2026-04-23T13:09:31.799Z</time>
      </trkpt>
      <trkpt lat="44.23123" lon="3.24349">
        <ele>871.88</ele>
        <time>2026-04-23T13:09:37.178Z</time>
      </trkpt>
      <trkpt lat="44.23118" lon="3.24347">
        <ele>871.04</ele>
        <time>2026-04-23T13:09:42.510Z</time>
      </trkpt>
      <trkpt lat="44.23114" lon="3.24347">
        <ele>871.82</ele>
        <time>2026-04-23T13:09:47.525Z</time>
      </trkpt>
      <trkpt lat="44.23107" lon="3.24344">
        <ele>872.15</ele>
        <time>2026-04-23T13:09:53.501Z</time>
      </trkpt>
      <trkpt lat="44.23101" lon="3.2434">
        <ele>870.93</ele>
        <time>2026-04-23T13:09:59.477Z</time>
      </trkpt>
      <trkpt lat="44.23096" lon="3.24339">
        <ele>869.93</ele>
        <time>2026-04-23T13:10:05.165Z</time>
      </trkpt>
      <trkpt lat="44.2309" lon="3.24337">
        <ele>871.26</ele>
        <time>2026-04-23T13:10:10.574Z</time>
      </trkpt>
      <trkpt lat="44.23084" lon="3.24334">
        <ele>871.84</ele>
        <time>2026-04-23T13:10:15.577Z</time>
      </trkpt>
      <trkpt lat="44.23079" lon="3.2433">
        <ele>871.01</ele>
        <time>2026-04-23T13:10:21.567Z</time>
      </trkpt>
      <trkpt lat="44.23074" lon="3.24324">
        <ele>871.55</ele>
        <time>2026-04-23T13:10:26.582Z</time>
      </trkpt>
      <trkpt lat="44.23069" lon="3.2432">
        <ele>870.88</ele>
        <time>2026-04-23T13:10:31.976Z</time>
      </trkpt>
      <trkpt lat="44.23063" lon="3.24317">
        <ele>873.63</ele>
        <time>2026-04-23T13:10:37.574Z</time>
      </trkpt>
      <trkpt lat="44.23057" lon="3.24316">
        <ele>873.78</ele>
        <time>2026-04-23T13:10:43.550Z</time>
      </trkpt>
      <trkpt lat="44.23052" lon="3.24318">
        <ele>873.7</ele>
        <time>2026-04-23T13:10:48.797Z</time>
      </trkpt>
      <trkpt lat="44.23046" lon="3.2432">
        <ele>874.88</ele>
        <time>2026-04-23T13:10:54.421Z</time>
      </trkpt>
      <trkpt lat="44.23042" lon="3.24319">
        <ele>873.96</ele>
        <time>2026-04-23T13:10:59.557Z</time>
      </trkpt>
      <trkpt lat="44.23036" lon="3.24315">
        <ele>873.04</ele>
        <time>2026-04-23T13:11:04.958Z</time>
      </trkpt>
      <trkpt lat="44.23031" lon="3.24311">
        <ele>875.42</ele>
        <time>2026-04-23T13:11:10.548Z</time>
      </trkpt>
      <trkpt lat="44.23027" lon="3.24305">
        <ele>874.89</ele>
        <time>2026-04-23T13:11:15.817Z</time>
      </trkpt>
      <trkpt lat="44.23022" lon="3.243">
        <ele>876.48</ele>
        <time>2026-04-23T13:11:21.081Z</time>
      </trkpt>
      <trkpt lat="44.23019" lon="3.24296">
        <ele>878.33</ele>
        <time>2026-04-23T13:11:26.222Z</time>
      </trkpt>
      <trkpt lat="44.23014" lon="3.24291">
        <ele>877.58</ele>
        <time>2026-04-23T13:11:31.571Z</time>
      </trkpt>
      <trkpt lat="44.23011" lon="3.24286">
        <ele>878.04</ele>
        <time>2026-04-23T13:11:36.983Z</time>
      </trkpt>
      <trkpt lat="44.23006" lon="3.24284">
        <ele>878.54</ele>
        <time>2026-04-23T13:11:42.076Z</time>
      </trkpt>
      <trkpt lat="44.23" lon="3.24285">
        <ele>877.66</ele>
        <time>2026-04-23T13:11:47.102Z</time>
      </trkpt>
      <trkpt lat="44.22994" lon="3.24285">
        <ele>878.74</ele>
        <time>2026-04-23T13:11:52.242Z</time>
      </trkpt>
      <trkpt lat="44.22988" lon="3.24286">
        <ele>878.97</ele>
        <time>2026-04-23T13:11:57.795Z</time>
      </trkpt>
      <trkpt lat="44.22984" lon="3.24281">
        <ele>878.07</ele>
        <time>2026-04-23T13:12:03.294Z</time>
      </trkpt>
      <trkpt lat="44.22978" lon="3.24277">
        <ele>878.86</ele>
        <time>2026-04-23T13:12:08.355Z</time>
      </trkpt>
      <trkpt lat="44.22975" lon="3.24275">
        <ele>879.26</ele>
        <time>2026-04-23T13:12:13.509Z</time>
      </trkpt>
      <trkpt lat="44.22972" lon="3.24275">
        <ele>881.58</ele>
        <time>2026-04-23T13:12:18.571Z</time>
      </trkpt>
      <trkpt lat="44.22966" lon="3.24273">
        <ele>880.98</ele>
        <time>2026-04-23T13:12:24.061Z</time>
      </trkpt>
      <trkpt lat="44.2296" lon="3.2427">
        <ele>880.73</ele>
        <time>2026-04-23T13:12:29.445Z</time>
      </trkpt>
      <trkpt lat="44.22956" lon="3.24268">
        <ele>881.52</ele>
        <time>2026-04-23T13:12:34.918Z</time>
      </trkpt>
      <trkpt lat="44.22953" lon="3.24265">
        <ele>883.09</ele>
        <time>2026-04-23T13:12:40.176Z</time>
      </trkpt>
      <trkpt lat="44.22947" lon="3.24264">
        <ele>882.62</ele>
        <time>2026-04-23T13:12:45.297Z</time>
      </trkpt>
      <trkpt lat="44.22942" lon="3.24263">
        <ele>883.76</ele>
        <time>2026-04-23T13:12:50.675Z</time>
      </trkpt>
      <trkpt lat="44.22938" lon="3.24265">
        <ele>882.49</ele>
        <time>2026-04-23T13:12:56.136Z</time>
      </trkpt>
      <trkpt lat="44.22934" lon="3.24269">
        <ele>882.98</ele>
        <time>2026-04-23T13:13:01.531Z</time>
      </trkpt>
      <trkpt lat="44.2293" lon="3.24274">
        <ele>885.07</ele>
        <time>2026-04-23T13:13:06.978Z</time>
      </trkpt>
      <trkpt lat="44.22927" lon="3.2428">
        <ele>885.36</ele>
        <time>2026-04-23T13:13:12.055Z</time>
      </trkpt>
      <trkpt lat="44.22925" lon="3.24286">
        <ele>885.64</ele>
        <time>2026-04-23T13:13:17.081Z</time>
      </trkpt>
      <trkpt lat="44.22922" lon="3.24292">
        <ele>885.16</ele>
        <time>2026-04-23T13:13:22.554Z</time>
      </trkpt>
      <trkpt lat="44.2292" lon="3.24297">
        <ele>884.43</ele>
        <time>2026-04-23T13:13:28.022Z</time>
      </trkpt>
      <trkpt lat="44.22919" lon="3.24303">
        <ele>885.78</ele>
        <time>2026-04-23T13:13:33.274Z</time>
      </trkpt>
      <trkpt lat="44.22917" lon="3.24308">
        <ele>886.28</ele>
        <time>2026-04-23T13:13:38.561Z</time>
      </trkpt>
      <trkpt lat="44.22913" lon="3.24311">
        <ele>885.88</ele>
        <time>2026-04-23T13:13:43.955Z</time>
      </trkpt>
      <trkpt lat="44.22909" lon="3.24312">
        <ele>887.04</ele>
        <time>2026-04-23T13:13:49.156Z</time>
      </trkpt>
      <trkpt lat="44.22906" lon="3.24316">
        <ele>884.75</ele>
        <time>2026-04-23T13:13:54.462Z</time>
      </trkpt>
      <trkpt lat="44.22904" lon="3.24322">
        <ele>884.46</ele>
        <time>2026-04-23T13:13:59.584Z</time>
      </trkpt>
      <trkpt lat="44.22901" lon="3.24332">
        <ele>886.6</ele>
        <time>2026-04-23T13:14:05.536Z</time>
      </trkpt>
      <trkpt lat="44.22897" lon="3.24343">
        <ele>885.07</ele>
        <time>2026-04-23T13:14:11.536Z</time>
      </trkpt>
      <trkpt lat="44.22892" lon="3.2435">
        <ele>884.83</ele>
        <time>2026-04-23T13:14:17.521Z</time>
      </trkpt>
      <trkpt lat="44.22888" lon="3.24357">
        <ele>884.8</ele>
        <time>2026-04-23T13:14:23.456Z</time>
      </trkpt>
      <trkpt lat="44.22888" lon="3.24362">
        <ele>885.8</ele>
        <time>2026-04-23T13:14:28.675Z</time>
      </trkpt>
      <trkpt lat="44.22886" lon="3.24369">
        <ele>885.2</ele>
        <time>2026-04-23T13:14:34.154Z</time>
      </trkpt>
      <trkpt lat="44.22884" lon="3.24375">
        <ele>884.84</ele>
        <time>2026-04-23T13:14:39.534Z</time>
      </trkpt>
      <trkpt lat="44.22881" lon="3.24379">
        <ele>885.28</ele>
        <time>2026-04-23T13:14:45.492Z</time>
      </trkpt>
      <trkpt lat="44.22877" lon="3.24382">
        <ele>886.16</ele>
        <time>2026-04-23T13:14:50.997Z</time>
      </trkpt>
      <trkpt lat="44.22871" lon="3.24384">
        <ele>884.22</ele>
        <time>2026-04-23T13:14:56.480Z</time>
      </trkpt>
      <trkpt lat="44.22864" lon="3.24384">
        <ele>883.32</ele>
        <time>2026-04-23T13:15:01.602Z</time>
      </trkpt>
      <trkpt lat="44.22858" lon="3.24382">
        <ele>883.79</ele>
        <time>2026-04-23T13:15:07.369Z</time>
      </trkpt>
      <trkpt lat="44.22852" lon="3.24382">
        <ele>882.08</ele>
        <time>2026-04-23T13:15:12.495Z</time>
      </trkpt>
      <trkpt lat="44.22847" lon="3.24381">
        <ele>881.64</ele>
        <time>2026-04-23T13:15:17.511Z</time>
      </trkpt>
      <trkpt lat="44.22841" lon="3.24382">
        <ele>880.76</ele>
        <time>2026-04-23T13:15:22.527Z</time>
      </trkpt>
      <trkpt lat="44.22834" lon="3.24386">
        <ele>880.86</ele>
        <time>2026-04-23T13:15:27.552Z</time>
      </trkpt>
      <trkpt lat="44.22827" lon="3.2439">
        <ele>881.57</ele>
        <time>2026-04-23T13:15:33.554Z</time>
      </trkpt>
      <trkpt lat="44.22821" lon="3.24392">
        <ele>880.97</ele>
        <time>2026-04-23T13:15:38.965Z</time>
      </trkpt>
      <trkpt lat="44.22815" lon="3.24394">
        <ele>880.44</ele>
        <time>2026-04-23T13:15:44.555Z</time>
      </trkpt>
      <trkpt lat="44.22808" lon="3.24395">
        <ele>880.49</ele>
        <time>2026-04-23T13:15:50.383Z</time>
      </trkpt>
      <trkpt lat="44.22802" lon="3.24392">
        <ele>879.99</ele>
        <time>2026-04-23T13:15:55.466Z</time>
      </trkpt>
      <trkpt lat="44.22797" lon="3.24388">
        <ele>878.27</ele>
        <time>2026-04-23T13:16:00.499Z</time>
      </trkpt>
      <trkpt lat="44.22789" lon="3.24388">
        <ele>876.82</ele>
        <time>2026-04-23T13:16:06.581Z</time>
      </trkpt>
      <trkpt lat="44.22782" lon="3.24391">
        <ele>875.87</ele>
        <time>2026-04-23T13:16:12.411Z</time>
      </trkpt>
      <trkpt lat="44.22776" lon="3.24393">
        <ele>875.57</ele>
        <time>2026-04-23T13:16:18.192Z</time>
      </trkpt>
      <trkpt lat="44.2277" lon="3.24394">
        <ele>875</ele>
        <time>2026-04-23T13:16:23.576Z</time>
      </trkpt>
      <trkpt lat="44.22765" lon="3.24392">
        <ele>872.39</ele>
        <time>2026-04-23T13:16:29.041Z</time>
      </trkpt>
      <trkpt lat="44.22761" lon="3.24392">
        <ele>872.43</ele>
        <time>2026-04-23T13:16:34.081Z</time>
      </trkpt>
      <trkpt lat="44.22755" lon="3.24397">
        <ele>873.5</ele>
        <time>2026-04-23T13:16:39.500Z</time>
      </trkpt>
      <trkpt lat="44.2275" lon="3.24399">
        <ele>873.33</ele>
        <time>2026-04-23T13:16:44.528Z</time>
      </trkpt>
      <trkpt lat="44.22746" lon="3.24402">
        <ele>872.02</ele>
        <time>2026-04-23T13:16:49.875Z</time>
      </trkpt>
      <trkpt lat="44.2274" lon="3.24404">
        <ele>871.46</ele>
        <time>2026-04-23T13:16:55.519Z</time>
      </trkpt>
      <trkpt lat="44.22735" lon="3.24405">
        <ele>872.8</ele>
        <time>2026-04-23T13:17:00.535Z</time>
      </trkpt>
      <trkpt lat="44.22727" lon="3.24407">
        <ele>870.39</ele>
        <time>2026-04-23T13:17:06.510Z</time>
      </trkpt>
      <trkpt lat="44.22722" lon="3.24403">
        <ele>869.43</ele>
        <time>2026-04-23T13:17:12.242Z</time>
      </trkpt>
      <trkpt lat="44.22718" lon="3.24397">
        <ele>870.59</ele>
        <time>2026-04-23T13:17:18.280Z</time>
      </trkpt>
      <trkpt lat="44.22712" lon="3.24394">
        <ele>869.72</ele>
        <time>2026-04-23T13:17:24.060Z</time>
      </trkpt>
      <trkpt lat="44.22706" lon="3.24392">
        <ele>870.11</ele>
        <time>2026-04-23T13:17:29.164Z</time>
      </trkpt>
      <trkpt lat="44.227" lon="3.24389">
        <ele>869.33</ele>
        <time>2026-04-23T13:17:34.517Z</time>
      </trkpt>
      <trkpt lat="44.22693" lon="3.24389">
        <ele>867.53</ele>
        <time>2026-04-23T13:17:40.616Z</time>
      </trkpt>
      <trkpt lat="44.22686" lon="3.24389">
        <ele>867.98</ele>
        <time>2026-04-23T13:17:46.575Z</time>
      </trkpt>
      <trkpt lat="44.22679" lon="3.24385">
        <ele>868.06</ele>
        <time>2026-04-23T13:17:52.314Z</time>
      </trkpt>
      <trkpt lat="44.22674" lon="3.24384">
        <ele>868.12</ele>
        <time>2026-04-23T13:17:57.495Z</time>
      </trkpt>
      <trkpt lat="44.22669" lon="3.24384">
        <ele>866.63</ele>
        <time>2026-04-23T13:18:02.578Z</time>
      </trkpt>
      <trkpt lat="44.22663" lon="3.24382">
        <ele>865.49</ele>
        <time>2026-04-23T13:18:07.900Z</time>
      </trkpt>
      <trkpt lat="44.22658" lon="3.2438">
        <ele>864.71</ele>
        <time>2026-04-23T13:18:13.219Z</time>
      </trkpt>
      <trkpt lat="44.22654" lon="3.24375">
        <ele>864.47</ele>
        <time>2026-04-23T13:18:18.497Z</time>
      </trkpt>
      <trkpt lat="44.2265" lon="3.2437">
        <ele>864.3</ele>
        <time>2026-04-23T13:18:23.620Z</time>
      </trkpt>
      <trkpt lat="44.22646" lon="3.24367">
        <ele>863.01</ele>
        <time>2026-04-23T13:18:29.305Z</time>
      </trkpt>
      <trkpt lat="44.22644" lon="3.24367">
        <ele>861.33</ele>
        <time>2026-04-23T13:18:34.357Z</time>
      </trkpt>
      <trkpt lat="44.2264" lon="3.24365">
        <ele>861.89</ele>
        <time>2026-04-23T13:18:39.520Z</time>
      </trkpt>
      <trkpt lat="44.22635" lon="3.24363">
        <ele>862.23</ele>
        <time>2026-04-23T13:18:44.534Z</time>
      </trkpt>
      <trkpt lat="44.22629" lon="3.24361">
        <ele>862.76</ele>
        <time>2026-04-23T13:18:50.119Z</time>
      </trkpt>
      <trkpt lat="44.22622" lon="3.2436">
        <ele>862.24</ele>
        <time>2026-04-23T13:18:55.619Z</time>
      </trkpt>
      <trkpt lat="44.22616" lon="3.24357">
        <ele>861.29</ele>
        <time>2026-04-23T13:19:01.462Z</time>
      </trkpt>
      <trkpt lat="44.22611" lon="3.24356">
        <ele>861.2</ele>
        <time>2026-04-23T13:19:06.485Z</time>
      </trkpt>
      <trkpt lat="44.22605" lon="3.24354">
        <ele>861.24</ele>
        <time>2026-04-23T13:19:11.608Z</time>
      </trkpt>
      <trkpt lat="44.22599" lon="3.24352">
        <ele>861.45</ele>
        <time>2026-04-23T13:19:17.451Z</time>
      </trkpt>
      <trkpt lat="44.22593" lon="3.24348">
        <ele>861.04</ele>
        <time>2026-04-23T13:19:23.121Z</time>
      </trkpt>
      <trkpt lat="44.22588" lon="3.24345">
        <ele>861.26</ele>
        <time>2026-04-23T13:19:28.644Z</time>
      </trkpt>
      <trkpt lat="44.22581" lon="3.24341">
        <ele>860.14</ele>
        <time>2026-04-23T13:19:34.642Z</time>
      </trkpt>
      <trkpt lat="44.22575" lon="3.24338">
        <ele>860</ele>
        <time>2026-04-23T13:19:40.358Z</time>
      </trkpt>
      <trkpt lat="44.22568" lon="3.24335">
        <ele>860.13</ele>
        <time>2026-04-23T13:19:46.080Z</time>
      </trkpt>
      <trkpt lat="44.22562" lon="3.24331">
        <ele>860.43</ele>
        <time>2026-04-23T13:19:51.839Z</time>
      </trkpt>
      <trkpt lat="44.22556" lon="3.24328">
        <ele>861.06</ele>
        <time>2026-04-23T13:19:57.583Z</time>
      </trkpt>
      <trkpt lat="44.22549" lon="3.24324">
        <ele>860.51</ele>
        <time>2026-04-23T13:20:03.322Z</time>
      </trkpt>
      <trkpt lat="44.22544" lon="3.2432">
        <ele>860.64</ele>
        <time>2026-04-23T13:20:08.564Z</time>
      </trkpt>
      <trkpt lat="44.22539" lon="3.24316">
        <ele>860.65</ele>
        <time>2026-04-23T13:20:13.579Z</time>
      </trkpt>
      <trkpt lat="44.22535" lon="3.24314">
        <ele>861.94</ele>
        <time>2026-04-23T13:20:18.595Z</time>
      </trkpt>
      <trkpt lat="44.2253" lon="3.24313">
        <ele>861.83</ele>
        <time>2026-04-23T13:20:24.102Z</time>
      </trkpt>
      <trkpt lat="44.22525" lon="3.24312">
        <ele>861.04</ele>
        <time>2026-04-23T13:20:29.585Z</time>
      </trkpt>
      <trkpt lat="44.2252" lon="3.2431">
        <ele>860.31</ele>
        <time>2026-04-23T13:20:34.603Z</time>
      </trkpt>
      <trkpt lat="44.22513" lon="3.24308">
        <ele>859.92</ele>
        <time>2026-04-23T13:20:40.287Z</time>
      </trkpt>
      <trkpt lat="44.22507" lon="3.24306">
        <ele>860.09</ele>
        <time>2026-04-23T13:20:45.620Z</time>
      </trkpt>
      <trkpt lat="44.225" lon="3.24305">
        <ele>859.62</ele>
        <time>2026-04-23T13:20:51.626Z</time>
      </trkpt>
      <trkpt lat="44.22494" lon="3.24305">
        <ele>858.18</ele>
        <time>2026-04-23T13:20:57.581Z</time>
      </trkpt>
      <trkpt lat="44.22488" lon="3.24301">
        <ele>857.45</ele>
        <time>2026-04-23T13:21:03.557Z</time>
      </trkpt>
      <trkpt lat="44.22481" lon="3.24296">
        <ele>857.04</ele>
        <time>2026-04-23T13:21:09.367Z</time>
      </trkpt>
      <trkpt lat="44.22476" lon="3.24292">
        <ele>855.22</ele>
        <time>2026-04-23T13:21:14.408Z</time>
      </trkpt>
      <trkpt lat="44.22472" lon="3.24289">
        <ele>854.61</ele>
        <time>2026-04-23T13:21:19.590Z</time>
      </trkpt>
      <trkpt lat="44.22467" lon="3.24287">
        <ele>854.99</ele>
        <time>2026-04-23T13:21:25.215Z</time>
      </trkpt>
      <trkpt lat="44.22461" lon="3.24286">
        <ele>854.07</ele>
        <time>2026-04-23T13:21:30.582Z</time>
      </trkpt>
      <trkpt lat="44.22457" lon="3.24283">
        <ele>853.58</ele>
        <time>2026-04-23T13:21:36.349Z</time>
      </trkpt>
      <trkpt lat="44.22453" lon="3.24278">
        <ele>853.2</ele>
        <time>2026-04-23T13:21:41.573Z</time>
      </trkpt>
      <trkpt lat="44.2245" lon="3.24272">
        <ele>854.89</ele>
        <time>2026-04-23T13:21:46.589Z</time>
      </trkpt>
      <trkpt lat="44.22445" lon="3.24266">
        <ele>854.49</ele>
        <time>2026-04-23T13:21:52.807Z</time>
      </trkpt>
      <trkpt lat="44.22441" lon="3.2426">
        <ele>853.1</ele>
        <time>2026-04-23T13:21:58.579Z</time>
      </trkpt>
      <trkpt lat="44.22436" lon="3.24254">
        <ele>854.3</ele>
        <time>2026-04-23T13:22:04.432Z</time>
      </trkpt>
      <trkpt lat="44.22431" lon="3.24248">
        <ele>853.26</ele>
        <time>2026-04-23T13:22:09.559Z</time>
      </trkpt>
      <trkpt lat="44.22427" lon="3.24242">
        <ele>852.05</ele>
        <time>2026-04-23T13:22:15.113Z</time>
      </trkpt>
      <trkpt lat="44.22425" lon="3.24239">
        <ele>852.01</ele>
        <time>2026-04-23T13:22:20.568Z</time>
      </trkpt>
      <trkpt lat="44.22419" lon="3.24235">
        <ele>851.11</ele>
        <time>2026-04-23T13:22:26.226Z</time>
      </trkpt>
      <trkpt lat="44.22413" lon="3.24232">
        <ele>850.64</ele>
        <time>2026-04-23T13:22:31.599Z</time>
      </trkpt>
      <trkpt lat="44.22409" lon="3.2423">
        <ele>849.68</ele>
        <time>2026-04-23T13:22:36.721Z</time>
      </trkpt>
      <trkpt lat="44.22406" lon="3.24229">
        <ele>849.12</ele>
        <time>2026-04-23T13:22:42.376Z</time>
      </trkpt>
      <trkpt lat="44.224" lon="3.24229">
        <ele>849.67</ele>
        <time>2026-04-23T13:22:47.594Z</time>
      </trkpt>
      <trkpt lat="44.22391" lon="3.24228">
        <ele>849.16</ele>
        <time>2026-04-23T13:22:53.574Z</time>
      </trkpt>
      <trkpt lat="44.22383" lon="3.24227">
        <ele>848.29</ele>
        <time>2026-04-23T13:22:59.496Z</time>
      </trkpt>
      <trkpt lat="44.22376" lon="3.24225">
        <ele>848.8</ele>
        <time>2026-04-23T13:23:05.278Z</time>
      </trkpt>
      <trkpt lat="44.2237" lon="3.24222">
        <ele>849.55</ele>
        <time>2026-04-23T13:23:10.537Z</time>
      </trkpt>
      <trkpt lat="44.22364" lon="3.2422">
        <ele>850.47</ele>
        <time>2026-04-23T13:23:15.553Z</time>
      </trkpt>
      <trkpt lat="44.22358" lon="3.24218">
        <ele>850.48</ele>
        <time>2026-04-23T13:23:21.035Z</time>
      </trkpt>
      <trkpt lat="44.22352" lon="3.24215">
        <ele>847.62</ele>
        <time>2026-04-23T13:23:26.544Z</time>
      </trkpt>
      <trkpt lat="44.22344" lon="3.24216">
        <ele>847.61</ele>
        <time>2026-04-23T13:23:32.514Z</time>
      </trkpt>
      <trkpt lat="44.2234" lon="3.24221">
        <ele>848.13</ele>
        <time>2026-04-23T13:23:37.545Z</time>
      </trkpt>
      <trkpt lat="44.22336" lon="3.24226">
        <ele>848.69</ele>
        <time>2026-04-23T13:23:42.560Z</time>
      </trkpt>
      <trkpt lat="44.22334" lon="3.24233">
        <ele>847.4</ele>
        <time>2026-04-23T13:23:47.576Z</time>
      </trkpt>
      <trkpt lat="44.22332" lon="3.24239">
        <ele>845.19</ele>
        <time>2026-04-23T13:23:52.609Z</time>
      </trkpt>
      <trkpt lat="44.2233" lon="3.24244">
        <ele>845.74</ele>
        <time>2026-04-23T13:23:58.585Z</time>
      </trkpt>
      <trkpt lat="44.22328" lon="3.24254">
        <ele>845.49</ele>
        <time>2026-04-23T13:24:04.629Z</time>
      </trkpt>
      <trkpt lat="44.22324" lon="3.24261">
        <ele>846.95</ele>
        <time>2026-04-23T13:24:09.981Z</time>
      </trkpt>
      <trkpt lat="44.22318" lon="3.24261">
        <ele>848.9</ele>
        <time>2026-04-23T13:24:15.085Z</time>
      </trkpt>
      <trkpt lat="44.22313" lon="3.24259">
        <ele>848.87</ele>
        <time>2026-04-23T13:24:20.598Z</time>
      </trkpt>
      <trkpt lat="44.2231" lon="3.24257">
        <ele>849.35</ele>
        <time>2026-04-23T13:24:26.423Z</time>
      </trkpt>
      <trkpt lat="44.22309" lon="3.24256">
        <ele>849.14</ele>
        <time>2026-04-23T13:24:31.560Z</time>
      </trkpt>
      <trkpt lat="44.22307" lon="3.24256">
        <ele>849.43</ele>
        <time>2026-04-23T13:24:37.356Z</time>
      </trkpt>
      <trkpt lat="44.22304" lon="3.24253">
        <ele>851.05</ele>
        <time>2026-04-23T13:24:42.551Z</time>
      </trkpt>
      <trkpt lat="44.22299" lon="3.24248">
        <ele>851.85</ele>
        <time>2026-04-23T13:24:47.562Z</time>
      </trkpt>
      <trkpt lat="44.22295" lon="3.24243">
        <ele>852.94</ele>
        <time>2026-04-23T13:24:52.582Z</time>
      </trkpt>
      <trkpt lat="44.22289" lon="3.24239">
        <ele>852.02</ele>
        <time>2026-04-23T13:24:57.878Z</time>
      </trkpt>
      <trkpt lat="44.22284" lon="3.24238">
        <ele>850.66</ele>
        <time>2026-04-23T13:25:03.258Z</time>
      </trkpt>
      <trkpt lat="44.22277" lon="3.24238">
        <ele>851.54</ele>
        <time>2026-04-23T13:25:09.384Z</time>
      </trkpt>
      <trkpt lat="44.22272" lon="3.24243">
        <ele>851.58</ele>
        <time>2026-04-23T13:25:15.378Z</time>
      </trkpt>
      <trkpt lat="44.22265" lon="3.24249">
        <ele>849.99</ele>
        <time>2026-04-23T13:25:21.364Z</time>
      </trkpt>
      <trkpt lat="44.22259" lon="3.24254">
        <ele>848.38</ele>
        <time>2026-04-23T13:25:27.602Z</time>
      </trkpt>
      <trkpt lat="44.22254" lon="3.24256">
        <ele>847.44</ele>
        <time>2026-04-23T13:25:33.066Z</time>
      </trkpt>
      <trkpt lat="44.22249" lon="3.24256">
        <ele>849.19</ele>
        <time>2026-04-23T13:25:38.531Z</time>
      </trkpt>
      <trkpt lat="44.22243" lon="3.24254">
        <ele>848.25</ele>
        <time>2026-04-23T13:25:44.637Z</time>
      </trkpt>
      <trkpt lat="44.22237" lon="3.24252">
        <ele>845.65</ele>
        <time>2026-04-23T13:25:50.435Z</time>
      </trkpt>
      <trkpt lat="44.22232" lon="3.24251">
        <ele>844.31</ele>
        <time>2026-04-23T13:25:55.956Z</time>
      </trkpt>
      <trkpt lat="44.22225" lon="3.24254">
        <ele>843.84</ele>
        <time>2026-04-23T13:26:01.574Z</time>
      </trkpt>
      <trkpt lat="44.22217" lon="3.24262">
        <ele>846.46</ele>
        <time>2026-04-23T13:26:07.586Z</time>
      </trkpt>
      <trkpt lat="44.22211" lon="3.24266">
        <ele>846.33</ele>
        <time>2026-04-23T13:26:12.905Z</time>
      </trkpt>
      <trkpt lat="44.22204" lon="3.24268">
        <ele>844.92</ele>
        <time>2026-04-23T13:26:18.592Z</time>
      </trkpt>
      <trkpt lat="44.22196" lon="3.24267">
        <ele>844.11</ele>
        <time>2026-04-23T13:26:24.296Z</time>
      </trkpt>
      <trkpt lat="44.22191" lon="3.24267">
        <ele>843.38</ele>
        <time>2026-04-23T13:26:29.567Z</time>
      </trkpt>
      <trkpt lat="44.22188" lon="3.24269">
        <ele>844.58</ele>
        <time>2026-04-23T13:26:34.582Z</time>
      </trkpt>
      <trkpt lat="44.22185" lon="3.24268">
        <ele>843.61</ele>
        <time>2026-04-23T13:26:40.358Z</time>
      </trkpt>
      <trkpt lat="44.22184" lon="3.24268">
        <ele>843.15</ele>
        <time>2026-04-23T13:27:03.608Z</time>
      </trkpt>
      <trkpt lat="44.22183" lon="3.24268">
        <ele>841.42</ele>
        <time>2026-04-23T13:27:10.544Z</time>
      </trkpt>
      <trkpt lat="44.22182" lon="3.24269">
        <ele>841.22</ele>
        <time>2026-04-23T13:27:18.548Z</time>
      </trkpt>
      <trkpt lat="44.2218" lon="3.2427">
        <ele>841.67</ele>
        <time>2026-04-23T13:27:23.563Z</time>
      </trkpt>
      <trkpt lat="44.22179" lon="3.24271">
        <ele>840.13</ele>
        <time>2026-04-23T13:27:28.579Z</time>
      </trkpt>
      <trkpt lat="44.22178" lon="3.2427">
        <ele>841.03</ele>
        <time>2026-04-23T13:27:40.531Z</time>
      </trkpt>
      <trkpt lat="44.22177" lon="3.2427">
        <ele>840.56</ele>
        <time>2026-04-23T13:27:47.574Z</time>
      </trkpt>
      <trkpt lat="44.22176" lon="3.24271">
        <ele>838.93</ele>
        <time>2026-04-23T13:27:57.604Z</time>
      </trkpt>
      <trkpt lat="44.22176" lon="3.24272">
        <ele>839.2</ele>
        <time>2026-04-23T13:28:02.620Z</time>
      </trkpt>
      <trkpt lat="44.22175" lon="3.24275">
        <ele>838.82</ele>
        <time>2026-04-23T13:28:08.489Z</time>
      </trkpt>
      <trkpt lat="44.22175" lon="3.24276">
        <ele>840.75</ele>
        <time>2026-04-23T13:28:13.611Z</time>
      </trkpt>
      <trkpt lat="44.22174" lon="3.24278">
        <ele>837.38</ele>
        <time>2026-04-23T13:28:22.575Z</time>
      </trkpt>
      <trkpt lat="44.22174" lon="3.24276">
        <ele>837.02</ele>
        <time>2026-04-23T13:28:39.543Z</time>
      </trkpt>
      <trkpt lat="44.22173" lon="3.24275">
        <ele>837.48</ele>
        <time>2026-04-23T13:28:45.104Z</time>
      </trkpt>
      <trkpt lat="44.22173" lon="3.24274">
        <ele>837.18</ele>
        <time>2026-04-23T13:28:51.494Z</time>
      </trkpt>
      <trkpt lat="44.22172" lon="3.24273">
        <ele>836.34</ele>
        <time>2026-04-23T13:28:56.510Z</time>
      </trkpt>
      <trkpt lat="44.22171" lon="3.24271">
        <ele>836.93</ele>
        <time>2026-04-23T13:29:01.525Z</time>
      </trkpt>
      <trkpt lat="44.22172" lon="3.24272">
        <ele>837.22</ele>
        <time>2026-04-23T13:29:15.611Z</time>
      </trkpt>
      <trkpt lat="44.22173" lon="3.24273">
        <ele>836.15</ele>
        <time>2026-04-23T13:29:21.587Z</time>
      </trkpt>
      <trkpt lat="44.22174" lon="3.24273">
        <ele>836.42</ele>
        <time>2026-04-23T13:29:29.484Z</time>
      </trkpt>
      <trkpt lat="44.22174" lon="3.24272">
        <ele>839.29</ele>
        <time>2026-04-23T13:29:47.517Z</time>
      </trkpt>
      <trkpt lat="44.22173" lon="3.24271">
        <ele>837.93</ele>
        <time>2026-04-23T13:29:52.538Z</time>
      </trkpt>
      <trkpt lat="44.22173" lon="3.24272">
        <ele>836.87</ele>
        <time>2026-04-23T13:30:01.507Z</time>
      </trkpt>
      <trkpt lat="44.22173" lon="3.24274">
        <ele>837.75</ele>
        <time>2026-04-23T13:30:21.570Z</time>
      </trkpt>
      <trkpt lat="44.22173" lon="3.24275">
        <ele>837.58</ele>
        <time>2026-04-23T13:30:39.604Z</time>
      </trkpt>
      <trkpt lat="44.22173" lon="3.24276">
        <ele>836.64</ele>
        <time>2026-04-23T13:31:19.298Z</time>
      </trkpt>
      <trkpt lat="44.22167" lon="3.24279">
        <ele>837.36</ele>
        <time>2026-04-23T13:31:24.855Z</time>
      </trkpt>
      <trkpt lat="44.22161" lon="3.24281">
        <ele>837.57</ele>
        <time>2026-04-23T13:31:30.040Z</time>
      </trkpt>
      <trkpt lat="44.22156" lon="3.2428">
        <ele>838.73</ele>
        <time>2026-04-23T13:31:35.541Z</time>
      </trkpt>
      <trkpt lat="44.2215" lon="3.24277">
        <ele>837.22</ele>
        <time>2026-04-23T13:31:41.031Z</time>
      </trkpt>
      <trkpt lat="44.22145" lon="3.24274">
        <ele>837.48</ele>
        <time>2026-04-23T13:31:46.238Z</time>
      </trkpt>
      <trkpt lat="44.2214" lon="3.24269">
        <ele>838.26</ele>
        <time>2026-04-23T13:31:51.547Z</time>
      </trkpt>
      <trkpt lat="44.22135" lon="3.24262">
        <ele>838.18</ele>
        <time>2026-04-23T13:31:57.015Z</time>
      </trkpt>
      <trkpt lat="44.22127" lon="3.24257">
        <ele>836.93</ele>
        <time>2026-04-23T13:32:02.579Z</time>
      </trkpt>
      <trkpt lat="44.22121" lon="3.24255">
        <ele>835.81</ele>
        <time>2026-04-23T13:32:08.457Z</time>
      </trkpt>
      <trkpt lat="44.22117" lon="3.24256">
        <ele>836.07</ele>
        <time>2026-04-23T13:32:13.530Z</time>
      </trkpt>
      <trkpt lat="44.22111" lon="3.24256">
        <ele>837.67</ele>
        <time>2026-04-23T13:32:18.576Z</time>
      </trkpt>
      <trkpt lat="44.22106" lon="3.24258">
        <ele>839.36</ele>
        <time>2026-04-23T13:32:24.349Z</time>
      </trkpt>
      <trkpt lat="44.221" lon="3.24261">
        <ele>837.78</ele>
        <time>2026-04-23T13:32:30.448Z</time>
      </trkpt>
      <trkpt lat="44.22094" lon="3.24266">
        <ele>837.78</ele>
        <time>2026-04-23T13:32:35.606Z</time>
      </trkpt>
      <trkpt lat="44.22089" lon="3.24267">
        <ele>838.02</ele>
        <time>2026-04-23T13:32:40.662Z</time>
      </trkpt>
      <trkpt lat="44.22084" lon="3.24265">
        <ele>837.85</ele>
        <time>2026-04-23T13:32:46.125Z</time>
      </trkpt>
      <trkpt lat="44.22078" lon="3.24264">
        <ele>837.48</ele>
        <time>2026-04-23T13:32:51.423Z</time>
      </trkpt>
      <trkpt lat="44.22071" lon="3.24263">
        <ele>837.9</ele>
        <time>2026-04-23T13:32:56.904Z</time>
      </trkpt>
      <trkpt lat="44.22064" lon="3.24261">
        <ele>838.57</ele>
        <time>2026-04-23T13:33:02.484Z</time>
      </trkpt>
      <trkpt lat="44.22056" lon="3.24259">
        <ele>839.23</ele>
        <time>2026-04-23T13:33:07.947Z</time>
      </trkpt>
      <trkpt lat="44.22051" lon="3.24257">
        <ele>839.36</ele>
        <time>2026-04-23T13:33:12.962Z</time>
      </trkpt>
      <trkpt lat="44.22045" lon="3.24256">
        <ele>839.81</ele>
        <time>2026-04-23T13:33:18.308Z</time>
      </trkpt>
      <trkpt lat="44.2204" lon="3.24254">
        <ele>839.54</ele>
        <time>2026-04-23T13:33:23.489Z</time>
      </trkpt>
      <trkpt lat="44.22034" lon="3.24253">
        <ele>839.26</ele>
        <time>2026-04-23T13:33:28.548Z</time>
      </trkpt>
      <trkpt lat="44.22027" lon="3.24251">
        <ele>839.95</ele>
        <time>2026-04-23T13:33:33.984Z</time>
      </trkpt>
      <trkpt lat="44.2202" lon="3.24248">
        <ele>839.84</ele>
        <time>2026-04-23T13:33:39.479Z</time>
      </trkpt>
      <trkpt lat="44.22014" lon="3.24245">
        <ele>841.17</ele>
        <time>2026-04-23T13:33:44.887Z</time>
      </trkpt>
      <trkpt lat="44.22007" lon="3.2424">
        <ele>840.18</ele>
        <time>2026-04-23T13:33:50.285Z</time>
      </trkpt>
      <trkpt lat="44.22002" lon="3.24235">
        <ele>840.44</ele>
        <time>2026-04-23T13:33:55.485Z</time>
      </trkpt>
      <trkpt lat="44.21999" lon="3.24229">
        <ele>840.11</ele>
        <time>2026-04-23T13:34:00.867Z</time>
      </trkpt>
      <trkpt lat="44.21996" lon="3.24219">
        <ele>840.82</ele>
        <time>2026-04-23T13:34:06.536Z</time>
      </trkpt>
      <trkpt lat="44.21993" lon="3.2421">
        <ele>840.86</ele>
        <time>2026-04-23T13:34:12.025Z</time>
      </trkpt>
      <trkpt lat="44.21989" lon="3.24203">
        <ele>841</ele>
        <time>2026-04-23T13:34:17.250Z</time>
      </trkpt>
      <trkpt lat="44.21983" lon="3.24196">
        <ele>840.74</ele>
        <time>2026-04-23T13:34:22.440Z</time>
      </trkpt>
      <trkpt lat="44.21977" lon="3.2419">
        <ele>841.23</ele>
        <time>2026-04-23T13:34:27.766Z</time>
      </trkpt>
      <trkpt lat="44.21973" lon="3.24185">
        <ele>841.74</ele>
        <time>2026-04-23T13:34:33.208Z</time>
      </trkpt>
      <trkpt lat="44.2197" lon="3.24179">
        <ele>842.57</ele>
        <time>2026-04-23T13:34:38.549Z</time>
      </trkpt>
      <trkpt lat="44.21964" lon="3.24174">
        <ele>842.76</ele>
        <time>2026-04-23T13:34:43.985Z</time>
      </trkpt>
      <trkpt lat="44.21959" lon="3.24169">
        <ele>843.16</ele>
        <time>2026-04-23T13:34:49.303Z</time>
      </trkpt>
      <trkpt lat="44.21955" lon="3.24167">
        <ele>843.57</ele>
        <time>2026-04-23T13:34:54.555Z</time>
      </trkpt>
      <trkpt lat="44.2195" lon="3.24164">
        <ele>843.74</ele>
        <time>2026-04-23T13:34:59.571Z</time>
      </trkpt>
      <trkpt lat="44.21945" lon="3.2416">
        <ele>844.3</ele>
        <time>2026-04-23T13:35:04.646Z</time>
      </trkpt>
      <trkpt lat="44.21939" lon="3.24159">
        <ele>843.62</ele>
        <time>2026-04-23T13:35:10.502Z</time>
      </trkpt>
      <trkpt lat="44.21932" lon="3.24155">
        <ele>844.36</ele>
        <time>2026-04-23T13:35:16.124Z</time>
      </trkpt>
      <trkpt lat="44.21927" lon="3.24156">
        <ele>845.29</ele>
        <time>2026-04-23T13:35:21.184Z</time>
      </trkpt>
      <trkpt lat="44.21922" lon="3.24156">
        <ele>846.09</ele>
        <time>2026-04-23T13:35:26.243Z</time>
      </trkpt>
      <trkpt lat="44.21917" lon="3.24155">
        <ele>846.9</ele>
        <time>2026-04-23T13:35:31.482Z</time>
      </trkpt>
      <trkpt lat="44.21912" lon="3.24156">
        <ele>847.14</ele>
        <time>2026-04-23T13:35:36.539Z</time>
      </trkpt>
      <trkpt lat="44.21912" lon="3.2416">
        <ele>847.2</ele>
        <time>2026-04-23T13:35:42.460Z</time>
      </trkpt>
      <trkpt lat="44.21913" lon="3.24166">
        <ele>847.38</ele>
        <time>2026-04-23T13:35:47.588Z</time>
      </trkpt>
      <trkpt lat="44.21912" lon="3.24164">
        <ele>846.87</ele>
        <time>2026-04-23T13:35:52.604Z</time>
      </trkpt>
      <trkpt lat="44.21912" lon="3.24159">
        <ele>847.08</ele>
        <time>2026-04-23T13:35:58.246Z</time>
      </trkpt>
      <trkpt lat="44.21908" lon="3.2416">
        <ele>847.58</ele>
        <time>2026-04-23T13:36:03.927Z</time>
      </trkpt>
      <trkpt lat="44.21903" lon="3.24161">
        <ele>847.53</ele>
        <time>2026-04-23T13:36:09.042Z</time>
      </trkpt>
      <trkpt lat="44.21895" lon="3.24161">
        <ele>847.95</ele>
        <time>2026-04-23T13:36:14.100Z</time>
      </trkpt>
      <trkpt lat="44.21888" lon="3.24158">
        <ele>849.26</ele>
        <time>2026-04-23T13:36:19.541Z</time>
      </trkpt>
      <trkpt lat="44.2188" lon="3.24157">
        <ele>850.75</ele>
        <time>2026-04-23T13:36:25.577Z</time>
      </trkpt>
      <trkpt lat="44.21873" lon="3.24158">
        <ele>851.38</ele>
        <time>2026-04-23T13:36:30.592Z</time>
      </trkpt>
      <trkpt lat="44.21867" lon="3.24156">
        <ele>851.41</ele>
        <time>2026-04-23T13:36:35.602Z</time>
      </trkpt>
      <trkpt lat="44.21862" lon="3.24154">
        <ele>851.06</ele>
        <time>2026-04-23T13:36:40.622Z</time>
      </trkpt>
      <trkpt lat="44.21855" lon="3.24153">
        <ele>852.25</ele>
        <time>2026-04-23T13:36:45.990Z</time>
      </trkpt>
      <trkpt lat="44.21849" lon="3.24152">
        <ele>852.12</ele>
        <time>2026-04-23T13:36:51.405Z</time>
      </trkpt>
      <trkpt lat="44.21843" lon="3.24151">
        <ele>852.62</ele>
        <time>2026-04-23T13:36:56.520Z</time>
      </trkpt>
      <trkpt lat="44.21837" lon="3.24151">
        <ele>852.3</ele>
        <time>2026-04-23T13:37:01.600Z</time>
      </trkpt>
      <trkpt lat="44.2183" lon="3.2415">
        <ele>851.6</ele>
        <time>2026-04-23T13:37:07.161Z</time>
      </trkpt>
      <trkpt lat="44.21822" lon="3.24148">
        <ele>852.24</ele>
        <time>2026-04-23T13:37:12.527Z</time>
      </trkpt>
      <trkpt lat="44.21816" lon="3.24145">
        <ele>852.09</ele>
        <time>2026-04-23T13:37:17.726Z</time>
      </trkpt>
      <trkpt lat="44.2181" lon="3.24142">
        <ele>852.41</ele>
        <time>2026-04-23T13:37:23.086Z</time>
      </trkpt>
      <trkpt lat="44.21803" lon="3.24141">
        <ele>852.51</ele>
        <time>2026-04-23T13:37:28.465Z</time>
      </trkpt>
      <trkpt lat="44.21797" lon="3.2414">
        <ele>852.23</ele>
        <time>2026-04-23T13:37:33.557Z</time>
      </trkpt>
      <trkpt lat="44.21792" lon="3.24136">
        <ele>852.41</ele>
        <time>2026-04-23T13:37:38.567Z</time>
      </trkpt>
      <trkpt lat="44.21786" lon="3.24132">
        <ele>853.93</ele>
        <time>2026-04-23T13:37:43.902Z</time>
      </trkpt>
      <trkpt lat="44.21779" lon="3.2413">
        <ele>854.11</ele>
        <time>2026-04-23T13:37:49.581Z</time>
      </trkpt>
      <trkpt lat="44.21773" lon="3.24132">
        <ele>854.71</ele>
        <time>2026-04-23T13:37:54.595Z</time>
      </trkpt>
      <trkpt lat="44.21767" lon="3.24134">
        <ele>854.07</ele>
        <time>2026-04-23T13:38:00.388Z</time>
      </trkpt>
      <trkpt lat="44.21761" lon="3.24133">
        <ele>853.15</ele>
        <time>2026-04-23T13:38:05.504Z</time>
      </trkpt>
      <trkpt lat="44.21756" lon="3.24131">
        <ele>854.15</ele>
        <time>2026-04-23T13:38:10.601Z</time>
      </trkpt>
      <trkpt lat="44.21749" lon="3.2413">
        <ele>854.24</ele>
        <time>2026-04-23T13:38:15.844Z</time>
      </trkpt>
      <trkpt lat="44.21742" lon="3.2413">
        <ele>854.99</ele>
        <time>2026-04-23T13:38:20.946Z</time>
      </trkpt>
      <trkpt lat="44.21735" lon="3.24129">
        <ele>855.59</ele>
        <time>2026-04-23T13:38:26.326Z</time>
      </trkpt>
      <trkpt lat="44.21729" lon="3.24127">
        <ele>854.98</ele>
        <time>2026-04-23T13:38:31.724Z</time>
      </trkpt>
      <trkpt lat="44.21723" lon="3.24127">
        <ele>855.3</ele>
        <time>2026-04-23T13:38:37.122Z</time>
      </trkpt>
      <trkpt lat="44.21716" lon="3.24123">
        <ele>856.59</ele>
        <time>2026-04-23T13:38:42.660Z</time>
      </trkpt>
      <trkpt lat="44.2171" lon="3.24121">
        <ele>856.81</ele>
        <time>2026-04-23T13:38:48.066Z</time>
      </trkpt>
      <trkpt lat="44.21706" lon="3.2412">
        <ele>857.45</ele>
        <time>2026-04-23T13:38:53.497Z</time>
      </trkpt>
      <trkpt lat="44.21701" lon="3.2412">
        <ele>856.9</ele>
        <time>2026-04-23T13:38:58.512Z</time>
      </trkpt>
      <trkpt lat="44.21696" lon="3.24118">
        <ele>857.04</ele>
        <time>2026-04-23T13:39:04.269Z</time>
      </trkpt>
      <trkpt lat="44.21689" lon="3.24114">
        <ele>857.9</ele>
        <time>2026-04-23T13:39:10.387Z</time>
      </trkpt>
      <trkpt lat="44.21682" lon="3.24108">
        <ele>858.13</ele>
        <time>2026-04-23T13:39:16.289Z</time>
      </trkpt>
      <trkpt lat="44.21676" lon="3.24102">
        <ele>858.9</ele>
        <time>2026-04-23T13:39:21.845Z</time>
      </trkpt>
      <trkpt lat="44.21669" lon="3.24099">
        <ele>858.21</ele>
        <time>2026-04-23T13:39:27.440Z</time>
      </trkpt>
      <trkpt lat="44.21663" lon="3.24097">
        <ele>857.97</ele>
        <time>2026-04-23T13:39:32.840Z</time>
      </trkpt>
      <trkpt lat="44.21658" lon="3.24095">
        <ele>858.34</ele>
        <time>2026-04-23T13:39:38.422Z</time>
      </trkpt>
      <trkpt lat="44.21651" lon="3.24095">
        <ele>859.15</ele>
        <time>2026-04-23T13:39:43.858Z</time>
      </trkpt>
      <trkpt lat="44.21647" lon="3.24093">
        <ele>860.21</ele>
        <time>2026-04-23T13:39:49.466Z</time>
      </trkpt>
      <trkpt lat="44.21645" lon="3.24092">
        <ele>859.61</ele>
        <time>2026-04-23T13:39:54.684Z</time>
      </trkpt>
      <trkpt lat="44.21643" lon="3.24092">
        <ele>859.69</ele>
        <time>2026-04-23T13:40:00.084Z</time>
      </trkpt>
      <trkpt lat="44.21638" lon="3.2409">
        <ele>859.8</ele>
        <time>2026-04-23T13:40:05.161Z</time>
      </trkpt>
      <trkpt lat="44.21628" lon="3.24086">
        <ele>860.12</ele>
        <time>2026-04-23T13:40:10.536Z</time>
      </trkpt>
      <trkpt lat="44.21618" lon="3.24082">
        <ele>861</ele>
        <time>2026-04-23T13:40:16.480Z</time>
      </trkpt>
      <trkpt lat="44.21609" lon="3.24077">
        <ele>860.74</ele>
        <time>2026-04-23T13:40:21.681Z</time>
      </trkpt>
      <trkpt lat="44.21599" lon="3.24071">
        <ele>860.54</ele>
        <time>2026-04-23T13:40:26.946Z</time>
      </trkpt>
      <trkpt lat="44.21593" lon="3.24069">
        <ele>860.7</ele>
        <time>2026-04-23T13:40:32.331Z</time>
      </trkpt>
      <trkpt lat="44.21587" lon="3.2407">
        <ele>861.24</ele>
        <time>2026-04-23T13:40:37.532Z</time>
      </trkpt>
      <trkpt lat="44.21582" lon="3.24072">
        <ele>861.68</ele>
        <time>2026-04-23T13:40:42.547Z</time>
      </trkpt>
      <trkpt lat="44.21578" lon="3.24074">
        <ele>862.09</ele>
        <time>2026-04-23T13:40:47.948Z</time>
      </trkpt>
      <trkpt lat="44.21571" lon="3.24074">
        <ele>862.17</ele>
        <time>2026-04-23T13:40:53.350Z</time>
      </trkpt>
      <trkpt lat="44.21566" lon="3.24075">
        <ele>862.71</ele>
        <time>2026-04-23T13:40:58.553Z</time>
      </trkpt>
      <trkpt lat="44.21561" lon="3.24076">
        <ele>862.69</ele>
        <time>2026-04-23T13:41:03.579Z</time>
      </trkpt>
      <trkpt lat="44.21555" lon="3.24074">
        <ele>862.61</ele>
        <time>2026-04-23T13:41:08.583Z</time>
      </trkpt>
      <trkpt lat="44.21549" lon="3.24075">
        <ele>863.62</ele>
        <time>2026-04-23T13:41:14.558Z</time>
      </trkpt>
      <trkpt lat="44.21543" lon="3.24077">
        <ele>864.11</ele>
        <time>2026-04-23T13:41:19.573Z</time>
      </trkpt>
      <trkpt lat="44.21539" lon="3.24081">
        <ele>864.84</ele>
        <time>2026-04-23T13:41:25.286Z</time>
      </trkpt>
      <trkpt lat="44.21533" lon="3.24085">
        <ele>864.81</ele>
        <time>2026-04-23T13:41:31.387Z</time>
      </trkpt>
      <trkpt lat="44.2153" lon="3.24088">
        <ele>864.86</ele>
        <time>2026-04-23T13:41:36.539Z</time>
      </trkpt>
      <trkpt lat="44.21526" lon="3.2409">
        <ele>866.09</ele>
        <time>2026-04-23T13:41:41.618Z</time>
      </trkpt>
      <trkpt lat="44.2152" lon="3.24094">
        <ele>866.54</ele>
        <time>2026-04-23T13:41:47.462Z</time>
      </trkpt>
      <trkpt lat="44.21513" lon="3.24095">
        <ele>867.45</ele>
        <time>2026-04-23T13:41:52.984Z</time>
      </trkpt>
      <trkpt lat="44.21507" lon="3.24095">
        <ele>868.27</ele>
        <time>2026-04-23T13:41:58.461Z</time>
      </trkpt>
      <trkpt lat="44.21501" lon="3.24095">
        <ele>867.01</ele>
        <time>2026-04-23T13:42:03.948Z</time>
      </trkpt>
      <trkpt lat="44.21495" lon="3.24096">
        <ele>868.38</ele>
        <time>2026-04-23T13:42:09.617Z</time>
      </trkpt>
      <trkpt lat="44.21491" lon="3.24098">
        <ele>869.15</ele>
        <time>2026-04-23T13:42:15.027Z</time>
      </trkpt>
      <trkpt lat="44.21488" lon="3.241">
        <ele>869.31</ele>
        <time>2026-04-23T13:42:20.583Z</time>
      </trkpt>
      <trkpt lat="44.21483" lon="3.24099">
        <ele>871</ele>
        <time>2026-04-23T13:42:26.427Z</time>
      </trkpt>
      <trkpt lat="44.21475" lon="3.24098">
        <ele>870.08</ele>
        <time>2026-04-23T13:42:32.180Z</time>
      </trkpt>
      <trkpt lat="44.21467" lon="3.24096">
        <ele>871.49</ele>
        <time>2026-04-23T13:42:37.845Z</time>
      </trkpt>
      <trkpt lat="44.21461" lon="3.24099">
        <ele>872.34</ele>
        <time>2026-04-23T13:42:43.322Z</time>
      </trkpt>
      <trkpt lat="44.21455" lon="3.24098">
        <ele>872.24</ele>
        <time>2026-04-23T13:42:48.564Z</time>
      </trkpt>
      <trkpt lat="44.21447" lon="3.24095">
        <ele>873.32</ele>
        <time>2026-04-23T13:42:53.579Z</time>
      </trkpt>
      <trkpt lat="44.21441" lon="3.24094">
        <ele>872.52</ele>
        <time>2026-04-23T13:42:58.605Z</time>
      </trkpt>
      <trkpt lat="44.21436" lon="3.24093">
        <ele>872.25</ele>
        <time>2026-04-23T13:43:03.853Z</time>
      </trkpt>
      <trkpt lat="44.21428" lon="3.24092">
        <ele>871.83</ele>
        <time>2026-04-23T13:43:09.221Z</time>
      </trkpt>
      <trkpt lat="44.21422" lon="3.2409">
        <ele>872.04</ele>
        <time>2026-04-23T13:43:14.283Z</time>
      </trkpt>
      <trkpt lat="44.21417" lon="3.24086">
        <ele>873.37</ele>
        <time>2026-04-23T13:43:19.626Z</time>
      </trkpt>
      <trkpt lat="44.21411" lon="3.24082">
        <ele>873.13</ele>
        <time>2026-04-23T13:43:25.407Z</time>
      </trkpt>
      <trkpt lat="44.21405" lon="3.24081">
        <ele>873.56</ele>
        <time>2026-04-23T13:43:30.604Z</time>
      </trkpt>
      <trkpt lat="44.21399" lon="3.24078">
        <ele>873.41</ele>
        <time>2026-04-23T13:43:35.986Z</time>
      </trkpt>
      <trkpt lat="44.21392" lon="3.24076">
        <ele>873.93</ele>
        <time>2026-04-23T13:43:41.595Z</time>
      </trkpt>
      <trkpt lat="44.21387" lon="3.24075">
        <ele>874.45</ele>
        <time>2026-04-23T13:43:46.610Z</time>
      </trkpt>
      <trkpt lat="44.21381" lon="3.24074">
        <ele>874.35</ele>
        <time>2026-04-23T13:43:51.829Z</time>
      </trkpt>
      <trkpt lat="44.21376" lon="3.2407">
        <ele>875.12</ele>
        <time>2026-04-23T13:43:57.168Z</time>
      </trkpt>
      <trkpt lat="44.21371" lon="3.24065">
        <ele>874.35</ele>
        <time>2026-04-23T13:44:02.749Z</time>
      </trkpt>
      <trkpt lat="44.21368" lon="3.24062">
        <ele>876.06</ele>
        <time>2026-04-23T13:44:07.944Z</time>
      </trkpt>
      <trkpt lat="44.21362" lon="3.24055">
        <ele>876.42</ele>
        <time>2026-04-23T13:44:13.165Z</time>
      </trkpt>
      <trkpt lat="44.21356" lon="3.24049">
        <ele>876.18</ele>
        <time>2026-04-23T13:44:18.623Z</time>
      </trkpt>
      <trkpt lat="44.21351" lon="3.24041">
        <ele>876.46</ele>
        <time>2026-04-23T13:44:24.100Z</time>
      </trkpt>
      <trkpt lat="44.21345" lon="3.24037">
        <ele>876.68</ele>
        <time>2026-04-23T13:44:29.610Z</time>
      </trkpt>
      <trkpt lat="44.21339" lon="3.24035">
        <ele>876.85</ele>
        <time>2026-04-23T13:44:35.290Z</time>
      </trkpt>
      <trkpt lat="44.21333" lon="3.24037">
        <ele>876.79</ele>
        <time>2026-04-23T13:44:40.601Z</time>
      </trkpt>
      <trkpt lat="44.21328" lon="3.24035">
        <ele>875.98</ele>
        <time>2026-04-23T13:44:45.616Z</time>
      </trkpt>
      <trkpt lat="44.21323" lon="3.2403">
        <ele>875.86</ele>
        <time>2026-04-23T13:44:51.426Z</time>
      </trkpt>
      <trkpt lat="44.21317" lon="3.24024">
        <ele>876.03</ele>
        <time>2026-04-23T13:44:56.606Z</time>
      </trkpt>
      <trkpt lat="44.2131" lon="3.24017">
        <ele>875.06</ele>
        <time>2026-04-23T13:45:01.944Z</time>
      </trkpt>
      <trkpt lat="44.21305" lon="3.24013">
        <ele>875.37</ele>
        <time>2026-04-23T13:45:07.129Z</time>
      </trkpt>
      <trkpt lat="44.21298" lon="3.24013">
        <ele>875.53</ele>
        <time>2026-04-23T13:45:12.530Z</time>
      </trkpt>
      <trkpt lat="44.21291" lon="3.24016">
        <ele>876.04</ele>
        <time>2026-04-23T13:45:18.306Z</time>
      </trkpt>
      <trkpt lat="44.21284" lon="3.24018">
        <ele>875.88</ele>
        <time>2026-04-23T13:45:24.501Z</time>
      </trkpt>
      <trkpt lat="44.21278" lon="3.24017">
        <ele>877.14</ele>
        <time>2026-04-23T13:45:30.168Z</time>
      </trkpt>
      <trkpt lat="44.21272" lon="3.24014">
        <ele>877.61</ele>
        <time>2026-04-23T13:45:35.625Z</time>
      </trkpt>
      <trkpt lat="44.21267" lon="3.24013">
        <ele>877.54</ele>
        <time>2026-04-23T13:45:41.086Z</time>
      </trkpt>
      <trkpt lat="44.21262" lon="3.24012">
        <ele>877.59</ele>
        <time>2026-04-23T13:45:46.642Z</time>
      </trkpt>
      <trkpt lat="44.21257" lon="3.2401">
        <ele>877.64</ele>
        <time>2026-04-23T13:45:52.187Z</time>
      </trkpt>
      <trkpt lat="44.21252" lon="3.24007">
        <ele>878.82</ele>
        <time>2026-04-23T13:45:57.532Z</time>
      </trkpt>
      <trkpt lat="44.21246" lon="3.24004">
        <ele>878.8</ele>
        <time>2026-04-23T13:46:03.112Z</time>
      </trkpt>
      <trkpt lat="44.2124" lon="3.23999">
        <ele>879.65</ele>
        <time>2026-04-23T13:46:08.588Z</time>
      </trkpt>
      <trkpt lat="44.21233" lon="3.23994">
        <ele>879.85</ele>
        <time>2026-04-23T13:46:14.288Z</time>
      </trkpt>
      <trkpt lat="44.21226" lon="3.23993">
        <ele>879.83</ele>
        <time>2026-04-23T13:46:19.401Z</time>
      </trkpt>
      <trkpt lat="44.21222" lon="3.23992">
        <ele>880.44</ele>
        <time>2026-04-23T13:46:24.527Z</time>
      </trkpt>
      <trkpt lat="44.2122" lon="3.23992">
        <ele>880.75</ele>
        <time>2026-04-23T13:46:29.542Z</time>
      </trkpt>
      <trkpt lat="44.21218" lon="3.23994">
        <ele>881.39</ele>
        <time>2026-04-23T13:46:34.747Z</time>
      </trkpt>
      <trkpt lat="44.21213" lon="3.23994">
        <ele>881.79</ele>
        <time>2026-04-23T13:46:39.808Z</time>
      </trkpt>
      <trkpt lat="44.21207" lon="3.23994">
        <ele>882.35</ele>
        <time>2026-04-23T13:46:44.902Z</time>
      </trkpt>
      <trkpt lat="44.212" lon="3.23992">
        <ele>882.31</ele>
        <time>2026-04-23T13:46:50.562Z</time>
      </trkpt>
      <trkpt lat="44.21196" lon="3.23993">
        <ele>882.83</ele>
        <time>2026-04-23T13:46:56.060Z</time>
      </trkpt>
      <trkpt lat="44.21194" lon="3.23992">
        <ele>883.44</ele>
        <time>2026-04-23T13:47:01.083Z</time>
      </trkpt>
      <trkpt lat="44.21189" lon="3.23989">
        <ele>883.61</ele>
        <time>2026-04-23T13:47:06.430Z</time>
      </trkpt>
      <trkpt lat="44.2118" lon="3.23986">
        <ele>884</ele>
        <time>2026-04-23T13:47:11.969Z</time>
      </trkpt>
      <trkpt lat="44.21172" lon="3.23983">
        <ele>884.1</ele>
        <time>2026-04-23T13:47:17.586Z</time>
      </trkpt>
      <trkpt lat="44.21164" lon="3.23983">
        <ele>884.39</ele>
        <time>2026-04-23T13:47:23.009Z</time>
      </trkpt>
      <trkpt lat="44.21158" lon="3.23984">
        <ele>884.58</ele>
        <time>2026-04-23T13:47:28.044Z</time>
      </trkpt>
      <trkpt lat="44.21151" lon="3.23985">
        <ele>884.36</ele>
        <time>2026-04-23T13:47:33.626Z</time>
      </trkpt>
      <trkpt lat="44.21144" lon="3.2399">
        <ele>884.29</ele>
        <time>2026-04-23T13:47:39.029Z</time>
      </trkpt>
      <trkpt lat="44.21139" lon="3.23995">
        <ele>884.77</ele>
        <time>2026-04-23T13:47:44.502Z</time>
      </trkpt>
      <trkpt lat="44.21134" lon="3.23999">
        <ele>884.89</ele>
        <time>2026-04-23T13:47:50.527Z</time>
      </trkpt>
      <trkpt lat="44.21128" lon="3.24">
        <ele>885.22</ele>
        <time>2026-04-23T13:47:55.606Z</time>
      </trkpt>
      <trkpt lat="44.21124" lon="3.23999">
        <ele>886.32</ele>
        <time>2026-04-23T13:48:00.620Z</time>
      </trkpt>
      <trkpt lat="44.21119" lon="3.23998">
        <ele>886.46</ele>
        <time>2026-04-23T13:48:06.532Z</time>
      </trkpt>
      <trkpt lat="44.21112" lon="3.23998">
        <ele>887.14</ele>
        <time>2026-04-23T13:48:11.819Z</time>
      </trkpt>
      <trkpt lat="44.21106" lon="3.23995">
        <ele>887.7</ele>
        <time>2026-04-23T13:48:17.081Z</time>
      </trkpt>
      <trkpt lat="44.21101" lon="3.23993">
        <ele>888.77</ele>
        <time>2026-04-23T13:48:22.326Z</time>
      </trkpt>
      <trkpt lat="44.21095" lon="3.23992">
        <ele>889.27</ele>
        <time>2026-04-23T13:48:27.483Z</time>
      </trkpt>
      <trkpt lat="44.21091" lon="3.23992">
        <ele>889.57</ele>
        <time>2026-04-23T13:48:32.623Z</time>
      </trkpt>
      <trkpt lat="44.21084" lon="3.23992">
        <ele>889.94</ele>
        <time>2026-04-23T13:48:38.067Z</time>
      </trkpt>
      <trkpt lat="44.21078" lon="3.23987">
        <ele>890.58</ele>
        <time>2026-04-23T13:48:43.506Z</time>
      </trkpt>
      <trkpt lat="44.21077" lon="3.23984">
        <ele>891.41</ele>
        <time>2026-04-23T13:48:48.571Z</time>
      </trkpt>
      <trkpt lat="44.21074" lon="3.23981">
        <ele>892.65</ele>
        <time>2026-04-23T13:48:54.203Z</time>
      </trkpt>
      <trkpt lat="44.21066" lon="3.23975">
        <ele>893.11</ele>
        <time>2026-04-23T13:48:59.560Z</time>
      </trkpt>
      <trkpt lat="44.21058" lon="3.23972">
        <ele>893.13</ele>
        <time>2026-04-23T13:49:05.263Z</time>
      </trkpt>
      <trkpt lat="44.21051" lon="3.23972">
        <ele>893.47</ele>
        <time>2026-04-23T13:49:10.501Z</time>
      </trkpt>
      <trkpt lat="44.21045" lon="3.23972">
        <ele>893.24</ele>
        <time>2026-04-23T13:49:15.908Z</time>
      </trkpt>
      <trkpt lat="44.21039" lon="3.23973">
        <ele>893.72</ele>
        <time>2026-04-23T13:49:21.446Z</time>
      </trkpt>
      <trkpt lat="44.21035" lon="3.23973">
        <ele>893.94</ele>
        <time>2026-04-23T13:49:26.555Z</time>
      </trkpt>
      <trkpt lat="44.2103" lon="3.23973">
        <ele>894.33</ele>
        <time>2026-04-23T13:49:32.129Z</time>
      </trkpt>
      <trkpt lat="44.21025" lon="3.23973">
        <ele>894.76</ele>
        <time>2026-04-23T13:49:37.545Z</time>
      </trkpt>
      <trkpt lat="44.21019" lon="3.23974">
        <ele>894.94</ele>
        <time>2026-04-23T13:49:42.559Z</time>
      </trkpt>
      <trkpt lat="44.21012" lon="3.23973">
        <ele>895.21</ele>
        <time>2026-04-23T13:49:48.246Z</time>
      </trkpt>
      <trkpt lat="44.21005" lon="3.23972">
        <ele>895.49</ele>
        <time>2026-04-23T13:49:53.549Z</time>
      </trkpt>
      <trkpt lat="44.20999" lon="3.23973">
        <ele>895</ele>
        <time>2026-04-23T13:49:58.563Z</time>
      </trkpt>
      <trkpt lat="44.20992" lon="3.23972">
        <ele>894.77</ele>
        <time>2026-04-23T13:50:03.579Z</time>
      </trkpt>
      <trkpt lat="44.20985" lon="3.23972">
        <ele>894.97</ele>
        <time>2026-04-23T13:50:08.593Z</time>
      </trkpt>
      <trkpt lat="44.20977" lon="3.23969">
        <ele>895.14</ele>
        <time>2026-04-23T13:50:14.642Z</time>
      </trkpt>
      <trkpt lat="44.20972" lon="3.23968">
        <ele>895.34</ele>
        <time>2026-04-23T13:50:19.907Z</time>
      </trkpt>
      <trkpt lat="44.20966" lon="3.23969">
        <ele>895.26</ele>
        <time>2026-04-23T13:50:25.347Z</time>
      </trkpt>
      <trkpt lat="44.20961" lon="3.23968">
        <ele>895.34</ele>
        <time>2026-04-23T13:50:30.573Z</time>
      </trkpt>
      <trkpt lat="44.20955" lon="3.23966">
        <ele>895.22</ele>
        <time>2026-04-23T13:50:35.587Z</time>
      </trkpt>
      <trkpt lat="44.2095" lon="3.23965">
        <ele>894.7</ele>
        <time>2026-04-23T13:50:40.589Z</time>
      </trkpt>
      <trkpt lat="44.20942" lon="3.23964">
        <ele>894.65</ele>
        <time>2026-04-23T13:50:46.341Z</time>
      </trkpt>
      <trkpt lat="44.20935" lon="3.23963">
        <ele>894.44</ele>
        <time>2026-04-23T13:50:51.592Z</time>
      </trkpt>
      <trkpt lat="44.20929" lon="3.23962">
        <ele>893.9</ele>
        <time>2026-04-23T13:50:56.606Z</time>
      </trkpt>
      <trkpt lat="44.20923" lon="3.2396">
        <ele>892.88</ele>
        <time>2026-04-23T13:51:02.043Z</time>
      </trkpt>
      <trkpt lat="44.20917" lon="3.23961">
        <ele>892.78</ele>
        <time>2026-04-23T13:51:07.279Z</time>
      </trkpt>
      <trkpt lat="44.2091" lon="3.23962">
        <ele>891.9</ele>
        <time>2026-04-23T13:51:12.611Z</time>
      </trkpt>
      <trkpt lat="44.20905" lon="3.23963">
        <ele>891.96</ele>
        <time>2026-04-23T13:51:17.971Z</time>
      </trkpt>
      <trkpt lat="44.209" lon="3.23963">
        <ele>891.55</ele>
        <time>2026-04-23T13:51:23.124Z</time>
      </trkpt>
      <trkpt lat="44.20895" lon="3.2396">
        <ele>890.98</ele>
        <time>2026-04-23T13:51:28.507Z</time>
      </trkpt>
      <trkpt lat="44.20888" lon="3.2396">
        <ele>891.21</ele>
        <time>2026-04-23T13:51:33.545Z</time>
      </trkpt>
      <trkpt lat="44.20879" lon="3.23962">
        <ele>891.17</ele>
        <time>2026-04-23T13:51:39.259Z</time>
      </trkpt>
      <trkpt lat="44.20872" lon="3.23962">
        <ele>890.45</ele>
        <time>2026-04-23T13:51:44.283Z</time>
      </trkpt>
      <trkpt lat="44.20866" lon="3.2396">
        <ele>890.77</ele>
        <time>2026-04-23T13:51:49.527Z</time>
      </trkpt>
      <trkpt lat="44.20859" lon="3.23957">
        <ele>890.89</ele>
        <time>2026-04-23T13:51:55.301Z</time>
      </trkpt>
      <trkpt lat="44.20856" lon="3.23955">
        <ele>890.44</ele>
        <time>2026-04-23T13:52:00.623Z</time>
      </trkpt>
      <trkpt lat="44.20851" lon="3.23953">
        <ele>890.4</ele>
        <time>2026-04-23T13:52:06.041Z</time>
      </trkpt>
      <trkpt lat="44.20846" lon="3.23952">
        <ele>889.77</ele>
        <time>2026-04-23T13:52:11.385Z</time>
      </trkpt>
      <trkpt lat="44.20839" lon="3.23952">
        <ele>890.19</ele>
        <time>2026-04-23T13:52:16.627Z</time>
      </trkpt>
      <trkpt lat="44.20832" lon="3.23948">
        <ele>888.79</ele>
        <time>2026-04-23T13:52:22.003Z</time>
      </trkpt>
      <trkpt lat="44.20826" lon="3.23944">
        <ele>887.83</ele>
        <time>2026-04-23T13:52:27.328Z</time>
      </trkpt>
      <trkpt lat="44.20819" lon="3.23938">
        <ele>887.68</ele>
        <time>2026-04-23T13:52:32.903Z</time>
      </trkpt>
      <trkpt lat="44.20817" lon="3.23933">
        <ele>887.08</ele>
        <time>2026-04-23T13:52:38.645Z</time>
      </trkpt>
      <trkpt lat="44.20816" lon="3.2393">
        <ele>886.76</ele>
        <time>2026-04-23T13:52:44.441Z</time>
      </trkpt>
      <trkpt lat="44.20814" lon="3.23921">
        <ele>887.06</ele>
        <time>2026-04-23T13:52:49.596Z</time>
      </trkpt>
      <trkpt lat="44.20809" lon="3.23909">
        <ele>885.38</ele>
        <time>2026-04-23T13:52:54.610Z</time>
      </trkpt>
      <trkpt lat="44.20805" lon="3.23899">
        <ele>884.77</ele>
        <time>2026-04-23T13:53:00.526Z</time>
      </trkpt>
      <trkpt lat="44.20801" lon="3.23889">
        <ele>883.92</ele>
        <time>2026-04-23T13:53:06.305Z</time>
      </trkpt>
      <trkpt lat="44.20796" lon="3.23882">
        <ele>883.53</ele>
        <time>2026-04-23T13:53:12.085Z</time>
      </trkpt>
      <trkpt lat="44.2079" lon="3.23878">
        <ele>882.57</ele>
        <time>2026-04-23T13:53:17.550Z</time>
      </trkpt>
      <trkpt lat="44.20785" lon="3.23873">
        <ele>881.77</ele>
        <time>2026-04-23T13:53:23.404Z</time>
      </trkpt>
      <trkpt lat="44.20783" lon="3.23867">
        <ele>880.85</ele>
        <time>2026-04-23T13:53:28.539Z</time>
      </trkpt>
      <trkpt lat="44.20778" lon="3.2386">
        <ele>880.62</ele>
        <time>2026-04-23T13:53:33.565Z</time>
      </trkpt>
      <trkpt lat="44.20773" lon="3.23853">
        <ele>879.9</ele>
        <time>2026-04-23T13:53:38.568Z</time>
      </trkpt>
      <trkpt lat="44.20769" lon="3.23846">
        <ele>879.38</ele>
        <time>2026-04-23T13:53:43.587Z</time>
      </trkpt>
      <trkpt lat="44.20765" lon="3.23837">
        <ele>878.28</ele>
        <time>2026-04-23T13:53:48.597Z</time>
      </trkpt>
      <trkpt lat="44.20762" lon="3.23829">
        <ele>877.57</ele>
        <time>2026-04-23T13:53:54.601Z</time>
      </trkpt>
      <trkpt lat="44.20758" lon="3.23821">
        <ele>876.73</ele>
        <time>2026-04-23T13:54:00.285Z</time>
      </trkpt>
      <trkpt lat="44.20751" lon="3.23819">
        <ele>876.68</ele>
        <time>2026-04-23T13:54:05.561Z</time>
      </trkpt>
      <trkpt lat="44.20746" lon="3.23817">
        <ele>876.56</ele>
        <time>2026-04-23T13:54:10.723Z</time>
      </trkpt>
      <trkpt lat="44.20742" lon="3.23819">
        <ele>876.71</ele>
        <time>2026-04-23T13:54:16.005Z</time>
      </trkpt>
      <trkpt lat="44.20737" lon="3.2382">
        <ele>878.16</ele>
        <time>2026-04-23T13:54:21.673Z</time>
      </trkpt>
      <trkpt lat="44.20732" lon="3.2382">
        <ele>875.17</ele>
        <time>2026-04-23T13:54:27.571Z</time>
      </trkpt>
      <trkpt lat="44.20724" lon="3.23824">
        <ele>874.88</ele>
        <time>2026-04-23T13:54:33.225Z</time>
      </trkpt>
      <trkpt lat="44.20716" lon="3.23827">
        <ele>873.73</ele>
        <time>2026-04-23T13:54:38.961Z</time>
      </trkpt>
      <trkpt lat="44.20711" lon="3.23829">
        <ele>873.59</ele>
        <time>2026-04-23T13:54:44.612Z</time>
      </trkpt>
      <trkpt lat="44.20708" lon="3.23828">
        <ele>872.23</ele>
        <time>2026-04-23T13:54:49.764Z</time>
      </trkpt>
      <trkpt lat="44.20707" lon="3.23826">
        <ele>871.53</ele>
        <time>2026-04-23T13:54:55.109Z</time>
      </trkpt>
      <trkpt lat="44.20704" lon="3.23824">
        <ele>871.78</ele>
        <time>2026-04-23T13:55:00.616Z</time>
      </trkpt>
      <trkpt lat="44.20694" lon="3.23818">
        <ele>871.67</ele>
        <time>2026-04-23T13:55:06.523Z</time>
      </trkpt>
      <trkpt lat="44.20687" lon="3.23813">
        <ele>871.09</ele>
        <time>2026-04-23T13:55:11.605Z</time>
      </trkpt>
      <trkpt lat="44.20681" lon="3.23807">
        <ele>870.35</ele>
        <time>2026-04-23T13:55:16.813Z</time>
      </trkpt>
      <trkpt lat="44.20674" lon="3.2381">
        <ele>869.51</ele>
        <time>2026-04-23T13:55:22.447Z</time>
      </trkpt>
      <trkpt lat="44.20671" lon="3.23811">
        <ele>868.92</ele>
        <time>2026-04-23T13:55:27.833Z</time>
      </trkpt>
      <trkpt lat="44.20669" lon="3.23811">
        <ele>868.68</ele>
        <time>2026-04-23T13:55:33.204Z</time>
      </trkpt>
      <trkpt lat="44.20667" lon="3.23811">
        <ele>867.81</ele>
        <time>2026-04-23T13:55:38.468Z</time>
      </trkpt>
      <trkpt lat="44.20656" lon="3.23809">
        <ele>867.09</ele>
        <time>2026-04-23T13:55:43.612Z</time>
      </trkpt>
      <trkpt lat="44.20648" lon="3.23807">
        <ele>865.45</ele>
        <time>2026-04-23T13:55:48.889Z</time>
      </trkpt>
      <trkpt lat="44.20645" lon="3.23804">
        <ele>864.79</ele>
        <time>2026-04-23T13:55:54.561Z</time>
      </trkpt>
      <trkpt lat="44.20644" lon="3.23804">
        <ele>864.5</ele>
        <time>2026-04-23T13:55:59.817Z</time>
      </trkpt>
      <trkpt lat="44.2064" lon="3.23798">
        <ele>864.22</ele>
        <time>2026-04-23T13:56:05.105Z</time>
      </trkpt>
      <trkpt lat="44.20631" lon="3.23794">
        <ele>862.77</ele>
        <time>2026-04-23T13:56:10.606Z</time>
      </trkpt>
      <trkpt lat="44.20619" lon="3.23788">
        <ele>861.31</ele>
        <time>2026-04-23T13:56:16.567Z</time>
      </trkpt>
      <trkpt lat="44.20615" lon="3.23787">
        <ele>860.47</ele>
        <time>2026-04-23T13:56:21.595Z</time>
      </trkpt>
      <trkpt lat="44.20613" lon="3.23785">
        <ele>859.79</ele>
        <time>2026-04-23T13:56:26.610Z</time>
      </trkpt>
      <trkpt lat="44.20611" lon="3.23784">
        <ele>859.39</ele>
        <time>2026-04-23T13:56:32.585Z</time>
      </trkpt>
      <trkpt lat="44.20605" lon="3.23782">
        <ele>858.69</ele>
        <time>2026-04-23T13:56:37.690Z</time>
      </trkpt>
      <trkpt lat="44.206" lon="3.2378">
        <ele>857.59</ele>
        <time>2026-04-23T13:56:43.045Z</time>
      </trkpt>
      <trkpt lat="44.20594" lon="3.23781">
        <ele>855.61</ele>
        <time>2026-04-23T13:56:48.589Z</time>
      </trkpt>
      <trkpt lat="44.20587" lon="3.23781">
        <ele>854.66</ele>
        <time>2026-04-23T13:56:53.603Z</time>
      </trkpt>
      <trkpt lat="44.20581" lon="3.2378">
        <ele>854.07</ele>
        <time>2026-04-23T13:56:58.618Z</time>
      </trkpt>
      <trkpt lat="44.20578" lon="3.23779">
        <ele>853.53</ele>
        <time>2026-04-23T13:57:03.625Z</time>
      </trkpt>
      <trkpt lat="44.20572" lon="3.23776">
        <ele>851.87</ele>
        <time>2026-04-23T13:57:09.042Z</time>
      </trkpt>
      <trkpt lat="44.20566" lon="3.23772">
        <ele>851.61</ele>
        <time>2026-04-23T13:57:14.385Z</time>
      </trkpt>
      <trkpt lat="44.2056" lon="3.23765">
        <ele>850.09</ele>
        <time>2026-04-23T13:57:19.605Z</time>
      </trkpt>
      <trkpt lat="44.20555" lon="3.23763">
        <ele>848.74</ele>
        <time>2026-04-23T13:57:25.611Z</time>
      </trkpt>
      <trkpt lat="44.20549" lon="3.23759">
        <ele>848.41</ele>
        <time>2026-04-23T13:57:30.851Z</time>
      </trkpt>
      <trkpt lat="44.20545" lon="3.23754">
        <ele>848.06</ele>
        <time>2026-04-23T13:57:36.420Z</time>
      </trkpt>
      <trkpt lat="44.2054" lon="3.23748">
        <ele>848.26</ele>
        <time>2026-04-23T13:57:41.507Z</time>
      </trkpt>
      <trkpt lat="44.20534" lon="3.23746">
        <ele>847.35</ele>
        <time>2026-04-23T13:57:46.842Z</time>
      </trkpt>
      <trkpt lat="44.20526" lon="3.23746">
        <ele>847.58</ele>
        <time>2026-04-23T13:57:51.923Z</time>
      </trkpt>
      <trkpt lat="44.20523" lon="3.23751">
        <ele>847.26</ele>
        <time>2026-04-23T13:57:57.364Z</time>
      </trkpt>
      <trkpt lat="44.20524" lon="3.23749">
        <ele>846.81</ele>
        <time>2026-04-23T13:58:02.633Z</time>
      </trkpt>
      <trkpt lat="44.20524" lon="3.23751">
        <ele>846.04</ele>
        <time>2026-04-23T13:58:19.597Z</time>
      </trkpt>
      <trkpt lat="44.20524" lon="3.23752">
        <ele>845.97</ele>
        <time>2026-04-23T13:58:32.614Z</time>
      </trkpt>
      <trkpt lat="44.20524" lon="3.23753">
        <ele>845.84</ele>
        <time>2026-04-23T13:58:46.589Z</time>
      </trkpt>
      <trkpt lat="44.20523" lon="3.23754">
        <ele>846.2</ele>
        <time>2026-04-23T13:58:57.580Z</time>
      </trkpt>
      <trkpt lat="44.20522" lon="3.23753">
        <ele>846.42</ele>
        <time>2026-04-23T13:59:04.621Z</time>
      </trkpt>
      <trkpt lat="44.20521" lon="3.23752">
        <ele>845.89</ele>
        <time>2026-04-23T13:59:10.596Z</time>
      </trkpt>
      <trkpt lat="44.20521" lon="3.23751">
        <ele>846.56</ele>
        <time>2026-04-23T13:59:20.625Z</time>
      </trkpt>
      <trkpt lat="44.20521" lon="3.2375">
        <ele>846.34</ele>
        <time>2026-04-23T13:59:32.575Z</time>
      </trkpt>
      <trkpt lat="44.20522" lon="3.23749">
        <ele>846.27</ele>
        <time>2026-04-23T13:59:40.577Z</time>
      </trkpt>
      <trkpt lat="44.20523" lon="3.23749">
        <ele>846.73</ele>
        <time>2026-04-23T13:59:47.618Z</time>
      </trkpt>
      <trkpt lat="44.20523" lon="3.2375">
        <ele>846.47</ele>
        <time>2026-04-23T13:59:53.593Z</time>
      </trkpt>
      <trkpt lat="44.20524" lon="3.2375">
        <ele>846.09</ele>
        <time>2026-04-23T14:00:05.543Z</time>
      </trkpt>
      <trkpt lat="44.20523" lon="3.2375">
        <ele>846.42</ele>
        <time>2026-04-23T14:00:54.621Z</time>
      </trkpt>
      <trkpt lat="44.20522" lon="3.2375">
        <ele>845.91</ele>
        <time>2026-04-23T14:01:04.543Z</time>
      </trkpt>
      <trkpt lat="44.20521" lon="3.23751">
        <ele>845.23</ele>
        <time>2026-04-23T14:01:40.545Z</time>
      </trkpt>
      <trkpt lat="44.2052" lon="3.2375">
        <ele>845.77</ele>
        <time>2026-04-23T14:02:01.623Z</time>
      </trkpt>
      <trkpt lat="44.20519" lon="3.2375">
        <ele>846.25</ele>
        <time>2026-04-23T14:02:14.640Z</time>
      </trkpt>
      <trkpt lat="44.20519" lon="3.23751">
        <ele>846.08</ele>
        <time>2026-04-23T14:02:26.589Z</time>
      </trkpt>
      <trkpt lat="44.20519" lon="3.23752">
        <ele>846.45</ele>
        <time>2026-04-23T14:02:47.607Z</time>
      </trkpt>
      <trkpt lat="44.2052" lon="3.23752">
        <ele>846.13</ele>
        <time>2026-04-23T14:02:55.609Z</time>
      </trkpt>
      <trkpt lat="44.20521" lon="3.23752">
        <ele>845.71</ele>
        <time>2026-04-23T14:03:02.651Z</time>
      </trkpt>
      <trkpt lat="44.20522" lon="3.23753">
        <ele>846.08</ele>
        <time>2026-04-23T14:03:17.588Z</time>
      </trkpt>
      <trkpt lat="44.20521" lon="3.23753">
        <ele>845.13</ele>
        <time>2026-04-23T14:03:28.961Z</time>
      </trkpt>
      <trkpt lat="44.20515" lon="3.23752">
        <ele>845.22</ele>
        <time>2026-04-23T14:03:34.083Z</time>
      </trkpt>
      <trkpt lat="44.2051" lon="3.23751">
        <ele>846.05</ele>
        <time>2026-04-23T14:03:39.566Z</time>
      </trkpt>
      <trkpt lat="44.20502" lon="3.2375">
        <ele>846.47</ele>
        <time>2026-04-23T14:03:44.580Z</time>
      </trkpt>
      <trkpt lat="44.20494" lon="3.2375">
        <ele>846.57</ele>
        <time>2026-04-23T14:03:50.585Z</time>
      </trkpt>
      <trkpt lat="44.20486" lon="3.23751">
        <ele>846.47</ele>
        <time>2026-04-23T14:03:56.524Z</time>
      </trkpt>
      <trkpt lat="44.2048" lon="3.23755">
        <ele>845.44</ele>
        <time>2026-04-23T14:04:01.544Z</time>
      </trkpt>
      <trkpt lat="44.20475" lon="3.23758">
        <ele>844.56</ele>
        <time>2026-04-23T14:04:06.666Z</time>
      </trkpt>
      <trkpt lat="44.2047" lon="3.23767">
        <ele>844.09</ele>
        <time>2026-04-23T14:04:12.561Z</time>
      </trkpt>
      <trkpt lat="44.20468" lon="3.23773">
        <ele>842.45</ele>
        <time>2026-04-23T14:04:18.615Z</time>
      </trkpt>
      <trkpt lat="44.20466" lon="3.23774">
        <ele>842.37</ele>
        <time>2026-04-23T14:04:23.712Z</time>
      </trkpt>
      <trkpt lat="44.20461" lon="3.23777">
        <ele>841.27</ele>
        <time>2026-04-23T14:04:28.995Z</time>
      </trkpt>
      <trkpt lat="44.20457" lon="3.2378">
        <ele>840.21</ele>
        <time>2026-04-23T14:04:34.089Z</time>
      </trkpt>
      <trkpt lat="44.20456" lon="3.23782">
        <ele>839.14</ele>
        <time>2026-04-23T14:04:39.592Z</time>
      </trkpt>
      <trkpt lat="44.20455" lon="3.23784">
        <ele>839.17</ele>
        <time>2026-04-23T14:04:44.647Z</time>
      </trkpt>
      <trkpt lat="44.20455" lon="3.23787">
        <ele>838.81</ele>
        <time>2026-04-23T14:04:49.662Z</time>
      </trkpt>
      <trkpt lat="44.20453" lon="3.23789">
        <ele>838.24</ele>
        <time>2026-04-23T14:04:55.637Z</time>
      </trkpt>
      <trkpt lat="44.20452" lon="3.2379">
        <ele>838.1</ele>
        <time>2026-04-23T14:05:01.611Z</time>
      </trkpt>
      <trkpt lat="44.20451" lon="3.2379">
        <ele>838.4</ele>
        <time>2026-04-23T14:05:09.590Z</time>
      </trkpt>
      <trkpt lat="44.2045" lon="3.23791">
        <ele>839.52</ele>
        <time>2026-04-23T14:05:15.588Z</time>
      </trkpt>
      <trkpt lat="44.20448" lon="3.23791">
        <ele>839.05</ele>
        <time>2026-04-23T14:05:21.589Z</time>
      </trkpt>
      <trkpt lat="44.20447" lon="3.23791">
        <ele>838.75</ele>
        <time>2026-04-23T14:05:26.604Z</time>
      </trkpt>
      <trkpt lat="44.20445" lon="3.2379">
        <ele>839.08</ele>
        <time>2026-04-23T14:05:31.618Z</time>
      </trkpt>
      <trkpt lat="44.20444" lon="3.2379">
        <ele>840.56</ele>
        <time>2026-04-23T14:05:38.553Z</time>
      </trkpt>
      <trkpt lat="44.20445" lon="3.2379">
        <ele>839.78</ele>
        <time>2026-04-23T14:06:01.600Z</time>
      </trkpt>
      <trkpt lat="44.20445" lon="3.23793">
        <ele>839.98</ele>
        <time>2026-04-23T14:06:07.575Z</time>
      </trkpt>
      <trkpt lat="44.20445" lon="3.23799">
        <ele>838.94</ele>
        <time>2026-04-23T14:06:12.589Z</time>
      </trkpt>
      <trkpt lat="44.20446" lon="3.23809">
        <ele>838.65</ele>
        <time>2026-04-23T14:06:17.604Z</time>
      </trkpt>
      <trkpt lat="44.20446" lon="3.23816">
        <ele>837.78</ele>
        <time>2026-04-23T14:06:22.618Z</time>
      </trkpt>
      <trkpt lat="44.20445" lon="3.23818">
        <ele>837.71</ele>
        <time>2026-04-23T14:06:27.633Z</time>
      </trkpt>
      <trkpt lat="44.20444" lon="3.23817">
        <ele>837.46</ele>
        <time>2026-04-23T14:06:33.608Z</time>
      </trkpt>
      <trkpt lat="44.20443" lon="3.23818">
        <ele>837.87</ele>
        <time>2026-04-23T14:06:43.982Z</time>
      </trkpt>
      <trkpt lat="44.20441" lon="3.23827">
        <ele>837.2</ele>
        <time>2026-04-23T14:06:49.406Z</time>
      </trkpt>
      <trkpt lat="44.20433" lon="3.23831">
        <ele>837.28</ele>
        <time>2026-04-23T14:06:55.003Z</time>
      </trkpt>
      <trkpt lat="44.2043" lon="3.23837">
        <ele>836.27</ele>
        <time>2026-04-23T14:07:00.365Z</time>
      </trkpt>
      <trkpt lat="44.20428" lon="3.23844">
        <ele>835.07</ele>
        <time>2026-04-23T14:07:06.420Z</time>
      </trkpt>
      <trkpt lat="44.20427" lon="3.2385">
        <ele>834.38</ele>
        <time>2026-04-23T14:07:11.591Z</time>
      </trkpt>
      <trkpt lat="44.20424" lon="3.23857">
        <ele>833.89</ele>
        <time>2026-04-23T14:07:16.605Z</time>
      </trkpt>
      <trkpt lat="44.20423" lon="3.23865">
        <ele>832.71</ele>
        <time>2026-04-23T14:07:21.620Z</time>
      </trkpt>
      <trkpt lat="44.2042" lon="3.23872">
        <ele>832.01</ele>
        <time>2026-04-23T14:07:26.635Z</time>
      </trkpt>
      <trkpt lat="44.20414" lon="3.23877">
        <ele>831.65</ele>
        <time>2026-04-23T14:07:32.462Z</time>
      </trkpt>
      <trkpt lat="44.2041" lon="3.23881">
        <ele>830.97</ele>
        <time>2026-04-23T14:07:37.644Z</time>
      </trkpt>
      <trkpt lat="44.20408" lon="3.23889">
        <ele>829.65</ele>
        <time>2026-04-23T14:07:43.124Z</time>
      </trkpt>
      <trkpt lat="44.20403" lon="3.23896">
        <ele>829.31</ele>
        <time>2026-04-23T14:07:48.182Z</time>
      </trkpt>
      <trkpt lat="44.20395" lon="3.23897">
        <ele>828.68</ele>
        <time>2026-04-23T14:07:53.383Z</time>
      </trkpt>
      <trkpt lat="44.20386" lon="3.23896">
        <ele>827.8</ele>
        <time>2026-04-23T14:07:59.037Z</time>
      </trkpt>
      <trkpt lat="44.20382" lon="3.23898">
        <ele>827.61</ele>
        <time>2026-04-23T14:08:04.617Z</time>
      </trkpt>
      <trkpt lat="44.20381" lon="3.23896">
        <ele>826.24</ele>
        <time>2026-04-23T14:08:09.838Z</time>
      </trkpt>
      <trkpt lat="44.20375" lon="3.23904">
        <ele>826.15</ele>
        <time>2026-04-23T14:08:15.205Z</time>
      </trkpt>
      <trkpt lat="44.2037" lon="3.23911">
        <ele>825.54</ele>
        <time>2026-04-23T14:08:20.341Z</time>
      </trkpt>
      <trkpt lat="44.20364" lon="3.23917">
        <ele>824.71</ele>
        <time>2026-04-23T14:08:25.399Z</time>
      </trkpt>
      <trkpt lat="44.20363" lon="3.23916">
        <ele>823.51</ele>
        <time>2026-04-23T14:08:30.650Z</time>
      </trkpt>
      <trkpt lat="44.2036" lon="3.23926">
        <ele>823.61</ele>
        <time>2026-04-23T14:08:36.505Z</time>
      </trkpt>
      <trkpt lat="44.20354" lon="3.23936">
        <ele>823.46</ele>
        <time>2026-04-23T14:08:42.078Z</time>
      </trkpt>
      <trkpt lat="44.20347" lon="3.23941">
        <ele>823.36</ele>
        <time>2026-04-23T14:08:47.678Z</time>
      </trkpt>
      <trkpt lat="44.20342" lon="3.23946">
        <ele>822.32</ele>
        <time>2026-04-23T14:08:52.979Z</time>
      </trkpt>
      <trkpt lat="44.20337" lon="3.23953">
        <ele>822.32</ele>
        <time>2026-04-23T14:08:58.023Z</time>
      </trkpt>
      <trkpt lat="44.2033" lon="3.23956">
        <ele>822.23</ele>
        <time>2026-04-23T14:09:03.463Z</time>
      </trkpt>
      <trkpt lat="44.20323" lon="3.23958">
        <ele>821.81</ele>
        <time>2026-04-23T14:09:09.018Z</time>
      </trkpt>
      <trkpt lat="44.20317" lon="3.23961">
        <ele>822.06</ele>
        <time>2026-04-23T14:09:14.282Z</time>
      </trkpt>
      <trkpt lat="44.20313" lon="3.2397">
        <ele>821.56</ele>
        <time>2026-04-23T14:09:19.741Z</time>
      </trkpt>
      <trkpt lat="44.2031" lon="3.23983">
        <ele>821.67</ele>
        <time>2026-04-23T14:09:25.324Z</time>
      </trkpt>
      <trkpt lat="44.20308" lon="3.23993">
        <ele>822.28</ele>
        <time>2026-04-23T14:09:30.538Z</time>
      </trkpt>
      <trkpt lat="44.20305" lon="3.24002">
        <ele>822.79</ele>
        <time>2026-04-23T14:09:35.940Z</time>
      </trkpt>
      <trkpt lat="44.20302" lon="3.24012">
        <ele>822.93</ele>
        <time>2026-04-23T14:09:41.125Z</time>
      </trkpt>
      <trkpt lat="44.20301" lon="3.24021">
        <ele>822.77</ele>
        <time>2026-04-23T14:09:46.360Z</time>
      </trkpt>
      <trkpt lat="44.20295" lon="3.24032">
        <ele>822.64</ele>
        <time>2026-04-23T14:09:51.629Z</time>
      </trkpt>
      <trkpt lat="44.20293" lon="3.24045">
        <ele>822.63</ele>
        <time>2026-04-23T14:09:57.118Z</time>
      </trkpt>
      <trkpt lat="44.20291" lon="3.24056">
        <ele>823.14</ele>
        <time>2026-04-23T14:10:02.302Z</time>
      </trkpt>
      <trkpt lat="44.20286" lon="3.24067">
        <ele>822.53</ele>
        <time>2026-04-23T14:10:07.522Z</time>
      </trkpt>
      <trkpt lat="44.20279" lon="3.24077">
        <ele>822.53</ele>
        <time>2026-04-23T14:10:12.641Z</time>
      </trkpt>
      <trkpt lat="44.20274" lon="3.24084">
        <ele>822.15</ele>
        <time>2026-04-23T14:10:17.922Z</time>
      </trkpt>
      <trkpt lat="44.20269" lon="3.2409">
        <ele>821.66</ele>
        <time>2026-04-23T14:10:23.302Z</time>
      </trkpt>
      <trkpt lat="44.20267" lon="3.24101">
        <ele>821.36</ele>
        <time>2026-04-23T14:10:28.544Z</time>
      </trkpt>
      <trkpt lat="44.2026" lon="3.24107">
        <ele>820.39</ele>
        <time>2026-04-23T14:10:34.522Z</time>
      </trkpt>
      <trkpt lat="44.20255" lon="3.2411">
        <ele>820.25</ele>
        <time>2026-04-23T14:10:39.642Z</time>
      </trkpt>
      <trkpt lat="44.2025" lon="3.24116">
        <ele>820.31</ele>
        <time>2026-04-23T14:10:45.599Z</time>
      </trkpt>
      <trkpt lat="44.20244" lon="3.2412">
        <ele>820.1</ele>
        <time>2026-04-23T14:10:50.629Z</time>
      </trkpt>
      <trkpt lat="44.2024" lon="3.24126">
        <ele>819.41</ele>
        <time>2026-04-23T14:10:55.718Z</time>
      </trkpt>
      <trkpt lat="44.20235" lon="3.24135">
        <ele>819.51</ele>
        <time>2026-04-23T14:11:01.618Z</time>
      </trkpt>
      <trkpt lat="44.20229" lon="3.24143">
        <ele>818.81</ele>
        <time>2026-04-23T14:11:06.805Z</time>
      </trkpt>
      <trkpt lat="44.20225" lon="3.24151">
        <ele>818.41</ele>
        <time>2026-04-23T14:11:12.104Z</time>
      </trkpt>
      <trkpt lat="44.20218" lon="3.24154">
        <ele>817.61</ele>
        <time>2026-04-23T14:11:17.377Z</time>
      </trkpt>
      <trkpt lat="44.20212" lon="3.24153">
        <ele>817.24</ele>
        <time>2026-04-23T14:11:22.636Z</time>
      </trkpt>
      <trkpt lat="44.20207" lon="3.24151">
        <ele>817.15</ele>
        <time>2026-04-23T14:11:27.636Z</time>
      </trkpt>
      <trkpt lat="44.20204" lon="3.24149">
        <ele>816.77</ele>
        <time>2026-04-23T14:11:32.664Z</time>
      </trkpt>
      <trkpt lat="44.20207" lon="3.24152">
        <ele>816.95</ele>
        <time>2026-04-23T14:11:38.640Z</time>
      </trkpt>
      <trkpt lat="44.20206" lon="3.2415">
        <ele>816.34</ele>
        <time>2026-04-23T14:11:44.615Z</time>
      </trkpt>
      <trkpt lat="44.20206" lon="3.24148">
        <ele>816.47</ele>
        <time>2026-04-23T14:11:49.640Z</time>
      </trkpt>
      <trkpt lat="44.20206" lon="3.24147">
        <ele>815.95</ele>
        <time>2026-04-23T14:11:54.644Z</time>
      </trkpt>
      <trkpt lat="44.20206" lon="3.24146">
        <ele>816.09</ele>
        <time>2026-04-23T14:12:03.606Z</time>
      </trkpt>
      <trkpt lat="44.20207" lon="3.24146">
        <ele>816.24</ele>
        <time>2026-04-23T14:12:12.568Z</time>
      </trkpt>
      <trkpt lat="44.20208" lon="3.24146">
        <ele>816</ele>
        <time>2026-04-23T14:12:19.609Z</time>
      </trkpt>
      <trkpt lat="44.20209" lon="3.24146">
        <ele>816.02</ele>
        <time>2026-04-23T14:12:24.624Z</time>
      </trkpt>
      <trkpt lat="44.2021" lon="3.24147">
        <ele>816.19</ele>
        <time>2026-04-23T14:12:32.626Z</time>
      </trkpt>
      <trkpt lat="44.20211" lon="3.24146">
        <ele>816.34</ele>
        <time>2026-04-23T14:12:44.575Z</time>
      </trkpt>
      <trkpt lat="44.2021" lon="3.24145">
        <ele>816.44</ele>
        <time>2026-04-23T14:12:51.539Z</time>
      </trkpt>
      <trkpt lat="44.20205" lon="3.24143">
        <ele>816.88</ele>
        <time>2026-04-23T14:12:56.631Z</time>
      </trkpt>
      <trkpt lat="44.20203" lon="3.24143">
        <ele>816.4</ele>
        <time>2026-04-23T14:13:02.121Z</time>
      </trkpt>
      <trkpt lat="44.20199" lon="3.24143">
        <ele>816.2</ele>
        <time>2026-04-23T14:13:07.198Z</time>
      </trkpt>
      <trkpt lat="44.20191" lon="3.24146">
        <ele>815.93</ele>
        <time>2026-04-23T14:13:12.635Z</time>
      </trkpt>
      <trkpt lat="44.20183" lon="3.24151">
        <ele>816.22</ele>
        <time>2026-04-23T14:13:18.609Z</time>
      </trkpt>
      <trkpt lat="44.20177" lon="3.2416">
        <ele>816.41</ele>
        <time>2026-04-23T14:13:23.624Z</time>
      </trkpt>
      <trkpt lat="44.20172" lon="3.24168">
        <ele>815.92</ele>
        <time>2026-04-23T14:13:29.042Z</time>
      </trkpt>
      <trkpt lat="44.20166" lon="3.24173">
        <ele>816.39</ele>
        <time>2026-04-23T14:13:34.501Z</time>
      </trkpt>
      <trkpt lat="44.20159" lon="3.24177">
        <ele>815.03</ele>
        <time>2026-04-23T14:13:40.520Z</time>
      </trkpt>
      <trkpt lat="44.2015" lon="3.2418">
        <ele>815.02</ele>
        <time>2026-04-23T14:13:46.362Z</time>
      </trkpt>
      <trkpt lat="44.20144" lon="3.24185">
        <ele>813.77</ele>
        <time>2026-04-23T14:13:52.300Z</time>
      </trkpt>
      <trkpt lat="44.20139" lon="3.24187">
        <ele>812.94</ele>
        <time>2026-04-23T14:13:58.523Z</time>
      </trkpt>
      <trkpt lat="44.20135" lon="3.24184">
        <ele>813.06</ele>
        <time>2026-04-23T14:14:03.662Z</time>
      </trkpt>
      <trkpt lat="44.20131" lon="3.24186">
        <ele>812.71</ele>
        <time>2026-04-23T14:14:08.899Z</time>
      </trkpt>
      <trkpt lat="44.20125" lon="3.24191">
        <ele>812.84</ele>
        <time>2026-04-23T14:14:14.128Z</time>
      </trkpt>
      <trkpt lat="44.20119" lon="3.24196">
        <ele>811.75</ele>
        <time>2026-04-23T14:14:19.401Z</time>
      </trkpt>
      <trkpt lat="44.20114" lon="3.242">
        <ele>812.08</ele>
        <time>2026-04-23T14:14:24.939Z</time>
      </trkpt>
      <trkpt lat="44.20108" lon="3.24202">
        <ele>810.97</ele>
        <time>2026-04-23T14:14:30.122Z</time>
      </trkpt>
      <trkpt lat="44.20102" lon="3.24204">
        <ele>810.33</ele>
        <time>2026-04-23T14:14:35.598Z</time>
      </trkpt>
      <trkpt lat="44.20097" lon="3.24202">
        <ele>810.08</ele>
        <time>2026-04-23T14:14:41.618Z</time>
      </trkpt>
      <trkpt lat="44.20091" lon="3.24201">
        <ele>809.1</ele>
        <time>2026-04-23T14:14:47.363Z</time>
      </trkpt>
      <trkpt lat="44.20084" lon="3.24205">
        <ele>809.93</ele>
        <time>2026-04-23T14:14:52.622Z</time>
      </trkpt>
      <trkpt lat="44.20079" lon="3.2421">
        <ele>808.39</ele>
        <time>2026-04-23T14:14:58.181Z</time>
      </trkpt>
      <trkpt lat="44.20076" lon="3.24211">
        <ele>807.91</ele>
        <time>2026-04-23T14:15:03.401Z</time>
      </trkpt>
      <trkpt lat="44.20073" lon="3.24213">
        <ele>807.97</ele>
        <time>2026-04-23T14:15:09.359Z</time>
      </trkpt>
      <trkpt lat="44.20067" lon="3.24211">
        <ele>807.95</ele>
        <time>2026-04-23T14:15:15.084Z</time>
      </trkpt>
      <trkpt lat="44.20062" lon="3.2421">
        <ele>807.1</ele>
        <time>2026-04-23T14:15:20.320Z</time>
      </trkpt>
      <trkpt lat="44.2006" lon="3.2421">
        <ele>805.49</ele>
        <time>2026-04-23T14:15:25.515Z</time>
      </trkpt>
      <trkpt lat="44.20058" lon="3.24208">
        <ele>805.44</ele>
        <time>2026-04-23T14:15:30.626Z</time>
      </trkpt>
      <trkpt lat="44.20052" lon="3.24207">
        <ele>803.96</ele>
        <time>2026-04-23T14:15:35.836Z</time>
      </trkpt>
      <trkpt lat="44.20044" lon="3.24209">
        <ele>803.74</ele>
        <time>2026-04-23T14:15:41.321Z</time>
      </trkpt>
      <trkpt lat="44.20039" lon="3.24212">
        <ele>802.71</ele>
        <time>2026-04-23T14:15:46.618Z</time>
      </trkpt>
      <trkpt lat="44.20036" lon="3.24219">
        <ele>802.34</ele>
        <time>2026-04-23T14:15:51.621Z</time>
      </trkpt>
      <trkpt lat="44.20032" lon="3.24221">
        <ele>801.69</ele>
        <time>2026-04-23T14:15:56.636Z</time>
      </trkpt>
      <trkpt lat="44.20029" lon="3.24215">
        <ele>800.77</ele>
        <time>2026-04-23T14:16:02.161Z</time>
      </trkpt>
      <trkpt lat="44.20026" lon="3.24211">
        <ele>800.39</ele>
        <time>2026-04-23T14:16:07.625Z</time>
      </trkpt>
      <trkpt lat="44.20021" lon="3.24207">
        <ele>800.35</ele>
        <time>2026-04-23T14:16:12.639Z</time>
      </trkpt>
      <trkpt lat="44.20016" lon="3.24204">
        <ele>799.86</ele>
        <time>2026-04-23T14:16:18.264Z</time>
      </trkpt>
      <trkpt lat="44.20013" lon="3.24201">
        <ele>799.54</ele>
        <time>2026-04-23T14:16:23.499Z</time>
      </trkpt>
      <trkpt lat="44.20009" lon="3.24197">
        <ele>799.34</ele>
        <time>2026-04-23T14:16:28.540Z</time>
      </trkpt>
      <trkpt lat="44.20006" lon="3.24195">
        <ele>799.09</ele>
        <time>2026-04-23T14:16:33.658Z</time>
      </trkpt>
      <trkpt lat="44.20003" lon="3.24194">
        <ele>798.51</ele>
        <time>2026-04-23T14:16:39.324Z</time>
      </trkpt>
      <trkpt lat="44.19996" lon="3.24197">
        <ele>797.81</ele>
        <time>2026-04-23T14:16:44.739Z</time>
      </trkpt>
      <trkpt lat="44.19989" lon="3.24196">
        <ele>797.75</ele>
        <time>2026-04-23T14:16:50.200Z</time>
      </trkpt>
      <trkpt lat="44.19983" lon="3.24194">
        <ele>797.32</ele>
        <time>2026-04-23T14:16:55.636Z</time>
      </trkpt>
      <trkpt lat="44.19979" lon="3.24195">
        <ele>796.72</ele>
        <time>2026-04-23T14:17:00.886Z</time>
      </trkpt>
      <trkpt lat="44.19973" lon="3.24197">
        <ele>797.34</ele>
        <time>2026-04-23T14:17:06.513Z</time>
      </trkpt>
      <trkpt lat="44.19966" lon="3.24196">
        <ele>796.98</ele>
        <time>2026-04-23T14:17:11.814Z</time>
      </trkpt>
      <trkpt lat="44.19962" lon="3.24196">
        <ele>796.47</ele>
        <time>2026-04-23T14:17:16.816Z</time>
      </trkpt>
      <trkpt lat="44.1996" lon="3.24198">
        <ele>795.96</ele>
        <time>2026-04-23T14:17:22.508Z</time>
      </trkpt>
      <trkpt lat="44.1996" lon="3.242">
        <ele>796.47</ele>
        <time>2026-04-23T14:17:28.605Z</time>
      </trkpt>
      <trkpt lat="44.19962" lon="3.24205">
        <ele>796.45</ele>
        <time>2026-04-23T14:17:33.871Z</time>
      </trkpt>
      <trkpt lat="44.19964" lon="3.24216">
        <ele>796.84</ele>
        <time>2026-04-23T14:17:39.107Z</time>
      </trkpt>
      <trkpt lat="44.19964" lon="3.24228">
        <ele>796.36</ele>
        <time>2026-04-23T14:17:44.322Z</time>
      </trkpt>
      <trkpt lat="44.19962" lon="3.24236">
        <ele>797.37</ele>
        <time>2026-04-23T14:17:49.621Z</time>
      </trkpt>
      <trkpt lat="44.19959" lon="3.2424">
        <ele>797.35</ele>
        <time>2026-04-23T14:17:54.636Z</time>
      </trkpt>
      <trkpt lat="44.19957" lon="3.24239">
        <ele>796.4</ele>
        <time>2026-04-23T14:18:00.611Z</time>
      </trkpt>
      <trkpt lat="44.19956" lon="3.24238">
        <ele>796.42</ele>
        <time>2026-04-23T14:18:06.585Z</time>
      </trkpt>
      <trkpt lat="44.19951" lon="3.24236">
        <ele>796.51</ele>
        <time>2026-04-23T14:18:11.932Z</time>
      </trkpt>
      <trkpt lat="44.19944" lon="3.24235">
        <ele>796.19</ele>
        <time>2026-04-23T14:18:17.312Z</time>
      </trkpt>
      <trkpt lat="44.19938" lon="3.24237">
        <ele>797.15</ele>
        <time>2026-04-23T14:18:22.434Z</time>
      </trkpt>
      <trkpt lat="44.19931" lon="3.24239">
        <ele>796.27</ele>
        <time>2026-04-23T14:18:27.707Z</time>
      </trkpt>
      <trkpt lat="44.19926" lon="3.24247">
        <ele>795.87</ele>
        <time>2026-04-23T14:18:33.306Z</time>
      </trkpt>
      <trkpt lat="44.19924" lon="3.24256">
        <ele>794.94</ele>
        <time>2026-04-23T14:18:38.592Z</time>
      </trkpt>
      <trkpt lat="44.19924" lon="3.24267">
        <ele>794.31</ele>
        <time>2026-04-23T14:18:43.607Z</time>
      </trkpt>
      <trkpt lat="44.19923" lon="3.24277">
        <ele>794.68</ele>
        <time>2026-04-23T14:18:49.664Z</time>
      </trkpt>
      <trkpt lat="44.19919" lon="3.24285">
        <ele>795.48</ele>
        <time>2026-04-23T14:18:55.409Z</time>
      </trkpt>
      <trkpt lat="44.19917" lon="3.24292">
        <ele>795.12</ele>
        <time>2026-04-23T14:19:00.850Z</time>
      </trkpt>
      <trkpt lat="44.19915" lon="3.24298">
        <ele>795</ele>
        <time>2026-04-23T14:19:06.451Z</time>
      </trkpt>
      <trkpt lat="44.19913" lon="3.24305">
        <ele>795.71</ele>
        <time>2026-04-23T14:19:11.667Z</time>
      </trkpt>
      <trkpt lat="44.19908" lon="3.2431">
        <ele>796.86</ele>
        <time>2026-04-23T14:19:17.290Z</time>
      </trkpt>
      <trkpt lat="44.19905" lon="3.24317">
        <ele>796.78</ele>
        <time>2026-04-23T14:19:23.007Z</time>
      </trkpt>
      <trkpt lat="44.19901" lon="3.24322">
        <ele>796.31</ele>
        <time>2026-04-23T14:19:28.110Z</time>
      </trkpt>
      <trkpt lat="44.19898" lon="3.2433">
        <ele>796.14</ele>
        <time>2026-04-23T14:19:33.645Z</time>
      </trkpt>
      <trkpt lat="44.19895" lon="3.24334">
        <ele>796.15</ele>
        <time>2026-04-23T14:19:38.658Z</time>
      </trkpt>
      <trkpt lat="44.1989" lon="3.24335">
        <ele>795.59</ele>
        <time>2026-04-23T14:19:43.674Z</time>
      </trkpt>
      <trkpt lat="44.19883" lon="3.2433">
        <ele>795.52</ele>
        <time>2026-04-23T14:19:49.279Z</time>
      </trkpt>
      <trkpt lat="44.19881" lon="3.24327">
        <ele>795.16</ele>
        <time>2026-04-23T14:19:54.370Z</time>
      </trkpt>
      <trkpt lat="44.19881" lon="3.2433">
        <ele>794.51</ele>
        <time>2026-04-23T14:19:59.571Z</time>
      </trkpt>
      <trkpt lat="44.19883" lon="3.24332">
        <ele>794.47</ele>
        <time>2026-04-23T14:20:04.594Z</time>
      </trkpt>
      <trkpt lat="44.19885" lon="3.24333">
        <ele>795.12</ele>
        <time>2026-04-23T14:20:09.609Z</time>
      </trkpt>
      <trkpt lat="44.19885" lon="3.24332">
        <ele>795.63</ele>
        <time>2026-04-23T14:20:23.285Z</time>
      </trkpt>
      <trkpt lat="44.19882" lon="3.24326">
        <ele>794.56</ele>
        <time>2026-04-23T14:20:28.601Z</time>
      </trkpt>
      <trkpt lat="44.19875" lon="3.24318">
        <ele>796.49</ele>
        <time>2026-04-23T14:20:34.014Z</time>
      </trkpt>
      <trkpt lat="44.19869" lon="3.24313">
        <ele>796.37</ele>
        <time>2026-04-23T14:20:39.085Z</time>
      </trkpt>
      <trkpt lat="44.19865" lon="3.24307">
        <ele>795.65</ele>
        <time>2026-04-23T14:20:44.163Z</time>
      </trkpt>
      <trkpt lat="44.19861" lon="3.24301">
        <ele>794.86</ele>
        <time>2026-04-23T14:20:49.411Z</time>
      </trkpt>
      <trkpt lat="44.19855" lon="3.243">
        <ele>793.51</ele>
        <time>2026-04-23T14:20:54.631Z</time>
      </trkpt>
      <trkpt lat="44.19852" lon="3.24301">
        <ele>792.27</ele>
        <time>2026-04-23T14:21:00.585Z</time>
      </trkpt>
      <trkpt lat="44.19845" lon="3.243">
        <ele>791.63</ele>
        <time>2026-04-23T14:21:06.348Z</time>
      </trkpt>
      <trkpt lat="44.19842" lon="3.24291">
        <ele>790.95</ele>
        <time>2026-04-23T14:21:11.600Z</time>
      </trkpt>
      <trkpt lat="44.19838" lon="3.24282">
        <ele>789.48</ele>
        <time>2026-04-23T14:21:16.615Z</time>
      </trkpt>
      <trkpt lat="44.19837" lon="3.24276">
        <ele>788.17</ele>
        <time>2026-04-23T14:21:21.629Z</time>
      </trkpt>
      <trkpt lat="44.19834" lon="3.24267">
        <ele>788.07</ele>
        <time>2026-04-23T14:21:27.528Z</time>
      </trkpt>
      <trkpt lat="44.19832" lon="3.24259">
        <ele>787.91</ele>
        <time>2026-04-23T14:21:32.712Z</time>
      </trkpt>
      <trkpt lat="44.1983" lon="3.24251">
        <ele>786.57</ele>
        <time>2026-04-23T14:21:37.966Z</time>
      </trkpt>
      <trkpt lat="44.1983" lon="3.24243">
        <ele>785.93</ele>
        <time>2026-04-23T14:21:43.209Z</time>
      </trkpt>
      <trkpt lat="44.19828" lon="3.24235">
        <ele>785.45</ele>
        <time>2026-04-23T14:21:48.691Z</time>
      </trkpt>
      <trkpt lat="44.19827" lon="3.24228">
        <ele>784.31</ele>
        <time>2026-04-23T14:21:54.210Z</time>
      </trkpt>
      <trkpt lat="44.19826" lon="3.24219">
        <ele>784.96</ele>
        <time>2026-04-23T14:21:59.572Z</time>
      </trkpt>
      <trkpt lat="44.19825" lon="3.2422">
        <ele>784.96</ele>
        <time>2026-04-23T14:22:05.596Z</time>
      </trkpt>
      <trkpt lat="44.19825" lon="3.24223">
        <ele>784.26</ele>
        <time>2026-04-23T14:22:10.611Z</time>
      </trkpt>
      <trkpt lat="44.19826" lon="3.24222">
        <ele>784.35</ele>
        <time>2026-04-23T14:22:17.547Z</time>
      </trkpt>
      <trkpt lat="44.19829" lon="3.2421">
        <ele>783.96</ele>
        <time>2026-04-23T14:22:23.128Z</time>
      </trkpt>
      <trkpt lat="44.1983" lon="3.242">
        <ele>784.41</ele>
        <time>2026-04-23T14:22:29.006Z</time>
      </trkpt>
      <trkpt lat="44.19834" lon="3.24192">
        <ele>786.03</ele>
        <time>2026-04-23T14:22:34.212Z</time>
      </trkpt>
      <trkpt lat="44.19838" lon="3.24183">
        <ele>787.1</ele>
        <time>2026-04-23T14:22:39.653Z</time>
      </trkpt>
      <trkpt lat="44.1984" lon="3.24174">
        <ele>785.78</ele>
        <time>2026-04-23T14:22:45.052Z</time>
      </trkpt>
      <trkpt lat="44.19841" lon="3.24166">
        <ele>784.39</ele>
        <time>2026-04-23T14:22:50.425Z</time>
      </trkpt>
      <trkpt lat="44.19843" lon="3.24159">
        <ele>783.39</ele>
        <time>2026-04-23T14:22:55.667Z</time>
      </trkpt>
      <trkpt lat="44.19847" lon="3.24154">
        <ele>783.27</ele>
        <time>2026-04-23T14:23:01.006Z</time>
      </trkpt>
      <trkpt lat="44.19848" lon="3.2415">
        <ele>783.42</ele>
        <time>2026-04-23T14:23:06.065Z</time>
      </trkpt>
      <trkpt lat="44.19847" lon="3.24145">
        <ele>781.98</ele>
        <time>2026-04-23T14:23:11.463Z</time>
      </trkpt>
      <trkpt lat="44.19845" lon="3.24138">
        <ele>781.73</ele>
        <time>2026-04-23T14:23:17.225Z</time>
      </trkpt>
      <trkpt lat="44.19842" lon="3.24132">
        <ele>780.83</ele>
        <time>2026-04-23T14:23:22.284Z</time>
      </trkpt>
      <trkpt lat="44.1984" lon="3.24125">
        <ele>780.15</ele>
        <time>2026-04-23T14:23:27.678Z</time>
      </trkpt>
      <trkpt lat="44.19835" lon="3.24123">
        <ele>779.57</ele>
        <time>2026-04-23T14:23:33.487Z</time>
      </trkpt>
      <trkpt lat="44.19831" lon="3.2412">
        <ele>778.29</ele>
        <time>2026-04-23T14:23:39.107Z</time>
      </trkpt>
      <trkpt lat="44.19824" lon="3.24116">
        <ele>778.4</ele>
        <time>2026-04-23T14:23:44.643Z</time>
      </trkpt>
      <trkpt lat="44.19819" lon="3.2411">
        <ele>777.47</ele>
        <time>2026-04-23T14:23:50.267Z</time>
      </trkpt>
      <trkpt lat="44.19813" lon="3.24108">
        <ele>777.48</ele>
        <time>2026-04-23T14:23:55.663Z</time>
      </trkpt>
      <trkpt lat="44.19806" lon="3.24105">
        <ele>777.36</ele>
        <time>2026-04-23T14:24:01.425Z</time>
      </trkpt>
      <trkpt lat="44.19802" lon="3.24101">
        <ele>776.68</ele>
        <time>2026-04-23T14:24:07.268Z</time>
      </trkpt>
      <trkpt lat="44.19795" lon="3.24099">
        <ele>776.66</ele>
        <time>2026-04-23T14:24:12.922Z</time>
      </trkpt>
      <trkpt lat="44.1979" lon="3.24099">
        <ele>775.6</ele>
        <time>2026-04-23T14:24:18.140Z</time>
      </trkpt>
      <trkpt lat="44.19785" lon="3.24099">
        <ele>775.61</ele>
        <time>2026-04-23T14:24:23.589Z</time>
      </trkpt>
      <trkpt lat="44.1978" lon="3.24096">
        <ele>774.95</ele>
        <time>2026-04-23T14:24:29.671Z</time>
      </trkpt>
      <trkpt lat="44.19776" lon="3.24092">
        <ele>774.08</ele>
        <time>2026-04-23T14:24:35.045Z</time>
      </trkpt>
      <trkpt lat="44.19778" lon="3.24088">
        <ele>773.37</ele>
        <time>2026-04-23T14:24:40.104Z</time>
      </trkpt>
      <trkpt lat="44.19783" lon="3.24079">
        <ele>773.21</ele>
        <time>2026-04-23T14:24:45.569Z</time>
      </trkpt>
      <trkpt lat="44.19787" lon="3.24075">
        <ele>772.98</ele>
        <time>2026-04-23T14:24:50.584Z</time>
      </trkpt>
      <trkpt lat="44.19791" lon="3.2407">
        <ele>774.35</ele>
        <time>2026-04-23T14:24:56.385Z</time>
      </trkpt>
      <trkpt lat="44.19792" lon="3.24066">
        <ele>774.32</ele>
        <time>2026-04-23T14:25:01.574Z</time>
      </trkpt>
      <trkpt lat="44.19794" lon="3.24057">
        <ele>774.14</ele>
        <time>2026-04-23T14:25:06.589Z</time>
      </trkpt>
      <trkpt lat="44.19796" lon="3.24048">
        <ele>773.51</ele>
        <time>2026-04-23T14:25:11.604Z</time>
      </trkpt>
      <trkpt lat="44.198" lon="3.24042">
        <ele>772.7</ele>
        <time>2026-04-23T14:25:16.977Z</time>
      </trkpt>
      <trkpt lat="44.19802" lon="3.24035">
        <ele>773.31</ele>
        <time>2026-04-23T14:25:22.233Z</time>
      </trkpt>
      <trkpt lat="44.19799" lon="3.2403">
        <ele>772.33</ele>
        <time>2026-04-23T14:25:27.613Z</time>
      </trkpt>
      <trkpt lat="44.19798" lon="3.24021">
        <ele>772.38</ele>
        <time>2026-04-23T14:25:33.196Z</time>
      </trkpt>
      <trkpt lat="44.19794" lon="3.24014">
        <ele>772.33</ele>
        <time>2026-04-23T14:25:38.599Z</time>
      </trkpt>
      <trkpt lat="44.19791" lon="3.24006">
        <ele>771.88</ele>
        <time>2026-04-23T14:25:43.614Z</time>
      </trkpt>
      <trkpt lat="44.1979" lon="3.24003">
        <ele>771.54</ele>
        <time>2026-04-23T14:25:49.174Z</time>
      </trkpt>
      <trkpt lat="44.19789" lon="3.24002">
        <ele>771.87</ele>
        <time>2026-04-23T14:25:54.554Z</time>
      </trkpt>
      <trkpt lat="44.1979" lon="3.23998">
        <ele>773.42</ele>
        <time>2026-04-23T14:25:59.736Z</time>
      </trkpt>
      <trkpt lat="44.19793" lon="3.23987">
        <ele>773.84</ele>
        <time>2026-04-23T14:26:04.941Z</time>
      </trkpt>
      <trkpt lat="44.19794" lon="3.23978">
        <ele>774.42</ele>
        <time>2026-04-23T14:26:10.479Z</time>
      </trkpt>
      <trkpt lat="44.19795" lon="3.23974">
        <ele>774.54</ele>
        <time>2026-04-23T14:26:15.494Z</time>
      </trkpt>
      <trkpt lat="44.19795" lon="3.23971">
        <ele>776.11</ele>
        <time>2026-04-23T14:26:20.876Z</time>
      </trkpt>
      <trkpt lat="44.19794" lon="3.23966">
        <ele>776.78</ele>
        <time>2026-04-23T14:26:25.915Z</time>
      </trkpt>
      <trkpt lat="44.19791" lon="3.2396">
        <ele>777.28</ele>
        <time>2026-04-23T14:26:31.243Z</time>
      </trkpt>
      <trkpt lat="44.19786" lon="3.23955">
        <ele>777.61</ele>
        <time>2026-04-23T14:26:36.643Z</time>
      </trkpt>
      <trkpt lat="44.19779" lon="3.23955">
        <ele>777.3</ele>
        <time>2026-04-23T14:26:42.136Z</time>
      </trkpt>
      <trkpt lat="44.19774" lon="3.23953">
        <ele>776.66</ele>
        <time>2026-04-23T14:26:47.634Z</time>
      </trkpt>
      <trkpt lat="44.19769" lon="3.23946">
        <ele>776.75</ele>
        <time>2026-04-23T14:26:52.649Z</time>
      </trkpt>
      <trkpt lat="44.19764" lon="3.23941">
        <ele>776.93</ele>
        <time>2026-04-23T14:26:58.016Z</time>
      </trkpt>
      <trkpt lat="44.1976" lon="3.23936">
        <ele>777.22</ele>
        <time>2026-04-23T14:27:03.579Z</time>
      </trkpt>
      <trkpt lat="44.19757" lon="3.23939">
        <ele>778.06</ele>
        <time>2026-04-23T14:27:09.623Z</time>
      </trkpt>
      <trkpt lat="44.19757" lon="3.2394">
        <ele>776.7</ele>
        <time>2026-04-23T14:27:15.253Z</time>
      </trkpt>
      <trkpt lat="44.19753" lon="3.23946">
        <ele>776.66</ele>
        <time>2026-04-23T14:27:20.613Z</time>
      </trkpt>
      <trkpt lat="44.19753" lon="3.23947">
        <ele>777.2</ele>
        <time>2026-04-23T14:27:25.629Z</time>
      </trkpt>
      <trkpt lat="44.19751" lon="3.23947">
        <ele>777.4</ele>
        <time>2026-04-23T14:27:31.118Z</time>
      </trkpt>
      <trkpt lat="44.19743" lon="3.23935">
        <ele>778.83</ele>
        <time>2026-04-23T14:27:36.640Z</time>
      </trkpt>
      <trkpt lat="44.19736" lon="3.23925">
        <ele>777.19</ele>
        <time>2026-04-23T14:27:41.842Z</time>
      </trkpt>
      <trkpt lat="44.19729" lon="3.23922">
        <ele>777.62</ele>
        <time>2026-04-23T14:27:47.619Z</time>
      </trkpt>
      <trkpt lat="44.19726" lon="3.23913">
        <ele>777.62</ele>
        <time>2026-04-23T14:27:52.635Z</time>
      </trkpt>
      <trkpt lat="44.19721" lon="3.23907">
        <ele>776.81</ele>
        <time>2026-04-23T14:27:57.650Z</time>
      </trkpt>
      <trkpt lat="44.19714" lon="3.23908">
        <ele>776.25</ele>
        <time>2026-04-23T14:28:03.513Z</time>
      </trkpt>
      <trkpt lat="44.19708" lon="3.23914">
        <ele>775.95</ele>
        <time>2026-04-23T14:28:08.640Z</time>
      </trkpt>
      <trkpt lat="44.19706" lon="3.23923">
        <ele>776.12</ele>
        <time>2026-04-23T14:28:13.655Z</time>
      </trkpt>
      <trkpt lat="44.19702" lon="3.23931">
        <ele>776.7</ele>
        <time>2026-04-23T14:28:19.341Z</time>
      </trkpt>
      <trkpt lat="44.19696" lon="3.23936">
        <ele>776.41</ele>
        <time>2026-04-23T14:28:24.646Z</time>
      </trkpt>
      <trkpt lat="44.19689" lon="3.23939">
        <ele>776.54</ele>
        <time>2026-04-23T14:28:30.455Z</time>
      </trkpt>
      <trkpt lat="44.19685" lon="3.23948">
        <ele>776.47</ele>
        <time>2026-04-23T14:28:35.636Z</time>
      </trkpt>
      <trkpt lat="44.19685" lon="3.23955">
        <ele>776.09</ele>
        <time>2026-04-23T14:28:40.651Z</time>
      </trkpt>
      <trkpt lat="44.19684" lon="3.23965">
        <ele>776.72</ele>
        <time>2026-04-23T14:28:45.936Z</time>
      </trkpt>
      <trkpt lat="44.19679" lon="3.2397">
        <ele>775.8</ele>
        <time>2026-04-23T14:28:51.059Z</time>
      </trkpt>
      <trkpt lat="44.19673" lon="3.23968">
        <ele>775.79</ele>
        <time>2026-04-23T14:28:56.455Z</time>
      </trkpt>
      <trkpt lat="44.19668" lon="3.23962">
        <ele>776.26</ele>
        <time>2026-04-23T14:29:02.093Z</time>
      </trkpt>
      <trkpt lat="44.19664" lon="3.23956">
        <ele>775.29</ele>
        <time>2026-04-23T14:29:07.278Z</time>
      </trkpt>
      <trkpt lat="44.1966" lon="3.23951">
        <ele>774.8</ele>
        <time>2026-04-23T14:29:12.661Z</time>
      </trkpt>
      <trkpt lat="44.19657" lon="3.23944">
        <ele>775.34</ele>
        <time>2026-04-23T14:29:18.098Z</time>
      </trkpt>
      <trkpt lat="44.19656" lon="3.23936">
        <ele>775.43</ele>
        <time>2026-04-23T14:29:23.654Z</time>
      </trkpt>
      <trkpt lat="44.19653" lon="3.23929">
        <ele>775.25</ele>
        <time>2026-04-23T14:29:29.513Z</time>
      </trkpt>
      <trkpt lat="44.19649" lon="3.23924">
        <ele>774.32</ele>
        <time>2026-04-23T14:29:35.241Z</time>
      </trkpt>
      <trkpt lat="44.19644" lon="3.23921">
        <ele>772.76</ele>
        <time>2026-04-23T14:29:40.894Z</time>
      </trkpt>
      <trkpt lat="44.19637" lon="3.23918">
        <ele>772.76</ele>
        <time>2026-04-23T14:29:46.373Z</time>
      </trkpt>
      <trkpt lat="44.1963" lon="3.23916">
        <ele>772.5</ele>
        <time>2026-04-23T14:29:51.380Z</time>
      </trkpt>
      <trkpt lat="44.19623" lon="3.23916">
        <ele>773.24</ele>
        <time>2026-04-23T14:29:56.753Z</time>
      </trkpt>
      <trkpt lat="44.19618" lon="3.23913">
        <ele>773.32</ele>
        <time>2026-04-23T14:30:01.896Z</time>
      </trkpt>
      <trkpt lat="44.19614" lon="3.23916">
        <ele>772.78</ele>
        <time>2026-04-23T14:30:07.358Z</time>
      </trkpt>
      <trkpt lat="44.19612" lon="3.23924">
        <ele>771.91</ele>
        <time>2026-04-23T14:30:12.612Z</time>
      </trkpt>
      <trkpt lat="44.19607" lon="3.2393">
        <ele>773.1</ele>
        <time>2026-04-23T14:30:18.641Z</time>
      </trkpt>
      <trkpt lat="44.196" lon="3.23931">
        <ele>773.53</ele>
        <time>2026-04-23T14:30:24.577Z</time>
      </trkpt>
      <trkpt lat="44.19596" lon="3.23935">
        <ele>774.05</ele>
        <time>2026-04-23T14:30:29.596Z</time>
      </trkpt>
      <trkpt lat="44.19593" lon="3.23939">
        <ele>774.01</ele>
        <time>2026-04-23T14:30:34.607Z</time>
      </trkpt>
      <trkpt lat="44.19591" lon="3.2394">
        <ele>774.15</ele>
        <time>2026-04-23T14:30:40.000Z</time>
      </trkpt>
      <trkpt lat="44.19591" lon="3.23945">
        <ele>774.04</ele>
        <time>2026-04-23T14:30:45.254Z</time>
      </trkpt>
      <trkpt lat="44.19591" lon="3.2395">
        <ele>773.61</ele>
        <time>2026-04-23T14:30:50.438Z</time>
      </trkpt>
      <trkpt lat="44.19591" lon="3.23948">
        <ele>773.85</ele>
        <time>2026-04-23T14:30:55.626Z</time>
      </trkpt>
      <trkpt lat="44.19585" lon="3.23942">
        <ele>773.04</ele>
        <time>2026-04-23T14:31:01.499Z</time>
      </trkpt>
      <trkpt lat="44.19579" lon="3.23939">
        <ele>773.06</ele>
        <time>2026-04-23T14:31:06.753Z</time>
      </trkpt>
      <trkpt lat="44.19573" lon="3.23942">
        <ele>772.02</ele>
        <time>2026-04-23T14:31:12.337Z</time>
      </trkpt>
      <trkpt lat="44.19567" lon="3.23937">
        <ele>773.44</ele>
        <time>2026-04-23T14:31:18.454Z</time>
      </trkpt>
      <trkpt lat="44.1956" lon="3.23938">
        <ele>773.71</ele>
        <time>2026-04-23T14:31:23.860Z</time>
      </trkpt>
      <trkpt lat="44.19555" lon="3.23937">
        <ele>772.23</ele>
        <time>2026-04-23T14:31:29.213Z</time>
      </trkpt>
      <trkpt lat="44.19551" lon="3.23932">
        <ele>772.01</ele>
        <time>2026-04-23T14:31:34.678Z</time>
      </trkpt>
      <trkpt lat="44.19545" lon="3.2393">
        <ele>770.62</ele>
        <time>2026-04-23T14:31:40.254Z</time>
      </trkpt>
      <trkpt lat="44.19539" lon="3.23928">
        <ele>770.66</ele>
        <time>2026-04-23T14:31:45.685Z</time>
      </trkpt>
      <trkpt lat="44.19536" lon="3.23921">
        <ele>770.89</ele>
        <time>2026-04-23T14:31:51.282Z</time>
      </trkpt>
      <trkpt lat="44.19532" lon="3.23915">
        <ele>770.46</ele>
        <time>2026-04-23T14:31:56.296Z</time>
      </trkpt>
      <trkpt lat="44.19525" lon="3.23911">
        <ele>770.75</ele>
        <time>2026-04-23T14:32:01.583Z</time>
      </trkpt>
      <trkpt lat="44.1952" lon="3.23906">
        <ele>770.56</ele>
        <time>2026-04-23T14:32:06.598Z</time>
      </trkpt>
      <trkpt lat="44.19517" lon="3.23901">
        <ele>771.46</ele>
        <time>2026-04-23T14:32:11.613Z</time>
      </trkpt>
      <trkpt lat="44.19514" lon="3.23898">
        <ele>771.78</ele>
        <time>2026-04-23T14:32:17.377Z</time>
      </trkpt>
      <trkpt lat="44.19509" lon="3.23898">
        <ele>771.31</ele>
        <time>2026-04-23T14:32:23.318Z</time>
      </trkpt>
      <trkpt lat="44.19504" lon="3.23895">
        <ele>769.71</ele>
        <time>2026-04-23T14:32:29.383Z</time>
      </trkpt>
      <trkpt lat="44.19498" lon="3.23901">
        <ele>769.33</ele>
        <time>2026-04-23T14:32:35.383Z</time>
      </trkpt>
      <trkpt lat="44.19495" lon="3.23897">
        <ele>769.46</ele>
        <time>2026-04-23T14:32:40.601Z</time>
      </trkpt>
      <trkpt lat="44.19491" lon="3.23891">
        <ele>771.15</ele>
        <time>2026-04-23T14:32:45.649Z</time>
      </trkpt>
      <trkpt lat="44.19488" lon="3.23889">
        <ele>771.62</ele>
        <time>2026-04-23T14:32:51.122Z</time>
      </trkpt>
      <trkpt lat="44.19483" lon="3.2389">
        <ele>769.68</ele>
        <time>2026-04-23T14:32:56.295Z</time>
      </trkpt>
      <trkpt lat="44.1948" lon="3.2389">
        <ele>770</ele>
        <time>2026-04-23T14:33:01.736Z</time>
      </trkpt>
      <trkpt lat="44.19481" lon="3.23896">
        <ele>769.06</ele>
        <time>2026-04-23T14:33:07.196Z</time>
      </trkpt>
      <trkpt lat="44.19482" lon="3.23897">
        <ele>769.26</ele>
        <time>2026-04-23T14:33:12.643Z</time>
      </trkpt>
      <trkpt lat="44.19483" lon="3.23898">
        <ele>769.74</ele>
        <time>2026-04-23T14:33:20.548Z</time>
      </trkpt>
      <trkpt lat="44.19484" lon="3.23897">
        <ele>769.28</ele>
        <time>2026-04-23T14:33:36.553Z</time>
      </trkpt>
      <trkpt lat="44.19483" lon="3.23897">
        <ele>769.83</ele>
        <time>2026-04-23T14:33:58.650Z</time>
      </trkpt>
      <trkpt lat="44.19481" lon="3.23897">
        <ele>769.6</ele>
        <time>2026-04-23T14:34:04.345Z</time>
      </trkpt>
      <trkpt lat="44.1948" lon="3.23897">
        <ele>770.08</ele>
        <time>2026-04-23T14:34:11.406Z</time>
      </trkpt>
      <trkpt lat="44.19481" lon="3.23895">
        <ele>769.95</ele>
        <time>2026-04-23T14:34:16.577Z</time>
      </trkpt>
      <trkpt lat="44.19481" lon="3.23893">
        <ele>769.32</ele>
        <time>2026-04-23T14:34:22.552Z</time>
      </trkpt>
      <trkpt lat="44.19481" lon="3.23894">
        <ele>768.23</ele>
        <time>2026-04-23T14:34:54.670Z</time>
      </trkpt>
      <trkpt lat="44.19482" lon="3.23894">
        <ele>770.79</ele>
        <time>2026-04-23T14:35:07.581Z</time>
      </trkpt>
      <trkpt lat="44.19482" lon="3.23892">
        <ele>769.35</ele>
        <time>2026-04-23T14:35:30.629Z</time>
      </trkpt>
      <trkpt lat="44.19482" lon="3.23891">
        <ele>768.81</ele>
        <time>2026-04-23T14:35:39.592Z</time>
      </trkpt>
      <trkpt lat="44.19483" lon="3.23891">
        <ele>768.44</ele>
        <time>2026-04-23T14:35:44.607Z</time>
      </trkpt>
      <trkpt lat="44.19484" lon="3.2389">
        <ele>768.3</ele>
        <time>2026-04-23T14:35:52.610Z</time>
      </trkpt>
      <trkpt lat="44.19484" lon="3.23889">
        <ele>768.88</ele>
        <time>2026-04-23T14:36:34.532Z</time>
      </trkpt>
      <trkpt lat="44.19484" lon="3.2389">
        <ele>768.07</ele>
        <time>2026-04-23T14:36:55.533Z</time>
      </trkpt>
      <trkpt lat="44.19484" lon="3.23891">
        <ele>767.49</ele>
        <time>2026-04-23T14:37:29.532Z</time>
      </trkpt>
      <trkpt lat="44.19483" lon="3.23892">
        <ele>767.55</ele>
        <time>2026-04-23T14:37:46.533Z</time>
      </trkpt>
      <trkpt lat="44.19482" lon="3.23891">
        <ele>767.1</ele>
        <time>2026-04-23T14:38:11.534Z</time>
      </trkpt>
      <trkpt lat="44.19483" lon="3.23892">
        <ele>765.68</ele>
        <time>2026-04-23T14:38:41.534Z</time>
      </trkpt>
      <trkpt lat="44.19482" lon="3.23891">
        <ele>765.65</ele>
        <time>2026-04-23T14:39:28.536Z</time>
      </trkpt>
      <trkpt lat="44.19481" lon="3.23891">
        <ele>773.49</ele>
        <time>2026-04-23T14:41:01.537Z</time>
      </trkpt>
      <trkpt lat="44.1948" lon="3.2389">
        <ele>769.69</ele>
        <time>2026-04-23T14:41:23.538Z</time>
      </trkpt>
      <trkpt lat="44.1948" lon="3.23891">
        <ele>770.3</ele>
        <time>2026-04-23T14:41:51.665Z</time>
      </trkpt>
      <trkpt lat="44.1948" lon="3.23891">
        <ele>770.34</ele>
        <time>2026-04-23T14:42:49.606Z</time>
      </trkpt>
      <trkpt lat="44.19481" lon="3.23891">
        <ele>770.44</ele>
        <time>2026-04-23T14:43:00.597Z</time>
      </trkpt>
      <trkpt lat="44.19481" lon="3.23889">
        <ele>769.98</ele>
        <time>2026-04-23T14:44:12.623Z</time>
      </trkpt>
      <trkpt lat="44.19481" lon="3.23888">
        <ele>770.49</ele>
        <time>2026-04-23T14:44:26.601Z</time>
      </trkpt>
      <trkpt lat="44.19482" lon="3.23888">
        <ele>771.35</ele>
        <time>2026-04-23T14:46:17.301Z</time>
      </trkpt>
      <trkpt lat="44.19483" lon="3.23889">
        <ele>770.46</ele>
        <time>2026-04-23T14:46:28.671Z</time>
      </trkpt>
      <trkpt lat="44.19482" lon="3.23889">
        <ele>768.93</ele>
        <time>2026-04-23T14:47:19.675Z</time>
      </trkpt>
      <trkpt lat="44.19483" lon="3.23891">
        <ele>770.36</ele>
        <time>2026-04-23T14:47:40.694Z</time>
      </trkpt>
      <trkpt lat="44.19483" lon="3.23889">
        <ele>769.42</ele>
        <time>2026-04-23T14:47:54.565Z</time>
      </trkpt>
      <trkpt lat="44.19475" lon="3.23883">
        <ele>772.27</ele>
        <time>2026-04-23T14:48:00.057Z</time>
      </trkpt>
      <trkpt lat="44.19469" lon="3.23884">
        <ele>772.53</ele>
        <time>2026-04-23T14:48:05.381Z</time>
      </trkpt>
      <trkpt lat="44.1947" lon="3.23881">
        <ele>773.6</ele>
        <time>2026-04-23T14:48:10.590Z</time>
      </trkpt>
      <trkpt lat="44.19469" lon="3.23879">
        <ele>773.29</ele>
        <time>2026-04-23T14:48:16.255Z</time>
      </trkpt>
      <trkpt lat="44.19462" lon="3.23871">
        <ele>773.26</ele>
        <time>2026-04-23T14:48:21.637Z</time>
      </trkpt>
      <trkpt lat="44.19458" lon="3.23858">
        <ele>773.71</ele>
        <time>2026-04-23T14:48:27.300Z</time>
      </trkpt>
      <trkpt lat="44.19456" lon="3.2385">
        <ele>773.22</ele>
        <time>2026-04-23T14:48:32.618Z</time>
      </trkpt>
      <trkpt lat="44.19456" lon="3.2384">
        <ele>773.16</ele>
        <time>2026-04-23T14:48:38.063Z</time>
      </trkpt>
      <trkpt lat="44.19456" lon="3.23831">
        <ele>772.52</ele>
        <time>2026-04-23T14:48:43.360Z</time>
      </trkpt>
      <trkpt lat="44.19452" lon="3.23824">
        <ele>774.15</ele>
        <time>2026-04-23T14:48:48.498Z</time>
      </trkpt>
      <trkpt lat="44.1945" lon="3.23814">
        <ele>773.43</ele>
        <time>2026-04-23T14:48:54.354Z</time>
      </trkpt>
      <trkpt lat="44.19449" lon="3.23806">
        <ele>773.38</ele>
        <time>2026-04-23T14:48:59.440Z</time>
      </trkpt>
      <trkpt lat="44.19447" lon="3.238">
        <ele>774.35</ele>
        <time>2026-04-23T14:49:04.954Z</time>
      </trkpt>
      <trkpt lat="44.19446" lon="3.23792">
        <ele>773.86</ele>
        <time>2026-04-23T14:49:10.280Z</time>
      </trkpt>
      <trkpt lat="44.19443" lon="3.23785">
        <ele>773.37</ele>
        <time>2026-04-23T14:49:15.518Z</time>
      </trkpt>
      <trkpt lat="44.19438" lon="3.23782">
        <ele>773.01</ele>
        <time>2026-04-23T14:49:21.046Z</time>
      </trkpt>
      <trkpt lat="44.19435" lon="3.23781">
        <ele>772.91</ele>
        <time>2026-04-23T14:49:26.674Z</time>
      </trkpt>
      <trkpt lat="44.19429" lon="3.23779">
        <ele>772.92</ele>
        <time>2026-04-23T14:49:32.726Z</time>
      </trkpt>
      <trkpt lat="44.19424" lon="3.23777">
        <ele>772.85</ele>
        <time>2026-04-23T14:49:38.282Z</time>
      </trkpt>
      <trkpt lat="44.19419" lon="3.23773">
        <ele>771.99</ele>
        <time>2026-04-23T14:49:43.641Z</time>
      </trkpt>
      <trkpt lat="44.19416" lon="3.23767">
        <ele>772.19</ele>
        <time>2026-04-23T14:49:48.655Z</time>
      </trkpt>
      <trkpt lat="44.19416" lon="3.23766">
        <ele>773.02</ele>
        <time>2026-04-23T14:49:53.896Z</time>
      </trkpt>
      <trkpt lat="44.19413" lon="3.23758">
        <ele>773.74</ele>
        <time>2026-04-23T14:49:58.983Z</time>
      </trkpt>
      <trkpt lat="44.19409" lon="3.2375">
        <ele>773.92</ele>
        <time>2026-04-23T14:50:04.661Z</time>
      </trkpt>
      <trkpt lat="44.19409" lon="3.2374">
        <ele>772.6</ele>
        <time>2026-04-23T14:50:09.677Z</time>
      </trkpt>
      <trkpt lat="44.19413" lon="3.23732">
        <ele>771.77</ele>
        <time>2026-04-23T14:50:14.692Z</time>
      </trkpt>
      <trkpt lat="44.19415" lon="3.23725">
        <ele>770.6</ele>
        <time>2026-04-23T14:50:20.584Z</time>
      </trkpt>
      <trkpt lat="44.1941" lon="3.23718">
        <ele>770.62</ele>
        <time>2026-04-23T14:50:25.683Z</time>
      </trkpt>
      <trkpt lat="44.19405" lon="3.23712">
        <ele>770.64</ele>
        <time>2026-04-23T14:50:30.698Z</time>
      </trkpt>
      <trkpt lat="44.19396" lon="3.23708">
        <ele>770.07</ele>
        <time>2026-04-23T14:50:36.544Z</time>
      </trkpt>
      <trkpt lat="44.1939" lon="3.23708">
        <ele>769.68</ele>
        <time>2026-04-23T14:50:41.581Z</time>
      </trkpt>
      <trkpt lat="44.19385" lon="3.23705">
        <ele>768.66</ele>
        <time>2026-04-23T14:50:46.703Z</time>
      </trkpt>
      <trkpt lat="44.19384" lon="3.23695">
        <ele>768.22</ele>
        <time>2026-04-23T14:50:52.619Z</time>
      </trkpt>
      <trkpt lat="44.19382" lon="3.23695">
        <ele>768.32</ele>
        <time>2026-04-23T14:50:58.556Z</time>
      </trkpt>
      <trkpt lat="44.19381" lon="3.23694">
        <ele>767.56</ele>
        <time>2026-04-23T14:51:07.143Z</time>
      </trkpt>
      <trkpt lat="44.19376" lon="3.23691">
        <ele>765.62</ele>
        <time>2026-04-23T14:51:12.651Z</time>
      </trkpt>
      <trkpt lat="44.19369" lon="3.23685">
        <ele>765.58</ele>
        <time>2026-04-23T14:51:18.635Z</time>
      </trkpt>
      <trkpt lat="44.19363" lon="3.23675">
        <ele>765.81</ele>
        <time>2026-04-23T14:51:24.616Z</time>
      </trkpt>
      <trkpt lat="44.19359" lon="3.23668">
        <ele>764.63</ele>
        <time>2026-04-23T14:51:30.081Z</time>
      </trkpt>
      <trkpt lat="44.19358" lon="3.23657">
        <ele>764.56</ele>
        <time>2026-04-23T14:51:35.257Z</time>
      </trkpt>
      <trkpt lat="44.19362" lon="3.23646">
        <ele>765.38</ele>
        <time>2026-04-23T14:51:40.622Z</time>
      </trkpt>
      <trkpt lat="44.19364" lon="3.23633">
        <ele>765.24</ele>
        <time>2026-04-23T14:51:46.240Z</time>
      </trkpt>
      <trkpt lat="44.19368" lon="3.23626">
        <ele>765.81</ele>
        <time>2026-04-23T14:51:51.300Z</time>
      </trkpt>
      <trkpt lat="44.19374" lon="3.23623">
        <ele>765.71</ele>
        <time>2026-04-23T14:51:56.680Z</time>
      </trkpt>
      <trkpt lat="44.19379" lon="3.2362">
        <ele>766.4</ele>
        <time>2026-04-23T14:52:01.838Z</time>
      </trkpt>
      <trkpt lat="44.19384" lon="3.23615">
        <ele>766.71</ele>
        <time>2026-04-23T14:52:07.621Z</time>
      </trkpt>
      <trkpt lat="44.19383" lon="3.23608">
        <ele>766.51</ele>
        <time>2026-04-23T14:52:12.637Z</time>
      </trkpt>
      <trkpt lat="44.19383" lon="3.23605">
        <ele>767.05</ele>
        <time>2026-04-23T14:52:17.694Z</time>
      </trkpt>
      <trkpt lat="44.19387" lon="3.23599">
        <ele>766.9</ele>
        <time>2026-04-23T14:52:23.628Z</time>
      </trkpt>
      <trkpt lat="44.19391" lon="3.23598">
        <ele>766.98</ele>
        <time>2026-04-23T14:52:29.255Z</time>
      </trkpt>
      <trkpt lat="44.19395" lon="3.23591">
        <ele>767.36</ele>
        <time>2026-04-23T14:52:34.651Z</time>
      </trkpt>
      <trkpt lat="44.19396" lon="3.2358">
        <ele>769.44</ele>
        <time>2026-04-23T14:52:39.748Z</time>
      </trkpt>
      <trkpt lat="44.19399" lon="3.23572">
        <ele>768.99</ele>
        <time>2026-04-23T14:52:45.673Z</time>
      </trkpt>
      <trkpt lat="44.19401" lon="3.23565">
        <ele>768.71</ele>
        <time>2026-04-23T14:52:50.681Z</time>
      </trkpt>
      <trkpt lat="44.19399" lon="3.23559">
        <ele>769.06</ele>
        <time>2026-04-23T14:52:56.159Z</time>
      </trkpt>
      <trkpt lat="44.19397" lon="3.23555">
        <ele>769.45</ele>
        <time>2026-04-23T14:53:01.476Z</time>
      </trkpt>
      <trkpt lat="44.19393" lon="3.23547">
        <ele>769.12</ele>
        <time>2026-04-23T14:53:07.721Z</time>
      </trkpt>
      <trkpt lat="44.19389" lon="3.23545">
        <ele>768.6</ele>
        <time>2026-04-23T14:53:13.038Z</time>
      </trkpt>
      <trkpt lat="44.19384" lon="3.23543">
        <ele>768.82</ele>
        <time>2026-04-23T14:53:18.100Z</time>
      </trkpt>
      <trkpt lat="44.19377" lon="3.23541">
        <ele>767.67</ele>
        <time>2026-04-23T14:53:23.176Z</time>
      </trkpt>
      <trkpt lat="44.19371" lon="3.23538">
        <ele>767.11</ele>
        <time>2026-04-23T14:53:28.631Z</time>
      </trkpt>
      <trkpt lat="44.19368" lon="3.23536">
        <ele>765.83</ele>
        <time>2026-04-23T14:53:34.042Z</time>
      </trkpt>
      <trkpt lat="44.19367" lon="3.23533">
        <ele>764.57</ele>
        <time>2026-04-23T14:53:39.622Z</time>
      </trkpt>
      <trkpt lat="44.19365" lon="3.23532">
        <ele>764.06</ele>
        <time>2026-04-23T14:53:44.638Z</time>
      </trkpt>
      <trkpt lat="44.19359" lon="3.2353">
        <ele>763.4</ele>
        <time>2026-04-23T14:53:49.653Z</time>
      </trkpt>
      <trkpt lat="44.19353" lon="3.23529">
        <ele>763.04</ele>
        <time>2026-04-23T14:53:54.662Z</time>
      </trkpt>
      <trkpt lat="44.19346" lon="3.23525">
        <ele>762.93</ele>
        <time>2026-04-23T14:54:00.095Z</time>
      </trkpt>
      <trkpt lat="44.19341" lon="3.23523">
        <ele>762.19</ele>
        <time>2026-04-23T14:54:05.365Z</time>
      </trkpt>
      <trkpt lat="44.19341" lon="3.23516">
        <ele>761.28</ele>
        <time>2026-04-23T14:54:10.854Z</time>
      </trkpt>
      <trkpt lat="44.19341" lon="3.23508">
        <ele>762.85</ele>
        <time>2026-04-23T14:54:16.395Z</time>
      </trkpt>
      <trkpt lat="44.19343" lon="3.23505">
        <ele>762.81</ele>
        <time>2026-04-23T14:54:21.694Z</time>
      </trkpt>
      <trkpt lat="44.19342" lon="3.23497">
        <ele>763.45</ele>
        <time>2026-04-23T14:54:27.137Z</time>
      </trkpt>
      <trkpt lat="44.19344" lon="3.2349">
        <ele>763.32</ele>
        <time>2026-04-23T14:54:32.420Z</time>
      </trkpt>
      <trkpt lat="44.19344" lon="3.23484">
        <ele>762.73</ele>
        <time>2026-04-23T14:54:37.680Z</time>
      </trkpt>
      <trkpt lat="44.19348" lon="3.23479">
        <ele>763.07</ele>
        <time>2026-04-23T14:54:43.655Z</time>
      </trkpt>
      <trkpt lat="44.19352" lon="3.23472">
        <ele>762.84</ele>
        <time>2026-04-23T14:54:48.671Z</time>
      </trkpt>
      <trkpt lat="44.19353" lon="3.23473">
        <ele>762.8</ele>
        <time>2026-04-23T14:54:55.713Z</time>
      </trkpt>
      <trkpt lat="44.19352" lon="3.23475">
        <ele>762.38</ele>
        <time>2026-04-23T14:55:05.646Z</time>
      </trkpt>
      <trkpt lat="44.19353" lon="3.23473">
        <ele>762.65</ele>
        <time>2026-04-23T14:55:16.637Z</time>
      </trkpt>
      <trkpt lat="44.19353" lon="3.23472">
        <ele>764.23</ele>
        <time>2026-04-23T14:55:24.640Z</time>
      </trkpt>
      <trkpt lat="44.19354" lon="3.23471">
        <ele>762.16</ele>
        <time>2026-04-23T14:55:32.644Z</time>
      </trkpt>
      <trkpt lat="44.19354" lon="3.23466">
        <ele>761.63</ele>
        <time>2026-04-23T14:55:38.101Z</time>
      </trkpt>
      <trkpt lat="44.19356" lon="3.23459">
        <ele>765.18</ele>
        <time>2026-04-23T14:55:43.636Z</time>
      </trkpt>
      <trkpt lat="44.19361" lon="3.23453">
        <ele>766.23</ele>
        <time>2026-04-23T14:55:48.949Z</time>
      </trkpt>
      <trkpt lat="44.19364" lon="3.23446">
        <ele>765.74</ele>
        <time>2026-04-23T14:55:54.452Z</time>
      </trkpt>
      <trkpt lat="44.19361" lon="3.23443">
        <ele>763.86</ele>
        <time>2026-04-23T14:55:59.709Z</time>
      </trkpt>
      <trkpt lat="44.19359" lon="3.2344">
        <ele>763.66</ele>
        <time>2026-04-23T14:56:04.994Z</time>
      </trkpt>
      <trkpt lat="44.19362" lon="3.23431">
        <ele>764.53</ele>
        <time>2026-04-23T14:56:10.408Z</time>
      </trkpt>
      <trkpt lat="44.19366" lon="3.23429">
        <ele>764.66</ele>
        <time>2026-04-23T14:56:15.674Z</time>
      </trkpt>
      <trkpt lat="44.19367" lon="3.23429">
        <ele>765.69</ele>
        <time>2026-04-23T14:56:21.744Z</time>
      </trkpt>
      <trkpt lat="44.19368" lon="3.23422">
        <ele>766.84</ele>
        <time>2026-04-23T14:56:27.446Z</time>
      </trkpt>
      <trkpt lat="44.19367" lon="3.23411">
        <ele>767.32</ele>
        <time>2026-04-23T14:56:32.738Z</time>
      </trkpt>
      <trkpt lat="44.19362" lon="3.23401">
        <ele>768.81</ele>
        <time>2026-04-23T14:56:38.738Z</time>
      </trkpt>
      <trkpt lat="44.19359" lon="3.23395">
        <ele>769.93</ele>
        <time>2026-04-23T14:56:44.532Z</time>
      </trkpt>
      <trkpt lat="44.19358" lon="3.2339">
        <ele>770.88</ele>
        <time>2026-04-23T14:56:49.703Z</time>
      </trkpt>
      <trkpt lat="44.19353" lon="3.23385">
        <ele>771.2</ele>
        <time>2026-04-23T14:56:55.639Z</time>
      </trkpt>
      <trkpt lat="44.19357" lon="3.23379">
        <ele>772.01</ele>
        <time>2026-04-23T14:57:00.694Z</time>
      </trkpt>
      <trkpt lat="44.19362" lon="3.23374">
        <ele>772.65</ele>
        <time>2026-04-23T14:57:06.670Z</time>
      </trkpt>
      <trkpt lat="44.19366" lon="3.2337">
        <ele>773.29</ele>
        <time>2026-04-23T14:57:12.107Z</time>
      </trkpt>
      <trkpt lat="44.19369" lon="3.23365">
        <ele>774.1</ele>
        <time>2026-04-23T14:57:17.603Z</time>
      </trkpt>
      <trkpt lat="44.1937" lon="3.23362">
        <ele>775.66</ele>
        <time>2026-04-23T14:57:22.680Z</time>
      </trkpt>
      <trkpt lat="44.19372" lon="3.23362">
        <ele>775.55</ele>
        <time>2026-04-23T14:57:27.703Z</time>
      </trkpt>
      <trkpt lat="44.19373" lon="3.23361">
        <ele>775.79</ele>
        <time>2026-04-23T14:57:35.949Z</time>
      </trkpt>
      <trkpt lat="44.19377" lon="3.23359">
        <ele>779.06</ele>
        <time>2026-04-23T14:57:41.062Z</time>
      </trkpt>
      <trkpt lat="44.19378" lon="3.23358">
        <ele>779.51</ele>
        <time>2026-04-23T14:57:46.343Z</time>
      </trkpt>
      <trkpt lat="44.1938" lon="3.23357">
        <ele>779.95</ele>
        <time>2026-04-23T14:57:51.701Z</time>
      </trkpt>
      <trkpt lat="44.19382" lon="3.23357">
        <ele>779.88</ele>
        <time>2026-04-23T14:57:57.230Z</time>
      </trkpt>
      <trkpt lat="44.19383" lon="3.23355">
        <ele>781.21</ele>
        <time>2026-04-23T14:58:02.562Z</time>
      </trkpt>
      <trkpt lat="44.19385" lon="3.23352">
        <ele>783.86</ele>
        <time>2026-04-23T14:58:07.738Z</time>
      </trkpt>
      <trkpt lat="44.19387" lon="3.23349">
        <ele>785</ele>
        <time>2026-04-23T14:58:13.738Z</time>
      </trkpt>
      <trkpt lat="44.19388" lon="3.23348">
        <ele>785.26</ele>
        <time>2026-04-23T14:58:18.738Z</time>
      </trkpt>
      <trkpt lat="44.19389" lon="3.23347">
        <ele>785.18</ele>
        <time>2026-04-23T14:58:24.738Z</time>
      </trkpt>
      <trkpt lat="44.1939" lon="3.23346">
        <ele>785.41</ele>
        <time>2026-04-23T14:58:30.641Z</time>
      </trkpt>
      <trkpt lat="44.19391" lon="3.23344">
        <ele>785.56</ele>
        <time>2026-04-23T14:58:35.738Z</time>
      </trkpt>
      <trkpt lat="44.1939" lon="3.23343">
        <ele>788.52</ele>
        <time>2026-04-23T14:58:41.749Z</time>
      </trkpt>
      <trkpt lat="44.19391" lon="3.23341">
        <ele>790.48</ele>
        <time>2026-04-23T14:58:53.738Z</time>
      </trkpt>
      <trkpt lat="44.19391" lon="3.23343">
        <ele>792.19</ele>
        <time>2026-04-23T14:59:14.737Z</time>
      </trkpt>
      <trkpt lat="44.19392" lon="3.23343">
        <ele>791.91</ele>
        <time>2026-04-23T14:59:20.737Z</time>
      </trkpt>
      <trkpt lat="44.19394" lon="3.23341">
        <ele>791.18</ele>
        <time>2026-04-23T14:59:25.738Z</time>
      </trkpt>
      <trkpt lat="44.19395" lon="3.23337">
        <ele>793.59</ele>
        <time>2026-04-23T14:59:31.019Z</time>
      </trkpt>
      <trkpt lat="44.19394" lon="3.23332">
        <ele>795.14</ele>
        <time>2026-04-23T14:59:36.397Z</time>
      </trkpt>
      <trkpt lat="44.19392" lon="3.23326">
        <ele>796.6</ele>
        <time>2026-04-23T14:59:41.536Z</time>
      </trkpt>
      <trkpt lat="44.1939" lon="3.23322">
        <ele>797.18</ele>
        <time>2026-04-23T14:59:46.738Z</time>
      </trkpt>
      <trkpt lat="44.1939" lon="3.2332">
        <ele>797.02</ele>
        <time>2026-04-23T14:59:52.537Z</time>
      </trkpt>
      <trkpt lat="44.19386" lon="3.23312">
        <ele>797.76</ele>
        <time>2026-04-23T14:59:57.898Z</time>
      </trkpt>
      <trkpt lat="44.19384" lon="3.23307">
        <ele>797.8</ele>
        <time>2026-04-23T15:00:03.075Z</time>
      </trkpt>
      <trkpt lat="44.19384" lon="3.233">
        <ele>798.34</ele>
        <time>2026-04-23T15:00:08.232Z</time>
      </trkpt>
      <trkpt lat="44.19381" lon="3.23293">
        <ele>797.84</ele>
        <time>2026-04-23T15:00:13.635Z</time>
      </trkpt>
      <trkpt lat="44.19379" lon="3.23286">
        <ele>797.87</ele>
        <time>2026-04-23T15:00:18.650Z</time>
      </trkpt>
      <trkpt lat="44.19377" lon="3.23278">
        <ele>796.92</ele>
        <time>2026-04-23T15:00:24.052Z</time>
      </trkpt>
      <trkpt lat="44.19377" lon="3.23271">
        <ele>796.65</ele>
        <time>2026-04-23T15:00:29.137Z</time>
      </trkpt>
      <trkpt lat="44.19377" lon="3.23267">
        <ele>797.43</ele>
        <time>2026-04-23T15:00:34.554Z</time>
      </trkpt>
      <trkpt lat="44.19377" lon="3.23268">
        <ele>796.5</ele>
        <time>2026-04-23T15:00:40.738Z</time>
      </trkpt>
      <trkpt lat="44.19377" lon="3.23266">
        <ele>796.24</ele>
        <time>2026-04-23T15:00:46.238Z</time>
      </trkpt>
      <trkpt lat="44.19376" lon="3.23262">
        <ele>795.29</ele>
        <time>2026-04-23T15:00:51.622Z</time>
      </trkpt>
      <trkpt lat="44.19377" lon="3.23262">
        <ele>794.77</ele>
        <time>2026-04-23T15:00:56.743Z</time>
      </trkpt>
      <trkpt lat="44.19377" lon="3.2326">
        <ele>796</ele>
        <time>2026-04-23T15:01:08.598Z</time>
      </trkpt>
      <trkpt lat="44.19377" lon="3.23259">
        <ele>795.92</ele>
        <time>2026-04-23T15:01:14.673Z</time>
      </trkpt>
      <trkpt lat="44.19379" lon="3.23264">
        <ele>796.08</ele>
        <time>2026-04-23T15:01:20.656Z</time>
      </trkpt>
      <trkpt lat="44.1938" lon="3.23266">
        <ele>796.23</ele>
        <time>2026-04-23T15:01:26.157Z</time>
      </trkpt>
      <trkpt lat="44.19381" lon="3.23264">
        <ele>798.65</ele>
        <time>2026-04-23T15:01:35.413Z</time>
      </trkpt>
      <trkpt lat="44.19384" lon="3.23264">
        <ele>799.44</ele>
        <time>2026-04-23T15:01:40.630Z</time>
      </trkpt>
      <trkpt lat="44.19387" lon="3.23272">
        <ele>799.07</ele>
        <time>2026-04-23T15:01:45.809Z</time>
      </trkpt>
      <trkpt lat="44.19387" lon="3.23282">
        <ele>799.1</ele>
        <time>2026-04-23T15:01:51.101Z</time>
      </trkpt>
      <trkpt lat="44.19387" lon="3.23286">
        <ele>798.61</ele>
        <time>2026-04-23T15:01:56.375Z</time>
      </trkpt>
      <trkpt lat="44.19385" lon="3.23287">
        <ele>799.06</ele>
        <time>2026-04-23T15:02:01.653Z</time>
      </trkpt>
      <trkpt lat="44.19384" lon="3.23286">
        <ele>798.63</ele>
        <time>2026-04-23T15:02:06.738Z</time>
      </trkpt>
      <trkpt lat="44.19385" lon="3.23286">
        <ele>799.14</ele>
        <time>2026-04-23T15:02:12.638Z</time>
      </trkpt>
      <trkpt lat="44.19391" lon="3.23284">
        <ele>799.07</ele>
        <time>2026-04-23T15:02:18.737Z</time>
      </trkpt>
      <trkpt lat="44.19396" lon="3.23286">
        <ele>799.67</ele>
        <time>2026-04-23T15:02:23.742Z</time>
      </trkpt>
      <trkpt lat="44.19403" lon="3.23288">
        <ele>801.96</ele>
        <time>2026-04-23T15:02:28.823Z</time>
      </trkpt>
      <trkpt lat="44.19407" lon="3.23289">
        <ele>801.55</ele>
        <time>2026-04-23T15:02:34.408Z</time>
      </trkpt>
      <trkpt lat="44.19409" lon="3.23281">
        <ele>800.99</ele>
        <time>2026-04-23T15:02:39.707Z</time>
      </trkpt>
      <trkpt lat="44.19411" lon="3.23272">
        <ele>800.1</ele>
        <time>2026-04-23T15:02:45.676Z</time>
      </trkpt>
      <trkpt lat="44.19417" lon="3.23269">
        <ele>799.47</ele>
        <time>2026-04-23T15:02:50.724Z</time>
      </trkpt>
      <trkpt lat="44.1942" lon="3.23271">
        <ele>799.77</ele>
        <time>2026-04-23T15:02:56.618Z</time>
      </trkpt>
      <trkpt lat="44.19419" lon="3.23272">
        <ele>800.28</ele>
        <time>2026-04-23T15:03:02.593Z</time>
      </trkpt>
      <trkpt lat="44.19419" lon="3.23271">
        <ele>801.05</ele>
        <time>2026-04-23T15:03:09.667Z</time>
      </trkpt>
      <trkpt lat="44.19419" lon="3.23267">
        <ele>799.49</ele>
        <time>2026-04-23T15:03:15.281Z</time>
      </trkpt>
      <trkpt lat="44.19413" lon="3.23261">
        <ele>798.61</ele>
        <time>2026-04-23T15:03:20.563Z</time>
      </trkpt>
      <trkpt lat="44.19411" lon="3.23254">
        <ele>798.18</ele>
        <time>2026-04-23T15:03:26.201Z</time>
      </trkpt>
      <trkpt lat="44.19411" lon="3.23251">
        <ele>797.9</ele>
        <time>2026-04-23T15:03:31.620Z</time>
      </trkpt>
      <trkpt lat="44.19413" lon="3.23251">
        <ele>797.89</ele>
        <time>2026-04-23T15:03:36.636Z</time>
      </trkpt>
      <trkpt lat="44.19415" lon="3.23255">
        <ele>797.46</ele>
        <time>2026-04-23T15:03:41.652Z</time>
      </trkpt>
      <trkpt lat="44.19415" lon="3.23256">
        <ele>798.18</ele>
        <time>2026-04-23T15:03:49.656Z</time>
      </trkpt>
      <trkpt lat="44.19416" lon="3.23257">
        <ele>798.09</ele>
        <time>2026-04-23T15:04:10.738Z</time>
      </trkpt>
      <trkpt lat="44.19418" lon="3.23258">
        <ele>797.59</ele>
        <time>2026-04-23T15:04:16.437Z</time>
      </trkpt>
      <trkpt lat="44.19421" lon="3.2326">
        <ele>798.18</ele>
        <time>2026-04-23T15:04:21.701Z</time>
      </trkpt>
      <trkpt lat="44.19428" lon="3.23268">
        <ele>798.05</ele>
        <time>2026-04-23T15:04:28.514Z</time>
      </trkpt>
      <trkpt lat="44.19423" lon="3.23277">
        <ele>798.47</ele>
        <time>2026-04-23T15:04:33.734Z</time>
      </trkpt>
      <trkpt lat="44.19428" lon="3.23281">
        <ele>798.81</ele>
        <time>2026-04-23T15:04:39.115Z</time>
      </trkpt>
      <trkpt lat="44.19436" lon="3.23285">
        <ele>799.02</ele>
        <time>2026-04-23T15:04:44.738Z</time>
      </trkpt>
      <trkpt lat="44.19436" lon="3.23293">
        <ele>800.45</ele>
        <time>2026-04-23T15:04:50.312Z</time>
      </trkpt>
      <trkpt lat="44.19433" lon="3.23304">
        <ele>802.28</ele>
        <time>2026-04-23T15:04:56.019Z</time>
      </trkpt>
      <trkpt lat="44.19429" lon="3.23306">
        <ele>803.4</ele>
        <time>2026-04-23T15:05:01.265Z</time>
      </trkpt>
      <trkpt lat="44.19429" lon="3.23302">
        <ele>804.43</ele>
        <time>2026-04-23T15:05:07.100Z</time>
      </trkpt>
      <trkpt lat="44.19431" lon="3.23296">
        <ele>805.15</ele>
        <time>2026-04-23T15:05:12.738Z</time>
      </trkpt>
      <trkpt lat="44.19434" lon="3.23297">
        <ele>807.32</ele>
        <time>2026-04-23T15:05:17.750Z</time>
      </trkpt>
      <trkpt lat="44.19438" lon="3.23298">
        <ele>807.3</ele>
        <time>2026-04-23T15:05:23.650Z</time>
      </trkpt>
      <trkpt lat="44.19443" lon="3.23292">
        <ele>807.84</ele>
        <time>2026-04-23T15:05:29.197Z</time>
      </trkpt>
      <trkpt lat="44.19439" lon="3.23283">
        <ele>808.38</ele>
        <time>2026-04-23T15:05:34.492Z</time>
      </trkpt>
      <trkpt lat="44.1944" lon="3.2327">
        <ele>807.54</ele>
        <time>2026-04-23T15:05:39.952Z</time>
      </trkpt>
      <trkpt lat="44.19443" lon="3.2326">
        <ele>807.64</ele>
        <time>2026-04-23T15:05:45.429Z</time>
      </trkpt>
      <trkpt lat="44.19442" lon="3.23251">
        <ele>807.5</ele>
        <time>2026-04-23T15:05:51.554Z</time>
      </trkpt>
      <trkpt lat="44.1944" lon="3.23244">
        <ele>807.59</ele>
        <time>2026-04-23T15:05:56.650Z</time>
      </trkpt>
      <trkpt lat="44.19438" lon="3.23235">
        <ele>807.29</ele>
        <time>2026-04-23T15:06:01.715Z</time>
      </trkpt>
      <trkpt lat="44.19443" lon="3.23233">
        <ele>807.4</ele>
        <time>2026-04-23T15:06:07.234Z</time>
      </trkpt>
      <trkpt lat="44.1945" lon="3.23235">
        <ele>807.74</ele>
        <time>2026-04-23T15:06:12.705Z</time>
      </trkpt>
      <trkpt lat="44.19453" lon="3.23242">
        <ele>808.29</ele>
        <time>2026-04-23T15:06:18.682Z</time>
      </trkpt>
      <trkpt lat="44.19456" lon="3.23247">
        <ele>808.65</ele>
        <time>2026-04-23T15:06:24.546Z</time>
      </trkpt>
      <trkpt lat="44.19459" lon="3.23249">
        <ele>809.61</ele>
        <time>2026-04-23T15:06:29.572Z</time>
      </trkpt>
      <trkpt lat="44.19465" lon="3.23251">
        <ele>809.39</ele>
        <time>2026-04-23T15:06:35.092Z</time>
      </trkpt>
      <trkpt lat="44.19471" lon="3.23249">
        <ele>809.75</ele>
        <time>2026-04-23T15:06:40.633Z</time>
      </trkpt>
      <trkpt lat="44.19477" lon="3.23249">
        <ele>810.91</ele>
        <time>2026-04-23T15:06:46.413Z</time>
      </trkpt>
      <trkpt lat="44.19481" lon="3.23245">
        <ele>810.66</ele>
        <time>2026-04-23T15:06:51.435Z</time>
      </trkpt>
      <trkpt lat="44.19482" lon="3.23237">
        <ele>811.53</ele>
        <time>2026-04-23T15:06:57.153Z</time>
      </trkpt>
      <trkpt lat="44.19483" lon="3.2323">
        <ele>811.66</ele>
        <time>2026-04-23T15:07:02.753Z</time>
      </trkpt>
      <trkpt lat="44.19484" lon="3.23224">
        <ele>811.71</ele>
        <time>2026-04-23T15:07:08.738Z</time>
      </trkpt>
      <trkpt lat="44.19486" lon="3.23222">
        <ele>811.43</ele>
        <time>2026-04-23T15:07:14.380Z</time>
      </trkpt>
      <trkpt lat="44.19486" lon="3.23218">
        <ele>811.38</ele>
        <time>2026-04-23T15:07:19.613Z</time>
      </trkpt>
      <trkpt lat="44.19485" lon="3.23217">
        <ele>811.78</ele>
        <time>2026-04-23T15:07:24.735Z</time>
      </trkpt>
      <trkpt lat="44.19485" lon="3.23216">
        <ele>810.58</ele>
        <time>2026-04-23T15:07:33.498Z</time>
      </trkpt>
      <trkpt lat="44.19483" lon="3.23214">
        <ele>810.96</ele>
        <time>2026-04-23T15:07:38.512Z</time>
      </trkpt>
      <trkpt lat="44.1948" lon="3.23209">
        <ele>810.26</ele>
        <time>2026-04-23T15:07:43.599Z</time>
      </trkpt>
      <trkpt lat="44.19478" lon="3.23201">
        <ele>809.8</ele>
        <time>2026-04-23T15:07:48.934Z</time>
      </trkpt>
      <trkpt lat="44.19474" lon="3.23195">
        <ele>810.52</ele>
        <time>2026-04-23T15:07:54.639Z</time>
      </trkpt>
      <trkpt lat="44.19473" lon="3.23191">
        <ele>809.09</ele>
        <time>2026-04-23T15:08:00.256Z</time>
      </trkpt>
      <trkpt lat="44.19472" lon="3.23186">
        <ele>808.88</ele>
        <time>2026-04-23T15:08:06.196Z</time>
      </trkpt>
      <trkpt lat="44.19473" lon="3.23185">
        <ele>808.47</ele>
        <time>2026-04-23T15:08:11.592Z</time>
      </trkpt>
      <trkpt lat="44.19472" lon="3.23185">
        <ele>807.87</ele>
        <time>2026-04-23T15:08:21.660Z</time>
      </trkpt>
      <trkpt lat="44.19471" lon="3.23179">
        <ele>806.22</ele>
        <time>2026-04-23T15:08:27.065Z</time>
      </trkpt>
      <trkpt lat="44.19468" lon="3.23173">
        <ele>805.44</ele>
        <time>2026-04-23T15:08:32.461Z</time>
      </trkpt>
      <trkpt lat="44.19466" lon="3.23168">
        <ele>803.98</ele>
        <time>2026-04-23T15:08:37.619Z</time>
      </trkpt>
      <trkpt lat="44.19466" lon="3.23167">
        <ele>804.19</ele>
        <time>2026-04-23T15:08:44.424Z</time>
      </trkpt>
      <trkpt lat="44.19464" lon="3.23168">
        <ele>803.9</ele>
        <time>2026-04-23T15:08:49.808Z</time>
      </trkpt>
      <trkpt lat="44.19463" lon="3.23167">
        <ele>802.45</ele>
        <time>2026-04-23T15:08:55.476Z</time>
      </trkpt>
      <trkpt lat="44.19461" lon="3.23167">
        <ele>801.57</ele>
        <time>2026-04-23T15:09:00.691Z</time>
      </trkpt>
      <trkpt lat="44.19459" lon="3.23167">
        <ele>800.75</ele>
        <time>2026-04-23T15:09:05.707Z</time>
      </trkpt>
      <trkpt lat="44.19455" lon="3.23167">
        <ele>799.84</ele>
        <time>2026-04-23T15:09:11.677Z</time>
      </trkpt>
      <trkpt lat="44.19455" lon="3.23166">
        <ele>798.68</ele>
        <time>2026-04-23T15:09:21.139Z</time>
      </trkpt>
      <trkpt lat="44.19453" lon="3.23163">
        <ele>797.6</ele>
        <time>2026-04-23T15:09:26.375Z</time>
      </trkpt>
      <trkpt lat="44.19451" lon="3.23161">
        <ele>797.36</ele>
        <time>2026-04-23T15:09:31.637Z</time>
      </trkpt>
      <trkpt lat="44.19448" lon="3.23154">
        <ele>796.54</ele>
        <time>2026-04-23T15:09:37.341Z</time>
      </trkpt>
      <trkpt lat="44.19444" lon="3.23147">
        <ele>796.84</ele>
        <time>2026-04-23T15:09:42.480Z</time>
      </trkpt>
      <trkpt lat="44.19442" lon="3.23138">
        <ele>796.35</ele>
        <time>2026-04-23T15:09:48.242Z</time>
      </trkpt>
      <trkpt lat="44.19441" lon="3.23137">
        <ele>795.91</ele>
        <time>2026-04-23T15:09:53.480Z</time>
      </trkpt>
      <trkpt lat="44.19439" lon="3.23135">
        <ele>795.39</ele>
        <time>2026-04-23T15:09:58.620Z</time>
      </trkpt>
      <trkpt lat="44.19437" lon="3.23133">
        <ele>794.73</ele>
        <time>2026-04-23T15:10:03.738Z</time>
      </trkpt>
      <trkpt lat="44.19431" lon="3.23128">
        <ele>794.47</ele>
        <time>2026-04-23T15:10:09.390Z</time>
      </trkpt>
      <trkpt lat="44.19428" lon="3.23126">
        <ele>793.99</ele>
        <time>2026-04-23T15:10:14.547Z</time>
      </trkpt>
      <trkpt lat="44.19426" lon="3.23126">
        <ele>793.18</ele>
        <time>2026-04-23T15:10:19.553Z</time>
      </trkpt>
      <trkpt lat="44.19425" lon="3.23124">
        <ele>792.12</ele>
        <time>2026-04-23T15:10:24.831Z</time>
      </trkpt>
      <trkpt lat="44.19419" lon="3.2312">
        <ele>791.53</ele>
        <time>2026-04-23T15:10:30.108Z</time>
      </trkpt>
      <trkpt lat="44.19417" lon="3.23116">
        <ele>790.49</ele>
        <time>2026-04-23T15:10:35.629Z</time>
      </trkpt>
      <trkpt lat="44.19412" lon="3.23117">
        <ele>790.3</ele>
        <time>2026-04-23T15:10:41.728Z</time>
      </trkpt>
      <trkpt lat="44.19413" lon="3.23109">
        <ele>789.29</ele>
        <time>2026-04-23T15:10:47.491Z</time>
      </trkpt>
      <trkpt lat="44.19412" lon="3.2311">
        <ele>788.63</ele>
        <time>2026-04-23T15:10:52.645Z</time>
      </trkpt>
      <trkpt lat="44.19412" lon="3.23109">
        <ele>787.57</ele>
        <time>2026-04-23T15:11:01.738Z</time>
      </trkpt>
      <trkpt lat="44.19411" lon="3.23108">
        <ele>787.19</ele>
        <time>2026-04-23T15:11:10.682Z</time>
      </trkpt>
      <trkpt lat="44.19411" lon="3.23106">
        <ele>785.25</ele>
        <time>2026-04-23T15:11:21.738Z</time>
      </trkpt>
      <trkpt lat="44.19411" lon="3.23105">
        <ele>784.54</ele>
        <time>2026-04-23T15:11:27.541Z</time>
      </trkpt>
      <trkpt lat="44.1941" lon="3.23103">
        <ele>783.82</ele>
        <time>2026-04-23T15:11:32.766Z</time>
      </trkpt>
      <trkpt lat="44.1941" lon="3.23101">
        <ele>783.74</ele>
        <time>2026-04-23T15:11:38.742Z</time>
      </trkpt>
      <trkpt lat="44.19411" lon="3.23094">
        <ele>783.81</ele>
        <time>2026-04-23T15:11:44.461Z</time>
      </trkpt>
      <trkpt lat="44.19411" lon="3.23088">
        <ele>781.69</ele>
        <time>2026-04-23T15:11:50.199Z</time>
      </trkpt>
      <trkpt lat="44.1941" lon="3.23087">
        <ele>781.17</ele>
        <time>2026-04-23T15:11:55.543Z</time>
      </trkpt>
      <trkpt lat="44.19409" lon="3.23088">
        <ele>780.74</ele>
        <time>2026-04-23T15:12:00.961Z</time>
      </trkpt>
      <trkpt lat="44.19408" lon="3.23088">
        <ele>780.38</ele>
        <time>2026-04-23T15:12:08.418Z</time>
      </trkpt>
      <trkpt lat="44.19406" lon="3.23088">
        <ele>779.35</ele>
        <time>2026-04-23T15:12:14.808Z</time>
      </trkpt>
      <trkpt lat="44.19405" lon="3.23087">
        <ele>777.99</ele>
        <time>2026-04-23T15:12:23.772Z</time>
      </trkpt>
      <trkpt lat="44.19408" lon="3.23065">
        <ele>772.79</ele>
        <time>2026-04-23T15:13:07.574Z</time>
      </trkpt>
      <trkpt lat="44.19409" lon="3.23064">
        <ele>772.03</ele>
        <time>2026-04-23T15:13:12.575Z</time>
      </trkpt>
      <trkpt lat="44.19408" lon="3.23065">
        <ele>771.88</ele>
        <time>2026-04-23T15:13:17.738Z</time>
      </trkpt>
      <trkpt lat="44.19406" lon="3.23066">
        <ele>770.9</ele>
        <time>2026-04-23T15:13:22.738Z</time>
      </trkpt>
      <trkpt lat="44.19405" lon="3.23066">
        <ele>769.88</ele>
        <time>2026-04-23T15:13:27.738Z</time>
      </trkpt>
      <trkpt lat="44.19402" lon="3.23069">
        <ele>769.53</ele>
        <time>2026-04-23T15:13:32.739Z</time>
      </trkpt>
      <trkpt lat="44.19399" lon="3.23073">
        <ele>769.61</ele>
        <time>2026-04-23T15:13:38.714Z</time>
      </trkpt>
      <trkpt lat="44.19398" lon="3.23074">
        <ele>769.96</ele>
        <time>2026-04-23T15:13:44.690Z</time>
      </trkpt>
      <trkpt lat="44.19397" lon="3.23075">
        <ele>769.16</ele>
        <time>2026-04-23T15:13:51.626Z</time>
      </trkpt>
      <trkpt lat="44.19397" lon="3.23076">
        <ele>768.52</ele>
        <time>2026-04-23T15:13:56.650Z</time>
      </trkpt>
      <trkpt lat="44.19397" lon="3.23077">
        <ele>769.2</ele>
        <time>2026-04-23T15:14:04.653Z</time>
      </trkpt>
      <trkpt lat="44.19396" lon="3.23079">
        <ele>768.78</ele>
        <time>2026-04-23T15:14:09.668Z</time>
      </trkpt>
      <trkpt lat="44.19396" lon="3.23081">
        <ele>770.61</ele>
        <time>2026-04-23T15:14:20.659Z</time>
      </trkpt>
      <trkpt lat="44.19397" lon="3.23081">
        <ele>770.15</ele>
        <time>2026-04-23T15:14:28.663Z</time>
      </trkpt>
      <trkpt lat="44.19396" lon="3.23083">
        <ele>769.91</ele>
        <time>2026-04-23T15:14:33.679Z</time>
      </trkpt>
      <trkpt lat="44.19393" lon="3.23084">
        <ele>769.9</ele>
        <time>2026-04-23T15:14:38.694Z</time>
      </trkpt>
      <trkpt lat="44.19391" lon="3.23084">
        <ele>770.13</ele>
        <time>2026-04-23T15:14:44.670Z</time>
      </trkpt>
      <trkpt lat="44.1939" lon="3.23084">
        <ele>769.21</ele>
        <time>2026-04-23T15:14:49.686Z</time>
      </trkpt>
      <trkpt lat="44.19391" lon="3.23084">
        <ele>769.74</ele>
        <time>2026-04-23T15:14:56.621Z</time>
      </trkpt>
      <trkpt lat="44.19392" lon="3.23082">
        <ele>768.84</ele>
        <time>2026-04-23T15:15:01.638Z</time>
      </trkpt>
      <trkpt lat="44.19399" lon="3.23079">
        <ele>768.84</ele>
        <time>2026-04-23T15:15:07.721Z</time>
      </trkpt>
      <trkpt lat="44.19404" lon="3.23078">
        <ele>768.86</ele>
        <time>2026-04-23T15:15:13.697Z</time>
      </trkpt>
      <trkpt lat="44.19403" lon="3.23077">
        <ele>768.28</ele>
        <time>2026-04-23T15:15:19.596Z</time>
      </trkpt>
      <trkpt lat="44.19404" lon="3.23076">
        <ele>768.58</ele>
        <time>2026-04-23T15:15:35.042Z</time>
      </trkpt>
      <trkpt lat="44.19405" lon="3.23075">
        <ele>768.25</ele>
        <time>2026-04-23T15:15:40.696Z</time>
      </trkpt>
      <trkpt lat="44.19404" lon="3.23074">
        <ele>769.92</ele>
        <time>2026-04-23T15:15:51.687Z</time>
      </trkpt>
      <trkpt lat="44.19403" lon="3.23073">
        <ele>768.88</ele>
        <time>2026-04-23T15:16:00.655Z</time>
      </trkpt>
      <trkpt lat="44.19403" lon="3.23072">
        <ele>769.11</ele>
        <time>2026-04-23T15:16:05.672Z</time>
      </trkpt>
      <trkpt lat="44.19403" lon="3.23071">
        <ele>769.51</ele>
        <time>2026-04-23T15:16:10.687Z</time>
      </trkpt>
      <trkpt lat="44.19404" lon="3.23069">
        <ele>768.27</ele>
        <time>2026-04-23T15:16:15.703Z</time>
      </trkpt>
      <trkpt lat="44.19408" lon="3.23062">
        <ele>767.47</ele>
        <time>2026-04-23T15:16:20.718Z</time>
      </trkpt>
      <trkpt lat="44.1941" lon="3.23054">
        <ele>767.91</ele>
        <time>2026-04-23T15:16:26.000Z</time>
      </trkpt>
      <trkpt lat="44.19411" lon="3.23052">
        <ele>768.8</ele>
        <time>2026-04-23T15:16:31.738Z</time>
      </trkpt>
      <trkpt lat="44.19413" lon="3.23049">
        <ele>768.11</ele>
        <time>2026-04-23T15:16:37.322Z</time>
      </trkpt>
      <trkpt lat="44.19416" lon="3.23039">
        <ele>765.69</ele>
        <time>2026-04-23T15:16:42.325Z</time>
      </trkpt>
      <trkpt lat="44.19419" lon="3.23037">
        <ele>765.24</ele>
        <time>2026-04-23T15:16:47.675Z</time>
      </trkpt>
      <trkpt lat="44.19425" lon="3.2304">
        <ele>765.63</ele>
        <time>2026-04-23T15:16:53.260Z</time>
      </trkpt>
      <trkpt lat="44.1943" lon="3.23041">
        <ele>765.12</ele>
        <time>2026-04-23T15:16:58.400Z</time>
      </trkpt>
      <trkpt lat="44.19429" lon="3.23041">
        <ele>763.02</ele>
        <time>2026-04-23T15:17:08.262Z</time>
      </trkpt>
      <trkpt lat="44.19429" lon="3.2304">
        <ele>761.52</ele>
        <time>2026-04-23T15:17:13.780Z</time>
      </trkpt>
      <trkpt lat="44.19429" lon="3.23042">
        <ele>761.5</ele>
        <time>2026-04-23T15:17:19.738Z</time>
      </trkpt>
      <trkpt lat="44.19429" lon="3.23041">
        <ele>761.89</ele>
        <time>2026-04-23T15:17:27.733Z</time>
      </trkpt>
      <trkpt lat="44.19428" lon="3.23041">
        <ele>760.83</ele>
        <time>2026-04-23T15:17:36.723Z</time>
      </trkpt>
      <trkpt lat="44.19429" lon="3.2304">
        <ele>760.84</ele>
        <time>2026-04-23T15:18:05.758Z</time>
      </trkpt>
      <trkpt lat="44.19428" lon="3.23042">
        <ele>761.28</ele>
        <time>2026-04-23T15:18:14.616Z</time>
      </trkpt>
      <trkpt lat="44.19427" lon="3.23042">
        <ele>762.57</ele>
        <time>2026-04-23T15:18:20.699Z</time>
      </trkpt>
      <trkpt lat="44.19426" lon="3.23041">
        <ele>762.24</ele>
        <time>2026-04-23T15:18:26.495Z</time>
      </trkpt>
      <trkpt lat="44.19427" lon="3.23046">
        <ele>761.85</ele>
        <time>2026-04-23T15:18:31.692Z</time>
      </trkpt>
      <trkpt lat="44.1943" lon="3.23053">
        <ele>762.04</ele>
        <time>2026-04-23T15:18:37.318Z</time>
      </trkpt>
      <trkpt lat="44.19433" lon="3.23056">
        <ele>763.23</ele>
        <time>2026-04-23T15:18:42.557Z</time>
      </trkpt>
      <trkpt lat="44.19436" lon="3.23056">
        <ele>764.08</ele>
        <time>2026-04-23T15:18:47.701Z</time>
      </trkpt>
      <trkpt lat="44.19439" lon="3.23054">
        <ele>765.41</ele>
        <time>2026-04-23T15:18:53.785Z</time>
      </trkpt>
      <trkpt lat="44.19442" lon="3.23051">
        <ele>765.72</ele>
        <time>2026-04-23T15:18:59.738Z</time>
      </trkpt>
      <trkpt lat="44.19443" lon="3.23049">
        <ele>764.92</ele>
        <time>2026-04-23T15:19:04.879Z</time>
      </trkpt>
      <trkpt lat="44.19447" lon="3.23044">
        <ele>765.77</ele>
        <time>2026-04-23T15:19:10.066Z</time>
      </trkpt>
      <trkpt lat="44.19452" lon="3.2304">
        <ele>765.06</ele>
        <time>2026-04-23T15:19:15.770Z</time>
      </trkpt>
      <trkpt lat="44.19457" lon="3.23036">
        <ele>765.81</ele>
        <time>2026-04-23T15:19:21.199Z</time>
      </trkpt>
      <trkpt lat="44.19462" lon="3.2303">
        <ele>765.21</ele>
        <time>2026-04-23T15:19:26.763Z</time>
      </trkpt>
      <trkpt lat="44.19461" lon="3.23024">
        <ele>764.96</ele>
        <time>2026-04-23T15:19:31.779Z</time>
      </trkpt>
      <trkpt lat="44.19456" lon="3.23019">
        <ele>765.77</ele>
        <time>2026-04-23T15:19:37.827Z</time>
      </trkpt>
      <trkpt lat="44.19458" lon="3.23021">
        <ele>766.52</ele>
        <time>2026-04-23T15:19:43.735Z</time>
      </trkpt>
      <trkpt lat="44.19457" lon="3.2302">
        <ele>767.92</ele>
        <time>2026-04-23T15:19:48.748Z</time>
      </trkpt>
      <trkpt lat="44.19455" lon="3.23015">
        <ele>768.16</ele>
        <time>2026-04-23T15:19:53.764Z</time>
      </trkpt>
      <trkpt lat="44.19456" lon="3.23014">
        <ele>769.38</ele>
        <time>2026-04-23T15:19:58.829Z</time>
      </trkpt>
      <trkpt lat="44.19454" lon="3.23009">
        <ele>769.24</ele>
        <time>2026-04-23T15:20:04.737Z</time>
      </trkpt>
      <trkpt lat="44.19453" lon="3.23007">
        <ele>768.32</ele>
        <time>2026-04-23T15:20:10.246Z</time>
      </trkpt>
      <trkpt lat="44.19453" lon="3.23004">
        <ele>766.53</ele>
        <time>2026-04-23T15:20:23.543Z</time>
      </trkpt>
      <trkpt lat="44.19452" lon="3.23">
        <ele>765.82</ele>
        <time>2026-04-23T15:20:28.584Z</time>
      </trkpt>
      <trkpt lat="44.19451" lon="3.22996">
        <ele>765.4</ele>
        <time>2026-04-23T15:20:33.738Z</time>
      </trkpt>
      <trkpt lat="44.19452" lon="3.22986">
        <ele>764.91</ele>
        <time>2026-04-23T15:20:39.759Z</time>
      </trkpt>
      <trkpt lat="44.19452" lon="3.22977">
        <ele>765.39</ele>
        <time>2026-04-23T15:20:45.348Z</time>
      </trkpt>
      <trkpt lat="44.19454" lon="3.22969">
        <ele>764.72</ele>
        <time>2026-04-23T15:20:50.666Z</time>
      </trkpt>
      <trkpt lat="44.19457" lon="3.22962">
        <ele>764.07</ele>
        <time>2026-04-23T15:20:56.128Z</time>
      </trkpt>
      <trkpt lat="44.19454" lon="3.22961">
        <ele>763.6</ele>
        <time>2026-04-23T15:21:01.524Z</time>
      </trkpt>
      <trkpt lat="44.1945" lon="3.22961">
        <ele>763.37</ele>
        <time>2026-04-23T15:21:07.191Z</time>
      </trkpt>
      <trkpt lat="44.19448" lon="3.22957">
        <ele>763.64</ele>
        <time>2026-04-23T15:21:12.445Z</time>
      </trkpt>
      <trkpt lat="44.19445" lon="3.22956">
        <ele>763.36</ele>
        <time>2026-04-23T15:21:17.644Z</time>
      </trkpt>
      <trkpt lat="44.19444" lon="3.22954">
        <ele>763.39</ele>
        <time>2026-04-23T15:21:22.742Z</time>
      </trkpt>
      <trkpt lat="44.19444" lon="3.22956">
        <ele>763.29</ele>
        <time>2026-04-23T15:21:28.131Z</time>
      </trkpt>
      <trkpt lat="44.19439" lon="3.22954">
        <ele>762.28</ele>
        <time>2026-04-23T15:21:33.308Z</time>
      </trkpt>
      <trkpt lat="44.19436" lon="3.22951">
        <ele>761.43</ele>
        <time>2026-04-23T15:21:38.420Z</time>
      </trkpt>
      <trkpt lat="44.19433" lon="3.22951">
        <ele>761.49</ele>
        <time>2026-04-23T15:21:44.442Z</time>
      </trkpt>
      <trkpt lat="44.19434" lon="3.22953">
        <ele>760.23</ele>
        <time>2026-04-23T15:21:49.765Z</time>
      </trkpt>
      <trkpt lat="44.19433" lon="3.22951">
        <ele>760.03</ele>
        <time>2026-04-23T15:21:55.362Z</time>
      </trkpt>
      <trkpt lat="44.19426" lon="3.2294">
        <ele>760.19</ele>
        <time>2026-04-23T15:22:00.468Z</time>
      </trkpt>
      <trkpt lat="44.19419" lon="3.22935">
        <ele>761.23</ele>
        <time>2026-04-23T15:22:05.828Z</time>
      </trkpt>
      <trkpt lat="44.19418" lon="3.22939">
        <ele>761.85</ele>
        <time>2026-04-23T15:22:11.433Z</time>
      </trkpt>
      <trkpt lat="44.19418" lon="3.2294">
        <ele>761.2</ele>
        <time>2026-04-23T15:22:16.763Z</time>
      </trkpt>
      <trkpt lat="44.19418" lon="3.22941">
        <ele>760.77</ele>
        <time>2026-04-23T15:22:23.634Z</time>
      </trkpt>
      <trkpt lat="44.19419" lon="3.2294">
        <ele>759.52</ele>
        <time>2026-04-23T15:22:45.688Z</time>
      </trkpt>
      <trkpt lat="44.19418" lon="3.2294">
        <ele>761.38</ele>
        <time>2026-04-23T15:22:58.708Z</time>
      </trkpt>
      <trkpt lat="44.19417" lon="3.2294">
        <ele>761.51</ele>
        <time>2026-04-23T15:23:04.530Z</time>
      </trkpt>
      <trkpt lat="44.19417" lon="3.22938">
        <ele>762</ele>
        <time>2026-04-23T15:23:09.738Z</time>
      </trkpt>
      <trkpt lat="44.19419" lon="3.22938">
        <ele>762.46</ele>
        <time>2026-04-23T15:23:15.677Z</time>
      </trkpt>
      <trkpt lat="44.1942" lon="3.22937">
        <ele>761.99</ele>
        <time>2026-04-23T15:23:20.693Z</time>
      </trkpt>
      <trkpt lat="44.19421" lon="3.22936">
        <ele>762.62</ele>
        <time>2026-04-23T15:23:27.630Z</time>
      </trkpt>
      <trkpt lat="44.19421" lon="3.22935">
        <ele>762.89</ele>
        <time>2026-04-23T15:23:39.412Z</time>
      </trkpt>
      <trkpt lat="44.19421" lon="3.22937">
        <ele>763.14</ele>
        <time>2026-04-23T15:23:45.667Z</time>
      </trkpt>
      <trkpt lat="44.19421" lon="3.2294">
        <ele>762.22</ele>
        <time>2026-04-23T15:23:50.672Z</time>
      </trkpt>
      <trkpt lat="44.19419" lon="3.22938">
        <ele>762.44</ele>
        <time>2026-04-23T15:23:55.699Z</time>
      </trkpt>
      <trkpt lat="44.19416" lon="3.22938">
        <ele>762.32</ele>
        <time>2026-04-23T15:24:00.716Z</time>
      </trkpt>
      <trkpt lat="44.19413" lon="3.22937">
        <ele>762.04</ele>
        <time>2026-04-23T15:24:06.692Z</time>
      </trkpt>
      <trkpt lat="44.19412" lon="3.22936">
        <ele>760.82</ele>
        <time>2026-04-23T15:24:11.709Z</time>
      </trkpt>
      <trkpt lat="44.19412" lon="3.22938">
        <ele>760.79</ele>
        <time>2026-04-23T15:24:25.738Z</time>
      </trkpt>
      <trkpt lat="44.19412" lon="3.22942">
        <ele>761.86</ele>
        <time>2026-04-23T15:24:31.667Z</time>
      </trkpt>
      <trkpt lat="44.19413" lon="3.22944">
        <ele>761.46</ele>
        <time>2026-04-23T15:24:36.683Z</time>
      </trkpt>
      <trkpt lat="44.19415" lon="3.22947">
        <ele>761.05</ele>
        <time>2026-04-23T15:24:41.699Z</time>
      </trkpt>
      <trkpt lat="44.19417" lon="3.22949">
        <ele>760.73</ele>
        <time>2026-04-23T15:24:46.894Z</time>
      </trkpt>
      <trkpt lat="44.1942" lon="3.22947">
        <ele>762.7</ele>
        <time>2026-04-23T15:24:52.692Z</time>
      </trkpt>
      <trkpt lat="44.19421" lon="3.22945">
        <ele>761.63</ele>
        <time>2026-04-23T15:24:58.678Z</time>
      </trkpt>
      <trkpt lat="44.19422" lon="3.22945">
        <ele>761.29</ele>
        <time>2026-04-23T15:25:03.694Z</time>
      </trkpt>
      <trkpt lat="44.19424" lon="3.22945">
        <ele>761.86</ele>
        <time>2026-04-23T15:25:08.711Z</time>
      </trkpt>
      <trkpt lat="44.19428" lon="3.22948">
        <ele>761.3</ele>
        <time>2026-04-23T15:25:14.687Z</time>
      </trkpt>
      <trkpt lat="44.1943" lon="3.2295">
        <ele>761.39</ele>
        <time>2026-04-23T15:25:19.704Z</time>
      </trkpt>
      <trkpt lat="44.19432" lon="3.2295">
        <ele>762.07</ele>
        <time>2026-04-23T15:25:24.719Z</time>
      </trkpt>
      <trkpt lat="44.19433" lon="3.22951">
        <ele>763.39</ele>
        <time>2026-04-23T15:25:30.697Z</time>
      </trkpt>
      <trkpt lat="44.19434" lon="3.22953">
        <ele>764.63</ele>
        <time>2026-04-23T15:25:36.674Z</time>
      </trkpt>
      <trkpt lat="44.19434" lon="3.22954">
        <ele>764.15</ele>
        <time>2026-04-23T15:25:48.494Z</time>
      </trkpt>
      <trkpt lat="44.19439" lon="3.22964">
        <ele>763.4</ele>
        <time>2026-04-23T15:25:53.666Z</time>
      </trkpt>
      <trkpt lat="44.19443" lon="3.22971">
        <ele>762.34</ele>
        <time>2026-04-23T15:25:59.015Z</time>
      </trkpt>
      <trkpt lat="44.19449" lon="3.22971">
        <ele>763.07</ele>
        <time>2026-04-23T15:26:04.733Z</time>
      </trkpt>
      <trkpt lat="44.19454" lon="3.22971">
        <ele>763.93</ele>
        <time>2026-04-23T15:26:10.376Z</time>
      </trkpt>
      <trkpt lat="44.1946" lon="3.22974">
        <ele>766.25</ele>
        <time>2026-04-23T15:26:15.443Z</time>
      </trkpt>
      <trkpt lat="44.19463" lon="3.22967">
        <ele>766.97</ele>
        <time>2026-04-23T15:26:20.600Z</time>
      </trkpt>
      <trkpt lat="44.19467" lon="3.2296">
        <ele>766.19</ele>
        <time>2026-04-23T15:26:26.238Z</time>
      </trkpt>
      <trkpt lat="44.19466" lon="3.22952">
        <ele>764.86</ele>
        <time>2026-04-23T15:26:31.743Z</time>
      </trkpt>
      <trkpt lat="44.19465" lon="3.22945">
        <ele>763.03</ele>
        <time>2026-04-23T15:26:37.241Z</time>
      </trkpt>
      <trkpt lat="44.19467" lon="3.2294">
        <ele>763.35</ele>
        <time>2026-04-23T15:26:42.504Z</time>
      </trkpt>
      <trkpt lat="44.19473" lon="3.22937">
        <ele>763.41</ele>
        <time>2026-04-23T15:26:47.693Z</time>
      </trkpt>
      <trkpt lat="44.19478" lon="3.2293">
        <ele>763.61</ele>
        <time>2026-04-23T15:26:53.777Z</time>
      </trkpt>
      <trkpt lat="44.19483" lon="3.22925">
        <ele>763.33</ele>
        <time>2026-04-23T15:26:59.062Z</time>
      </trkpt>
      <trkpt lat="44.19487" lon="3.2292">
        <ele>762.63</ele>
        <time>2026-04-23T15:27:04.301Z</time>
      </trkpt>
      <trkpt lat="44.19494" lon="3.22914">
        <ele>762.46</ele>
        <time>2026-04-23T15:27:09.677Z</time>
      </trkpt>
      <trkpt lat="44.19502" lon="3.22915">
        <ele>762.23</ele>
        <time>2026-04-23T15:27:14.827Z</time>
      </trkpt>
      <trkpt lat="44.19507" lon="3.22918">
        <ele>763.1</ele>
        <time>2026-04-23T15:27:20.549Z</time>
      </trkpt>
      <trkpt lat="44.19512" lon="3.22919">
        <ele>762.48</ele>
        <time>2026-04-23T15:27:26.542Z</time>
      </trkpt>
      <trkpt lat="44.19517" lon="3.22919">
        <ele>762.17</ele>
        <time>2026-04-23T15:27:31.811Z</time>
      </trkpt>
      <trkpt lat="44.19522" lon="3.22918">
        <ele>761.51</ele>
        <time>2026-04-23T15:27:37.284Z</time>
      </trkpt>
      <trkpt lat="44.19527" lon="3.22917">
        <ele>762.1</ele>
        <time>2026-04-23T15:27:42.316Z</time>
      </trkpt>
      <trkpt lat="44.19531" lon="3.22914">
        <ele>762.54</ele>
        <time>2026-04-23T15:27:47.485Z</time>
      </trkpt>
      <trkpt lat="44.19535" lon="3.22909">
        <ele>762.29</ele>
        <time>2026-04-23T15:27:52.738Z</time>
      </trkpt>
      <trkpt lat="44.19538" lon="3.22902">
        <ele>762.08</ele>
        <time>2026-04-23T15:27:58.622Z</time>
      </trkpt>
      <trkpt lat="44.1954" lon="3.22896">
        <ele>762.86</ele>
        <time>2026-04-23T15:28:04.025Z</time>
      </trkpt>
      <trkpt lat="44.19545" lon="3.22895">
        <ele>765.18</ele>
        <time>2026-04-23T15:28:09.102Z</time>
      </trkpt>
      <trkpt lat="44.19549" lon="3.22889">
        <ele>765.24</ele>
        <time>2026-04-23T15:28:14.324Z</time>
      </trkpt>
      <trkpt lat="44.19553" lon="3.22884">
        <ele>764.61</ele>
        <time>2026-04-23T15:28:19.579Z</time>
      </trkpt>
      <trkpt lat="44.19553" lon="3.2288">
        <ele>764.16</ele>
        <time>2026-04-23T15:28:25.038Z</time>
      </trkpt>
      <trkpt lat="44.19551" lon="3.22869">
        <ele>765.08</ele>
        <time>2026-04-23T15:28:30.364Z</time>
      </trkpt>
      <trkpt lat="44.19551" lon="3.22863">
        <ele>765.66</ele>
        <time>2026-04-23T15:28:35.825Z</time>
      </trkpt>
      <trkpt lat="44.19546" lon="3.22867">
        <ele>764.53</ele>
        <time>2026-04-23T15:28:41.481Z</time>
      </trkpt>
      <trkpt lat="44.19544" lon="3.22867">
        <ele>763.11</ele>
        <time>2026-04-23T15:28:46.630Z</time>
      </trkpt>
      <trkpt lat="44.19545" lon="3.22865">
        <ele>760.94</ele>
        <time>2026-04-23T15:28:58.428Z</time>
      </trkpt>
      <trkpt lat="44.19555" lon="3.22868">
        <ele>766.2</ele>
        <time>2026-04-23T15:29:03.998Z</time>
      </trkpt>
      <trkpt lat="44.19564" lon="3.2287">
        <ele>766.13</ele>
        <time>2026-04-23T15:29:09.738Z</time>
      </trkpt>
      <trkpt lat="44.19571" lon="3.22874">
        <ele>764.74</ele>
        <time>2026-04-23T15:29:15.382Z</time>
      </trkpt>
      <trkpt lat="44.19573" lon="3.22874">
        <ele>764.42</ele>
        <time>2026-04-23T15:29:20.738Z</time>
      </trkpt>
      <trkpt lat="44.19575" lon="3.22873">
        <ele>762.82</ele>
        <time>2026-04-23T15:29:25.738Z</time>
      </trkpt>
      <trkpt lat="44.1958" lon="3.22869">
        <ele>762.75</ele>
        <time>2026-04-23T15:29:30.744Z</time>
      </trkpt>
      <trkpt lat="44.19584" lon="3.22863">
        <ele>762.22</ele>
        <time>2026-04-23T15:29:36.481Z</time>
      </trkpt>
      <trkpt lat="44.1959" lon="3.22857">
        <ele>761.94</ele>
        <time>2026-04-23T15:29:41.585Z</time>
      </trkpt>
      <trkpt lat="44.19594" lon="3.22855">
        <ele>761.1</ele>
        <time>2026-04-23T15:29:46.644Z</time>
      </trkpt>
      <trkpt lat="44.19599" lon="3.22856">
        <ele>760.47</ele>
        <time>2026-04-23T15:29:51.766Z</time>
      </trkpt>
      <trkpt lat="44.19607" lon="3.22858">
        <ele>760.48</ele>
        <time>2026-04-23T15:29:57.606Z</time>
      </trkpt>
      <trkpt lat="44.19615" lon="3.22856">
        <ele>760.22</ele>
        <time>2026-04-23T15:30:03.066Z</time>
      </trkpt>
      <trkpt lat="44.1962" lon="3.2285">
        <ele>759.79</ele>
        <time>2026-04-23T15:30:08.542Z</time>
      </trkpt>
      <trkpt lat="44.19625" lon="3.22844">
        <ele>758.89</ele>
        <time>2026-04-23T15:30:13.660Z</time>
      </trkpt>
      <trkpt lat="44.19632" lon="3.22843">
        <ele>758.86</ele>
        <time>2026-04-23T15:30:19.134Z</time>
      </trkpt>
      <trkpt lat="44.19639" lon="3.22842">
        <ele>757.75</ele>
        <time>2026-04-23T15:30:24.422Z</time>
      </trkpt>
      <trkpt lat="44.19644" lon="3.22839">
        <ele>758.3</ele>
        <time>2026-04-23T15:30:29.666Z</time>
      </trkpt>
      <trkpt lat="44.19649" lon="3.2284">
        <ele>758.55</ele>
        <time>2026-04-23T15:30:34.724Z</time>
      </trkpt>
      <trkpt lat="44.19655" lon="3.22843">
        <ele>758.57</ele>
        <time>2026-04-23T15:30:39.738Z</time>
      </trkpt>
      <trkpt lat="44.19663" lon="3.22843">
        <ele>758.68</ele>
        <time>2026-04-23T15:30:45.686Z</time>
      </trkpt>
      <trkpt lat="44.19667" lon="3.22846">
        <ele>757.88</ele>
        <time>2026-04-23T15:30:50.809Z</time>
      </trkpt>
      <trkpt lat="44.19674" lon="3.22849">
        <ele>757.87</ele>
        <time>2026-04-23T15:30:56.025Z</time>
      </trkpt>
      <trkpt lat="44.19679" lon="3.22849">
        <ele>758.3</ele>
        <time>2026-04-23T15:31:01.203Z</time>
      </trkpt>
      <trkpt lat="44.19685" lon="3.22851">
        <ele>758.32</ele>
        <time>2026-04-23T15:31:06.738Z</time>
      </trkpt>
      <trkpt lat="44.19693" lon="3.22853">
        <ele>758.37</ele>
        <time>2026-04-23T15:31:12.345Z</time>
      </trkpt>
      <trkpt lat="44.19697" lon="3.2286">
        <ele>757.61</ele>
        <time>2026-04-23T15:31:17.695Z</time>
      </trkpt>
      <trkpt lat="44.19701" lon="3.22862">
        <ele>758.11</ele>
        <time>2026-04-23T15:31:22.738Z</time>
      </trkpt>
      <trkpt lat="44.19703" lon="3.22859">
        <ele>757.61</ele>
        <time>2026-04-23T15:31:28.145Z</time>
      </trkpt>
      <trkpt lat="44.19709" lon="3.22857">
        <ele>757.86</ele>
        <time>2026-04-23T15:31:33.386Z</time>
      </trkpt>
      <trkpt lat="44.19715" lon="3.2285">
        <ele>757.88</ele>
        <time>2026-04-23T15:31:38.529Z</time>
      </trkpt>
      <trkpt lat="44.19721" lon="3.22843">
        <ele>757.6</ele>
        <time>2026-04-23T15:31:43.977Z</time>
      </trkpt>
      <trkpt lat="44.19729" lon="3.22843">
        <ele>756.55</ele>
        <time>2026-04-23T15:31:49.738Z</time>
      </trkpt>
      <trkpt lat="44.19734" lon="3.2285">
        <ele>756.14</ele>
        <time>2026-04-23T15:31:55.683Z</time>
      </trkpt>
      <trkpt lat="44.19735" lon="3.2285">
        <ele>755.05</ele>
        <time>2026-04-23T15:32:08.347Z</time>
      </trkpt>
      <trkpt lat="44.19735" lon="3.22849">
        <ele>755.37</ele>
        <time>2026-04-23T15:32:13.603Z</time>
      </trkpt>
      <trkpt lat="44.19738" lon="3.22841">
        <ele>756.65</ele>
        <time>2026-04-23T15:32:19.048Z</time>
      </trkpt>
      <trkpt lat="44.19743" lon="3.22832">
        <ele>756.61</ele>
        <time>2026-04-23T15:32:24.625Z</time>
      </trkpt>
      <trkpt lat="44.19748" lon="3.22829">
        <ele>756.88</ele>
        <time>2026-04-23T15:32:29.742Z</time>
      </trkpt>
      <trkpt lat="44.19756" lon="3.22826">
        <ele>757.3</ele>
        <time>2026-04-23T15:32:34.889Z</time>
      </trkpt>
      <trkpt lat="44.19763" lon="3.22822">
        <ele>759.49</ele>
        <time>2026-04-23T15:32:40.284Z</time>
      </trkpt>
      <trkpt lat="44.19769" lon="3.22818">
        <ele>757.71</ele>
        <time>2026-04-23T15:32:45.837Z</time>
      </trkpt>
      <trkpt lat="44.19775" lon="3.22815">
        <ele>757.21</ele>
        <time>2026-04-23T15:32:51.346Z</time>
      </trkpt>
      <trkpt lat="44.19777" lon="3.22807">
        <ele>757.38</ele>
        <time>2026-04-23T15:32:56.362Z</time>
      </trkpt>
      <trkpt lat="44.19779" lon="3.22796">
        <ele>757.59</ele>
        <time>2026-04-23T15:33:01.726Z</time>
      </trkpt>
      <trkpt lat="44.19775" lon="3.22786">
        <ele>756.74</ele>
        <time>2026-04-23T15:33:07.105Z</time>
      </trkpt>
      <trkpt lat="44.19776" lon="3.22776">
        <ele>755.77</ele>
        <time>2026-04-23T15:33:12.423Z</time>
      </trkpt>
      <trkpt lat="44.19778" lon="3.22765">
        <ele>755.8</ele>
        <time>2026-04-23T15:33:17.908Z</time>
      </trkpt>
      <trkpt lat="44.19781" lon="3.22756">
        <ele>755.63</ele>
        <time>2026-04-23T15:33:23.827Z</time>
      </trkpt>
      <trkpt lat="44.19787" lon="3.22754">
        <ele>755.17</ele>
        <time>2026-04-23T15:33:29.347Z</time>
      </trkpt>
      <trkpt lat="44.19793" lon="3.22752">
        <ele>754.07</ele>
        <time>2026-04-23T15:33:34.461Z</time>
      </trkpt>
      <trkpt lat="44.19798" lon="3.22745">
        <ele>753.31</ele>
        <time>2026-04-23T15:33:40.151Z</time>
      </trkpt>
      <trkpt lat="44.19796" lon="3.22736">
        <ele>752.68</ele>
        <time>2026-04-23T15:33:45.389Z</time>
      </trkpt>
      <trkpt lat="44.19796" lon="3.22733">
        <ele>751.16</ele>
        <time>2026-04-23T15:33:50.755Z</time>
      </trkpt>
      <trkpt lat="44.19797" lon="3.22727">
        <ele>750.15</ele>
        <time>2026-04-23T15:33:55.944Z</time>
      </trkpt>
      <trkpt lat="44.19797" lon="3.22726">
        <ele>747.78</ele>
        <time>2026-04-23T15:34:01.066Z</time>
      </trkpt>
      <trkpt lat="44.19797" lon="3.22722">
        <ele>746.5</ele>
        <time>2026-04-23T15:34:06.156Z</time>
      </trkpt>
      <trkpt lat="44.19796" lon="3.22718">
        <ele>745.51</ele>
        <time>2026-04-23T15:34:11.738Z</time>
      </trkpt>
      <trkpt lat="44.19795" lon="3.2271">
        <ele>744.71</ele>
        <time>2026-04-23T15:34:17.011Z</time>
      </trkpt>
      <trkpt lat="44.19795" lon="3.22708">
        <ele>743.82</ele>
        <time>2026-04-23T15:34:22.738Z</time>
      </trkpt>
      <trkpt lat="44.19795" lon="3.22707">
        <ele>742.83</ele>
        <time>2026-04-23T15:34:29.193Z</time>
      </trkpt>
      <trkpt lat="44.1979" lon="3.22698">
        <ele>741.94</ele>
        <time>2026-04-23T15:34:34.315Z</time>
      </trkpt>
      <trkpt lat="44.19787" lon="3.2269">
        <ele>740.85</ele>
        <time>2026-04-23T15:34:39.537Z</time>
      </trkpt>
      <trkpt lat="44.19786" lon="3.22685">
        <ele>739.31</ele>
        <time>2026-04-23T15:34:44.761Z</time>
      </trkpt>
      <trkpt lat="44.19785" lon="3.2268">
        <ele>738.99</ele>
        <time>2026-04-23T15:34:49.776Z</time>
      </trkpt>
      <trkpt lat="44.19779" lon="3.22674">
        <ele>737.23</ele>
        <time>2026-04-23T15:34:54.790Z</time>
      </trkpt>
      <trkpt lat="44.19775" lon="3.22668">
        <ele>735.62</ele>
        <time>2026-04-23T15:35:00.291Z</time>
      </trkpt>
      <trkpt lat="44.19772" lon="3.22665">
        <ele>734.47</ele>
        <time>2026-04-23T15:35:05.738Z</time>
      </trkpt>
      <trkpt lat="44.19769" lon="3.22665">
        <ele>734.03</ele>
        <time>2026-04-23T15:35:11.045Z</time>
      </trkpt>
      <trkpt lat="44.19768" lon="3.22662">
        <ele>732.66</ele>
        <time>2026-04-23T15:35:16.235Z</time>
      </trkpt>
      <trkpt lat="44.19762" lon="3.22655">
        <ele>731.83</ele>
        <time>2026-04-23T15:35:21.534Z</time>
      </trkpt>
      <trkpt lat="44.19756" lon="3.22646">
        <ele>730.99</ele>
        <time>2026-04-23T15:35:26.738Z</time>
      </trkpt>
      <trkpt lat="44.19752" lon="3.22639">
        <ele>730.91</ele>
        <time>2026-04-23T15:35:32.321Z</time>
      </trkpt>
      <trkpt lat="44.19748" lon="3.22631">
        <ele>731.11</ele>
        <time>2026-04-23T15:35:37.676Z</time>
      </trkpt>
      <trkpt lat="44.19743" lon="3.22626">
        <ele>729.53</ele>
        <time>2026-04-23T15:35:42.738Z</time>
      </trkpt>
      <trkpt lat="44.19739" lon="3.22622">
        <ele>728.27</ele>
        <time>2026-04-23T15:35:48.462Z</time>
      </trkpt>
      <trkpt lat="44.19736" lon="3.22623">
        <ele>726.55</ele>
        <time>2026-04-23T15:35:53.476Z</time>
      </trkpt>
      <trkpt lat="44.19733" lon="3.22622">
        <ele>725.79</ele>
        <time>2026-04-23T15:35:58.830Z</time>
      </trkpt>
      <trkpt lat="44.19728" lon="3.22618">
        <ele>724.04</ele>
        <time>2026-04-23T15:36:04.738Z</time>
      </trkpt>
      <trkpt lat="44.19723" lon="3.22615">
        <ele>723.45</ele>
        <time>2026-04-23T15:36:10.583Z</time>
      </trkpt>
      <trkpt lat="44.19721" lon="3.22609">
        <ele>722.05</ele>
        <time>2026-04-23T15:36:15.603Z</time>
      </trkpt>
      <trkpt lat="44.19721" lon="3.22603">
        <ele>720.52</ele>
        <time>2026-04-23T15:36:20.954Z</time>
      </trkpt>
      <trkpt lat="44.19721" lon="3.22605">
        <ele>719.94</ele>
        <time>2026-04-23T15:36:26.673Z</time>
      </trkpt>
      <trkpt lat="44.19722" lon="3.22605">
        <ele>717.71</ele>
        <time>2026-04-23T15:36:32.648Z</time>
      </trkpt>
      <trkpt lat="44.19721" lon="3.22604">
        <ele>721.71</ele>
        <time>2026-04-23T15:36:42.293Z</time>
      </trkpt>
      <trkpt lat="44.19717" lon="3.22595">
        <ele>720.92</ele>
        <time>2026-04-23T15:36:47.577Z</time>
      </trkpt>
      <trkpt lat="44.19708" lon="3.22588">
        <ele>719.95</ele>
        <time>2026-04-23T15:36:52.738Z</time>
      </trkpt>
      <trkpt lat="44.19703" lon="3.2258">
        <ele>718.54</ele>
        <time>2026-04-23T15:36:57.748Z</time>
      </trkpt>
      <trkpt lat="44.19699" lon="3.22577">
        <ele>717.93</ele>
        <time>2026-04-23T15:37:02.764Z</time>
      </trkpt>
      <trkpt lat="44.19694" lon="3.22579">
        <ele>718.53</ele>
        <time>2026-04-23T15:37:08.076Z</time>
      </trkpt>
      <trkpt lat="44.19687" lon="3.22576">
        <ele>718.4</ele>
        <time>2026-04-23T15:37:13.142Z</time>
      </trkpt>
      <trkpt lat="44.19683" lon="3.22568">
        <ele>717.07</ele>
        <time>2026-04-23T15:37:18.738Z</time>
      </trkpt>
      <trkpt lat="44.19682" lon="3.22564">
        <ele>717.02</ele>
        <time>2026-04-23T15:37:24.136Z</time>
      </trkpt>
      <trkpt lat="44.19678" lon="3.22563">
        <ele>716.85</ele>
        <time>2026-04-23T15:37:29.162Z</time>
      </trkpt>
      <trkpt lat="44.19671" lon="3.2256">
        <ele>716.5</ele>
        <time>2026-04-23T15:37:34.274Z</time>
      </trkpt>
      <trkpt lat="44.19664" lon="3.22557">
        <ele>715.79</ele>
        <time>2026-04-23T15:37:39.441Z</time>
      </trkpt>
      <trkpt lat="44.19656" lon="3.22554">
        <ele>715.59</ele>
        <time>2026-04-23T15:37:45.097Z</time>
      </trkpt>
      <trkpt lat="44.19654" lon="3.22548">
        <ele>715.82</ele>
        <time>2026-04-23T15:37:50.201Z</time>
      </trkpt>
      <trkpt lat="44.19657" lon="3.22544">
        <ele>715.01</ele>
        <time>2026-04-23T15:37:55.692Z</time>
      </trkpt>
      <trkpt lat="44.19659" lon="3.22538">
        <ele>714.46</ele>
        <time>2026-04-23T15:38:01.056Z</time>
      </trkpt>
      <trkpt lat="44.19664" lon="3.22535">
        <ele>712.47</ele>
        <time>2026-04-23T15:38:06.438Z</time>
      </trkpt>
      <trkpt lat="44.19669" lon="3.22535">
        <ele>712.57</ele>
        <time>2026-04-23T15:38:11.738Z</time>
      </trkpt>
      <trkpt lat="44.19675" lon="3.22534">
        <ele>712.26</ele>
        <time>2026-04-23T15:38:17.241Z</time>
      </trkpt>
      <trkpt lat="44.19681" lon="3.22529">
        <ele>712.51</ele>
        <time>2026-04-23T15:38:22.255Z</time>
      </trkpt>
      <trkpt lat="44.19687" lon="3.22524">
        <ele>712.91</ele>
        <time>2026-04-23T15:38:27.714Z</time>
      </trkpt>
      <trkpt lat="44.19693" lon="3.22521">
        <ele>712.83</ele>
        <time>2026-04-23T15:38:32.738Z</time>
      </trkpt>
      <trkpt lat="44.19698" lon="3.22518">
        <ele>713.12</ele>
        <time>2026-04-23T15:38:37.738Z</time>
      </trkpt>
      <trkpt lat="44.19701" lon="3.22514">
        <ele>713.34</ele>
        <time>2026-04-23T15:38:43.253Z</time>
      </trkpt>
      <trkpt lat="44.19705" lon="3.22513">
        <ele>713.62</ele>
        <time>2026-04-23T15:38:48.328Z</time>
      </trkpt>
      <trkpt lat="44.19711" lon="3.2251">
        <ele>714.88</ele>
        <time>2026-04-23T15:38:53.782Z</time>
      </trkpt>
      <trkpt lat="44.19717" lon="3.22507">
        <ele>716.36</ele>
        <time>2026-04-23T15:38:59.559Z</time>
      </trkpt>
      <trkpt lat="44.19722" lon="3.22508">
        <ele>716.17</ele>
        <time>2026-04-23T15:39:04.748Z</time>
      </trkpt>
      <trkpt lat="44.19728" lon="3.22506">
        <ele>716.66</ele>
        <time>2026-04-23T15:39:09.763Z</time>
      </trkpt>
      <trkpt lat="44.19735" lon="3.22502">
        <ele>716.92</ele>
        <time>2026-04-23T15:39:15.377Z</time>
      </trkpt>
      <trkpt lat="44.19742" lon="3.22502">
        <ele>717.2</ele>
        <time>2026-04-23T15:39:21.212Z</time>
      </trkpt>
      <trkpt lat="44.19743" lon="3.22503">
        <ele>717.07</ele>
        <time>2026-04-23T15:39:26.738Z</time>
      </trkpt>
      <trkpt lat="44.19744" lon="3.22504">
        <ele>716.22</ele>
        <time>2026-04-23T15:39:37.457Z</time>
      </trkpt>
      <trkpt lat="44.19744" lon="3.22503">
        <ele>717.23</ele>
        <time>2026-04-23T15:40:13.698Z</time>
      </trkpt>
      <trkpt lat="44.19744" lon="3.22501">
        <ele>717.52</ele>
        <time>2026-04-23T15:40:21.702Z</time>
      </trkpt>
      <trkpt lat="44.19744" lon="3.22501">
        <ele>717.62</ele>
        <time>2026-04-23T15:40:27.678Z</time>
      </trkpt>
      <trkpt lat="44.19745" lon="3.225">
        <ele>717.86</ele>
        <time>2026-04-23T15:40:36.641Z</time>
      </trkpt>
      <trkpt lat="44.19745" lon="3.22499">
        <ele>717.43</ele>
        <time>2026-04-23T15:40:58.738Z</time>
      </trkpt>
      <trkpt lat="44.19747" lon="3.22499">
        <ele>716.34</ele>
        <time>2026-04-23T15:41:07.738Z</time>
      </trkpt>
      <trkpt lat="44.19749" lon="3.22502">
        <ele>716.63</ele>
        <time>2026-04-23T15:41:12.738Z</time>
      </trkpt>
      <trkpt lat="44.1975" lon="3.22509">
        <ele>716.75</ele>
        <time>2026-04-23T15:41:17.738Z</time>
      </trkpt>
      <trkpt lat="44.19748" lon="3.22514">
        <ele>717.18</ele>
        <time>2026-04-23T15:41:22.740Z</time>
      </trkpt>
      <trkpt lat="44.19748" lon="3.22513">
        <ele>716.75</ele>
        <time>2026-04-23T15:41:43.483Z</time>
      </trkpt>
      <trkpt lat="44.19748" lon="3.22506">
        <ele>717.01</ele>
        <time>2026-04-23T15:41:48.738Z</time>
      </trkpt>
      <trkpt lat="44.19749" lon="3.22496">
        <ele>716.98</ele>
        <time>2026-04-23T15:41:53.738Z</time>
      </trkpt>
      <trkpt lat="44.19749" lon="3.22491">
        <ele>716.25</ele>
        <time>2026-04-23T15:41:59.826Z</time>
      </trkpt>
      <trkpt lat="44.1975" lon="3.22483">
        <ele>715.24</ele>
        <time>2026-04-23T15:42:05.454Z</time>
      </trkpt>
      <trkpt lat="44.1975" lon="3.22474">
        <ele>714.55</ele>
        <time>2026-04-23T15:42:10.558Z</time>
      </trkpt>
      <trkpt lat="44.19751" lon="3.22467">
        <ele>714.18</ele>
        <time>2026-04-23T15:42:15.738Z</time>
      </trkpt>
      <trkpt lat="44.19752" lon="3.22463">
        <ele>713.94</ele>
        <time>2026-04-23T15:42:20.856Z</time>
      </trkpt>
      <trkpt lat="44.19755" lon="3.22453">
        <ele>713.67</ele>
        <time>2026-04-23T15:42:25.977Z</time>
      </trkpt>
      <trkpt lat="44.19758" lon="3.22443">
        <ele>712.73</ele>
        <time>2026-04-23T15:42:31.737Z</time>
      </trkpt>
      <trkpt lat="44.19761" lon="3.22438">
        <ele>711.66</ele>
        <time>2026-04-23T15:42:37.583Z</time>
      </trkpt>
      <trkpt lat="44.19762" lon="3.22434">
        <ele>710.59</ele>
        <time>2026-04-23T15:42:42.772Z</time>
      </trkpt>
      <trkpt lat="44.19762" lon="3.22426">
        <ele>710.6</ele>
        <time>2026-04-23T15:42:48.539Z</time>
      </trkpt>
      <trkpt lat="44.1976" lon="3.2242">
        <ele>710.33</ele>
        <time>2026-04-23T15:42:53.822Z</time>
      </trkpt>
      <trkpt lat="44.19759" lon="3.22417">
        <ele>709.22</ele>
        <time>2026-04-23T15:42:59.360Z</time>
      </trkpt>
      <trkpt lat="44.19757" lon="3.22414">
        <ele>707.93</ele>
        <time>2026-04-23T15:43:04.754Z</time>
      </trkpt>
      <trkpt lat="44.19755" lon="3.22417">
        <ele>706.41</ele>
        <time>2026-04-23T15:43:09.769Z</time>
      </trkpt>
      <trkpt lat="44.19753" lon="3.22421">
        <ele>705.89</ele>
        <time>2026-04-23T15:43:15.376Z</time>
      </trkpt>
      <trkpt lat="44.1975" lon="3.22424">
        <ele>705.17</ele>
        <time>2026-04-23T15:43:20.657Z</time>
      </trkpt>
      <trkpt lat="44.19747" lon="3.22431">
        <ele>704.24</ele>
        <time>2026-04-23T15:43:25.702Z</time>
      </trkpt>
      <trkpt lat="44.19742" lon="3.22437">
        <ele>703.23</ele>
        <time>2026-04-23T15:43:31.141Z</time>
      </trkpt>
      <trkpt lat="44.19738" lon="3.22439">
        <ele>702.77</ele>
        <time>2026-04-23T15:43:36.572Z</time>
      </trkpt>
      <trkpt lat="44.19738" lon="3.2244">
        <ele>701.38</ele>
        <time>2026-04-23T15:43:45.581Z</time>
      </trkpt>
      <trkpt lat="44.19736" lon="3.22443">
        <ele>701.35</ele>
        <time>2026-04-23T15:43:51.717Z</time>
      </trkpt>
      <trkpt lat="44.19733" lon="3.22454">
        <ele>699.41</ele>
        <time>2026-04-23T15:43:57.678Z</time>
      </trkpt>
      <trkpt lat="44.19731" lon="3.22461">
        <ele>697.36</ele>
        <time>2026-04-23T15:44:03.763Z</time>
      </trkpt>
      <trkpt lat="44.19725" lon="3.22466">
        <ele>696.44</ele>
        <time>2026-04-23T15:44:09.739Z</time>
      </trkpt>
      <trkpt lat="44.19719" lon="3.22472">
        <ele>696.66</ele>
        <time>2026-04-23T15:44:15.761Z</time>
      </trkpt>
      <trkpt lat="44.19716" lon="3.22476">
        <ele>697.69</ele>
        <time>2026-04-23T15:44:21.273Z</time>
      </trkpt>
      <trkpt lat="44.19717" lon="3.22474">
        <ele>696.55</ele>
        <time>2026-04-23T15:44:26.682Z</time>
      </trkpt>
      <trkpt lat="44.19719" lon="3.2247">
        <ele>694.2</ele>
        <time>2026-04-23T15:44:32.515Z</time>
      </trkpt>
      <trkpt lat="44.19719" lon="3.22461">
        <ele>692.65</ele>
        <time>2026-04-23T15:44:37.559Z</time>
      </trkpt>
      <trkpt lat="44.19719" lon="3.22455">
        <ele>692.81</ele>
        <time>2026-04-23T15:44:42.740Z</time>
      </trkpt>
      <trkpt lat="44.19724" lon="3.22448">
        <ele>692.64</ele>
        <time>2026-04-23T15:44:48.717Z</time>
      </trkpt>
      <trkpt lat="44.19725" lon="3.22445">
        <ele>691.25</ele>
        <time>2026-04-23T15:44:53.738Z</time>
      </trkpt>
      <trkpt lat="44.19726" lon="3.22438">
        <ele>691.22</ele>
        <time>2026-04-23T15:44:59.384Z</time>
      </trkpt>
      <trkpt lat="44.19729" lon="3.22431">
        <ele>690.23</ele>
        <time>2026-04-23T15:45:04.738Z</time>
      </trkpt>
      <trkpt lat="44.1973" lon="3.22423">
        <ele>689.97</ele>
        <time>2026-04-23T15:45:09.738Z</time>
      </trkpt>
      <trkpt lat="44.19729" lon="3.22418">
        <ele>689.59</ele>
        <time>2026-04-23T15:45:15.200Z</time>
      </trkpt>
      <trkpt lat="44.19727" lon="3.22412">
        <ele>690.49</ele>
        <time>2026-04-23T15:45:20.724Z</time>
      </trkpt>
      <trkpt lat="44.19727" lon="3.22407">
        <ele>689.39</ele>
        <time>2026-04-23T15:45:25.916Z</time>
      </trkpt>
      <trkpt lat="44.19726" lon="3.22406">
        <ele>688.04</ele>
        <time>2026-04-23T15:45:31.162Z</time>
      </trkpt>
      <trkpt lat="44.19722" lon="3.22402">
        <ele>687.04</ele>
        <time>2026-04-23T15:45:36.736Z</time>
      </trkpt>
      <trkpt lat="44.19718" lon="3.22393">
        <ele>686.73</ele>
        <time>2026-04-23T15:45:42.738Z</time>
      </trkpt>
      <trkpt lat="44.19715" lon="3.22385">
        <ele>686.85</ele>
        <time>2026-04-23T15:45:48.363Z</time>
      </trkpt>
      <trkpt lat="44.19713" lon="3.22377">
        <ele>685.9</ele>
        <time>2026-04-23T15:45:53.737Z</time>
      </trkpt>
      <trkpt lat="44.1971" lon="3.22373">
        <ele>684.78</ele>
        <time>2026-04-23T15:45:58.793Z</time>
      </trkpt>
      <trkpt lat="44.19707" lon="3.22372">
        <ele>684.88</ele>
        <time>2026-04-23T15:46:04.098Z</time>
      </trkpt>
      <trkpt lat="44.19703" lon="3.22367">
        <ele>683.53</ele>
        <time>2026-04-23T15:46:09.738Z</time>
      </trkpt>
      <trkpt lat="44.197" lon="3.22364">
        <ele>683.16</ele>
        <time>2026-04-23T15:46:14.738Z</time>
      </trkpt>
      <trkpt lat="44.19695" lon="3.2236">
        <ele>683.09</ele>
        <time>2026-04-23T15:46:20.460Z</time>
      </trkpt>
      <trkpt lat="44.19694" lon="3.22354">
        <ele>681.78</ele>
        <time>2026-04-23T15:46:25.518Z</time>
      </trkpt>
      <trkpt lat="44.1969" lon="3.22351">
        <ele>681.33</ele>
        <time>2026-04-23T15:46:30.738Z</time>
      </trkpt>
      <trkpt lat="44.19687" lon="3.22349">
        <ele>680.08</ele>
        <time>2026-04-23T15:46:36.781Z</time>
      </trkpt>
      <trkpt lat="44.19686" lon="3.22349">
        <ele>679.04</ele>
        <time>2026-04-23T15:46:43.543Z</time>
      </trkpt>
      <trkpt lat="44.19684" lon="3.22349">
        <ele>678.26</ele>
        <time>2026-04-23T15:46:48.559Z</time>
      </trkpt>
      <trkpt lat="44.19683" lon="3.22346">
        <ele>676.31</ele>
        <time>2026-04-23T15:46:54.738Z</time>
      </trkpt>
      <trkpt lat="44.19683" lon="3.2234">
        <ele>675.73</ele>
        <time>2026-04-23T15:47:00.259Z</time>
      </trkpt>
      <trkpt lat="44.1968" lon="3.22334">
        <ele>674.92</ele>
        <time>2026-04-23T15:47:05.738Z</time>
      </trkpt>
      <trkpt lat="44.19676" lon="3.22331">
        <ele>674.5</ele>
        <time>2026-04-23T15:47:11.648Z</time>
      </trkpt>
      <trkpt lat="44.19673" lon="3.22326">
        <ele>674.32</ele>
        <time>2026-04-23T15:47:17.315Z</time>
      </trkpt>
      <trkpt lat="44.19668" lon="3.22321">
        <ele>672.89</ele>
        <time>2026-04-23T15:47:22.953Z</time>
      </trkpt>
      <trkpt lat="44.19664" lon="3.22318">
        <ele>672.08</ele>
        <time>2026-04-23T15:47:28.572Z</time>
      </trkpt>
      <trkpt lat="44.19661" lon="3.22319">
        <ele>671.79</ele>
        <time>2026-04-23T15:47:34.636Z</time>
      </trkpt>
      <trkpt lat="44.19659" lon="3.22314">
        <ele>670.55</ele>
        <time>2026-04-23T15:47:39.770Z</time>
      </trkpt>
      <trkpt lat="44.19655" lon="3.22312">
        <ele>670.47</ele>
        <time>2026-04-23T15:47:45.208Z</time>
      </trkpt>
      <trkpt lat="44.19652" lon="3.22321">
        <ele>669.92</ele>
        <time>2026-04-23T15:47:50.552Z</time>
      </trkpt>
      <trkpt lat="44.19657" lon="3.22329">
        <ele>668.4</ele>
        <time>2026-04-23T15:47:55.709Z</time>
      </trkpt>
      <trkpt lat="44.1966" lon="3.22334">
        <ele>668.25</ele>
        <time>2026-04-23T15:48:00.792Z</time>
      </trkpt>
      <trkpt lat="44.19662" lon="3.22341">
        <ele>667.35</ele>
        <time>2026-04-23T15:48:06.736Z</time>
      </trkpt>
      <trkpt lat="44.19661" lon="3.22347">
        <ele>667.34</ele>
        <time>2026-04-23T15:48:12.274Z</time>
      </trkpt>
      <trkpt lat="44.1966" lon="3.2235">
        <ele>666.59</ele>
        <time>2026-04-23T15:48:17.337Z</time>
      </trkpt>
      <trkpt lat="44.19655" lon="3.22351">
        <ele>666.84</ele>
        <time>2026-04-23T15:48:22.773Z</time>
      </trkpt>
      <trkpt lat="44.19658" lon="3.22359">
        <ele>665.75</ele>
        <time>2026-04-23T15:48:28.077Z</time>
      </trkpt>
      <trkpt lat="44.19661" lon="3.22362">
        <ele>664.54</ele>
        <time>2026-04-23T15:48:33.490Z</time>
      </trkpt>
      <trkpt lat="44.19661" lon="3.22367">
        <ele>663.91</ele>
        <time>2026-04-23T15:48:38.853Z</time>
      </trkpt>
      <trkpt lat="44.19663" lon="3.2237">
        <ele>663.6</ele>
        <time>2026-04-23T15:48:44.588Z</time>
      </trkpt>
      <trkpt lat="44.19662" lon="3.22373">
        <ele>662.64</ele>
        <time>2026-04-23T15:48:49.768Z</time>
      </trkpt>
      <trkpt lat="44.19662" lon="3.22376">
        <ele>662.04</ele>
        <time>2026-04-23T15:48:54.783Z</time>
      </trkpt>
      <trkpt lat="44.19661" lon="3.22381">
        <ele>659.97</ele>
        <time>2026-04-23T15:49:00.433Z</time>
      </trkpt>
      <trkpt lat="44.19662" lon="3.22388">
        <ele>659.01</ele>
        <time>2026-04-23T15:49:05.892Z</time>
      </trkpt>
      <trkpt lat="44.19663" lon="3.22395">
        <ele>658.94</ele>
        <time>2026-04-23T15:49:11.380Z</time>
      </trkpt>
      <trkpt lat="44.19659" lon="3.224">
        <ele>658.57</ele>
        <time>2026-04-23T15:49:16.660Z</time>
      </trkpt>
      <trkpt lat="44.19655" lon="3.22398">
        <ele>658.3</ele>
        <time>2026-04-23T15:49:21.711Z</time>
      </trkpt>
      <trkpt lat="44.19656" lon="3.22391">
        <ele>657.7</ele>
        <time>2026-04-23T15:49:27.050Z</time>
      </trkpt>
      <trkpt lat="44.19655" lon="3.22388">
        <ele>655.36</ele>
        <time>2026-04-23T15:49:32.220Z</time>
      </trkpt>
      <trkpt lat="44.1965" lon="3.22393">
        <ele>654.33</ele>
        <time>2026-04-23T15:49:37.698Z</time>
      </trkpt>
      <trkpt lat="44.19648" lon="3.224">
        <ele>654.25</ele>
        <time>2026-04-23T15:49:42.944Z</time>
      </trkpt>
      <trkpt lat="44.19645" lon="3.22409">
        <ele>653.73</ele>
        <time>2026-04-23T15:49:48.225Z</time>
      </trkpt>
      <trkpt lat="44.19641" lon="3.22415">
        <ele>653.54</ele>
        <time>2026-04-23T15:49:53.463Z</time>
      </trkpt>
      <trkpt lat="44.19635" lon="3.22413">
        <ele>653.49</ele>
        <time>2026-04-23T15:49:58.738Z</time>
      </trkpt>
      <trkpt lat="44.19631" lon="3.22416">
        <ele>651.01</ele>
        <time>2026-04-23T15:50:04.835Z</time>
      </trkpt>
      <trkpt lat="44.19627" lon="3.22425">
        <ele>649.94</ele>
        <time>2026-04-23T15:50:10.420Z</time>
      </trkpt>
      <trkpt lat="44.19623" lon="3.22429">
        <ele>650.49</ele>
        <time>2026-04-23T15:50:15.598Z</time>
      </trkpt>
      <trkpt lat="44.19616" lon="3.2243">
        <ele>649.06</ele>
        <time>2026-04-23T15:50:21.337Z</time>
      </trkpt>
      <trkpt lat="44.19611" lon="3.22436">
        <ele>649.61</ele>
        <time>2026-04-23T15:50:26.566Z</time>
      </trkpt>
      <trkpt lat="44.19607" lon="3.2244">
        <ele>649.43</ele>
        <time>2026-04-23T15:50:31.602Z</time>
      </trkpt>
      <trkpt lat="44.19603" lon="3.2244">
        <ele>646.63</ele>
        <time>2026-04-23T15:50:36.738Z</time>
      </trkpt>
      <trkpt lat="44.19602" lon="3.22439">
        <ele>646.28</ele>
        <time>2026-04-23T15:50:41.942Z</time>
      </trkpt>
      <trkpt lat="44.196" lon="3.22439">
        <ele>646.34</ele>
        <time>2026-04-23T15:50:47.045Z</time>
      </trkpt>
      <trkpt lat="44.19597" lon="3.22441">
        <ele>645.47</ele>
        <time>2026-04-23T15:50:52.298Z</time>
      </trkpt>
      <trkpt lat="44.19592" lon="3.22445">
        <ele>646.64</ele>
        <time>2026-04-23T15:50:57.740Z</time>
      </trkpt>
      <trkpt lat="44.19587" lon="3.22448">
        <ele>645.53</ele>
        <time>2026-04-23T15:51:02.861Z</time>
      </trkpt>
      <trkpt lat="44.19582" lon="3.22452">
        <ele>644.05</ele>
        <time>2026-04-23T15:51:08.580Z</time>
      </trkpt>
      <trkpt lat="44.19581" lon="3.22448">
        <ele>642.31</ele>
        <time>2026-04-23T15:51:14.390Z</time>
      </trkpt>
      <trkpt lat="44.19586" lon="3.22443">
        <ele>642.17</ele>
        <time>2026-04-23T15:51:19.722Z</time>
      </trkpt>
      <trkpt lat="44.19589" lon="3.22433">
        <ele>641.64</ele>
        <time>2026-04-23T15:51:25.780Z</time>
      </trkpt>
      <trkpt lat="44.19591" lon="3.22428">
        <ele>640.42</ele>
        <time>2026-04-23T15:51:31.210Z</time>
      </trkpt>
      <trkpt lat="44.19585" lon="3.22433">
        <ele>639.4</ele>
        <time>2026-04-23T15:51:36.285Z</time>
      </trkpt>
      <trkpt lat="44.1958" lon="3.2244">
        <ele>638.14</ele>
        <time>2026-04-23T15:51:41.647Z</time>
      </trkpt>
      <trkpt lat="44.19575" lon="3.22438">
        <ele>638.97</ele>
        <time>2026-04-23T15:51:46.706Z</time>
      </trkpt>
      <trkpt lat="44.19572" lon="3.22435">
        <ele>638.1</ele>
        <time>2026-04-23T15:51:51.778Z</time>
      </trkpt>
      <trkpt lat="44.1957" lon="3.22438">
        <ele>637.59</ele>
        <time>2026-04-23T15:51:57.209Z</time>
      </trkpt>
      <trkpt lat="44.19566" lon="3.22438">
        <ele>637.08</ele>
        <time>2026-04-23T15:52:02.534Z</time>
      </trkpt>
      <trkpt lat="44.19565" lon="3.22434">
        <ele>635.39</ele>
        <time>2026-04-23T15:52:07.611Z</time>
      </trkpt>
      <trkpt lat="44.1956" lon="3.22434">
        <ele>635.63</ele>
        <time>2026-04-23T15:52:13.072Z</time>
      </trkpt>
      <trkpt lat="44.19558" lon="3.22433">
        <ele>635.41</ele>
        <time>2026-04-23T15:52:18.593Z</time>
      </trkpt>
      <trkpt lat="44.19557" lon="3.22433">
        <ele>635.39</ele>
        <time>2026-04-23T15:52:24.697Z</time>
      </trkpt>
      <trkpt lat="44.19558" lon="3.22433">
        <ele>634.38</ele>
        <time>2026-04-23T15:52:41.778Z</time>
      </trkpt>
      <trkpt lat="44.19559" lon="3.22433">
        <ele>634.57</ele>
        <time>2026-04-23T15:52:46.784Z</time>
      </trkpt>
      <trkpt lat="44.1956" lon="3.22431">
        <ele>634.65</ele>
        <time>2026-04-23T15:52:51.799Z</time>
      </trkpt>
      <trkpt lat="44.1956" lon="3.2243">
        <ele>634.54</ele>
        <time>2026-04-23T15:52:57.668Z</time>
      </trkpt>
      <trkpt lat="44.19559" lon="3.22431">
        <ele>635.19</ele>
        <time>2026-04-23T15:53:30.778Z</time>
      </trkpt>
      <trkpt lat="44.19559" lon="3.22432">
        <ele>634.69</ele>
        <time>2026-04-23T15:53:37.680Z</time>
      </trkpt>
      <trkpt lat="44.19558" lon="3.22433">
        <ele>635.55</ele>
        <time>2026-04-23T15:53:44.434Z</time>
      </trkpt>
      <trkpt lat="44.19559" lon="3.22434">
        <ele>634.55</ele>
        <time>2026-04-23T15:53:49.778Z</time>
      </trkpt>
      <trkpt lat="44.1956" lon="3.22435">
        <ele>634.87</ele>
        <time>2026-04-23T15:53:58.807Z</time>
      </trkpt>
      <trkpt lat="44.19561" lon="3.22433">
        <ele>635.2</ele>
        <time>2026-04-23T15:54:11.778Z</time>
      </trkpt>
      <trkpt lat="44.19563" lon="3.22429">
        <ele>634.72</ele>
        <time>2026-04-23T15:54:16.778Z</time>
      </trkpt>
      <trkpt lat="44.19567" lon="3.22428">
        <ele>633.95</ele>
        <time>2026-04-23T15:54:22.223Z</time>
      </trkpt>
      <trkpt lat="44.19571" lon="3.22426">
        <ele>633.96</ele>
        <time>2026-04-23T15:54:27.586Z</time>
      </trkpt>
      <trkpt lat="44.19572" lon="3.22423">
        <ele>633.68</ele>
        <time>2026-04-23T15:54:32.748Z</time>
      </trkpt>
      <trkpt lat="44.19574" lon="3.2242">
        <ele>632.97</ele>
        <time>2026-04-23T15:54:37.953Z</time>
      </trkpt>
      <trkpt lat="44.19577" lon="3.22417">
        <ele>632.43</ele>
        <time>2026-04-23T15:54:43.746Z</time>
      </trkpt>
      <trkpt lat="44.1958" lon="3.22411">
        <ele>631.52</ele>
        <time>2026-04-23T15:54:49.189Z</time>
      </trkpt>
      <trkpt lat="44.19577" lon="3.22405">
        <ele>631.53</ele>
        <time>2026-04-23T15:54:54.669Z</time>
      </trkpt>
      <trkpt lat="44.19575" lon="3.22407">
        <ele>630.55</ele>
        <time>2026-04-23T15:54:59.751Z</time>
      </trkpt>
      <trkpt lat="44.1957" lon="3.22412">
        <ele>629.77</ele>
        <time>2026-04-23T15:55:05.233Z</time>
      </trkpt>
      <trkpt lat="44.19567" lon="3.22415">
        <ele>629.68</ele>
        <time>2026-04-23T15:55:10.595Z</time>
      </trkpt>
      <trkpt lat="44.19563" lon="3.22414">
        <ele>628.99</ele>
        <time>2026-04-23T15:55:15.749Z</time>
      </trkpt>
      <trkpt lat="44.19564" lon="3.22408">
        <ele>628.76</ele>
        <time>2026-04-23T15:55:21.292Z</time>
      </trkpt>
      <trkpt lat="44.19564" lon="3.22406">
        <ele>627.2</ele>
        <time>2026-04-23T15:55:26.559Z</time>
      </trkpt>
      <trkpt lat="44.19563" lon="3.22409">
        <ele>626.31</ele>
        <time>2026-04-23T15:55:32.389Z</time>
      </trkpt>
      <trkpt lat="44.19559" lon="3.22409">
        <ele>625.92</ele>
        <time>2026-04-23T15:55:37.858Z</time>
      </trkpt>
      <trkpt lat="44.19554" lon="3.22407">
        <ele>624.6</ele>
        <time>2026-04-23T15:55:43.369Z</time>
      </trkpt>
      <trkpt lat="44.19548" lon="3.22405">
        <ele>624.64</ele>
        <time>2026-04-23T15:55:48.613Z</time>
      </trkpt>
      <trkpt lat="44.19545" lon="3.22405">
        <ele>624.03</ele>
        <time>2026-04-23T15:55:53.742Z</time>
      </trkpt>
      <trkpt lat="44.19546" lon="3.22404">
        <ele>623.1</ele>
        <time>2026-04-23T15:55:59.455Z</time>
      </trkpt>
      <trkpt lat="44.19548" lon="3.22403">
        <ele>621.96</ele>
        <time>2026-04-23T15:56:04.690Z</time>
      </trkpt>
      <trkpt lat="44.19552" lon="3.22399">
        <ele>622.23</ele>
        <time>2026-04-23T15:56:10.132Z</time>
      </trkpt>
      <trkpt lat="44.19559" lon="3.22396">
        <ele>621.86</ele>
        <time>2026-04-23T15:56:15.549Z</time>
      </trkpt>
      <trkpt lat="44.19564" lon="3.22394">
        <ele>621.22</ele>
        <time>2026-04-23T15:56:20.765Z</time>
      </trkpt>
      <trkpt lat="44.19559" lon="3.22392">
        <ele>619.83</ele>
        <time>2026-04-23T15:56:25.870Z</time>
      </trkpt>
      <trkpt lat="44.19553" lon="3.22392">
        <ele>618.72</ele>
        <time>2026-04-23T15:56:31.765Z</time>
      </trkpt>
      <trkpt lat="44.19551" lon="3.22392">
        <ele>618.97</ele>
        <time>2026-04-23T15:56:37.394Z</time>
      </trkpt>
      <trkpt lat="44.19545" lon="3.22394">
        <ele>618.88</ele>
        <time>2026-04-23T15:56:42.569Z</time>
      </trkpt>
      <trkpt lat="44.19543" lon="3.22389">
        <ele>618.17</ele>
        <time>2026-04-23T15:56:48.492Z</time>
      </trkpt>
      <trkpt lat="44.19546" lon="3.22385">
        <ele>616.86</ele>
        <time>2026-04-23T15:56:53.772Z</time>
      </trkpt>
      <trkpt lat="44.19548" lon="3.22385">
        <ele>615.86</ele>
        <time>2026-04-23T15:56:59.152Z</time>
      </trkpt>
      <trkpt lat="44.19549" lon="3.22385">
        <ele>615.21</ele>
        <time>2026-04-23T15:57:04.522Z</time>
      </trkpt>
      <trkpt lat="44.1955" lon="3.22383">
        <ele>615.23</ele>
        <time>2026-04-23T15:57:09.661Z</time>
      </trkpt>
      <trkpt lat="44.19554" lon="3.22379">
        <ele>615.64</ele>
        <time>2026-04-23T15:57:14.847Z</time>
      </trkpt>
      <trkpt lat="44.19555" lon="3.22375">
        <ele>614.73</ele>
        <time>2026-04-23T15:57:20.545Z</time>
      </trkpt>
      <trkpt lat="44.19555" lon="3.22368">
        <ele>613.68</ele>
        <time>2026-04-23T15:57:25.624Z</time>
      </trkpt>
      <trkpt lat="44.19554" lon="3.22361">
        <ele>613.28</ele>
        <time>2026-04-23T15:57:31.765Z</time>
      </trkpt>
      <trkpt lat="44.19552" lon="3.22355">
        <ele>612.96</ele>
        <time>2026-04-23T15:57:37.677Z</time>
      </trkpt>
      <trkpt lat="44.1955" lon="3.2235">
        <ele>612.76</ele>
        <time>2026-04-23T15:57:42.685Z</time>
      </trkpt>
      <trkpt lat="44.19544" lon="3.22346">
        <ele>612.28</ele>
        <time>2026-04-23T15:57:48.120Z</time>
      </trkpt>
      <trkpt lat="44.1954" lon="3.22337">
        <ele>611.07</ele>
        <time>2026-04-23T15:57:53.640Z</time>
      </trkpt>
      <trkpt lat="44.19539" lon="3.2233">
        <ele>610.32</ele>
        <time>2026-04-23T15:57:59.022Z</time>
      </trkpt>
      <trkpt lat="44.19535" lon="3.22325">
        <ele>610.23</ele>
        <time>2026-04-23T15:58:04.400Z</time>
      </trkpt>
      <trkpt lat="44.19534" lon="3.22317">
        <ele>610.71</ele>
        <time>2026-04-23T15:58:09.805Z</time>
      </trkpt>
      <trkpt lat="44.19534" lon="3.22309">
        <ele>610.88</ele>
        <time>2026-04-23T15:58:15.621Z</time>
      </trkpt>
      <trkpt lat="44.1953" lon="3.22303">
        <ele>609.34</ele>
        <time>2026-04-23T15:58:21.267Z</time>
      </trkpt>
      <trkpt lat="44.19527" lon="3.22295">
        <ele>608.31</ele>
        <time>2026-04-23T15:58:26.776Z</time>
      </trkpt>
      <trkpt lat="44.19525" lon="3.22289">
        <ele>608.79</ele>
        <time>2026-04-23T15:58:32.142Z</time>
      </trkpt>
      <trkpt lat="44.19524" lon="3.22286">
        <ele>608.87</ele>
        <time>2026-04-23T15:58:37.364Z</time>
      </trkpt>
      <trkpt lat="44.19523" lon="3.2228">
        <ele>608.48</ele>
        <time>2026-04-23T15:58:42.686Z</time>
      </trkpt>
      <trkpt lat="44.19519" lon="3.22277">
        <ele>607.19</ele>
        <time>2026-04-23T15:58:48.724Z</time>
      </trkpt>
      <trkpt lat="44.19515" lon="3.22274">
        <ele>605.76</ele>
        <time>2026-04-23T15:58:53.739Z</time>
      </trkpt>
      <trkpt lat="44.1951" lon="3.22267">
        <ele>605.81</ele>
        <time>2026-04-23T15:58:59.322Z</time>
      </trkpt>
      <trkpt lat="44.19505" lon="3.22261">
        <ele>606.47</ele>
        <time>2026-04-23T15:59:04.762Z</time>
      </trkpt>
      <trkpt lat="44.195" lon="3.22257">
        <ele>606.31</ele>
        <time>2026-04-23T15:59:10.003Z</time>
      </trkpt>
      <trkpt lat="44.19499" lon="3.22249">
        <ele>605.88</ele>
        <time>2026-04-23T15:59:15.142Z</time>
      </trkpt>
      <trkpt lat="44.19498" lon="3.22244">
        <ele>605.44</ele>
        <time>2026-04-23T15:59:20.766Z</time>
      </trkpt>
      <trkpt lat="44.195" lon="3.22241">
        <ele>606.14</ele>
        <time>2026-04-23T15:59:26.742Z</time>
      </trkpt>
      <trkpt lat="44.19501" lon="3.22236">
        <ele>607.04</ele>
        <time>2026-04-23T15:59:31.778Z</time>
      </trkpt>
      <trkpt lat="44.19504" lon="3.22231">
        <ele>607.13</ele>
        <time>2026-04-23T15:59:37.247Z</time>
      </trkpt>
      <trkpt lat="44.19507" lon="3.22224">
        <ele>606.41</ele>
        <time>2026-04-23T15:59:42.385Z</time>
      </trkpt>
      <trkpt lat="44.19507" lon="3.22215">
        <ele>605.56</ele>
        <time>2026-04-23T15:59:47.778Z</time>
      </trkpt>
      <trkpt lat="44.1951" lon="3.22207">
        <ele>605.19</ele>
        <time>2026-04-23T15:59:53.529Z</time>
      </trkpt>
      <trkpt lat="44.19513" lon="3.22203">
        <ele>605.42</ele>
        <time>2026-04-23T15:59:58.666Z</time>
      </trkpt>
      <trkpt lat="44.19514" lon="3.22197">
        <ele>605.72</ele>
        <time>2026-04-23T16:00:03.766Z</time>
      </trkpt>
      <trkpt lat="44.19513" lon="3.22189">
        <ele>605.71</ele>
        <time>2026-04-23T16:00:09.346Z</time>
      </trkpt>
      <trkpt lat="44.19513" lon="3.2218">
        <ele>605.07</ele>
        <time>2026-04-23T16:00:14.806Z</time>
      </trkpt>
      <trkpt lat="44.19517" lon="3.22174">
        <ele>603.97</ele>
        <time>2026-04-23T16:00:20.459Z</time>
      </trkpt>
      <trkpt lat="44.19519" lon="3.22166">
        <ele>604.03</ele>
        <time>2026-04-23T16:00:25.778Z</time>
      </trkpt>
      <trkpt lat="44.19516" lon="3.22158">
        <ele>604.9</ele>
        <time>2026-04-23T16:00:30.778Z</time>
      </trkpt>
      <trkpt lat="44.19509" lon="3.22151">
        <ele>605.25</ele>
        <time>2026-04-23T16:00:36.735Z</time>
      </trkpt>
      <trkpt lat="44.19502" lon="3.2215">
        <ele>604.93</ele>
        <time>2026-04-23T16:00:41.859Z</time>
      </trkpt>
      <trkpt lat="44.19495" lon="3.22145">
        <ele>604.52</ele>
        <time>2026-04-23T16:00:47.725Z</time>
      </trkpt>
      <trkpt lat="44.1949" lon="3.22142">
        <ele>604.68</ele>
        <time>2026-04-23T16:00:53.705Z</time>
      </trkpt>
      <trkpt lat="44.19486" lon="3.2214">
        <ele>604.99</ele>
        <time>2026-04-23T16:00:58.906Z</time>
      </trkpt>
      <trkpt lat="44.19479" lon="3.2214">
        <ele>605.13</ele>
        <time>2026-04-23T16:01:04.625Z</time>
      </trkpt>
      <trkpt lat="44.19476" lon="3.22141">
        <ele>604</ele>
        <time>2026-04-23T16:01:09.706Z</time>
      </trkpt>
      <trkpt lat="44.19472" lon="3.22141">
        <ele>603.39</ele>
        <time>2026-04-23T16:01:14.965Z</time>
      </trkpt>
      <trkpt lat="44.19466" lon="3.22141">
        <ele>602.15</ele>
        <time>2026-04-23T16:01:20.540Z</time>
      </trkpt>
      <trkpt lat="44.1946" lon="3.22138">
        <ele>601.73</ele>
        <time>2026-04-23T16:01:25.824Z</time>
      </trkpt>
      <trkpt lat="44.19457" lon="3.22133">
        <ele>601.8</ele>
        <time>2026-04-23T16:01:31.185Z</time>
      </trkpt>
      <trkpt lat="44.19452" lon="3.22127">
        <ele>602.01</ele>
        <time>2026-04-23T16:01:36.802Z</time>
      </trkpt>
      <trkpt lat="44.19446" lon="3.22121">
        <ele>601.29</ele>
        <time>2026-04-23T16:01:42.582Z</time>
      </trkpt>
      <trkpt lat="44.19441" lon="3.22116">
        <ele>600.3</ele>
        <time>2026-04-23T16:01:47.721Z</time>
      </trkpt>
      <trkpt lat="44.19435" lon="3.22114">
        <ele>599.74</ele>
        <time>2026-04-23T16:01:53.386Z</time>
      </trkpt>
      <trkpt lat="44.19431" lon="3.22109">
        <ele>599.74</ele>
        <time>2026-04-23T16:01:58.586Z</time>
      </trkpt>
      <trkpt lat="44.1943" lon="3.22104">
        <ele>599.43</ele>
        <time>2026-04-23T16:02:03.802Z</time>
      </trkpt>
      <trkpt lat="44.19424" lon="3.22101">
        <ele>598.63</ele>
        <time>2026-04-23T16:02:09.777Z</time>
      </trkpt>
      <trkpt lat="44.1942" lon="3.221">
        <ele>598.79</ele>
        <time>2026-04-23T16:02:15.204Z</time>
      </trkpt>
      <trkpt lat="44.19415" lon="3.22099">
        <ele>598.87</ele>
        <time>2026-04-23T16:02:20.584Z</time>
      </trkpt>
      <trkpt lat="44.19409" lon="3.22095">
        <ele>598.99</ele>
        <time>2026-04-23T16:02:25.675Z</time>
      </trkpt>
      <trkpt lat="44.19406" lon="3.2209">
        <ele>599.47</ele>
        <time>2026-04-23T16:02:31.342Z</time>
      </trkpt>
      <trkpt lat="44.19404" lon="3.22083">
        <ele>599.17</ele>
        <time>2026-04-23T16:02:36.772Z</time>
      </trkpt>
      <trkpt lat="44.19399" lon="3.22079">
        <ele>599.6</ele>
        <time>2026-04-23T16:02:42.165Z</time>
      </trkpt>
      <trkpt lat="44.19396" lon="3.22074">
        <ele>599.6</ele>
        <time>2026-04-23T16:02:47.205Z</time>
      </trkpt>
      <trkpt lat="44.19395" lon="3.22069">
        <ele>599.73</ele>
        <time>2026-04-23T16:02:52.776Z</time>
      </trkpt>
      <trkpt lat="44.19392" lon="3.22067">
        <ele>601.87</ele>
        <time>2026-04-23T16:02:58.114Z</time>
      </trkpt>
      <trkpt lat="44.19389" lon="3.22061">
        <ele>602.32</ele>
        <time>2026-04-23T16:03:03.769Z</time>
      </trkpt>
      <trkpt lat="44.19385" lon="3.22056">
        <ele>601.5</ele>
        <time>2026-04-23T16:03:09.610Z</time>
      </trkpt>
      <trkpt lat="44.19384" lon="3.22051">
        <ele>600.4</ele>
        <time>2026-04-23T16:03:15.798Z</time>
      </trkpt>
      <trkpt lat="44.19383" lon="3.22044">
        <ele>599.4</ele>
        <time>2026-04-23T16:03:21.100Z</time>
      </trkpt>
      <trkpt lat="44.19381" lon="3.22038">
        <ele>599.17</ele>
        <time>2026-04-23T16:03:26.682Z</time>
      </trkpt>
      <trkpt lat="44.1938" lon="3.2203">
        <ele>598.35</ele>
        <time>2026-04-23T16:03:31.794Z</time>
      </trkpt>
      <trkpt lat="44.19379" lon="3.22023">
        <ele>597.76</ele>
        <time>2026-04-23T16:03:37.424Z</time>
      </trkpt>
      <trkpt lat="44.19378" lon="3.22017">
        <ele>597.35</ele>
        <time>2026-04-23T16:03:42.696Z</time>
      </trkpt>
      <trkpt lat="44.19377" lon="3.22011">
        <ele>596.62</ele>
        <time>2026-04-23T16:03:47.777Z</time>
      </trkpt>
      <trkpt lat="44.19378" lon="3.22006">
        <ele>596.13</ele>
        <time>2026-04-23T16:03:53.824Z</time>
      </trkpt>
      <trkpt lat="44.19378" lon="3.22008">
        <ele>595.94</ele>
        <time>2026-04-23T16:03:59.778Z</time>
      </trkpt>
      <trkpt lat="44.19378" lon="3.22006">
        <ele>595.77</ele>
        <time>2026-04-23T16:04:08.914Z</time>
      </trkpt>
      <trkpt lat="44.19381" lon="3.21996">
        <ele>595.77</ele>
        <time>2026-04-23T16:04:14.737Z</time>
      </trkpt>
      <trkpt lat="44.19381" lon="3.21987">
        <ele>595.42</ele>
        <time>2026-04-23T16:04:20.120Z</time>
      </trkpt>
      <trkpt lat="44.19382" lon="3.21981">
        <ele>595.61</ele>
        <time>2026-04-23T16:04:25.162Z</time>
      </trkpt>
      <trkpt lat="44.19383" lon="3.21972">
        <ele>595.61</ele>
        <time>2026-04-23T16:04:30.604Z</time>
      </trkpt>
      <trkpt lat="44.19386" lon="3.21965">
        <ele>595.21</ele>
        <time>2026-04-23T16:04:35.757Z</time>
      </trkpt>
      <trkpt lat="44.19389" lon="3.2196">
        <ele>595.85</ele>
        <time>2026-04-23T16:04:41.078Z</time>
      </trkpt>
      <trkpt lat="44.19387" lon="3.21953">
        <ele>595.28</ele>
        <time>2026-04-23T16:04:46.778Z</time>
      </trkpt>
      <trkpt lat="44.19389" lon="3.21949">
        <ele>595.53</ele>
        <time>2026-04-23T16:04:52.778Z</time>
      </trkpt>
      <trkpt lat="44.19389" lon="3.2195">
        <ele>595.62</ele>
        <time>2026-04-23T16:04:57.778Z</time>
      </trkpt>
      <trkpt lat="44.19389" lon="3.21949">
        <ele>595.2</ele>
        <time>2026-04-23T16:05:04.578Z</time>
      </trkpt>
      <trkpt lat="44.1939" lon="3.21937">
        <ele>595.43</ele>
        <time>2026-04-23T16:05:09.745Z</time>
      </trkpt>
      <trkpt lat="44.19387" lon="3.2193">
        <ele>594.09</ele>
        <time>2026-04-23T16:05:15.603Z</time>
      </trkpt>
      <trkpt lat="44.19384" lon="3.21924">
        <ele>593.26</ele>
        <time>2026-04-23T16:05:20.742Z</time>
      </trkpt>
      <trkpt lat="44.19381" lon="3.21918">
        <ele>592.74</ele>
        <time>2026-04-23T16:05:26.268Z</time>
      </trkpt>
      <trkpt lat="44.1938" lon="3.21912">
        <ele>591.31</ele>
        <time>2026-04-23T16:05:31.618Z</time>
      </trkpt>
      <trkpt lat="44.19381" lon="3.21905">
        <ele>590.55</ele>
        <time>2026-04-23T16:05:36.723Z</time>
      </trkpt>
      <trkpt lat="44.1938" lon="3.21901">
        <ele>589.02</ele>
        <time>2026-04-23T16:05:41.821Z</time>
      </trkpt>
      <trkpt lat="44.1938" lon="3.21898">
        <ele>587.44</ele>
        <time>2026-04-23T16:05:47.190Z</time>
      </trkpt>
      <trkpt lat="44.19379" lon="3.21898">
        <ele>587.21</ele>
        <time>2026-04-23T16:05:55.430Z</time>
      </trkpt>
      <trkpt lat="44.19377" lon="3.2189">
        <ele>586.55</ele>
        <time>2026-04-23T16:06:00.664Z</time>
      </trkpt>
      <trkpt lat="44.19377" lon="3.2188">
        <ele>586.64</ele>
        <time>2026-04-23T16:06:05.692Z</time>
      </trkpt>
      <trkpt lat="44.19376" lon="3.21871">
        <ele>585.95</ele>
        <time>2026-04-23T16:06:10.972Z</time>
      </trkpt>
      <trkpt lat="44.19376" lon="3.21865">
        <ele>585.85</ele>
        <time>2026-04-23T16:06:16.730Z</time>
      </trkpt>
      <trkpt lat="44.19377" lon="3.21858">
        <ele>585.73</ele>
        <time>2026-04-23T16:06:21.745Z</time>
      </trkpt>
      <trkpt lat="44.19379" lon="3.21848">
        <ele>585.66</ele>
        <time>2026-04-23T16:06:27.749Z</time>
      </trkpt>
      <trkpt lat="44.19379" lon="3.21843">
        <ele>585.25</ele>
        <time>2026-04-23T16:06:32.791Z</time>
      </trkpt>
      <trkpt lat="44.19379" lon="3.21838">
        <ele>585.7</ele>
        <time>2026-04-23T16:06:38.224Z</time>
      </trkpt>
      <trkpt lat="44.19381" lon="3.2183">
        <ele>585.94</ele>
        <time>2026-04-23T16:06:43.471Z</time>
      </trkpt>
      <trkpt lat="44.19385" lon="3.21824">
        <ele>586</ele>
        <time>2026-04-23T16:06:48.740Z</time>
      </trkpt>
      <trkpt lat="44.19388" lon="3.21819">
        <ele>586.12</ele>
        <time>2026-04-23T16:06:53.755Z</time>
      </trkpt>
      <trkpt lat="44.1939" lon="3.21813">
        <ele>585.18</ele>
        <time>2026-04-23T16:06:58.770Z</time>
      </trkpt>
      <trkpt lat="44.19391" lon="3.21809">
        <ele>584.31</ele>
        <time>2026-04-23T16:07:04.348Z</time>
      </trkpt>
      <trkpt lat="44.19392" lon="3.21803">
        <ele>583.91</ele>
        <time>2026-04-23T16:07:10.093Z</time>
      </trkpt>
      <trkpt lat="44.19394" lon="3.21796">
        <ele>583.27</ele>
        <time>2026-04-23T16:07:15.394Z</time>
      </trkpt>
      <trkpt lat="44.19395" lon="3.21788">
        <ele>583.79</ele>
        <time>2026-04-23T16:07:20.567Z</time>
      </trkpt>
      <trkpt lat="44.19397" lon="3.21782">
        <ele>583.98</ele>
        <time>2026-04-23T16:07:25.805Z</time>
      </trkpt>
      <trkpt lat="44.19403" lon="3.21776">
        <ele>583.17</ele>
        <time>2026-04-23T16:07:31.469Z</time>
      </trkpt>
      <trkpt lat="44.19406" lon="3.21767">
        <ele>583.26</ele>
        <time>2026-04-23T16:07:36.707Z</time>
      </trkpt>
      <trkpt lat="44.19408" lon="3.21761">
        <ele>583.17</ele>
        <time>2026-04-23T16:07:41.765Z</time>
      </trkpt>
      <trkpt lat="44.19412" lon="3.21756">
        <ele>584.44</ele>
        <time>2026-04-23T16:07:47.110Z</time>
      </trkpt>
      <trkpt lat="44.19414" lon="3.21749">
        <ele>584.9</ele>
        <time>2026-04-23T16:07:52.506Z</time>
      </trkpt>
      <trkpt lat="44.19414" lon="3.2174">
        <ele>584.9</ele>
        <time>2026-04-23T16:07:58.737Z</time>
      </trkpt>
      <trkpt lat="44.19414" lon="3.21742">
        <ele>584.09</ele>
        <time>2026-04-23T16:08:03.752Z</time>
      </trkpt>
      <trkpt lat="44.19414" lon="3.21743">
        <ele>584.79</ele>
        <time>2026-04-23T16:08:14.742Z</time>
      </trkpt>
      <trkpt lat="44.19414" lon="3.21741">
        <ele>584.34</ele>
        <time>2026-04-23T16:08:30.164Z</time>
      </trkpt>
      <trkpt lat="44.19414" lon="3.21729">
        <ele>584.32</ele>
        <time>2026-04-23T16:08:35.763Z</time>
      </trkpt>
      <trkpt lat="44.19416" lon="3.21719">
        <ele>584.76</ele>
        <time>2026-04-23T16:08:41.386Z</time>
      </trkpt>
      <trkpt lat="44.19414" lon="3.21711">
        <ele>585.28</ele>
        <time>2026-04-23T16:08:46.753Z</time>
      </trkpt>
      <trkpt lat="44.19411" lon="3.21704">
        <ele>585.63</ele>
        <time>2026-04-23T16:08:52.687Z</time>
      </trkpt>
      <trkpt lat="44.19408" lon="3.21698">
        <ele>584.24</ele>
        <time>2026-04-23T16:08:57.730Z</time>
      </trkpt>
      <trkpt lat="44.19407" lon="3.2169">
        <ele>583.56</ele>
        <time>2026-04-23T16:09:02.759Z</time>
      </trkpt>
      <trkpt lat="44.19406" lon="3.21683">
        <ele>583.15</ele>
        <time>2026-04-23T16:09:07.773Z</time>
      </trkpt>
      <trkpt lat="44.19403" lon="3.2168">
        <ele>583.63</ele>
        <time>2026-04-23T16:09:12.789Z</time>
      </trkpt>
      <trkpt lat="44.19398" lon="3.21677">
        <ele>582.96</ele>
        <time>2026-04-23T16:09:18.190Z</time>
      </trkpt>
      <trkpt lat="44.19395" lon="3.21672">
        <ele>582.44</ele>
        <time>2026-04-23T16:09:23.205Z</time>
      </trkpt>
      <trkpt lat="44.19393" lon="3.21669">
        <ele>581.72</ele>
        <time>2026-04-23T16:09:28.692Z</time>
      </trkpt>
      <trkpt lat="44.19388" lon="3.21665">
        <ele>581.26</ele>
        <time>2026-04-23T16:09:33.811Z</time>
      </trkpt>
      <trkpt lat="44.19381" lon="3.2166">
        <ele>581.92</ele>
        <time>2026-04-23T16:09:39.643Z</time>
      </trkpt>
      <trkpt lat="44.19377" lon="3.21653">
        <ele>582.52</ele>
        <time>2026-04-23T16:09:45.771Z</time>
      </trkpt>
      <trkpt lat="44.19373" lon="3.21649">
        <ele>582.75</ele>
        <time>2026-04-23T16:09:50.775Z</time>
      </trkpt>
      <trkpt lat="44.19373" lon="3.21642">
        <ele>582.85</ele>
        <time>2026-04-23T16:09:55.790Z</time>
      </trkpt>
      <trkpt lat="44.19372" lon="3.21637">
        <ele>582.89</ele>
        <time>2026-04-23T16:10:01.030Z</time>
      </trkpt>
      <trkpt lat="44.19371" lon="3.21631">
        <ele>584.07</ele>
        <time>2026-04-23T16:10:06.412Z</time>
      </trkpt>
      <trkpt lat="44.1937" lon="3.21627">
        <ele>585.09</ele>
        <time>2026-04-23T16:10:11.427Z</time>
      </trkpt>
      <trkpt lat="44.19368" lon="3.21623">
        <ele>585.54</ele>
        <time>2026-04-23T16:10:16.704Z</time>
      </trkpt>
      <trkpt lat="44.19365" lon="3.21617">
        <ele>585.99</ele>
        <time>2026-04-23T16:10:22.470Z</time>
      </trkpt>
      <trkpt lat="44.19364" lon="3.21612">
        <ele>586.4</ele>
        <time>2026-04-23T16:10:27.694Z</time>
      </trkpt>
      <trkpt lat="44.19362" lon="3.21606">
        <ele>587.93</ele>
        <time>2026-04-23T16:10:33.113Z</time>
      </trkpt>
      <trkpt lat="44.1936" lon="3.21602">
        <ele>588.06</ele>
        <time>2026-04-23T16:10:38.711Z</time>
      </trkpt>
      <trkpt lat="44.19357" lon="3.21595">
        <ele>588.28</ele>
        <time>2026-04-23T16:10:44.167Z</time>
      </trkpt>
      <trkpt lat="44.19355" lon="3.21589">
        <ele>589.03</ele>
        <time>2026-04-23T16:10:49.609Z</time>
      </trkpt>
      <trkpt lat="44.19354" lon="3.21582">
        <ele>589.75</ele>
        <time>2026-04-23T16:10:54.746Z</time>
      </trkpt>
      <trkpt lat="44.19353" lon="3.21573">
        <ele>589.35</ele>
        <time>2026-04-23T16:11:00.089Z</time>
      </trkpt>
      <trkpt lat="44.19352" lon="3.21565">
        <ele>589.6</ele>
        <time>2026-04-23T16:11:05.347Z</time>
      </trkpt>
      <trkpt lat="44.1935" lon="3.2156">
        <ele>589.95</ele>
        <time>2026-04-23T16:11:10.351Z</time>
      </trkpt>
      <trkpt lat="44.19348" lon="3.21554">
        <ele>590.26</ele>
        <time>2026-04-23T16:11:15.736Z</time>
      </trkpt>
      <trkpt lat="44.19346" lon="3.21545">
        <ele>590.65</ele>
        <time>2026-04-23T16:11:21.164Z</time>
      </trkpt>
      <trkpt lat="44.19344" lon="3.21539">
        <ele>590.38</ele>
        <time>2026-04-23T16:11:26.748Z</time>
      </trkpt>
      <trkpt lat="44.19341" lon="3.21534">
        <ele>590.25</ele>
        <time>2026-04-23T16:11:32.067Z</time>
      </trkpt>
      <trkpt lat="44.19339" lon="3.21529">
        <ele>589.52</ele>
        <time>2026-04-23T16:11:37.152Z</time>
      </trkpt>
      <trkpt lat="44.19335" lon="3.21528">
        <ele>589.09</ele>
        <time>2026-04-23T16:11:42.813Z</time>
      </trkpt>
      <trkpt lat="44.19333" lon="3.2153">
        <ele>589.28</ele>
        <time>2026-04-23T16:11:48.681Z</time>
      </trkpt>
      <trkpt lat="44.19334" lon="3.21531">
        <ele>589.26</ele>
        <time>2026-04-23T16:11:53.696Z</time>
      </trkpt>
      <trkpt lat="44.19335" lon="3.21532">
        <ele>589.35</ele>
        <time>2026-04-23T16:11:58.711Z</time>
      </trkpt>
      <trkpt lat="44.19336" lon="3.21533">
        <ele>588.96</ele>
        <time>2026-04-23T16:12:07.781Z</time>
      </trkpt>
      <trkpt lat="44.19335" lon="3.21534">
        <ele>589.5</ele>
        <time>2026-04-23T16:12:31.953Z</time>
      </trkpt>
      <trkpt lat="44.19334" lon="3.21534">
        <ele>589.38</ele>
        <time>2026-04-23T16:12:48.353Z</time>
      </trkpt>
      <trkpt lat="44.19333" lon="3.21533">
        <ele>588.66</ele>
        <time>2026-04-23T16:12:59.744Z</time>
      </trkpt>
      <trkpt lat="44.19331" lon="3.21526">
        <ele>589.06</ele>
        <time>2026-04-23T16:13:04.807Z</time>
      </trkpt>
      <trkpt lat="44.19327" lon="3.21519">
        <ele>590.88</ele>
        <time>2026-04-23T16:13:10.552Z</time>
      </trkpt>
      <trkpt lat="44.19323" lon="3.21515">
        <ele>591.22</ele>
        <time>2026-04-23T16:13:15.612Z</time>
      </trkpt>
      <trkpt lat="44.19321" lon="3.21511">
        <ele>592.36</ele>
        <time>2026-04-23T16:13:20.764Z</time>
      </trkpt>
      <trkpt lat="44.19319" lon="3.21506">
        <ele>593.95</ele>
        <time>2026-04-23T16:13:26.069Z</time>
      </trkpt>
      <trkpt lat="44.19318" lon="3.21501">
        <ele>594.72</ele>
        <time>2026-04-23T16:13:31.674Z</time>
      </trkpt>
      <trkpt lat="44.19316" lon="3.21497">
        <ele>595.26</ele>
        <time>2026-04-23T16:13:36.770Z</time>
      </trkpt>
      <trkpt lat="44.19314" lon="3.21494">
        <ele>596.52</ele>
        <time>2026-04-23T16:13:41.818Z</time>
      </trkpt>
      <trkpt lat="44.19313" lon="3.21492">
        <ele>597.18</ele>
        <time>2026-04-23T16:13:47.760Z</time>
      </trkpt>
      <trkpt lat="44.19312" lon="3.21487">
        <ele>598.18</ele>
        <time>2026-04-23T16:13:53.427Z</time>
      </trkpt>
      <trkpt lat="44.19311" lon="3.21484">
        <ele>598.78</ele>
        <time>2026-04-23T16:13:58.776Z</time>
      </trkpt>
      <trkpt lat="44.19311" lon="3.21482">
        <ele>599.83</ele>
        <time>2026-04-23T16:14:03.787Z</time>
      </trkpt>
      <trkpt lat="44.19311" lon="3.21478">
        <ele>601.53</ele>
        <time>2026-04-23T16:14:09.532Z</time>
      </trkpt>
      <trkpt lat="44.1931" lon="3.21476">
        <ele>602.43</ele>
        <time>2026-04-23T16:14:14.755Z</time>
      </trkpt>
      <trkpt lat="44.1931" lon="3.21471">
        <ele>602.25</ele>
        <time>2026-04-23T16:14:20.818Z</time>
      </trkpt>
      <trkpt lat="44.19308" lon="3.21469">
        <ele>602.97</ele>
        <time>2026-04-23T16:14:25.861Z</time>
      </trkpt>
      <trkpt lat="44.19309" lon="3.21466">
        <ele>606.02</ele>
        <time>2026-04-23T16:14:31.521Z</time>
      </trkpt>
      <trkpt lat="44.19308" lon="3.21465">
        <ele>606.99</ele>
        <time>2026-04-23T16:14:36.685Z</time>
      </trkpt>
      <trkpt lat="44.19307" lon="3.21462">
        <ele>607.74</ele>
        <time>2026-04-23T16:14:42.845Z</time>
      </trkpt>
      <trkpt lat="44.19305" lon="3.2146">
        <ele>609</ele>
        <time>2026-04-23T16:14:48.820Z</time>
      </trkpt>
      <trkpt lat="44.19305" lon="3.21458">
        <ele>609.62</ele>
        <time>2026-04-23T16:14:54.160Z</time>
      </trkpt>
      <trkpt lat="44.19307" lon="3.21456">
        <ele>611.33</ele>
        <time>2026-04-23T16:14:59.409Z</time>
      </trkpt>
      <trkpt lat="44.19308" lon="3.21458">
        <ele>611.56</ele>
        <time>2026-04-23T16:15:04.717Z</time>
      </trkpt>
      <trkpt lat="44.19304" lon="3.21454">
        <ele>612.33</ele>
        <time>2026-04-23T16:15:26.818Z</time>
      </trkpt>
      <trkpt lat="44.19304" lon="3.21454">
        <ele>615.13</ele>
        <time>2026-04-23T16:15:32.818Z</time>
      </trkpt>
      <trkpt lat="44.19302" lon="3.21455">
        <ele>614.8</ele>
        <time>2026-04-23T16:15:39.623Z</time>
      </trkpt>
      <trkpt lat="44.19299" lon="3.21458">
        <ele>617.05</ele>
        <time>2026-04-23T16:15:44.847Z</time>
      </trkpt>
      <trkpt lat="44.19298" lon="3.21459">
        <ele>616.78</ele>
        <time>2026-04-23T16:15:50.223Z</time>
      </trkpt>
      <trkpt lat="44.19298" lon="3.21458">
        <ele>617.76</ele>
        <time>2026-04-23T16:15:56.685Z</time>
      </trkpt>
      <trkpt lat="44.19298" lon="3.21457">
        <ele>619.41</ele>
        <time>2026-04-23T16:16:03.818Z</time>
      </trkpt>
      <trkpt lat="44.19299" lon="3.21455">
        <ele>619.6</ele>
        <time>2026-04-23T16:16:09.708Z</time>
      </trkpt>
      <trkpt lat="44.193" lon="3.21454">
        <ele>620.33</ele>
        <time>2026-04-23T16:16:15.790Z</time>
      </trkpt>
      <trkpt lat="44.19302" lon="3.21452">
        <ele>621.95</ele>
        <time>2026-04-23T16:16:21.873Z</time>
      </trkpt>
      <trkpt lat="44.19306" lon="3.21449">
        <ele>625.32</ele>
        <time>2026-04-23T16:16:27.293Z</time>
      </trkpt>
      <trkpt lat="44.19307" lon="3.21448">
        <ele>622.06</ele>
        <time>2026-04-23T16:16:32.307Z</time>
      </trkpt>
      <trkpt lat="44.19308" lon="3.21447">
        <ele>627.63</ele>
        <time>2026-04-23T16:16:37.779Z</time>
      </trkpt>
      <trkpt lat="44.19309" lon="3.21446">
        <ele>625.68</ele>
        <time>2026-04-23T16:16:48.135Z</time>
      </trkpt>
      <trkpt lat="44.1931" lon="3.21444">
        <ele>629.38</ele>
        <time>2026-04-23T16:16:53.490Z</time>
      </trkpt>
      <trkpt lat="44.19313" lon="3.21444">
        <ele>630.58</ele>
        <time>2026-04-23T16:16:58.741Z</time>
      </trkpt>
      <trkpt lat="44.19316" lon="3.21447">
        <ele>631.77</ele>
        <time>2026-04-23T16:17:03.814Z</time>
      </trkpt>
      <trkpt lat="44.1932" lon="3.21454">
        <ele>631.59</ele>
        <time>2026-04-23T16:17:09.402Z</time>
      </trkpt>
      <trkpt lat="44.19318" lon="3.2146">
        <ele>631.64</ele>
        <time>2026-04-23T16:17:14.746Z</time>
      </trkpt>
      <trkpt lat="44.1932" lon="3.21469">
        <ele>632.56</ele>
        <time>2026-04-23T16:17:20.780Z</time>
      </trkpt>
      <trkpt lat="44.19319" lon="3.21475">
        <ele>631.8</ele>
        <time>2026-04-23T16:17:26.484Z</time>
      </trkpt>
      <trkpt lat="44.19325" lon="3.21474">
        <ele>631.71</ele>
        <time>2026-04-23T16:17:32.246Z</time>
      </trkpt>
      <trkpt lat="44.19328" lon="3.2147">
        <ele>631.89</ele>
        <time>2026-04-23T16:17:37.745Z</time>
      </trkpt>
      <trkpt lat="44.19328" lon="3.21468">
        <ele>631.69</ele>
        <time>2026-04-23T16:17:42.867Z</time>
      </trkpt>
      <trkpt lat="44.19327" lon="3.21469">
        <ele>631.2</ele>
        <time>2026-04-23T16:17:50.818Z</time>
      </trkpt>
      <trkpt lat="44.19327" lon="3.21469">
        <ele>629.45</ele>
        <time>2026-04-23T16:18:01.781Z</time>
      </trkpt>
      <trkpt lat="44.19326" lon="3.21469">
        <ele>632.52</ele>
        <time>2026-04-23T16:18:15.731Z</time>
      </trkpt>
      <trkpt lat="44.19325" lon="3.21468">
        <ele>632.43</ele>
        <time>2026-04-23T16:18:21.424Z</time>
      </trkpt>
      <trkpt lat="44.19325" lon="3.21465">
        <ele>634.12</ele>
        <time>2026-04-23T16:18:26.565Z</time>
      </trkpt>
      <trkpt lat="44.19326" lon="3.21463">
        <ele>634.86</ele>
        <time>2026-04-23T16:18:31.843Z</time>
      </trkpt>
      <trkpt lat="44.19326" lon="3.21462">
        <ele>636.5</ele>
        <time>2026-04-23T16:18:39.738Z</time>
      </trkpt>
      <trkpt lat="44.19325" lon="3.21462">
        <ele>637.65</ele>
        <time>2026-04-23T16:18:45.714Z</time>
      </trkpt>
      <trkpt lat="44.19326" lon="3.21463">
        <ele>638.87</ele>
        <time>2026-04-23T16:19:41.764Z</time>
      </trkpt>
      <trkpt lat="44.19325" lon="3.21462">
        <ele>638.96</ele>
        <time>2026-04-23T16:19:49.510Z</time>
      </trkpt>
      <trkpt lat="44.19322" lon="3.21457">
        <ele>642.33</ele>
        <time>2026-04-23T16:19:54.606Z</time>
      </trkpt>
      <trkpt lat="44.19323" lon="3.21455">
        <ele>641.61</ele>
        <time>2026-04-23T16:19:59.795Z</time>
      </trkpt>
      <trkpt lat="44.19324" lon="3.21449">
        <ele>640.63</ele>
        <time>2026-04-23T16:20:05.597Z</time>
      </trkpt>
      <trkpt lat="44.19323" lon="3.21451">
        <ele>642.32</ele>
        <time>2026-04-23T16:20:11.741Z</time>
      </trkpt>
      <trkpt lat="44.19324" lon="3.21452">
        <ele>641.63</ele>
        <time>2026-04-23T16:20:17.479Z</time>
      </trkpt>
      <trkpt lat="44.19327" lon="3.21449">
        <ele>645.2</ele>
        <time>2026-04-23T16:20:23.494Z</time>
      </trkpt>
      <trkpt lat="44.19326" lon="3.21449">
        <ele>646.34</ele>
        <time>2026-04-23T16:20:43.757Z</time>
      </trkpt>
      <trkpt lat="44.19326" lon="3.2145">
        <ele>648.62</ele>
        <time>2026-04-23T16:21:06.698Z</time>
      </trkpt>
      <trkpt lat="44.19326" lon="3.21449">
        <ele>647.76</ele>
        <time>2026-04-23T16:21:25.038Z</time>
      </trkpt>
      <trkpt lat="44.19326" lon="3.21447">
        <ele>650.41</ele>
        <time>2026-04-23T16:21:31.772Z</time>
      </trkpt>
      <trkpt lat="44.19325" lon="3.21446">
        <ele>650.68</ele>
        <time>2026-04-23T16:21:36.788Z</time>
      </trkpt>
      <trkpt lat="44.19325" lon="3.21449">
        <ele>652.01</ele>
        <time>2026-04-23T16:21:42.763Z</time>
      </trkpt>
      <trkpt lat="44.19326" lon="3.21448">
        <ele>653.13</ele>
        <time>2026-04-23T16:21:52.793Z</time>
      </trkpt>
      <trkpt lat="44.19326" lon="3.21447">
        <ele>652.82</ele>
        <time>2026-04-23T16:21:58.662Z</time>
      </trkpt>
      <trkpt lat="44.19326" lon="3.21445">
        <ele>653.06</ele>
        <time>2026-04-23T16:22:03.680Z</time>
      </trkpt>
      <trkpt lat="44.19327" lon="3.21444">
        <ele>654.95</ele>
        <time>2026-04-23T16:22:25.769Z</time>
      </trkpt>
      <trkpt lat="44.19329" lon="3.21446">
        <ele>654.08</ele>
        <time>2026-04-23T16:22:31.744Z</time>
      </trkpt>
      <trkpt lat="44.19328" lon="3.21447">
        <ele>653.41</ele>
        <time>2026-04-23T16:22:44.763Z</time>
      </trkpt>
      <trkpt lat="44.19329" lon="3.21446">
        <ele>656.11</ele>
        <time>2026-04-23T16:23:08.362Z</time>
      </trkpt>
      <trkpt lat="44.19329" lon="3.21445">
        <ele>655.52</ele>
        <time>2026-04-23T16:23:17.844Z</time>
      </trkpt>
      <trkpt lat="44.19328" lon="3.21444">
        <ele>655.9</ele>
        <time>2026-04-23T16:23:23.713Z</time>
      </trkpt>
      <trkpt lat="44.19328" lon="3.21443">
        <ele>657.47</ele>
        <time>2026-04-23T16:24:00.405Z</time>
      </trkpt>
      <trkpt lat="44.19329" lon="3.21443">
        <ele>658.14</ele>
        <time>2026-04-23T16:24:05.659Z</time>
      </trkpt>
      <trkpt lat="44.19329" lon="3.21445">
        <ele>656.65</ele>
        <time>2026-04-23T16:24:21.771Z</time>
      </trkpt>
      <trkpt lat="44.19328" lon="3.21445">
        <ele>658.41</ele>
        <time>2026-04-23T16:24:33.326Z</time>
      </trkpt>
      <trkpt lat="44.19328" lon="3.21444">
        <ele>655.56</ele>
        <time>2026-04-23T16:24:47.811Z</time>
      </trkpt>
      <trkpt lat="44.19329" lon="3.21445">
        <ele>654.45</ele>
        <time>2026-04-23T16:24:57.818Z</time>
      </trkpt>
      <trkpt lat="44.1933" lon="3.21444">
        <ele>654.23</ele>
        <time>2026-04-23T16:25:03.818Z</time>
      </trkpt>
      <trkpt lat="44.19333" lon="3.21439">
        <ele>652.64</ele>
        <time>2026-04-23T16:25:09.794Z</time>
      </trkpt>
      <trkpt lat="44.19333" lon="3.21436">
        <ele>652.29</ele>
        <time>2026-04-23T16:25:14.809Z</time>
      </trkpt>
      <trkpt lat="44.19332" lon="3.21433">
        <ele>653.12</ele>
        <time>2026-04-23T16:25:19.825Z</time>
      </trkpt>
      <trkpt lat="44.1933" lon="3.21436">
        <ele>653.4</ele>
        <time>2026-04-23T16:25:25.592Z</time>
      </trkpt>
      <trkpt lat="44.19326" lon="3.2144">
        <ele>652.21</ele>
        <time>2026-04-23T16:25:31.776Z</time>
      </trkpt>
      <trkpt lat="44.19323" lon="3.21443">
        <ele>651.62</ele>
        <time>2026-04-23T16:25:37.818Z</time>
      </trkpt>
      <trkpt lat="44.19322" lon="3.21445">
        <ele>652.1</ele>
        <time>2026-04-23T16:25:42.818Z</time>
      </trkpt>
      <trkpt lat="44.1932" lon="3.21446">
        <ele>651.63</ele>
        <time>2026-04-23T16:25:47.818Z</time>
      </trkpt>
      <trkpt lat="44.1932" lon="3.21448">
        <ele>650.67</ele>
        <time>2026-04-23T16:25:52.818Z</time>
      </trkpt>
      <trkpt lat="44.19318" lon="3.21448">
        <ele>650.1</ele>
        <time>2026-04-23T16:25:57.818Z</time>
      </trkpt>
      <trkpt lat="44.19321" lon="3.21448">
        <ele>649.11</ele>
        <time>2026-04-23T16:26:04.661Z</time>
      </trkpt>
      <trkpt lat="44.19322" lon="3.2145">
        <ele>648.05</ele>
        <time>2026-04-23T16:26:09.661Z</time>
      </trkpt>
      <trkpt lat="44.19323" lon="3.2145">
        <ele>647.55</ele>
        <time>2026-04-23T16:26:14.661Z</time>
      </trkpt>
      <trkpt lat="44.19323" lon="3.21451">
        <ele>646.94</ele>
        <time>2026-04-23T16:26:19.662Z</time>
      </trkpt>
      <trkpt lat="44.19322" lon="3.21453">
        <ele>646.92</ele>
        <time>2026-04-23T16:26:25.662Z</time>
      </trkpt>
      <trkpt lat="44.19321" lon="3.21452">
        <ele>643.91</ele>
        <time>2026-04-23T16:26:35.661Z</time>
      </trkpt>
      <trkpt lat="44.19322" lon="3.21453">
        <ele>647.4</ele>
        <time>2026-04-23T16:26:43.661Z</time>
      </trkpt>
      <trkpt lat="44.19322" lon="3.21455">
        <ele>646.23</ele>
        <time>2026-04-23T16:26:48.662Z</time>
      </trkpt>
      <trkpt lat="44.19323" lon="3.21454">
        <ele>646.02</ele>
        <time>2026-04-23T16:26:53.662Z</time>
      </trkpt>
      <trkpt lat="44.19322" lon="3.21453">
        <ele>645.56</ele>
        <time>2026-04-23T16:26:58.663Z</time>
      </trkpt>
      <trkpt lat="44.19322" lon="3.2145">
        <ele>644.64</ele>
        <time>2026-04-23T16:27:04.662Z</time>
      </trkpt>
      <trkpt lat="44.19323" lon="3.21451">
        <ele>643.54</ele>
        <time>2026-04-23T16:27:15.663Z</time>
      </trkpt>
      <trkpt lat="44.19324" lon="3.21454">
        <ele>642.63</ele>
        <time>2026-04-23T16:27:20.663Z</time>
      </trkpt>
      <trkpt lat="44.19324" lon="3.21456">
        <ele>642.56</ele>
        <time>2026-04-23T16:27:25.663Z</time>
      </trkpt>
      <trkpt lat="44.19324" lon="3.21458">
        <ele>640.53</ele>
        <time>2026-04-23T16:27:47.663Z</time>
      </trkpt>
      <trkpt lat="44.19324" lon="3.21456">
        <ele>641.92</ele>
        <time>2026-04-23T16:27:55.664Z</time>
      </trkpt>
      <trkpt lat="44.19324" lon="3.21457">
        <ele>641.86</ele>
        <time>2026-04-23T16:28:00.664Z</time>
      </trkpt>
      <trkpt lat="44.19323" lon="3.21461">
        <ele>640.45</ele>
        <time>2026-04-23T16:28:06.664Z</time>
      </trkpt>
      <trkpt lat="44.1932" lon="3.21465">
        <ele>639.59</ele>
        <time>2026-04-23T16:28:11.664Z</time>
      </trkpt>
      <trkpt lat="44.19318" lon="3.2147">
        <ele>639.03</ele>
        <time>2026-04-23T16:28:17.665Z</time>
      </trkpt>
      <trkpt lat="44.19319" lon="3.2147">
        <ele>638.61</ele>
        <time>2026-04-23T16:28:24.664Z</time>
      </trkpt>
      <trkpt lat="44.1932" lon="3.21466">
        <ele>637.81</ele>
        <time>2026-04-23T16:28:29.664Z</time>
      </trkpt>
      <trkpt lat="44.19322" lon="3.21465">
        <ele>636.71</ele>
        <time>2026-04-23T16:28:34.664Z</time>
      </trkpt>
      <trkpt lat="44.19323" lon="3.21463">
        <ele>636.31</ele>
        <time>2026-04-23T16:28:39.665Z</time>
      </trkpt>
      <trkpt lat="44.19324" lon="3.21464">
        <ele>636.61</ele>
        <time>2026-04-23T16:28:45.666Z</time>
      </trkpt>
      <trkpt lat="44.19325" lon="3.21465">
        <ele>635.59</ele>
        <time>2026-04-23T16:28:51.665Z</time>
      </trkpt>
      <trkpt lat="44.19326" lon="3.21467">
        <ele>635.04</ele>
        <time>2026-04-23T16:28:56.665Z</time>
      </trkpt>
      <trkpt lat="44.19327" lon="3.21468">
        <ele>635.77</ele>
        <time>2026-04-23T16:29:02.664Z</time>
      </trkpt>
      <trkpt lat="44.19326" lon="3.2147">
        <ele>634.61</ele>
        <time>2026-04-23T16:29:09.665Z</time>
      </trkpt>
      <trkpt lat="44.19329" lon="3.21472">
        <ele>634.5</ele>
        <time>2026-04-23T16:29:14.665Z</time>
      </trkpt>
      <trkpt lat="44.1933" lon="3.21471">
        <ele>632.97</ele>
        <time>2026-04-23T16:29:22.665Z</time>
      </trkpt>
      <trkpt lat="44.19329" lon="3.2147">
        <ele>631.24</ele>
        <time>2026-04-23T16:29:28.666Z</time>
      </trkpt>
      <trkpt lat="44.19329" lon="3.21472">
        <ele>629.73</ele>
        <time>2026-04-23T16:29:40.665Z</time>
      </trkpt>
      <trkpt lat="44.19327" lon="3.21473">
        <ele>629.45</ele>
        <time>2026-04-23T16:29:45.666Z</time>
      </trkpt>
      <trkpt lat="44.19328" lon="3.21473">
        <ele>629.32</ele>
        <time>2026-04-23T16:29:58.666Z</time>
      </trkpt>
      <trkpt lat="44.19326" lon="3.21482">
        <ele>631.3</ele>
        <time>2026-04-23T16:30:04.666Z</time>
      </trkpt>
      <trkpt lat="44.19323" lon="3.21494">
        <ele>632.37</ele>
        <time>2026-04-23T16:30:09.666Z</time>
      </trkpt>
      <trkpt lat="44.19323" lon="3.21499">
        <ele>632.19</ele>
        <time>2026-04-23T16:30:14.666Z</time>
      </trkpt>
      <trkpt lat="44.19323" lon="3.21502">
        <ele>630.71</ele>
        <time>2026-04-23T16:30:19.666Z</time>
      </trkpt>
      <trkpt lat="44.19324" lon="3.21482">
        <ele>630.04</ele>
        <time>2026-04-23T16:30:24.666Z</time>
      </trkpt>
      <trkpt lat="44.1932" lon="3.21479">
        <ele>630.85</ele>
        <time>2026-04-23T16:30:30.526Z</time>
      </trkpt>
      <trkpt lat="44.19318" lon="3.21476">
        <ele>631.08</ele>
        <time>2026-04-23T16:30:35.818Z</time>
      </trkpt>
      <trkpt lat="44.19315" lon="3.21471">
        <ele>631.64</ele>
        <time>2026-04-23T16:30:41.338Z</time>
      </trkpt>
      <trkpt lat="44.19314" lon="3.21467">
        <ele>630.68</ele>
        <time>2026-04-23T16:30:46.398Z</time>
      </trkpt>
      <trkpt lat="44.19313" lon="3.21461">
        <ele>630.19</ele>
        <time>2026-04-23T16:30:51.803Z</time>
      </trkpt>
      <trkpt lat="44.19316" lon="3.21456">
        <ele>629.85</ele>
        <time>2026-04-23T16:30:57.285Z</time>
      </trkpt>
      <trkpt lat="44.1932" lon="3.21453">
        <ele>628.66</ele>
        <time>2026-04-23T16:31:02.646Z</time>
      </trkpt>
      <trkpt lat="44.19318" lon="3.21453">
        <ele>628.08</ele>
        <time>2026-04-23T16:31:07.702Z</time>
      </trkpt>
      <trkpt lat="44.19314" lon="3.21451">
        <ele>626.05</ele>
        <time>2026-04-23T16:31:13.784Z</time>
      </trkpt>
      <trkpt lat="44.19312" lon="3.21451">
        <ele>625.41</ele>
        <time>2026-04-23T16:31:19.760Z</time>
      </trkpt>
      <trkpt lat="44.19311" lon="3.2145">
        <ele>623.54</ele>
        <time>2026-04-23T16:31:33.628Z</time>
      </trkpt>
      <trkpt lat="44.1931" lon="3.21451">
        <ele>622.86</ele>
        <time>2026-04-23T16:31:41.284Z</time>
      </trkpt>
      <trkpt lat="44.19306" lon="3.21452">
        <ele>621.19</ele>
        <time>2026-04-23T16:31:46.668Z</time>
      </trkpt>
      <trkpt lat="44.19305" lon="3.21452">
        <ele>619.66</ele>
        <time>2026-04-23T16:31:54.669Z</time>
      </trkpt>
      <trkpt lat="44.19305" lon="3.21453">
        <ele>616.75</ele>
        <time>2026-04-23T16:32:05.667Z</time>
      </trkpt>
      <trkpt lat="44.19303" lon="3.21456">
        <ele>616.46</ele>
        <time>2026-04-23T16:32:10.669Z</time>
      </trkpt>
      <trkpt lat="44.19304" lon="3.21456">
        <ele>615.23</ele>
        <time>2026-04-23T16:32:15.669Z</time>
      </trkpt>
      <trkpt lat="44.19305" lon="3.21458">
        <ele>614.83</ele>
        <time>2026-04-23T16:32:20.669Z</time>
      </trkpt>
      <trkpt lat="44.19306" lon="3.21458">
        <ele>614.34</ele>
        <time>2026-04-23T16:32:25.669Z</time>
      </trkpt>
      <trkpt lat="44.19308" lon="3.21457">
        <ele>613.17</ele>
        <time>2026-04-23T16:32:30.750Z</time>
      </trkpt>
      <trkpt lat="44.19313" lon="3.21453">
        <ele>611.79</ele>
        <time>2026-04-23T16:32:38.828Z</time>
      </trkpt>
      <trkpt lat="44.19313" lon="3.21454">
        <ele>610.94</ele>
        <time>2026-04-23T16:32:43.843Z</time>
      </trkpt>
      <trkpt lat="44.19313" lon="3.21459">
        <ele>609.93</ele>
        <time>2026-04-23T16:32:49.818Z</time>
      </trkpt>
      <trkpt lat="44.19315" lon="3.21462">
        <ele>607.83</ele>
        <time>2026-04-23T16:32:55.407Z</time>
      </trkpt>
      <trkpt lat="44.1931" lon="3.21462">
        <ele>607.84</ele>
        <time>2026-04-23T16:33:00.599Z</time>
      </trkpt>
      <trkpt lat="44.19307" lon="3.21461">
        <ele>607.84</ele>
        <time>2026-04-23T16:33:05.763Z</time>
      </trkpt>
      <trkpt lat="44.19306" lon="3.21461">
        <ele>606.73</ele>
        <time>2026-04-23T16:33:10.839Z</time>
      </trkpt>
      <trkpt lat="44.19307" lon="3.21461">
        <ele>605.74</ele>
        <time>2026-04-23T16:33:19.326Z</time>
      </trkpt>
      <trkpt lat="44.19309" lon="3.21467">
        <ele>604.6</ele>
        <time>2026-04-23T16:33:24.816Z</time>
      </trkpt>
      <trkpt lat="44.1931" lon="3.2147">
        <ele>603.35</ele>
        <time>2026-04-23T16:33:30.181Z</time>
      </trkpt>
      <trkpt lat="44.19311" lon="3.21475">
        <ele>603.19</ele>
        <time>2026-04-23T16:33:35.340Z</time>
      </trkpt>
      <trkpt lat="44.19311" lon="3.21481">
        <ele>601.72</ele>
        <time>2026-04-23T16:33:40.822Z</time>
      </trkpt>
      <trkpt lat="44.19312" lon="3.21486">
        <ele>601.19</ele>
        <time>2026-04-23T16:33:45.837Z</time>
      </trkpt>
      <trkpt lat="44.19313" lon="3.21487">
        <ele>599.92</ele>
        <time>2026-04-23T16:33:51.462Z</time>
      </trkpt>
      <trkpt lat="44.19311" lon="3.21488">
        <ele>598.53</ele>
        <time>2026-04-23T16:33:56.827Z</time>
      </trkpt>
      <trkpt lat="44.1931" lon="3.21489">
        <ele>598.84</ele>
        <time>2026-04-23T16:34:03.763Z</time>
      </trkpt>
      <trkpt lat="44.1931" lon="3.21491">
        <ele>598.78</ele>
        <time>2026-04-23T16:34:08.778Z</time>
      </trkpt>
      <trkpt lat="44.19311" lon="3.21496">
        <ele>597.69</ele>
        <time>2026-04-23T16:34:13.918Z</time>
      </trkpt>
      <trkpt lat="44.19313" lon="3.21502">
        <ele>596.17</ele>
        <time>2026-04-23T16:34:19.327Z</time>
      </trkpt>
      <trkpt lat="44.19316" lon="3.21505">
        <ele>595.87</ele>
        <time>2026-04-23T16:34:24.404Z</time>
      </trkpt>
      <trkpt lat="44.1932" lon="3.21509">
        <ele>594.53</ele>
        <time>2026-04-23T16:34:29.686Z</time>
      </trkpt>
      <trkpt lat="44.19321" lon="3.21515">
        <ele>593.69</ele>
        <time>2026-04-23T16:34:34.813Z</time>
      </trkpt>
      <trkpt lat="44.19324" lon="3.21524">
        <ele>592.89</ele>
        <time>2026-04-23T16:34:39.981Z</time>
      </trkpt>
      <trkpt lat="44.19328" lon="3.21531">
        <ele>591.07</ele>
        <time>2026-04-23T16:34:45.893Z</time>
      </trkpt>
      <trkpt lat="44.19331" lon="3.21537">
        <ele>589.05</ele>
        <time>2026-04-23T16:34:51.683Z</time>
      </trkpt>
      <trkpt lat="44.19336" lon="3.21541">
        <ele>588.57</ele>
        <time>2026-04-23T16:34:56.793Z</time>
      </trkpt>
      <trkpt lat="44.19336" lon="3.21536">
        <ele>587.41</ele>
        <time>2026-04-23T16:35:01.818Z</time>
      </trkpt>
      <trkpt lat="44.19335" lon="3.21538">
        <ele>587.67</ele>
        <time>2026-04-23T16:35:07.784Z</time>
      </trkpt>
      <trkpt lat="44.19334" lon="3.21538">
        <ele>586.28</ele>
        <time>2026-04-23T16:35:15.818Z</time>
      </trkpt>
      <trkpt lat="44.19334" lon="3.21537">
        <ele>586.51</ele>
        <time>2026-04-23T16:35:28.818Z</time>
      </trkpt>
      <trkpt lat="44.19333" lon="3.21538">
        <ele>587.62</ele>
        <time>2026-04-23T16:35:37.766Z</time>
      </trkpt>
      <trkpt lat="44.19332" lon="3.21537">
        <ele>586.72</ele>
        <time>2026-04-23T16:35:42.905Z</time>
      </trkpt>
      <trkpt lat="44.1933" lon="3.21536">
        <ele>586.12</ele>
        <time>2026-04-23T16:35:48.601Z</time>
      </trkpt>
      <trkpt lat="44.19324" lon="3.2153">
        <ele>586.38</ele>
        <time>2026-04-23T16:35:53.660Z</time>
      </trkpt>
      <trkpt lat="44.19321" lon="3.21528">
        <ele>586.26</ele>
        <time>2026-04-23T16:35:59.564Z</time>
      </trkpt>
      <trkpt lat="44.1932" lon="3.21528">
        <ele>585.21</ele>
        <time>2026-04-23T16:36:08.385Z</time>
      </trkpt>
      <trkpt lat="44.19315" lon="3.21523">
        <ele>583.01</ele>
        <time>2026-04-23T16:36:13.651Z</time>
      </trkpt>
      <trkpt lat="44.19312" lon="3.21521">
        <ele>582.07</ele>
        <time>2026-04-23T16:36:19.686Z</time>
      </trkpt>
      <trkpt lat="44.19312" lon="3.21518">
        <ele>581.54</ele>
        <time>2026-04-23T16:36:24.821Z</time>
      </trkpt>
      <trkpt lat="44.19309" lon="3.21514">
        <ele>581.21</ele>
        <time>2026-04-23T16:36:30.694Z</time>
      </trkpt>
      <trkpt lat="44.19308" lon="3.21514">
        <ele>582.14</ele>
        <time>2026-04-23T16:36:38.803Z</time>
      </trkpt>
      <trkpt lat="44.19307" lon="3.21513">
        <ele>580.72</ele>
        <time>2026-04-23T16:36:45.739Z</time>
      </trkpt>
      <trkpt lat="44.19301" lon="3.21509">
        <ele>581.93</ele>
        <time>2026-04-23T16:36:51.761Z</time>
      </trkpt>
      <trkpt lat="44.19292" lon="3.2151">
        <ele>581.19</ele>
        <time>2026-04-23T16:36:57.695Z</time>
      </trkpt>
      <trkpt lat="44.19282" lon="3.21507">
        <ele>580.19</ele>
        <time>2026-04-23T16:37:02.820Z</time>
      </trkpt>
      <trkpt lat="44.19276" lon="3.21502">
        <ele>579.27</ele>
        <time>2026-04-23T16:37:08.584Z</time>
      </trkpt>
      <trkpt lat="44.19276" lon="3.21494">
        <ele>577.24</ele>
        <time>2026-04-23T16:37:13.808Z</time>
      </trkpt>
      <trkpt lat="44.1928" lon="3.21488">
        <ele>576.94</ele>
        <time>2026-04-23T16:37:19.263Z</time>
      </trkpt>
      <trkpt lat="44.19281" lon="3.21488">
        <ele>576.24</ele>
        <time>2026-04-23T16:37:25.522Z</time>
      </trkpt>
      <trkpt lat="44.19281" lon="3.21486">
        <ele>576.33</ele>
        <time>2026-04-23T16:37:30.774Z</time>
      </trkpt>
      <trkpt lat="44.1928" lon="3.21475">
        <ele>576.38</ele>
        <time>2026-04-23T16:37:36.327Z</time>
      </trkpt>
      <trkpt lat="44.19276" lon="3.21469">
        <ele>574.08</ele>
        <time>2026-04-23T16:37:41.564Z</time>
      </trkpt>
      <trkpt lat="44.19275" lon="3.21467">
        <ele>574.01</ele>
        <time>2026-04-23T16:37:46.780Z</time>
      </trkpt>
      <trkpt lat="44.19275" lon="3.21465">
        <ele>573.44</ele>
        <time>2026-04-23T16:37:52.754Z</time>
      </trkpt>
      <trkpt lat="44.19272" lon="3.21458">
        <ele>572.52</ele>
        <time>2026-04-23T16:37:58.041Z</time>
      </trkpt>
      <trkpt lat="44.19271" lon="3.21454">
        <ele>571.77</ele>
        <time>2026-04-23T16:38:03.665Z</time>
      </trkpt>
      <trkpt lat="44.19268" lon="3.21448">
        <ele>570.73</ele>
        <time>2026-04-23T16:38:08.719Z</time>
      </trkpt>
      <trkpt lat="44.19267" lon="3.21441">
        <ele>569.83</ele>
        <time>2026-04-23T16:38:13.964Z</time>
      </trkpt>
      <trkpt lat="44.19265" lon="3.21436">
        <ele>569.54</ele>
        <time>2026-04-23T16:38:19.524Z</time>
      </trkpt>
      <trkpt lat="44.19263" lon="3.21424">
        <ele>570</ele>
        <time>2026-04-23T16:38:25.267Z</time>
      </trkpt>
      <trkpt lat="44.19263" lon="3.21414">
        <ele>570.5</ele>
        <time>2026-04-23T16:38:30.566Z</time>
      </trkpt>
      <trkpt lat="44.19263" lon="3.21407">
        <ele>569.84</ele>
        <time>2026-04-23T16:38:36.220Z</time>
      </trkpt>
      <trkpt lat="44.19264" lon="3.21409">
        <ele>568.47</ele>
        <time>2026-04-23T16:38:42.735Z</time>
      </trkpt>
      <trkpt lat="44.19264" lon="3.21406">
        <ele>568.86</ele>
        <time>2026-04-23T16:38:48.711Z</time>
      </trkpt>
      <trkpt lat="44.19264" lon="3.21399">
        <ele>569.61</ele>
        <time>2026-04-23T16:38:53.726Z</time>
      </trkpt>
      <trkpt lat="44.19264" lon="3.21392">
        <ele>570.61</ele>
        <time>2026-04-23T16:38:58.741Z</time>
      </trkpt>
      <trkpt lat="44.19263" lon="3.21385">
        <ele>570.06</ele>
        <time>2026-04-23T16:39:03.756Z</time>
      </trkpt>
      <trkpt lat="44.1926" lon="3.21378">
        <ele>568.28</ele>
        <time>2026-04-23T16:39:08.764Z</time>
      </trkpt>
      <trkpt lat="44.19257" lon="3.21372">
        <ele>569.43</ele>
        <time>2026-04-23T16:39:13.870Z</time>
      </trkpt>
      <trkpt lat="44.19255" lon="3.21361">
        <ele>568.84</ele>
        <time>2026-04-23T16:39:19.746Z</time>
      </trkpt>
      <trkpt lat="44.19252" lon="3.21353">
        <ele>568.29</ele>
        <time>2026-04-23T16:39:24.776Z</time>
      </trkpt>
      <trkpt lat="44.19248" lon="3.21346">
        <ele>568.07</ele>
        <time>2026-04-23T16:39:30.808Z</time>
      </trkpt>
      <trkpt lat="44.19251" lon="3.21336">
        <ele>566.62</ele>
        <time>2026-04-23T16:39:36.572Z</time>
      </trkpt>
      <trkpt lat="44.19254" lon="3.21327">
        <ele>566.33</ele>
        <time>2026-04-23T16:39:42.174Z</time>
      </trkpt>
      <trkpt lat="44.19256" lon="3.21321">
        <ele>565.31</ele>
        <time>2026-04-23T16:39:47.827Z</time>
      </trkpt>
      <trkpt lat="44.19256" lon="3.21314">
        <ele>564.61</ele>
        <time>2026-04-23T16:39:52.840Z</time>
      </trkpt>
      <trkpt lat="44.19257" lon="3.21308">
        <ele>563.96</ele>
        <time>2026-04-23T16:39:58.333Z</time>
      </trkpt>
      <trkpt lat="44.19257" lon="3.213">
        <ele>562.13</ele>
        <time>2026-04-23T16:40:03.723Z</time>
      </trkpt>
      <trkpt lat="44.1926" lon="3.21294">
        <ele>560.91</ele>
        <time>2026-04-23T16:40:09.827Z</time>
      </trkpt>
      <trkpt lat="44.19262" lon="3.21288">
        <ele>559.75</ele>
        <time>2026-04-23T16:40:15.429Z</time>
      </trkpt>
      <trkpt lat="44.19256" lon="3.21288">
        <ele>559.19</ele>
        <time>2026-04-23T16:40:20.612Z</time>
      </trkpt>
      <trkpt lat="44.19252" lon="3.21297">
        <ele>558.65</ele>
        <time>2026-04-23T16:40:26.348Z</time>
      </trkpt>
      <trkpt lat="44.19248" lon="3.21302">
        <ele>557.78</ele>
        <time>2026-04-23T16:40:31.713Z</time>
      </trkpt>
      <trkpt lat="44.19244" lon="3.21306">
        <ele>556.51</ele>
        <time>2026-04-23T16:40:37.232Z</time>
      </trkpt>
      <trkpt lat="44.19241" lon="3.21308">
        <ele>555.1</ele>
        <time>2026-04-23T16:40:42.628Z</time>
      </trkpt>
      <trkpt lat="44.19238" lon="3.21309">
        <ele>553.42</ele>
        <time>2026-04-23T16:40:47.791Z</time>
      </trkpt>
      <trkpt lat="44.19237" lon="3.21312">
        <ele>552.98</ele>
        <time>2026-04-23T16:40:53.228Z</time>
      </trkpt>
      <trkpt lat="44.19235" lon="3.21313">
        <ele>551.62</ele>
        <time>2026-04-23T16:40:58.781Z</time>
      </trkpt>
      <trkpt lat="44.19236" lon="3.21305">
        <ele>550.24</ele>
        <time>2026-04-23T16:41:04.734Z</time>
      </trkpt>
      <trkpt lat="44.19239" lon="3.21297">
        <ele>550.47</ele>
        <time>2026-04-23T16:41:10.131Z</time>
      </trkpt>
      <trkpt lat="44.19236" lon="3.21292">
        <ele>550.49</ele>
        <time>2026-04-23T16:41:15.818Z</time>
      </trkpt>
      <trkpt lat="44.19231" lon="3.21301">
        <ele>549.32</ele>
        <time>2026-04-23T16:41:21.571Z</time>
      </trkpt>
      <trkpt lat="44.19229" lon="3.21307">
        <ele>548.89</ele>
        <time>2026-04-23T16:41:26.810Z</time>
      </trkpt>
      <trkpt lat="44.19225" lon="3.21312">
        <ele>546.8</ele>
        <time>2026-04-23T16:41:32.574Z</time>
      </trkpt>
      <trkpt lat="44.19221" lon="3.21316">
        <ele>546.67</ele>
        <time>2026-04-23T16:41:37.793Z</time>
      </trkpt>
      <trkpt lat="44.19219" lon="3.21323">
        <ele>546.17</ele>
        <time>2026-04-23T16:41:43.129Z</time>
      </trkpt>
      <trkpt lat="44.19216" lon="3.21329">
        <ele>545.3</ele>
        <time>2026-04-23T16:41:48.717Z</time>
      </trkpt>
      <trkpt lat="44.19212" lon="3.21334">
        <ele>544.1</ele>
        <time>2026-04-23T16:41:54.189Z</time>
      </trkpt>
      <trkpt lat="44.19209" lon="3.21338">
        <ele>541.24</ele>
        <time>2026-04-23T16:41:59.809Z</time>
      </trkpt>
      <trkpt lat="44.19205" lon="3.21345">
        <ele>540.08</ele>
        <time>2026-04-23T16:42:05.818Z</time>
      </trkpt>
      <trkpt lat="44.19204" lon="3.2135">
        <ele>539.71</ele>
        <time>2026-04-23T16:42:11.527Z</time>
      </trkpt>
      <trkpt lat="44.19203" lon="3.21353">
        <ele>538.68</ele>
        <time>2026-04-23T16:42:16.588Z</time>
      </trkpt>
      <trkpt lat="44.19203" lon="3.21357">
        <ele>537.7</ele>
        <time>2026-04-23T16:42:21.795Z</time>
      </trkpt>
      <trkpt lat="44.19202" lon="3.21362">
        <ele>536.71</ele>
        <time>2026-04-23T16:42:27.604Z</time>
      </trkpt>
      <trkpt lat="44.19199" lon="3.21358">
        <ele>538.47</ele>
        <time>2026-04-23T16:42:33.032Z</time>
      </trkpt>
      <trkpt lat="44.19194" lon="3.21354">
        <ele>538.76</ele>
        <time>2026-04-23T16:42:38.612Z</time>
      </trkpt>
      <trkpt lat="44.19194" lon="3.21342">
        <ele>538.28</ele>
        <time>2026-04-23T16:42:44.251Z</time>
      </trkpt>
      <trkpt lat="44.19197" lon="3.21334">
        <ele>535.89</ele>
        <time>2026-04-23T16:42:49.469Z</time>
      </trkpt>
      <trkpt lat="44.19199" lon="3.21328">
        <ele>532.91</ele>
        <time>2026-04-23T16:42:54.531Z</time>
      </trkpt>
      <trkpt lat="44.19198" lon="3.2132">
        <ele>532.66</ele>
        <time>2026-04-23T16:43:00.007Z</time>
      </trkpt>
      <trkpt lat="44.19197" lon="3.21314">
        <ele>531.52</ele>
        <time>2026-04-23T16:43:05.571Z</time>
      </trkpt>
      <trkpt lat="44.19194" lon="3.21308">
        <ele>530.23</ele>
        <time>2026-04-23T16:43:10.952Z</time>
      </trkpt>
      <trkpt lat="44.19191" lon="3.21302">
        <ele>529.67</ele>
        <time>2026-04-23T16:43:16.575Z</time>
      </trkpt>
      <trkpt lat="44.1919" lon="3.21297">
        <ele>526.9</ele>
        <time>2026-04-23T16:43:22.005Z</time>
      </trkpt>
      <trkpt lat="44.1919" lon="3.21291">
        <ele>525.59</ele>
        <time>2026-04-23T16:43:27.626Z</time>
      </trkpt>
      <trkpt lat="44.1919" lon="3.21285">
        <ele>523.99</ele>
        <time>2026-04-23T16:43:32.990Z</time>
      </trkpt>
      <trkpt lat="44.19191" lon="3.21278">
        <ele>523.91</ele>
        <time>2026-04-23T16:43:38.768Z</time>
      </trkpt>
      <trkpt lat="44.19192" lon="3.21271">
        <ele>523.58</ele>
        <time>2026-04-23T16:43:44.193Z</time>
      </trkpt>
      <trkpt lat="44.19192" lon="3.21264">
        <ele>521.82</ele>
        <time>2026-04-23T16:43:49.670Z</time>
      </trkpt>
      <trkpt lat="44.19193" lon="3.21258">
        <ele>519.72</ele>
        <time>2026-04-23T16:43:54.840Z</time>
      </trkpt>
      <trkpt lat="44.19196" lon="3.21253">
        <ele>519.4</ele>
        <time>2026-04-23T16:44:00.153Z</time>
      </trkpt>
      <trkpt lat="44.19199" lon="3.21247">
        <ele>518.03</ele>
        <time>2026-04-23T16:44:05.430Z</time>
      </trkpt>
      <trkpt lat="44.19202" lon="3.21241">
        <ele>517.7</ele>
        <time>2026-04-23T16:44:10.805Z</time>
      </trkpt>
      <trkpt lat="44.19206" lon="3.21235">
        <ele>517.17</ele>
        <time>2026-04-23T16:44:16.088Z</time>
      </trkpt>
      <trkpt lat="44.19207" lon="3.21229">
        <ele>514.28</ele>
        <time>2026-04-23T16:44:21.546Z</time>
      </trkpt>
      <trkpt lat="44.19208" lon="3.21222">
        <ele>513.43</ele>
        <time>2026-04-23T16:44:26.731Z</time>
      </trkpt>
      <trkpt lat="44.1921" lon="3.21216">
        <ele>511.94</ele>
        <time>2026-04-23T16:44:31.760Z</time>
      </trkpt>
      <trkpt lat="44.19212" lon="3.21211">
        <ele>511.97</ele>
        <time>2026-04-23T16:44:36.882Z</time>
      </trkpt>
      <trkpt lat="44.19213" lon="3.21205">
        <ele>511.09</ele>
        <time>2026-04-23T16:44:42.533Z</time>
      </trkpt>
      <trkpt lat="44.19216" lon="3.21199">
        <ele>509.18</ele>
        <time>2026-04-23T16:44:47.872Z</time>
      </trkpt>
      <trkpt lat="44.19218" lon="3.21192">
        <ele>507.75</ele>
        <time>2026-04-23T16:44:53.741Z</time>
      </trkpt>
      <trkpt lat="44.1922" lon="3.21186">
        <ele>506.48</ele>
        <time>2026-04-23T16:44:59.215Z</time>
      </trkpt>
      <trkpt lat="44.19223" lon="3.21179">
        <ele>506.32</ele>
        <time>2026-04-23T16:45:04.467Z</time>
      </trkpt>
      <trkpt lat="44.19225" lon="3.21172">
        <ele>504.89</ele>
        <time>2026-04-23T16:45:09.511Z</time>
      </trkpt>
      <trkpt lat="44.19225" lon="3.21171">
        <ele>502.75</ele>
        <time>2026-04-23T16:45:14.761Z</time>
      </trkpt>
      <trkpt lat="44.19225" lon="3.21172">
        <ele>502.46</ele>
        <time>2026-04-23T16:45:20.509Z</time>
      </trkpt>
      <trkpt lat="44.19225" lon="3.21173">
        <ele>503.96</ele>
        <time>2026-04-23T16:45:28.745Z</time>
      </trkpt>
      <trkpt lat="44.19224" lon="3.21173">
        <ele>503.33</ele>
        <time>2026-04-23T16:45:42.724Z</time>
      </trkpt>
      <trkpt lat="44.19223" lon="3.21172">
        <ele>501.93</ele>
        <time>2026-04-23T16:45:47.739Z</time>
      </trkpt>
      <trkpt lat="44.19225" lon="3.21169">
        <ele>502.73</ele>
        <time>2026-04-23T16:45:52.818Z</time>
      </trkpt>
      <trkpt lat="44.19232" lon="3.21155">
        <ele>501.8</ele>
        <time>2026-04-23T16:45:58.569Z</time>
      </trkpt>
      <trkpt lat="44.19238" lon="3.21147">
        <ele>501.46</ele>
        <time>2026-04-23T16:46:03.751Z</time>
      </trkpt>
      <trkpt lat="44.19241" lon="3.21138">
        <ele>500.31</ele>
        <time>2026-04-23T16:46:08.766Z</time>
      </trkpt>
      <trkpt lat="44.1924" lon="3.21134">
        <ele>498.96</ele>
        <time>2026-04-23T16:46:14.355Z</time>
      </trkpt>
      <trkpt lat="44.19242" lon="3.21128">
        <ele>498.27</ele>
        <time>2026-04-23T16:46:19.751Z</time>
      </trkpt>
      <trkpt lat="44.19244" lon="3.21119">
        <ele>498.63</ele>
        <time>2026-04-23T16:46:25.408Z</time>
      </trkpt>
      <trkpt lat="44.1925" lon="3.21112">
        <ele>497.9</ele>
        <time>2026-04-23T16:46:30.854Z</time>
      </trkpt>
      <trkpt lat="44.19257" lon="3.21106">
        <ele>496.37</ele>
        <time>2026-04-23T16:46:36.537Z</time>
      </trkpt>
      <trkpt lat="44.1926" lon="3.21101">
        <ele>495.45</ele>
        <time>2026-04-23T16:46:42.476Z</time>
      </trkpt>
      <trkpt lat="44.19256" lon="3.21093">
        <ele>493.76</ele>
        <time>2026-04-23T16:46:47.822Z</time>
      </trkpt>
      <trkpt lat="44.19249" lon="3.21093">
        <ele>493.2</ele>
        <time>2026-04-23T16:46:52.838Z</time>
      </trkpt>
      <trkpt lat="44.19243" lon="3.21098">
        <ele>492.79</ele>
        <time>2026-04-23T16:46:58.293Z</time>
      </trkpt>
      <trkpt lat="44.19237" lon="3.211">
        <ele>491.82</ele>
        <time>2026-04-23T16:47:03.734Z</time>
      </trkpt>
      <trkpt lat="44.19234" lon="3.21104">
        <ele>491.17</ele>
        <time>2026-04-23T16:47:09.034Z</time>
      </trkpt>
      <trkpt lat="44.19235" lon="3.21112">
        <ele>489.11</ele>
        <time>2026-04-23T16:47:14.832Z</time>
      </trkpt>
      <trkpt lat="44.19238" lon="3.21115">
        <ele>489.49</ele>
        <time>2026-04-23T16:47:20.052Z</time>
      </trkpt>
      <trkpt lat="44.19237" lon="3.21115">
        <ele>489.91</ele>
        <time>2026-04-23T16:47:30.351Z</time>
      </trkpt>
      <trkpt lat="44.19231" lon="3.21119">
        <ele>489.43</ele>
        <time>2026-04-23T16:47:35.632Z</time>
      </trkpt>
      <trkpt lat="44.19225" lon="3.21123">
        <ele>488.8</ele>
        <time>2026-04-23T16:47:41.799Z</time>
      </trkpt>
      <trkpt lat="44.19221" lon="3.2113">
        <ele>488.32</ele>
        <time>2026-04-23T16:47:47.831Z</time>
      </trkpt>
      <trkpt lat="44.19217" lon="3.21136">
        <ele>488.26</ele>
        <time>2026-04-23T16:47:53.613Z</time>
      </trkpt>
      <trkpt lat="44.19213" lon="3.21142">
        <ele>488.07</ele>
        <time>2026-04-23T16:47:58.818Z</time>
      </trkpt>
      <trkpt lat="44.19212" lon="3.21142">
        <ele>486.92</ele>
        <time>2026-04-23T16:48:04.806Z</time>
      </trkpt>
      <trkpt lat="44.19208" lon="3.21148">
        <ele>487.26</ele>
        <time>2026-04-23T16:48:10.753Z</time>
      </trkpt>
      <trkpt lat="44.19202" lon="3.21154">
        <ele>486.85</ele>
        <time>2026-04-23T16:48:16.652Z</time>
      </trkpt>
      <trkpt lat="44.19197" lon="3.21159">
        <ele>486.91</ele>
        <time>2026-04-23T16:48:22.174Z</time>
      </trkpt>
      <trkpt lat="44.19196" lon="3.21158">
        <ele>486.69</ele>
        <time>2026-04-23T16:48:27.750Z</time>
      </trkpt>
      <trkpt lat="44.19192" lon="3.21166">
        <ele>485.32</ele>
        <time>2026-04-23T16:48:33.469Z</time>
      </trkpt>
      <trkpt lat="44.19187" lon="3.21174">
        <ele>485.21</ele>
        <time>2026-04-23T16:48:39.231Z</time>
      </trkpt>
      <trkpt lat="44.19182" lon="3.21179">
        <ele>484.64</ele>
        <time>2026-04-23T16:48:44.414Z</time>
      </trkpt>
      <trkpt lat="44.19179" lon="3.21184">
        <ele>484.21</ele>
        <time>2026-04-23T16:48:49.797Z</time>
      </trkpt>
      <trkpt lat="44.19176" lon="3.21191">
        <ele>484.44</ele>
        <time>2026-04-23T16:48:55.468Z</time>
      </trkpt>
      <trkpt lat="44.19172" lon="3.21199">
        <ele>482.91</ele>
        <time>2026-04-23T16:49:00.818Z</time>
      </trkpt>
      <trkpt lat="44.19166" lon="3.21204">
        <ele>482.58</ele>
        <time>2026-04-23T16:49:06.502Z</time>
      </trkpt>
      <trkpt lat="44.19163" lon="3.2121">
        <ele>482.06</ele>
        <time>2026-04-23T16:49:11.687Z</time>
      </trkpt>
      <trkpt lat="44.1916" lon="3.21216">
        <ele>481.58</ele>
        <time>2026-04-23T16:49:16.825Z</time>
      </trkpt>
      <trkpt lat="44.19157" lon="3.21221">
        <ele>480.63</ele>
        <time>2026-04-23T16:49:22.126Z</time>
      </trkpt>
      <trkpt lat="44.19153" lon="3.21227">
        <ele>479.77</ele>
        <time>2026-04-23T16:49:27.780Z</time>
      </trkpt>
      <trkpt lat="44.19148" lon="3.21233">
        <ele>478.46</ele>
        <time>2026-04-23T16:49:33.322Z</time>
      </trkpt>
      <trkpt lat="44.19146" lon="3.21239">
        <ele>478.53</ele>
        <time>2026-04-23T16:49:38.823Z</time>
      </trkpt>
      <trkpt lat="44.19145" lon="3.21248">
        <ele>479.84</ele>
        <time>2026-04-23T16:49:43.931Z</time>
      </trkpt>
      <trkpt lat="44.19141" lon="3.21242">
        <ele>476.9</ele>
        <time>2026-04-23T16:49:49.770Z</time>
      </trkpt>
      <trkpt lat="44.19144" lon="3.2123">
        <ele>476.14</ele>
        <time>2026-04-23T16:49:55.352Z</time>
      </trkpt>
      <trkpt lat="44.19145" lon="3.21223">
        <ele>474.18</ele>
        <time>2026-04-23T16:50:00.511Z</time>
      </trkpt>
      <trkpt lat="44.19146" lon="3.21216">
        <ele>472.97</ele>
        <time>2026-04-23T16:50:05.756Z</time>
      </trkpt>
      <trkpt lat="44.19145" lon="3.21209">
        <ele>472.52</ele>
        <time>2026-04-23T16:50:11.112Z</time>
      </trkpt>
      <trkpt lat="44.19145" lon="3.21203">
        <ele>472.85</ele>
        <time>2026-04-23T16:50:16.172Z</time>
      </trkpt>
      <trkpt lat="44.19147" lon="3.21194">
        <ele>474.3</ele>
        <time>2026-04-23T16:50:21.818Z</time>
      </trkpt>
      <trkpt lat="44.19147" lon="3.21185">
        <ele>471.8</ele>
        <time>2026-04-23T16:50:27.795Z</time>
      </trkpt>
      <trkpt lat="44.19151" lon="3.21177">
        <ele>470.1</ele>
        <time>2026-04-23T16:50:32.970Z</time>
      </trkpt>
      <trkpt lat="44.19154" lon="3.21171">
        <ele>469.26</ele>
        <time>2026-04-23T16:50:38.431Z</time>
      </trkpt>
      <trkpt lat="44.19155" lon="3.21165">
        <ele>468.47</ele>
        <time>2026-04-23T16:50:43.825Z</time>
      </trkpt>
      <trkpt lat="44.19158" lon="3.21159">
        <ele>468.22</ele>
        <time>2026-04-23T16:50:49.209Z</time>
      </trkpt>
      <trkpt lat="44.1916" lon="3.21154">
        <ele>467.78</ele>
        <time>2026-04-23T16:50:54.415Z</time>
      </trkpt>
      <trkpt lat="44.19162" lon="3.21146">
        <ele>466.17</ele>
        <time>2026-04-23T16:50:59.832Z</time>
      </trkpt>
      <trkpt lat="44.19161" lon="3.21139">
        <ele>465.39</ele>
        <time>2026-04-23T16:51:05.808Z</time>
      </trkpt>
      <trkpt lat="44.19164" lon="3.21132">
        <ele>465</ele>
        <time>2026-04-23T16:51:10.921Z</time>
      </trkpt>
      <trkpt lat="44.19165" lon="3.21124">
        <ele>464.41</ele>
        <time>2026-04-23T16:51:16.349Z</time>
      </trkpt>
      <trkpt lat="44.19168" lon="3.21117">
        <ele>463.73</ele>
        <time>2026-04-23T16:51:21.356Z</time>
      </trkpt>
      <trkpt lat="44.1917" lon="3.21109">
        <ele>462.28</ele>
        <time>2026-04-23T16:51:26.869Z</time>
      </trkpt>
      <trkpt lat="44.19172" lon="3.21101">
        <ele>461.01</ele>
        <time>2026-04-23T16:51:32.568Z</time>
      </trkpt>
      <trkpt lat="44.19173" lon="3.21094">
        <ele>460.54</ele>
        <time>2026-04-23T16:51:37.831Z</time>
      </trkpt>
      <trkpt lat="44.19174" lon="3.21086">
        <ele>459.37</ele>
        <time>2026-04-23T16:51:43.196Z</time>
      </trkpt>
      <trkpt lat="44.19174" lon="3.21079">
        <ele>459.09</ele>
        <time>2026-04-23T16:51:48.818Z</time>
      </trkpt>
      <trkpt lat="44.19175" lon="3.21073">
        <ele>458.7</ele>
        <time>2026-04-23T16:51:53.829Z</time>
      </trkpt>
      <trkpt lat="44.19178" lon="3.21066">
        <ele>457.4</ele>
        <time>2026-04-23T16:51:59.791Z</time>
      </trkpt>
      <trkpt lat="44.19179" lon="3.21057">
        <ele>456.56</ele>
        <time>2026-04-23T16:52:05.648Z</time>
      </trkpt>
      <trkpt lat="44.19177" lon="3.2105">
        <ele>456.09</ele>
        <time>2026-04-23T16:52:10.818Z</time>
      </trkpt>
      <trkpt lat="44.19178" lon="3.21043">
        <ele>455.68</ele>
        <time>2026-04-23T16:52:15.818Z</time>
      </trkpt>
      <trkpt lat="44.1918" lon="3.21035">
        <ele>455.43</ele>
        <time>2026-04-23T16:52:21.693Z</time>
      </trkpt>
      <trkpt lat="44.19184" lon="3.21026">
        <ele>454.29</ele>
        <time>2026-04-23T16:52:27.754Z</time>
      </trkpt>
      <trkpt lat="44.19187" lon="3.2102">
        <ele>453.94</ele>
        <time>2026-04-23T16:52:32.929Z</time>
      </trkpt>
      <trkpt lat="44.19188" lon="3.21017">
        <ele>453.31</ele>
        <time>2026-04-23T16:52:38.142Z</time>
      </trkpt>
      <trkpt lat="44.19189" lon="3.21009">
        <ele>453.25</ele>
        <time>2026-04-23T16:52:43.613Z</time>
      </trkpt>
      <trkpt lat="44.19192" lon="3.21002">
        <ele>453.79</ele>
        <time>2026-04-23T16:52:49.753Z</time>
      </trkpt>
      <trkpt lat="44.19193" lon="3.20993">
        <ele>452.39</ele>
        <time>2026-04-23T16:52:55.617Z</time>
      </trkpt>
      <trkpt lat="44.19195" lon="3.20985">
        <ele>452.08</ele>
        <time>2026-04-23T16:53:01.511Z</time>
      </trkpt>
      <trkpt lat="44.19196" lon="3.20977">
        <ele>452.05</ele>
        <time>2026-04-23T16:53:06.573Z</time>
      </trkpt>
      <trkpt lat="44.19197" lon="3.20969">
        <ele>451.81</ele>
        <time>2026-04-23T16:53:11.725Z</time>
      </trkpt>
      <trkpt lat="44.19201" lon="3.20962">
        <ele>451.72</ele>
        <time>2026-04-23T16:53:17.818Z</time>
      </trkpt>
      <trkpt lat="44.19203" lon="3.20954">
        <ele>450.6</ele>
        <time>2026-04-23T16:53:23.557Z</time>
      </trkpt>
      <trkpt lat="44.19206" lon="3.20947">
        <ele>450.35</ele>
        <time>2026-04-23T16:53:29.365Z</time>
      </trkpt>
      <trkpt lat="44.19208" lon="3.2094">
        <ele>450.03</ele>
        <time>2026-04-23T16:53:34.818Z</time>
      </trkpt>
      <trkpt lat="44.1921" lon="3.20933">
        <ele>449.71</ele>
        <time>2026-04-23T16:53:40.790Z</time>
      </trkpt>
      <trkpt lat="44.19214" lon="3.20926">
        <ele>449.53</ele>
        <time>2026-04-23T16:53:46.538Z</time>
      </trkpt>
      <trkpt lat="44.19219" lon="3.20919">
        <ele>447.97</ele>
        <time>2026-04-23T16:53:52.176Z</time>
      </trkpt>
      <trkpt lat="44.19216" lon="3.20914">
        <ele>447.63</ele>
        <time>2026-04-23T16:53:57.810Z</time>
      </trkpt>
      <trkpt lat="44.19208" lon="3.20922">
        <ele>447.1</ele>
        <time>2026-04-23T16:54:02.840Z</time>
      </trkpt>
      <trkpt lat="44.19203" lon="3.20931">
        <ele>446.8</ele>
        <time>2026-04-23T16:54:08.818Z</time>
      </trkpt>
      <trkpt lat="44.19199" lon="3.2094">
        <ele>445.98</ele>
        <time>2026-04-23T16:54:14.554Z</time>
      </trkpt>
      <trkpt lat="44.19196" lon="3.20947">
        <ele>445.34</ele>
        <time>2026-04-23T16:54:19.817Z</time>
      </trkpt>
      <trkpt lat="44.19191" lon="3.20952">
        <ele>445.07</ele>
        <time>2026-04-23T16:54:25.654Z</time>
      </trkpt>
      <trkpt lat="44.19187" lon="3.20959">
        <ele>444.59</ele>
        <time>2026-04-23T16:54:30.818Z</time>
      </trkpt>
      <trkpt lat="44.19183" lon="3.20963">
        <ele>444.08</ele>
        <time>2026-04-23T16:54:36.288Z</time>
      </trkpt>
      <trkpt lat="44.1918" lon="3.20968">
        <ele>444.31</ele>
        <time>2026-04-23T16:54:41.375Z</time>
      </trkpt>
      <trkpt lat="44.19177" lon="3.20977">
        <ele>444.41</ele>
        <time>2026-04-23T16:54:46.632Z</time>
      </trkpt>
      <trkpt lat="44.19174" lon="3.20985">
        <ele>443.89</ele>
        <time>2026-04-23T16:54:52.491Z</time>
      </trkpt>
      <trkpt lat="44.1917" lon="3.20992">
        <ele>444.22</ele>
        <time>2026-04-23T16:54:58.495Z</time>
      </trkpt>
      <trkpt lat="44.19168" lon="3.20999">
        <ele>443.65</ele>
        <time>2026-04-23T16:55:03.534Z</time>
      </trkpt>
      <trkpt lat="44.19166" lon="3.21006">
        <ele>444.35</ele>
        <time>2026-04-23T16:55:08.818Z</time>
      </trkpt>
      <trkpt lat="44.19163" lon="3.21013">
        <ele>444.37</ele>
        <time>2026-04-23T16:55:14.057Z</time>
      </trkpt>
      <trkpt lat="44.1916" lon="3.21022">
        <ele>444.59</ele>
        <time>2026-04-23T16:55:19.410Z</time>
      </trkpt>
      <trkpt lat="44.19159" lon="3.21029">
        <ele>444.46</ele>
        <time>2026-04-23T16:55:24.512Z</time>
      </trkpt>
      <trkpt lat="44.19156" lon="3.21036">
        <ele>444.22</ele>
        <time>2026-04-23T16:55:29.818Z</time>
      </trkpt>
      <trkpt lat="44.19154" lon="3.21045">
        <ele>444.49</ele>
        <time>2026-04-23T16:55:35.832Z</time>
      </trkpt>
      <trkpt lat="44.19151" lon="3.21053">
        <ele>444.24</ele>
        <time>2026-04-23T16:55:41.710Z</time>
      </trkpt>
      <trkpt lat="44.19148" lon="3.2106">
        <ele>444.29</ele>
        <time>2026-04-23T16:55:47.616Z</time>
      </trkpt>
      <trkpt lat="44.19144" lon="3.21068">
        <ele>444.53</ele>
        <time>2026-04-23T16:55:52.632Z</time>
      </trkpt>
      <trkpt lat="44.19139" lon="3.21074">
        <ele>444.36</ele>
        <time>2026-04-23T16:55:57.818Z</time>
      </trkpt>
      <trkpt lat="44.19134" lon="3.2108">
        <ele>444.29</ele>
        <time>2026-04-23T16:56:03.730Z</time>
      </trkpt>
      <trkpt lat="44.19133" lon="3.21089">
        <ele>444.31</ele>
        <time>2026-04-23T16:56:08.817Z</time>
      </trkpt>
      <trkpt lat="44.19131" lon="3.21096">
        <ele>443.83</ele>
        <time>2026-04-23T16:56:13.879Z</time>
      </trkpt>
      <trkpt lat="44.19127" lon="3.21103">
        <ele>443.85</ele>
        <time>2026-04-23T16:56:19.818Z</time>
      </trkpt>
      <trkpt lat="44.19125" lon="3.21109">
        <ele>444.15</ele>
        <time>2026-04-23T16:56:24.970Z</time>
      </trkpt>
      <trkpt lat="44.19122" lon="3.21115">
        <ele>443.63</ele>
        <time>2026-04-23T16:56:30.432Z</time>
      </trkpt>
      <trkpt lat="44.19118" lon="3.21122">
        <ele>443.68</ele>
        <time>2026-04-23T16:56:36.194Z</time>
      </trkpt>
      <trkpt lat="44.19114" lon="3.2113">
        <ele>443.24</ele>
        <time>2026-04-23T16:56:41.717Z</time>
      </trkpt>
      <trkpt lat="44.19112" lon="3.21138">
        <ele>443.1</ele>
        <time>2026-04-23T16:56:46.750Z</time>
      </trkpt>
      <trkpt lat="44.19107" lon="3.21144">
        <ele>442.51</ele>
        <time>2026-04-23T16:56:52.495Z</time>
      </trkpt>
      <trkpt lat="44.19105" lon="3.21152">
        <ele>441.9</ele>
        <time>2026-04-23T16:56:57.842Z</time>
      </trkpt>
      <trkpt lat="44.19101" lon="3.2116">
        <ele>442.18</ele>
        <time>2026-04-23T16:57:03.769Z</time>
      </trkpt>
      <trkpt lat="44.19099" lon="3.21168">
        <ele>441.3</ele>
        <time>2026-04-23T16:57:08.834Z</time>
      </trkpt>
      <trkpt lat="44.19097" lon="3.21175">
        <ele>441.36</ele>
        <time>2026-04-23T16:57:13.849Z</time>
      </trkpt>
      <trkpt lat="44.19096" lon="3.21185">
        <ele>441.27</ele>
        <time>2026-04-23T16:57:19.356Z</time>
      </trkpt>
      <trkpt lat="44.19093" lon="3.21191">
        <ele>440.54</ele>
        <time>2026-04-23T16:57:24.592Z</time>
      </trkpt>
      <trkpt lat="44.19087" lon="3.21187">
        <ele>439.22</ele>
        <time>2026-04-23T16:57:29.759Z</time>
      </trkpt>
      <trkpt lat="44.19084" lon="3.2118">
        <ele>438.96</ele>
        <time>2026-04-23T16:57:34.773Z</time>
      </trkpt>
      <trkpt lat="44.19079" lon="3.2117">
        <ele>438.3</ele>
        <time>2026-04-23T16:57:40.118Z</time>
      </trkpt>
      <trkpt lat="44.1908" lon="3.21166">
        <ele>438.51</ele>
        <time>2026-04-23T16:57:45.764Z</time>
      </trkpt>
      <trkpt lat="44.1908" lon="3.21165">
        <ele>438.37</ele>
        <time>2026-04-23T16:57:54.592Z</time>
      </trkpt>
      <trkpt lat="44.19082" lon="3.2116">
        <ele>439.1</ele>
        <time>2026-04-23T16:57:59.826Z</time>
      </trkpt>
      <trkpt lat="44.1908" lon="3.21149">
        <ele>437.34</ele>
        <time>2026-04-23T16:58:05.446Z</time>
      </trkpt>
      <trkpt lat="44.19078" lon="3.21139">
        <ele>437.04</ele>
        <time>2026-04-23T16:58:10.953Z</time>
      </trkpt>
      <trkpt lat="44.19081" lon="3.21135">
        <ele>435.55</ele>
        <time>2026-04-23T16:58:16.209Z</time>
      </trkpt>
      <trkpt lat="44.19083" lon="3.21131">
        <ele>434.7</ele>
        <time>2026-04-23T16:58:21.250Z</time>
      </trkpt>
      <trkpt lat="44.19084" lon="3.21125">
        <ele>434.75</ele>
        <time>2026-04-23T16:58:26.568Z</time>
      </trkpt>
      <trkpt lat="44.19087" lon="3.21121">
        <ele>434.84</ele>
        <time>2026-04-23T16:58:31.770Z</time>
      </trkpt>
      <trkpt lat="44.19085" lon="3.21112">
        <ele>434.12</ele>
        <time>2026-04-23T16:58:37.206Z</time>
      </trkpt>
      <trkpt lat="44.19087" lon="3.21106">
        <ele>433.96</ele>
        <time>2026-04-23T16:58:42.573Z</time>
      </trkpt>
      <trkpt lat="44.1909" lon="3.21102">
        <ele>432.88</ele>
        <time>2026-04-23T16:58:47.790Z</time>
      </trkpt>
      <trkpt lat="44.19091" lon="3.21096">
        <ele>431.81</ele>
        <time>2026-04-23T16:58:52.818Z</time>
      </trkpt>
      <trkpt lat="44.1909" lon="3.21088">
        <ele>432.08</ele>
        <time>2026-04-23T16:58:57.818Z</time>
      </trkpt>
      <trkpt lat="44.19091" lon="3.21078">
        <ele>433.55</ele>
        <time>2026-04-23T16:59:03.838Z</time>
      </trkpt>
      <trkpt lat="44.19093" lon="3.21072">
        <ele>431</ele>
        <time>2026-04-23T16:59:09.752Z</time>
      </trkpt>
      <trkpt lat="44.19095" lon="3.21069">
        <ele>429.87</ele>
        <time>2026-04-23T16:59:14.996Z</time>
      </trkpt>
      <trkpt lat="44.19096" lon="3.21059">
        <ele>428.52</ele>
        <time>2026-04-23T16:59:20.453Z</time>
      </trkpt>
      <trkpt lat="44.19097" lon="3.21049">
        <ele>429.12</ele>
        <time>2026-04-23T16:59:25.497Z</time>
      </trkpt>
      <trkpt lat="44.19097" lon="3.21043">
        <ele>428.21</ele>
        <time>2026-04-23T16:59:30.818Z</time>
      </trkpt>
      <trkpt lat="44.19098" lon="3.21034">
        <ele>427.31</ele>
        <time>2026-04-23T16:59:36.711Z</time>
      </trkpt>
      <trkpt lat="44.19099" lon="3.21027">
        <ele>426.42</ele>
        <time>2026-04-23T16:59:41.878Z</time>
      </trkpt>
      <trkpt lat="44.19101" lon="3.2102">
        <ele>425.79</ele>
        <time>2026-04-23T16:59:47.197Z</time>
      </trkpt>
      <trkpt lat="44.19103" lon="3.21011">
        <ele>425.7</ele>
        <time>2026-04-23T16:59:52.885Z</time>
      </trkpt>
      <trkpt lat="44.19103" lon="3.21004">
        <ele>425.16</ele>
        <time>2026-04-23T16:59:58.412Z</time>
      </trkpt>
      <trkpt lat="44.19105" lon="3.20996">
        <ele>424.47</ele>
        <time>2026-04-23T17:00:03.455Z</time>
      </trkpt>
      <trkpt lat="44.19106" lon="3.20989">
        <ele>423.51</ele>
        <time>2026-04-23T17:00:08.550Z</time>
      </trkpt>
      <trkpt lat="44.19107" lon="3.20981">
        <ele>422.64</ele>
        <time>2026-04-23T17:00:13.818Z</time>
      </trkpt>
      <trkpt lat="44.19109" lon="3.20972">
        <ele>422.51</ele>
        <time>2026-04-23T17:00:19.245Z</time>
      </trkpt>
      <trkpt lat="44.1911" lon="3.20961">
        <ele>422.07</ele>
        <time>2026-04-23T17:00:24.373Z</time>
      </trkpt>
      <trkpt lat="44.19112" lon="3.20953">
        <ele>421.2</ele>
        <time>2026-04-23T17:00:29.818Z</time>
      </trkpt>
      <trkpt lat="44.19112" lon="3.2095">
        <ele>420.33</ele>
        <time>2026-04-23T17:00:34.827Z</time>
      </trkpt>
      <trkpt lat="44.19114" lon="3.20942">
        <ele>420.13</ele>
        <time>2026-04-23T17:00:40.753Z</time>
      </trkpt>
      <trkpt lat="44.19114" lon="3.20934">
        <ele>419.92</ele>
        <time>2026-04-23T17:00:46.613Z</time>
      </trkpt>
      <trkpt lat="44.19116" lon="3.20927">
        <ele>419.6</ele>
        <time>2026-04-23T17:00:51.674Z</time>
      </trkpt>
      <trkpt lat="44.19119" lon="3.20919">
        <ele>418.48</ele>
        <time>2026-04-23T17:00:56.818Z</time>
      </trkpt>
      <trkpt lat="44.19121" lon="3.2091">
        <ele>417.81</ele>
        <time>2026-04-23T17:01:02.818Z</time>
      </trkpt>
      <trkpt lat="44.19122" lon="3.209">
        <ele>417.87</ele>
        <time>2026-04-23T17:01:08.597Z</time>
      </trkpt>
      <trkpt lat="44.19124" lon="3.20893">
        <ele>417.08</ele>
        <time>2026-04-23T17:01:13.818Z</time>
      </trkpt>
      <trkpt lat="44.19126" lon="3.20886">
        <ele>416.09</ele>
        <time>2026-04-23T17:01:18.818Z</time>
      </trkpt>
      <trkpt lat="44.1913" lon="3.20878">
        <ele>414.9</ele>
        <time>2026-04-23T17:01:24.818Z</time>
      </trkpt>
      <trkpt lat="44.19132" lon="3.20873">
        <ele>415.17</ele>
        <time>2026-04-23T17:01:29.933Z</time>
      </trkpt>
      <trkpt lat="44.19133" lon="3.20865">
        <ele>414.59</ele>
        <time>2026-04-23T17:01:35.476Z</time>
      </trkpt>
      <trkpt lat="44.19135" lon="3.20858">
        <ele>414.07</ele>
        <time>2026-04-23T17:01:40.578Z</time>
      </trkpt>
      <trkpt lat="44.19137" lon="3.2085">
        <ele>413.78</ele>
        <time>2026-04-23T17:01:45.833Z</time>
      </trkpt>
      <trkpt lat="44.19139" lon="3.20843">
        <ele>412.68</ele>
        <time>2026-04-23T17:01:51.597Z</time>
      </trkpt>
      <trkpt lat="44.1914" lon="3.20835">
        <ele>412.19</ele>
        <time>2026-04-23T17:01:56.614Z</time>
      </trkpt>
      <trkpt lat="44.19141" lon="3.20826">
        <ele>411.67</ele>
        <time>2026-04-23T17:02:01.912Z</time>
      </trkpt>
      <trkpt lat="44.19145" lon="3.20819">
        <ele>411.49</ele>
        <time>2026-04-23T17:02:07.755Z</time>
      </trkpt>
      <trkpt lat="44.19148" lon="3.20808">
        <ele>411.55</ele>
        <time>2026-04-23T17:02:13.411Z</time>
      </trkpt>
      <trkpt lat="44.19151" lon="3.20798">
        <ele>409.64</ele>
        <time>2026-04-23T17:02:18.818Z</time>
      </trkpt>
      <trkpt lat="44.19152" lon="3.20789">
        <ele>407.58</ele>
        <time>2026-04-23T17:02:23.818Z</time>
      </trkpt>
      <trkpt lat="44.19152" lon="3.20781">
        <ele>408.96</ele>
        <time>2026-04-23T17:02:29.198Z</time>
      </trkpt>
      <trkpt lat="44.19152" lon="3.20774">
        <ele>408.96</ele>
        <time>2026-04-23T17:02:34.514Z</time>
      </trkpt>
      <trkpt lat="44.19151" lon="3.20768">
        <ele>408.96</ele>
        <time>2026-04-23T17:02:39.639Z</time>
      </trkpt>
      <trkpt lat="44.19148" lon="3.20766">
        <ele>408.66</ele>
        <time>2026-04-23T17:02:45.676Z</time>
      </trkpt>
      <trkpt lat="44.19145" lon="3.2076">
        <ele>405.97</ele>
        <time>2026-04-23T17:02:51.217Z</time>
      </trkpt>
      <trkpt lat="44.19144" lon="3.20755">
        <ele>405.96</ele>
        <time>2026-04-23T17:02:56.454Z</time>
      </trkpt>
      <trkpt lat="44.19143" lon="3.20748">
        <ele>405.96</ele>
        <time>2026-04-23T17:03:01.885Z</time>
      </trkpt>
      <trkpt lat="44.19142" lon="3.20741">
        <ele>405.96</ele>
        <time>2026-04-23T17:03:07.314Z</time>
      </trkpt>
      <trkpt lat="44.1914" lon="3.20735">
        <ele>405.96</ele>
        <time>2026-04-23T17:03:12.498Z</time>
      </trkpt>
      <trkpt lat="44.19137" lon="3.20728">
        <ele>404.2</ele>
        <time>2026-04-23T17:03:17.818Z</time>
      </trkpt>
      <trkpt lat="44.19133" lon="3.20725">
        <ele>403.72</ele>
        <time>2026-04-23T17:03:22.818Z</time>
      </trkpt>
      <trkpt lat="44.19131" lon="3.2072">
        <ele>403.88</ele>
        <time>2026-04-23T17:03:28.273Z</time>
      </trkpt>
      <trkpt lat="44.19133" lon="3.20711">
        <ele>405.94</ele>
        <time>2026-04-23T17:03:33.752Z</time>
      </trkpt>
      <trkpt lat="44.19136" lon="3.20705">
        <ele>404.05</ele>
        <time>2026-04-23T17:03:39.276Z</time>
      </trkpt>
      <trkpt lat="44.19134" lon="3.20698">
        <ele>404.7</ele>
        <time>2026-04-23T17:03:44.605Z</time>
      </trkpt>
      <trkpt lat="44.19127" lon="3.20695">
        <ele>406.26</ele>
        <time>2026-04-23T17:03:49.813Z</time>
      </trkpt>
      <trkpt lat="44.19119" lon="3.20696">
        <ele>405.97</ele>
        <time>2026-04-23T17:03:54.839Z</time>
      </trkpt>
      <trkpt lat="44.19113" lon="3.20694">
        <ele>406.26</ele>
        <time>2026-04-23T17:04:00.637Z</time>
      </trkpt>
      <trkpt lat="44.19108" lon="3.2069">
        <ele>405.98</ele>
        <time>2026-04-23T17:04:06.480Z</time>
      </trkpt>
      <trkpt lat="44.19109" lon="3.20684">
        <ele>406.71</ele>
        <time>2026-04-23T17:04:12.376Z</time>
      </trkpt>
      <trkpt lat="44.1911" lon="3.20681">
        <ele>406.96</ele>
        <time>2026-04-23T17:04:17.868Z</time>
      </trkpt>
      <trkpt lat="44.1911" lon="3.20686">
        <ele>406.96</ele>
        <time>2026-04-23T17:04:23.844Z</time>
      </trkpt>
      <trkpt lat="44.1911" lon="3.20687">
        <ele>406.96</ele>
        <time>2026-04-23T17:04:28.860Z</time>
      </trkpt>
      <trkpt lat="44.19109" lon="3.20688">
        <ele>405.97</ele>
        <time>2026-04-23T17:04:34.818Z</time>
      </trkpt>
    </trkseg>
  </trk>
</gpx>